<?xml version="1.0" encoding="UTF-8" standalone="no" ?>
<gpx xmlns="http://www.topografix.com/GPX/1/1" xmlns:xsi="http://www.w3.org/2001/XMLSchema-instance" xsi:schemaLocation="http://www.topografix.com/GPX/1/1 http://www.topografix.com/GPX/1/1/gpx.xsd" version="1.1" creator="VisuGPX - https://www.visugpx.com">
  <metadata>
    <name>Tournefeuille Cyclisme sur route</name>
  </metadata>
  <trk>
    <name><![CDATA[Tournefeuille Cyclisme sur route_1]]></name>
    <trkseg>
      <trkpt lat="43.58686" lon="1.32229">
        <ele>183.2</ele>
        <time>2024-08-01T06:14:28Z</time>
      </trkpt>
      <trkpt lat="43.58679" lon="1.32224">
        <ele>184.8</ele>
        <time>2024-08-01T06:14:29Z</time>
      </trkpt>
      <trkpt lat="43.58676" lon="1.32219">
        <ele>185.2</ele>
        <time>2024-08-01T06:14:42Z</time>
      </trkpt>
      <trkpt lat="43.58676" lon="1.32217">
        <ele>185.4</ele>
        <time>2024-08-01T06:14:43Z</time>
      </trkpt>
      <trkpt lat="43.58677" lon="1.32215">
        <ele>185.4</ele>
        <time>2024-08-01T06:14:44Z</time>
      </trkpt>
      <trkpt lat="43.58677" lon="1.32213">
        <ele>185.4</ele>
        <time>2024-08-01T06:14:45Z</time>
      </trkpt>
      <trkpt lat="43.58678" lon="1.3221">
        <ele>185.4</ele>
        <time>2024-08-01T06:14:46Z</time>
      </trkpt>
      <trkpt lat="43.58678" lon="1.32207">
        <ele>185.4</ele>
        <time>2024-08-01T06:14:47Z</time>
      </trkpt>
      <trkpt lat="43.58679" lon="1.32204">
        <ele>185.6</ele>
        <time>2024-08-01T06:14:48Z</time>
      </trkpt>
      <trkpt lat="43.5868" lon="1.322">
        <ele>185.6</ele>
        <time>2024-08-01T06:14:49Z</time>
      </trkpt>
      <trkpt lat="43.5868" lon="1.32195">
        <ele>185.6</ele>
        <time>2024-08-01T06:14:50Z</time>
      </trkpt>
      <trkpt lat="43.58681" lon="1.32191">
        <ele>185.8</ele>
        <time>2024-08-01T06:14:51Z</time>
      </trkpt>
      <trkpt lat="43.58681" lon="1.32186">
        <ele>185.8</ele>
        <time>2024-08-01T06:14:52Z</time>
      </trkpt>
      <trkpt lat="43.58681" lon="1.32182">
        <ele>186</ele>
        <time>2024-08-01T06:14:53Z</time>
      </trkpt>
      <trkpt lat="43.58682" lon="1.32178">
        <ele>186.2</ele>
        <time>2024-08-01T06:14:54Z</time>
      </trkpt>
      <trkpt lat="43.58683" lon="1.32175">
        <ele>186.2</ele>
        <time>2024-08-01T06:14:55Z</time>
      </trkpt>
      <trkpt lat="43.58683" lon="1.32171">
        <ele>186.4</ele>
        <time>2024-08-01T06:14:56Z</time>
      </trkpt>
      <trkpt lat="43.58683" lon="1.32168">
        <ele>186.4</ele>
        <time>2024-08-01T06:14:57Z</time>
      </trkpt>
      <trkpt lat="43.58684" lon="1.32164">
        <ele>186.4</ele>
        <time>2024-08-01T06:14:58Z</time>
      </trkpt>
      <trkpt lat="43.58684" lon="1.3216">
        <ele>186.6</ele>
        <time>2024-08-01T06:14:59Z</time>
      </trkpt>
      <trkpt lat="43.58685" lon="1.32156">
        <ele>186.6</ele>
        <time>2024-08-01T06:15:00Z</time>
      </trkpt>
      <trkpt lat="43.58686" lon="1.32152">
        <ele>186.6</ele>
        <time>2024-08-01T06:15:01Z</time>
      </trkpt>
      <trkpt lat="43.58686" lon="1.32146">
        <ele>186.6</ele>
        <time>2024-08-01T06:15:02Z</time>
      </trkpt>
      <trkpt lat="43.58687" lon="1.32141">
        <ele>186.6</ele>
        <time>2024-08-01T06:15:03Z</time>
      </trkpt>
      <trkpt lat="43.58687" lon="1.32134">
        <ele>186.6</ele>
        <time>2024-08-01T06:15:04Z</time>
      </trkpt>
      <trkpt lat="43.58688" lon="1.32128">
        <ele>186.6</ele>
        <time>2024-08-01T06:15:05Z</time>
      </trkpt>
      <trkpt lat="43.58688" lon="1.32122">
        <ele>186.6</ele>
        <time>2024-08-01T06:15:06Z</time>
      </trkpt>
      <trkpt lat="43.58689" lon="1.32115">
        <ele>186.6</ele>
        <time>2024-08-01T06:15:07Z</time>
      </trkpt>
      <trkpt lat="43.58689" lon="1.32107">
        <ele>186.4</ele>
        <time>2024-08-01T06:15:08Z</time>
      </trkpt>
      <trkpt lat="43.58689" lon="1.321">
        <ele>186.4</ele>
        <time>2024-08-01T06:15:09Z</time>
      </trkpt>
      <trkpt lat="43.58689" lon="1.32093">
        <ele>186.4</ele>
        <time>2024-08-01T06:15:10Z</time>
      </trkpt>
      <trkpt lat="43.5869" lon="1.32086">
        <ele>186.4</ele>
        <time>2024-08-01T06:15:11Z</time>
      </trkpt>
      <trkpt lat="43.5869" lon="1.32078">
        <ele>186.4</ele>
        <time>2024-08-01T06:15:12Z</time>
      </trkpt>
      <trkpt lat="43.5869" lon="1.3207">
        <ele>186.4</ele>
        <time>2024-08-01T06:15:13Z</time>
      </trkpt>
      <trkpt lat="43.58689" lon="1.32061">
        <ele>186.2</ele>
        <time>2024-08-01T06:15:14Z</time>
      </trkpt>
      <trkpt lat="43.58689" lon="1.32053">
        <ele>186.2</ele>
        <time>2024-08-01T06:15:15Z</time>
      </trkpt>
      <trkpt lat="43.58689" lon="1.32044">
        <ele>186.2</ele>
        <time>2024-08-01T06:15:16Z</time>
      </trkpt>
      <trkpt lat="43.58688" lon="1.32035">
        <ele>186</ele>
        <time>2024-08-01T06:15:17Z</time>
      </trkpt>
      <trkpt lat="43.58687" lon="1.32027">
        <ele>186</ele>
        <time>2024-08-01T06:15:18Z</time>
      </trkpt>
      <trkpt lat="43.58687" lon="1.32019">
        <ele>186</ele>
        <time>2024-08-01T06:15:19Z</time>
      </trkpt>
      <trkpt lat="43.58685" lon="1.32011">
        <ele>185.8</ele>
        <time>2024-08-01T06:15:20Z</time>
      </trkpt>
      <trkpt lat="43.58684" lon="1.32003">
        <ele>185.8</ele>
        <time>2024-08-01T06:15:21Z</time>
      </trkpt>
      <trkpt lat="43.58683" lon="1.31996">
        <ele>185.8</ele>
        <time>2024-08-01T06:15:22Z</time>
      </trkpt>
      <trkpt lat="43.58682" lon="1.31989">
        <ele>185.8</ele>
        <time>2024-08-01T06:15:23Z</time>
      </trkpt>
      <trkpt lat="43.5868" lon="1.31984">
        <ele>185.8</ele>
        <time>2024-08-01T06:15:24Z</time>
      </trkpt>
      <trkpt lat="43.58676" lon="1.31979">
        <ele>185.8</ele>
        <time>2024-08-01T06:15:25Z</time>
      </trkpt>
      <trkpt lat="43.58674" lon="1.31974">
        <ele>186</ele>
        <time>2024-08-01T06:15:26Z</time>
      </trkpt>
      <trkpt lat="43.58671" lon="1.31968">
        <ele>186</ele>
        <time>2024-08-01T06:15:27Z</time>
      </trkpt>
      <trkpt lat="43.58667" lon="1.31962">
        <ele>186</ele>
        <time>2024-08-01T06:15:28Z</time>
      </trkpt>
      <trkpt lat="43.58664" lon="1.31956">
        <ele>186.2</ele>
        <time>2024-08-01T06:15:29Z</time>
      </trkpt>
      <trkpt lat="43.5866" lon="1.3195">
        <ele>186.2</ele>
        <time>2024-08-01T06:15:30Z</time>
      </trkpt>
      <trkpt lat="43.58657" lon="1.31944">
        <ele>186.4</ele>
        <time>2024-08-01T06:15:31Z</time>
      </trkpt>
      <trkpt lat="43.58653" lon="1.31938">
        <ele>186.6</ele>
        <time>2024-08-01T06:15:32Z</time>
      </trkpt>
      <trkpt lat="43.58649" lon="1.31931">
        <ele>186.6</ele>
        <time>2024-08-01T06:15:34Z</time>
      </trkpt>
      <trkpt lat="43.58646" lon="1.31925">
        <ele>186.8</ele>
        <time>2024-08-01T06:15:35Z</time>
      </trkpt>
      <trkpt lat="43.58642" lon="1.31918">
        <ele>186.8</ele>
        <time>2024-08-01T06:15:36Z</time>
      </trkpt>
      <trkpt lat="43.58639" lon="1.31911">
        <ele>186.8</ele>
        <time>2024-08-01T06:15:37Z</time>
      </trkpt>
      <trkpt lat="43.58635" lon="1.31904">
        <ele>186.8</ele>
        <time>2024-08-01T06:15:38Z</time>
      </trkpt>
      <trkpt lat="43.58631" lon="1.31898">
        <ele>186.8</ele>
        <time>2024-08-01T06:15:39Z</time>
      </trkpt>
      <trkpt lat="43.58628" lon="1.31893">
        <ele>186.8</ele>
        <time>2024-08-01T06:15:40Z</time>
      </trkpt>
      <trkpt lat="43.58623" lon="1.31887">
        <ele>186.8</ele>
        <time>2024-08-01T06:15:41Z</time>
      </trkpt>
      <trkpt lat="43.58619" lon="1.31882">
        <ele>186.8</ele>
        <time>2024-08-01T06:15:42Z</time>
      </trkpt>
      <trkpt lat="43.58614" lon="1.31877">
        <ele>186.8</ele>
        <time>2024-08-01T06:15:43Z</time>
      </trkpt>
      <trkpt lat="43.58609" lon="1.31872">
        <ele>186.8</ele>
        <time>2024-08-01T06:15:44Z</time>
      </trkpt>
      <trkpt lat="43.58604" lon="1.31867">
        <ele>186.8</ele>
        <time>2024-08-01T06:15:45Z</time>
      </trkpt>
      <trkpt lat="43.58598" lon="1.31863">
        <ele>186.8</ele>
        <time>2024-08-01T06:15:46Z</time>
      </trkpt>
      <trkpt lat="43.58593" lon="1.31858">
        <ele>186.8</ele>
        <time>2024-08-01T06:15:47Z</time>
      </trkpt>
      <trkpt lat="43.58588" lon="1.31854">
        <ele>187</ele>
        <time>2024-08-01T06:15:48Z</time>
      </trkpt>
      <trkpt lat="43.58583" lon="1.31849">
        <ele>187</ele>
        <time>2024-08-01T06:15:49Z</time>
      </trkpt>
      <trkpt lat="43.58578" lon="1.31845">
        <ele>187.2</ele>
        <time>2024-08-01T06:15:50Z</time>
      </trkpt>
      <trkpt lat="43.58573" lon="1.31841">
        <ele>187.2</ele>
        <time>2024-08-01T06:15:51Z</time>
      </trkpt>
      <trkpt lat="43.58568" lon="1.31836">
        <ele>187.4</ele>
        <time>2024-08-01T06:15:52Z</time>
      </trkpt>
      <trkpt lat="43.58562" lon="1.31831">
        <ele>187.6</ele>
        <time>2024-08-01T06:15:53Z</time>
      </trkpt>
      <trkpt lat="43.58557" lon="1.31826">
        <ele>187.6</ele>
        <time>2024-08-01T06:15:54Z</time>
      </trkpt>
      <trkpt lat="43.58552" lon="1.31822">
        <ele>187.6</ele>
        <time>2024-08-01T06:15:55Z</time>
      </trkpt>
      <trkpt lat="43.58548" lon="1.31817">
        <ele>187.8</ele>
        <time>2024-08-01T06:15:56Z</time>
      </trkpt>
      <trkpt lat="43.58543" lon="1.31813">
        <ele>187.8</ele>
        <time>2024-08-01T06:15:57Z</time>
      </trkpt>
      <trkpt lat="43.58537" lon="1.31806">
        <ele>187.8</ele>
        <time>2024-08-01T06:15:58Z</time>
      </trkpt>
      <trkpt lat="43.58532" lon="1.31801">
        <ele>188</ele>
        <time>2024-08-01T06:15:59Z</time>
      </trkpt>
      <trkpt lat="43.58527" lon="1.31796">
        <ele>188</ele>
        <time>2024-08-01T06:16:00Z</time>
      </trkpt>
      <trkpt lat="43.58523" lon="1.31791">
        <ele>188.2</ele>
        <time>2024-08-01T06:16:01Z</time>
      </trkpt>
      <trkpt lat="43.58518" lon="1.31786">
        <ele>188.2</ele>
        <time>2024-08-01T06:16:02Z</time>
      </trkpt>
      <trkpt lat="43.58513" lon="1.31779">
        <ele>188.2</ele>
        <time>2024-08-01T06:16:03Z</time>
      </trkpt>
      <trkpt lat="43.58508" lon="1.31773">
        <ele>188.2</ele>
        <time>2024-08-01T06:16:04Z</time>
      </trkpt>
      <trkpt lat="43.58503" lon="1.31768">
        <ele>188.4</ele>
        <time>2024-08-01T06:16:05Z</time>
      </trkpt>
      <trkpt lat="43.58499" lon="1.31762">
        <ele>188.4</ele>
        <time>2024-08-01T06:16:06Z</time>
      </trkpt>
      <trkpt lat="43.58494" lon="1.31757">
        <ele>188.4</ele>
        <time>2024-08-01T06:16:07Z</time>
      </trkpt>
      <trkpt lat="43.58489" lon="1.31751">
        <ele>188.4</ele>
        <time>2024-08-01T06:16:08Z</time>
      </trkpt>
      <trkpt lat="43.58485" lon="1.31746">
        <ele>188.4</ele>
        <time>2024-08-01T06:16:09Z</time>
      </trkpt>
      <trkpt lat="43.58481" lon="1.3174">
        <ele>188.6</ele>
        <time>2024-08-01T06:16:10Z</time>
      </trkpt>
      <trkpt lat="43.58476" lon="1.31735">
        <ele>188.6</ele>
        <time>2024-08-01T06:16:11Z</time>
      </trkpt>
      <trkpt lat="43.58471" lon="1.3173">
        <ele>188.8</ele>
        <time>2024-08-01T06:16:12Z</time>
      </trkpt>
      <trkpt lat="43.58466" lon="1.31725">
        <ele>188.8</ele>
        <time>2024-08-01T06:16:13Z</time>
      </trkpt>
      <trkpt lat="43.58462" lon="1.3172">
        <ele>188.8</ele>
        <time>2024-08-01T06:16:14Z</time>
      </trkpt>
      <trkpt lat="43.58457" lon="1.31715">
        <ele>188.8</ele>
        <time>2024-08-01T06:16:15Z</time>
      </trkpt>
      <trkpt lat="43.58453" lon="1.3171">
        <ele>189</ele>
        <time>2024-08-01T06:16:16Z</time>
      </trkpt>
      <trkpt lat="43.58448" lon="1.31705">
        <ele>189</ele>
        <time>2024-08-01T06:16:17Z</time>
      </trkpt>
      <trkpt lat="43.58443" lon="1.31699">
        <ele>189</ele>
        <time>2024-08-01T06:16:18Z</time>
      </trkpt>
      <trkpt lat="43.58439" lon="1.31694">
        <ele>189</ele>
        <time>2024-08-01T06:16:19Z</time>
      </trkpt>
      <trkpt lat="43.58434" lon="1.31688">
        <ele>189</ele>
        <time>2024-08-01T06:16:20Z</time>
      </trkpt>
      <trkpt lat="43.58429" lon="1.31681">
        <ele>189</ele>
        <time>2024-08-01T06:16:21Z</time>
      </trkpt>
      <trkpt lat="43.58425" lon="1.31675">
        <ele>189</ele>
        <time>2024-08-01T06:16:22Z</time>
      </trkpt>
      <trkpt lat="43.5842" lon="1.31669">
        <ele>189</ele>
        <time>2024-08-01T06:16:23Z</time>
      </trkpt>
      <trkpt lat="43.58415" lon="1.31663">
        <ele>189</ele>
        <time>2024-08-01T06:16:24Z</time>
      </trkpt>
      <trkpt lat="43.5841" lon="1.31658">
        <ele>189</ele>
        <time>2024-08-01T06:16:25Z</time>
      </trkpt>
      <trkpt lat="43.58406" lon="1.31653">
        <ele>189</ele>
        <time>2024-08-01T06:16:26Z</time>
      </trkpt>
      <trkpt lat="43.58403" lon="1.31649">
        <ele>189</ele>
        <time>2024-08-01T06:16:27Z</time>
      </trkpt>
      <trkpt lat="43.584" lon="1.31646">
        <ele>189</ele>
        <time>2024-08-01T06:16:28Z</time>
      </trkpt>
      <trkpt lat="43.58399" lon="1.31645">
        <ele>188.8</ele>
        <time>2024-08-01T06:16:29Z</time>
      </trkpt>
      <trkpt lat="43.58397" lon="1.31644">
        <ele>188.8</ele>
        <time>2024-08-01T06:16:30Z</time>
      </trkpt>
      <trkpt lat="43.58394" lon="1.31642">
        <ele>188.6</ele>
        <time>2024-08-01T06:16:31Z</time>
      </trkpt>
      <trkpt lat="43.58392" lon="1.31639">
        <ele>188.4</ele>
        <time>2024-08-01T06:16:32Z</time>
      </trkpt>
      <trkpt lat="43.58389" lon="1.31636">
        <ele>188.2</ele>
        <time>2024-08-01T06:16:33Z</time>
      </trkpt>
      <trkpt lat="43.58386" lon="1.31633">
        <ele>188.2</ele>
        <time>2024-08-01T06:16:34Z</time>
      </trkpt>
      <trkpt lat="43.58383" lon="1.31629">
        <ele>188.2</ele>
        <time>2024-08-01T06:16:35Z</time>
      </trkpt>
      <trkpt lat="43.58378" lon="1.31626">
        <ele>187.8</ele>
        <time>2024-08-01T06:16:36Z</time>
      </trkpt>
      <trkpt lat="43.58374" lon="1.31622">
        <ele>187.8</ele>
        <time>2024-08-01T06:16:37Z</time>
      </trkpt>
      <trkpt lat="43.5837" lon="1.31618">
        <ele>187.6</ele>
        <time>2024-08-01T06:16:38Z</time>
      </trkpt>
      <trkpt lat="43.58366" lon="1.31614">
        <ele>187.2</ele>
        <time>2024-08-01T06:16:39Z</time>
      </trkpt>
      <trkpt lat="43.58362" lon="1.31609">
        <ele>187.2</ele>
        <time>2024-08-01T06:16:40Z</time>
      </trkpt>
      <trkpt lat="43.58357" lon="1.31605">
        <ele>186.6</ele>
        <time>2024-08-01T06:16:41Z</time>
      </trkpt>
      <trkpt lat="43.58353" lon="1.316">
        <ele>186.2</ele>
        <time>2024-08-01T06:16:42Z</time>
      </trkpt>
      <trkpt lat="43.58348" lon="1.31596">
        <ele>185.4</ele>
        <time>2024-08-01T06:16:43Z</time>
      </trkpt>
      <trkpt lat="43.58342" lon="1.31591">
        <ele>185</ele>
        <time>2024-08-01T06:16:44Z</time>
      </trkpt>
      <trkpt lat="43.58336" lon="1.31586">
        <ele>184.4</ele>
        <time>2024-08-01T06:16:45Z</time>
      </trkpt>
      <trkpt lat="43.58331" lon="1.31582">
        <ele>183.2</ele>
        <time>2024-08-01T06:16:46Z</time>
      </trkpt>
      <trkpt lat="43.58326" lon="1.31578">
        <ele>182.8</ele>
        <time>2024-08-01T06:16:47Z</time>
      </trkpt>
      <trkpt lat="43.58323" lon="1.31574">
        <ele>181.8</ele>
        <time>2024-08-01T06:16:48Z</time>
      </trkpt>
      <trkpt lat="43.58321" lon="1.31571">
        <ele>181.2</ele>
        <time>2024-08-01T06:16:49Z</time>
      </trkpt>
      <trkpt lat="43.58318" lon="1.3157">
        <ele>180</ele>
        <time>2024-08-01T06:16:50Z</time>
      </trkpt>
      <trkpt lat="43.58315" lon="1.31569">
        <ele>179.2</ele>
        <time>2024-08-01T06:16:51Z</time>
      </trkpt>
      <trkpt lat="43.58312" lon="1.31565">
        <ele>178.6</ele>
        <time>2024-08-01T06:16:52Z</time>
      </trkpt>
      <trkpt lat="43.58307" lon="1.31561">
        <ele>177.8</ele>
        <time>2024-08-01T06:16:53Z</time>
      </trkpt>
      <trkpt lat="43.58303" lon="1.31556">
        <ele>177.2</ele>
        <time>2024-08-01T06:16:54Z</time>
      </trkpt>
      <trkpt lat="43.58298" lon="1.31551">
        <ele>176.6</ele>
        <time>2024-08-01T06:16:55Z</time>
      </trkpt>
      <trkpt lat="43.58293" lon="1.31546">
        <ele>176.4</ele>
        <time>2024-08-01T06:16:56Z</time>
      </trkpt>
      <trkpt lat="43.58287" lon="1.31542">
        <ele>175.8</ele>
        <time>2024-08-01T06:16:57Z</time>
      </trkpt>
      <trkpt lat="43.58281" lon="1.31536">
        <ele>175.4</ele>
        <time>2024-08-01T06:16:58Z</time>
      </trkpt>
      <trkpt lat="43.58274" lon="1.3153">
        <ele>175</ele>
        <time>2024-08-01T06:16:59Z</time>
      </trkpt>
      <trkpt lat="43.58268" lon="1.31524">
        <ele>174</ele>
        <time>2024-08-01T06:17:00Z</time>
      </trkpt>
      <trkpt lat="43.58262" lon="1.31518">
        <ele>173.6</ele>
        <time>2024-08-01T06:17:01Z</time>
      </trkpt>
      <trkpt lat="43.58256" lon="1.31513">
        <ele>173</ele>
        <time>2024-08-01T06:17:02Z</time>
      </trkpt>
      <trkpt lat="43.5825" lon="1.31508">
        <ele>172.6</ele>
        <time>2024-08-01T06:17:03Z</time>
      </trkpt>
      <trkpt lat="43.58244" lon="1.31503">
        <ele>172.2</ele>
        <time>2024-08-01T06:17:04Z</time>
      </trkpt>
      <trkpt lat="43.58237" lon="1.31498">
        <ele>172</ele>
        <time>2024-08-01T06:17:05Z</time>
      </trkpt>
      <trkpt lat="43.5823" lon="1.31493">
        <ele>171.8</ele>
        <time>2024-08-01T06:17:06Z</time>
      </trkpt>
      <trkpt lat="43.58223" lon="1.31486">
        <ele>171.4</ele>
        <time>2024-08-01T06:17:07Z</time>
      </trkpt>
      <trkpt lat="43.58217" lon="1.31478">
        <ele>171.4</ele>
        <time>2024-08-01T06:17:08Z</time>
      </trkpt>
      <trkpt lat="43.58211" lon="1.3147">
        <ele>171.2</ele>
        <time>2024-08-01T06:17:09Z</time>
      </trkpt>
      <trkpt lat="43.58206" lon="1.31462">
        <ele>171</ele>
        <time>2024-08-01T06:17:10Z</time>
      </trkpt>
      <trkpt lat="43.582" lon="1.31454">
        <ele>170</ele>
        <time>2024-08-01T06:17:11Z</time>
      </trkpt>
      <trkpt lat="43.58194" lon="1.31446">
        <ele>169.6</ele>
        <time>2024-08-01T06:17:12Z</time>
      </trkpt>
      <trkpt lat="43.58188" lon="1.31438">
        <ele>169.2</ele>
        <time>2024-08-01T06:17:13Z</time>
      </trkpt>
      <trkpt lat="43.58182" lon="1.3143">
        <ele>169</ele>
        <time>2024-08-01T06:17:14Z</time>
      </trkpt>
      <trkpt lat="43.58176" lon="1.31421">
        <ele>168.8</ele>
        <time>2024-08-01T06:17:15Z</time>
      </trkpt>
      <trkpt lat="43.5817" lon="1.31413">
        <ele>168.6</ele>
        <time>2024-08-01T06:17:16Z</time>
      </trkpt>
      <trkpt lat="43.58165" lon="1.31405">
        <ele>168.4</ele>
        <time>2024-08-01T06:17:17Z</time>
      </trkpt>
      <trkpt lat="43.58159" lon="1.31397">
        <ele>168.2</ele>
        <time>2024-08-01T06:17:18Z</time>
      </trkpt>
      <trkpt lat="43.58154" lon="1.31389">
        <ele>167.8</ele>
        <time>2024-08-01T06:17:19Z</time>
      </trkpt>
      <trkpt lat="43.58148" lon="1.31382">
        <ele>167.8</ele>
        <time>2024-08-01T06:17:20Z</time>
      </trkpt>
      <trkpt lat="43.58143" lon="1.31374">
        <ele>167.4</ele>
        <time>2024-08-01T06:17:21Z</time>
      </trkpt>
      <trkpt lat="43.58138" lon="1.31366">
        <ele>167.2</ele>
        <time>2024-08-01T06:17:22Z</time>
      </trkpt>
      <trkpt lat="43.58132" lon="1.31359">
        <ele>167.2</ele>
        <time>2024-08-01T06:17:23Z</time>
      </trkpt>
      <trkpt lat="43.58127" lon="1.31352">
        <ele>167</ele>
        <time>2024-08-01T06:17:24Z</time>
      </trkpt>
      <trkpt lat="43.58121" lon="1.31344">
        <ele>166.8</ele>
        <time>2024-08-01T06:17:25Z</time>
      </trkpt>
      <trkpt lat="43.58116" lon="1.31337">
        <ele>166.6</ele>
        <time>2024-08-01T06:17:26Z</time>
      </trkpt>
      <trkpt lat="43.5811" lon="1.3133">
        <ele>166.6</ele>
        <time>2024-08-01T06:17:27Z</time>
      </trkpt>
      <trkpt lat="43.58105" lon="1.31323">
        <ele>166.4</ele>
        <time>2024-08-01T06:17:28Z</time>
      </trkpt>
      <trkpt lat="43.581" lon="1.31316">
        <ele>166.4</ele>
        <time>2024-08-01T06:17:29Z</time>
      </trkpt>
      <trkpt lat="43.58094" lon="1.31309">
        <ele>166.4</ele>
        <time>2024-08-01T06:17:30Z</time>
      </trkpt>
      <trkpt lat="43.58089" lon="1.31302">
        <ele>166.4</ele>
        <time>2024-08-01T06:17:31Z</time>
      </trkpt>
      <trkpt lat="43.58084" lon="1.31294">
        <ele>166.2</ele>
        <time>2024-08-01T06:17:32Z</time>
      </trkpt>
      <trkpt lat="43.58079" lon="1.31286">
        <ele>166.2</ele>
        <time>2024-08-01T06:17:33Z</time>
      </trkpt>
      <trkpt lat="43.58074" lon="1.31279">
        <ele>166.2</ele>
        <time>2024-08-01T06:17:34Z</time>
      </trkpt>
      <trkpt lat="43.58069" lon="1.31271">
        <ele>166.2</ele>
        <time>2024-08-01T06:17:35Z</time>
      </trkpt>
      <trkpt lat="43.58065" lon="1.31264">
        <ele>166.2</ele>
        <time>2024-08-01T06:17:36Z</time>
      </trkpt>
      <trkpt lat="43.58059" lon="1.31257">
        <ele>166.2</ele>
        <time>2024-08-01T06:17:37Z</time>
      </trkpt>
      <trkpt lat="43.58054" lon="1.3125">
        <ele>166.2</ele>
        <time>2024-08-01T06:17:38Z</time>
      </trkpt>
      <trkpt lat="43.58048" lon="1.31244">
        <ele>166.2</ele>
        <time>2024-08-01T06:17:39Z</time>
      </trkpt>
      <trkpt lat="43.58043" lon="1.31237">
        <ele>166.2</ele>
        <time>2024-08-01T06:17:40Z</time>
      </trkpt>
      <trkpt lat="43.58037" lon="1.3123">
        <ele>166.2</ele>
        <time>2024-08-01T06:17:41Z</time>
      </trkpt>
      <trkpt lat="43.58032" lon="1.31223">
        <ele>166.2</ele>
        <time>2024-08-01T06:17:42Z</time>
      </trkpt>
      <trkpt lat="43.58027" lon="1.31216">
        <ele>166.2</ele>
        <time>2024-08-01T06:17:43Z</time>
      </trkpt>
      <trkpt lat="43.58021" lon="1.31209">
        <ele>166.2</ele>
        <time>2024-08-01T06:17:44Z</time>
      </trkpt>
      <trkpt lat="43.58016" lon="1.31202">
        <ele>166.2</ele>
        <time>2024-08-01T06:17:45Z</time>
      </trkpt>
      <trkpt lat="43.58011" lon="1.31195">
        <ele>166.2</ele>
        <time>2024-08-01T06:17:46Z</time>
      </trkpt>
      <trkpt lat="43.58006" lon="1.31189">
        <ele>166.2</ele>
        <time>2024-08-01T06:17:47Z</time>
      </trkpt>
      <trkpt lat="43.58001" lon="1.31182">
        <ele>166.2</ele>
        <time>2024-08-01T06:17:48Z</time>
      </trkpt>
      <trkpt lat="43.57995" lon="1.31175">
        <ele>166.2</ele>
        <time>2024-08-01T06:17:49Z</time>
      </trkpt>
      <trkpt lat="43.5799" lon="1.31169">
        <ele>166.2</ele>
        <time>2024-08-01T06:17:50Z</time>
      </trkpt>
      <trkpt lat="43.57985" lon="1.31163">
        <ele>166.2</ele>
        <time>2024-08-01T06:17:51Z</time>
      </trkpt>
      <trkpt lat="43.57979" lon="1.31156">
        <ele>166.2</ele>
        <time>2024-08-01T06:17:52Z</time>
      </trkpt>
      <trkpt lat="43.57973" lon="1.3115">
        <ele>166.2</ele>
        <time>2024-08-01T06:17:53Z</time>
      </trkpt>
      <trkpt lat="43.57968" lon="1.31143">
        <ele>166.2</ele>
        <time>2024-08-01T06:17:54Z</time>
      </trkpt>
      <trkpt lat="43.57962" lon="1.31137">
        <ele>166.2</ele>
        <time>2024-08-01T06:17:55Z</time>
      </trkpt>
      <trkpt lat="43.57956" lon="1.3113">
        <ele>166.2</ele>
        <time>2024-08-01T06:17:56Z</time>
      </trkpt>
      <trkpt lat="43.5795" lon="1.31124">
        <ele>166</ele>
        <time>2024-08-01T06:17:57Z</time>
      </trkpt>
      <trkpt lat="43.57946" lon="1.31119">
        <ele>166</ele>
        <time>2024-08-01T06:17:58Z</time>
      </trkpt>
      <trkpt lat="43.57939" lon="1.31111">
        <ele>166</ele>
        <time>2024-08-01T06:17:59Z</time>
      </trkpt>
      <trkpt lat="43.57933" lon="1.31105">
        <ele>166</ele>
        <time>2024-08-01T06:18:00Z</time>
      </trkpt>
      <trkpt lat="43.57927" lon="1.31099">
        <ele>166</ele>
        <time>2024-08-01T06:18:01Z</time>
      </trkpt>
      <trkpt lat="43.57921" lon="1.31093">
        <ele>165.8</ele>
        <time>2024-08-01T06:18:02Z</time>
      </trkpt>
      <trkpt lat="43.57915" lon="1.31087">
        <ele>165.8</ele>
        <time>2024-08-01T06:18:03Z</time>
      </trkpt>
      <trkpt lat="43.57909" lon="1.31081">
        <ele>165.8</ele>
        <time>2024-08-01T06:18:04Z</time>
      </trkpt>
      <trkpt lat="43.57903" lon="1.31075">
        <ele>165.8</ele>
        <time>2024-08-01T06:18:05Z</time>
      </trkpt>
      <trkpt lat="43.57897" lon="1.31069">
        <ele>165.8</ele>
        <time>2024-08-01T06:18:06Z</time>
      </trkpt>
      <trkpt lat="43.57892" lon="1.31063">
        <ele>165.8</ele>
        <time>2024-08-01T06:18:07Z</time>
      </trkpt>
      <trkpt lat="43.57886" lon="1.31057">
        <ele>165.8</ele>
        <time>2024-08-01T06:18:08Z</time>
      </trkpt>
      <trkpt lat="43.5788" lon="1.31051">
        <ele>165.8</ele>
        <time>2024-08-01T06:18:09Z</time>
      </trkpt>
      <trkpt lat="43.57874" lon="1.31045">
        <ele>165.8</ele>
        <time>2024-08-01T06:18:10Z</time>
      </trkpt>
      <trkpt lat="43.57868" lon="1.31039">
        <ele>165.6</ele>
        <time>2024-08-01T06:18:11Z</time>
      </trkpt>
      <trkpt lat="43.57862" lon="1.31033">
        <ele>165.6</ele>
        <time>2024-08-01T06:18:12Z</time>
      </trkpt>
      <trkpt lat="43.57855" lon="1.31027">
        <ele>165.6</ele>
        <time>2024-08-01T06:18:13Z</time>
      </trkpt>
      <trkpt lat="43.57851" lon="1.31022">
        <ele>165.6</ele>
        <time>2024-08-01T06:18:14Z</time>
      </trkpt>
      <trkpt lat="43.57843" lon="1.31015">
        <ele>165.6</ele>
        <time>2024-08-01T06:18:15Z</time>
      </trkpt>
      <trkpt lat="43.57837" lon="1.31009">
        <ele>165.6</ele>
        <time>2024-08-01T06:18:16Z</time>
      </trkpt>
      <trkpt lat="43.57831" lon="1.31003">
        <ele>165.6</ele>
        <time>2024-08-01T06:18:17Z</time>
      </trkpt>
      <trkpt lat="43.57827" lon="1.30999">
        <ele>165.4</ele>
        <time>2024-08-01T06:18:18Z</time>
      </trkpt>
      <trkpt lat="43.57821" lon="1.30992">
        <ele>165.4</ele>
        <time>2024-08-01T06:18:19Z</time>
      </trkpt>
      <trkpt lat="43.57813" lon="1.30985">
        <ele>165.4</ele>
        <time>2024-08-01T06:18:20Z</time>
      </trkpt>
      <trkpt lat="43.57807" lon="1.30979">
        <ele>165.4</ele>
        <time>2024-08-01T06:18:21Z</time>
      </trkpt>
      <trkpt lat="43.57801" lon="1.30973">
        <ele>165.4</ele>
        <time>2024-08-01T06:18:22Z</time>
      </trkpt>
      <trkpt lat="43.57796" lon="1.30967">
        <ele>165.4</ele>
        <time>2024-08-01T06:18:23Z</time>
      </trkpt>
      <trkpt lat="43.5779" lon="1.30961">
        <ele>165.4</ele>
        <time>2024-08-01T06:18:24Z</time>
      </trkpt>
      <trkpt lat="43.57784" lon="1.30955">
        <ele>165.4</ele>
        <time>2024-08-01T06:18:25Z</time>
      </trkpt>
      <trkpt lat="43.57779" lon="1.30949">
        <ele>165.4</ele>
        <time>2024-08-01T06:18:26Z</time>
      </trkpt>
      <trkpt lat="43.57773" lon="1.30942">
        <ele>165.4</ele>
        <time>2024-08-01T06:18:27Z</time>
      </trkpt>
      <trkpt lat="43.57767" lon="1.30936">
        <ele>165.4</ele>
        <time>2024-08-01T06:18:28Z</time>
      </trkpt>
      <trkpt lat="43.57761" lon="1.30931">
        <ele>165.4</ele>
        <time>2024-08-01T06:18:29Z</time>
      </trkpt>
      <trkpt lat="43.57756" lon="1.30925">
        <ele>165.4</ele>
        <time>2024-08-01T06:18:30Z</time>
      </trkpt>
      <trkpt lat="43.5775" lon="1.30919">
        <ele>165.4</ele>
        <time>2024-08-01T06:18:31Z</time>
      </trkpt>
      <trkpt lat="43.57745" lon="1.30913">
        <ele>165.4</ele>
        <time>2024-08-01T06:18:32Z</time>
      </trkpt>
      <trkpt lat="43.57739" lon="1.30906">
        <ele>165.4</ele>
        <time>2024-08-01T06:18:33Z</time>
      </trkpt>
      <trkpt lat="43.57734" lon="1.309">
        <ele>165.4</ele>
        <time>2024-08-01T06:18:34Z</time>
      </trkpt>
      <trkpt lat="43.57728" lon="1.30894">
        <ele>165.4</ele>
        <time>2024-08-01T06:18:35Z</time>
      </trkpt>
      <trkpt lat="43.57722" lon="1.30888">
        <ele>165.4</ele>
        <time>2024-08-01T06:18:36Z</time>
      </trkpt>
      <trkpt lat="43.57717" lon="1.30882">
        <ele>165.4</ele>
        <time>2024-08-01T06:18:37Z</time>
      </trkpt>
      <trkpt lat="43.57711" lon="1.30876">
        <ele>165.4</ele>
        <time>2024-08-01T06:18:38Z</time>
      </trkpt>
      <trkpt lat="43.57705" lon="1.3087">
        <ele>165.4</ele>
        <time>2024-08-01T06:18:39Z</time>
      </trkpt>
      <trkpt lat="43.57699" lon="1.30865">
        <ele>165.4</ele>
        <time>2024-08-01T06:18:40Z</time>
      </trkpt>
      <trkpt lat="43.57693" lon="1.30859">
        <ele>165.4</ele>
        <time>2024-08-01T06:18:41Z</time>
      </trkpt>
      <trkpt lat="43.57687" lon="1.30853">
        <ele>165.4</ele>
        <time>2024-08-01T06:18:42Z</time>
      </trkpt>
      <trkpt lat="43.57681" lon="1.30848">
        <ele>165.4</ele>
        <time>2024-08-01T06:18:43Z</time>
      </trkpt>
      <trkpt lat="43.57675" lon="1.30842">
        <ele>165.4</ele>
        <time>2024-08-01T06:18:44Z</time>
      </trkpt>
      <trkpt lat="43.5767" lon="1.30836">
        <ele>165.4</ele>
        <time>2024-08-01T06:18:45Z</time>
      </trkpt>
      <trkpt lat="43.57664" lon="1.3083">
        <ele>165.6</ele>
        <time>2024-08-01T06:18:46Z</time>
      </trkpt>
      <trkpt lat="43.57658" lon="1.30823">
        <ele>165.6</ele>
        <time>2024-08-01T06:18:47Z</time>
      </trkpt>
      <trkpt lat="43.57653" lon="1.30816">
        <ele>165.6</ele>
        <time>2024-08-01T06:18:48Z</time>
      </trkpt>
      <trkpt lat="43.57648" lon="1.3081">
        <ele>165.6</ele>
        <time>2024-08-01T06:18:49Z</time>
      </trkpt>
      <trkpt lat="43.57642" lon="1.30803">
        <ele>165.6</ele>
        <time>2024-08-01T06:18:50Z</time>
      </trkpt>
      <trkpt lat="43.57637" lon="1.30796">
        <ele>165.8</ele>
        <time>2024-08-01T06:18:51Z</time>
      </trkpt>
      <trkpt lat="43.57632" lon="1.30789">
        <ele>165.8</ele>
        <time>2024-08-01T06:18:52Z</time>
      </trkpt>
      <trkpt lat="43.57627" lon="1.30782">
        <ele>165.8</ele>
        <time>2024-08-01T06:18:53Z</time>
      </trkpt>
      <trkpt lat="43.57621" lon="1.30775">
        <ele>165.8</ele>
        <time>2024-08-01T06:18:54Z</time>
      </trkpt>
      <trkpt lat="43.57616" lon="1.30768">
        <ele>165.8</ele>
        <time>2024-08-01T06:18:55Z</time>
      </trkpt>
      <trkpt lat="43.5761" lon="1.30761">
        <ele>165.8</ele>
        <time>2024-08-01T06:18:56Z</time>
      </trkpt>
      <trkpt lat="43.57605" lon="1.30755">
        <ele>165.8</ele>
        <time>2024-08-01T06:18:57Z</time>
      </trkpt>
      <trkpt lat="43.576" lon="1.30748">
        <ele>165.8</ele>
        <time>2024-08-01T06:18:58Z</time>
      </trkpt>
      <trkpt lat="43.57595" lon="1.3074">
        <ele>165.8</ele>
        <time>2024-08-01T06:18:59Z</time>
      </trkpt>
      <trkpt lat="43.5759" lon="1.30733">
        <ele>165.8</ele>
        <time>2024-08-01T06:19:00Z</time>
      </trkpt>
      <trkpt lat="43.57585" lon="1.30726">
        <ele>165.8</ele>
        <time>2024-08-01T06:19:01Z</time>
      </trkpt>
      <trkpt lat="43.57579" lon="1.30719">
        <ele>165.6</ele>
        <time>2024-08-01T06:19:02Z</time>
      </trkpt>
      <trkpt lat="43.57574" lon="1.30713">
        <ele>165.4</ele>
        <time>2024-08-01T06:19:03Z</time>
      </trkpt>
      <trkpt lat="43.57569" lon="1.30706">
        <ele>165.4</ele>
        <time>2024-08-01T06:19:04Z</time>
      </trkpt>
      <trkpt lat="43.57564" lon="1.30699">
        <ele>165.6</ele>
        <time>2024-08-01T06:19:05Z</time>
      </trkpt>
      <trkpt lat="43.57559" lon="1.30692">
        <ele>165.6</ele>
        <time>2024-08-01T06:19:06Z</time>
      </trkpt>
      <trkpt lat="43.57554" lon="1.30685">
        <ele>165.6</ele>
        <time>2024-08-01T06:19:07Z</time>
      </trkpt>
      <trkpt lat="43.57548" lon="1.30678">
        <ele>165.6</ele>
        <time>2024-08-01T06:19:08Z</time>
      </trkpt>
      <trkpt lat="43.57543" lon="1.30672">
        <ele>165.6</ele>
        <time>2024-08-01T06:19:09Z</time>
      </trkpt>
      <trkpt lat="43.57537" lon="1.30665">
        <ele>165.6</ele>
        <time>2024-08-01T06:19:10Z</time>
      </trkpt>
      <trkpt lat="43.57532" lon="1.30659">
        <ele>165.6</ele>
        <time>2024-08-01T06:19:11Z</time>
      </trkpt>
      <trkpt lat="43.57526" lon="1.30653">
        <ele>165.6</ele>
        <time>2024-08-01T06:19:12Z</time>
      </trkpt>
      <trkpt lat="43.5752" lon="1.30647">
        <ele>165.6</ele>
        <time>2024-08-01T06:19:13Z</time>
      </trkpt>
      <trkpt lat="43.57515" lon="1.3064">
        <ele>165.6</ele>
        <time>2024-08-01T06:19:14Z</time>
      </trkpt>
      <trkpt lat="43.57509" lon="1.30633">
        <ele>165.6</ele>
        <time>2024-08-01T06:19:15Z</time>
      </trkpt>
      <trkpt lat="43.57505" lon="1.30628">
        <ele>165.6</ele>
        <time>2024-08-01T06:19:16Z</time>
      </trkpt>
      <trkpt lat="43.57499" lon="1.30622">
        <ele>165.4</ele>
        <time>2024-08-01T06:19:17Z</time>
      </trkpt>
      <trkpt lat="43.57492" lon="1.30615">
        <ele>165.4</ele>
        <time>2024-08-01T06:19:18Z</time>
      </trkpt>
      <trkpt lat="43.57487" lon="1.30609">
        <ele>165.4</ele>
        <time>2024-08-01T06:19:19Z</time>
      </trkpt>
      <trkpt lat="43.57481" lon="1.30603">
        <ele>165.4</ele>
        <time>2024-08-01T06:19:20Z</time>
      </trkpt>
      <trkpt lat="43.57475" lon="1.30597">
        <ele>165.8</ele>
        <time>2024-08-01T06:19:21Z</time>
      </trkpt>
      <trkpt lat="43.57471" lon="1.30593">
        <ele>165.8</ele>
        <time>2024-08-01T06:19:22Z</time>
      </trkpt>
      <trkpt lat="43.57464" lon="1.30585">
        <ele>165.6</ele>
        <time>2024-08-01T06:19:23Z</time>
      </trkpt>
      <trkpt lat="43.57459" lon="1.3058">
        <ele>165.4</ele>
        <time>2024-08-01T06:19:24Z</time>
      </trkpt>
      <trkpt lat="43.57453" lon="1.30574">
        <ele>165.4</ele>
        <time>2024-08-01T06:19:25Z</time>
      </trkpt>
      <trkpt lat="43.57448" lon="1.3057">
        <ele>165.6</ele>
        <time>2024-08-01T06:19:26Z</time>
      </trkpt>
      <trkpt lat="43.57442" lon="1.30565">
        <ele>165.4</ele>
        <time>2024-08-01T06:19:27Z</time>
      </trkpt>
      <trkpt lat="43.57436" lon="1.30559">
        <ele>165.4</ele>
        <time>2024-08-01T06:19:28Z</time>
      </trkpt>
      <trkpt lat="43.5743" lon="1.30552">
        <ele>165.4</ele>
        <time>2024-08-01T06:19:29Z</time>
      </trkpt>
      <trkpt lat="43.57424" lon="1.30546">
        <ele>165.4</ele>
        <time>2024-08-01T06:19:30Z</time>
      </trkpt>
      <trkpt lat="43.57419" lon="1.3054">
        <ele>165.6</ele>
        <time>2024-08-01T06:19:31Z</time>
      </trkpt>
      <trkpt lat="43.57414" lon="1.30535">
        <ele>165.8</ele>
        <time>2024-08-01T06:19:32Z</time>
      </trkpt>
      <trkpt lat="43.57409" lon="1.3053">
        <ele>165.8</ele>
        <time>2024-08-01T06:19:33Z</time>
      </trkpt>
      <trkpt lat="43.57403" lon="1.30522">
        <ele>165.8</ele>
        <time>2024-08-01T06:19:34Z</time>
      </trkpt>
      <trkpt lat="43.57397" lon="1.30516">
        <ele>165.8</ele>
        <time>2024-08-01T06:19:35Z</time>
      </trkpt>
      <trkpt lat="43.57392" lon="1.3051">
        <ele>165.8</ele>
        <time>2024-08-01T06:19:36Z</time>
      </trkpt>
      <trkpt lat="43.57387" lon="1.30506">
        <ele>165.8</ele>
        <time>2024-08-01T06:19:37Z</time>
      </trkpt>
      <trkpt lat="43.57381" lon="1.305">
        <ele>165.8</ele>
        <time>2024-08-01T06:19:38Z</time>
      </trkpt>
      <trkpt lat="43.57374" lon="1.30492">
        <ele>165.8</ele>
        <time>2024-08-01T06:19:39Z</time>
      </trkpt>
      <trkpt lat="43.57369" lon="1.30487">
        <ele>165.8</ele>
        <time>2024-08-01T06:19:40Z</time>
      </trkpt>
      <trkpt lat="43.57363" lon="1.30481">
        <ele>165.8</ele>
        <time>2024-08-01T06:19:41Z</time>
      </trkpt>
      <trkpt lat="43.57358" lon="1.30476">
        <ele>165.8</ele>
        <time>2024-08-01T06:19:42Z</time>
      </trkpt>
      <trkpt lat="43.57352" lon="1.3047">
        <ele>165.8</ele>
        <time>2024-08-01T06:19:43Z</time>
      </trkpt>
      <trkpt lat="43.57347" lon="1.30464">
        <ele>165.8</ele>
        <time>2024-08-01T06:19:44Z</time>
      </trkpt>
      <trkpt lat="43.5734" lon="1.30457">
        <ele>165.8</ele>
        <time>2024-08-01T06:19:45Z</time>
      </trkpt>
      <trkpt lat="43.57335" lon="1.30452">
        <ele>165.8</ele>
        <time>2024-08-01T06:19:46Z</time>
      </trkpt>
      <trkpt lat="43.5733" lon="1.30446">
        <ele>165.8</ele>
        <time>2024-08-01T06:19:47Z</time>
      </trkpt>
      <trkpt lat="43.57326" lon="1.30441">
        <ele>165.8</ele>
        <time>2024-08-01T06:19:48Z</time>
      </trkpt>
      <trkpt lat="43.57321" lon="1.30436">
        <ele>166</ele>
        <time>2024-08-01T06:19:49Z</time>
      </trkpt>
      <trkpt lat="43.57315" lon="1.3043">
        <ele>166</ele>
        <time>2024-08-01T06:19:50Z</time>
      </trkpt>
      <trkpt lat="43.57311" lon="1.30424">
        <ele>166</ele>
        <time>2024-08-01T06:19:51Z</time>
      </trkpt>
      <trkpt lat="43.57308" lon="1.30419">
        <ele>166</ele>
        <time>2024-08-01T06:19:52Z</time>
      </trkpt>
      <trkpt lat="43.57305" lon="1.30416">
        <ele>166.2</ele>
        <time>2024-08-01T06:19:53Z</time>
      </trkpt>
      <trkpt lat="43.57301" lon="1.30412">
        <ele>166.2</ele>
        <time>2024-08-01T06:19:54Z</time>
      </trkpt>
      <trkpt lat="43.57295" lon="1.30407">
        <ele>166.2</ele>
        <time>2024-08-01T06:19:55Z</time>
      </trkpt>
      <trkpt lat="43.57291" lon="1.30403">
        <ele>166.2</ele>
        <time>2024-08-01T06:19:56Z</time>
      </trkpt>
      <trkpt lat="43.57286" lon="1.30398">
        <ele>166.2</ele>
        <time>2024-08-01T06:19:57Z</time>
      </trkpt>
      <trkpt lat="43.57283" lon="1.30393">
        <ele>166.2</ele>
        <time>2024-08-01T06:19:58Z</time>
      </trkpt>
      <trkpt lat="43.57279" lon="1.30388">
        <ele>166.2</ele>
        <time>2024-08-01T06:19:59Z</time>
      </trkpt>
      <trkpt lat="43.57273" lon="1.30382">
        <ele>166.2</ele>
        <time>2024-08-01T06:20:00Z</time>
      </trkpt>
      <trkpt lat="43.57268" lon="1.30377">
        <ele>166.2</ele>
        <time>2024-08-01T06:20:01Z</time>
      </trkpt>
      <trkpt lat="43.57263" lon="1.30371">
        <ele>166.2</ele>
        <time>2024-08-01T06:20:02Z</time>
      </trkpt>
      <trkpt lat="43.57259" lon="1.30367">
        <ele>166.2</ele>
        <time>2024-08-01T06:20:03Z</time>
      </trkpt>
      <trkpt lat="43.57254" lon="1.3036">
        <ele>166.2</ele>
        <time>2024-08-01T06:20:04Z</time>
      </trkpt>
      <trkpt lat="43.57249" lon="1.30355">
        <ele>166.2</ele>
        <time>2024-08-01T06:20:05Z</time>
      </trkpt>
      <trkpt lat="43.57244" lon="1.30349">
        <ele>166.2</ele>
        <time>2024-08-01T06:20:06Z</time>
      </trkpt>
      <trkpt lat="43.57239" lon="1.30344">
        <ele>166.2</ele>
        <time>2024-08-01T06:20:07Z</time>
      </trkpt>
      <trkpt lat="43.57234" lon="1.30338">
        <ele>166.2</ele>
        <time>2024-08-01T06:20:08Z</time>
      </trkpt>
      <trkpt lat="43.57229" lon="1.30332">
        <ele>166.2</ele>
        <time>2024-08-01T06:20:09Z</time>
      </trkpt>
      <trkpt lat="43.57224" lon="1.30326">
        <ele>166.2</ele>
        <time>2024-08-01T06:20:10Z</time>
      </trkpt>
      <trkpt lat="43.57219" lon="1.30321">
        <ele>166.2</ele>
        <time>2024-08-01T06:20:11Z</time>
      </trkpt>
      <trkpt lat="43.57213" lon="1.30315">
        <ele>166.2</ele>
        <time>2024-08-01T06:20:12Z</time>
      </trkpt>
      <trkpt lat="43.57208" lon="1.30309">
        <ele>166.2</ele>
        <time>2024-08-01T06:20:13Z</time>
      </trkpt>
      <trkpt lat="43.57203" lon="1.30303">
        <ele>166.2</ele>
        <time>2024-08-01T06:20:14Z</time>
      </trkpt>
      <trkpt lat="43.57198" lon="1.30298">
        <ele>166.2</ele>
        <time>2024-08-01T06:20:15Z</time>
      </trkpt>
      <trkpt lat="43.57193" lon="1.30292">
        <ele>166.2</ele>
        <time>2024-08-01T06:20:16Z</time>
      </trkpt>
      <trkpt lat="43.57187" lon="1.30286">
        <ele>166.2</ele>
        <time>2024-08-01T06:20:17Z</time>
      </trkpt>
      <trkpt lat="43.57182" lon="1.3028">
        <ele>166.2</ele>
        <time>2024-08-01T06:20:18Z</time>
      </trkpt>
      <trkpt lat="43.57177" lon="1.30274">
        <ele>166.2</ele>
        <time>2024-08-01T06:20:19Z</time>
      </trkpt>
      <trkpt lat="43.57172" lon="1.30269">
        <ele>166.2</ele>
        <time>2024-08-01T06:20:20Z</time>
      </trkpt>
      <trkpt lat="43.57166" lon="1.30263">
        <ele>166.2</ele>
        <time>2024-08-01T06:20:21Z</time>
      </trkpt>
      <trkpt lat="43.57162" lon="1.30258">
        <ele>166.2</ele>
        <time>2024-08-01T06:20:22Z</time>
      </trkpt>
      <trkpt lat="43.57157" lon="1.30252">
        <ele>166.2</ele>
        <time>2024-08-01T06:20:23Z</time>
      </trkpt>
      <trkpt lat="43.57152" lon="1.30246">
        <ele>166.2</ele>
        <time>2024-08-01T06:20:24Z</time>
      </trkpt>
      <trkpt lat="43.57147" lon="1.30241">
        <ele>166.2</ele>
        <time>2024-08-01T06:20:25Z</time>
      </trkpt>
      <trkpt lat="43.57142" lon="1.30235">
        <ele>166.2</ele>
        <time>2024-08-01T06:20:26Z</time>
      </trkpt>
      <trkpt lat="43.57137" lon="1.30229">
        <ele>166.4</ele>
        <time>2024-08-01T06:20:27Z</time>
      </trkpt>
      <trkpt lat="43.57132" lon="1.30223">
        <ele>166.4</ele>
        <time>2024-08-01T06:20:28Z</time>
      </trkpt>
      <trkpt lat="43.57127" lon="1.30217">
        <ele>166.4</ele>
        <time>2024-08-01T06:20:29Z</time>
      </trkpt>
      <trkpt lat="43.57122" lon="1.30211">
        <ele>166.4</ele>
        <time>2024-08-01T06:20:30Z</time>
      </trkpt>
      <trkpt lat="43.57117" lon="1.30204">
        <ele>166.4</ele>
        <time>2024-08-01T06:20:31Z</time>
      </trkpt>
      <trkpt lat="43.57113" lon="1.30197">
        <ele>166.4</ele>
        <time>2024-08-01T06:20:32Z</time>
      </trkpt>
      <trkpt lat="43.57109" lon="1.3019">
        <ele>166.4</ele>
        <time>2024-08-01T06:20:33Z</time>
      </trkpt>
      <trkpt lat="43.57105" lon="1.30182">
        <ele>166.4</ele>
        <time>2024-08-01T06:20:34Z</time>
      </trkpt>
      <trkpt lat="43.57101" lon="1.30174">
        <ele>166.4</ele>
        <time>2024-08-01T06:20:35Z</time>
      </trkpt>
      <trkpt lat="43.57098" lon="1.30166">
        <ele>166.4</ele>
        <time>2024-08-01T06:20:36Z</time>
      </trkpt>
      <trkpt lat="43.57094" lon="1.30158">
        <ele>166.4</ele>
        <time>2024-08-01T06:20:37Z</time>
      </trkpt>
      <trkpt lat="43.57091" lon="1.3015">
        <ele>166.4</ele>
        <time>2024-08-01T06:20:38Z</time>
      </trkpt>
      <trkpt lat="43.57088" lon="1.30141">
        <ele>166.4</ele>
        <time>2024-08-01T06:20:39Z</time>
      </trkpt>
      <trkpt lat="43.57086" lon="1.30135">
        <ele>166.4</ele>
        <time>2024-08-01T06:20:40Z</time>
      </trkpt>
      <trkpt lat="43.57083" lon="1.30124">
        <ele>166.4</ele>
        <time>2024-08-01T06:20:41Z</time>
      </trkpt>
      <trkpt lat="43.5708" lon="1.30116">
        <ele>166.4</ele>
        <time>2024-08-01T06:20:42Z</time>
      </trkpt>
      <trkpt lat="43.57078" lon="1.30107">
        <ele>166.4</ele>
        <time>2024-08-01T06:20:43Z</time>
      </trkpt>
      <trkpt lat="43.57075" lon="1.30099">
        <ele>166.4</ele>
        <time>2024-08-01T06:20:44Z</time>
      </trkpt>
      <trkpt lat="43.57073" lon="1.3009">
        <ele>166.4</ele>
        <time>2024-08-01T06:20:45Z</time>
      </trkpt>
      <trkpt lat="43.5707" lon="1.30081">
        <ele>166.4</ele>
        <time>2024-08-01T06:20:46Z</time>
      </trkpt>
      <trkpt lat="43.57068" lon="1.30072">
        <ele>166.4</ele>
        <time>2024-08-01T06:20:47Z</time>
      </trkpt>
      <trkpt lat="43.57065" lon="1.30064">
        <ele>166.4</ele>
        <time>2024-08-01T06:20:48Z</time>
      </trkpt>
      <trkpt lat="43.57063" lon="1.30055">
        <ele>166.6</ele>
        <time>2024-08-01T06:20:49Z</time>
      </trkpt>
      <trkpt lat="43.5706" lon="1.30047">
        <ele>166.6</ele>
        <time>2024-08-01T06:20:50Z</time>
      </trkpt>
      <trkpt lat="43.57058" lon="1.30038">
        <ele>166.6</ele>
        <time>2024-08-01T06:20:51Z</time>
      </trkpt>
      <trkpt lat="43.57055" lon="1.30029">
        <ele>166.6</ele>
        <time>2024-08-01T06:20:52Z</time>
      </trkpt>
      <trkpt lat="43.57052" lon="1.30021">
        <ele>166.6</ele>
        <time>2024-08-01T06:20:53Z</time>
      </trkpt>
      <trkpt lat="43.5705" lon="1.30012">
        <ele>166.6</ele>
        <time>2024-08-01T06:20:54Z</time>
      </trkpt>
      <trkpt lat="43.57047" lon="1.30003">
        <ele>166.6</ele>
        <time>2024-08-01T06:20:55Z</time>
      </trkpt>
      <trkpt lat="43.57045" lon="1.29995">
        <ele>166.8</ele>
        <time>2024-08-01T06:20:56Z</time>
      </trkpt>
      <trkpt lat="43.57042" lon="1.29986">
        <ele>166.8</ele>
        <time>2024-08-01T06:20:57Z</time>
      </trkpt>
      <trkpt lat="43.57039" lon="1.29977">
        <ele>166.8</ele>
        <time>2024-08-01T06:20:58Z</time>
      </trkpt>
      <trkpt lat="43.57037" lon="1.29969">
        <ele>166.8</ele>
        <time>2024-08-01T06:20:59Z</time>
      </trkpt>
      <trkpt lat="43.57035" lon="1.2996">
        <ele>166.8</ele>
        <time>2024-08-01T06:21:00Z</time>
      </trkpt>
      <trkpt lat="43.57032" lon="1.29951">
        <ele>166.8</ele>
        <time>2024-08-01T06:21:01Z</time>
      </trkpt>
      <trkpt lat="43.5703" lon="1.29943">
        <ele>166.8</ele>
        <time>2024-08-01T06:21:02Z</time>
      </trkpt>
      <trkpt lat="43.57027" lon="1.29934">
        <ele>167</ele>
        <time>2024-08-01T06:21:03Z</time>
      </trkpt>
      <trkpt lat="43.57025" lon="1.29925">
        <ele>167</ele>
        <time>2024-08-01T06:21:04Z</time>
      </trkpt>
      <trkpt lat="43.57022" lon="1.29917">
        <ele>167</ele>
        <time>2024-08-01T06:21:05Z</time>
      </trkpt>
      <trkpt lat="43.5702" lon="1.29908">
        <ele>167</ele>
        <time>2024-08-01T06:21:06Z</time>
      </trkpt>
      <trkpt lat="43.57017" lon="1.29899">
        <ele>167</ele>
        <time>2024-08-01T06:21:07Z</time>
      </trkpt>
      <trkpt lat="43.57015" lon="1.2989">
        <ele>167</ele>
        <time>2024-08-01T06:21:08Z</time>
      </trkpt>
      <trkpt lat="43.57012" lon="1.29882">
        <ele>167</ele>
        <time>2024-08-01T06:21:09Z</time>
      </trkpt>
      <trkpt lat="43.5701" lon="1.29873">
        <ele>167</ele>
        <time>2024-08-01T06:21:10Z</time>
      </trkpt>
      <trkpt lat="43.57007" lon="1.29864">
        <ele>167</ele>
        <time>2024-08-01T06:21:11Z</time>
      </trkpt>
      <trkpt lat="43.57005" lon="1.29855">
        <ele>167</ele>
        <time>2024-08-01T06:21:12Z</time>
      </trkpt>
      <trkpt lat="43.57002" lon="1.29846">
        <ele>167</ele>
        <time>2024-08-01T06:21:13Z</time>
      </trkpt>
      <trkpt lat="43.57" lon="1.29837">
        <ele>167.2</ele>
        <time>2024-08-01T06:21:14Z</time>
      </trkpt>
      <trkpt lat="43.56997" lon="1.29828">
        <ele>167.2</ele>
        <time>2024-08-01T06:21:15Z</time>
      </trkpt>
      <trkpt lat="43.56994" lon="1.2982">
        <ele>167.4</ele>
        <time>2024-08-01T06:21:16Z</time>
      </trkpt>
      <trkpt lat="43.56991" lon="1.29811">
        <ele>167.4</ele>
        <time>2024-08-01T06:21:17Z</time>
      </trkpt>
      <trkpt lat="43.56989" lon="1.29802">
        <ele>167.4</ele>
        <time>2024-08-01T06:21:18Z</time>
      </trkpt>
      <trkpt lat="43.56986" lon="1.29794">
        <ele>167.4</ele>
        <time>2024-08-01T06:21:19Z</time>
      </trkpt>
      <trkpt lat="43.56984" lon="1.29784">
        <ele>167.4</ele>
        <time>2024-08-01T06:21:20Z</time>
      </trkpt>
      <trkpt lat="43.56982" lon="1.29776">
        <ele>167.4</ele>
        <time>2024-08-01T06:21:21Z</time>
      </trkpt>
      <trkpt lat="43.56979" lon="1.29767">
        <ele>167.6</ele>
        <time>2024-08-01T06:21:22Z</time>
      </trkpt>
      <trkpt lat="43.56976" lon="1.29758">
        <ele>167.6</ele>
        <time>2024-08-01T06:21:23Z</time>
      </trkpt>
      <trkpt lat="43.56974" lon="1.29749">
        <ele>167.6</ele>
        <time>2024-08-01T06:21:24Z</time>
      </trkpt>
      <trkpt lat="43.56971" lon="1.2974">
        <ele>167.6</ele>
        <time>2024-08-01T06:21:25Z</time>
      </trkpt>
      <trkpt lat="43.56968" lon="1.29732">
        <ele>167.8</ele>
        <time>2024-08-01T06:21:26Z</time>
      </trkpt>
      <trkpt lat="43.56966" lon="1.29723">
        <ele>167.8</ele>
        <time>2024-08-01T06:21:27Z</time>
      </trkpt>
      <trkpt lat="43.56963" lon="1.29716">
        <ele>167.8</ele>
        <time>2024-08-01T06:21:28Z</time>
      </trkpt>
      <trkpt lat="43.5696" lon="1.29705">
        <ele>167.8</ele>
        <time>2024-08-01T06:21:29Z</time>
      </trkpt>
      <trkpt lat="43.56957" lon="1.29697">
        <ele>167.8</ele>
        <time>2024-08-01T06:21:30Z</time>
      </trkpt>
      <trkpt lat="43.56954" lon="1.29688">
        <ele>167.8</ele>
        <time>2024-08-01T06:21:31Z</time>
      </trkpt>
      <trkpt lat="43.56951" lon="1.29679">
        <ele>167.8</ele>
        <time>2024-08-01T06:21:32Z</time>
      </trkpt>
      <trkpt lat="43.56948" lon="1.29671">
        <ele>167.8</ele>
        <time>2024-08-01T06:21:33Z</time>
      </trkpt>
      <trkpt lat="43.56946" lon="1.29664">
        <ele>167.8</ele>
        <time>2024-08-01T06:21:34Z</time>
      </trkpt>
      <trkpt lat="43.56943" lon="1.29654">
        <ele>168</ele>
        <time>2024-08-01T06:21:35Z</time>
      </trkpt>
      <trkpt lat="43.5694" lon="1.29646">
        <ele>168</ele>
        <time>2024-08-01T06:21:36Z</time>
      </trkpt>
      <trkpt lat="43.56937" lon="1.29637">
        <ele>168</ele>
        <time>2024-08-01T06:21:37Z</time>
      </trkpt>
      <trkpt lat="43.56934" lon="1.29628">
        <ele>168.2</ele>
        <time>2024-08-01T06:21:38Z</time>
      </trkpt>
      <trkpt lat="43.56931" lon="1.2962">
        <ele>168.2</ele>
        <time>2024-08-01T06:21:39Z</time>
      </trkpt>
      <trkpt lat="43.56928" lon="1.29611">
        <ele>168.2</ele>
        <time>2024-08-01T06:21:40Z</time>
      </trkpt>
      <trkpt lat="43.56925" lon="1.29602">
        <ele>168.2</ele>
        <time>2024-08-01T06:21:41Z</time>
      </trkpt>
      <trkpt lat="43.56922" lon="1.29594">
        <ele>168.4</ele>
        <time>2024-08-01T06:21:42Z</time>
      </trkpt>
      <trkpt lat="43.56919" lon="1.29585">
        <ele>168.4</ele>
        <time>2024-08-01T06:21:43Z</time>
      </trkpt>
      <trkpt lat="43.56916" lon="1.29576">
        <ele>168.4</ele>
        <time>2024-08-01T06:21:44Z</time>
      </trkpt>
      <trkpt lat="43.56913" lon="1.29568">
        <ele>168.4</ele>
        <time>2024-08-01T06:21:45Z</time>
      </trkpt>
      <trkpt lat="43.5691" lon="1.2956">
        <ele>168.4</ele>
        <time>2024-08-01T06:21:46Z</time>
      </trkpt>
      <trkpt lat="43.56907" lon="1.29552">
        <ele>168.4</ele>
        <time>2024-08-01T06:21:47Z</time>
      </trkpt>
      <trkpt lat="43.56905" lon="1.29543">
        <ele>168.4</ele>
        <time>2024-08-01T06:21:48Z</time>
      </trkpt>
      <trkpt lat="43.56902" lon="1.29534">
        <ele>168.6</ele>
        <time>2024-08-01T06:21:49Z</time>
      </trkpt>
      <trkpt lat="43.569" lon="1.29525">
        <ele>168.6</ele>
        <time>2024-08-01T06:21:50Z</time>
      </trkpt>
      <trkpt lat="43.56898" lon="1.29516">
        <ele>168.6</ele>
        <time>2024-08-01T06:21:51Z</time>
      </trkpt>
      <trkpt lat="43.56895" lon="1.29507">
        <ele>168.6</ele>
        <time>2024-08-01T06:21:52Z</time>
      </trkpt>
      <trkpt lat="43.56893" lon="1.29498">
        <ele>168.6</ele>
        <time>2024-08-01T06:21:53Z</time>
      </trkpt>
      <trkpt lat="43.5689" lon="1.2949">
        <ele>168.6</ele>
        <time>2024-08-01T06:21:54Z</time>
      </trkpt>
      <trkpt lat="43.56888" lon="1.29481">
        <ele>168.6</ele>
        <time>2024-08-01T06:21:55Z</time>
      </trkpt>
      <trkpt lat="43.56886" lon="1.29472">
        <ele>168.6</ele>
        <time>2024-08-01T06:21:56Z</time>
      </trkpt>
      <trkpt lat="43.56884" lon="1.29463">
        <ele>168.8</ele>
        <time>2024-08-01T06:21:57Z</time>
      </trkpt>
      <trkpt lat="43.56881" lon="1.29455">
        <ele>168.8</ele>
        <time>2024-08-01T06:21:58Z</time>
      </trkpt>
      <trkpt lat="43.56879" lon="1.29446">
        <ele>168.8</ele>
        <time>2024-08-01T06:21:59Z</time>
      </trkpt>
      <trkpt lat="43.56877" lon="1.29438">
        <ele>169</ele>
        <time>2024-08-01T06:22:00Z</time>
      </trkpt>
      <trkpt lat="43.56875" lon="1.29429">
        <ele>169</ele>
        <time>2024-08-01T06:22:01Z</time>
      </trkpt>
      <trkpt lat="43.56873" lon="1.29421">
        <ele>169</ele>
        <time>2024-08-01T06:22:02Z</time>
      </trkpt>
      <trkpt lat="43.5687" lon="1.29412">
        <ele>169</ele>
        <time>2024-08-01T06:22:03Z</time>
      </trkpt>
      <trkpt lat="43.56868" lon="1.29404">
        <ele>169.2</ele>
        <time>2024-08-01T06:22:04Z</time>
      </trkpt>
      <trkpt lat="43.56866" lon="1.29395">
        <ele>169.2</ele>
        <time>2024-08-01T06:22:05Z</time>
      </trkpt>
      <trkpt lat="43.56864" lon="1.29386">
        <ele>169.4</ele>
        <time>2024-08-01T06:22:06Z</time>
      </trkpt>
      <trkpt lat="43.56862" lon="1.29378">
        <ele>169.4</ele>
        <time>2024-08-01T06:22:07Z</time>
      </trkpt>
      <trkpt lat="43.5686" lon="1.29369">
        <ele>169.4</ele>
        <time>2024-08-01T06:22:08Z</time>
      </trkpt>
      <trkpt lat="43.56858" lon="1.29361">
        <ele>169.4</ele>
        <time>2024-08-01T06:22:09Z</time>
      </trkpt>
      <trkpt lat="43.56855" lon="1.29352">
        <ele>169.4</ele>
        <time>2024-08-01T06:22:10Z</time>
      </trkpt>
      <trkpt lat="43.56853" lon="1.29343">
        <ele>169.4</ele>
        <time>2024-08-01T06:22:11Z</time>
      </trkpt>
      <trkpt lat="43.56851" lon="1.29334">
        <ele>169.4</ele>
        <time>2024-08-01T06:22:12Z</time>
      </trkpt>
      <trkpt lat="43.56849" lon="1.29325">
        <ele>169.4</ele>
        <time>2024-08-01T06:22:13Z</time>
      </trkpt>
      <trkpt lat="43.56847" lon="1.29316">
        <ele>169.4</ele>
        <time>2024-08-01T06:22:14Z</time>
      </trkpt>
      <trkpt lat="43.56845" lon="1.29307">
        <ele>169.4</ele>
        <time>2024-08-01T06:22:15Z</time>
      </trkpt>
      <trkpt lat="43.56843" lon="1.29298">
        <ele>169.4</ele>
        <time>2024-08-01T06:22:16Z</time>
      </trkpt>
      <trkpt lat="43.56841" lon="1.29289">
        <ele>169.4</ele>
        <time>2024-08-01T06:22:17Z</time>
      </trkpt>
      <trkpt lat="43.56839" lon="1.2928">
        <ele>169.4</ele>
        <time>2024-08-01T06:22:18Z</time>
      </trkpt>
      <trkpt lat="43.56837" lon="1.29271">
        <ele>169.6</ele>
        <time>2024-08-01T06:22:19Z</time>
      </trkpt>
      <trkpt lat="43.56834" lon="1.29262">
        <ele>169.6</ele>
        <time>2024-08-01T06:22:20Z</time>
      </trkpt>
      <trkpt lat="43.56832" lon="1.29253">
        <ele>169.6</ele>
        <time>2024-08-01T06:22:21Z</time>
      </trkpt>
      <trkpt lat="43.56829" lon="1.29244">
        <ele>169.6</ele>
        <time>2024-08-01T06:22:22Z</time>
      </trkpt>
      <trkpt lat="43.56827" lon="1.29235">
        <ele>169.6</ele>
        <time>2024-08-01T06:22:23Z</time>
      </trkpt>
      <trkpt lat="43.56824" lon="1.29226">
        <ele>169.6</ele>
        <time>2024-08-01T06:22:24Z</time>
      </trkpt>
      <trkpt lat="43.56822" lon="1.29218">
        <ele>169.6</ele>
        <time>2024-08-01T06:22:25Z</time>
      </trkpt>
      <trkpt lat="43.5682" lon="1.29209">
        <ele>169.6</ele>
        <time>2024-08-01T06:22:26Z</time>
      </trkpt>
      <trkpt lat="43.56817" lon="1.29201">
        <ele>169.6</ele>
        <time>2024-08-01T06:22:27Z</time>
      </trkpt>
      <trkpt lat="43.56815" lon="1.29192">
        <ele>169.6</ele>
        <time>2024-08-01T06:22:28Z</time>
      </trkpt>
      <trkpt lat="43.56813" lon="1.29183">
        <ele>169.8</ele>
        <time>2024-08-01T06:22:29Z</time>
      </trkpt>
      <trkpt lat="43.5681" lon="1.29175">
        <ele>169.8</ele>
        <time>2024-08-01T06:22:30Z</time>
      </trkpt>
      <trkpt lat="43.56808" lon="1.29166">
        <ele>169.8</ele>
        <time>2024-08-01T06:22:31Z</time>
      </trkpt>
      <trkpt lat="43.56806" lon="1.29158">
        <ele>170</ele>
        <time>2024-08-01T06:22:32Z</time>
      </trkpt>
      <trkpt lat="43.56803" lon="1.2915">
        <ele>170</ele>
        <time>2024-08-01T06:22:33Z</time>
      </trkpt>
      <trkpt lat="43.56801" lon="1.29141">
        <ele>170</ele>
        <time>2024-08-01T06:22:34Z</time>
      </trkpt>
      <trkpt lat="43.56799" lon="1.29133">
        <ele>170.2</ele>
        <time>2024-08-01T06:22:35Z</time>
      </trkpt>
      <trkpt lat="43.56797" lon="1.29125">
        <ele>170.4</ele>
        <time>2024-08-01T06:22:36Z</time>
      </trkpt>
      <trkpt lat="43.56795" lon="1.29117">
        <ele>170.4</ele>
        <time>2024-08-01T06:22:37Z</time>
      </trkpt>
      <trkpt lat="43.56792" lon="1.29109">
        <ele>170.4</ele>
        <time>2024-08-01T06:22:38Z</time>
      </trkpt>
      <trkpt lat="43.5679" lon="1.29101">
        <ele>170.6</ele>
        <time>2024-08-01T06:22:39Z</time>
      </trkpt>
      <trkpt lat="43.56788" lon="1.29093">
        <ele>170.8</ele>
        <time>2024-08-01T06:22:40Z</time>
      </trkpt>
      <trkpt lat="43.56786" lon="1.29085">
        <ele>170.8</ele>
        <time>2024-08-01T06:22:41Z</time>
      </trkpt>
      <trkpt lat="43.56784" lon="1.29077">
        <ele>170.8</ele>
        <time>2024-08-01T06:22:42Z</time>
      </trkpt>
      <trkpt lat="43.56781" lon="1.2907">
        <ele>171</ele>
        <time>2024-08-01T06:22:43Z</time>
      </trkpt>
      <trkpt lat="43.56779" lon="1.29062">
        <ele>171</ele>
        <time>2024-08-01T06:22:44Z</time>
      </trkpt>
      <trkpt lat="43.56777" lon="1.29055">
        <ele>171.2</ele>
        <time>2024-08-01T06:22:45Z</time>
      </trkpt>
      <trkpt lat="43.56775" lon="1.29047">
        <ele>171.2</ele>
        <time>2024-08-01T06:22:46Z</time>
      </trkpt>
      <trkpt lat="43.56772" lon="1.2904">
        <ele>171.2</ele>
        <time>2024-08-01T06:22:47Z</time>
      </trkpt>
      <trkpt lat="43.5677" lon="1.29034">
        <ele>171.4</ele>
        <time>2024-08-01T06:22:48Z</time>
      </trkpt>
      <trkpt lat="43.56768" lon="1.29028">
        <ele>171.4</ele>
        <time>2024-08-01T06:22:49Z</time>
      </trkpt>
      <trkpt lat="43.56765" lon="1.29022">
        <ele>171.4</ele>
        <time>2024-08-01T06:22:50Z</time>
      </trkpt>
      <trkpt lat="43.5676" lon="1.29019">
        <ele>171.6</ele>
        <time>2024-08-01T06:22:51Z</time>
      </trkpt>
      <trkpt lat="43.56754" lon="1.29019">
        <ele>171.6</ele>
        <time>2024-08-01T06:22:52Z</time>
      </trkpt>
      <trkpt lat="43.56749" lon="1.29021">
        <ele>171.6</ele>
        <time>2024-08-01T06:22:53Z</time>
      </trkpt>
      <trkpt lat="43.56744" lon="1.29026">
        <ele>171.8</ele>
        <time>2024-08-01T06:22:54Z</time>
      </trkpt>
      <trkpt lat="43.56739" lon="1.29031">
        <ele>171.8</ele>
        <time>2024-08-01T06:22:55Z</time>
      </trkpt>
      <trkpt lat="43.56733" lon="1.29037">
        <ele>171.8</ele>
        <time>2024-08-01T06:22:56Z</time>
      </trkpt>
      <trkpt lat="43.56728" lon="1.29043">
        <ele>171.8</ele>
        <time>2024-08-01T06:22:57Z</time>
      </trkpt>
      <trkpt lat="43.56723" lon="1.29049">
        <ele>171.8</ele>
        <time>2024-08-01T06:22:58Z</time>
      </trkpt>
      <trkpt lat="43.56717" lon="1.29056">
        <ele>171.8</ele>
        <time>2024-08-01T06:22:59Z</time>
      </trkpt>
      <trkpt lat="43.56712" lon="1.29062">
        <ele>171.6</ele>
        <time>2024-08-01T06:23:00Z</time>
      </trkpt>
      <trkpt lat="43.56706" lon="1.29068">
        <ele>171.6</ele>
        <time>2024-08-01T06:23:01Z</time>
      </trkpt>
      <trkpt lat="43.56701" lon="1.29074">
        <ele>171.4</ele>
        <time>2024-08-01T06:23:02Z</time>
      </trkpt>
      <trkpt lat="43.56695" lon="1.2908">
        <ele>171.4</ele>
        <time>2024-08-01T06:23:03Z</time>
      </trkpt>
      <trkpt lat="43.56689" lon="1.29086">
        <ele>171.2</ele>
        <time>2024-08-01T06:23:04Z</time>
      </trkpt>
      <trkpt lat="43.56684" lon="1.29092">
        <ele>171</ele>
        <time>2024-08-01T06:23:05Z</time>
      </trkpt>
      <trkpt lat="43.56679" lon="1.29098">
        <ele>170.8</ele>
        <time>2024-08-01T06:23:06Z</time>
      </trkpt>
      <trkpt lat="43.56673" lon="1.29104">
        <ele>170.6</ele>
        <time>2024-08-01T06:23:07Z</time>
      </trkpt>
      <trkpt lat="43.56667" lon="1.29107">
        <ele>170.6</ele>
        <time>2024-08-01T06:23:08Z</time>
      </trkpt>
      <trkpt lat="43.56662" lon="1.29107">
        <ele>170.4</ele>
        <time>2024-08-01T06:23:09Z</time>
      </trkpt>
      <trkpt lat="43.56657" lon="1.29103">
        <ele>170.2</ele>
        <time>2024-08-01T06:23:10Z</time>
      </trkpt>
      <trkpt lat="43.56652" lon="1.29097">
        <ele>170.2</ele>
        <time>2024-08-01T06:23:11Z</time>
      </trkpt>
      <trkpt lat="43.56648" lon="1.2909">
        <ele>170</ele>
        <time>2024-08-01T06:23:12Z</time>
      </trkpt>
      <trkpt lat="43.56643" lon="1.29083">
        <ele>170</ele>
        <time>2024-08-01T06:23:13Z</time>
      </trkpt>
      <trkpt lat="43.56638" lon="1.29076">
        <ele>169.8</ele>
        <time>2024-08-01T06:23:14Z</time>
      </trkpt>
      <trkpt lat="43.56633" lon="1.29069">
        <ele>169.6</ele>
        <time>2024-08-01T06:23:15Z</time>
      </trkpt>
      <trkpt lat="43.56628" lon="1.29061">
        <ele>169.6</ele>
        <time>2024-08-01T06:23:16Z</time>
      </trkpt>
      <trkpt lat="43.56623" lon="1.29054">
        <ele>169.4</ele>
        <time>2024-08-01T06:23:17Z</time>
      </trkpt>
      <trkpt lat="43.56618" lon="1.29047">
        <ele>169.4</ele>
        <time>2024-08-01T06:23:18Z</time>
      </trkpt>
      <trkpt lat="43.56613" lon="1.29039">
        <ele>169.4</ele>
        <time>2024-08-01T06:23:19Z</time>
      </trkpt>
      <trkpt lat="43.56608" lon="1.29031">
        <ele>169.2</ele>
        <time>2024-08-01T06:23:20Z</time>
      </trkpt>
      <trkpt lat="43.56603" lon="1.29024">
        <ele>169.2</ele>
        <time>2024-08-01T06:23:21Z</time>
      </trkpt>
      <trkpt lat="43.56598" lon="1.29016">
        <ele>169</ele>
        <time>2024-08-01T06:23:22Z</time>
      </trkpt>
      <trkpt lat="43.56593" lon="1.29009">
        <ele>169</ele>
        <time>2024-08-01T06:23:23Z</time>
      </trkpt>
      <trkpt lat="43.56588" lon="1.29001">
        <ele>169</ele>
        <time>2024-08-01T06:23:24Z</time>
      </trkpt>
      <trkpt lat="43.56583" lon="1.28994">
        <ele>169</ele>
        <time>2024-08-01T06:23:25Z</time>
      </trkpt>
      <trkpt lat="43.56578" lon="1.28986">
        <ele>169</ele>
        <time>2024-08-01T06:23:26Z</time>
      </trkpt>
      <trkpt lat="43.56574" lon="1.28979">
        <ele>169</ele>
        <time>2024-08-01T06:23:27Z</time>
      </trkpt>
      <trkpt lat="43.56569" lon="1.28972">
        <ele>169</ele>
        <time>2024-08-01T06:23:28Z</time>
      </trkpt>
      <trkpt lat="43.56565" lon="1.28964">
        <ele>169</ele>
        <time>2024-08-01T06:23:29Z</time>
      </trkpt>
      <trkpt lat="43.5656" lon="1.28957">
        <ele>169</ele>
        <time>2024-08-01T06:23:30Z</time>
      </trkpt>
      <trkpt lat="43.56555" lon="1.2895">
        <ele>169</ele>
        <time>2024-08-01T06:23:31Z</time>
      </trkpt>
      <trkpt lat="43.5655" lon="1.28942">
        <ele>169</ele>
        <time>2024-08-01T06:23:32Z</time>
      </trkpt>
      <trkpt lat="43.56545" lon="1.28935">
        <ele>169</ele>
        <time>2024-08-01T06:23:33Z</time>
      </trkpt>
      <trkpt lat="43.56541" lon="1.28927">
        <ele>169</ele>
        <time>2024-08-01T06:23:34Z</time>
      </trkpt>
      <trkpt lat="43.56536" lon="1.2892">
        <ele>168.8</ele>
        <time>2024-08-01T06:23:35Z</time>
      </trkpt>
      <trkpt lat="43.56531" lon="1.28912">
        <ele>168.8</ele>
        <time>2024-08-01T06:23:36Z</time>
      </trkpt>
      <trkpt lat="43.56527" lon="1.28905">
        <ele>168.8</ele>
        <time>2024-08-01T06:23:37Z</time>
      </trkpt>
      <trkpt lat="43.56522" lon="1.28898">
        <ele>168.8</ele>
        <time>2024-08-01T06:23:38Z</time>
      </trkpt>
      <trkpt lat="43.56517" lon="1.28892">
        <ele>168.8</ele>
        <time>2024-08-01T06:23:39Z</time>
      </trkpt>
      <trkpt lat="43.56513" lon="1.28885">
        <ele>168.6</ele>
        <time>2024-08-01T06:23:40Z</time>
      </trkpt>
      <trkpt lat="43.56509" lon="1.28879">
        <ele>168.6</ele>
        <time>2024-08-01T06:23:41Z</time>
      </trkpt>
      <trkpt lat="43.56505" lon="1.28873">
        <ele>168.6</ele>
        <time>2024-08-01T06:23:42Z</time>
      </trkpt>
      <trkpt lat="43.56501" lon="1.28868">
        <ele>168.6</ele>
        <time>2024-08-01T06:23:43Z</time>
      </trkpt>
      <trkpt lat="43.56495" lon="1.28865">
        <ele>168.6</ele>
        <time>2024-08-01T06:23:44Z</time>
      </trkpt>
      <trkpt lat="43.5649" lon="1.28867">
        <ele>168.6</ele>
        <time>2024-08-01T06:23:45Z</time>
      </trkpt>
      <trkpt lat="43.56487" lon="1.28872">
        <ele>168.4</ele>
        <time>2024-08-01T06:23:46Z</time>
      </trkpt>
      <trkpt lat="43.56486" lon="1.28879">
        <ele>168.4</ele>
        <time>2024-08-01T06:23:47Z</time>
      </trkpt>
      <trkpt lat="43.56487" lon="1.28887">
        <ele>168.4</ele>
        <time>2024-08-01T06:23:48Z</time>
      </trkpt>
      <trkpt lat="43.56486" lon="1.28895">
        <ele>168.6</ele>
        <time>2024-08-01T06:23:49Z</time>
      </trkpt>
      <trkpt lat="43.56484" lon="1.28904">
        <ele>168.6</ele>
        <time>2024-08-01T06:23:50Z</time>
      </trkpt>
      <trkpt lat="43.56481" lon="1.28912">
        <ele>168.6</ele>
        <time>2024-08-01T06:23:51Z</time>
      </trkpt>
      <trkpt lat="43.56477" lon="1.28919">
        <ele>168.6</ele>
        <time>2024-08-01T06:23:52Z</time>
      </trkpt>
      <trkpt lat="43.56474" lon="1.28927">
        <ele>168.6</ele>
        <time>2024-08-01T06:23:53Z</time>
      </trkpt>
      <trkpt lat="43.5647" lon="1.28934">
        <ele>168.4</ele>
        <time>2024-08-01T06:23:54Z</time>
      </trkpt>
      <trkpt lat="43.56467" lon="1.28942">
        <ele>168.4</ele>
        <time>2024-08-01T06:23:55Z</time>
      </trkpt>
      <trkpt lat="43.56463" lon="1.2895">
        <ele>168.4</ele>
        <time>2024-08-01T06:23:56Z</time>
      </trkpt>
      <trkpt lat="43.56459" lon="1.28958">
        <ele>168.4</ele>
        <time>2024-08-01T06:23:57Z</time>
      </trkpt>
      <trkpt lat="43.56455" lon="1.28966">
        <ele>168.4</ele>
        <time>2024-08-01T06:23:58Z</time>
      </trkpt>
      <trkpt lat="43.56451" lon="1.28974">
        <ele>168.2</ele>
        <time>2024-08-01T06:23:59Z</time>
      </trkpt>
      <trkpt lat="43.56447" lon="1.28983">
        <ele>168</ele>
        <time>2024-08-01T06:24:00Z</time>
      </trkpt>
      <trkpt lat="43.56443" lon="1.28992">
        <ele>168</ele>
        <time>2024-08-01T06:24:01Z</time>
      </trkpt>
      <trkpt lat="43.56439" lon="1.29">
        <ele>167.8</ele>
        <time>2024-08-01T06:24:02Z</time>
      </trkpt>
      <trkpt lat="43.56435" lon="1.29009">
        <ele>167.8</ele>
        <time>2024-08-01T06:24:03Z</time>
      </trkpt>
      <trkpt lat="43.56431" lon="1.29017">
        <ele>167.8</ele>
        <time>2024-08-01T06:24:04Z</time>
      </trkpt>
      <trkpt lat="43.56427" lon="1.29026">
        <ele>167.8</ele>
        <time>2024-08-01T06:24:05Z</time>
      </trkpt>
      <trkpt lat="43.56423" lon="1.29034">
        <ele>167.8</ele>
        <time>2024-08-01T06:24:06Z</time>
      </trkpt>
      <trkpt lat="43.5642" lon="1.29043">
        <ele>167.8</ele>
        <time>2024-08-01T06:24:07Z</time>
      </trkpt>
      <trkpt lat="43.56416" lon="1.29051">
        <ele>167.8</ele>
        <time>2024-08-01T06:24:08Z</time>
      </trkpt>
      <trkpt lat="43.56412" lon="1.2906">
        <ele>167.8</ele>
        <time>2024-08-01T06:24:09Z</time>
      </trkpt>
      <trkpt lat="43.56408" lon="1.29068">
        <ele>167.8</ele>
        <time>2024-08-01T06:24:10Z</time>
      </trkpt>
      <trkpt lat="43.56404" lon="1.29076">
        <ele>167.8</ele>
        <time>2024-08-01T06:24:11Z</time>
      </trkpt>
      <trkpt lat="43.56399" lon="1.29084">
        <ele>167.8</ele>
        <time>2024-08-01T06:24:12Z</time>
      </trkpt>
      <trkpt lat="43.56394" lon="1.2909">
        <ele>167.8</ele>
        <time>2024-08-01T06:24:13Z</time>
      </trkpt>
      <trkpt lat="43.56387" lon="1.29095">
        <ele>167.8</ele>
        <time>2024-08-01T06:24:14Z</time>
      </trkpt>
      <trkpt lat="43.56381" lon="1.291">
        <ele>167.8</ele>
        <time>2024-08-01T06:24:15Z</time>
      </trkpt>
      <trkpt lat="43.56375" lon="1.29104">
        <ele>167.8</ele>
        <time>2024-08-01T06:24:16Z</time>
      </trkpt>
      <trkpt lat="43.56369" lon="1.29109">
        <ele>167.8</ele>
        <time>2024-08-01T06:24:17Z</time>
      </trkpt>
      <trkpt lat="43.56364" lon="1.29112">
        <ele>167.8</ele>
        <time>2024-08-01T06:24:18Z</time>
      </trkpt>
      <trkpt lat="43.56357" lon="1.29114">
        <ele>167.8</ele>
        <time>2024-08-01T06:24:19Z</time>
      </trkpt>
      <trkpt lat="43.56352" lon="1.29114">
        <ele>167.8</ele>
        <time>2024-08-01T06:24:20Z</time>
      </trkpt>
      <trkpt lat="43.56346" lon="1.29113">
        <ele>167.8</ele>
        <time>2024-08-01T06:24:21Z</time>
      </trkpt>
      <trkpt lat="43.5634" lon="1.29112">
        <ele>167.8</ele>
        <time>2024-08-01T06:24:22Z</time>
      </trkpt>
      <trkpt lat="43.56335" lon="1.29114">
        <ele>167.8</ele>
        <time>2024-08-01T06:24:23Z</time>
      </trkpt>
      <trkpt lat="43.5633" lon="1.29117">
        <ele>168</ele>
        <time>2024-08-01T06:24:24Z</time>
      </trkpt>
      <trkpt lat="43.56326" lon="1.29121">
        <ele>168</ele>
        <time>2024-08-01T06:24:25Z</time>
      </trkpt>
      <trkpt lat="43.56322" lon="1.29125">
        <ele>168</ele>
        <time>2024-08-01T06:24:26Z</time>
      </trkpt>
      <trkpt lat="43.56317" lon="1.29128">
        <ele>168</ele>
        <time>2024-08-01T06:24:27Z</time>
      </trkpt>
      <trkpt lat="43.56313" lon="1.29131">
        <ele>168</ele>
        <time>2024-08-01T06:24:28Z</time>
      </trkpt>
      <trkpt lat="43.56309" lon="1.29132">
        <ele>168</ele>
        <time>2024-08-01T06:24:29Z</time>
      </trkpt>
      <trkpt lat="43.56305" lon="1.29132">
        <ele>168</ele>
        <time>2024-08-01T06:24:30Z</time>
      </trkpt>
      <trkpt lat="43.56301" lon="1.29132">
        <ele>168</ele>
        <time>2024-08-01T06:24:31Z</time>
      </trkpt>
      <trkpt lat="43.56297" lon="1.29132">
        <ele>168</ele>
        <time>2024-08-01T06:24:32Z</time>
      </trkpt>
      <trkpt lat="43.56292" lon="1.29131">
        <ele>168</ele>
        <time>2024-08-01T06:24:33Z</time>
      </trkpt>
      <trkpt lat="43.56288" lon="1.29131">
        <ele>168</ele>
        <time>2024-08-01T06:24:34Z</time>
      </trkpt>
      <trkpt lat="43.56284" lon="1.2913">
        <ele>168</ele>
        <time>2024-08-01T06:24:35Z</time>
      </trkpt>
      <trkpt lat="43.56279" lon="1.29131">
        <ele>168</ele>
        <time>2024-08-01T06:24:36Z</time>
      </trkpt>
      <trkpt lat="43.56275" lon="1.29132">
        <ele>168</ele>
        <time>2024-08-01T06:24:37Z</time>
      </trkpt>
      <trkpt lat="43.5627" lon="1.29133">
        <ele>168</ele>
        <time>2024-08-01T06:24:38Z</time>
      </trkpt>
      <trkpt lat="43.56266" lon="1.29134">
        <ele>167.8</ele>
        <time>2024-08-01T06:24:39Z</time>
      </trkpt>
      <trkpt lat="43.56261" lon="1.29136">
        <ele>167.8</ele>
        <time>2024-08-01T06:24:40Z</time>
      </trkpt>
      <trkpt lat="43.56257" lon="1.29137">
        <ele>167.8</ele>
        <time>2024-08-01T06:24:41Z</time>
      </trkpt>
      <trkpt lat="43.56254" lon="1.29138">
        <ele>167.8</ele>
        <time>2024-08-01T06:24:42Z</time>
      </trkpt>
      <trkpt lat="43.56251" lon="1.29138">
        <ele>167.8</ele>
        <time>2024-08-01T06:24:43Z</time>
      </trkpt>
      <trkpt lat="43.56249" lon="1.29139">
        <ele>167.8</ele>
        <time>2024-08-01T06:24:44Z</time>
      </trkpt>
      <trkpt lat="43.56248" lon="1.29138">
        <ele>167.8</ele>
        <time>2024-08-01T06:24:45Z</time>
      </trkpt>
      <trkpt lat="43.56246" lon="1.29138">
        <ele>167.8</ele>
        <time>2024-08-01T06:24:46Z</time>
      </trkpt>
      <trkpt lat="43.56245" lon="1.29138">
        <ele>167.8</ele>
        <time>2024-08-01T06:24:47Z</time>
      </trkpt>
      <trkpt lat="43.56245" lon="1.29138">
        <ele>167.6</ele>
        <time>2024-08-01T06:24:48Z</time>
      </trkpt>
      <trkpt lat="43.56244" lon="1.29138">
        <ele>167.6</ele>
        <time>2024-08-01T06:24:49Z</time>
      </trkpt>
      <trkpt lat="43.56243" lon="1.29136">
        <ele>167.6</ele>
        <time>2024-08-01T06:24:50Z</time>
      </trkpt>
      <trkpt lat="43.56241" lon="1.29134">
        <ele>167.6</ele>
        <time>2024-08-01T06:24:51Z</time>
      </trkpt>
      <trkpt lat="43.56239" lon="1.29132">
        <ele>167.6</ele>
        <time>2024-08-01T06:24:52Z</time>
      </trkpt>
      <trkpt lat="43.56238" lon="1.29131">
        <ele>167.6</ele>
        <time>2024-08-01T06:24:53Z</time>
      </trkpt>
      <trkpt lat="43.56238" lon="1.29131">
        <ele>167.6</ele>
        <time>2024-08-01T06:24:54Z</time>
      </trkpt>
      <trkpt lat="43.56238" lon="1.29131">
        <ele>167.6</ele>
        <time>2024-08-01T06:24:55Z</time>
      </trkpt>
      <trkpt lat="43.56221" lon="1.29126">
        <ele>167.4</ele>
        <time>2024-08-01T06:30:22Z</time>
      </trkpt>
      <trkpt lat="43.56218" lon="1.29124">
        <ele>167.4</ele>
        <time>2024-08-01T06:30:23Z</time>
      </trkpt>
      <trkpt lat="43.56215" lon="1.29122">
        <ele>167.4</ele>
        <time>2024-08-01T06:30:24Z</time>
      </trkpt>
      <trkpt lat="43.56213" lon="1.29118">
        <ele>167.4</ele>
        <time>2024-08-01T06:30:25Z</time>
      </trkpt>
      <trkpt lat="43.5621" lon="1.29113">
        <ele>167.4</ele>
        <time>2024-08-01T06:30:26Z</time>
      </trkpt>
      <trkpt lat="43.56208" lon="1.2911">
        <ele>167.4</ele>
        <time>2024-08-01T06:30:27Z</time>
      </trkpt>
      <trkpt lat="43.56207" lon="1.29107">
        <ele>167.4</ele>
        <time>2024-08-01T06:30:28Z</time>
      </trkpt>
      <trkpt lat="43.56205" lon="1.29104">
        <ele>167.4</ele>
        <time>2024-08-01T06:30:29Z</time>
      </trkpt>
      <trkpt lat="43.56203" lon="1.291">
        <ele>167.4</ele>
        <time>2024-08-01T06:30:30Z</time>
      </trkpt>
      <trkpt lat="43.56201" lon="1.29097">
        <ele>167.4</ele>
        <time>2024-08-01T06:30:31Z</time>
      </trkpt>
      <trkpt lat="43.562" lon="1.29094">
        <ele>167.4</ele>
        <time>2024-08-01T06:30:32Z</time>
      </trkpt>
      <trkpt lat="43.56199" lon="1.2909">
        <ele>167.4</ele>
        <time>2024-08-01T06:30:33Z</time>
      </trkpt>
      <trkpt lat="43.56197" lon="1.29086">
        <ele>167.4</ele>
        <time>2024-08-01T06:30:34Z</time>
      </trkpt>
      <trkpt lat="43.56196" lon="1.29082">
        <ele>167.4</ele>
        <time>2024-08-01T06:30:35Z</time>
      </trkpt>
      <trkpt lat="43.56194" lon="1.29078">
        <ele>167.4</ele>
        <time>2024-08-01T06:30:36Z</time>
      </trkpt>
      <trkpt lat="43.56193" lon="1.29075">
        <ele>167.4</ele>
        <time>2024-08-01T06:30:37Z</time>
      </trkpt>
      <trkpt lat="43.56192" lon="1.29072">
        <ele>167.6</ele>
        <time>2024-08-01T06:30:38Z</time>
      </trkpt>
      <trkpt lat="43.56191" lon="1.29069">
        <ele>167.6</ele>
        <time>2024-08-01T06:30:39Z</time>
      </trkpt>
      <trkpt lat="43.5619" lon="1.29065">
        <ele>167.6</ele>
        <time>2024-08-01T06:30:40Z</time>
      </trkpt>
      <trkpt lat="43.56188" lon="1.29063">
        <ele>167.6</ele>
        <time>2024-08-01T06:30:41Z</time>
      </trkpt>
      <trkpt lat="43.56187" lon="1.29061">
        <ele>167.6</ele>
        <time>2024-08-01T06:30:42Z</time>
      </trkpt>
      <trkpt lat="43.56185" lon="1.29059">
        <ele>167.6</ele>
        <time>2024-08-01T06:30:43Z</time>
      </trkpt>
      <trkpt lat="43.56183" lon="1.29058">
        <ele>167.6</ele>
        <time>2024-08-01T06:30:44Z</time>
      </trkpt>
      <trkpt lat="43.5618" lon="1.29058">
        <ele>167.8</ele>
        <time>2024-08-01T06:30:45Z</time>
      </trkpt>
      <trkpt lat="43.56178" lon="1.29059">
        <ele>167.8</ele>
        <time>2024-08-01T06:30:46Z</time>
      </trkpt>
      <trkpt lat="43.56175" lon="1.2906">
        <ele>167.8</ele>
        <time>2024-08-01T06:30:47Z</time>
      </trkpt>
      <trkpt lat="43.56173" lon="1.29061">
        <ele>167.8</ele>
        <time>2024-08-01T06:30:48Z</time>
      </trkpt>
      <trkpt lat="43.5617" lon="1.29063">
        <ele>167.8</ele>
        <time>2024-08-01T06:30:49Z</time>
      </trkpt>
      <trkpt lat="43.56168" lon="1.29065">
        <ele>167.8</ele>
        <time>2024-08-01T06:30:50Z</time>
      </trkpt>
      <trkpt lat="43.56165" lon="1.29067">
        <ele>167.8</ele>
        <time>2024-08-01T06:30:51Z</time>
      </trkpt>
      <trkpt lat="43.56162" lon="1.29069">
        <ele>167.8</ele>
        <time>2024-08-01T06:30:52Z</time>
      </trkpt>
      <trkpt lat="43.5616" lon="1.29071">
        <ele>167.8</ele>
        <time>2024-08-01T06:30:53Z</time>
      </trkpt>
      <trkpt lat="43.56157" lon="1.29072">
        <ele>167.8</ele>
        <time>2024-08-01T06:30:54Z</time>
      </trkpt>
      <trkpt lat="43.56154" lon="1.29074">
        <ele>167.8</ele>
        <time>2024-08-01T06:30:55Z</time>
      </trkpt>
      <trkpt lat="43.56152" lon="1.29076">
        <ele>167.8</ele>
        <time>2024-08-01T06:30:56Z</time>
      </trkpt>
      <trkpt lat="43.5615" lon="1.29078">
        <ele>167.8</ele>
        <time>2024-08-01T06:30:57Z</time>
      </trkpt>
      <trkpt lat="43.56147" lon="1.2908">
        <ele>167.8</ele>
        <time>2024-08-01T06:30:58Z</time>
      </trkpt>
      <trkpt lat="43.56144" lon="1.29082">
        <ele>167.8</ele>
        <time>2024-08-01T06:30:59Z</time>
      </trkpt>
      <trkpt lat="43.56141" lon="1.29083">
        <ele>167.6</ele>
        <time>2024-08-01T06:31:00Z</time>
      </trkpt>
      <trkpt lat="43.56139" lon="1.29085">
        <ele>167.6</ele>
        <time>2024-08-01T06:31:01Z</time>
      </trkpt>
      <trkpt lat="43.56136" lon="1.29086">
        <ele>167.6</ele>
        <time>2024-08-01T06:31:02Z</time>
      </trkpt>
      <trkpt lat="43.56134" lon="1.29088">
        <ele>167.6</ele>
        <time>2024-08-01T06:31:03Z</time>
      </trkpt>
      <trkpt lat="43.56131" lon="1.29089">
        <ele>167.6</ele>
        <time>2024-08-01T06:31:04Z</time>
      </trkpt>
      <trkpt lat="43.56129" lon="1.29091">
        <ele>167.6</ele>
        <time>2024-08-01T06:31:05Z</time>
      </trkpt>
      <trkpt lat="43.56126" lon="1.29093">
        <ele>167.6</ele>
        <time>2024-08-01T06:31:06Z</time>
      </trkpt>
      <trkpt lat="43.56124" lon="1.29095">
        <ele>167.6</ele>
        <time>2024-08-01T06:31:07Z</time>
      </trkpt>
      <trkpt lat="43.56121" lon="1.29097">
        <ele>167.6</ele>
        <time>2024-08-01T06:31:08Z</time>
      </trkpt>
      <trkpt lat="43.56118" lon="1.29099">
        <ele>167.6</ele>
        <time>2024-08-01T06:31:09Z</time>
      </trkpt>
      <trkpt lat="43.56116" lon="1.291">
        <ele>167.6</ele>
        <time>2024-08-01T06:31:10Z</time>
      </trkpt>
      <trkpt lat="43.56113" lon="1.29102">
        <ele>167.6</ele>
        <time>2024-08-01T06:31:11Z</time>
      </trkpt>
      <trkpt lat="43.5611" lon="1.29104">
        <ele>167.6</ele>
        <time>2024-08-01T06:31:12Z</time>
      </trkpt>
      <trkpt lat="43.56108" lon="1.29106">
        <ele>167.6</ele>
        <time>2024-08-01T06:31:13Z</time>
      </trkpt>
      <trkpt lat="43.56106" lon="1.29108">
        <ele>167.6</ele>
        <time>2024-08-01T06:31:14Z</time>
      </trkpt>
      <trkpt lat="43.56104" lon="1.2911">
        <ele>167.6</ele>
        <time>2024-08-01T06:31:15Z</time>
      </trkpt>
      <trkpt lat="43.56102" lon="1.29112">
        <ele>167.6</ele>
        <time>2024-08-01T06:31:16Z</time>
      </trkpt>
      <trkpt lat="43.561" lon="1.29115">
        <ele>167.6</ele>
        <time>2024-08-01T06:31:17Z</time>
      </trkpt>
      <trkpt lat="43.56099" lon="1.29119">
        <ele>167.6</ele>
        <time>2024-08-01T06:31:18Z</time>
      </trkpt>
      <trkpt lat="43.56098" lon="1.29123">
        <ele>167.6</ele>
        <time>2024-08-01T06:31:19Z</time>
      </trkpt>
      <trkpt lat="43.56099" lon="1.29127">
        <ele>167.6</ele>
        <time>2024-08-01T06:31:20Z</time>
      </trkpt>
      <trkpt lat="43.56099" lon="1.29131">
        <ele>167.6</ele>
        <time>2024-08-01T06:31:21Z</time>
      </trkpt>
      <trkpt lat="43.561" lon="1.29135">
        <ele>167.6</ele>
        <time>2024-08-01T06:31:22Z</time>
      </trkpt>
      <trkpt lat="43.56102" lon="1.29139">
        <ele>167.6</ele>
        <time>2024-08-01T06:31:23Z</time>
      </trkpt>
      <trkpt lat="43.56103" lon="1.29143">
        <ele>167.4</ele>
        <time>2024-08-01T06:31:24Z</time>
      </trkpt>
      <trkpt lat="43.56105" lon="1.29147">
        <ele>167.4</ele>
        <time>2024-08-01T06:31:25Z</time>
      </trkpt>
      <trkpt lat="43.56106" lon="1.29152">
        <ele>167.4</ele>
        <time>2024-08-01T06:31:26Z</time>
      </trkpt>
      <trkpt lat="43.56108" lon="1.29155">
        <ele>167.4</ele>
        <time>2024-08-01T06:31:27Z</time>
      </trkpt>
      <trkpt lat="43.56109" lon="1.29159">
        <ele>167.4</ele>
        <time>2024-08-01T06:31:28Z</time>
      </trkpt>
      <trkpt lat="43.56109" lon="1.29163">
        <ele>167.4</ele>
        <time>2024-08-01T06:31:29Z</time>
      </trkpt>
      <trkpt lat="43.56109" lon="1.29167">
        <ele>167.4</ele>
        <time>2024-08-01T06:31:30Z</time>
      </trkpt>
      <trkpt lat="43.56108" lon="1.2917">
        <ele>167.4</ele>
        <time>2024-08-01T06:31:31Z</time>
      </trkpt>
      <trkpt lat="43.56107" lon="1.29173">
        <ele>167.4</ele>
        <time>2024-08-01T06:31:32Z</time>
      </trkpt>
      <trkpt lat="43.56104" lon="1.29176">
        <ele>167.4</ele>
        <time>2024-08-01T06:31:33Z</time>
      </trkpt>
      <trkpt lat="43.56101" lon="1.29178">
        <ele>167.4</ele>
        <time>2024-08-01T06:31:34Z</time>
      </trkpt>
      <trkpt lat="43.56098" lon="1.29179">
        <ele>167.4</ele>
        <time>2024-08-01T06:31:35Z</time>
      </trkpt>
      <trkpt lat="43.56094" lon="1.29181">
        <ele>167.2</ele>
        <time>2024-08-01T06:31:36Z</time>
      </trkpt>
      <trkpt lat="43.56091" lon="1.29183">
        <ele>167.2</ele>
        <time>2024-08-01T06:31:37Z</time>
      </trkpt>
      <trkpt lat="43.56087" lon="1.29186">
        <ele>167.2</ele>
        <time>2024-08-01T06:31:38Z</time>
      </trkpt>
      <trkpt lat="43.56083" lon="1.29188">
        <ele>167.2</ele>
        <time>2024-08-01T06:31:39Z</time>
      </trkpt>
      <trkpt lat="43.56079" lon="1.29188">
        <ele>167.2</ele>
        <time>2024-08-01T06:31:40Z</time>
      </trkpt>
      <trkpt lat="43.56074" lon="1.29187">
        <ele>167.2</ele>
        <time>2024-08-01T06:31:41Z</time>
      </trkpt>
      <trkpt lat="43.5607" lon="1.29184">
        <ele>167.2</ele>
        <time>2024-08-01T06:31:42Z</time>
      </trkpt>
      <trkpt lat="43.56066" lon="1.29182">
        <ele>167</ele>
        <time>2024-08-01T06:31:43Z</time>
      </trkpt>
      <trkpt lat="43.56061" lon="1.2918">
        <ele>167</ele>
        <time>2024-08-01T06:31:44Z</time>
      </trkpt>
      <trkpt lat="43.56057" lon="1.29178">
        <ele>167</ele>
        <time>2024-08-01T06:31:45Z</time>
      </trkpt>
      <trkpt lat="43.56052" lon="1.29176">
        <ele>167</ele>
        <time>2024-08-01T06:31:46Z</time>
      </trkpt>
      <trkpt lat="43.56047" lon="1.29174">
        <ele>166.8</ele>
        <time>2024-08-01T06:31:47Z</time>
      </trkpt>
      <trkpt lat="43.56042" lon="1.29172">
        <ele>166.8</ele>
        <time>2024-08-01T06:31:48Z</time>
      </trkpt>
      <trkpt lat="43.56037" lon="1.29171">
        <ele>166.8</ele>
        <time>2024-08-01T06:31:49Z</time>
      </trkpt>
      <trkpt lat="43.56032" lon="1.29169">
        <ele>166.6</ele>
        <time>2024-08-01T06:31:50Z</time>
      </trkpt>
      <trkpt lat="43.56027" lon="1.29168">
        <ele>166.6</ele>
        <time>2024-08-01T06:31:51Z</time>
      </trkpt>
      <trkpt lat="43.56023" lon="1.29166">
        <ele>166.6</ele>
        <time>2024-08-01T06:31:52Z</time>
      </trkpt>
      <trkpt lat="43.56018" lon="1.29165">
        <ele>166.4</ele>
        <time>2024-08-01T06:31:53Z</time>
      </trkpt>
      <trkpt lat="43.56013" lon="1.29164">
        <ele>166.4</ele>
        <time>2024-08-01T06:31:54Z</time>
      </trkpt>
      <trkpt lat="43.56008" lon="1.29163">
        <ele>166.4</ele>
        <time>2024-08-01T06:31:55Z</time>
      </trkpt>
      <trkpt lat="43.56004" lon="1.29162">
        <ele>166.4</ele>
        <time>2024-08-01T06:31:56Z</time>
      </trkpt>
      <trkpt lat="43.55999" lon="1.29161">
        <ele>166.4</ele>
        <time>2024-08-01T06:31:57Z</time>
      </trkpt>
      <trkpt lat="43.55994" lon="1.2916">
        <ele>166.4</ele>
        <time>2024-08-01T06:31:58Z</time>
      </trkpt>
      <trkpt lat="43.55989" lon="1.29159">
        <ele>166.4</ele>
        <time>2024-08-01T06:31:59Z</time>
      </trkpt>
      <trkpt lat="43.55984" lon="1.29158">
        <ele>166.6</ele>
        <time>2024-08-01T06:32:00Z</time>
      </trkpt>
      <trkpt lat="43.55979" lon="1.29158">
        <ele>166.6</ele>
        <time>2024-08-01T06:32:01Z</time>
      </trkpt>
      <trkpt lat="43.55974" lon="1.29157">
        <ele>166.6</ele>
        <time>2024-08-01T06:32:02Z</time>
      </trkpt>
      <trkpt lat="43.55969" lon="1.29156">
        <ele>166.6</ele>
        <time>2024-08-01T06:32:03Z</time>
      </trkpt>
      <trkpt lat="43.55964" lon="1.29156">
        <ele>166.6</ele>
        <time>2024-08-01T06:32:04Z</time>
      </trkpt>
      <trkpt lat="43.55959" lon="1.29155">
        <ele>166.6</ele>
        <time>2024-08-01T06:32:05Z</time>
      </trkpt>
      <trkpt lat="43.55954" lon="1.29154">
        <ele>166.6</ele>
        <time>2024-08-01T06:32:06Z</time>
      </trkpt>
      <trkpt lat="43.55949" lon="1.29153">
        <ele>166.6</ele>
        <time>2024-08-01T06:32:07Z</time>
      </trkpt>
      <trkpt lat="43.55944" lon="1.29152">
        <ele>166.6</ele>
        <time>2024-08-01T06:32:08Z</time>
      </trkpt>
      <trkpt lat="43.55939" lon="1.29152">
        <ele>166.4</ele>
        <time>2024-08-01T06:32:09Z</time>
      </trkpt>
      <trkpt lat="43.55934" lon="1.29151">
        <ele>166.4</ele>
        <time>2024-08-01T06:32:10Z</time>
      </trkpt>
      <trkpt lat="43.55929" lon="1.29151">
        <ele>166.4</ele>
        <time>2024-08-01T06:32:11Z</time>
      </trkpt>
      <trkpt lat="43.55924" lon="1.29151">
        <ele>166.4</ele>
        <time>2024-08-01T06:32:12Z</time>
      </trkpt>
      <trkpt lat="43.55919" lon="1.29151">
        <ele>166.4</ele>
        <time>2024-08-01T06:32:13Z</time>
      </trkpt>
      <trkpt lat="43.55914" lon="1.29151">
        <ele>166.4</ele>
        <time>2024-08-01T06:32:14Z</time>
      </trkpt>
      <trkpt lat="43.55909" lon="1.2915">
        <ele>166.4</ele>
        <time>2024-08-01T06:32:15Z</time>
      </trkpt>
      <trkpt lat="43.55904" lon="1.29151">
        <ele>166.4</ele>
        <time>2024-08-01T06:32:16Z</time>
      </trkpt>
      <trkpt lat="43.559" lon="1.29151">
        <ele>166.2</ele>
        <time>2024-08-01T06:32:17Z</time>
      </trkpt>
      <trkpt lat="43.55895" lon="1.29152">
        <ele>166.2</ele>
        <time>2024-08-01T06:32:18Z</time>
      </trkpt>
      <trkpt lat="43.55891" lon="1.29153">
        <ele>166.2</ele>
        <time>2024-08-01T06:32:19Z</time>
      </trkpt>
      <trkpt lat="43.55887" lon="1.29154">
        <ele>166</ele>
        <time>2024-08-01T06:32:20Z</time>
      </trkpt>
      <trkpt lat="43.55882" lon="1.29155">
        <ele>166</ele>
        <time>2024-08-01T06:32:21Z</time>
      </trkpt>
      <trkpt lat="43.55878" lon="1.29156">
        <ele>166</ele>
        <time>2024-08-01T06:32:22Z</time>
      </trkpt>
      <trkpt lat="43.55874" lon="1.29157">
        <ele>166</ele>
        <time>2024-08-01T06:32:23Z</time>
      </trkpt>
      <trkpt lat="43.5587" lon="1.29159">
        <ele>166</ele>
        <time>2024-08-01T06:32:24Z</time>
      </trkpt>
      <trkpt lat="43.55866" lon="1.2916">
        <ele>165.8</ele>
        <time>2024-08-01T06:32:25Z</time>
      </trkpt>
      <trkpt lat="43.55862" lon="1.29162">
        <ele>165.8</ele>
        <time>2024-08-01T06:32:26Z</time>
      </trkpt>
      <trkpt lat="43.55858" lon="1.29164">
        <ele>165.8</ele>
        <time>2024-08-01T06:32:27Z</time>
      </trkpt>
      <trkpt lat="43.55853" lon="1.29166">
        <ele>165.8</ele>
        <time>2024-08-01T06:32:28Z</time>
      </trkpt>
      <trkpt lat="43.55849" lon="1.29167">
        <ele>165.8</ele>
        <time>2024-08-01T06:32:29Z</time>
      </trkpt>
      <trkpt lat="43.55845" lon="1.29169">
        <ele>165.8</ele>
        <time>2024-08-01T06:32:30Z</time>
      </trkpt>
      <trkpt lat="43.5584" lon="1.2917">
        <ele>166</ele>
        <time>2024-08-01T06:32:31Z</time>
      </trkpt>
      <trkpt lat="43.55835" lon="1.29171">
        <ele>166</ele>
        <time>2024-08-01T06:32:32Z</time>
      </trkpt>
      <trkpt lat="43.55831" lon="1.29171">
        <ele>166</ele>
        <time>2024-08-01T06:32:33Z</time>
      </trkpt>
      <trkpt lat="43.55826" lon="1.29171">
        <ele>166</ele>
        <time>2024-08-01T06:32:34Z</time>
      </trkpt>
      <trkpt lat="43.55822" lon="1.2917">
        <ele>166</ele>
        <time>2024-08-01T06:32:35Z</time>
      </trkpt>
      <trkpt lat="43.55817" lon="1.29169">
        <ele>166</ele>
        <time>2024-08-01T06:32:36Z</time>
      </trkpt>
      <trkpt lat="43.55813" lon="1.29166">
        <ele>166</ele>
        <time>2024-08-01T06:32:37Z</time>
      </trkpt>
      <trkpt lat="43.55808" lon="1.29162">
        <ele>166</ele>
        <time>2024-08-01T06:32:38Z</time>
      </trkpt>
      <trkpt lat="43.55804" lon="1.29158">
        <ele>166</ele>
        <time>2024-08-01T06:32:39Z</time>
      </trkpt>
      <trkpt lat="43.558" lon="1.29153">
        <ele>166</ele>
        <time>2024-08-01T06:32:40Z</time>
      </trkpt>
      <trkpt lat="43.55796" lon="1.29148">
        <ele>166</ele>
        <time>2024-08-01T06:32:41Z</time>
      </trkpt>
      <trkpt lat="43.55793" lon="1.29143">
        <ele>166</ele>
        <time>2024-08-01T06:32:42Z</time>
      </trkpt>
      <trkpt lat="43.55789" lon="1.29138">
        <ele>166</ele>
        <time>2024-08-01T06:32:43Z</time>
      </trkpt>
      <trkpt lat="43.55785" lon="1.29133">
        <ele>166</ele>
        <time>2024-08-01T06:32:44Z</time>
      </trkpt>
      <trkpt lat="43.55781" lon="1.29128">
        <ele>166</ele>
        <time>2024-08-01T06:32:45Z</time>
      </trkpt>
      <trkpt lat="43.55777" lon="1.29123">
        <ele>166</ele>
        <time>2024-08-01T06:32:46Z</time>
      </trkpt>
      <trkpt lat="43.55772" lon="1.29118">
        <ele>166</ele>
        <time>2024-08-01T06:32:47Z</time>
      </trkpt>
      <trkpt lat="43.55769" lon="1.29114">
        <ele>166</ele>
        <time>2024-08-01T06:32:48Z</time>
      </trkpt>
      <trkpt lat="43.55765" lon="1.29109">
        <ele>166</ele>
        <time>2024-08-01T06:32:49Z</time>
      </trkpt>
      <trkpt lat="43.55761" lon="1.29104">
        <ele>166.2</ele>
        <time>2024-08-01T06:32:50Z</time>
      </trkpt>
      <trkpt lat="43.55757" lon="1.291">
        <ele>166.2</ele>
        <time>2024-08-01T06:32:51Z</time>
      </trkpt>
      <trkpt lat="43.55753" lon="1.29095">
        <ele>166.2</ele>
        <time>2024-08-01T06:32:52Z</time>
      </trkpt>
      <trkpt lat="43.55749" lon="1.2909">
        <ele>166.4</ele>
        <time>2024-08-01T06:32:53Z</time>
      </trkpt>
      <trkpt lat="43.55745" lon="1.29085">
        <ele>166.4</ele>
        <time>2024-08-01T06:32:54Z</time>
      </trkpt>
      <trkpt lat="43.55741" lon="1.29081">
        <ele>166.4</ele>
        <time>2024-08-01T06:32:55Z</time>
      </trkpt>
      <trkpt lat="43.55737" lon="1.29076">
        <ele>166.4</ele>
        <time>2024-08-01T06:32:56Z</time>
      </trkpt>
      <trkpt lat="43.55733" lon="1.29072">
        <ele>166.4</ele>
        <time>2024-08-01T06:32:57Z</time>
      </trkpt>
      <trkpt lat="43.55729" lon="1.29067">
        <ele>166.4</ele>
        <time>2024-08-01T06:32:58Z</time>
      </trkpt>
      <trkpt lat="43.55726" lon="1.29063">
        <ele>166.4</ele>
        <time>2024-08-01T06:32:59Z</time>
      </trkpt>
      <trkpt lat="43.55722" lon="1.29058">
        <ele>166.4</ele>
        <time>2024-08-01T06:33:00Z</time>
      </trkpt>
      <trkpt lat="43.55719" lon="1.29054">
        <ele>166.4</ele>
        <time>2024-08-01T06:33:01Z</time>
      </trkpt>
      <trkpt lat="43.55715" lon="1.2905">
        <ele>166.4</ele>
        <time>2024-08-01T06:33:02Z</time>
      </trkpt>
      <trkpt lat="43.55711" lon="1.29045">
        <ele>166.4</ele>
        <time>2024-08-01T06:33:03Z</time>
      </trkpt>
      <trkpt lat="43.55707" lon="1.29041">
        <ele>166.4</ele>
        <time>2024-08-01T06:33:04Z</time>
      </trkpt>
      <trkpt lat="43.55703" lon="1.29036">
        <ele>166.4</ele>
        <time>2024-08-01T06:33:05Z</time>
      </trkpt>
      <trkpt lat="43.55699" lon="1.29032">
        <ele>166.4</ele>
        <time>2024-08-01T06:33:06Z</time>
      </trkpt>
      <trkpt lat="43.55696" lon="1.29027">
        <ele>166.6</ele>
        <time>2024-08-01T06:33:07Z</time>
      </trkpt>
      <trkpt lat="43.55692" lon="1.29023">
        <ele>166.6</ele>
        <time>2024-08-01T06:33:08Z</time>
      </trkpt>
      <trkpt lat="43.55688" lon="1.29018">
        <ele>166.6</ele>
        <time>2024-08-01T06:33:09Z</time>
      </trkpt>
      <trkpt lat="43.55684" lon="1.29013">
        <ele>166.6</ele>
        <time>2024-08-01T06:33:10Z</time>
      </trkpt>
      <trkpt lat="43.55679" lon="1.29009">
        <ele>166.6</ele>
        <time>2024-08-01T06:33:11Z</time>
      </trkpt>
      <trkpt lat="43.55675" lon="1.29004">
        <ele>166.6</ele>
        <time>2024-08-01T06:33:12Z</time>
      </trkpt>
      <trkpt lat="43.55671" lon="1.28999">
        <ele>166.6</ele>
        <time>2024-08-01T06:33:13Z</time>
      </trkpt>
      <trkpt lat="43.55667" lon="1.28994">
        <ele>166.6</ele>
        <time>2024-08-01T06:33:14Z</time>
      </trkpt>
      <trkpt lat="43.55663" lon="1.28989">
        <ele>166.8</ele>
        <time>2024-08-01T06:33:15Z</time>
      </trkpt>
      <trkpt lat="43.55659" lon="1.28984">
        <ele>166.8</ele>
        <time>2024-08-01T06:33:16Z</time>
      </trkpt>
      <trkpt lat="43.55655" lon="1.2898">
        <ele>166.8</ele>
        <time>2024-08-01T06:33:17Z</time>
      </trkpt>
      <trkpt lat="43.55651" lon="1.28975">
        <ele>166.8</ele>
        <time>2024-08-01T06:33:18Z</time>
      </trkpt>
      <trkpt lat="43.55647" lon="1.2897">
        <ele>167</ele>
        <time>2024-08-01T06:33:19Z</time>
      </trkpt>
      <trkpt lat="43.55642" lon="1.28965">
        <ele>167</ele>
        <time>2024-08-01T06:33:20Z</time>
      </trkpt>
      <trkpt lat="43.55638" lon="1.28961">
        <ele>167</ele>
        <time>2024-08-01T06:33:21Z</time>
      </trkpt>
      <trkpt lat="43.55634" lon="1.28956">
        <ele>167</ele>
        <time>2024-08-01T06:33:22Z</time>
      </trkpt>
      <trkpt lat="43.5563" lon="1.28951">
        <ele>167</ele>
        <time>2024-08-01T06:33:23Z</time>
      </trkpt>
      <trkpt lat="43.55626" lon="1.28947">
        <ele>167</ele>
        <time>2024-08-01T06:33:24Z</time>
      </trkpt>
      <trkpt lat="43.55622" lon="1.28942">
        <ele>167</ele>
        <time>2024-08-01T06:33:25Z</time>
      </trkpt>
      <trkpt lat="43.55618" lon="1.28937">
        <ele>167</ele>
        <time>2024-08-01T06:33:26Z</time>
      </trkpt>
      <trkpt lat="43.55614" lon="1.28933">
        <ele>166.8</ele>
        <time>2024-08-01T06:33:27Z</time>
      </trkpt>
      <trkpt lat="43.5561" lon="1.28928">
        <ele>166.8</ele>
        <time>2024-08-01T06:33:28Z</time>
      </trkpt>
      <trkpt lat="43.55606" lon="1.28924">
        <ele>166.8</ele>
        <time>2024-08-01T06:33:29Z</time>
      </trkpt>
      <trkpt lat="43.55602" lon="1.28919">
        <ele>166.8</ele>
        <time>2024-08-01T06:33:30Z</time>
      </trkpt>
      <trkpt lat="43.55598" lon="1.28915">
        <ele>166.8</ele>
        <time>2024-08-01T06:33:31Z</time>
      </trkpt>
      <trkpt lat="43.55594" lon="1.2891">
        <ele>166.8</ele>
        <time>2024-08-01T06:33:32Z</time>
      </trkpt>
      <trkpt lat="43.55589" lon="1.28906">
        <ele>166.8</ele>
        <time>2024-08-01T06:33:33Z</time>
      </trkpt>
      <trkpt lat="43.55585" lon="1.28902">
        <ele>166.8</ele>
        <time>2024-08-01T06:33:34Z</time>
      </trkpt>
      <trkpt lat="43.55582" lon="1.28897">
        <ele>166.8</ele>
        <time>2024-08-01T06:33:35Z</time>
      </trkpt>
      <trkpt lat="43.55578" lon="1.28893">
        <ele>166.8</ele>
        <time>2024-08-01T06:33:36Z</time>
      </trkpt>
      <trkpt lat="43.55574" lon="1.28888">
        <ele>166.8</ele>
        <time>2024-08-01T06:33:37Z</time>
      </trkpt>
      <trkpt lat="43.5557" lon="1.28884">
        <ele>166.8</ele>
        <time>2024-08-01T06:33:38Z</time>
      </trkpt>
      <trkpt lat="43.55565" lon="1.2888">
        <ele>166.8</ele>
        <time>2024-08-01T06:33:39Z</time>
      </trkpt>
      <trkpt lat="43.55561" lon="1.28876">
        <ele>166.8</ele>
        <time>2024-08-01T06:33:40Z</time>
      </trkpt>
      <trkpt lat="43.55556" lon="1.28872">
        <ele>166.8</ele>
        <time>2024-08-01T06:33:41Z</time>
      </trkpt>
      <trkpt lat="43.55552" lon="1.28869">
        <ele>166.8</ele>
        <time>2024-08-01T06:33:42Z</time>
      </trkpt>
      <trkpt lat="43.55547" lon="1.28866">
        <ele>166.8</ele>
        <time>2024-08-01T06:33:43Z</time>
      </trkpt>
      <trkpt lat="43.55542" lon="1.28863">
        <ele>166.8</ele>
        <time>2024-08-01T06:33:44Z</time>
      </trkpt>
      <trkpt lat="43.55537" lon="1.28861">
        <ele>167</ele>
        <time>2024-08-01T06:33:45Z</time>
      </trkpt>
      <trkpt lat="43.55532" lon="1.28859">
        <ele>167</ele>
        <time>2024-08-01T06:33:46Z</time>
      </trkpt>
      <trkpt lat="43.55527" lon="1.28857">
        <ele>167</ele>
        <time>2024-08-01T06:33:47Z</time>
      </trkpt>
      <trkpt lat="43.55521" lon="1.28856">
        <ele>167.2</ele>
        <time>2024-08-01T06:33:48Z</time>
      </trkpt>
      <trkpt lat="43.55516" lon="1.28855">
        <ele>167.4</ele>
        <time>2024-08-01T06:33:49Z</time>
      </trkpt>
      <trkpt lat="43.55511" lon="1.28854">
        <ele>167.6</ele>
        <time>2024-08-01T06:33:50Z</time>
      </trkpt>
      <trkpt lat="43.55506" lon="1.28853">
        <ele>167.6</ele>
        <time>2024-08-01T06:33:51Z</time>
      </trkpt>
      <trkpt lat="43.55501" lon="1.28852">
        <ele>167.8</ele>
        <time>2024-08-01T06:33:52Z</time>
      </trkpt>
      <trkpt lat="43.55496" lon="1.28851">
        <ele>167.8</ele>
        <time>2024-08-01T06:33:53Z</time>
      </trkpt>
      <trkpt lat="43.55491" lon="1.2885">
        <ele>167.8</ele>
        <time>2024-08-01T06:33:54Z</time>
      </trkpt>
      <trkpt lat="43.55486" lon="1.28849">
        <ele>168</ele>
        <time>2024-08-01T06:33:55Z</time>
      </trkpt>
      <trkpt lat="43.55481" lon="1.28847">
        <ele>168</ele>
        <time>2024-08-01T06:33:56Z</time>
      </trkpt>
      <trkpt lat="43.55476" lon="1.28846">
        <ele>168</ele>
        <time>2024-08-01T06:33:57Z</time>
      </trkpt>
      <trkpt lat="43.5547" lon="1.28845">
        <ele>168</ele>
        <time>2024-08-01T06:33:58Z</time>
      </trkpt>
      <trkpt lat="43.55465" lon="1.28843">
        <ele>168</ele>
        <time>2024-08-01T06:33:59Z</time>
      </trkpt>
      <trkpt lat="43.5546" lon="1.2884">
        <ele>167.8</ele>
        <time>2024-08-01T06:34:00Z</time>
      </trkpt>
      <trkpt lat="43.55455" lon="1.28836">
        <ele>167.8</ele>
        <time>2024-08-01T06:34:01Z</time>
      </trkpt>
      <trkpt lat="43.5545" lon="1.28832">
        <ele>167.8</ele>
        <time>2024-08-01T06:34:02Z</time>
      </trkpt>
      <trkpt lat="43.55445" lon="1.28827">
        <ele>167.8</ele>
        <time>2024-08-01T06:34:03Z</time>
      </trkpt>
      <trkpt lat="43.5544" lon="1.28822">
        <ele>167.8</ele>
        <time>2024-08-01T06:34:04Z</time>
      </trkpt>
      <trkpt lat="43.55435" lon="1.28817">
        <ele>167.8</ele>
        <time>2024-08-01T06:34:05Z</time>
      </trkpt>
      <trkpt lat="43.55431" lon="1.28812">
        <ele>167.8</ele>
        <time>2024-08-01T06:34:06Z</time>
      </trkpt>
      <trkpt lat="43.55426" lon="1.28807">
        <ele>167.8</ele>
        <time>2024-08-01T06:34:07Z</time>
      </trkpt>
      <trkpt lat="43.55421" lon="1.28802">
        <ele>167.8</ele>
        <time>2024-08-01T06:34:08Z</time>
      </trkpt>
      <trkpt lat="43.55417" lon="1.28797">
        <ele>167.8</ele>
        <time>2024-08-01T06:34:09Z</time>
      </trkpt>
      <trkpt lat="43.55412" lon="1.28791">
        <ele>167.8</ele>
        <time>2024-08-01T06:34:10Z</time>
      </trkpt>
      <trkpt lat="43.55408" lon="1.28786">
        <ele>167.8</ele>
        <time>2024-08-01T06:34:11Z</time>
      </trkpt>
      <trkpt lat="43.55404" lon="1.28781">
        <ele>167.8</ele>
        <time>2024-08-01T06:34:12Z</time>
      </trkpt>
      <trkpt lat="43.55399" lon="1.28776">
        <ele>167.8</ele>
        <time>2024-08-01T06:34:13Z</time>
      </trkpt>
      <trkpt lat="43.55395" lon="1.28771">
        <ele>167.8</ele>
        <time>2024-08-01T06:34:14Z</time>
      </trkpt>
      <trkpt lat="43.55391" lon="1.28766">
        <ele>167.8</ele>
        <time>2024-08-01T06:34:15Z</time>
      </trkpt>
      <trkpt lat="43.55387" lon="1.28761">
        <ele>167.8</ele>
        <time>2024-08-01T06:34:16Z</time>
      </trkpt>
      <trkpt lat="43.55382" lon="1.28755">
        <ele>167.8</ele>
        <time>2024-08-01T06:34:17Z</time>
      </trkpt>
      <trkpt lat="43.55378" lon="1.2875">
        <ele>167.8</ele>
        <time>2024-08-01T06:34:18Z</time>
      </trkpt>
      <trkpt lat="43.55374" lon="1.28744">
        <ele>167.8</ele>
        <time>2024-08-01T06:34:19Z</time>
      </trkpt>
      <trkpt lat="43.5537" lon="1.28738">
        <ele>167.8</ele>
        <time>2024-08-01T06:34:20Z</time>
      </trkpt>
      <trkpt lat="43.55366" lon="1.28732">
        <ele>167.8</ele>
        <time>2024-08-01T06:34:21Z</time>
      </trkpt>
      <trkpt lat="43.55362" lon="1.28726">
        <ele>167.8</ele>
        <time>2024-08-01T06:34:22Z</time>
      </trkpt>
      <trkpt lat="43.55359" lon="1.28721">
        <ele>167.8</ele>
        <time>2024-08-01T06:34:23Z</time>
      </trkpt>
      <trkpt lat="43.55355" lon="1.28715">
        <ele>167.8</ele>
        <time>2024-08-01T06:34:24Z</time>
      </trkpt>
      <trkpt lat="43.55351" lon="1.28709">
        <ele>167.8</ele>
        <time>2024-08-01T06:34:25Z</time>
      </trkpt>
      <trkpt lat="43.55347" lon="1.28702">
        <ele>168</ele>
        <time>2024-08-01T06:34:26Z</time>
      </trkpt>
      <trkpt lat="43.55344" lon="1.28696">
        <ele>168</ele>
        <time>2024-08-01T06:34:27Z</time>
      </trkpt>
      <trkpt lat="43.5534" lon="1.2869">
        <ele>168</ele>
        <time>2024-08-01T06:34:28Z</time>
      </trkpt>
      <trkpt lat="43.55336" lon="1.28684">
        <ele>168</ele>
        <time>2024-08-01T06:34:29Z</time>
      </trkpt>
      <trkpt lat="43.55332" lon="1.28678">
        <ele>168</ele>
        <time>2024-08-01T06:34:30Z</time>
      </trkpt>
      <trkpt lat="43.55329" lon="1.28673">
        <ele>168</ele>
        <time>2024-08-01T06:34:31Z</time>
      </trkpt>
      <trkpt lat="43.55325" lon="1.28667">
        <ele>168</ele>
        <time>2024-08-01T06:34:32Z</time>
      </trkpt>
      <trkpt lat="43.55321" lon="1.28661">
        <ele>168</ele>
        <time>2024-08-01T06:34:33Z</time>
      </trkpt>
      <trkpt lat="43.55318" lon="1.28656">
        <ele>168</ele>
        <time>2024-08-01T06:34:34Z</time>
      </trkpt>
      <trkpt lat="43.55314" lon="1.28651">
        <ele>167.8</ele>
        <time>2024-08-01T06:34:35Z</time>
      </trkpt>
      <trkpt lat="43.55311" lon="1.28646">
        <ele>167.8</ele>
        <time>2024-08-01T06:34:36Z</time>
      </trkpt>
      <trkpt lat="43.55307" lon="1.28641">
        <ele>167.8</ele>
        <time>2024-08-01T06:34:37Z</time>
      </trkpt>
      <trkpt lat="43.55303" lon="1.28636">
        <ele>167.8</ele>
        <time>2024-08-01T06:34:38Z</time>
      </trkpt>
      <trkpt lat="43.55299" lon="1.28632">
        <ele>167.8</ele>
        <time>2024-08-01T06:34:39Z</time>
      </trkpt>
      <trkpt lat="43.55295" lon="1.28627">
        <ele>167.8</ele>
        <time>2024-08-01T06:34:40Z</time>
      </trkpt>
      <trkpt lat="43.55291" lon="1.28623">
        <ele>167.8</ele>
        <time>2024-08-01T06:34:41Z</time>
      </trkpt>
      <trkpt lat="43.55287" lon="1.28618">
        <ele>167.8</ele>
        <time>2024-08-01T06:34:42Z</time>
      </trkpt>
      <trkpt lat="43.55282" lon="1.28613">
        <ele>167.8</ele>
        <time>2024-08-01T06:34:43Z</time>
      </trkpt>
      <trkpt lat="43.55278" lon="1.28609">
        <ele>167.8</ele>
        <time>2024-08-01T06:34:44Z</time>
      </trkpt>
      <trkpt lat="43.55274" lon="1.28606">
        <ele>167.8</ele>
        <time>2024-08-01T06:34:45Z</time>
      </trkpt>
      <trkpt lat="43.55271" lon="1.28603">
        <ele>167.8</ele>
        <time>2024-08-01T06:34:46Z</time>
      </trkpt>
      <trkpt lat="43.55267" lon="1.286">
        <ele>167.8</ele>
        <time>2024-08-01T06:34:47Z</time>
      </trkpt>
      <trkpt lat="43.55263" lon="1.28597">
        <ele>167.8</ele>
        <time>2024-08-01T06:34:48Z</time>
      </trkpt>
      <trkpt lat="43.55259" lon="1.28593">
        <ele>167.8</ele>
        <time>2024-08-01T06:34:49Z</time>
      </trkpt>
      <trkpt lat="43.55255" lon="1.2859">
        <ele>167.8</ele>
        <time>2024-08-01T06:34:50Z</time>
      </trkpt>
      <trkpt lat="43.5525" lon="1.28586">
        <ele>167.8</ele>
        <time>2024-08-01T06:34:51Z</time>
      </trkpt>
      <trkpt lat="43.55246" lon="1.28583">
        <ele>167.8</ele>
        <time>2024-08-01T06:34:52Z</time>
      </trkpt>
      <trkpt lat="43.55241" lon="1.28579">
        <ele>167.8</ele>
        <time>2024-08-01T06:34:53Z</time>
      </trkpt>
      <trkpt lat="43.55236" lon="1.28576">
        <ele>168</ele>
        <time>2024-08-01T06:34:54Z</time>
      </trkpt>
      <trkpt lat="43.55231" lon="1.28573">
        <ele>168</ele>
        <time>2024-08-01T06:34:55Z</time>
      </trkpt>
      <trkpt lat="43.55226" lon="1.2857">
        <ele>168</ele>
        <time>2024-08-01T06:34:56Z</time>
      </trkpt>
      <trkpt lat="43.55222" lon="1.28566">
        <ele>168</ele>
        <time>2024-08-01T06:34:57Z</time>
      </trkpt>
      <trkpt lat="43.55216" lon="1.28563">
        <ele>168</ele>
        <time>2024-08-01T06:34:58Z</time>
      </trkpt>
      <trkpt lat="43.55211" lon="1.2856">
        <ele>167.8</ele>
        <time>2024-08-01T06:34:59Z</time>
      </trkpt>
      <trkpt lat="43.55206" lon="1.28556">
        <ele>168</ele>
        <time>2024-08-01T06:35:00Z</time>
      </trkpt>
      <trkpt lat="43.552" lon="1.28553">
        <ele>168</ele>
        <time>2024-08-01T06:35:01Z</time>
      </trkpt>
      <trkpt lat="43.55195" lon="1.2855">
        <ele>168</ele>
        <time>2024-08-01T06:35:02Z</time>
      </trkpt>
      <trkpt lat="43.55189" lon="1.28546">
        <ele>168</ele>
        <time>2024-08-01T06:35:03Z</time>
      </trkpt>
      <trkpt lat="43.55183" lon="1.28543">
        <ele>168</ele>
        <time>2024-08-01T06:35:04Z</time>
      </trkpt>
      <trkpt lat="43.55178" lon="1.28539">
        <ele>168.2</ele>
        <time>2024-08-01T06:35:05Z</time>
      </trkpt>
      <trkpt lat="43.55173" lon="1.28536">
        <ele>168.2</ele>
        <time>2024-08-01T06:35:06Z</time>
      </trkpt>
      <trkpt lat="43.55167" lon="1.28532">
        <ele>168.2</ele>
        <time>2024-08-01T06:35:07Z</time>
      </trkpt>
      <trkpt lat="43.55162" lon="1.28528">
        <ele>168.2</ele>
        <time>2024-08-01T06:35:08Z</time>
      </trkpt>
      <trkpt lat="43.55156" lon="1.28525">
        <ele>168.2</ele>
        <time>2024-08-01T06:35:09Z</time>
      </trkpt>
      <trkpt lat="43.55151" lon="1.28521">
        <ele>168.2</ele>
        <time>2024-08-01T06:35:10Z</time>
      </trkpt>
      <trkpt lat="43.55145" lon="1.28516">
        <ele>168.2</ele>
        <time>2024-08-01T06:35:11Z</time>
      </trkpt>
      <trkpt lat="43.5514" lon="1.28512">
        <ele>168.2</ele>
        <time>2024-08-01T06:35:12Z</time>
      </trkpt>
      <trkpt lat="43.55134" lon="1.28508">
        <ele>168.2</ele>
        <time>2024-08-01T06:35:13Z</time>
      </trkpt>
      <trkpt lat="43.55129" lon="1.28504">
        <ele>168.4</ele>
        <time>2024-08-01T06:35:14Z</time>
      </trkpt>
      <trkpt lat="43.55124" lon="1.285">
        <ele>168.4</ele>
        <time>2024-08-01T06:35:15Z</time>
      </trkpt>
      <trkpt lat="43.5512" lon="1.28497">
        <ele>168.4</ele>
        <time>2024-08-01T06:35:16Z</time>
      </trkpt>
      <trkpt lat="43.55115" lon="1.28493">
        <ele>168.6</ele>
        <time>2024-08-01T06:35:17Z</time>
      </trkpt>
      <trkpt lat="43.5511" lon="1.2849">
        <ele>168.6</ele>
        <time>2024-08-01T06:35:18Z</time>
      </trkpt>
      <trkpt lat="43.55105" lon="1.28487">
        <ele>168.6</ele>
        <time>2024-08-01T06:35:19Z</time>
      </trkpt>
      <trkpt lat="43.55101" lon="1.28484">
        <ele>168.6</ele>
        <time>2024-08-01T06:35:20Z</time>
      </trkpt>
      <trkpt lat="43.55096" lon="1.28482">
        <ele>168.6</ele>
        <time>2024-08-01T06:35:21Z</time>
      </trkpt>
      <trkpt lat="43.55091" lon="1.28481">
        <ele>168.6</ele>
        <time>2024-08-01T06:35:22Z</time>
      </trkpt>
      <trkpt lat="43.55086" lon="1.2848">
        <ele>168.6</ele>
        <time>2024-08-01T06:35:23Z</time>
      </trkpt>
      <trkpt lat="43.55082" lon="1.28479">
        <ele>168.6</ele>
        <time>2024-08-01T06:35:24Z</time>
      </trkpt>
      <trkpt lat="43.55077" lon="1.28478">
        <ele>168.6</ele>
        <time>2024-08-01T06:35:25Z</time>
      </trkpt>
      <trkpt lat="43.55072" lon="1.28478">
        <ele>168.6</ele>
        <time>2024-08-01T06:35:26Z</time>
      </trkpt>
      <trkpt lat="43.55067" lon="1.28478">
        <ele>168.6</ele>
        <time>2024-08-01T06:35:27Z</time>
      </trkpt>
      <trkpt lat="43.55061" lon="1.28478">
        <ele>168.6</ele>
        <time>2024-08-01T06:35:28Z</time>
      </trkpt>
      <trkpt lat="43.55056" lon="1.28477">
        <ele>168.6</ele>
        <time>2024-08-01T06:35:29Z</time>
      </trkpt>
      <trkpt lat="43.5505" lon="1.28477">
        <ele>168.6</ele>
        <time>2024-08-01T06:35:30Z</time>
      </trkpt>
      <trkpt lat="43.55045" lon="1.28476">
        <ele>168.6</ele>
        <time>2024-08-01T06:35:31Z</time>
      </trkpt>
      <trkpt lat="43.55039" lon="1.28475">
        <ele>168.6</ele>
        <time>2024-08-01T06:35:32Z</time>
      </trkpt>
      <trkpt lat="43.55034" lon="1.28474">
        <ele>168.6</ele>
        <time>2024-08-01T06:35:33Z</time>
      </trkpt>
      <trkpt lat="43.55028" lon="1.28473">
        <ele>168.6</ele>
        <time>2024-08-01T06:35:34Z</time>
      </trkpt>
      <trkpt lat="43.55023" lon="1.28472">
        <ele>168.6</ele>
        <time>2024-08-01T06:35:35Z</time>
      </trkpt>
      <trkpt lat="43.55017" lon="1.28471">
        <ele>168.6</ele>
        <time>2024-08-01T06:35:36Z</time>
      </trkpt>
      <trkpt lat="43.55012" lon="1.2847">
        <ele>168.6</ele>
        <time>2024-08-01T06:35:37Z</time>
      </trkpt>
      <trkpt lat="43.55006" lon="1.2847">
        <ele>168.8</ele>
        <time>2024-08-01T06:35:38Z</time>
      </trkpt>
      <trkpt lat="43.55001" lon="1.28469">
        <ele>168.8</ele>
        <time>2024-08-01T06:35:39Z</time>
      </trkpt>
      <trkpt lat="43.54995" lon="1.28468">
        <ele>168.8</ele>
        <time>2024-08-01T06:35:40Z</time>
      </trkpt>
      <trkpt lat="43.5499" lon="1.28467">
        <ele>168.8</ele>
        <time>2024-08-01T06:35:41Z</time>
      </trkpt>
      <trkpt lat="43.54984" lon="1.28466">
        <ele>168.8</ele>
        <time>2024-08-01T06:35:42Z</time>
      </trkpt>
      <trkpt lat="43.54979" lon="1.28465">
        <ele>169</ele>
        <time>2024-08-01T06:35:43Z</time>
      </trkpt>
      <trkpt lat="43.54973" lon="1.28464">
        <ele>169</ele>
        <time>2024-08-01T06:35:44Z</time>
      </trkpt>
      <trkpt lat="43.54967" lon="1.28463">
        <ele>169</ele>
        <time>2024-08-01T06:35:45Z</time>
      </trkpt>
      <trkpt lat="43.54961" lon="1.28462">
        <ele>169</ele>
        <time>2024-08-01T06:35:46Z</time>
      </trkpt>
      <trkpt lat="43.54956" lon="1.28461">
        <ele>169</ele>
        <time>2024-08-01T06:35:47Z</time>
      </trkpt>
      <trkpt lat="43.5495" lon="1.2846">
        <ele>169</ele>
        <time>2024-08-01T06:35:48Z</time>
      </trkpt>
      <trkpt lat="43.54944" lon="1.28459">
        <ele>169</ele>
        <time>2024-08-01T06:35:49Z</time>
      </trkpt>
      <trkpt lat="43.54938" lon="1.28458">
        <ele>169.2</ele>
        <time>2024-08-01T06:35:50Z</time>
      </trkpt>
      <trkpt lat="43.54932" lon="1.28457">
        <ele>169.2</ele>
        <time>2024-08-01T06:35:51Z</time>
      </trkpt>
      <trkpt lat="43.54926" lon="1.28456">
        <ele>169.2</ele>
        <time>2024-08-01T06:35:52Z</time>
      </trkpt>
      <trkpt lat="43.54921" lon="1.28455">
        <ele>169.2</ele>
        <time>2024-08-01T06:35:53Z</time>
      </trkpt>
      <trkpt lat="43.54915" lon="1.28453">
        <ele>169.2</ele>
        <time>2024-08-01T06:35:54Z</time>
      </trkpt>
      <trkpt lat="43.54909" lon="1.28452">
        <ele>169.2</ele>
        <time>2024-08-01T06:35:55Z</time>
      </trkpt>
      <trkpt lat="43.54903" lon="1.28451">
        <ele>169.2</ele>
        <time>2024-08-01T06:35:56Z</time>
      </trkpt>
      <trkpt lat="43.54898" lon="1.28449">
        <ele>169.2</ele>
        <time>2024-08-01T06:35:57Z</time>
      </trkpt>
      <trkpt lat="43.54892" lon="1.28448">
        <ele>169.2</ele>
        <time>2024-08-01T06:35:58Z</time>
      </trkpt>
      <trkpt lat="43.54886" lon="1.28447">
        <ele>169.2</ele>
        <time>2024-08-01T06:35:59Z</time>
      </trkpt>
      <trkpt lat="43.5488" lon="1.28446">
        <ele>169.2</ele>
        <time>2024-08-01T06:36:00Z</time>
      </trkpt>
      <trkpt lat="43.54874" lon="1.28445">
        <ele>169.2</ele>
        <time>2024-08-01T06:36:01Z</time>
      </trkpt>
      <trkpt lat="43.54868" lon="1.28444">
        <ele>169.2</ele>
        <time>2024-08-01T06:36:02Z</time>
      </trkpt>
      <trkpt lat="43.54862" lon="1.28442">
        <ele>169.2</ele>
        <time>2024-08-01T06:36:03Z</time>
      </trkpt>
      <trkpt lat="43.54856" lon="1.28441">
        <ele>169.4</ele>
        <time>2024-08-01T06:36:04Z</time>
      </trkpt>
      <trkpt lat="43.5485" lon="1.28439">
        <ele>169.4</ele>
        <time>2024-08-01T06:36:05Z</time>
      </trkpt>
      <trkpt lat="43.54844" lon="1.28437">
        <ele>169.4</ele>
        <time>2024-08-01T06:36:06Z</time>
      </trkpt>
      <trkpt lat="43.54839" lon="1.28435">
        <ele>169.4</ele>
        <time>2024-08-01T06:36:07Z</time>
      </trkpt>
      <trkpt lat="43.54833" lon="1.28433">
        <ele>169.4</ele>
        <time>2024-08-01T06:36:08Z</time>
      </trkpt>
      <trkpt lat="43.54828" lon="1.28432">
        <ele>169.4</ele>
        <time>2024-08-01T06:36:09Z</time>
      </trkpt>
      <trkpt lat="43.54823" lon="1.28431">
        <ele>169.4</ele>
        <time>2024-08-01T06:36:10Z</time>
      </trkpt>
      <trkpt lat="43.54818" lon="1.28429">
        <ele>169.6</ele>
        <time>2024-08-01T06:36:11Z</time>
      </trkpt>
      <trkpt lat="43.54813" lon="1.28428">
        <ele>169.6</ele>
        <time>2024-08-01T06:36:12Z</time>
      </trkpt>
      <trkpt lat="43.54808" lon="1.28427">
        <ele>169.6</ele>
        <time>2024-08-01T06:36:13Z</time>
      </trkpt>
      <trkpt lat="43.54804" lon="1.28426">
        <ele>169.8</ele>
        <time>2024-08-01T06:36:14Z</time>
      </trkpt>
      <trkpt lat="43.54799" lon="1.28425">
        <ele>169.8</ele>
        <time>2024-08-01T06:36:15Z</time>
      </trkpt>
      <trkpt lat="43.54794" lon="1.28424">
        <ele>169.8</ele>
        <time>2024-08-01T06:36:16Z</time>
      </trkpt>
      <trkpt lat="43.54789" lon="1.28424">
        <ele>169.6</ele>
        <time>2024-08-01T06:36:17Z</time>
      </trkpt>
      <trkpt lat="43.54784" lon="1.28423">
        <ele>169.6</ele>
        <time>2024-08-01T06:36:18Z</time>
      </trkpt>
      <trkpt lat="43.54779" lon="1.28422">
        <ele>169.8</ele>
        <time>2024-08-01T06:36:19Z</time>
      </trkpt>
      <trkpt lat="43.54774" lon="1.28421">
        <ele>169.8</ele>
        <time>2024-08-01T06:36:20Z</time>
      </trkpt>
      <trkpt lat="43.54768" lon="1.2842">
        <ele>169.8</ele>
        <time>2024-08-01T06:36:21Z</time>
      </trkpt>
      <trkpt lat="43.54762" lon="1.28418">
        <ele>169.6</ele>
        <time>2024-08-01T06:36:22Z</time>
      </trkpt>
      <trkpt lat="43.54756" lon="1.28417">
        <ele>169.6</ele>
        <time>2024-08-01T06:36:23Z</time>
      </trkpt>
      <trkpt lat="43.5475" lon="1.28416">
        <ele>169.6</ele>
        <time>2024-08-01T06:36:24Z</time>
      </trkpt>
      <trkpt lat="43.54744" lon="1.28415">
        <ele>169.4</ele>
        <time>2024-08-01T06:36:25Z</time>
      </trkpt>
      <trkpt lat="43.54738" lon="1.28414">
        <ele>169.4</ele>
        <time>2024-08-01T06:36:26Z</time>
      </trkpt>
      <trkpt lat="43.54733" lon="1.28413">
        <ele>169.4</ele>
        <time>2024-08-01T06:36:27Z</time>
      </trkpt>
      <trkpt lat="43.54727" lon="1.28411">
        <ele>169.4</ele>
        <time>2024-08-01T06:36:28Z</time>
      </trkpt>
      <trkpt lat="43.54721" lon="1.2841">
        <ele>169.2</ele>
        <time>2024-08-01T06:36:29Z</time>
      </trkpt>
      <trkpt lat="43.54715" lon="1.28408">
        <ele>169.2</ele>
        <time>2024-08-01T06:36:30Z</time>
      </trkpt>
      <trkpt lat="43.54709" lon="1.28406">
        <ele>169.2</ele>
        <time>2024-08-01T06:36:31Z</time>
      </trkpt>
      <trkpt lat="43.54704" lon="1.28405">
        <ele>169.2</ele>
        <time>2024-08-01T06:36:32Z</time>
      </trkpt>
      <trkpt lat="43.54698" lon="1.28402">
        <ele>169.2</ele>
        <time>2024-08-01T06:36:33Z</time>
      </trkpt>
      <trkpt lat="43.54692" lon="1.28399">
        <ele>169</ele>
        <time>2024-08-01T06:36:34Z</time>
      </trkpt>
      <trkpt lat="43.54686" lon="1.28397">
        <ele>169</ele>
        <time>2024-08-01T06:36:35Z</time>
      </trkpt>
      <trkpt lat="43.5468" lon="1.28393">
        <ele>169</ele>
        <time>2024-08-01T06:36:36Z</time>
      </trkpt>
      <trkpt lat="43.54675" lon="1.2839">
        <ele>169</ele>
        <time>2024-08-01T06:36:37Z</time>
      </trkpt>
      <trkpt lat="43.54669" lon="1.28387">
        <ele>169</ele>
        <time>2024-08-01T06:36:38Z</time>
      </trkpt>
      <trkpt lat="43.54664" lon="1.28383">
        <ele>169</ele>
        <time>2024-08-01T06:36:39Z</time>
      </trkpt>
      <trkpt lat="43.54658" lon="1.28379">
        <ele>169</ele>
        <time>2024-08-01T06:36:40Z</time>
      </trkpt>
      <trkpt lat="43.54653" lon="1.28376">
        <ele>169</ele>
        <time>2024-08-01T06:36:41Z</time>
      </trkpt>
      <trkpt lat="43.54647" lon="1.28372">
        <ele>169</ele>
        <time>2024-08-01T06:36:42Z</time>
      </trkpt>
      <trkpt lat="43.54642" lon="1.28367">
        <ele>169</ele>
        <time>2024-08-01T06:36:43Z</time>
      </trkpt>
      <trkpt lat="43.54637" lon="1.28362">
        <ele>169</ele>
        <time>2024-08-01T06:36:44Z</time>
      </trkpt>
      <trkpt lat="43.54632" lon="1.28357">
        <ele>169</ele>
        <time>2024-08-01T06:36:45Z</time>
      </trkpt>
      <trkpt lat="43.54628" lon="1.28351">
        <ele>169.2</ele>
        <time>2024-08-01T06:36:46Z</time>
      </trkpt>
      <trkpt lat="43.54624" lon="1.28344">
        <ele>169.2</ele>
        <time>2024-08-01T06:36:47Z</time>
      </trkpt>
      <trkpt lat="43.5462" lon="1.28338">
        <ele>169.2</ele>
        <time>2024-08-01T06:36:48Z</time>
      </trkpt>
      <trkpt lat="43.54617" lon="1.28331">
        <ele>169.2</ele>
        <time>2024-08-01T06:36:49Z</time>
      </trkpt>
      <trkpt lat="43.54613" lon="1.28325">
        <ele>169.2</ele>
        <time>2024-08-01T06:36:50Z</time>
      </trkpt>
      <trkpt lat="43.5461" lon="1.28318">
        <ele>169.2</ele>
        <time>2024-08-01T06:36:51Z</time>
      </trkpt>
      <trkpt lat="43.54606" lon="1.28312">
        <ele>169.2</ele>
        <time>2024-08-01T06:36:52Z</time>
      </trkpt>
      <trkpt lat="43.54602" lon="1.28305">
        <ele>169.2</ele>
        <time>2024-08-01T06:36:53Z</time>
      </trkpt>
      <trkpt lat="43.54598" lon="1.28299">
        <ele>169.2</ele>
        <time>2024-08-01T06:36:54Z</time>
      </trkpt>
      <trkpt lat="43.54594" lon="1.28292">
        <ele>169.2</ele>
        <time>2024-08-01T06:36:55Z</time>
      </trkpt>
      <trkpt lat="43.5459" lon="1.28286">
        <ele>169.4</ele>
        <time>2024-08-01T06:36:56Z</time>
      </trkpt>
      <trkpt lat="43.54587" lon="1.28279">
        <ele>169.4</ele>
        <time>2024-08-01T06:36:57Z</time>
      </trkpt>
      <trkpt lat="43.54583" lon="1.28273">
        <ele>169.4</ele>
        <time>2024-08-01T06:36:58Z</time>
      </trkpt>
      <trkpt lat="43.54579" lon="1.28266">
        <ele>169.6</ele>
        <time>2024-08-01T06:36:59Z</time>
      </trkpt>
      <trkpt lat="43.54575" lon="1.2826">
        <ele>169.6</ele>
        <time>2024-08-01T06:37:00Z</time>
      </trkpt>
      <trkpt lat="43.54571" lon="1.28253">
        <ele>169.6</ele>
        <time>2024-08-01T06:37:01Z</time>
      </trkpt>
      <trkpt lat="43.54567" lon="1.28247">
        <ele>169.6</ele>
        <time>2024-08-01T06:37:02Z</time>
      </trkpt>
      <trkpt lat="43.54563" lon="1.28241">
        <ele>169.6</ele>
        <time>2024-08-01T06:37:03Z</time>
      </trkpt>
      <trkpt lat="43.54559" lon="1.28234">
        <ele>169.6</ele>
        <time>2024-08-01T06:37:04Z</time>
      </trkpt>
      <trkpt lat="43.54555" lon="1.28228">
        <ele>169.6</ele>
        <time>2024-08-01T06:37:05Z</time>
      </trkpt>
      <trkpt lat="43.54551" lon="1.28222">
        <ele>169.6</ele>
        <time>2024-08-01T06:37:06Z</time>
      </trkpt>
      <trkpt lat="43.54547" lon="1.28216">
        <ele>169.6</ele>
        <time>2024-08-01T06:37:07Z</time>
      </trkpt>
      <trkpt lat="43.54543" lon="1.2821">
        <ele>169.6</ele>
        <time>2024-08-01T06:37:08Z</time>
      </trkpt>
      <trkpt lat="43.54539" lon="1.28204">
        <ele>169.6</ele>
        <time>2024-08-01T06:37:09Z</time>
      </trkpt>
      <trkpt lat="43.54535" lon="1.28199">
        <ele>169.4</ele>
        <time>2024-08-01T06:37:10Z</time>
      </trkpt>
      <trkpt lat="43.54531" lon="1.28193">
        <ele>169.6</ele>
        <time>2024-08-01T06:37:11Z</time>
      </trkpt>
      <trkpt lat="43.54527" lon="1.28187">
        <ele>169.6</ele>
        <time>2024-08-01T06:37:12Z</time>
      </trkpt>
      <trkpt lat="43.54523" lon="1.28182">
        <ele>169.6</ele>
        <time>2024-08-01T06:37:13Z</time>
      </trkpt>
      <trkpt lat="43.54518" lon="1.28176">
        <ele>169.6</ele>
        <time>2024-08-01T06:37:14Z</time>
      </trkpt>
      <trkpt lat="43.54514" lon="1.2817">
        <ele>169.6</ele>
        <time>2024-08-01T06:37:15Z</time>
      </trkpt>
      <trkpt lat="43.5451" lon="1.28164">
        <ele>169.6</ele>
        <time>2024-08-01T06:37:16Z</time>
      </trkpt>
      <trkpt lat="43.54506" lon="1.28159">
        <ele>169.6</ele>
        <time>2024-08-01T06:37:17Z</time>
      </trkpt>
      <trkpt lat="43.54501" lon="1.28153">
        <ele>169.6</ele>
        <time>2024-08-01T06:37:18Z</time>
      </trkpt>
      <trkpt lat="43.54497" lon="1.28147">
        <ele>169.6</ele>
        <time>2024-08-01T06:37:19Z</time>
      </trkpt>
      <trkpt lat="43.54493" lon="1.2814">
        <ele>169.6</ele>
        <time>2024-08-01T06:37:20Z</time>
      </trkpt>
      <trkpt lat="43.54488" lon="1.28134">
        <ele>169.6</ele>
        <time>2024-08-01T06:37:21Z</time>
      </trkpt>
      <trkpt lat="43.54484" lon="1.28128">
        <ele>169.6</ele>
        <time>2024-08-01T06:37:22Z</time>
      </trkpt>
      <trkpt lat="43.5448" lon="1.28122">
        <ele>169.6</ele>
        <time>2024-08-01T06:37:23Z</time>
      </trkpt>
      <trkpt lat="43.54475" lon="1.28116">
        <ele>169.6</ele>
        <time>2024-08-01T06:37:24Z</time>
      </trkpt>
      <trkpt lat="43.54471" lon="1.2811">
        <ele>169.6</ele>
        <time>2024-08-01T06:37:25Z</time>
      </trkpt>
      <trkpt lat="43.54467" lon="1.28104">
        <ele>169.6</ele>
        <time>2024-08-01T06:37:26Z</time>
      </trkpt>
      <trkpt lat="43.54463" lon="1.28098">
        <ele>169.6</ele>
        <time>2024-08-01T06:37:27Z</time>
      </trkpt>
      <trkpt lat="43.54459" lon="1.28092">
        <ele>169.8</ele>
        <time>2024-08-01T06:37:28Z</time>
      </trkpt>
      <trkpt lat="43.54455" lon="1.28086">
        <ele>169.8</ele>
        <time>2024-08-01T06:37:29Z</time>
      </trkpt>
      <trkpt lat="43.54451" lon="1.2808">
        <ele>169.8</ele>
        <time>2024-08-01T06:37:30Z</time>
      </trkpt>
      <trkpt lat="43.54447" lon="1.28074">
        <ele>169.8</ele>
        <time>2024-08-01T06:37:31Z</time>
      </trkpt>
      <trkpt lat="43.54443" lon="1.28068">
        <ele>169.8</ele>
        <time>2024-08-01T06:37:32Z</time>
      </trkpt>
      <trkpt lat="43.5444" lon="1.28062">
        <ele>169.8</ele>
        <time>2024-08-01T06:37:33Z</time>
      </trkpt>
      <trkpt lat="43.54436" lon="1.28055">
        <ele>169.8</ele>
        <time>2024-08-01T06:37:34Z</time>
      </trkpt>
      <trkpt lat="43.54432" lon="1.28049">
        <ele>169.8</ele>
        <time>2024-08-01T06:37:35Z</time>
      </trkpt>
      <trkpt lat="43.54429" lon="1.28042">
        <ele>169.8</ele>
        <time>2024-08-01T06:37:36Z</time>
      </trkpt>
      <trkpt lat="43.54425" lon="1.28036">
        <ele>169.8</ele>
        <time>2024-08-01T06:37:37Z</time>
      </trkpt>
      <trkpt lat="43.54421" lon="1.28029">
        <ele>169.8</ele>
        <time>2024-08-01T06:37:38Z</time>
      </trkpt>
      <trkpt lat="43.54418" lon="1.28022">
        <ele>169.8</ele>
        <time>2024-08-01T06:37:39Z</time>
      </trkpt>
      <trkpt lat="43.54414" lon="1.28015">
        <ele>169.8</ele>
        <time>2024-08-01T06:37:40Z</time>
      </trkpt>
      <trkpt lat="43.5441" lon="1.28009">
        <ele>169.8</ele>
        <time>2024-08-01T06:37:41Z</time>
      </trkpt>
      <trkpt lat="43.54407" lon="1.28002">
        <ele>169.8</ele>
        <time>2024-08-01T06:37:42Z</time>
      </trkpt>
      <trkpt lat="43.54403" lon="1.27995">
        <ele>169.8</ele>
        <time>2024-08-01T06:37:43Z</time>
      </trkpt>
      <trkpt lat="43.544" lon="1.27988">
        <ele>169.8</ele>
        <time>2024-08-01T06:37:44Z</time>
      </trkpt>
      <trkpt lat="43.54396" lon="1.27981">
        <ele>169.8</ele>
        <time>2024-08-01T06:37:45Z</time>
      </trkpt>
      <trkpt lat="43.54393" lon="1.27974">
        <ele>169.8</ele>
        <time>2024-08-01T06:37:46Z</time>
      </trkpt>
      <trkpt lat="43.54389" lon="1.27968">
        <ele>169.8</ele>
        <time>2024-08-01T06:37:47Z</time>
      </trkpt>
      <trkpt lat="43.54386" lon="1.27961">
        <ele>169.8</ele>
        <time>2024-08-01T06:37:48Z</time>
      </trkpt>
      <trkpt lat="43.54383" lon="1.27954">
        <ele>169.8</ele>
        <time>2024-08-01T06:37:49Z</time>
      </trkpt>
      <trkpt lat="43.54379" lon="1.27947">
        <ele>169.8</ele>
        <time>2024-08-01T06:37:50Z</time>
      </trkpt>
      <trkpt lat="43.54376" lon="1.2794">
        <ele>169.8</ele>
        <time>2024-08-01T06:37:51Z</time>
      </trkpt>
      <trkpt lat="43.54373" lon="1.27933">
        <ele>169.8</ele>
        <time>2024-08-01T06:37:52Z</time>
      </trkpt>
      <trkpt lat="43.54369" lon="1.27926">
        <ele>170</ele>
        <time>2024-08-01T06:37:53Z</time>
      </trkpt>
      <trkpt lat="43.54366" lon="1.27919">
        <ele>170</ele>
        <time>2024-08-01T06:37:54Z</time>
      </trkpt>
      <trkpt lat="43.54363" lon="1.27912">
        <ele>170</ele>
        <time>2024-08-01T06:37:55Z</time>
      </trkpt>
      <trkpt lat="43.54359" lon="1.27905">
        <ele>170</ele>
        <time>2024-08-01T06:37:56Z</time>
      </trkpt>
      <trkpt lat="43.54356" lon="1.27898">
        <ele>170</ele>
        <time>2024-08-01T06:37:57Z</time>
      </trkpt>
      <trkpt lat="43.54352" lon="1.27891">
        <ele>170</ele>
        <time>2024-08-01T06:37:58Z</time>
      </trkpt>
      <trkpt lat="43.54349" lon="1.27883">
        <ele>170</ele>
        <time>2024-08-01T06:37:59Z</time>
      </trkpt>
      <trkpt lat="43.54346" lon="1.27876">
        <ele>170.2</ele>
        <time>2024-08-01T06:38:00Z</time>
      </trkpt>
      <trkpt lat="43.54342" lon="1.27868">
        <ele>170.2</ele>
        <time>2024-08-01T06:38:01Z</time>
      </trkpt>
      <trkpt lat="43.54339" lon="1.27861">
        <ele>170.2</ele>
        <time>2024-08-01T06:38:02Z</time>
      </trkpt>
      <trkpt lat="43.54336" lon="1.27853">
        <ele>170.2</ele>
        <time>2024-08-01T06:38:03Z</time>
      </trkpt>
      <trkpt lat="43.54332" lon="1.27846">
        <ele>170.2</ele>
        <time>2024-08-01T06:38:04Z</time>
      </trkpt>
      <trkpt lat="43.54329" lon="1.27838">
        <ele>170.2</ele>
        <time>2024-08-01T06:38:05Z</time>
      </trkpt>
      <trkpt lat="43.54326" lon="1.27831">
        <ele>170.2</ele>
        <time>2024-08-01T06:38:06Z</time>
      </trkpt>
      <trkpt lat="43.54322" lon="1.27823">
        <ele>170.4</ele>
        <time>2024-08-01T06:38:07Z</time>
      </trkpt>
      <trkpt lat="43.54319" lon="1.27816">
        <ele>170.4</ele>
        <time>2024-08-01T06:38:08Z</time>
      </trkpt>
      <trkpt lat="43.54316" lon="1.27809">
        <ele>170.4</ele>
        <time>2024-08-01T06:38:09Z</time>
      </trkpt>
      <trkpt lat="43.54314" lon="1.27802">
        <ele>170.4</ele>
        <time>2024-08-01T06:38:10Z</time>
      </trkpt>
      <trkpt lat="43.54311" lon="1.27795">
        <ele>170.4</ele>
        <time>2024-08-01T06:38:11Z</time>
      </trkpt>
      <trkpt lat="43.54308" lon="1.27788">
        <ele>170.4</ele>
        <time>2024-08-01T06:38:12Z</time>
      </trkpt>
      <trkpt lat="43.54305" lon="1.27781">
        <ele>170.4</ele>
        <time>2024-08-01T06:38:13Z</time>
      </trkpt>
      <trkpt lat="43.54303" lon="1.27773">
        <ele>170.4</ele>
        <time>2024-08-01T06:38:14Z</time>
      </trkpt>
      <trkpt lat="43.54301" lon="1.27766">
        <ele>170.4</ele>
        <time>2024-08-01T06:38:15Z</time>
      </trkpt>
      <trkpt lat="43.54299" lon="1.27758">
        <ele>170.6</ele>
        <time>2024-08-01T06:38:16Z</time>
      </trkpt>
      <trkpt lat="43.54297" lon="1.27751">
        <ele>170.6</ele>
        <time>2024-08-01T06:38:17Z</time>
      </trkpt>
      <trkpt lat="43.54296" lon="1.27743">
        <ele>170.6</ele>
        <time>2024-08-01T06:38:18Z</time>
      </trkpt>
      <trkpt lat="43.54294" lon="1.27735">
        <ele>170.6</ele>
        <time>2024-08-01T06:38:19Z</time>
      </trkpt>
      <trkpt lat="43.54293" lon="1.27727">
        <ele>170.6</ele>
        <time>2024-08-01T06:38:20Z</time>
      </trkpt>
      <trkpt lat="43.54292" lon="1.27719">
        <ele>170.6</ele>
        <time>2024-08-01T06:38:21Z</time>
      </trkpt>
      <trkpt lat="43.5429" lon="1.27711">
        <ele>170.6</ele>
        <time>2024-08-01T06:38:22Z</time>
      </trkpt>
      <trkpt lat="43.54289" lon="1.27703">
        <ele>170.8</ele>
        <time>2024-08-01T06:38:23Z</time>
      </trkpt>
      <trkpt lat="43.54287" lon="1.27695">
        <ele>170.8</ele>
        <time>2024-08-01T06:38:24Z</time>
      </trkpt>
      <trkpt lat="43.54286" lon="1.27687">
        <ele>170.8</ele>
        <time>2024-08-01T06:38:25Z</time>
      </trkpt>
      <trkpt lat="43.54284" lon="1.27679">
        <ele>170.8</ele>
        <time>2024-08-01T06:38:26Z</time>
      </trkpt>
      <trkpt lat="43.54283" lon="1.27672">
        <ele>170.8</ele>
        <time>2024-08-01T06:38:27Z</time>
      </trkpt>
      <trkpt lat="43.54281" lon="1.27664">
        <ele>171</ele>
        <time>2024-08-01T06:38:28Z</time>
      </trkpt>
      <trkpt lat="43.5428" lon="1.27656">
        <ele>171</ele>
        <time>2024-08-01T06:38:29Z</time>
      </trkpt>
      <trkpt lat="43.54279" lon="1.27649">
        <ele>171</ele>
        <time>2024-08-01T06:38:30Z</time>
      </trkpt>
      <trkpt lat="43.54277" lon="1.27641">
        <ele>171</ele>
        <time>2024-08-01T06:38:31Z</time>
      </trkpt>
      <trkpt lat="43.54276" lon="1.27634">
        <ele>171</ele>
        <time>2024-08-01T06:38:32Z</time>
      </trkpt>
      <trkpt lat="43.54275" lon="1.27626">
        <ele>171</ele>
        <time>2024-08-01T06:38:33Z</time>
      </trkpt>
      <trkpt lat="43.54273" lon="1.27619">
        <ele>171</ele>
        <time>2024-08-01T06:38:34Z</time>
      </trkpt>
      <trkpt lat="43.54272" lon="1.27612">
        <ele>171</ele>
        <time>2024-08-01T06:38:35Z</time>
      </trkpt>
      <trkpt lat="43.54271" lon="1.27605">
        <ele>171</ele>
        <time>2024-08-01T06:38:36Z</time>
      </trkpt>
      <trkpt lat="43.54269" lon="1.27598">
        <ele>171</ele>
        <time>2024-08-01T06:38:37Z</time>
      </trkpt>
      <trkpt lat="43.54268" lon="1.27591">
        <ele>171</ele>
        <time>2024-08-01T06:38:38Z</time>
      </trkpt>
      <trkpt lat="43.54267" lon="1.27583">
        <ele>171</ele>
        <time>2024-08-01T06:38:39Z</time>
      </trkpt>
      <trkpt lat="43.54266" lon="1.27576">
        <ele>171</ele>
        <time>2024-08-01T06:38:40Z</time>
      </trkpt>
      <trkpt lat="43.54264" lon="1.27568">
        <ele>171</ele>
        <time>2024-08-01T06:38:41Z</time>
      </trkpt>
      <trkpt lat="43.54262" lon="1.2756">
        <ele>171</ele>
        <time>2024-08-01T06:38:42Z</time>
      </trkpt>
      <trkpt lat="43.54261" lon="1.27552">
        <ele>171</ele>
        <time>2024-08-01T06:38:43Z</time>
      </trkpt>
      <trkpt lat="43.54259" lon="1.27545">
        <ele>171</ele>
        <time>2024-08-01T06:38:44Z</time>
      </trkpt>
      <trkpt lat="43.54256" lon="1.27537">
        <ele>171</ele>
        <time>2024-08-01T06:38:45Z</time>
      </trkpt>
      <trkpt lat="43.54254" lon="1.27529">
        <ele>171</ele>
        <time>2024-08-01T06:38:46Z</time>
      </trkpt>
      <trkpt lat="43.54251" lon="1.27522">
        <ele>171</ele>
        <time>2024-08-01T06:38:47Z</time>
      </trkpt>
      <trkpt lat="43.54248" lon="1.27515">
        <ele>171</ele>
        <time>2024-08-01T06:38:48Z</time>
      </trkpt>
      <trkpt lat="43.54245" lon="1.27508">
        <ele>171</ele>
        <time>2024-08-01T06:38:49Z</time>
      </trkpt>
      <trkpt lat="43.54242" lon="1.27501">
        <ele>171</ele>
        <time>2024-08-01T06:38:50Z</time>
      </trkpt>
      <trkpt lat="43.54239" lon="1.27495">
        <ele>171</ele>
        <time>2024-08-01T06:38:51Z</time>
      </trkpt>
      <trkpt lat="43.54236" lon="1.27489">
        <ele>171</ele>
        <time>2024-08-01T06:38:52Z</time>
      </trkpt>
      <trkpt lat="43.54232" lon="1.27483">
        <ele>171</ele>
        <time>2024-08-01T06:38:53Z</time>
      </trkpt>
      <trkpt lat="43.54229" lon="1.27477">
        <ele>171</ele>
        <time>2024-08-01T06:38:54Z</time>
      </trkpt>
      <trkpt lat="43.54226" lon="1.27471">
        <ele>171</ele>
        <time>2024-08-01T06:38:55Z</time>
      </trkpt>
      <trkpt lat="43.54223" lon="1.27466">
        <ele>171</ele>
        <time>2024-08-01T06:38:56Z</time>
      </trkpt>
      <trkpt lat="43.54219" lon="1.2746">
        <ele>171</ele>
        <time>2024-08-01T06:38:57Z</time>
      </trkpt>
      <trkpt lat="43.54216" lon="1.27454">
        <ele>171</ele>
        <time>2024-08-01T06:38:58Z</time>
      </trkpt>
      <trkpt lat="43.54212" lon="1.27449">
        <ele>171</ele>
        <time>2024-08-01T06:38:59Z</time>
      </trkpt>
      <trkpt lat="43.54209" lon="1.27443">
        <ele>171</ele>
        <time>2024-08-01T06:39:00Z</time>
      </trkpt>
      <trkpt lat="43.54205" lon="1.27437">
        <ele>171</ele>
        <time>2024-08-01T06:39:01Z</time>
      </trkpt>
      <trkpt lat="43.54202" lon="1.27431">
        <ele>171.2</ele>
        <time>2024-08-01T06:39:02Z</time>
      </trkpt>
      <trkpt lat="43.54198" lon="1.27425">
        <ele>171.2</ele>
        <time>2024-08-01T06:39:03Z</time>
      </trkpt>
      <trkpt lat="43.54194" lon="1.27419">
        <ele>171.2</ele>
        <time>2024-08-01T06:39:04Z</time>
      </trkpt>
      <trkpt lat="43.5419" lon="1.27413">
        <ele>171.2</ele>
        <time>2024-08-01T06:39:05Z</time>
      </trkpt>
      <trkpt lat="43.54186" lon="1.27406">
        <ele>171.2</ele>
        <time>2024-08-01T06:39:06Z</time>
      </trkpt>
      <trkpt lat="43.54182" lon="1.274">
        <ele>171.2</ele>
        <time>2024-08-01T06:39:07Z</time>
      </trkpt>
      <trkpt lat="43.54178" lon="1.27393">
        <ele>171.2</ele>
        <time>2024-08-01T06:39:08Z</time>
      </trkpt>
      <trkpt lat="43.54174" lon="1.27387">
        <ele>171.2</ele>
        <time>2024-08-01T06:39:09Z</time>
      </trkpt>
      <trkpt lat="43.5417" lon="1.27381">
        <ele>171.2</ele>
        <time>2024-08-01T06:39:10Z</time>
      </trkpt>
      <trkpt lat="43.54165" lon="1.27375">
        <ele>171.2</ele>
        <time>2024-08-01T06:39:11Z</time>
      </trkpt>
      <trkpt lat="43.54161" lon="1.27368">
        <ele>171.4</ele>
        <time>2024-08-01T06:39:12Z</time>
      </trkpt>
      <trkpt lat="43.54158" lon="1.27362">
        <ele>171.4</ele>
        <time>2024-08-01T06:39:13Z</time>
      </trkpt>
      <trkpt lat="43.54154" lon="1.27356">
        <ele>171.4</ele>
        <time>2024-08-01T06:39:14Z</time>
      </trkpt>
      <trkpt lat="43.5415" lon="1.2735">
        <ele>171.4</ele>
        <time>2024-08-01T06:39:15Z</time>
      </trkpt>
      <trkpt lat="43.54147" lon="1.27344">
        <ele>171.4</ele>
        <time>2024-08-01T06:39:16Z</time>
      </trkpt>
      <trkpt lat="43.54144" lon="1.27339">
        <ele>171.4</ele>
        <time>2024-08-01T06:39:17Z</time>
      </trkpt>
      <trkpt lat="43.54141" lon="1.27333">
        <ele>171.4</ele>
        <time>2024-08-01T06:39:18Z</time>
      </trkpt>
      <trkpt lat="43.54138" lon="1.27329">
        <ele>171.4</ele>
        <time>2024-08-01T06:39:19Z</time>
      </trkpt>
      <trkpt lat="43.54135" lon="1.27324">
        <ele>171.6</ele>
        <time>2024-08-01T06:39:20Z</time>
      </trkpt>
      <trkpt lat="43.54132" lon="1.2732">
        <ele>171.6</ele>
        <time>2024-08-01T06:39:21Z</time>
      </trkpt>
      <trkpt lat="43.5413" lon="1.27315">
        <ele>171.6</ele>
        <time>2024-08-01T06:39:22Z</time>
      </trkpt>
      <trkpt lat="43.54127" lon="1.2731">
        <ele>171.6</ele>
        <time>2024-08-01T06:39:23Z</time>
      </trkpt>
      <trkpt lat="43.54124" lon="1.27305">
        <ele>171.6</ele>
        <time>2024-08-01T06:39:24Z</time>
      </trkpt>
      <trkpt lat="43.54121" lon="1.27301">
        <ele>171.6</ele>
        <time>2024-08-01T06:39:25Z</time>
      </trkpt>
      <trkpt lat="43.54118" lon="1.27296">
        <ele>171.6</ele>
        <time>2024-08-01T06:39:26Z</time>
      </trkpt>
      <trkpt lat="43.54115" lon="1.27291">
        <ele>171.6</ele>
        <time>2024-08-01T06:39:27Z</time>
      </trkpt>
      <trkpt lat="43.54111" lon="1.27285">
        <ele>171.6</ele>
        <time>2024-08-01T06:39:28Z</time>
      </trkpt>
      <trkpt lat="43.54108" lon="1.2728">
        <ele>171.6</ele>
        <time>2024-08-01T06:39:29Z</time>
      </trkpt>
      <trkpt lat="43.54105" lon="1.27274">
        <ele>171.6</ele>
        <time>2024-08-01T06:39:30Z</time>
      </trkpt>
      <trkpt lat="43.54101" lon="1.27268">
        <ele>171.6</ele>
        <time>2024-08-01T06:39:31Z</time>
      </trkpt>
      <trkpt lat="43.54098" lon="1.27263">
        <ele>171.6</ele>
        <time>2024-08-01T06:39:32Z</time>
      </trkpt>
      <trkpt lat="43.54094" lon="1.27257">
        <ele>171.6</ele>
        <time>2024-08-01T06:39:33Z</time>
      </trkpt>
      <trkpt lat="43.54091" lon="1.27251">
        <ele>171.8</ele>
        <time>2024-08-01T06:39:34Z</time>
      </trkpt>
      <trkpt lat="43.54087" lon="1.27245">
        <ele>171.8</ele>
        <time>2024-08-01T06:39:35Z</time>
      </trkpt>
      <trkpt lat="43.54083" lon="1.27239">
        <ele>171.8</ele>
        <time>2024-08-01T06:39:36Z</time>
      </trkpt>
      <trkpt lat="43.54079" lon="1.27232">
        <ele>171.8</ele>
        <time>2024-08-01T06:39:37Z</time>
      </trkpt>
      <trkpt lat="43.54075" lon="1.27226">
        <ele>171.6</ele>
        <time>2024-08-01T06:39:38Z</time>
      </trkpt>
      <trkpt lat="43.54071" lon="1.27219">
        <ele>171.6</ele>
        <time>2024-08-01T06:39:39Z</time>
      </trkpt>
      <trkpt lat="43.54067" lon="1.27213">
        <ele>171.6</ele>
        <time>2024-08-01T06:39:40Z</time>
      </trkpt>
      <trkpt lat="43.54063" lon="1.27206">
        <ele>171.6</ele>
        <time>2024-08-01T06:39:41Z</time>
      </trkpt>
      <trkpt lat="43.54059" lon="1.272">
        <ele>171.6</ele>
        <time>2024-08-01T06:39:42Z</time>
      </trkpt>
      <trkpt lat="43.54054" lon="1.27193">
        <ele>171.6</ele>
        <time>2024-08-01T06:39:43Z</time>
      </trkpt>
      <trkpt lat="43.5405" lon="1.27187">
        <ele>171.6</ele>
        <time>2024-08-01T06:39:44Z</time>
      </trkpt>
      <trkpt lat="43.54045" lon="1.2718">
        <ele>171.6</ele>
        <time>2024-08-01T06:39:45Z</time>
      </trkpt>
      <trkpt lat="43.5404" lon="1.27174">
        <ele>171.6</ele>
        <time>2024-08-01T06:39:46Z</time>
      </trkpt>
      <trkpt lat="43.54036" lon="1.27168">
        <ele>171.6</ele>
        <time>2024-08-01T06:39:47Z</time>
      </trkpt>
      <trkpt lat="43.54031" lon="1.27162">
        <ele>171.6</ele>
        <time>2024-08-01T06:39:48Z</time>
      </trkpt>
      <trkpt lat="43.54026" lon="1.27156">
        <ele>171.6</ele>
        <time>2024-08-01T06:39:49Z</time>
      </trkpt>
      <trkpt lat="43.54022" lon="1.2715">
        <ele>171.8</ele>
        <time>2024-08-01T06:39:50Z</time>
      </trkpt>
      <trkpt lat="43.54017" lon="1.27144">
        <ele>171.8</ele>
        <time>2024-08-01T06:39:51Z</time>
      </trkpt>
      <trkpt lat="43.54012" lon="1.27138">
        <ele>171.8</ele>
        <time>2024-08-01T06:39:52Z</time>
      </trkpt>
      <trkpt lat="43.54007" lon="1.27132">
        <ele>171.8</ele>
        <time>2024-08-01T06:39:53Z</time>
      </trkpt>
      <trkpt lat="43.54002" lon="1.27126">
        <ele>171.8</ele>
        <time>2024-08-01T06:39:54Z</time>
      </trkpt>
      <trkpt lat="43.53998" lon="1.2712">
        <ele>172</ele>
        <time>2024-08-01T06:39:55Z</time>
      </trkpt>
      <trkpt lat="43.53993" lon="1.27115">
        <ele>172</ele>
        <time>2024-08-01T06:39:56Z</time>
      </trkpt>
      <trkpt lat="43.53988" lon="1.27109">
        <ele>172</ele>
        <time>2024-08-01T06:39:57Z</time>
      </trkpt>
      <trkpt lat="43.53984" lon="1.27103">
        <ele>172</ele>
        <time>2024-08-01T06:39:58Z</time>
      </trkpt>
      <trkpt lat="43.53979" lon="1.27097">
        <ele>172</ele>
        <time>2024-08-01T06:39:59Z</time>
      </trkpt>
      <trkpt lat="43.53975" lon="1.27091">
        <ele>172</ele>
        <time>2024-08-01T06:40:00Z</time>
      </trkpt>
      <trkpt lat="43.5397" lon="1.27085">
        <ele>172</ele>
        <time>2024-08-01T06:40:01Z</time>
      </trkpt>
      <trkpt lat="43.53965" lon="1.2708">
        <ele>172</ele>
        <time>2024-08-01T06:40:02Z</time>
      </trkpt>
      <trkpt lat="43.53961" lon="1.27074">
        <ele>172</ele>
        <time>2024-08-01T06:40:03Z</time>
      </trkpt>
      <trkpt lat="43.53957" lon="1.27069">
        <ele>172.2</ele>
        <time>2024-08-01T06:40:04Z</time>
      </trkpt>
      <trkpt lat="43.53953" lon="1.27064">
        <ele>172.2</ele>
        <time>2024-08-01T06:40:05Z</time>
      </trkpt>
      <trkpt lat="43.53947" lon="1.27057">
        <ele>172.2</ele>
        <time>2024-08-01T06:40:06Z</time>
      </trkpt>
      <trkpt lat="43.53942" lon="1.27051">
        <ele>172.2</ele>
        <time>2024-08-01T06:40:07Z</time>
      </trkpt>
      <trkpt lat="43.53938" lon="1.27045">
        <ele>172.2</ele>
        <time>2024-08-01T06:40:08Z</time>
      </trkpt>
      <trkpt lat="43.53934" lon="1.27041">
        <ele>172.2</ele>
        <time>2024-08-01T06:40:09Z</time>
      </trkpt>
      <trkpt lat="43.5393" lon="1.27035">
        <ele>172.2</ele>
        <time>2024-08-01T06:40:10Z</time>
      </trkpt>
      <trkpt lat="43.53924" lon="1.27028">
        <ele>172.2</ele>
        <time>2024-08-01T06:40:11Z</time>
      </trkpt>
      <trkpt lat="43.5392" lon="1.27023">
        <ele>172.2</ele>
        <time>2024-08-01T06:40:12Z</time>
      </trkpt>
      <trkpt lat="43.53915" lon="1.27017">
        <ele>172.2</ele>
        <time>2024-08-01T06:40:13Z</time>
      </trkpt>
      <trkpt lat="43.53912" lon="1.27012">
        <ele>172.2</ele>
        <time>2024-08-01T06:40:14Z</time>
      </trkpt>
      <trkpt lat="43.53907" lon="1.27006">
        <ele>172.2</ele>
        <time>2024-08-01T06:40:15Z</time>
      </trkpt>
      <trkpt lat="43.53902" lon="1.27">
        <ele>172.2</ele>
        <time>2024-08-01T06:40:16Z</time>
      </trkpt>
      <trkpt lat="43.53898" lon="1.26994">
        <ele>172.2</ele>
        <time>2024-08-01T06:40:17Z</time>
      </trkpt>
      <trkpt lat="43.53894" lon="1.26989">
        <ele>172.2</ele>
        <time>2024-08-01T06:40:18Z</time>
      </trkpt>
      <trkpt lat="43.53891" lon="1.26984">
        <ele>172.2</ele>
        <time>2024-08-01T06:40:19Z</time>
      </trkpt>
      <trkpt lat="43.53886" lon="1.26979">
        <ele>172.2</ele>
        <time>2024-08-01T06:40:20Z</time>
      </trkpt>
      <trkpt lat="43.53882" lon="1.26973">
        <ele>172.2</ele>
        <time>2024-08-01T06:40:21Z</time>
      </trkpt>
      <trkpt lat="43.53878" lon="1.26968">
        <ele>172.2</ele>
        <time>2024-08-01T06:40:22Z</time>
      </trkpt>
      <trkpt lat="43.53875" lon="1.26963">
        <ele>172.2</ele>
        <time>2024-08-01T06:40:23Z</time>
      </trkpt>
      <trkpt lat="43.53871" lon="1.26958">
        <ele>172.2</ele>
        <time>2024-08-01T06:40:24Z</time>
      </trkpt>
      <trkpt lat="43.53867" lon="1.26954">
        <ele>172.2</ele>
        <time>2024-08-01T06:40:25Z</time>
      </trkpt>
      <trkpt lat="43.53863" lon="1.26948">
        <ele>172.2</ele>
        <time>2024-08-01T06:40:26Z</time>
      </trkpt>
      <trkpt lat="43.53859" lon="1.26943">
        <ele>172.2</ele>
        <time>2024-08-01T06:40:27Z</time>
      </trkpt>
      <trkpt lat="43.53857" lon="1.26939">
        <ele>172.2</ele>
        <time>2024-08-01T06:40:28Z</time>
      </trkpt>
      <trkpt lat="43.53854" lon="1.26935">
        <ele>172.2</ele>
        <time>2024-08-01T06:40:29Z</time>
      </trkpt>
      <trkpt lat="43.53851" lon="1.2693">
        <ele>172.4</ele>
        <time>2024-08-01T06:40:30Z</time>
      </trkpt>
      <trkpt lat="43.53848" lon="1.26925">
        <ele>172.4</ele>
        <time>2024-08-01T06:40:31Z</time>
      </trkpt>
      <trkpt lat="43.53845" lon="1.2692">
        <ele>172.4</ele>
        <time>2024-08-01T06:40:32Z</time>
      </trkpt>
      <trkpt lat="43.53843" lon="1.26917">
        <ele>172.4</ele>
        <time>2024-08-01T06:40:33Z</time>
      </trkpt>
      <trkpt lat="43.53841" lon="1.26912">
        <ele>172.4</ele>
        <time>2024-08-01T06:40:34Z</time>
      </trkpt>
      <trkpt lat="43.53839" lon="1.26909">
        <ele>172.4</ele>
        <time>2024-08-01T06:40:35Z</time>
      </trkpt>
      <trkpt lat="43.53837" lon="1.26905">
        <ele>172.4</ele>
        <time>2024-08-01T06:40:36Z</time>
      </trkpt>
      <trkpt lat="43.53835" lon="1.26901">
        <ele>172.4</ele>
        <time>2024-08-01T06:40:37Z</time>
      </trkpt>
      <trkpt lat="43.53834" lon="1.26898">
        <ele>172.4</ele>
        <time>2024-08-01T06:40:38Z</time>
      </trkpt>
      <trkpt lat="43.53832" lon="1.26894">
        <ele>172.4</ele>
        <time>2024-08-01T06:40:39Z</time>
      </trkpt>
      <trkpt lat="43.53829" lon="1.26889">
        <ele>172.4</ele>
        <time>2024-08-01T06:40:40Z</time>
      </trkpt>
      <trkpt lat="43.53826" lon="1.26884">
        <ele>172.4</ele>
        <time>2024-08-01T06:40:41Z</time>
      </trkpt>
      <trkpt lat="43.53824" lon="1.26879">
        <ele>172.4</ele>
        <time>2024-08-01T06:40:42Z</time>
      </trkpt>
      <trkpt lat="43.53822" lon="1.26874">
        <ele>172.4</ele>
        <time>2024-08-01T06:40:43Z</time>
      </trkpt>
      <trkpt lat="43.53819" lon="1.26869">
        <ele>172.4</ele>
        <time>2024-08-01T06:40:44Z</time>
      </trkpt>
      <trkpt lat="43.53815" lon="1.26865">
        <ele>172.4</ele>
        <time>2024-08-01T06:40:45Z</time>
      </trkpt>
      <trkpt lat="43.53811" lon="1.26864">
        <ele>172.4</ele>
        <time>2024-08-01T06:40:46Z</time>
      </trkpt>
      <trkpt lat="43.53807" lon="1.26867">
        <ele>172.4</ele>
        <time>2024-08-01T06:40:47Z</time>
      </trkpt>
      <trkpt lat="43.53805" lon="1.26871">
        <ele>172.6</ele>
        <time>2024-08-01T06:40:48Z</time>
      </trkpt>
      <trkpt lat="43.53803" lon="1.26876">
        <ele>172.6</ele>
        <time>2024-08-01T06:40:49Z</time>
      </trkpt>
      <trkpt lat="43.53801" lon="1.26882">
        <ele>172.6</ele>
        <time>2024-08-01T06:40:50Z</time>
      </trkpt>
      <trkpt lat="43.53799" lon="1.2689">
        <ele>172.6</ele>
        <time>2024-08-01T06:40:51Z</time>
      </trkpt>
      <trkpt lat="43.53798" lon="1.26896">
        <ele>172.6</ele>
        <time>2024-08-01T06:40:52Z</time>
      </trkpt>
      <trkpt lat="43.53796" lon="1.26903">
        <ele>172.6</ele>
        <time>2024-08-01T06:40:53Z</time>
      </trkpt>
      <trkpt lat="43.53794" lon="1.2691">
        <ele>172.6</ele>
        <time>2024-08-01T06:40:54Z</time>
      </trkpt>
      <trkpt lat="43.53792" lon="1.26919">
        <ele>172.6</ele>
        <time>2024-08-01T06:40:55Z</time>
      </trkpt>
      <trkpt lat="43.5379" lon="1.26927">
        <ele>172.6</ele>
        <time>2024-08-01T06:40:56Z</time>
      </trkpt>
      <trkpt lat="43.53788" lon="1.26933">
        <ele>172.6</ele>
        <time>2024-08-01T06:40:57Z</time>
      </trkpt>
      <trkpt lat="43.53786" lon="1.26941">
        <ele>172.6</ele>
        <time>2024-08-01T06:40:58Z</time>
      </trkpt>
      <trkpt lat="43.53784" lon="1.26949">
        <ele>172.6</ele>
        <time>2024-08-01T06:40:59Z</time>
      </trkpt>
      <trkpt lat="43.53781" lon="1.26959">
        <ele>172.6</ele>
        <time>2024-08-01T06:41:00Z</time>
      </trkpt>
      <trkpt lat="43.53779" lon="1.26968">
        <ele>172.6</ele>
        <time>2024-08-01T06:41:01Z</time>
      </trkpt>
      <trkpt lat="43.53777" lon="1.26974">
        <ele>172.4</ele>
        <time>2024-08-01T06:41:02Z</time>
      </trkpt>
      <trkpt lat="43.53775" lon="1.26983">
        <ele>172.4</ele>
        <time>2024-08-01T06:41:03Z</time>
      </trkpt>
      <trkpt lat="43.53772" lon="1.26993">
        <ele>172.4</ele>
        <time>2024-08-01T06:41:04Z</time>
      </trkpt>
      <trkpt lat="43.5377" lon="1.27002">
        <ele>172.4</ele>
        <time>2024-08-01T06:41:05Z</time>
      </trkpt>
      <trkpt lat="43.53768" lon="1.2701">
        <ele>172.4</ele>
        <time>2024-08-01T06:41:06Z</time>
      </trkpt>
      <trkpt lat="43.53766" lon="1.27017">
        <ele>172.4</ele>
        <time>2024-08-01T06:41:07Z</time>
      </trkpt>
      <trkpt lat="43.53763" lon="1.27025">
        <ele>172.4</ele>
        <time>2024-08-01T06:41:08Z</time>
      </trkpt>
      <trkpt lat="43.53761" lon="1.27035">
        <ele>172.4</ele>
        <time>2024-08-01T06:41:09Z</time>
      </trkpt>
      <trkpt lat="43.53759" lon="1.27043">
        <ele>172.4</ele>
        <time>2024-08-01T06:41:10Z</time>
      </trkpt>
      <trkpt lat="43.53757" lon="1.27049">
        <ele>172.4</ele>
        <time>2024-08-01T06:41:11Z</time>
      </trkpt>
      <trkpt lat="43.53756" lon="1.27055">
        <ele>172.4</ele>
        <time>2024-08-01T06:41:12Z</time>
      </trkpt>
      <trkpt lat="43.53754" lon="1.27062">
        <ele>172.4</ele>
        <time>2024-08-01T06:41:13Z</time>
      </trkpt>
      <trkpt lat="43.53752" lon="1.2707">
        <ele>172.6</ele>
        <time>2024-08-01T06:41:14Z</time>
      </trkpt>
      <trkpt lat="43.5375" lon="1.27076">
        <ele>172.6</ele>
        <time>2024-08-01T06:41:15Z</time>
      </trkpt>
      <trkpt lat="43.53749" lon="1.27081">
        <ele>172.8</ele>
        <time>2024-08-01T06:41:16Z</time>
      </trkpt>
      <trkpt lat="43.53747" lon="1.27086">
        <ele>172.8</ele>
        <time>2024-08-01T06:41:17Z</time>
      </trkpt>
      <trkpt lat="43.53745" lon="1.27091">
        <ele>172.8</ele>
        <time>2024-08-01T06:41:18Z</time>
      </trkpt>
      <trkpt lat="43.53743" lon="1.27097">
        <ele>172.8</ele>
        <time>2024-08-01T06:41:19Z</time>
      </trkpt>
      <trkpt lat="43.53741" lon="1.27103">
        <ele>172.8</ele>
        <time>2024-08-01T06:41:20Z</time>
      </trkpt>
      <trkpt lat="43.5374" lon="1.27108">
        <ele>173.2</ele>
        <time>2024-08-01T06:41:21Z</time>
      </trkpt>
      <trkpt lat="43.53737" lon="1.27115">
        <ele>173.2</ele>
        <time>2024-08-01T06:41:22Z</time>
      </trkpt>
      <trkpt lat="43.53734" lon="1.27123">
        <ele>173.4</ele>
        <time>2024-08-01T06:41:23Z</time>
      </trkpt>
      <trkpt lat="43.53731" lon="1.27133">
        <ele>173.6</ele>
        <time>2024-08-01T06:41:24Z</time>
      </trkpt>
      <trkpt lat="43.53728" lon="1.27142">
        <ele>173.6</ele>
        <time>2024-08-01T06:41:25Z</time>
      </trkpt>
      <trkpt lat="43.53724" lon="1.27151">
        <ele>173.6</ele>
        <time>2024-08-01T06:41:26Z</time>
      </trkpt>
      <trkpt lat="43.53722" lon="1.27158">
        <ele>173.6</ele>
        <time>2024-08-01T06:41:27Z</time>
      </trkpt>
      <trkpt lat="43.53719" lon="1.27168">
        <ele>173.6</ele>
        <time>2024-08-01T06:41:28Z</time>
      </trkpt>
      <trkpt lat="43.53714" lon="1.27179">
        <ele>173.4</ele>
        <time>2024-08-01T06:41:29Z</time>
      </trkpt>
      <trkpt lat="43.53711" lon="1.27188">
        <ele>173.2</ele>
        <time>2024-08-01T06:41:30Z</time>
      </trkpt>
      <trkpt lat="43.53709" lon="1.27195">
        <ele>173.2</ele>
        <time>2024-08-01T06:41:31Z</time>
      </trkpt>
      <trkpt lat="43.53705" lon="1.27204">
        <ele>173</ele>
        <time>2024-08-01T06:41:32Z</time>
      </trkpt>
      <trkpt lat="43.53702" lon="1.27213">
        <ele>173</ele>
        <time>2024-08-01T06:41:33Z</time>
      </trkpt>
      <trkpt lat="43.53699" lon="1.27223">
        <ele>172.8</ele>
        <time>2024-08-01T06:41:34Z</time>
      </trkpt>
      <trkpt lat="43.53696" lon="1.2723">
        <ele>172.8</ele>
        <time>2024-08-01T06:41:35Z</time>
      </trkpt>
      <trkpt lat="43.53693" lon="1.27238">
        <ele>172.6</ele>
        <time>2024-08-01T06:41:36Z</time>
      </trkpt>
      <trkpt lat="43.5369" lon="1.27247">
        <ele>172.6</ele>
        <time>2024-08-01T06:41:37Z</time>
      </trkpt>
      <trkpt lat="43.53687" lon="1.27255">
        <ele>172.6</ele>
        <time>2024-08-01T06:41:38Z</time>
      </trkpt>
      <trkpt lat="43.53683" lon="1.27265">
        <ele>172.6</ele>
        <time>2024-08-01T06:41:39Z</time>
      </trkpt>
      <trkpt lat="43.53681" lon="1.27272">
        <ele>172.6</ele>
        <time>2024-08-01T06:41:40Z</time>
      </trkpt>
      <trkpt lat="43.53678" lon="1.2728">
        <ele>172.6</ele>
        <time>2024-08-01T06:41:41Z</time>
      </trkpt>
      <trkpt lat="43.53675" lon="1.27288">
        <ele>172.4</ele>
        <time>2024-08-01T06:41:42Z</time>
      </trkpt>
      <trkpt lat="43.53672" lon="1.27296">
        <ele>172.4</ele>
        <time>2024-08-01T06:41:43Z</time>
      </trkpt>
      <trkpt lat="43.53668" lon="1.27306">
        <ele>172.6</ele>
        <time>2024-08-01T06:41:44Z</time>
      </trkpt>
      <trkpt lat="43.53665" lon="1.27315">
        <ele>172.6</ele>
        <time>2024-08-01T06:41:45Z</time>
      </trkpt>
      <trkpt lat="43.53662" lon="1.27322">
        <ele>172.6</ele>
        <time>2024-08-01T06:41:46Z</time>
      </trkpt>
      <trkpt lat="43.53659" lon="1.2733">
        <ele>172.6</ele>
        <time>2024-08-01T06:41:47Z</time>
      </trkpt>
      <trkpt lat="43.53656" lon="1.2734">
        <ele>172.6</ele>
        <time>2024-08-01T06:41:48Z</time>
      </trkpt>
      <trkpt lat="43.53653" lon="1.27348">
        <ele>172.6</ele>
        <time>2024-08-01T06:41:49Z</time>
      </trkpt>
      <trkpt lat="43.5365" lon="1.27357">
        <ele>172.6</ele>
        <time>2024-08-01T06:41:50Z</time>
      </trkpt>
      <trkpt lat="43.53648" lon="1.27363">
        <ele>172.6</ele>
        <time>2024-08-01T06:41:51Z</time>
      </trkpt>
      <trkpt lat="43.53645" lon="1.27372">
        <ele>172.8</ele>
        <time>2024-08-01T06:41:52Z</time>
      </trkpt>
      <trkpt lat="43.53642" lon="1.27382">
        <ele>172.8</ele>
        <time>2024-08-01T06:41:53Z</time>
      </trkpt>
      <trkpt lat="43.53639" lon="1.27391">
        <ele>172.8</ele>
        <time>2024-08-01T06:41:54Z</time>
      </trkpt>
      <trkpt lat="43.53636" lon="1.27399">
        <ele>172.8</ele>
        <time>2024-08-01T06:41:55Z</time>
      </trkpt>
      <trkpt lat="43.53634" lon="1.27406">
        <ele>172.8</ele>
        <time>2024-08-01T06:41:56Z</time>
      </trkpt>
      <trkpt lat="43.53631" lon="1.27415">
        <ele>172.8</ele>
        <time>2024-08-01T06:41:57Z</time>
      </trkpt>
      <trkpt lat="43.53628" lon="1.27424">
        <ele>172.8</ele>
        <time>2024-08-01T06:41:58Z</time>
      </trkpt>
      <trkpt lat="43.53625" lon="1.27433">
        <ele>172.8</ele>
        <time>2024-08-01T06:41:59Z</time>
      </trkpt>
      <trkpt lat="43.53623" lon="1.2744">
        <ele>172.6</ele>
        <time>2024-08-01T06:42:00Z</time>
      </trkpt>
      <trkpt lat="43.5362" lon="1.27448">
        <ele>172.6</ele>
        <time>2024-08-01T06:42:01Z</time>
      </trkpt>
      <trkpt lat="43.53618" lon="1.27457">
        <ele>172.6</ele>
        <time>2024-08-01T06:42:02Z</time>
      </trkpt>
      <trkpt lat="43.53615" lon="1.27467">
        <ele>172.6</ele>
        <time>2024-08-01T06:42:03Z</time>
      </trkpt>
      <trkpt lat="43.53613" lon="1.27475">
        <ele>172.6</ele>
        <time>2024-08-01T06:42:04Z</time>
      </trkpt>
      <trkpt lat="43.5361" lon="1.27483">
        <ele>172.6</ele>
        <time>2024-08-01T06:42:05Z</time>
      </trkpt>
      <trkpt lat="43.53608" lon="1.27489">
        <ele>172.6</ele>
        <time>2024-08-01T06:42:06Z</time>
      </trkpt>
      <trkpt lat="43.53606" lon="1.27496">
        <ele>172.4</ele>
        <time>2024-08-01T06:42:07Z</time>
      </trkpt>
      <trkpt lat="43.53603" lon="1.27505">
        <ele>172.4</ele>
        <time>2024-08-01T06:42:08Z</time>
      </trkpt>
      <trkpt lat="43.53601" lon="1.27512">
        <ele>172.4</ele>
        <time>2024-08-01T06:42:09Z</time>
      </trkpt>
      <trkpt lat="43.53599" lon="1.27519">
        <ele>172.4</ele>
        <time>2024-08-01T06:42:10Z</time>
      </trkpt>
      <trkpt lat="43.53597" lon="1.27525">
        <ele>172.4</ele>
        <time>2024-08-01T06:42:11Z</time>
      </trkpt>
      <trkpt lat="43.53595" lon="1.27532">
        <ele>172.4</ele>
        <time>2024-08-01T06:42:12Z</time>
      </trkpt>
      <trkpt lat="43.53592" lon="1.27541">
        <ele>172.4</ele>
        <time>2024-08-01T06:42:13Z</time>
      </trkpt>
      <trkpt lat="43.5359" lon="1.27548">
        <ele>172.4</ele>
        <time>2024-08-01T06:42:14Z</time>
      </trkpt>
      <trkpt lat="43.53588" lon="1.27555">
        <ele>172.4</ele>
        <time>2024-08-01T06:42:15Z</time>
      </trkpt>
      <trkpt lat="43.53586" lon="1.27561">
        <ele>172.4</ele>
        <time>2024-08-01T06:42:16Z</time>
      </trkpt>
      <trkpt lat="43.53585" lon="1.27567">
        <ele>172.2</ele>
        <time>2024-08-01T06:42:17Z</time>
      </trkpt>
      <trkpt lat="43.53582" lon="1.27574">
        <ele>172.2</ele>
        <time>2024-08-01T06:42:18Z</time>
      </trkpt>
      <trkpt lat="43.5358" lon="1.2758">
        <ele>172.2</ele>
        <time>2024-08-01T06:42:19Z</time>
      </trkpt>
      <trkpt lat="43.53579" lon="1.27585">
        <ele>172.2</ele>
        <time>2024-08-01T06:42:20Z</time>
      </trkpt>
      <trkpt lat="43.53577" lon="1.27588">
        <ele>172.4</ele>
        <time>2024-08-01T06:42:21Z</time>
      </trkpt>
      <trkpt lat="43.53576" lon="1.27593">
        <ele>172.4</ele>
        <time>2024-08-01T06:42:22Z</time>
      </trkpt>
      <trkpt lat="43.53574" lon="1.276">
        <ele>172.4</ele>
        <time>2024-08-01T06:42:23Z</time>
      </trkpt>
      <trkpt lat="43.53572" lon="1.27606">
        <ele>172.4</ele>
        <time>2024-08-01T06:42:24Z</time>
      </trkpt>
      <trkpt lat="43.5357" lon="1.27611">
        <ele>172.4</ele>
        <time>2024-08-01T06:42:25Z</time>
      </trkpt>
      <trkpt lat="43.53568" lon="1.27617">
        <ele>172.2</ele>
        <time>2024-08-01T06:42:26Z</time>
      </trkpt>
      <trkpt lat="43.53566" lon="1.27624">
        <ele>172.2</ele>
        <time>2024-08-01T06:42:27Z</time>
      </trkpt>
      <trkpt lat="43.53564" lon="1.27633">
        <ele>172.2</ele>
        <time>2024-08-01T06:42:28Z</time>
      </trkpt>
      <trkpt lat="43.53562" lon="1.2764">
        <ele>172.2</ele>
        <time>2024-08-01T06:42:29Z</time>
      </trkpt>
      <trkpt lat="43.5356" lon="1.27646">
        <ele>172.2</ele>
        <time>2024-08-01T06:42:30Z</time>
      </trkpt>
      <trkpt lat="43.53558" lon="1.27653">
        <ele>172.2</ele>
        <time>2024-08-01T06:42:31Z</time>
      </trkpt>
      <trkpt lat="43.53556" lon="1.27661">
        <ele>172.2</ele>
        <time>2024-08-01T06:42:32Z</time>
      </trkpt>
      <trkpt lat="43.53553" lon="1.27669">
        <ele>172.2</ele>
        <time>2024-08-01T06:42:33Z</time>
      </trkpt>
      <trkpt lat="43.53551" lon="1.27676">
        <ele>172.2</ele>
        <time>2024-08-01T06:42:34Z</time>
      </trkpt>
      <trkpt lat="43.53549" lon="1.27683">
        <ele>172.2</ele>
        <time>2024-08-01T06:42:35Z</time>
      </trkpt>
      <trkpt lat="43.53547" lon="1.27691">
        <ele>172</ele>
        <time>2024-08-01T06:42:36Z</time>
      </trkpt>
      <trkpt lat="43.53544" lon="1.27698">
        <ele>172</ele>
        <time>2024-08-01T06:42:37Z</time>
      </trkpt>
      <trkpt lat="43.53542" lon="1.27705">
        <ele>172.2</ele>
        <time>2024-08-01T06:42:38Z</time>
      </trkpt>
      <trkpt lat="43.53539" lon="1.27712">
        <ele>172.4</ele>
        <time>2024-08-01T06:42:39Z</time>
      </trkpt>
      <trkpt lat="43.53537" lon="1.27719">
        <ele>172.4</ele>
        <time>2024-08-01T06:42:40Z</time>
      </trkpt>
      <trkpt lat="43.53535" lon="1.27724">
        <ele>172.4</ele>
        <time>2024-08-01T06:42:41Z</time>
      </trkpt>
      <trkpt lat="43.53532" lon="1.2773">
        <ele>172.4</ele>
        <time>2024-08-01T06:42:42Z</time>
      </trkpt>
      <trkpt lat="43.53528" lon="1.27733">
        <ele>172.4</ele>
        <time>2024-08-01T06:42:43Z</time>
      </trkpt>
      <trkpt lat="43.53525" lon="1.27735">
        <ele>172.4</ele>
        <time>2024-08-01T06:42:44Z</time>
      </trkpt>
      <trkpt lat="43.53521" lon="1.27736">
        <ele>172.4</ele>
        <time>2024-08-01T06:42:45Z</time>
      </trkpt>
      <trkpt lat="43.53518" lon="1.27736">
        <ele>172.4</ele>
        <time>2024-08-01T06:42:46Z</time>
      </trkpt>
      <trkpt lat="43.53515" lon="1.27734">
        <ele>172.4</ele>
        <time>2024-08-01T06:42:47Z</time>
      </trkpt>
      <trkpt lat="43.53511" lon="1.27731">
        <ele>172.4</ele>
        <time>2024-08-01T06:42:48Z</time>
      </trkpt>
      <trkpt lat="43.53507" lon="1.27727">
        <ele>172.6</ele>
        <time>2024-08-01T06:42:49Z</time>
      </trkpt>
      <trkpt lat="43.53504" lon="1.27724">
        <ele>172.6</ele>
        <time>2024-08-01T06:42:50Z</time>
      </trkpt>
      <trkpt lat="43.53499" lon="1.27719">
        <ele>172.6</ele>
        <time>2024-08-01T06:42:51Z</time>
      </trkpt>
      <trkpt lat="43.53494" lon="1.27715">
        <ele>172.6</ele>
        <time>2024-08-01T06:42:52Z</time>
      </trkpt>
      <trkpt lat="43.5349" lon="1.2771">
        <ele>172.6</ele>
        <time>2024-08-01T06:42:53Z</time>
      </trkpt>
      <trkpt lat="43.53485" lon="1.27705">
        <ele>172.6</ele>
        <time>2024-08-01T06:42:54Z</time>
      </trkpt>
      <trkpt lat="43.5348" lon="1.277">
        <ele>172.6</ele>
        <time>2024-08-01T06:42:55Z</time>
      </trkpt>
      <trkpt lat="43.53475" lon="1.27696">
        <ele>172.6</ele>
        <time>2024-08-01T06:42:56Z</time>
      </trkpt>
      <trkpt lat="43.5347" lon="1.27691">
        <ele>172.6</ele>
        <time>2024-08-01T06:42:57Z</time>
      </trkpt>
      <trkpt lat="43.53464" lon="1.27686">
        <ele>172.6</ele>
        <time>2024-08-01T06:42:58Z</time>
      </trkpt>
      <trkpt lat="43.53459" lon="1.27683">
        <ele>172.6</ele>
        <time>2024-08-01T06:42:59Z</time>
      </trkpt>
      <trkpt lat="43.53453" lon="1.27678">
        <ele>172.6</ele>
        <time>2024-08-01T06:43:00Z</time>
      </trkpt>
      <trkpt lat="43.53448" lon="1.27675">
        <ele>172.8</ele>
        <time>2024-08-01T06:43:01Z</time>
      </trkpt>
      <trkpt lat="43.53442" lon="1.27671">
        <ele>172.8</ele>
        <time>2024-08-01T06:43:02Z</time>
      </trkpt>
      <trkpt lat="43.53437" lon="1.27668">
        <ele>172.8</ele>
        <time>2024-08-01T06:43:03Z</time>
      </trkpt>
      <trkpt lat="43.53432" lon="1.27664">
        <ele>172.8</ele>
        <time>2024-08-01T06:43:04Z</time>
      </trkpt>
      <trkpt lat="43.53426" lon="1.2766">
        <ele>172.8</ele>
        <time>2024-08-01T06:43:05Z</time>
      </trkpt>
      <trkpt lat="43.53421" lon="1.27657">
        <ele>172.8</ele>
        <time>2024-08-01T06:43:06Z</time>
      </trkpt>
      <trkpt lat="43.53415" lon="1.27653">
        <ele>172.8</ele>
        <time>2024-08-01T06:43:07Z</time>
      </trkpt>
      <trkpt lat="43.5341" lon="1.27649">
        <ele>172.8</ele>
        <time>2024-08-01T06:43:08Z</time>
      </trkpt>
      <trkpt lat="43.53404" lon="1.27646">
        <ele>173</ele>
        <time>2024-08-01T06:43:09Z</time>
      </trkpt>
      <trkpt lat="43.53399" lon="1.27643">
        <ele>173</ele>
        <time>2024-08-01T06:43:10Z</time>
      </trkpt>
      <trkpt lat="43.53393" lon="1.27638">
        <ele>173</ele>
        <time>2024-08-01T06:43:11Z</time>
      </trkpt>
      <trkpt lat="43.53387" lon="1.27634">
        <ele>173</ele>
        <time>2024-08-01T06:43:12Z</time>
      </trkpt>
      <trkpt lat="43.53381" lon="1.2763">
        <ele>173</ele>
        <time>2024-08-01T06:43:13Z</time>
      </trkpt>
      <trkpt lat="43.53376" lon="1.27626">
        <ele>173</ele>
        <time>2024-08-01T06:43:14Z</time>
      </trkpt>
      <trkpt lat="43.5337" lon="1.27622">
        <ele>173</ele>
        <time>2024-08-01T06:43:15Z</time>
      </trkpt>
      <trkpt lat="43.53365" lon="1.27618">
        <ele>173</ele>
        <time>2024-08-01T06:43:16Z</time>
      </trkpt>
      <trkpt lat="43.53359" lon="1.27614">
        <ele>173</ele>
        <time>2024-08-01T06:43:17Z</time>
      </trkpt>
      <trkpt lat="43.53354" lon="1.27609">
        <ele>173</ele>
        <time>2024-08-01T06:43:18Z</time>
      </trkpt>
      <trkpt lat="43.53349" lon="1.27604">
        <ele>173</ele>
        <time>2024-08-01T06:43:19Z</time>
      </trkpt>
      <trkpt lat="43.53344" lon="1.276">
        <ele>173</ele>
        <time>2024-08-01T06:43:20Z</time>
      </trkpt>
      <trkpt lat="43.53338" lon="1.27595">
        <ele>173</ele>
        <time>2024-08-01T06:43:21Z</time>
      </trkpt>
      <trkpt lat="43.53333" lon="1.2759">
        <ele>173</ele>
        <time>2024-08-01T06:43:22Z</time>
      </trkpt>
      <trkpt lat="43.53328" lon="1.27585">
        <ele>173</ele>
        <time>2024-08-01T06:43:23Z</time>
      </trkpt>
      <trkpt lat="43.53323" lon="1.2758">
        <ele>173.2</ele>
        <time>2024-08-01T06:43:24Z</time>
      </trkpt>
      <trkpt lat="43.53317" lon="1.27575">
        <ele>173.2</ele>
        <time>2024-08-01T06:43:25Z</time>
      </trkpt>
      <trkpt lat="43.53312" lon="1.27569">
        <ele>173.2</ele>
        <time>2024-08-01T06:43:26Z</time>
      </trkpt>
      <trkpt lat="43.53306" lon="1.27564">
        <ele>173.4</ele>
        <time>2024-08-01T06:43:27Z</time>
      </trkpt>
      <trkpt lat="43.53301" lon="1.27558">
        <ele>173.4</ele>
        <time>2024-08-01T06:43:28Z</time>
      </trkpt>
      <trkpt lat="43.53296" lon="1.27553">
        <ele>173.4</ele>
        <time>2024-08-01T06:43:29Z</time>
      </trkpt>
      <trkpt lat="43.53291" lon="1.27547">
        <ele>173.4</ele>
        <time>2024-08-01T06:43:30Z</time>
      </trkpt>
      <trkpt lat="43.53286" lon="1.27541">
        <ele>173.4</ele>
        <time>2024-08-01T06:43:31Z</time>
      </trkpt>
      <trkpt lat="43.53281" lon="1.27535">
        <ele>173.4</ele>
        <time>2024-08-01T06:43:32Z</time>
      </trkpt>
      <trkpt lat="43.53276" lon="1.27528">
        <ele>173.4</ele>
        <time>2024-08-01T06:43:33Z</time>
      </trkpt>
      <trkpt lat="43.53271" lon="1.27522">
        <ele>173.4</ele>
        <time>2024-08-01T06:43:34Z</time>
      </trkpt>
      <trkpt lat="43.53267" lon="1.27515">
        <ele>173.4</ele>
        <time>2024-08-01T06:43:35Z</time>
      </trkpt>
      <trkpt lat="43.53262" lon="1.27509">
        <ele>173.4</ele>
        <time>2024-08-01T06:43:36Z</time>
      </trkpt>
      <trkpt lat="43.53257" lon="1.27502">
        <ele>173.6</ele>
        <time>2024-08-01T06:43:37Z</time>
      </trkpt>
      <trkpt lat="43.53253" lon="1.27496">
        <ele>173.6</ele>
        <time>2024-08-01T06:43:38Z</time>
      </trkpt>
      <trkpt lat="43.53248" lon="1.27489">
        <ele>173.6</ele>
        <time>2024-08-01T06:43:39Z</time>
      </trkpt>
      <trkpt lat="43.53243" lon="1.27482">
        <ele>173.6</ele>
        <time>2024-08-01T06:43:40Z</time>
      </trkpt>
      <trkpt lat="43.53239" lon="1.27476">
        <ele>173.6</ele>
        <time>2024-08-01T06:43:41Z</time>
      </trkpt>
      <trkpt lat="43.53234" lon="1.27469">
        <ele>173.8</ele>
        <time>2024-08-01T06:43:42Z</time>
      </trkpt>
      <trkpt lat="43.5323" lon="1.27463">
        <ele>173.8</ele>
        <time>2024-08-01T06:43:43Z</time>
      </trkpt>
      <trkpt lat="43.53225" lon="1.27456">
        <ele>173.8</ele>
        <time>2024-08-01T06:43:44Z</time>
      </trkpt>
      <trkpt lat="43.53221" lon="1.2745">
        <ele>173.8</ele>
        <time>2024-08-01T06:43:45Z</time>
      </trkpt>
      <trkpt lat="43.53216" lon="1.27444">
        <ele>173.8</ele>
        <time>2024-08-01T06:43:46Z</time>
      </trkpt>
      <trkpt lat="43.53212" lon="1.27438">
        <ele>173.8</ele>
        <time>2024-08-01T06:43:47Z</time>
      </trkpt>
      <trkpt lat="43.53208" lon="1.27433">
        <ele>173.8</ele>
        <time>2024-08-01T06:43:48Z</time>
      </trkpt>
      <trkpt lat="43.53204" lon="1.27427">
        <ele>174</ele>
        <time>2024-08-01T06:43:49Z</time>
      </trkpt>
      <trkpt lat="43.532" lon="1.27421">
        <ele>174</ele>
        <time>2024-08-01T06:43:50Z</time>
      </trkpt>
      <trkpt lat="43.53196" lon="1.27416">
        <ele>174</ele>
        <time>2024-08-01T06:43:51Z</time>
      </trkpt>
      <trkpt lat="43.53192" lon="1.2741">
        <ele>174</ele>
        <time>2024-08-01T06:43:52Z</time>
      </trkpt>
      <trkpt lat="43.53188" lon="1.27404">
        <ele>174.2</ele>
        <time>2024-08-01T06:43:53Z</time>
      </trkpt>
      <trkpt lat="43.53183" lon="1.27397">
        <ele>174.2</ele>
        <time>2024-08-01T06:43:54Z</time>
      </trkpt>
      <trkpt lat="43.53179" lon="1.27391">
        <ele>174.2</ele>
        <time>2024-08-01T06:43:55Z</time>
      </trkpt>
      <trkpt lat="43.53175" lon="1.27385">
        <ele>174.2</ele>
        <time>2024-08-01T06:43:56Z</time>
      </trkpt>
      <trkpt lat="43.53171" lon="1.27379">
        <ele>174.4</ele>
        <time>2024-08-01T06:43:57Z</time>
      </trkpt>
      <trkpt lat="43.53167" lon="1.27374">
        <ele>174.4</ele>
        <time>2024-08-01T06:43:58Z</time>
      </trkpt>
      <trkpt lat="43.53163" lon="1.27368">
        <ele>174.4</ele>
        <time>2024-08-01T06:43:59Z</time>
      </trkpt>
      <trkpt lat="43.53159" lon="1.27362">
        <ele>174.4</ele>
        <time>2024-08-01T06:44:00Z</time>
      </trkpt>
      <trkpt lat="43.53155" lon="1.27356">
        <ele>174.4</ele>
        <time>2024-08-01T06:44:01Z</time>
      </trkpt>
      <trkpt lat="43.53151" lon="1.27351">
        <ele>174.4</ele>
        <time>2024-08-01T06:44:02Z</time>
      </trkpt>
      <trkpt lat="43.53147" lon="1.27345">
        <ele>174.4</ele>
        <time>2024-08-01T06:44:03Z</time>
      </trkpt>
      <trkpt lat="43.53143" lon="1.27339">
        <ele>174.4</ele>
        <time>2024-08-01T06:44:04Z</time>
      </trkpt>
      <trkpt lat="43.5314" lon="1.27333">
        <ele>174.2</ele>
        <time>2024-08-01T06:44:05Z</time>
      </trkpt>
      <trkpt lat="43.53136" lon="1.27328">
        <ele>174.2</ele>
        <time>2024-08-01T06:44:06Z</time>
      </trkpt>
      <trkpt lat="43.53132" lon="1.27322">
        <ele>174.2</ele>
        <time>2024-08-01T06:44:07Z</time>
      </trkpt>
      <trkpt lat="43.53129" lon="1.27316">
        <ele>174.2</ele>
        <time>2024-08-01T06:44:08Z</time>
      </trkpt>
      <trkpt lat="43.53125" lon="1.2731">
        <ele>174.2</ele>
        <time>2024-08-01T06:44:09Z</time>
      </trkpt>
      <trkpt lat="43.53121" lon="1.27304">
        <ele>174.2</ele>
        <time>2024-08-01T06:44:10Z</time>
      </trkpt>
      <trkpt lat="43.53117" lon="1.27298">
        <ele>174.2</ele>
        <time>2024-08-01T06:44:11Z</time>
      </trkpt>
      <trkpt lat="43.53113" lon="1.27292">
        <ele>174.2</ele>
        <time>2024-08-01T06:44:12Z</time>
      </trkpt>
      <trkpt lat="43.5311" lon="1.27286">
        <ele>174.2</ele>
        <time>2024-08-01T06:44:13Z</time>
      </trkpt>
      <trkpt lat="43.53106" lon="1.2728">
        <ele>174.2</ele>
        <time>2024-08-01T06:44:14Z</time>
      </trkpt>
      <trkpt lat="43.53102" lon="1.27274">
        <ele>174.2</ele>
        <time>2024-08-01T06:44:15Z</time>
      </trkpt>
      <trkpt lat="43.53098" lon="1.27268">
        <ele>174.2</ele>
        <time>2024-08-01T06:44:16Z</time>
      </trkpt>
      <trkpt lat="43.53094" lon="1.27262">
        <ele>174.2</ele>
        <time>2024-08-01T06:44:17Z</time>
      </trkpt>
      <trkpt lat="43.5309" lon="1.27256">
        <ele>174.4</ele>
        <time>2024-08-01T06:44:18Z</time>
      </trkpt>
      <trkpt lat="43.53086" lon="1.2725">
        <ele>174.4</ele>
        <time>2024-08-01T06:44:19Z</time>
      </trkpt>
      <trkpt lat="43.53082" lon="1.27245">
        <ele>174.4</ele>
        <time>2024-08-01T06:44:20Z</time>
      </trkpt>
      <trkpt lat="43.53078" lon="1.27239">
        <ele>174.4</ele>
        <time>2024-08-01T06:44:21Z</time>
      </trkpt>
      <trkpt lat="43.53074" lon="1.27233">
        <ele>174.6</ele>
        <time>2024-08-01T06:44:22Z</time>
      </trkpt>
      <trkpt lat="43.5307" lon="1.27227">
        <ele>174.6</ele>
        <time>2024-08-01T06:44:23Z</time>
      </trkpt>
      <trkpt lat="43.53065" lon="1.27221">
        <ele>174.6</ele>
        <time>2024-08-01T06:44:24Z</time>
      </trkpt>
      <trkpt lat="43.53062" lon="1.27216">
        <ele>174.6</ele>
        <time>2024-08-01T06:44:25Z</time>
      </trkpt>
      <trkpt lat="43.53056" lon="1.27209">
        <ele>174.6</ele>
        <time>2024-08-01T06:44:26Z</time>
      </trkpt>
      <trkpt lat="43.53051" lon="1.27203">
        <ele>174.6</ele>
        <time>2024-08-01T06:44:27Z</time>
      </trkpt>
      <trkpt lat="43.53046" lon="1.27198">
        <ele>174.6</ele>
        <time>2024-08-01T06:44:28Z</time>
      </trkpt>
      <trkpt lat="43.5304" lon="1.27192">
        <ele>174.6</ele>
        <time>2024-08-01T06:44:29Z</time>
      </trkpt>
      <trkpt lat="43.53035" lon="1.27186">
        <ele>174.6</ele>
        <time>2024-08-01T06:44:30Z</time>
      </trkpt>
      <trkpt lat="43.53029" lon="1.2718">
        <ele>174.6</ele>
        <time>2024-08-01T06:44:31Z</time>
      </trkpt>
      <trkpt lat="43.53024" lon="1.27174">
        <ele>174.6</ele>
        <time>2024-08-01T06:44:32Z</time>
      </trkpt>
      <trkpt lat="43.53018" lon="1.27169">
        <ele>174.6</ele>
        <time>2024-08-01T06:44:33Z</time>
      </trkpt>
      <trkpt lat="43.53014" lon="1.27164">
        <ele>174.6</ele>
        <time>2024-08-01T06:44:34Z</time>
      </trkpt>
      <trkpt lat="43.53007" lon="1.27158">
        <ele>174.6</ele>
        <time>2024-08-01T06:44:35Z</time>
      </trkpt>
      <trkpt lat="43.53002" lon="1.27153">
        <ele>174.6</ele>
        <time>2024-08-01T06:44:36Z</time>
      </trkpt>
      <trkpt lat="43.52996" lon="1.27147">
        <ele>174.6</ele>
        <time>2024-08-01T06:44:37Z</time>
      </trkpt>
      <trkpt lat="43.52991" lon="1.27141">
        <ele>174.6</ele>
        <time>2024-08-01T06:44:38Z</time>
      </trkpt>
      <trkpt lat="43.52986" lon="1.27136">
        <ele>174.6</ele>
        <time>2024-08-01T06:44:39Z</time>
      </trkpt>
      <trkpt lat="43.52981" lon="1.2713">
        <ele>174.6</ele>
        <time>2024-08-01T06:44:40Z</time>
      </trkpt>
      <trkpt lat="43.52976" lon="1.27124">
        <ele>174.6</ele>
        <time>2024-08-01T06:44:41Z</time>
      </trkpt>
      <trkpt lat="43.52971" lon="1.27118">
        <ele>174.6</ele>
        <time>2024-08-01T06:44:42Z</time>
      </trkpt>
      <trkpt lat="43.52965" lon="1.27112">
        <ele>174.6</ele>
        <time>2024-08-01T06:44:43Z</time>
      </trkpt>
      <trkpt lat="43.5296" lon="1.27106">
        <ele>174.6</ele>
        <time>2024-08-01T06:44:44Z</time>
      </trkpt>
      <trkpt lat="43.52955" lon="1.271">
        <ele>174.6</ele>
        <time>2024-08-01T06:44:45Z</time>
      </trkpt>
      <trkpt lat="43.5295" lon="1.27094">
        <ele>174.6</ele>
        <time>2024-08-01T06:44:46Z</time>
      </trkpt>
      <trkpt lat="43.52945" lon="1.27087">
        <ele>174.8</ele>
        <time>2024-08-01T06:44:47Z</time>
      </trkpt>
      <trkpt lat="43.5294" lon="1.27081">
        <ele>174.8</ele>
        <time>2024-08-01T06:44:48Z</time>
      </trkpt>
      <trkpt lat="43.52935" lon="1.27075">
        <ele>174.8</ele>
        <time>2024-08-01T06:44:49Z</time>
      </trkpt>
      <trkpt lat="43.5293" lon="1.27069">
        <ele>174.8</ele>
        <time>2024-08-01T06:44:50Z</time>
      </trkpt>
      <trkpt lat="43.52925" lon="1.27062">
        <ele>174.8</ele>
        <time>2024-08-01T06:44:51Z</time>
      </trkpt>
      <trkpt lat="43.52921" lon="1.27056">
        <ele>174.8</ele>
        <time>2024-08-01T06:44:52Z</time>
      </trkpt>
      <trkpt lat="43.52916" lon="1.2705">
        <ele>174.8</ele>
        <time>2024-08-01T06:44:53Z</time>
      </trkpt>
      <trkpt lat="43.52912" lon="1.27043">
        <ele>174.8</ele>
        <time>2024-08-01T06:44:54Z</time>
      </trkpt>
      <trkpt lat="43.52907" lon="1.27037">
        <ele>174.8</ele>
        <time>2024-08-01T06:44:55Z</time>
      </trkpt>
      <trkpt lat="43.52902" lon="1.27031">
        <ele>174.8</ele>
        <time>2024-08-01T06:44:56Z</time>
      </trkpt>
      <trkpt lat="43.52899" lon="1.27025">
        <ele>174.8</ele>
        <time>2024-08-01T06:44:57Z</time>
      </trkpt>
      <trkpt lat="43.52894" lon="1.27018">
        <ele>174.8</ele>
        <time>2024-08-01T06:44:58Z</time>
      </trkpt>
      <trkpt lat="43.52889" lon="1.27011">
        <ele>174.8</ele>
        <time>2024-08-01T06:44:59Z</time>
      </trkpt>
      <trkpt lat="43.52885" lon="1.27005">
        <ele>174.8</ele>
        <time>2024-08-01T06:45:00Z</time>
      </trkpt>
      <trkpt lat="43.5288" lon="1.26998">
        <ele>174.8</ele>
        <time>2024-08-01T06:45:01Z</time>
      </trkpt>
      <trkpt lat="43.52876" lon="1.26992">
        <ele>175</ele>
        <time>2024-08-01T06:45:02Z</time>
      </trkpt>
      <trkpt lat="43.52872" lon="1.26985">
        <ele>175</ele>
        <time>2024-08-01T06:45:03Z</time>
      </trkpt>
      <trkpt lat="43.52868" lon="1.26979">
        <ele>175</ele>
        <time>2024-08-01T06:45:04Z</time>
      </trkpt>
      <trkpt lat="43.52863" lon="1.26973">
        <ele>175</ele>
        <time>2024-08-01T06:45:05Z</time>
      </trkpt>
      <trkpt lat="43.52859" lon="1.26966">
        <ele>175</ele>
        <time>2024-08-01T06:45:06Z</time>
      </trkpt>
      <trkpt lat="43.52855" lon="1.2696">
        <ele>175</ele>
        <time>2024-08-01T06:45:07Z</time>
      </trkpt>
      <trkpt lat="43.52851" lon="1.26954">
        <ele>175</ele>
        <time>2024-08-01T06:45:08Z</time>
      </trkpt>
      <trkpt lat="43.52846" lon="1.26947">
        <ele>175</ele>
        <time>2024-08-01T06:45:09Z</time>
      </trkpt>
      <trkpt lat="43.52842" lon="1.26941">
        <ele>175</ele>
        <time>2024-08-01T06:45:10Z</time>
      </trkpt>
      <trkpt lat="43.52838" lon="1.26934">
        <ele>175</ele>
        <time>2024-08-01T06:45:11Z</time>
      </trkpt>
      <trkpt lat="43.52834" lon="1.26928">
        <ele>175</ele>
        <time>2024-08-01T06:45:12Z</time>
      </trkpt>
      <trkpt lat="43.52829" lon="1.26921">
        <ele>175</ele>
        <time>2024-08-01T06:45:13Z</time>
      </trkpt>
      <trkpt lat="43.52825" lon="1.26915">
        <ele>175</ele>
        <time>2024-08-01T06:45:14Z</time>
      </trkpt>
      <trkpt lat="43.52821" lon="1.26908">
        <ele>175</ele>
        <time>2024-08-01T06:45:15Z</time>
      </trkpt>
      <trkpt lat="43.52816" lon="1.26902">
        <ele>175.2</ele>
        <time>2024-08-01T06:45:16Z</time>
      </trkpt>
      <trkpt lat="43.52812" lon="1.26895">
        <ele>175.2</ele>
        <time>2024-08-01T06:45:17Z</time>
      </trkpt>
      <trkpt lat="43.52808" lon="1.26889">
        <ele>175.2</ele>
        <time>2024-08-01T06:45:18Z</time>
      </trkpt>
      <trkpt lat="43.52804" lon="1.26882">
        <ele>175.2</ele>
        <time>2024-08-01T06:45:19Z</time>
      </trkpt>
      <trkpt lat="43.52799" lon="1.26876">
        <ele>175.2</ele>
        <time>2024-08-01T06:45:20Z</time>
      </trkpt>
      <trkpt lat="43.52795" lon="1.26869">
        <ele>175.2</ele>
        <time>2024-08-01T06:45:21Z</time>
      </trkpt>
      <trkpt lat="43.52791" lon="1.26863">
        <ele>175.2</ele>
        <time>2024-08-01T06:45:22Z</time>
      </trkpt>
      <trkpt lat="43.52786" lon="1.26856">
        <ele>175.2</ele>
        <time>2024-08-01T06:45:23Z</time>
      </trkpt>
      <trkpt lat="43.52782" lon="1.2685">
        <ele>175.2</ele>
        <time>2024-08-01T06:45:24Z</time>
      </trkpt>
      <trkpt lat="43.52778" lon="1.26844">
        <ele>175</ele>
        <time>2024-08-01T06:45:25Z</time>
      </trkpt>
      <trkpt lat="43.52774" lon="1.26838">
        <ele>175</ele>
        <time>2024-08-01T06:45:26Z</time>
      </trkpt>
      <trkpt lat="43.52769" lon="1.26832">
        <ele>175</ele>
        <time>2024-08-01T06:45:27Z</time>
      </trkpt>
      <trkpt lat="43.52764" lon="1.26826">
        <ele>175</ele>
        <time>2024-08-01T06:45:28Z</time>
      </trkpt>
      <trkpt lat="43.52759" lon="1.2682">
        <ele>175</ele>
        <time>2024-08-01T06:45:29Z</time>
      </trkpt>
      <trkpt lat="43.52754" lon="1.26815">
        <ele>175</ele>
        <time>2024-08-01T06:45:30Z</time>
      </trkpt>
      <trkpt lat="43.52749" lon="1.2681">
        <ele>175</ele>
        <time>2024-08-01T06:45:31Z</time>
      </trkpt>
      <trkpt lat="43.52744" lon="1.26806">
        <ele>175</ele>
        <time>2024-08-01T06:45:32Z</time>
      </trkpt>
      <trkpt lat="43.52738" lon="1.26801">
        <ele>175</ele>
        <time>2024-08-01T06:45:33Z</time>
      </trkpt>
      <trkpt lat="43.52733" lon="1.26797">
        <ele>175</ele>
        <time>2024-08-01T06:45:34Z</time>
      </trkpt>
      <trkpt lat="43.52727" lon="1.26793">
        <ele>175</ele>
        <time>2024-08-01T06:45:35Z</time>
      </trkpt>
      <trkpt lat="43.52721" lon="1.2679">
        <ele>174.8</ele>
        <time>2024-08-01T06:45:36Z</time>
      </trkpt>
      <trkpt lat="43.52715" lon="1.26786">
        <ele>174.8</ele>
        <time>2024-08-01T06:45:37Z</time>
      </trkpt>
      <trkpt lat="43.52709" lon="1.26783">
        <ele>174.8</ele>
        <time>2024-08-01T06:45:38Z</time>
      </trkpt>
      <trkpt lat="43.52704" lon="1.2678">
        <ele>174.8</ele>
        <time>2024-08-01T06:45:39Z</time>
      </trkpt>
      <trkpt lat="43.52698" lon="1.26777">
        <ele>174.6</ele>
        <time>2024-08-01T06:45:40Z</time>
      </trkpt>
      <trkpt lat="43.52693" lon="1.26773">
        <ele>174.6</ele>
        <time>2024-08-01T06:45:41Z</time>
      </trkpt>
      <trkpt lat="43.52687" lon="1.2677">
        <ele>174.6</ele>
        <time>2024-08-01T06:45:42Z</time>
      </trkpt>
      <trkpt lat="43.52682" lon="1.26767">
        <ele>174.6</ele>
        <time>2024-08-01T06:45:43Z</time>
      </trkpt>
      <trkpt lat="43.52677" lon="1.26764">
        <ele>174.6</ele>
        <time>2024-08-01T06:45:44Z</time>
      </trkpt>
      <trkpt lat="43.52671" lon="1.26761">
        <ele>174.6</ele>
        <time>2024-08-01T06:45:45Z</time>
      </trkpt>
      <trkpt lat="43.52666" lon="1.26758">
        <ele>174.6</ele>
        <time>2024-08-01T06:45:46Z</time>
      </trkpt>
      <trkpt lat="43.52661" lon="1.26755">
        <ele>174.6</ele>
        <time>2024-08-01T06:45:47Z</time>
      </trkpt>
      <trkpt lat="43.52655" lon="1.26752">
        <ele>174.6</ele>
        <time>2024-08-01T06:45:48Z</time>
      </trkpt>
      <trkpt lat="43.5265" lon="1.26749">
        <ele>174.6</ele>
        <time>2024-08-01T06:45:49Z</time>
      </trkpt>
      <trkpt lat="43.52644" lon="1.26746">
        <ele>174.6</ele>
        <time>2024-08-01T06:45:50Z</time>
      </trkpt>
      <trkpt lat="43.52638" lon="1.26742">
        <ele>174.6</ele>
        <time>2024-08-01T06:45:51Z</time>
      </trkpt>
      <trkpt lat="43.52633" lon="1.26739">
        <ele>174.6</ele>
        <time>2024-08-01T06:45:52Z</time>
      </trkpt>
      <trkpt lat="43.52627" lon="1.26736">
        <ele>174.6</ele>
        <time>2024-08-01T06:45:53Z</time>
      </trkpt>
      <trkpt lat="43.52622" lon="1.26733">
        <ele>174.4</ele>
        <time>2024-08-01T06:45:54Z</time>
      </trkpt>
      <trkpt lat="43.52617" lon="1.26729">
        <ele>174.4</ele>
        <time>2024-08-01T06:45:55Z</time>
      </trkpt>
      <trkpt lat="43.52612" lon="1.26727">
        <ele>174.4</ele>
        <time>2024-08-01T06:45:56Z</time>
      </trkpt>
      <trkpt lat="43.52606" lon="1.26724">
        <ele>174.4</ele>
        <time>2024-08-01T06:45:57Z</time>
      </trkpt>
      <trkpt lat="43.52601" lon="1.2672">
        <ele>174.4</ele>
        <time>2024-08-01T06:45:58Z</time>
      </trkpt>
      <trkpt lat="43.52596" lon="1.26717">
        <ele>174.4</ele>
        <time>2024-08-01T06:45:59Z</time>
      </trkpt>
      <trkpt lat="43.52591" lon="1.26715">
        <ele>174.4</ele>
        <time>2024-08-01T06:46:00Z</time>
      </trkpt>
      <trkpt lat="43.52586" lon="1.26712">
        <ele>174.4</ele>
        <time>2024-08-01T06:46:01Z</time>
      </trkpt>
      <trkpt lat="43.52581" lon="1.26708">
        <ele>174.4</ele>
        <time>2024-08-01T06:46:02Z</time>
      </trkpt>
      <trkpt lat="43.52576" lon="1.26705">
        <ele>174.6</ele>
        <time>2024-08-01T06:46:03Z</time>
      </trkpt>
      <trkpt lat="43.52571" lon="1.26702">
        <ele>174.4</ele>
        <time>2024-08-01T06:46:04Z</time>
      </trkpt>
      <trkpt lat="43.52566" lon="1.26698">
        <ele>174.6</ele>
        <time>2024-08-01T06:46:05Z</time>
      </trkpt>
      <trkpt lat="43.52562" lon="1.26695">
        <ele>174.8</ele>
        <time>2024-08-01T06:46:06Z</time>
      </trkpt>
      <trkpt lat="43.52557" lon="1.26691">
        <ele>174.8</ele>
        <time>2024-08-01T06:46:07Z</time>
      </trkpt>
      <trkpt lat="43.52553" lon="1.26688">
        <ele>174.6</ele>
        <time>2024-08-01T06:46:08Z</time>
      </trkpt>
      <trkpt lat="43.52549" lon="1.26684">
        <ele>174.8</ele>
        <time>2024-08-01T06:46:09Z</time>
      </trkpt>
      <trkpt lat="43.52545" lon="1.2668">
        <ele>174.6</ele>
        <time>2024-08-01T06:46:10Z</time>
      </trkpt>
      <trkpt lat="43.52541" lon="1.26675">
        <ele>174.6</ele>
        <time>2024-08-01T06:46:11Z</time>
      </trkpt>
      <trkpt lat="43.52539" lon="1.26669">
        <ele>174.6</ele>
        <time>2024-08-01T06:46:12Z</time>
      </trkpt>
      <trkpt lat="43.52539" lon="1.26661">
        <ele>174.8</ele>
        <time>2024-08-01T06:46:13Z</time>
      </trkpt>
      <trkpt lat="43.52539" lon="1.26653">
        <ele>174.8</ele>
        <time>2024-08-01T06:46:14Z</time>
      </trkpt>
      <trkpt lat="43.5254" lon="1.26645">
        <ele>175</ele>
        <time>2024-08-01T06:46:15Z</time>
      </trkpt>
      <trkpt lat="43.5254" lon="1.26639">
        <ele>175</ele>
        <time>2024-08-01T06:46:16Z</time>
      </trkpt>
      <trkpt lat="43.52541" lon="1.26629">
        <ele>175</ele>
        <time>2024-08-01T06:46:17Z</time>
      </trkpt>
      <trkpt lat="43.52542" lon="1.2662">
        <ele>175</ele>
        <time>2024-08-01T06:46:18Z</time>
      </trkpt>
      <trkpt lat="43.52543" lon="1.26612">
        <ele>175</ele>
        <time>2024-08-01T06:46:19Z</time>
      </trkpt>
      <trkpt lat="43.52543" lon="1.26603">
        <ele>174.8</ele>
        <time>2024-08-01T06:46:20Z</time>
      </trkpt>
      <trkpt lat="43.52544" lon="1.26596">
        <ele>175</ele>
        <time>2024-08-01T06:46:21Z</time>
      </trkpt>
      <trkpt lat="43.52545" lon="1.26585">
        <ele>174.8</ele>
        <time>2024-08-01T06:46:22Z</time>
      </trkpt>
      <trkpt lat="43.52546" lon="1.26576">
        <ele>174.8</ele>
        <time>2024-08-01T06:46:23Z</time>
      </trkpt>
      <trkpt lat="43.52546" lon="1.26568">
        <ele>174.8</ele>
        <time>2024-08-01T06:46:24Z</time>
      </trkpt>
      <trkpt lat="43.52547" lon="1.26558">
        <ele>174.8</ele>
        <time>2024-08-01T06:46:25Z</time>
      </trkpt>
      <trkpt lat="43.52548" lon="1.26551">
        <ele>174.8</ele>
        <time>2024-08-01T06:46:26Z</time>
      </trkpt>
      <trkpt lat="43.52549" lon="1.2654">
        <ele>174.8</ele>
        <time>2024-08-01T06:46:27Z</time>
      </trkpt>
      <trkpt lat="43.52549" lon="1.26531">
        <ele>174.8</ele>
        <time>2024-08-01T06:46:28Z</time>
      </trkpt>
      <trkpt lat="43.5255" lon="1.26522">
        <ele>174.8</ele>
        <time>2024-08-01T06:46:29Z</time>
      </trkpt>
      <trkpt lat="43.5255" lon="1.26512">
        <ele>174.8</ele>
        <time>2024-08-01T06:46:30Z</time>
      </trkpt>
      <trkpt lat="43.5255" lon="1.26503">
        <ele>174.8</ele>
        <time>2024-08-01T06:46:31Z</time>
      </trkpt>
      <trkpt lat="43.5255" lon="1.26493">
        <ele>175</ele>
        <time>2024-08-01T06:46:32Z</time>
      </trkpt>
      <trkpt lat="43.5255" lon="1.26484">
        <ele>175</ele>
        <time>2024-08-01T06:46:33Z</time>
      </trkpt>
      <trkpt lat="43.52549" lon="1.26475">
        <ele>174.8</ele>
        <time>2024-08-01T06:46:34Z</time>
      </trkpt>
      <trkpt lat="43.52547" lon="1.26465">
        <ele>174.8</ele>
        <time>2024-08-01T06:46:35Z</time>
      </trkpt>
      <trkpt lat="43.52545" lon="1.26456">
        <ele>175</ele>
        <time>2024-08-01T06:46:36Z</time>
      </trkpt>
      <trkpt lat="43.52543" lon="1.26447">
        <ele>175</ele>
        <time>2024-08-01T06:46:37Z</time>
      </trkpt>
      <trkpt lat="43.52541" lon="1.26439">
        <ele>175.2</ele>
        <time>2024-08-01T06:46:38Z</time>
      </trkpt>
      <trkpt lat="43.52538" lon="1.2643">
        <ele>175.4</ele>
        <time>2024-08-01T06:46:39Z</time>
      </trkpt>
      <trkpt lat="43.52535" lon="1.26422">
        <ele>175.4</ele>
        <time>2024-08-01T06:46:40Z</time>
      </trkpt>
      <trkpt lat="43.52531" lon="1.26414">
        <ele>175.4</ele>
        <time>2024-08-01T06:46:41Z</time>
      </trkpt>
      <trkpt lat="43.52527" lon="1.26407">
        <ele>175.6</ele>
        <time>2024-08-01T06:46:42Z</time>
      </trkpt>
      <trkpt lat="43.52523" lon="1.264">
        <ele>175.8</ele>
        <time>2024-08-01T06:46:43Z</time>
      </trkpt>
      <trkpt lat="43.52518" lon="1.26393">
        <ele>175.6</ele>
        <time>2024-08-01T06:46:44Z</time>
      </trkpt>
      <trkpt lat="43.52514" lon="1.26386">
        <ele>175.6</ele>
        <time>2024-08-01T06:46:45Z</time>
      </trkpt>
      <trkpt lat="43.5251" lon="1.26379">
        <ele>175.6</ele>
        <time>2024-08-01T06:46:46Z</time>
      </trkpt>
      <trkpt lat="43.52506" lon="1.26373">
        <ele>175.6</ele>
        <time>2024-08-01T06:46:47Z</time>
      </trkpt>
      <trkpt lat="43.52501" lon="1.26366">
        <ele>175.6</ele>
        <time>2024-08-01T06:46:48Z</time>
      </trkpt>
      <trkpt lat="43.52497" lon="1.2636">
        <ele>175.6</ele>
        <time>2024-08-01T06:46:49Z</time>
      </trkpt>
      <trkpt lat="43.52492" lon="1.26353">
        <ele>175.8</ele>
        <time>2024-08-01T06:46:50Z</time>
      </trkpt>
      <trkpt lat="43.52488" lon="1.26347">
        <ele>175.8</ele>
        <time>2024-08-01T06:46:51Z</time>
      </trkpt>
      <trkpt lat="43.52483" lon="1.2634">
        <ele>176</ele>
        <time>2024-08-01T06:46:52Z</time>
      </trkpt>
      <trkpt lat="43.52479" lon="1.26334">
        <ele>176</ele>
        <time>2024-08-01T06:46:53Z</time>
      </trkpt>
      <trkpt lat="43.52475" lon="1.26328">
        <ele>175.8</ele>
        <time>2024-08-01T06:46:54Z</time>
      </trkpt>
      <trkpt lat="43.5247" lon="1.26321">
        <ele>176</ele>
        <time>2024-08-01T06:46:55Z</time>
      </trkpt>
      <trkpt lat="43.52466" lon="1.26315">
        <ele>176</ele>
        <time>2024-08-01T06:46:56Z</time>
      </trkpt>
      <trkpt lat="43.52462" lon="1.26308">
        <ele>176</ele>
        <time>2024-08-01T06:46:57Z</time>
      </trkpt>
      <trkpt lat="43.52457" lon="1.26302">
        <ele>176</ele>
        <time>2024-08-01T06:46:58Z</time>
      </trkpt>
      <trkpt lat="43.52453" lon="1.26295">
        <ele>176</ele>
        <time>2024-08-01T06:46:59Z</time>
      </trkpt>
      <trkpt lat="43.52449" lon="1.26288">
        <ele>176</ele>
        <time>2024-08-01T06:47:00Z</time>
      </trkpt>
      <trkpt lat="43.52445" lon="1.26282">
        <ele>176</ele>
        <time>2024-08-01T06:47:01Z</time>
      </trkpt>
      <trkpt lat="43.52441" lon="1.26275">
        <ele>176</ele>
        <time>2024-08-01T06:47:02Z</time>
      </trkpt>
      <trkpt lat="43.52438" lon="1.26268">
        <ele>176</ele>
        <time>2024-08-01T06:47:03Z</time>
      </trkpt>
      <trkpt lat="43.52434" lon="1.26261">
        <ele>176</ele>
        <time>2024-08-01T06:47:04Z</time>
      </trkpt>
      <trkpt lat="43.5243" lon="1.26254">
        <ele>176</ele>
        <time>2024-08-01T06:47:05Z</time>
      </trkpt>
      <trkpt lat="43.52427" lon="1.26246">
        <ele>176.2</ele>
        <time>2024-08-01T06:47:06Z</time>
      </trkpt>
      <trkpt lat="43.52425" lon="1.26238">
        <ele>176.2</ele>
        <time>2024-08-01T06:47:07Z</time>
      </trkpt>
      <trkpt lat="43.52422" lon="1.2623">
        <ele>176.2</ele>
        <time>2024-08-01T06:47:08Z</time>
      </trkpt>
      <trkpt lat="43.5242" lon="1.26223">
        <ele>176.2</ele>
        <time>2024-08-01T06:47:09Z</time>
      </trkpt>
      <trkpt lat="43.52418" lon="1.26215">
        <ele>176.2</ele>
        <time>2024-08-01T06:47:10Z</time>
      </trkpt>
      <trkpt lat="43.52417" lon="1.26204">
        <ele>176.2</ele>
        <time>2024-08-01T06:47:11Z</time>
      </trkpt>
      <trkpt lat="43.52416" lon="1.26195">
        <ele>176.2</ele>
        <time>2024-08-01T06:47:12Z</time>
      </trkpt>
      <trkpt lat="43.52415" lon="1.26187">
        <ele>176.2</ele>
        <time>2024-08-01T06:47:13Z</time>
      </trkpt>
      <trkpt lat="43.52415" lon="1.26178">
        <ele>176.2</ele>
        <time>2024-08-01T06:47:14Z</time>
      </trkpt>
      <trkpt lat="43.52416" lon="1.2617">
        <ele>176.2</ele>
        <time>2024-08-01T06:47:15Z</time>
      </trkpt>
      <trkpt lat="43.52416" lon="1.26162">
        <ele>176.2</ele>
        <time>2024-08-01T06:47:16Z</time>
      </trkpt>
      <trkpt lat="43.52417" lon="1.26154">
        <ele>176.4</ele>
        <time>2024-08-01T06:47:17Z</time>
      </trkpt>
      <trkpt lat="43.52418" lon="1.26147">
        <ele>176.4</ele>
        <time>2024-08-01T06:47:18Z</time>
      </trkpt>
      <trkpt lat="43.5242" lon="1.26139">
        <ele>176.4</ele>
        <time>2024-08-01T06:47:19Z</time>
      </trkpt>
      <trkpt lat="43.52421" lon="1.26133">
        <ele>176.4</ele>
        <time>2024-08-01T06:47:20Z</time>
      </trkpt>
      <trkpt lat="43.52424" lon="1.26126">
        <ele>176.4</ele>
        <time>2024-08-01T06:47:21Z</time>
      </trkpt>
      <trkpt lat="43.52426" lon="1.26119">
        <ele>176.6</ele>
        <time>2024-08-01T06:47:22Z</time>
      </trkpt>
      <trkpt lat="43.52428" lon="1.26112">
        <ele>177.2</ele>
        <time>2024-08-01T06:47:23Z</time>
      </trkpt>
      <trkpt lat="43.52431" lon="1.26104">
        <ele>177</ele>
        <time>2024-08-01T06:47:24Z</time>
      </trkpt>
      <trkpt lat="43.52432" lon="1.26097">
        <ele>177.4</ele>
        <time>2024-08-01T06:47:25Z</time>
      </trkpt>
      <trkpt lat="43.52435" lon="1.26088">
        <ele>177.2</ele>
        <time>2024-08-01T06:47:26Z</time>
      </trkpt>
      <trkpt lat="43.52438" lon="1.26081">
        <ele>177.4</ele>
        <time>2024-08-01T06:47:27Z</time>
      </trkpt>
      <trkpt lat="43.5244" lon="1.26073">
        <ele>177.8</ele>
        <time>2024-08-01T06:47:28Z</time>
      </trkpt>
      <trkpt lat="43.52443" lon="1.26067">
        <ele>178</ele>
        <time>2024-08-01T06:47:29Z</time>
      </trkpt>
      <trkpt lat="43.52445" lon="1.26059">
        <ele>178</ele>
        <time>2024-08-01T06:47:30Z</time>
      </trkpt>
      <trkpt lat="43.52448" lon="1.26049">
        <ele>178.2</ele>
        <time>2024-08-01T06:47:31Z</time>
      </trkpt>
      <trkpt lat="43.52451" lon="1.26042">
        <ele>178.2</ele>
        <time>2024-08-01T06:47:32Z</time>
      </trkpt>
      <trkpt lat="43.52454" lon="1.26034">
        <ele>178.2</ele>
        <time>2024-08-01T06:47:33Z</time>
      </trkpt>
      <trkpt lat="43.52456" lon="1.26027">
        <ele>178.2</ele>
        <time>2024-08-01T06:47:34Z</time>
      </trkpt>
      <trkpt lat="43.52458" lon="1.26019">
        <ele>178.2</ele>
        <time>2024-08-01T06:47:35Z</time>
      </trkpt>
      <trkpt lat="43.52461" lon="1.26009">
        <ele>178.2</ele>
        <time>2024-08-01T06:47:36Z</time>
      </trkpt>
      <trkpt lat="43.52463" lon="1.26">
        <ele>178.2</ele>
        <time>2024-08-01T06:47:37Z</time>
      </trkpt>
      <trkpt lat="43.52465" lon="1.25991">
        <ele>178.2</ele>
        <time>2024-08-01T06:47:38Z</time>
      </trkpt>
      <trkpt lat="43.52466" lon="1.25982">
        <ele>178.2</ele>
        <time>2024-08-01T06:47:39Z</time>
      </trkpt>
      <trkpt lat="43.52467" lon="1.25972">
        <ele>178.2</ele>
        <time>2024-08-01T06:47:40Z</time>
      </trkpt>
      <trkpt lat="43.52468" lon="1.25962">
        <ele>177.8</ele>
        <time>2024-08-01T06:47:41Z</time>
      </trkpt>
      <trkpt lat="43.52469" lon="1.25952">
        <ele>178</ele>
        <time>2024-08-01T06:47:42Z</time>
      </trkpt>
      <trkpt lat="43.52469" lon="1.25942">
        <ele>177.6</ele>
        <time>2024-08-01T06:47:43Z</time>
      </trkpt>
      <trkpt lat="43.52469" lon="1.25932">
        <ele>177</ele>
        <time>2024-08-01T06:47:44Z</time>
      </trkpt>
      <trkpt lat="43.52469" lon="1.25923">
        <ele>177</ele>
        <time>2024-08-01T06:47:45Z</time>
      </trkpt>
      <trkpt lat="43.52468" lon="1.25911">
        <ele>177</ele>
        <time>2024-08-01T06:47:46Z</time>
      </trkpt>
      <trkpt lat="43.52468" lon="1.259">
        <ele>176.8</ele>
        <time>2024-08-01T06:47:47Z</time>
      </trkpt>
      <trkpt lat="43.52467" lon="1.25889">
        <ele>176.4</ele>
        <time>2024-08-01T06:47:48Z</time>
      </trkpt>
      <trkpt lat="43.52467" lon="1.25879">
        <ele>176.4</ele>
        <time>2024-08-01T06:47:49Z</time>
      </trkpt>
      <trkpt lat="43.52467" lon="1.25872">
        <ele>176</ele>
        <time>2024-08-01T06:47:50Z</time>
      </trkpt>
      <trkpt lat="43.52467" lon="1.25861">
        <ele>175.8</ele>
        <time>2024-08-01T06:47:51Z</time>
      </trkpt>
      <trkpt lat="43.52467" lon="1.25852">
        <ele>175.6</ele>
        <time>2024-08-01T06:47:52Z</time>
      </trkpt>
      <trkpt lat="43.52467" lon="1.25843">
        <ele>175.6</ele>
        <time>2024-08-01T06:47:53Z</time>
      </trkpt>
      <trkpt lat="43.52467" lon="1.25834">
        <ele>175.6</ele>
        <time>2024-08-01T06:47:54Z</time>
      </trkpt>
      <trkpt lat="43.52468" lon="1.25826">
        <ele>175.4</ele>
        <time>2024-08-01T06:47:55Z</time>
      </trkpt>
      <trkpt lat="43.52468" lon="1.25817">
        <ele>175.4</ele>
        <time>2024-08-01T06:47:56Z</time>
      </trkpt>
      <trkpt lat="43.52469" lon="1.25808">
        <ele>175.4</ele>
        <time>2024-08-01T06:47:57Z</time>
      </trkpt>
      <trkpt lat="43.52469" lon="1.25799">
        <ele>175.4</ele>
        <time>2024-08-01T06:47:58Z</time>
      </trkpt>
      <trkpt lat="43.52469" lon="1.25792">
        <ele>175.4</ele>
        <time>2024-08-01T06:47:59Z</time>
      </trkpt>
      <trkpt lat="43.5247" lon="1.25783">
        <ele>175.4</ele>
        <time>2024-08-01T06:48:00Z</time>
      </trkpt>
      <trkpt lat="43.52471" lon="1.25773">
        <ele>175.4</ele>
        <time>2024-08-01T06:48:01Z</time>
      </trkpt>
      <trkpt lat="43.52472" lon="1.25764">
        <ele>175.4</ele>
        <time>2024-08-01T06:48:02Z</time>
      </trkpt>
      <trkpt lat="43.52472" lon="1.25755">
        <ele>175.4</ele>
        <time>2024-08-01T06:48:03Z</time>
      </trkpt>
      <trkpt lat="43.52473" lon="1.25746">
        <ele>175.4</ele>
        <time>2024-08-01T06:48:04Z</time>
      </trkpt>
      <trkpt lat="43.52474" lon="1.25737">
        <ele>175.4</ele>
        <time>2024-08-01T06:48:05Z</time>
      </trkpt>
      <trkpt lat="43.52474" lon="1.25728">
        <ele>175.4</ele>
        <time>2024-08-01T06:48:06Z</time>
      </trkpt>
      <trkpt lat="43.52475" lon="1.2572">
        <ele>175.4</ele>
        <time>2024-08-01T06:48:07Z</time>
      </trkpt>
      <trkpt lat="43.52476" lon="1.2571">
        <ele>175.4</ele>
        <time>2024-08-01T06:48:08Z</time>
      </trkpt>
      <trkpt lat="43.52477" lon="1.25701">
        <ele>175.4</ele>
        <time>2024-08-01T06:48:09Z</time>
      </trkpt>
      <trkpt lat="43.52477" lon="1.25692">
        <ele>175.4</ele>
        <time>2024-08-01T06:48:10Z</time>
      </trkpt>
      <trkpt lat="43.52478" lon="1.25684">
        <ele>175.4</ele>
        <time>2024-08-01T06:48:11Z</time>
      </trkpt>
      <trkpt lat="43.52478" lon="1.25675">
        <ele>175.4</ele>
        <time>2024-08-01T06:48:12Z</time>
      </trkpt>
      <trkpt lat="43.52479" lon="1.25666">
        <ele>175.4</ele>
        <time>2024-08-01T06:48:13Z</time>
      </trkpt>
      <trkpt lat="43.5248" lon="1.25657">
        <ele>175.4</ele>
        <time>2024-08-01T06:48:14Z</time>
      </trkpt>
      <trkpt lat="43.52481" lon="1.25648">
        <ele>175.4</ele>
        <time>2024-08-01T06:48:15Z</time>
      </trkpt>
      <trkpt lat="43.52482" lon="1.25639">
        <ele>175.4</ele>
        <time>2024-08-01T06:48:16Z</time>
      </trkpt>
      <trkpt lat="43.52483" lon="1.2563">
        <ele>175.4</ele>
        <time>2024-08-01T06:48:17Z</time>
      </trkpt>
      <trkpt lat="43.52484" lon="1.25622">
        <ele>175.4</ele>
        <time>2024-08-01T06:48:18Z</time>
      </trkpt>
      <trkpt lat="43.52485" lon="1.25613">
        <ele>175.6</ele>
        <time>2024-08-01T06:48:19Z</time>
      </trkpt>
      <trkpt lat="43.52487" lon="1.25605">
        <ele>175.6</ele>
        <time>2024-08-01T06:48:20Z</time>
      </trkpt>
      <trkpt lat="43.52489" lon="1.25597">
        <ele>175.4</ele>
        <time>2024-08-01T06:48:21Z</time>
      </trkpt>
      <trkpt lat="43.52491" lon="1.2559">
        <ele>175.4</ele>
        <time>2024-08-01T06:48:22Z</time>
      </trkpt>
      <trkpt lat="43.52494" lon="1.25583">
        <ele>175.4</ele>
        <time>2024-08-01T06:48:23Z</time>
      </trkpt>
      <trkpt lat="43.52497" lon="1.25576">
        <ele>175.4</ele>
        <time>2024-08-01T06:48:24Z</time>
      </trkpt>
      <trkpt lat="43.525" lon="1.25569">
        <ele>175.4</ele>
        <time>2024-08-01T06:48:25Z</time>
      </trkpt>
      <trkpt lat="43.52503" lon="1.25563">
        <ele>175.4</ele>
        <time>2024-08-01T06:48:26Z</time>
      </trkpt>
      <trkpt lat="43.52507" lon="1.25557">
        <ele>175.4</ele>
        <time>2024-08-01T06:48:27Z</time>
      </trkpt>
      <trkpt lat="43.52511" lon="1.25551">
        <ele>175.4</ele>
        <time>2024-08-01T06:48:28Z</time>
      </trkpt>
      <trkpt lat="43.52514" lon="1.25545">
        <ele>175.4</ele>
        <time>2024-08-01T06:48:29Z</time>
      </trkpt>
      <trkpt lat="43.52518" lon="1.25539">
        <ele>175.4</ele>
        <time>2024-08-01T06:48:30Z</time>
      </trkpt>
      <trkpt lat="43.52521" lon="1.25532">
        <ele>175.4</ele>
        <time>2024-08-01T06:48:31Z</time>
      </trkpt>
      <trkpt lat="43.52524" lon="1.25526">
        <ele>175.4</ele>
        <time>2024-08-01T06:48:32Z</time>
      </trkpt>
      <trkpt lat="43.52527" lon="1.25519">
        <ele>175.4</ele>
        <time>2024-08-01T06:48:33Z</time>
      </trkpt>
      <trkpt lat="43.5253" lon="1.25513">
        <ele>175.4</ele>
        <time>2024-08-01T06:48:34Z</time>
      </trkpt>
      <trkpt lat="43.52532" lon="1.25507">
        <ele>175.4</ele>
        <time>2024-08-01T06:48:35Z</time>
      </trkpt>
      <trkpt lat="43.52535" lon="1.255">
        <ele>175.4</ele>
        <time>2024-08-01T06:48:36Z</time>
      </trkpt>
      <trkpt lat="43.52537" lon="1.25495">
        <ele>175.4</ele>
        <time>2024-08-01T06:48:37Z</time>
      </trkpt>
      <trkpt lat="43.52537" lon="1.25488">
        <ele>175.4</ele>
        <time>2024-08-01T06:48:38Z</time>
      </trkpt>
      <trkpt lat="43.52535" lon="1.25481">
        <ele>175.4</ele>
        <time>2024-08-01T06:48:39Z</time>
      </trkpt>
      <trkpt lat="43.52531" lon="1.25477">
        <ele>175.4</ele>
        <time>2024-08-01T06:48:40Z</time>
      </trkpt>
      <trkpt lat="43.52528" lon="1.25471">
        <ele>175.6</ele>
        <time>2024-08-01T06:48:41Z</time>
      </trkpt>
      <trkpt lat="43.52527" lon="1.25466">
        <ele>175.6</ele>
        <time>2024-08-01T06:48:42Z</time>
      </trkpt>
      <trkpt lat="43.52526" lon="1.25458">
        <ele>175.6</ele>
        <time>2024-08-01T06:48:43Z</time>
      </trkpt>
      <trkpt lat="43.52527" lon="1.25449">
        <ele>175.6</ele>
        <time>2024-08-01T06:48:44Z</time>
      </trkpt>
      <trkpt lat="43.52528" lon="1.25441">
        <ele>175.6</ele>
        <time>2024-08-01T06:48:45Z</time>
      </trkpt>
      <trkpt lat="43.5253" lon="1.25435">
        <ele>175.6</ele>
        <time>2024-08-01T06:48:46Z</time>
      </trkpt>
      <trkpt lat="43.52531" lon="1.25426">
        <ele>175.6</ele>
        <time>2024-08-01T06:48:47Z</time>
      </trkpt>
      <trkpt lat="43.52533" lon="1.25418">
        <ele>175.6</ele>
        <time>2024-08-01T06:48:48Z</time>
      </trkpt>
      <trkpt lat="43.52535" lon="1.25408">
        <ele>175.6</ele>
        <time>2024-08-01T06:48:49Z</time>
      </trkpt>
      <trkpt lat="43.52536" lon="1.254">
        <ele>175.6</ele>
        <time>2024-08-01T06:48:50Z</time>
      </trkpt>
      <trkpt lat="43.52538" lon="1.25393">
        <ele>175.6</ele>
        <time>2024-08-01T06:48:51Z</time>
      </trkpt>
      <trkpt lat="43.52539" lon="1.25384">
        <ele>175.6</ele>
        <time>2024-08-01T06:48:52Z</time>
      </trkpt>
      <trkpt lat="43.52542" lon="1.25375">
        <ele>175.6</ele>
        <time>2024-08-01T06:48:53Z</time>
      </trkpt>
      <trkpt lat="43.52543" lon="1.25367">
        <ele>175.6</ele>
        <time>2024-08-01T06:48:54Z</time>
      </trkpt>
      <trkpt lat="43.52545" lon="1.25359">
        <ele>175.6</ele>
        <time>2024-08-01T06:48:55Z</time>
      </trkpt>
      <trkpt lat="43.52547" lon="1.25352">
        <ele>175.6</ele>
        <time>2024-08-01T06:48:56Z</time>
      </trkpt>
      <trkpt lat="43.52548" lon="1.25344">
        <ele>175.6</ele>
        <time>2024-08-01T06:48:57Z</time>
      </trkpt>
      <trkpt lat="43.5255" lon="1.25334">
        <ele>175.6</ele>
        <time>2024-08-01T06:48:58Z</time>
      </trkpt>
      <trkpt lat="43.52552" lon="1.25326">
        <ele>175.6</ele>
        <time>2024-08-01T06:48:59Z</time>
      </trkpt>
      <trkpt lat="43.52553" lon="1.25317">
        <ele>175.8</ele>
        <time>2024-08-01T06:49:00Z</time>
      </trkpt>
      <trkpt lat="43.52554" lon="1.2531">
        <ele>175.8</ele>
        <time>2024-08-01T06:49:01Z</time>
      </trkpt>
      <trkpt lat="43.52555" lon="1.25302">
        <ele>175.8</ele>
        <time>2024-08-01T06:49:02Z</time>
      </trkpt>
      <trkpt lat="43.52556" lon="1.25291">
        <ele>175.8</ele>
        <time>2024-08-01T06:49:03Z</time>
      </trkpt>
      <trkpt lat="43.52557" lon="1.25283">
        <ele>175.8</ele>
        <time>2024-08-01T06:49:04Z</time>
      </trkpt>
      <trkpt lat="43.52558" lon="1.25274">
        <ele>175.8</ele>
        <time>2024-08-01T06:49:05Z</time>
      </trkpt>
      <trkpt lat="43.52558" lon="1.25267">
        <ele>175.8</ele>
        <time>2024-08-01T06:49:06Z</time>
      </trkpt>
      <trkpt lat="43.52559" lon="1.25258">
        <ele>175.8</ele>
        <time>2024-08-01T06:49:07Z</time>
      </trkpt>
      <trkpt lat="43.52559" lon="1.25247">
        <ele>175.8</ele>
        <time>2024-08-01T06:49:08Z</time>
      </trkpt>
      <trkpt lat="43.52559" lon="1.25238">
        <ele>175.8</ele>
        <time>2024-08-01T06:49:09Z</time>
      </trkpt>
      <trkpt lat="43.5256" lon="1.25231">
        <ele>175.8</ele>
        <time>2024-08-01T06:49:10Z</time>
      </trkpt>
      <trkpt lat="43.5256" lon="1.25222">
        <ele>175.8</ele>
        <time>2024-08-01T06:49:11Z</time>
      </trkpt>
      <trkpt lat="43.5256" lon="1.25214">
        <ele>175.8</ele>
        <time>2024-08-01T06:49:12Z</time>
      </trkpt>
      <trkpt lat="43.52561" lon="1.25204">
        <ele>175.8</ele>
        <time>2024-08-01T06:49:13Z</time>
      </trkpt>
      <trkpt lat="43.52561" lon="1.25195">
        <ele>175.8</ele>
        <time>2024-08-01T06:49:14Z</time>
      </trkpt>
      <trkpt lat="43.52561" lon="1.25188">
        <ele>175.8</ele>
        <time>2024-08-01T06:49:15Z</time>
      </trkpt>
      <trkpt lat="43.52562" lon="1.2518">
        <ele>175.8</ele>
        <time>2024-08-01T06:49:16Z</time>
      </trkpt>
      <trkpt lat="43.52563" lon="1.25161">
        <ele>175.8</ele>
        <time>2024-08-01T06:49:17Z</time>
      </trkpt>
      <trkpt lat="43.52563" lon="1.25161">
        <ele>175.8</ele>
        <time>2024-08-01T06:49:18Z</time>
      </trkpt>
      <trkpt lat="43.52564" lon="1.25153">
        <ele>175.8</ele>
        <time>2024-08-01T06:49:19Z</time>
      </trkpt>
      <trkpt lat="43.52564" lon="1.25146">
        <ele>175.8</ele>
        <time>2024-08-01T06:49:20Z</time>
      </trkpt>
      <trkpt lat="43.52564" lon="1.25137">
        <ele>175.8</ele>
        <time>2024-08-01T06:49:21Z</time>
      </trkpt>
      <trkpt lat="43.52565" lon="1.25126">
        <ele>175.8</ele>
        <time>2024-08-01T06:49:22Z</time>
      </trkpt>
      <trkpt lat="43.52565" lon="1.25117">
        <ele>175.8</ele>
        <time>2024-08-01T06:49:23Z</time>
      </trkpt>
      <trkpt lat="43.52564" lon="1.25108">
        <ele>175.8</ele>
        <time>2024-08-01T06:49:24Z</time>
      </trkpt>
      <trkpt lat="43.52564" lon="1.25101">
        <ele>175.8</ele>
        <time>2024-08-01T06:49:25Z</time>
      </trkpt>
      <trkpt lat="43.52563" lon="1.25092">
        <ele>175.8</ele>
        <time>2024-08-01T06:49:26Z</time>
      </trkpt>
      <trkpt lat="43.52562" lon="1.25081">
        <ele>175.8</ele>
        <time>2024-08-01T06:49:27Z</time>
      </trkpt>
      <trkpt lat="43.52561" lon="1.25072">
        <ele>175.8</ele>
        <time>2024-08-01T06:49:28Z</time>
      </trkpt>
      <trkpt lat="43.52559" lon="1.25063">
        <ele>175.8</ele>
        <time>2024-08-01T06:49:29Z</time>
      </trkpt>
      <trkpt lat="43.52558" lon="1.25056">
        <ele>175.8</ele>
        <time>2024-08-01T06:49:30Z</time>
      </trkpt>
      <trkpt lat="43.52554" lon="1.25037">
        <ele>175.8</ele>
        <time>2024-08-01T06:49:31Z</time>
      </trkpt>
      <trkpt lat="43.52552" lon="1.25029">
        <ele>175.8</ele>
        <time>2024-08-01T06:49:32Z</time>
      </trkpt>
      <trkpt lat="43.52552" lon="1.25029">
        <ele>175.8</ele>
        <time>2024-08-01T06:49:33Z</time>
      </trkpt>
      <trkpt lat="43.52548" lon="1.25013">
        <ele>175.6</ele>
        <time>2024-08-01T06:49:34Z</time>
      </trkpt>
      <trkpt lat="43.52548" lon="1.25013">
        <ele>175.6</ele>
        <time>2024-08-01T06:49:35Z</time>
      </trkpt>
      <trkpt lat="43.52543" lon="1.24994">
        <ele>175.6</ele>
        <time>2024-08-01T06:49:36Z</time>
      </trkpt>
      <trkpt lat="43.52541" lon="1.24986">
        <ele>175.8</ele>
        <time>2024-08-01T06:49:37Z</time>
      </trkpt>
      <trkpt lat="43.5254" lon="1.24979">
        <ele>175.8</ele>
        <time>2024-08-01T06:49:38Z</time>
      </trkpt>
      <trkpt lat="43.52538" lon="1.2497">
        <ele>175.8</ele>
        <time>2024-08-01T06:49:39Z</time>
      </trkpt>
      <trkpt lat="43.52538" lon="1.2497">
        <ele>175.8</ele>
        <time>2024-08-01T06:49:40Z</time>
      </trkpt>
      <trkpt lat="43.52533" lon="1.24951">
        <ele>175.8</ele>
        <time>2024-08-01T06:49:41Z</time>
      </trkpt>
      <trkpt lat="43.52531" lon="1.24942">
        <ele>175.8</ele>
        <time>2024-08-01T06:49:42Z</time>
      </trkpt>
      <trkpt lat="43.52531" lon="1.24942">
        <ele>175.8</ele>
        <time>2024-08-01T06:49:43Z</time>
      </trkpt>
      <trkpt lat="43.52529" lon="1.24926">
        <ele>175.8</ele>
        <time>2024-08-01T06:49:44Z</time>
      </trkpt>
      <trkpt lat="43.52529" lon="1.24926">
        <ele>175.8</ele>
        <time>2024-08-01T06:49:45Z</time>
      </trkpt>
      <trkpt lat="43.52527" lon="1.24905">
        <ele>175.8</ele>
        <time>2024-08-01T06:49:46Z</time>
      </trkpt>
      <trkpt lat="43.52526" lon="1.24896">
        <ele>175.8</ele>
        <time>2024-08-01T06:49:47Z</time>
      </trkpt>
      <trkpt lat="43.52526" lon="1.24888">
        <ele>175.8</ele>
        <time>2024-08-01T06:49:48Z</time>
      </trkpt>
      <trkpt lat="43.52525" lon="1.24879">
        <ele>176</ele>
        <time>2024-08-01T06:49:49Z</time>
      </trkpt>
      <trkpt lat="43.52525" lon="1.24869">
        <ele>176</ele>
        <time>2024-08-01T06:49:50Z</time>
      </trkpt>
      <trkpt lat="43.52525" lon="1.24869">
        <ele>176</ele>
        <time>2024-08-01T06:49:51Z</time>
      </trkpt>
      <trkpt lat="43.52525" lon="1.24853">
        <ele>176</ele>
        <time>2024-08-01T06:49:52Z</time>
      </trkpt>
      <trkpt lat="43.52525" lon="1.24853">
        <ele>176</ele>
        <time>2024-08-01T06:49:53Z</time>
      </trkpt>
      <trkpt lat="43.52524" lon="1.24835">
        <ele>176.2</ele>
        <time>2024-08-01T06:49:54Z</time>
      </trkpt>
      <trkpt lat="43.52524" lon="1.24824">
        <ele>176.2</ele>
        <time>2024-08-01T06:49:55Z</time>
      </trkpt>
      <trkpt lat="43.52524" lon="1.24815">
        <ele>176.2</ele>
        <time>2024-08-01T06:49:56Z</time>
      </trkpt>
      <trkpt lat="43.52524" lon="1.24806">
        <ele>176.4</ele>
        <time>2024-08-01T06:49:57Z</time>
      </trkpt>
      <trkpt lat="43.52524" lon="1.24799">
        <ele>176.4</ele>
        <time>2024-08-01T06:49:58Z</time>
      </trkpt>
      <trkpt lat="43.52524" lon="1.2479">
        <ele>176.4</ele>
        <time>2024-08-01T06:49:59Z</time>
      </trkpt>
      <trkpt lat="43.52523" lon="1.2478">
        <ele>176.4</ele>
        <time>2024-08-01T06:50:00Z</time>
      </trkpt>
      <trkpt lat="43.52523" lon="1.24771">
        <ele>176.4</ele>
        <time>2024-08-01T06:50:01Z</time>
      </trkpt>
      <trkpt lat="43.52522" lon="1.24762">
        <ele>176.4</ele>
        <time>2024-08-01T06:50:02Z</time>
      </trkpt>
      <trkpt lat="43.52521" lon="1.24755">
        <ele>176.4</ele>
        <time>2024-08-01T06:50:03Z</time>
      </trkpt>
      <trkpt lat="43.52519" lon="1.24746">
        <ele>176.4</ele>
        <time>2024-08-01T06:50:04Z</time>
      </trkpt>
      <trkpt lat="43.52519" lon="1.24746">
        <ele>176.4</ele>
        <time>2024-08-01T06:50:05Z</time>
      </trkpt>
      <trkpt lat="43.52514" lon="1.24727">
        <ele>176.4</ele>
        <time>2024-08-01T06:50:06Z</time>
      </trkpt>
      <trkpt lat="43.52513" lon="1.24721">
        <ele>176.4</ele>
        <time>2024-08-01T06:50:07Z</time>
      </trkpt>
      <trkpt lat="43.5251" lon="1.24712">
        <ele>176.4</ele>
        <time>2024-08-01T06:50:08Z</time>
      </trkpt>
      <trkpt lat="43.5251" lon="1.24712">
        <ele>176.4</ele>
        <time>2024-08-01T06:50:09Z</time>
      </trkpt>
      <trkpt lat="43.52506" lon="1.24694">
        <ele>176.4</ele>
        <time>2024-08-01T06:50:10Z</time>
      </trkpt>
      <trkpt lat="43.52504" lon="1.24686">
        <ele>176.4</ele>
        <time>2024-08-01T06:50:11Z</time>
      </trkpt>
      <trkpt lat="43.52502" lon="1.24679">
        <ele>176.4</ele>
        <time>2024-08-01T06:50:12Z</time>
      </trkpt>
      <trkpt lat="43.525" lon="1.2467">
        <ele>176.4</ele>
        <time>2024-08-01T06:50:13Z</time>
      </trkpt>
      <trkpt lat="43.525" lon="1.2467">
        <ele>176.4</ele>
        <time>2024-08-01T06:50:14Z</time>
      </trkpt>
      <trkpt lat="43.52496" lon="1.24652">
        <ele>176.4</ele>
        <time>2024-08-01T06:50:15Z</time>
      </trkpt>
      <trkpt lat="43.52493" lon="1.24644">
        <ele>176.4</ele>
        <time>2024-08-01T06:50:16Z</time>
      </trkpt>
      <trkpt lat="43.52492" lon="1.24637">
        <ele>176.4</ele>
        <time>2024-08-01T06:50:17Z</time>
      </trkpt>
      <trkpt lat="43.52489" lon="1.24629">
        <ele>176.6</ele>
        <time>2024-08-01T06:50:18Z</time>
      </trkpt>
      <trkpt lat="43.52487" lon="1.24619">
        <ele>176.6</ele>
        <time>2024-08-01T06:50:19Z</time>
      </trkpt>
      <trkpt lat="43.52485" lon="1.24611">
        <ele>176.6</ele>
        <time>2024-08-01T06:50:20Z</time>
      </trkpt>
      <trkpt lat="43.52483" lon="1.24602">
        <ele>176.6</ele>
        <time>2024-08-01T06:50:21Z</time>
      </trkpt>
      <trkpt lat="43.52481" lon="1.24595">
        <ele>176.6</ele>
        <time>2024-08-01T06:50:22Z</time>
      </trkpt>
      <trkpt lat="43.52479" lon="1.24587">
        <ele>176.6</ele>
        <time>2024-08-01T06:50:23Z</time>
      </trkpt>
      <trkpt lat="43.52476" lon="1.24577">
        <ele>176.6</ele>
        <time>2024-08-01T06:50:24Z</time>
      </trkpt>
      <trkpt lat="43.52474" lon="1.24568">
        <ele>176.6</ele>
        <time>2024-08-01T06:50:25Z</time>
      </trkpt>
      <trkpt lat="43.52472" lon="1.2456">
        <ele>176.6</ele>
        <time>2024-08-01T06:50:26Z</time>
      </trkpt>
      <trkpt lat="43.5247" lon="1.24553">
        <ele>176.6</ele>
        <time>2024-08-01T06:50:27Z</time>
      </trkpt>
      <trkpt lat="43.52468" lon="1.24545">
        <ele>176.6</ele>
        <time>2024-08-01T06:50:28Z</time>
      </trkpt>
      <trkpt lat="43.52466" lon="1.24534">
        <ele>176.6</ele>
        <time>2024-08-01T06:50:29Z</time>
      </trkpt>
      <trkpt lat="43.52463" lon="1.24526">
        <ele>176.6</ele>
        <time>2024-08-01T06:50:30Z</time>
      </trkpt>
      <trkpt lat="43.52461" lon="1.24517">
        <ele>176.6</ele>
        <time>2024-08-01T06:50:31Z</time>
      </trkpt>
      <trkpt lat="43.52459" lon="1.2451">
        <ele>176.6</ele>
        <time>2024-08-01T06:50:32Z</time>
      </trkpt>
      <trkpt lat="43.52457" lon="1.24502">
        <ele>176.6</ele>
        <time>2024-08-01T06:50:33Z</time>
      </trkpt>
      <trkpt lat="43.52454" lon="1.24491">
        <ele>176.6</ele>
        <time>2024-08-01T06:50:34Z</time>
      </trkpt>
      <trkpt lat="43.52452" lon="1.24483">
        <ele>176.6</ele>
        <time>2024-08-01T06:50:35Z</time>
      </trkpt>
      <trkpt lat="43.5245" lon="1.24474">
        <ele>176.8</ele>
        <time>2024-08-01T06:50:36Z</time>
      </trkpt>
      <trkpt lat="43.52448" lon="1.24466">
        <ele>176.8</ele>
        <time>2024-08-01T06:50:37Z</time>
      </trkpt>
      <trkpt lat="43.52446" lon="1.24457">
        <ele>176.8</ele>
        <time>2024-08-01T06:50:38Z</time>
      </trkpt>
      <trkpt lat="43.52443" lon="1.24449">
        <ele>176.8</ele>
        <time>2024-08-01T06:50:39Z</time>
      </trkpt>
      <trkpt lat="43.52441" lon="1.2444">
        <ele>177</ele>
        <time>2024-08-01T06:50:40Z</time>
      </trkpt>
      <trkpt lat="43.52439" lon="1.24431">
        <ele>177</ele>
        <time>2024-08-01T06:50:41Z</time>
      </trkpt>
      <trkpt lat="43.52437" lon="1.24422">
        <ele>177</ele>
        <time>2024-08-01T06:50:42Z</time>
      </trkpt>
      <trkpt lat="43.52437" lon="1.24422">
        <ele>177</ele>
        <time>2024-08-01T06:50:43Z</time>
      </trkpt>
      <trkpt lat="43.52433" lon="1.24404">
        <ele>177</ele>
        <time>2024-08-01T06:50:44Z</time>
      </trkpt>
      <trkpt lat="43.52431" lon="1.24395">
        <ele>177</ele>
        <time>2024-08-01T06:50:45Z</time>
      </trkpt>
      <trkpt lat="43.5243" lon="1.24386">
        <ele>177</ele>
        <time>2024-08-01T06:50:46Z</time>
      </trkpt>
      <trkpt lat="43.52428" lon="1.24378">
        <ele>177</ele>
        <time>2024-08-01T06:50:47Z</time>
      </trkpt>
      <trkpt lat="43.52427" lon="1.24369">
        <ele>177</ele>
        <time>2024-08-01T06:50:48Z</time>
      </trkpt>
      <trkpt lat="43.52425" lon="1.24361">
        <ele>176.8</ele>
        <time>2024-08-01T06:50:49Z</time>
      </trkpt>
      <trkpt lat="43.52424" lon="1.24353">
        <ele>176.8</ele>
        <time>2024-08-01T06:50:50Z</time>
      </trkpt>
      <trkpt lat="43.52423" lon="1.24344">
        <ele>176.8</ele>
        <time>2024-08-01T06:50:51Z</time>
      </trkpt>
      <trkpt lat="43.52423" lon="1.24344">
        <ele>176.8</ele>
        <time>2024-08-01T06:50:52Z</time>
      </trkpt>
      <trkpt lat="43.5242" lon="1.24328">
        <ele>176.8</ele>
        <time>2024-08-01T06:50:53Z</time>
      </trkpt>
      <trkpt lat="43.52418" lon="1.2432">
        <ele>176.8</ele>
        <time>2024-08-01T06:50:54Z</time>
      </trkpt>
      <trkpt lat="43.52417" lon="1.24312">
        <ele>176.8</ele>
        <time>2024-08-01T06:50:55Z</time>
      </trkpt>
      <trkpt lat="43.52415" lon="1.24304">
        <ele>176.8</ele>
        <time>2024-08-01T06:50:56Z</time>
      </trkpt>
      <trkpt lat="43.52414" lon="1.24296">
        <ele>176.8</ele>
        <time>2024-08-01T06:50:57Z</time>
      </trkpt>
      <trkpt lat="43.52412" lon="1.24288">
        <ele>176.8</ele>
        <time>2024-08-01T06:50:58Z</time>
      </trkpt>
      <trkpt lat="43.52411" lon="1.24279">
        <ele>176.8</ele>
        <time>2024-08-01T06:50:59Z</time>
      </trkpt>
      <trkpt lat="43.52409" lon="1.2427">
        <ele>176.8</ele>
        <time>2024-08-01T06:51:00Z</time>
      </trkpt>
      <trkpt lat="43.52408" lon="1.24262">
        <ele>176.8</ele>
        <time>2024-08-01T06:51:01Z</time>
      </trkpt>
      <trkpt lat="43.52407" lon="1.24253">
        <ele>176.8</ele>
        <time>2024-08-01T06:51:02Z</time>
      </trkpt>
      <trkpt lat="43.52405" lon="1.24245">
        <ele>176.8</ele>
        <time>2024-08-01T06:51:03Z</time>
      </trkpt>
      <trkpt lat="43.52404" lon="1.24236">
        <ele>176.8</ele>
        <time>2024-08-01T06:51:04Z</time>
      </trkpt>
      <trkpt lat="43.52402" lon="1.24227">
        <ele>176.8</ele>
        <time>2024-08-01T06:51:05Z</time>
      </trkpt>
      <trkpt lat="43.52402" lon="1.24227">
        <ele>176.8</ele>
        <time>2024-08-01T06:51:06Z</time>
      </trkpt>
      <trkpt lat="43.524" lon="1.2421">
        <ele>176.8</ele>
        <time>2024-08-01T06:51:07Z</time>
      </trkpt>
      <trkpt lat="43.52398" lon="1.24201">
        <ele>177</ele>
        <time>2024-08-01T06:51:08Z</time>
      </trkpt>
      <trkpt lat="43.52397" lon="1.24193">
        <ele>177</ele>
        <time>2024-08-01T06:51:09Z</time>
      </trkpt>
      <trkpt lat="43.52395" lon="1.24184">
        <ele>177</ele>
        <time>2024-08-01T06:51:10Z</time>
      </trkpt>
      <trkpt lat="43.52395" lon="1.24184">
        <ele>176.8</ele>
        <time>2024-08-01T06:51:11Z</time>
      </trkpt>
      <trkpt lat="43.52392" lon="1.24167">
        <ele>176.8</ele>
        <time>2024-08-01T06:51:12Z</time>
      </trkpt>
      <trkpt lat="43.52391" lon="1.24159">
        <ele>176.8</ele>
        <time>2024-08-01T06:51:13Z</time>
      </trkpt>
      <trkpt lat="43.52389" lon="1.2415">
        <ele>177</ele>
        <time>2024-08-01T06:51:14Z</time>
      </trkpt>
      <trkpt lat="43.52388" lon="1.24142">
        <ele>177</ele>
        <time>2024-08-01T06:51:15Z</time>
      </trkpt>
      <trkpt lat="43.52386" lon="1.24133">
        <ele>177</ele>
        <time>2024-08-01T06:51:16Z</time>
      </trkpt>
      <trkpt lat="43.52385" lon="1.24124">
        <ele>177</ele>
        <time>2024-08-01T06:51:17Z</time>
      </trkpt>
      <trkpt lat="43.52383" lon="1.24115">
        <ele>177</ele>
        <time>2024-08-01T06:51:18Z</time>
      </trkpt>
      <trkpt lat="43.52382" lon="1.24106">
        <ele>177</ele>
        <time>2024-08-01T06:51:19Z</time>
      </trkpt>
      <trkpt lat="43.52382" lon="1.24106">
        <ele>177</ele>
        <time>2024-08-01T06:51:20Z</time>
      </trkpt>
      <trkpt lat="43.52378" lon="1.24089">
        <ele>176.8</ele>
        <time>2024-08-01T06:51:21Z</time>
      </trkpt>
      <trkpt lat="43.52377" lon="1.2408">
        <ele>176.8</ele>
        <time>2024-08-01T06:51:22Z</time>
      </trkpt>
      <trkpt lat="43.52377" lon="1.2408">
        <ele>176.8</ele>
        <time>2024-08-01T06:51:23Z</time>
      </trkpt>
      <trkpt lat="43.52374" lon="1.24062">
        <ele>176.8</ele>
        <time>2024-08-01T06:51:24Z</time>
      </trkpt>
      <trkpt lat="43.52372" lon="1.24053">
        <ele>176.8</ele>
        <time>2024-08-01T06:51:25Z</time>
      </trkpt>
      <trkpt lat="43.52372" lon="1.24053">
        <ele>176.8</ele>
        <time>2024-08-01T06:51:26Z</time>
      </trkpt>
      <trkpt lat="43.52369" lon="1.24035">
        <ele>176.8</ele>
        <time>2024-08-01T06:51:27Z</time>
      </trkpt>
      <trkpt lat="43.52368" lon="1.24026">
        <ele>176.6</ele>
        <time>2024-08-01T06:51:28Z</time>
      </trkpt>
      <trkpt lat="43.52366" lon="1.24018">
        <ele>176.6</ele>
        <time>2024-08-01T06:51:29Z</time>
      </trkpt>
      <trkpt lat="43.52365" lon="1.24009">
        <ele>176.6</ele>
        <time>2024-08-01T06:51:30Z</time>
      </trkpt>
      <trkpt lat="43.52363" lon="1.24">
        <ele>176.6</ele>
        <time>2024-08-01T06:51:31Z</time>
      </trkpt>
      <trkpt lat="43.52362" lon="1.23991">
        <ele>176.6</ele>
        <time>2024-08-01T06:51:32Z</time>
      </trkpt>
      <trkpt lat="43.52361" lon="1.23982">
        <ele>176.8</ele>
        <time>2024-08-01T06:51:33Z</time>
      </trkpt>
      <trkpt lat="43.52361" lon="1.23982">
        <ele>176.8</ele>
        <time>2024-08-01T06:51:34Z</time>
      </trkpt>
      <trkpt lat="43.52357" lon="1.23965">
        <ele>176.8</ele>
        <time>2024-08-01T06:51:35Z</time>
      </trkpt>
      <trkpt lat="43.52356" lon="1.23956">
        <ele>176.8</ele>
        <time>2024-08-01T06:51:36Z</time>
      </trkpt>
      <trkpt lat="43.52354" lon="1.23947">
        <ele>176.8</ele>
        <time>2024-08-01T06:51:37Z</time>
      </trkpt>
      <trkpt lat="43.52352" lon="1.23938">
        <ele>176.8</ele>
        <time>2024-08-01T06:51:38Z</time>
      </trkpt>
      <trkpt lat="43.5235" lon="1.2393">
        <ele>176.8</ele>
        <time>2024-08-01T06:51:39Z</time>
      </trkpt>
      <trkpt lat="43.52348" lon="1.23921">
        <ele>176.8</ele>
        <time>2024-08-01T06:51:40Z</time>
      </trkpt>
      <trkpt lat="43.52345" lon="1.23913">
        <ele>177</ele>
        <time>2024-08-01T06:51:41Z</time>
      </trkpt>
      <trkpt lat="43.52343" lon="1.23905">
        <ele>177</ele>
        <time>2024-08-01T06:51:42Z</time>
      </trkpt>
      <trkpt lat="43.52343" lon="1.23905">
        <ele>177</ele>
        <time>2024-08-01T06:51:43Z</time>
      </trkpt>
      <trkpt lat="43.52337" lon="1.23888">
        <ele>177</ele>
        <time>2024-08-01T06:51:44Z</time>
      </trkpt>
      <trkpt lat="43.52335" lon="1.2388">
        <ele>177</ele>
        <time>2024-08-01T06:51:45Z</time>
      </trkpt>
      <trkpt lat="43.52332" lon="1.23872">
        <ele>177</ele>
        <time>2024-08-01T06:51:46Z</time>
      </trkpt>
      <trkpt lat="43.52329" lon="1.23864">
        <ele>177.2</ele>
        <time>2024-08-01T06:51:47Z</time>
      </trkpt>
      <trkpt lat="43.52325" lon="1.23856">
        <ele>177.2</ele>
        <time>2024-08-01T06:51:48Z</time>
      </trkpt>
      <trkpt lat="43.52322" lon="1.23849">
        <ele>177.2</ele>
        <time>2024-08-01T06:51:49Z</time>
      </trkpt>
      <trkpt lat="43.52319" lon="1.23841">
        <ele>177.4</ele>
        <time>2024-08-01T06:51:50Z</time>
      </trkpt>
      <trkpt lat="43.52316" lon="1.23834">
        <ele>177.4</ele>
        <time>2024-08-01T06:51:51Z</time>
      </trkpt>
      <trkpt lat="43.52313" lon="1.23827">
        <ele>177.4</ele>
        <time>2024-08-01T06:51:52Z</time>
      </trkpt>
      <trkpt lat="43.52309" lon="1.23819">
        <ele>177.4</ele>
        <time>2024-08-01T06:51:53Z</time>
      </trkpt>
      <trkpt lat="43.52306" lon="1.23812">
        <ele>177.4</ele>
        <time>2024-08-01T06:51:54Z</time>
      </trkpt>
      <trkpt lat="43.52302" lon="1.23805">
        <ele>177.4</ele>
        <time>2024-08-01T06:51:55Z</time>
      </trkpt>
      <trkpt lat="43.52299" lon="1.23797">
        <ele>177.4</ele>
        <time>2024-08-01T06:51:56Z</time>
      </trkpt>
      <trkpt lat="43.52299" lon="1.23797">
        <ele>177.6</ele>
        <time>2024-08-01T06:51:57Z</time>
      </trkpt>
      <trkpt lat="43.52292" lon="1.23782">
        <ele>177.6</ele>
        <time>2024-08-01T06:51:58Z</time>
      </trkpt>
      <trkpt lat="43.52288" lon="1.23775">
        <ele>177.6</ele>
        <time>2024-08-01T06:51:59Z</time>
      </trkpt>
      <trkpt lat="43.52285" lon="1.23767">
        <ele>177.6</ele>
        <time>2024-08-01T06:52:00Z</time>
      </trkpt>
      <trkpt lat="43.52281" lon="1.2376">
        <ele>177.6</ele>
        <time>2024-08-01T06:52:01Z</time>
      </trkpt>
      <trkpt lat="43.52278" lon="1.23753">
        <ele>177.6</ele>
        <time>2024-08-01T06:52:02Z</time>
      </trkpt>
      <trkpt lat="43.52274" lon="1.23745">
        <ele>177.6</ele>
        <time>2024-08-01T06:52:03Z</time>
      </trkpt>
      <trkpt lat="43.52271" lon="1.23738">
        <ele>177.6</ele>
        <time>2024-08-01T06:52:04Z</time>
      </trkpt>
      <trkpt lat="43.52267" lon="1.23731">
        <ele>177.6</ele>
        <time>2024-08-01T06:52:05Z</time>
      </trkpt>
      <trkpt lat="43.52267" lon="1.23731">
        <ele>177.6</ele>
        <time>2024-08-01T06:52:06Z</time>
      </trkpt>
      <trkpt lat="43.5226" lon="1.23716">
        <ele>177.6</ele>
        <time>2024-08-01T06:52:07Z</time>
      </trkpt>
      <trkpt lat="43.52257" lon="1.23708">
        <ele>177.8</ele>
        <time>2024-08-01T06:52:08Z</time>
      </trkpt>
      <trkpt lat="43.52253" lon="1.23701">
        <ele>177.8</ele>
        <time>2024-08-01T06:52:09Z</time>
      </trkpt>
      <trkpt lat="43.5225" lon="1.23693">
        <ele>177.8</ele>
        <time>2024-08-01T06:52:10Z</time>
      </trkpt>
      <trkpt lat="43.52246" lon="1.23685">
        <ele>177.8</ele>
        <time>2024-08-01T06:52:11Z</time>
      </trkpt>
      <trkpt lat="43.52242" lon="1.23678">
        <ele>178</ele>
        <time>2024-08-01T06:52:12Z</time>
      </trkpt>
      <trkpt lat="43.52239" lon="1.2367">
        <ele>177.8</ele>
        <time>2024-08-01T06:52:13Z</time>
      </trkpt>
      <trkpt lat="43.52235" lon="1.23662">
        <ele>177.8</ele>
        <time>2024-08-01T06:52:14Z</time>
      </trkpt>
      <trkpt lat="43.52232" lon="1.23655">
        <ele>178.2</ele>
        <time>2024-08-01T06:52:15Z</time>
      </trkpt>
      <trkpt lat="43.52228" lon="1.23647">
        <ele>178</ele>
        <time>2024-08-01T06:52:16Z</time>
      </trkpt>
      <trkpt lat="43.52224" lon="1.2364">
        <ele>178.2</ele>
        <time>2024-08-01T06:52:17Z</time>
      </trkpt>
      <trkpt lat="43.52221" lon="1.23632">
        <ele>178</ele>
        <time>2024-08-01T06:52:18Z</time>
      </trkpt>
      <trkpt lat="43.52217" lon="1.23624">
        <ele>178.2</ele>
        <time>2024-08-01T06:52:19Z</time>
      </trkpt>
      <trkpt lat="43.52214" lon="1.23617">
        <ele>178</ele>
        <time>2024-08-01T06:52:20Z</time>
      </trkpt>
      <trkpt lat="43.52211" lon="1.2361">
        <ele>178.2</ele>
        <time>2024-08-01T06:52:21Z</time>
      </trkpt>
      <trkpt lat="43.52207" lon="1.23602">
        <ele>178.2</ele>
        <time>2024-08-01T06:52:22Z</time>
      </trkpt>
      <trkpt lat="43.52204" lon="1.23595">
        <ele>178.2</ele>
        <time>2024-08-01T06:52:23Z</time>
      </trkpt>
      <trkpt lat="43.52201" lon="1.23588">
        <ele>178.2</ele>
        <time>2024-08-01T06:52:24Z</time>
      </trkpt>
      <trkpt lat="43.52197" lon="1.23581">
        <ele>178.4</ele>
        <time>2024-08-01T06:52:25Z</time>
      </trkpt>
      <trkpt lat="43.52194" lon="1.23574">
        <ele>178.4</ele>
        <time>2024-08-01T06:52:26Z</time>
      </trkpt>
      <trkpt lat="43.52191" lon="1.23567">
        <ele>178.2</ele>
        <time>2024-08-01T06:52:27Z</time>
      </trkpt>
      <trkpt lat="43.52188" lon="1.2356">
        <ele>178.4</ele>
        <time>2024-08-01T06:52:28Z</time>
      </trkpt>
      <trkpt lat="43.52188" lon="1.2356">
        <ele>178.4</ele>
        <time>2024-08-01T06:52:29Z</time>
      </trkpt>
      <trkpt lat="43.52181" lon="1.23546">
        <ele>178.6</ele>
        <time>2024-08-01T06:52:30Z</time>
      </trkpt>
      <trkpt lat="43.52178" lon="1.23539">
        <ele>178.6</ele>
        <time>2024-08-01T06:52:31Z</time>
      </trkpt>
      <trkpt lat="43.52174" lon="1.23532">
        <ele>178.6</ele>
        <time>2024-08-01T06:52:32Z</time>
      </trkpt>
      <trkpt lat="43.52171" lon="1.23525">
        <ele>178.8</ele>
        <time>2024-08-01T06:52:33Z</time>
      </trkpt>
      <trkpt lat="43.52167" lon="1.23518">
        <ele>178.8</ele>
        <time>2024-08-01T06:52:34Z</time>
      </trkpt>
      <trkpt lat="43.52163" lon="1.23511">
        <ele>179</ele>
        <time>2024-08-01T06:52:35Z</time>
      </trkpt>
      <trkpt lat="43.5216" lon="1.23504">
        <ele>179</ele>
        <time>2024-08-01T06:52:36Z</time>
      </trkpt>
      <trkpt lat="43.52156" lon="1.23497">
        <ele>179</ele>
        <time>2024-08-01T06:52:37Z</time>
      </trkpt>
      <trkpt lat="43.52152" lon="1.23491">
        <ele>179</ele>
        <time>2024-08-01T06:52:38Z</time>
      </trkpt>
      <trkpt lat="43.52148" lon="1.23483">
        <ele>179</ele>
        <time>2024-08-01T06:52:39Z</time>
      </trkpt>
      <trkpt lat="43.52144" lon="1.23476">
        <ele>179.2</ele>
        <time>2024-08-01T06:52:40Z</time>
      </trkpt>
      <trkpt lat="43.5214" lon="1.23469">
        <ele>179.2</ele>
        <time>2024-08-01T06:52:41Z</time>
      </trkpt>
      <trkpt lat="43.52136" lon="1.23462">
        <ele>179.4</ele>
        <time>2024-08-01T06:52:42Z</time>
      </trkpt>
      <trkpt lat="43.52136" lon="1.23462">
        <ele>179.4</ele>
        <time>2024-08-01T06:52:43Z</time>
      </trkpt>
      <trkpt lat="43.52129" lon="1.23448">
        <ele>179.4</ele>
        <time>2024-08-01T06:52:44Z</time>
      </trkpt>
      <trkpt lat="43.52125" lon="1.23441">
        <ele>179.6</ele>
        <time>2024-08-01T06:52:45Z</time>
      </trkpt>
      <trkpt lat="43.52125" lon="1.23441">
        <ele>179.6</ele>
        <time>2024-08-01T06:52:46Z</time>
      </trkpt>
      <trkpt lat="43.52117" lon="1.23427">
        <ele>179.4</ele>
        <time>2024-08-01T06:52:47Z</time>
      </trkpt>
      <trkpt lat="43.52113" lon="1.23419">
        <ele>179.4</ele>
        <time>2024-08-01T06:52:48Z</time>
      </trkpt>
      <trkpt lat="43.52113" lon="1.23419">
        <ele>179.4</ele>
        <time>2024-08-01T06:52:49Z</time>
      </trkpt>
      <trkpt lat="43.52106" lon="1.23405">
        <ele>179.4</ele>
        <time>2024-08-01T06:52:50Z</time>
      </trkpt>
      <trkpt lat="43.52102" lon="1.23398">
        <ele>179.4</ele>
        <time>2024-08-01T06:52:51Z</time>
      </trkpt>
      <trkpt lat="43.52098" lon="1.23391">
        <ele>179.6</ele>
        <time>2024-08-01T06:52:52Z</time>
      </trkpt>
      <trkpt lat="43.52094" lon="1.23384">
        <ele>179.6</ele>
        <time>2024-08-01T06:52:53Z</time>
      </trkpt>
      <trkpt lat="43.52091" lon="1.23377">
        <ele>179.6</ele>
        <time>2024-08-01T06:52:54Z</time>
      </trkpt>
      <trkpt lat="43.52087" lon="1.23369">
        <ele>179.6</ele>
        <time>2024-08-01T06:52:55Z</time>
      </trkpt>
      <trkpt lat="43.52083" lon="1.23362">
        <ele>179.4</ele>
        <time>2024-08-01T06:52:56Z</time>
      </trkpt>
      <trkpt lat="43.5208" lon="1.23355">
        <ele>179.6</ele>
        <time>2024-08-01T06:52:57Z</time>
      </trkpt>
      <trkpt lat="43.52077" lon="1.23348">
        <ele>179.4</ele>
        <time>2024-08-01T06:52:58Z</time>
      </trkpt>
      <trkpt lat="43.52073" lon="1.23342">
        <ele>179.6</ele>
        <time>2024-08-01T06:52:59Z</time>
      </trkpt>
      <trkpt lat="43.5207" lon="1.23335">
        <ele>179.6</ele>
        <time>2024-08-01T06:53:00Z</time>
      </trkpt>
      <trkpt lat="43.52066" lon="1.23328">
        <ele>179.6</ele>
        <time>2024-08-01T06:53:01Z</time>
      </trkpt>
      <trkpt lat="43.52063" lon="1.23321">
        <ele>179.6</ele>
        <time>2024-08-01T06:53:02Z</time>
      </trkpt>
      <trkpt lat="43.52059" lon="1.23314">
        <ele>179.6</ele>
        <time>2024-08-01T06:53:03Z</time>
      </trkpt>
      <trkpt lat="43.52056" lon="1.23307">
        <ele>179.6</ele>
        <time>2024-08-01T06:53:04Z</time>
      </trkpt>
      <trkpt lat="43.52052" lon="1.233">
        <ele>179.8</ele>
        <time>2024-08-01T06:53:05Z</time>
      </trkpt>
      <trkpt lat="43.52049" lon="1.23294">
        <ele>179.8</ele>
        <time>2024-08-01T06:53:06Z</time>
      </trkpt>
      <trkpt lat="43.52045" lon="1.23286">
        <ele>179.8</ele>
        <time>2024-08-01T06:53:07Z</time>
      </trkpt>
      <trkpt lat="43.52041" lon="1.23279">
        <ele>179.8</ele>
        <time>2024-08-01T06:53:08Z</time>
      </trkpt>
      <trkpt lat="43.52038" lon="1.23273">
        <ele>179.8</ele>
        <time>2024-08-01T06:53:09Z</time>
      </trkpt>
      <trkpt lat="43.52035" lon="1.23266">
        <ele>179.8</ele>
        <time>2024-08-01T06:53:10Z</time>
      </trkpt>
      <trkpt lat="43.52031" lon="1.23258">
        <ele>179.8</ele>
        <time>2024-08-01T06:53:11Z</time>
      </trkpt>
      <trkpt lat="43.52027" lon="1.2325">
        <ele>179.8</ele>
        <time>2024-08-01T06:53:12Z</time>
      </trkpt>
      <trkpt lat="43.52023" lon="1.23243">
        <ele>179.8</ele>
        <time>2024-08-01T06:53:13Z</time>
      </trkpt>
      <trkpt lat="43.52021" lon="1.23238">
        <ele>179.8</ele>
        <time>2024-08-01T06:53:14Z</time>
      </trkpt>
      <trkpt lat="43.52017" lon="1.23231">
        <ele>180</ele>
        <time>2024-08-01T06:53:15Z</time>
      </trkpt>
      <trkpt lat="43.52017" lon="1.23231">
        <ele>180</ele>
        <time>2024-08-01T06:53:16Z</time>
      </trkpt>
      <trkpt lat="43.52009" lon="1.23215">
        <ele>180</ele>
        <time>2024-08-01T06:53:17Z</time>
      </trkpt>
      <trkpt lat="43.52006" lon="1.23208">
        <ele>180</ele>
        <time>2024-08-01T06:53:18Z</time>
      </trkpt>
      <trkpt lat="43.52003" lon="1.23203">
        <ele>180</ele>
        <time>2024-08-01T06:53:19Z</time>
      </trkpt>
      <trkpt lat="43.51999" lon="1.23196">
        <ele>180.2</ele>
        <time>2024-08-01T06:53:20Z</time>
      </trkpt>
      <trkpt lat="43.51999" lon="1.23196">
        <ele>180.2</ele>
        <time>2024-08-01T06:53:21Z</time>
      </trkpt>
      <trkpt lat="43.51993" lon="1.23183">
        <ele>180.2</ele>
        <time>2024-08-01T06:53:22Z</time>
      </trkpt>
      <trkpt lat="43.5199" lon="1.23177">
        <ele>180.2</ele>
        <time>2024-08-01T06:53:23Z</time>
      </trkpt>
      <trkpt lat="43.5199" lon="1.23177">
        <ele>180.4</ele>
        <time>2024-08-01T06:53:24Z</time>
      </trkpt>
      <trkpt lat="43.51984" lon="1.23165">
        <ele>180.4</ele>
        <time>2024-08-01T06:53:25Z</time>
      </trkpt>
      <trkpt lat="43.5198" lon="1.23157">
        <ele>180.4</ele>
        <time>2024-08-01T06:53:26Z</time>
      </trkpt>
      <trkpt lat="43.51977" lon="1.23151">
        <ele>180.4</ele>
        <time>2024-08-01T06:53:27Z</time>
      </trkpt>
      <trkpt lat="43.51974" lon="1.23145">
        <ele>180.6</ele>
        <time>2024-08-01T06:53:28Z</time>
      </trkpt>
      <trkpt lat="43.51971" lon="1.2314">
        <ele>180.6</ele>
        <time>2024-08-01T06:53:29Z</time>
      </trkpt>
      <trkpt lat="43.51969" lon="1.23135">
        <ele>180.6</ele>
        <time>2024-08-01T06:53:30Z</time>
      </trkpt>
      <trkpt lat="43.51966" lon="1.23129">
        <ele>180.6</ele>
        <time>2024-08-01T06:53:31Z</time>
      </trkpt>
      <trkpt lat="43.51963" lon="1.23123">
        <ele>180.6</ele>
        <time>2024-08-01T06:53:32Z</time>
      </trkpt>
      <trkpt lat="43.5196" lon="1.23119">
        <ele>180.6</ele>
        <time>2024-08-01T06:53:33Z</time>
      </trkpt>
      <trkpt lat="43.51958" lon="1.23114">
        <ele>180.6</ele>
        <time>2024-08-01T06:53:34Z</time>
      </trkpt>
      <trkpt lat="43.51955" lon="1.23109">
        <ele>180.6</ele>
        <time>2024-08-01T06:53:35Z</time>
      </trkpt>
      <trkpt lat="43.51952" lon="1.23103">
        <ele>180.6</ele>
        <time>2024-08-01T06:53:36Z</time>
      </trkpt>
      <trkpt lat="43.5195" lon="1.23098">
        <ele>180.6</ele>
        <time>2024-08-01T06:53:37Z</time>
      </trkpt>
      <trkpt lat="43.51948" lon="1.23093">
        <ele>180.8</ele>
        <time>2024-08-01T06:53:38Z</time>
      </trkpt>
      <trkpt lat="43.51946" lon="1.23089">
        <ele>180.8</ele>
        <time>2024-08-01T06:53:39Z</time>
      </trkpt>
      <trkpt lat="43.51945" lon="1.23086">
        <ele>180.8</ele>
        <time>2024-08-01T06:53:40Z</time>
      </trkpt>
      <trkpt lat="43.51944" lon="1.23082">
        <ele>180.8</ele>
        <time>2024-08-01T06:53:41Z</time>
      </trkpt>
      <trkpt lat="43.51943" lon="1.23078">
        <ele>181</ele>
        <time>2024-08-01T06:53:42Z</time>
      </trkpt>
      <trkpt lat="43.51943" lon="1.23078">
        <ele>181</ele>
        <time>2024-08-01T06:53:43Z</time>
      </trkpt>
      <trkpt lat="43.51942" lon="1.23071">
        <ele>181</ele>
        <time>2024-08-01T06:53:44Z</time>
      </trkpt>
      <trkpt lat="43.51942" lon="1.23067">
        <ele>181</ele>
        <time>2024-08-01T06:53:45Z</time>
      </trkpt>
      <trkpt lat="43.51942" lon="1.23063">
        <ele>181</ele>
        <time>2024-08-01T06:53:46Z</time>
      </trkpt>
      <trkpt lat="43.51942" lon="1.23058">
        <ele>181</ele>
        <time>2024-08-01T06:53:47Z</time>
      </trkpt>
      <trkpt lat="43.51941" lon="1.23053">
        <ele>181</ele>
        <time>2024-08-01T06:53:48Z</time>
      </trkpt>
      <trkpt lat="43.51938" lon="1.23049">
        <ele>181</ele>
        <time>2024-08-01T06:53:49Z</time>
      </trkpt>
      <trkpt lat="43.51934" lon="1.23045">
        <ele>181</ele>
        <time>2024-08-01T06:53:50Z</time>
      </trkpt>
      <trkpt lat="43.51934" lon="1.23045">
        <ele>181</ele>
        <time>2024-08-01T06:53:51Z</time>
      </trkpt>
      <trkpt lat="43.51927" lon="1.23037">
        <ele>181</ele>
        <time>2024-08-01T06:53:52Z</time>
      </trkpt>
      <trkpt lat="43.51924" lon="1.23032">
        <ele>181</ele>
        <time>2024-08-01T06:53:53Z</time>
      </trkpt>
      <trkpt lat="43.5192" lon="1.23027">
        <ele>181.2</ele>
        <time>2024-08-01T06:53:54Z</time>
      </trkpt>
      <trkpt lat="43.51916" lon="1.23022">
        <ele>181.2</ele>
        <time>2024-08-01T06:53:55Z</time>
      </trkpt>
      <trkpt lat="43.51912" lon="1.23017">
        <ele>181.4</ele>
        <time>2024-08-01T06:53:56Z</time>
      </trkpt>
      <trkpt lat="43.51908" lon="1.23012">
        <ele>181.4</ele>
        <time>2024-08-01T06:53:57Z</time>
      </trkpt>
      <trkpt lat="43.51904" lon="1.23006">
        <ele>181.4</ele>
        <time>2024-08-01T06:53:58Z</time>
      </trkpt>
      <trkpt lat="43.519" lon="1.23001">
        <ele>181.4</ele>
        <time>2024-08-01T06:53:59Z</time>
      </trkpt>
      <trkpt lat="43.51896" lon="1.22995">
        <ele>181.4</ele>
        <time>2024-08-01T06:54:00Z</time>
      </trkpt>
      <trkpt lat="43.51891" lon="1.22988">
        <ele>181.4</ele>
        <time>2024-08-01T06:54:01Z</time>
      </trkpt>
      <trkpt lat="43.51887" lon="1.22984">
        <ele>181.4</ele>
        <time>2024-08-01T06:54:02Z</time>
      </trkpt>
      <trkpt lat="43.51882" lon="1.22979">
        <ele>181.4</ele>
        <time>2024-08-01T06:54:03Z</time>
      </trkpt>
      <trkpt lat="43.51882" lon="1.22979">
        <ele>181.4</ele>
        <time>2024-08-01T06:54:04Z</time>
      </trkpt>
      <trkpt lat="43.51873" lon="1.22968">
        <ele>181.4</ele>
        <time>2024-08-01T06:54:05Z</time>
      </trkpt>
      <trkpt lat="43.51867" lon="1.22962">
        <ele>181.4</ele>
        <time>2024-08-01T06:54:06Z</time>
      </trkpt>
      <trkpt lat="43.51863" lon="1.22957">
        <ele>181.4</ele>
        <time>2024-08-01T06:54:07Z</time>
      </trkpt>
      <trkpt lat="43.51858" lon="1.22952">
        <ele>181.4</ele>
        <time>2024-08-01T06:54:08Z</time>
      </trkpt>
      <trkpt lat="43.51858" lon="1.22952">
        <ele>181.4</ele>
        <time>2024-08-01T06:54:09Z</time>
      </trkpt>
      <trkpt lat="43.51848" lon="1.22942">
        <ele>181.6</ele>
        <time>2024-08-01T06:54:10Z</time>
      </trkpt>
      <trkpt lat="43.51843" lon="1.22937">
        <ele>181.6</ele>
        <time>2024-08-01T06:54:11Z</time>
      </trkpt>
      <trkpt lat="43.51843" lon="1.22937">
        <ele>181.6</ele>
        <time>2024-08-01T06:54:12Z</time>
      </trkpt>
      <trkpt lat="43.51833" lon="1.22927">
        <ele>181.6</ele>
        <time>2024-08-01T06:54:13Z</time>
      </trkpt>
      <trkpt lat="43.51827" lon="1.22922">
        <ele>181.6</ele>
        <time>2024-08-01T06:54:14Z</time>
      </trkpt>
      <trkpt lat="43.51822" lon="1.22917">
        <ele>181.6</ele>
        <time>2024-08-01T06:54:15Z</time>
      </trkpt>
      <trkpt lat="43.51816" lon="1.22912">
        <ele>181.6</ele>
        <time>2024-08-01T06:54:16Z</time>
      </trkpt>
      <trkpt lat="43.51811" lon="1.22908">
        <ele>181.6</ele>
        <time>2024-08-01T06:54:17Z</time>
      </trkpt>
      <trkpt lat="43.51806" lon="1.22903">
        <ele>181.8</ele>
        <time>2024-08-01T06:54:18Z</time>
      </trkpt>
      <trkpt lat="43.51801" lon="1.22899">
        <ele>181.8</ele>
        <time>2024-08-01T06:54:19Z</time>
      </trkpt>
      <trkpt lat="43.51795" lon="1.22894">
        <ele>181.8</ele>
        <time>2024-08-01T06:54:20Z</time>
      </trkpt>
      <trkpt lat="43.5179" lon="1.2289">
        <ele>181.8</ele>
        <time>2024-08-01T06:54:21Z</time>
      </trkpt>
      <trkpt lat="43.51784" lon="1.22885">
        <ele>181.8</ele>
        <time>2024-08-01T06:54:22Z</time>
      </trkpt>
      <trkpt lat="43.51779" lon="1.22881">
        <ele>181.8</ele>
        <time>2024-08-01T06:54:23Z</time>
      </trkpt>
      <trkpt lat="43.51773" lon="1.22876">
        <ele>182</ele>
        <time>2024-08-01T06:54:24Z</time>
      </trkpt>
      <trkpt lat="43.51768" lon="1.22872">
        <ele>182</ele>
        <time>2024-08-01T06:54:25Z</time>
      </trkpt>
      <trkpt lat="43.51762" lon="1.22868">
        <ele>182</ele>
        <time>2024-08-01T06:54:26Z</time>
      </trkpt>
      <trkpt lat="43.51756" lon="1.22863">
        <ele>182</ele>
        <time>2024-08-01T06:54:27Z</time>
      </trkpt>
      <trkpt lat="43.51751" lon="1.22859">
        <ele>182.2</ele>
        <time>2024-08-01T06:54:28Z</time>
      </trkpt>
      <trkpt lat="43.51745" lon="1.22855">
        <ele>182.2</ele>
        <time>2024-08-01T06:54:29Z</time>
      </trkpt>
      <trkpt lat="43.51739" lon="1.22851">
        <ele>182.2</ele>
        <time>2024-08-01T06:54:30Z</time>
      </trkpt>
      <trkpt lat="43.51733" lon="1.22846">
        <ele>182.2</ele>
        <time>2024-08-01T06:54:31Z</time>
      </trkpt>
      <trkpt lat="43.51728" lon="1.22842">
        <ele>182.2</ele>
        <time>2024-08-01T06:54:32Z</time>
      </trkpt>
      <trkpt lat="43.51722" lon="1.22838">
        <ele>182.2</ele>
        <time>2024-08-01T06:54:33Z</time>
      </trkpt>
      <trkpt lat="43.51717" lon="1.22834">
        <ele>182.2</ele>
        <time>2024-08-01T06:54:34Z</time>
      </trkpt>
      <trkpt lat="43.51711" lon="1.2283">
        <ele>182.2</ele>
        <time>2024-08-01T06:54:35Z</time>
      </trkpt>
      <trkpt lat="43.51706" lon="1.22826">
        <ele>182.4</ele>
        <time>2024-08-01T06:54:36Z</time>
      </trkpt>
      <trkpt lat="43.51701" lon="1.22822">
        <ele>182.4</ele>
        <time>2024-08-01T06:54:37Z</time>
      </trkpt>
      <trkpt lat="43.51696" lon="1.22818">
        <ele>182.4</ele>
        <time>2024-08-01T06:54:38Z</time>
      </trkpt>
      <trkpt lat="43.51691" lon="1.22815">
        <ele>182.4</ele>
        <time>2024-08-01T06:54:39Z</time>
      </trkpt>
      <trkpt lat="43.51686" lon="1.22811">
        <ele>182.4</ele>
        <time>2024-08-01T06:54:40Z</time>
      </trkpt>
      <trkpt lat="43.51681" lon="1.22808">
        <ele>182.4</ele>
        <time>2024-08-01T06:54:41Z</time>
      </trkpt>
      <trkpt lat="43.51676" lon="1.22805">
        <ele>182.4</ele>
        <time>2024-08-01T06:54:42Z</time>
      </trkpt>
      <trkpt lat="43.51671" lon="1.22803">
        <ele>182.6</ele>
        <time>2024-08-01T06:54:43Z</time>
      </trkpt>
      <trkpt lat="43.51665" lon="1.22801">
        <ele>182.6</ele>
        <time>2024-08-01T06:54:44Z</time>
      </trkpt>
      <trkpt lat="43.5166" lon="1.22799">
        <ele>182.8</ele>
        <time>2024-08-01T06:54:45Z</time>
      </trkpt>
      <trkpt lat="43.51654" lon="1.22797">
        <ele>182.8</ele>
        <time>2024-08-01T06:54:46Z</time>
      </trkpt>
      <trkpt lat="43.51649" lon="1.22794">
        <ele>183</ele>
        <time>2024-08-01T06:54:47Z</time>
      </trkpt>
      <trkpt lat="43.51643" lon="1.22789">
        <ele>183</ele>
        <time>2024-08-01T06:54:48Z</time>
      </trkpt>
      <trkpt lat="43.51637" lon="1.22783">
        <ele>183</ele>
        <time>2024-08-01T06:54:49Z</time>
      </trkpt>
      <trkpt lat="43.51633" lon="1.22776">
        <ele>183.2</ele>
        <time>2024-08-01T06:54:50Z</time>
      </trkpt>
      <trkpt lat="43.51629" lon="1.22767">
        <ele>183.2</ele>
        <time>2024-08-01T06:54:51Z</time>
      </trkpt>
      <trkpt lat="43.51627" lon="1.22758">
        <ele>183.2</ele>
        <time>2024-08-01T06:54:52Z</time>
      </trkpt>
      <trkpt lat="43.51625" lon="1.22748">
        <ele>183.2</ele>
        <time>2024-08-01T06:54:53Z</time>
      </trkpt>
      <trkpt lat="43.51624" lon="1.22738">
        <ele>183.2</ele>
        <time>2024-08-01T06:54:54Z</time>
      </trkpt>
      <trkpt lat="43.51623" lon="1.22728">
        <ele>183</ele>
        <time>2024-08-01T06:54:55Z</time>
      </trkpt>
      <trkpt lat="43.51622" lon="1.22718">
        <ele>183</ele>
        <time>2024-08-01T06:54:56Z</time>
      </trkpt>
      <trkpt lat="43.51621" lon="1.22709">
        <ele>182.8</ele>
        <time>2024-08-01T06:54:57Z</time>
      </trkpt>
      <trkpt lat="43.5162" lon="1.22699">
        <ele>182.8</ele>
        <time>2024-08-01T06:54:58Z</time>
      </trkpt>
      <trkpt lat="43.51619" lon="1.2269">
        <ele>182.6</ele>
        <time>2024-08-01T06:54:59Z</time>
      </trkpt>
      <trkpt lat="43.51618" lon="1.2268">
        <ele>182.4</ele>
        <time>2024-08-01T06:55:00Z</time>
      </trkpt>
      <trkpt lat="43.51617" lon="1.22671">
        <ele>182.4</ele>
        <time>2024-08-01T06:55:01Z</time>
      </trkpt>
      <trkpt lat="43.51616" lon="1.22661">
        <ele>182.4</ele>
        <time>2024-08-01T06:55:02Z</time>
      </trkpt>
      <trkpt lat="43.51615" lon="1.22652">
        <ele>182.4</ele>
        <time>2024-08-01T06:55:03Z</time>
      </trkpt>
      <trkpt lat="43.51614" lon="1.22643">
        <ele>182.2</ele>
        <time>2024-08-01T06:55:04Z</time>
      </trkpt>
      <trkpt lat="43.51613" lon="1.22634">
        <ele>182.2</ele>
        <time>2024-08-01T06:55:05Z</time>
      </trkpt>
      <trkpt lat="43.51611" lon="1.22625">
        <ele>182.2</ele>
        <time>2024-08-01T06:55:06Z</time>
      </trkpt>
      <trkpt lat="43.5161" lon="1.22616">
        <ele>182.2</ele>
        <time>2024-08-01T06:55:07Z</time>
      </trkpt>
      <trkpt lat="43.51609" lon="1.22608">
        <ele>182.2</ele>
        <time>2024-08-01T06:55:08Z</time>
      </trkpt>
      <trkpt lat="43.51608" lon="1.22599">
        <ele>182.2</ele>
        <time>2024-08-01T06:55:09Z</time>
      </trkpt>
      <trkpt lat="43.51607" lon="1.2259">
        <ele>182.2</ele>
        <time>2024-08-01T06:55:10Z</time>
      </trkpt>
      <trkpt lat="43.51606" lon="1.22581">
        <ele>182.2</ele>
        <time>2024-08-01T06:55:11Z</time>
      </trkpt>
      <trkpt lat="43.51605" lon="1.22573">
        <ele>182.2</ele>
        <time>2024-08-01T06:55:12Z</time>
      </trkpt>
      <trkpt lat="43.51603" lon="1.22564">
        <ele>182.2</ele>
        <time>2024-08-01T06:55:13Z</time>
      </trkpt>
      <trkpt lat="43.51602" lon="1.22555">
        <ele>182.2</ele>
        <time>2024-08-01T06:55:14Z</time>
      </trkpt>
      <trkpt lat="43.51601" lon="1.22547">
        <ele>182.2</ele>
        <time>2024-08-01T06:55:15Z</time>
      </trkpt>
      <trkpt lat="43.516" lon="1.22538">
        <ele>182.2</ele>
        <time>2024-08-01T06:55:16Z</time>
      </trkpt>
      <trkpt lat="43.51599" lon="1.22529">
        <ele>182.2</ele>
        <time>2024-08-01T06:55:17Z</time>
      </trkpt>
      <trkpt lat="43.51597" lon="1.2252">
        <ele>182.2</ele>
        <time>2024-08-01T06:55:18Z</time>
      </trkpt>
      <trkpt lat="43.51596" lon="1.22511">
        <ele>182.2</ele>
        <time>2024-08-01T06:55:19Z</time>
      </trkpt>
      <trkpt lat="43.51595" lon="1.22502">
        <ele>182.2</ele>
        <time>2024-08-01T06:55:20Z</time>
      </trkpt>
      <trkpt lat="43.51594" lon="1.22493">
        <ele>182.2</ele>
        <time>2024-08-01T06:55:21Z</time>
      </trkpt>
      <trkpt lat="43.51592" lon="1.22484">
        <ele>182.2</ele>
        <time>2024-08-01T06:55:22Z</time>
      </trkpt>
      <trkpt lat="43.51591" lon="1.22475">
        <ele>182.2</ele>
        <time>2024-08-01T06:55:23Z</time>
      </trkpt>
      <trkpt lat="43.51589" lon="1.22467">
        <ele>182.2</ele>
        <time>2024-08-01T06:55:24Z</time>
      </trkpt>
      <trkpt lat="43.51588" lon="1.22458">
        <ele>182.2</ele>
        <time>2024-08-01T06:55:25Z</time>
      </trkpt>
      <trkpt lat="43.51587" lon="1.22449">
        <ele>182.2</ele>
        <time>2024-08-01T06:55:26Z</time>
      </trkpt>
      <trkpt lat="43.51585" lon="1.2244">
        <ele>182.2</ele>
        <time>2024-08-01T06:55:27Z</time>
      </trkpt>
      <trkpt lat="43.51583" lon="1.22431">
        <ele>182.2</ele>
        <time>2024-08-01T06:55:28Z</time>
      </trkpt>
      <trkpt lat="43.51582" lon="1.22423">
        <ele>182.2</ele>
        <time>2024-08-01T06:55:29Z</time>
      </trkpt>
      <trkpt lat="43.5158" lon="1.22414">
        <ele>182.2</ele>
        <time>2024-08-01T06:55:30Z</time>
      </trkpt>
      <trkpt lat="43.5158" lon="1.22414">
        <ele>182.2</ele>
        <time>2024-08-01T06:55:31Z</time>
      </trkpt>
      <trkpt lat="43.51576" lon="1.22396">
        <ele>182.2</ele>
        <time>2024-08-01T06:55:32Z</time>
      </trkpt>
      <trkpt lat="43.51575" lon="1.22388">
        <ele>182.2</ele>
        <time>2024-08-01T06:55:33Z</time>
      </trkpt>
      <trkpt lat="43.51573" lon="1.22379">
        <ele>182.2</ele>
        <time>2024-08-01T06:55:34Z</time>
      </trkpt>
      <trkpt lat="43.51571" lon="1.2237">
        <ele>182.2</ele>
        <time>2024-08-01T06:55:35Z</time>
      </trkpt>
      <trkpt lat="43.5157" lon="1.22362">
        <ele>182.2</ele>
        <time>2024-08-01T06:55:36Z</time>
      </trkpt>
      <trkpt lat="43.51568" lon="1.22353">
        <ele>182.2</ele>
        <time>2024-08-01T06:55:37Z</time>
      </trkpt>
      <trkpt lat="43.51567" lon="1.22345">
        <ele>182.2</ele>
        <time>2024-08-01T06:55:38Z</time>
      </trkpt>
      <trkpt lat="43.51565" lon="1.22336">
        <ele>182.2</ele>
        <time>2024-08-01T06:55:39Z</time>
      </trkpt>
      <trkpt lat="43.51563" lon="1.22327">
        <ele>182.2</ele>
        <time>2024-08-01T06:55:40Z</time>
      </trkpt>
      <trkpt lat="43.51562" lon="1.22318">
        <ele>182.2</ele>
        <time>2024-08-01T06:55:41Z</time>
      </trkpt>
      <trkpt lat="43.51561" lon="1.22312">
        <ele>182.2</ele>
        <time>2024-08-01T06:55:42Z</time>
      </trkpt>
      <trkpt lat="43.51558" lon="1.22301">
        <ele>182.2</ele>
        <time>2024-08-01T06:55:43Z</time>
      </trkpt>
      <trkpt lat="43.51557" lon="1.22293">
        <ele>182.4</ele>
        <time>2024-08-01T06:55:44Z</time>
      </trkpt>
      <trkpt lat="43.51555" lon="1.22284">
        <ele>182.4</ele>
        <time>2024-08-01T06:55:45Z</time>
      </trkpt>
      <trkpt lat="43.51553" lon="1.22276">
        <ele>182.4</ele>
        <time>2024-08-01T06:55:46Z</time>
      </trkpt>
      <trkpt lat="43.51552" lon="1.22268">
        <ele>182.4</ele>
        <time>2024-08-01T06:55:47Z</time>
      </trkpt>
      <trkpt lat="43.5155" lon="1.2226">
        <ele>182.6</ele>
        <time>2024-08-01T06:55:48Z</time>
      </trkpt>
      <trkpt lat="43.51549" lon="1.22252">
        <ele>182.6</ele>
        <time>2024-08-01T06:55:49Z</time>
      </trkpt>
      <trkpt lat="43.51548" lon="1.22245">
        <ele>182.6</ele>
        <time>2024-08-01T06:55:50Z</time>
      </trkpt>
      <trkpt lat="43.51546" lon="1.22238">
        <ele>182.8</ele>
        <time>2024-08-01T06:55:51Z</time>
      </trkpt>
      <trkpt lat="43.51545" lon="1.22231">
        <ele>182.8</ele>
        <time>2024-08-01T06:55:52Z</time>
      </trkpt>
      <trkpt lat="43.51544" lon="1.22225">
        <ele>182.8</ele>
        <time>2024-08-01T06:55:53Z</time>
      </trkpt>
      <trkpt lat="43.51543" lon="1.22219">
        <ele>182.8</ele>
        <time>2024-08-01T06:55:54Z</time>
      </trkpt>
      <trkpt lat="43.51542" lon="1.22213">
        <ele>183</ele>
        <time>2024-08-01T06:55:55Z</time>
      </trkpt>
      <trkpt lat="43.51541" lon="1.22207">
        <ele>183</ele>
        <time>2024-08-01T06:55:56Z</time>
      </trkpt>
      <trkpt lat="43.5154" lon="1.22203">
        <ele>183</ele>
        <time>2024-08-01T06:55:57Z</time>
      </trkpt>
      <trkpt lat="43.51539" lon="1.22196">
        <ele>183.2</ele>
        <time>2024-08-01T06:55:58Z</time>
      </trkpt>
      <trkpt lat="43.51538" lon="1.2219">
        <ele>183.2</ele>
        <time>2024-08-01T06:55:59Z</time>
      </trkpt>
      <trkpt lat="43.51537" lon="1.22184">
        <ele>183.2</ele>
        <time>2024-08-01T06:56:00Z</time>
      </trkpt>
      <trkpt lat="43.51536" lon="1.22179">
        <ele>183.4</ele>
        <time>2024-08-01T06:56:01Z</time>
      </trkpt>
      <trkpt lat="43.51535" lon="1.22174">
        <ele>183.6</ele>
        <time>2024-08-01T06:56:02Z</time>
      </trkpt>
      <trkpt lat="43.51534" lon="1.22168">
        <ele>183.8</ele>
        <time>2024-08-01T06:56:03Z</time>
      </trkpt>
      <trkpt lat="43.51533" lon="1.22163">
        <ele>184</ele>
        <time>2024-08-01T06:56:04Z</time>
      </trkpt>
      <trkpt lat="43.51532" lon="1.22158">
        <ele>184.2</ele>
        <time>2024-08-01T06:56:05Z</time>
      </trkpt>
      <trkpt lat="43.51531" lon="1.22154">
        <ele>184.4</ele>
        <time>2024-08-01T06:56:06Z</time>
      </trkpt>
      <trkpt lat="43.51531" lon="1.22149">
        <ele>184.4</ele>
        <time>2024-08-01T06:56:07Z</time>
      </trkpt>
      <trkpt lat="43.5153" lon="1.22144">
        <ele>184.6</ele>
        <time>2024-08-01T06:56:08Z</time>
      </trkpt>
      <trkpt lat="43.51529" lon="1.2214">
        <ele>184.6</ele>
        <time>2024-08-01T06:56:09Z</time>
      </trkpt>
      <trkpt lat="43.51528" lon="1.22135">
        <ele>184.8</ele>
        <time>2024-08-01T06:56:10Z</time>
      </trkpt>
      <trkpt lat="43.51527" lon="1.22129">
        <ele>185</ele>
        <time>2024-08-01T06:56:11Z</time>
      </trkpt>
      <trkpt lat="43.51527" lon="1.22124">
        <ele>185.4</ele>
        <time>2024-08-01T06:56:12Z</time>
      </trkpt>
      <trkpt lat="43.51526" lon="1.22118">
        <ele>185.4</ele>
        <time>2024-08-01T06:56:13Z</time>
      </trkpt>
      <trkpt lat="43.51526" lon="1.22113">
        <ele>185.8</ele>
        <time>2024-08-01T06:56:14Z</time>
      </trkpt>
      <trkpt lat="43.51525" lon="1.22108">
        <ele>185.8</ele>
        <time>2024-08-01T06:56:15Z</time>
      </trkpt>
      <trkpt lat="43.51525" lon="1.22103">
        <ele>186.2</ele>
        <time>2024-08-01T06:56:16Z</time>
      </trkpt>
      <trkpt lat="43.51524" lon="1.22097">
        <ele>186.4</ele>
        <time>2024-08-01T06:56:17Z</time>
      </trkpt>
      <trkpt lat="43.51523" lon="1.22092">
        <ele>186.4</ele>
        <time>2024-08-01T06:56:18Z</time>
      </trkpt>
      <trkpt lat="43.51521" lon="1.22088">
        <ele>186.8</ele>
        <time>2024-08-01T06:56:19Z</time>
      </trkpt>
      <trkpt lat="43.5152" lon="1.22083">
        <ele>186.8</ele>
        <time>2024-08-01T06:56:20Z</time>
      </trkpt>
      <trkpt lat="43.51518" lon="1.22078">
        <ele>187.2</ele>
        <time>2024-08-01T06:56:21Z</time>
      </trkpt>
      <trkpt lat="43.51516" lon="1.22074">
        <ele>187.4</ele>
        <time>2024-08-01T06:56:22Z</time>
      </trkpt>
      <trkpt lat="43.51514" lon="1.22069">
        <ele>187.6</ele>
        <time>2024-08-01T06:56:23Z</time>
      </trkpt>
      <trkpt lat="43.51513" lon="1.22065">
        <ele>188</ele>
        <time>2024-08-01T06:56:24Z</time>
      </trkpt>
      <trkpt lat="43.51512" lon="1.22061">
        <ele>188.2</ele>
        <time>2024-08-01T06:56:25Z</time>
      </trkpt>
      <trkpt lat="43.51511" lon="1.22058">
        <ele>188.4</ele>
        <time>2024-08-01T06:56:26Z</time>
      </trkpt>
      <trkpt lat="43.51509" lon="1.22054">
        <ele>188.6</ele>
        <time>2024-08-01T06:56:27Z</time>
      </trkpt>
      <trkpt lat="43.51507" lon="1.22049">
        <ele>188.8</ele>
        <time>2024-08-01T06:56:28Z</time>
      </trkpt>
      <trkpt lat="43.51505" lon="1.22046">
        <ele>189</ele>
        <time>2024-08-01T06:56:29Z</time>
      </trkpt>
      <trkpt lat="43.51504" lon="1.22042">
        <ele>189.4</ele>
        <time>2024-08-01T06:56:30Z</time>
      </trkpt>
      <trkpt lat="43.51504" lon="1.22042">
        <ele>190</ele>
        <time>2024-08-01T06:56:31Z</time>
      </trkpt>
      <trkpt lat="43.515" lon="1.22034">
        <ele>190.2</ele>
        <time>2024-08-01T06:56:32Z</time>
      </trkpt>
      <trkpt lat="43.51498" lon="1.22029">
        <ele>190.4</ele>
        <time>2024-08-01T06:56:33Z</time>
      </trkpt>
      <trkpt lat="43.51497" lon="1.22026">
        <ele>190.6</ele>
        <time>2024-08-01T06:56:34Z</time>
      </trkpt>
      <trkpt lat="43.51496" lon="1.22021">
        <ele>191.2</ele>
        <time>2024-08-01T06:56:35Z</time>
      </trkpt>
      <trkpt lat="43.51495" lon="1.22015">
        <ele>191.4</ele>
        <time>2024-08-01T06:56:36Z</time>
      </trkpt>
      <trkpt lat="43.51494" lon="1.22011">
        <ele>191.6</ele>
        <time>2024-08-01T06:56:37Z</time>
      </trkpt>
      <trkpt lat="43.51494" lon="1.22007">
        <ele>192</ele>
        <time>2024-08-01T06:56:38Z</time>
      </trkpt>
      <trkpt lat="43.51494" lon="1.22002">
        <ele>192</ele>
        <time>2024-08-01T06:56:39Z</time>
      </trkpt>
      <trkpt lat="43.51494" lon="1.21998">
        <ele>192.4</ele>
        <time>2024-08-01T06:56:40Z</time>
      </trkpt>
      <trkpt lat="43.51494" lon="1.21995">
        <ele>192.6</ele>
        <time>2024-08-01T06:56:41Z</time>
      </trkpt>
      <trkpt lat="43.51494" lon="1.21991">
        <ele>193</ele>
        <time>2024-08-01T06:56:42Z</time>
      </trkpt>
      <trkpt lat="43.51493" lon="1.21987">
        <ele>193.4</ele>
        <time>2024-08-01T06:56:43Z</time>
      </trkpt>
      <trkpt lat="43.51493" lon="1.21983">
        <ele>194</ele>
        <time>2024-08-01T06:56:44Z</time>
      </trkpt>
      <trkpt lat="43.51492" lon="1.21979">
        <ele>194.4</ele>
        <time>2024-08-01T06:56:45Z</time>
      </trkpt>
      <trkpt lat="43.51491" lon="1.21975">
        <ele>194.6</ele>
        <time>2024-08-01T06:56:46Z</time>
      </trkpt>
      <trkpt lat="43.51491" lon="1.21971">
        <ele>195.2</ele>
        <time>2024-08-01T06:56:47Z</time>
      </trkpt>
      <trkpt lat="43.5149" lon="1.21968">
        <ele>195.6</ele>
        <time>2024-08-01T06:56:48Z</time>
      </trkpt>
      <trkpt lat="43.5149" lon="1.21964">
        <ele>196</ele>
        <time>2024-08-01T06:56:49Z</time>
      </trkpt>
      <trkpt lat="43.51489" lon="1.2196">
        <ele>196.4</ele>
        <time>2024-08-01T06:56:50Z</time>
      </trkpt>
      <trkpt lat="43.51488" lon="1.21956">
        <ele>196.8</ele>
        <time>2024-08-01T06:56:51Z</time>
      </trkpt>
      <trkpt lat="43.51487" lon="1.21951">
        <ele>197</ele>
        <time>2024-08-01T06:56:52Z</time>
      </trkpt>
      <trkpt lat="43.51487" lon="1.21946">
        <ele>197.6</ele>
        <time>2024-08-01T06:56:53Z</time>
      </trkpt>
      <trkpt lat="43.51486" lon="1.21942">
        <ele>198</ele>
        <time>2024-08-01T06:56:54Z</time>
      </trkpt>
      <trkpt lat="43.51486" lon="1.21942">
        <ele>198.2</ele>
        <time>2024-08-01T06:56:55Z</time>
      </trkpt>
      <trkpt lat="43.51485" lon="1.21933">
        <ele>198.6</ele>
        <time>2024-08-01T06:56:56Z</time>
      </trkpt>
      <trkpt lat="43.51485" lon="1.21928">
        <ele>199</ele>
        <time>2024-08-01T06:56:57Z</time>
      </trkpt>
      <trkpt lat="43.51484" lon="1.21924">
        <ele>199.2</ele>
        <time>2024-08-01T06:56:58Z</time>
      </trkpt>
      <trkpt lat="43.51483" lon="1.21918">
        <ele>199.6</ele>
        <time>2024-08-01T06:56:59Z</time>
      </trkpt>
      <trkpt lat="43.51482" lon="1.21912">
        <ele>199.8</ele>
        <time>2024-08-01T06:57:00Z</time>
      </trkpt>
      <trkpt lat="43.51482" lon="1.21907">
        <ele>200.2</ele>
        <time>2024-08-01T06:57:01Z</time>
      </trkpt>
      <trkpt lat="43.51481" lon="1.21902">
        <ele>200.4</ele>
        <time>2024-08-01T06:57:02Z</time>
      </trkpt>
      <trkpt lat="43.51481" lon="1.21896">
        <ele>200.8</ele>
        <time>2024-08-01T06:57:03Z</time>
      </trkpt>
      <trkpt lat="43.5148" lon="1.21891">
        <ele>201</ele>
        <time>2024-08-01T06:57:04Z</time>
      </trkpt>
      <trkpt lat="43.51479" lon="1.21886">
        <ele>201.4</ele>
        <time>2024-08-01T06:57:05Z</time>
      </trkpt>
      <trkpt lat="43.51478" lon="1.2188">
        <ele>201.2</ele>
        <time>2024-08-01T06:57:06Z</time>
      </trkpt>
      <trkpt lat="43.51476" lon="1.21873">
        <ele>201.8</ele>
        <time>2024-08-01T06:57:07Z</time>
      </trkpt>
      <trkpt lat="43.51475" lon="1.21867">
        <ele>202.2</ele>
        <time>2024-08-01T06:57:08Z</time>
      </trkpt>
      <trkpt lat="43.51474" lon="1.21862">
        <ele>202.2</ele>
        <time>2024-08-01T06:57:09Z</time>
      </trkpt>
      <trkpt lat="43.51473" lon="1.21856">
        <ele>202.6</ele>
        <time>2024-08-01T06:57:10Z</time>
      </trkpt>
      <trkpt lat="43.51472" lon="1.2185">
        <ele>202.8</ele>
        <time>2024-08-01T06:57:11Z</time>
      </trkpt>
      <trkpt lat="43.5147" lon="1.21845">
        <ele>203</ele>
        <time>2024-08-01T06:57:12Z</time>
      </trkpt>
      <trkpt lat="43.51469" lon="1.2184">
        <ele>203</ele>
        <time>2024-08-01T06:57:13Z</time>
      </trkpt>
      <trkpt lat="43.51468" lon="1.21834">
        <ele>203.4</ele>
        <time>2024-08-01T06:57:14Z</time>
      </trkpt>
      <trkpt lat="43.51467" lon="1.21829">
        <ele>203.8</ele>
        <time>2024-08-01T06:57:15Z</time>
      </trkpt>
      <trkpt lat="43.51465" lon="1.21824">
        <ele>203.8</ele>
        <time>2024-08-01T06:57:16Z</time>
      </trkpt>
      <trkpt lat="43.51464" lon="1.21819">
        <ele>204.2</ele>
        <time>2024-08-01T06:57:17Z</time>
      </trkpt>
      <trkpt lat="43.51463" lon="1.21813">
        <ele>204.4</ele>
        <time>2024-08-01T06:57:18Z</time>
      </trkpt>
      <trkpt lat="43.51461" lon="1.21807">
        <ele>204.6</ele>
        <time>2024-08-01T06:57:19Z</time>
      </trkpt>
      <trkpt lat="43.5146" lon="1.21802">
        <ele>204.8</ele>
        <time>2024-08-01T06:57:20Z</time>
      </trkpt>
      <trkpt lat="43.51458" lon="1.21796">
        <ele>205</ele>
        <time>2024-08-01T06:57:21Z</time>
      </trkpt>
      <trkpt lat="43.51456" lon="1.2179">
        <ele>205.2</ele>
        <time>2024-08-01T06:57:22Z</time>
      </trkpt>
      <trkpt lat="43.51455" lon="1.21784">
        <ele>205.2</ele>
        <time>2024-08-01T06:57:23Z</time>
      </trkpt>
      <trkpt lat="43.51453" lon="1.21778">
        <ele>205.4</ele>
        <time>2024-08-01T06:57:24Z</time>
      </trkpt>
      <trkpt lat="43.51452" lon="1.21772">
        <ele>205.4</ele>
        <time>2024-08-01T06:57:25Z</time>
      </trkpt>
      <trkpt lat="43.5145" lon="1.21766">
        <ele>205.6</ele>
        <time>2024-08-01T06:57:26Z</time>
      </trkpt>
      <trkpt lat="43.51449" lon="1.21759">
        <ele>205.6</ele>
        <time>2024-08-01T06:57:27Z</time>
      </trkpt>
      <trkpt lat="43.51447" lon="1.21753">
        <ele>205.8</ele>
        <time>2024-08-01T06:57:28Z</time>
      </trkpt>
      <trkpt lat="43.51445" lon="1.21747">
        <ele>206</ele>
        <time>2024-08-01T06:57:29Z</time>
      </trkpt>
      <trkpt lat="43.51444" lon="1.2174">
        <ele>206</ele>
        <time>2024-08-01T06:57:30Z</time>
      </trkpt>
      <trkpt lat="43.51442" lon="1.21734">
        <ele>206</ele>
        <time>2024-08-01T06:57:31Z</time>
      </trkpt>
      <trkpt lat="43.5144" lon="1.21727">
        <ele>206</ele>
        <time>2024-08-01T06:57:32Z</time>
      </trkpt>
      <trkpt lat="43.51438" lon="1.21721">
        <ele>206.2</ele>
        <time>2024-08-01T06:57:33Z</time>
      </trkpt>
      <trkpt lat="43.51436" lon="1.21714">
        <ele>206.2</ele>
        <time>2024-08-01T06:57:34Z</time>
      </trkpt>
      <trkpt lat="43.51434" lon="1.21708">
        <ele>206.4</ele>
        <time>2024-08-01T06:57:35Z</time>
      </trkpt>
      <trkpt lat="43.51431" lon="1.21701">
        <ele>206.6</ele>
        <time>2024-08-01T06:57:36Z</time>
      </trkpt>
      <trkpt lat="43.51429" lon="1.21694">
        <ele>206.6</ele>
        <time>2024-08-01T06:57:37Z</time>
      </trkpt>
      <trkpt lat="43.51429" lon="1.21694">
        <ele>206.6</ele>
        <time>2024-08-01T06:57:38Z</time>
      </trkpt>
      <trkpt lat="43.51425" lon="1.2168">
        <ele>206.6</ele>
        <time>2024-08-01T06:57:39Z</time>
      </trkpt>
      <trkpt lat="43.51422" lon="1.21674">
        <ele>206.8</ele>
        <time>2024-08-01T06:57:40Z</time>
      </trkpt>
      <trkpt lat="43.5142" lon="1.21667">
        <ele>206.8</ele>
        <time>2024-08-01T06:57:41Z</time>
      </trkpt>
      <trkpt lat="43.51419" lon="1.2166">
        <ele>206.8</ele>
        <time>2024-08-01T06:57:42Z</time>
      </trkpt>
      <trkpt lat="43.51417" lon="1.21653">
        <ele>207</ele>
        <time>2024-08-01T06:57:43Z</time>
      </trkpt>
      <trkpt lat="43.51415" lon="1.21647">
        <ele>207</ele>
        <time>2024-08-01T06:57:44Z</time>
      </trkpt>
      <trkpt lat="43.51413" lon="1.2164">
        <ele>207</ele>
        <time>2024-08-01T06:57:45Z</time>
      </trkpt>
      <trkpt lat="43.51411" lon="1.21633">
        <ele>207</ele>
        <time>2024-08-01T06:57:46Z</time>
      </trkpt>
      <trkpt lat="43.5141" lon="1.21626">
        <ele>207.2</ele>
        <time>2024-08-01T06:57:47Z</time>
      </trkpt>
      <trkpt lat="43.51408" lon="1.21619">
        <ele>207.2</ele>
        <time>2024-08-01T06:57:48Z</time>
      </trkpt>
      <trkpt lat="43.51406" lon="1.21613">
        <ele>207.2</ele>
        <time>2024-08-01T06:57:49Z</time>
      </trkpt>
      <trkpt lat="43.51404" lon="1.21606">
        <ele>207.2</ele>
        <time>2024-08-01T06:57:50Z</time>
      </trkpt>
      <trkpt lat="43.51403" lon="1.21599">
        <ele>207.2</ele>
        <time>2024-08-01T06:57:51Z</time>
      </trkpt>
      <trkpt lat="43.51402" lon="1.21592">
        <ele>207.4</ele>
        <time>2024-08-01T06:57:52Z</time>
      </trkpt>
      <trkpt lat="43.514" lon="1.21586">
        <ele>207.4</ele>
        <time>2024-08-01T06:57:53Z</time>
      </trkpt>
      <trkpt lat="43.514" lon="1.21586">
        <ele>207.4</ele>
        <time>2024-08-01T06:57:54Z</time>
      </trkpt>
      <trkpt lat="43.51396" lon="1.21573">
        <ele>207.4</ele>
        <time>2024-08-01T06:57:55Z</time>
      </trkpt>
      <trkpt lat="43.51394" lon="1.21566">
        <ele>207.4</ele>
        <time>2024-08-01T06:57:56Z</time>
      </trkpt>
      <trkpt lat="43.51394" lon="1.21566">
        <ele>207.4</ele>
        <time>2024-08-01T06:57:57Z</time>
      </trkpt>
      <trkpt lat="43.51391" lon="1.21553">
        <ele>207.4</ele>
        <time>2024-08-01T06:57:58Z</time>
      </trkpt>
      <trkpt lat="43.51389" lon="1.21547">
        <ele>207.4</ele>
        <time>2024-08-01T06:57:59Z</time>
      </trkpt>
      <trkpt lat="43.51387" lon="1.2154">
        <ele>207.6</ele>
        <time>2024-08-01T06:58:00Z</time>
      </trkpt>
      <trkpt lat="43.51386" lon="1.21533">
        <ele>207.6</ele>
        <time>2024-08-01T06:58:01Z</time>
      </trkpt>
      <trkpt lat="43.51384" lon="1.21526">
        <ele>207.6</ele>
        <time>2024-08-01T06:58:02Z</time>
      </trkpt>
      <trkpt lat="43.51382" lon="1.2152">
        <ele>207.6</ele>
        <time>2024-08-01T06:58:03Z</time>
      </trkpt>
      <trkpt lat="43.51381" lon="1.21513">
        <ele>207.6</ele>
        <time>2024-08-01T06:58:04Z</time>
      </trkpt>
      <trkpt lat="43.51379" lon="1.21507">
        <ele>207.6</ele>
        <time>2024-08-01T06:58:05Z</time>
      </trkpt>
      <trkpt lat="43.51377" lon="1.215">
        <ele>207.6</ele>
        <time>2024-08-01T06:58:06Z</time>
      </trkpt>
      <trkpt lat="43.51375" lon="1.21493">
        <ele>207.6</ele>
        <time>2024-08-01T06:58:07Z</time>
      </trkpt>
      <trkpt lat="43.51374" lon="1.21486">
        <ele>207.6</ele>
        <time>2024-08-01T06:58:08Z</time>
      </trkpt>
      <trkpt lat="43.51372" lon="1.2148">
        <ele>207.6</ele>
        <time>2024-08-01T06:58:09Z</time>
      </trkpt>
      <trkpt lat="43.5137" lon="1.21473">
        <ele>207.6</ele>
        <time>2024-08-01T06:58:10Z</time>
      </trkpt>
      <trkpt lat="43.51368" lon="1.21466">
        <ele>207.6</ele>
        <time>2024-08-01T06:58:11Z</time>
      </trkpt>
      <trkpt lat="43.51366" lon="1.21459">
        <ele>207.6</ele>
        <time>2024-08-01T06:58:12Z</time>
      </trkpt>
      <trkpt lat="43.51365" lon="1.21452">
        <ele>207.8</ele>
        <time>2024-08-01T06:58:13Z</time>
      </trkpt>
      <trkpt lat="43.51363" lon="1.21444">
        <ele>207.8</ele>
        <time>2024-08-01T06:58:14Z</time>
      </trkpt>
      <trkpt lat="43.51361" lon="1.21437">
        <ele>207.8</ele>
        <time>2024-08-01T06:58:15Z</time>
      </trkpt>
      <trkpt lat="43.51359" lon="1.2143">
        <ele>207.8</ele>
        <time>2024-08-01T06:58:16Z</time>
      </trkpt>
      <trkpt lat="43.51356" lon="1.21423">
        <ele>207.8</ele>
        <time>2024-08-01T06:58:17Z</time>
      </trkpt>
      <trkpt lat="43.51355" lon="1.21415">
        <ele>208</ele>
        <time>2024-08-01T06:58:18Z</time>
      </trkpt>
      <trkpt lat="43.51353" lon="1.21408">
        <ele>208</ele>
        <time>2024-08-01T06:58:19Z</time>
      </trkpt>
      <trkpt lat="43.51351" lon="1.21402">
        <ele>208</ele>
        <time>2024-08-01T06:58:20Z</time>
      </trkpt>
      <trkpt lat="43.51349" lon="1.21394">
        <ele>208</ele>
        <time>2024-08-01T06:58:21Z</time>
      </trkpt>
      <trkpt lat="43.51347" lon="1.21387">
        <ele>208</ele>
        <time>2024-08-01T06:58:22Z</time>
      </trkpt>
      <trkpt lat="43.51345" lon="1.2138">
        <ele>208</ele>
        <time>2024-08-01T06:58:23Z</time>
      </trkpt>
      <trkpt lat="43.51344" lon="1.21373">
        <ele>208</ele>
        <time>2024-08-01T06:58:24Z</time>
      </trkpt>
      <trkpt lat="43.51342" lon="1.21366">
        <ele>208</ele>
        <time>2024-08-01T06:58:25Z</time>
      </trkpt>
      <trkpt lat="43.51341" lon="1.21359">
        <ele>208</ele>
        <time>2024-08-01T06:58:26Z</time>
      </trkpt>
      <trkpt lat="43.51339" lon="1.21352">
        <ele>208</ele>
        <time>2024-08-01T06:58:27Z</time>
      </trkpt>
      <trkpt lat="43.51337" lon="1.21346">
        <ele>208</ele>
        <time>2024-08-01T06:58:28Z</time>
      </trkpt>
      <trkpt lat="43.51335" lon="1.21339">
        <ele>208</ele>
        <time>2024-08-01T06:58:29Z</time>
      </trkpt>
      <trkpt lat="43.51333" lon="1.21333">
        <ele>208</ele>
        <time>2024-08-01T06:58:30Z</time>
      </trkpt>
      <trkpt lat="43.51331" lon="1.21327">
        <ele>208</ele>
        <time>2024-08-01T06:58:31Z</time>
      </trkpt>
      <trkpt lat="43.5133" lon="1.21321">
        <ele>208</ele>
        <time>2024-08-01T06:58:32Z</time>
      </trkpt>
      <trkpt lat="43.51328" lon="1.21315">
        <ele>208</ele>
        <time>2024-08-01T06:58:33Z</time>
      </trkpt>
      <trkpt lat="43.51327" lon="1.21309">
        <ele>208.2</ele>
        <time>2024-08-01T06:58:34Z</time>
      </trkpt>
      <trkpt lat="43.51325" lon="1.21304">
        <ele>208.2</ele>
        <time>2024-08-01T06:58:35Z</time>
      </trkpt>
      <trkpt lat="43.51324" lon="1.21299">
        <ele>208.2</ele>
        <time>2024-08-01T06:58:36Z</time>
      </trkpt>
      <trkpt lat="43.51324" lon="1.21299">
        <ele>208.2</ele>
        <time>2024-08-01T06:58:37Z</time>
      </trkpt>
      <trkpt lat="43.51321" lon="1.2129">
        <ele>208.2</ele>
        <time>2024-08-01T06:58:38Z</time>
      </trkpt>
      <trkpt lat="43.5132" lon="1.21287">
        <ele>208.4</ele>
        <time>2024-08-01T06:58:39Z</time>
      </trkpt>
      <trkpt lat="43.51319" lon="1.21283">
        <ele>208.4</ele>
        <time>2024-08-01T06:58:40Z</time>
      </trkpt>
      <trkpt lat="43.51317" lon="1.21281">
        <ele>208.4</ele>
        <time>2024-08-01T06:58:41Z</time>
      </trkpt>
      <trkpt lat="43.51316" lon="1.21278">
        <ele>208.4</ele>
        <time>2024-08-01T06:58:42Z</time>
      </trkpt>
      <trkpt lat="43.51314" lon="1.21275">
        <ele>208.4</ele>
        <time>2024-08-01T06:58:43Z</time>
      </trkpt>
      <trkpt lat="43.51312" lon="1.21273">
        <ele>208.4</ele>
        <time>2024-08-01T06:58:44Z</time>
      </trkpt>
      <trkpt lat="43.51311" lon="1.21272">
        <ele>208.4</ele>
        <time>2024-08-01T06:58:45Z</time>
      </trkpt>
      <trkpt lat="43.5131" lon="1.21271">
        <ele>208.4</ele>
        <time>2024-08-01T06:58:46Z</time>
      </trkpt>
      <trkpt lat="43.51309" lon="1.2127">
        <ele>208.4</ele>
        <time>2024-08-01T06:58:47Z</time>
      </trkpt>
      <trkpt lat="43.51308" lon="1.2127">
        <ele>208.4</ele>
        <time>2024-08-01T06:58:48Z</time>
      </trkpt>
      <trkpt lat="43.51307" lon="1.21269">
        <ele>208.4</ele>
        <time>2024-08-01T06:58:49Z</time>
      </trkpt>
      <trkpt lat="43.51305" lon="1.21269">
        <ele>208.4</ele>
        <time>2024-08-01T06:58:50Z</time>
      </trkpt>
      <trkpt lat="43.51302" lon="1.2127">
        <ele>208.4</ele>
        <time>2024-08-01T06:58:51Z</time>
      </trkpt>
      <trkpt lat="43.51299" lon="1.21272">
        <ele>208.4</ele>
        <time>2024-08-01T06:58:52Z</time>
      </trkpt>
      <trkpt lat="43.51297" lon="1.21275">
        <ele>208.4</ele>
        <time>2024-08-01T06:58:53Z</time>
      </trkpt>
      <trkpt lat="43.51295" lon="1.21279">
        <ele>208.4</ele>
        <time>2024-08-01T06:58:54Z</time>
      </trkpt>
      <trkpt lat="43.51292" lon="1.21283">
        <ele>208.4</ele>
        <time>2024-08-01T06:58:55Z</time>
      </trkpt>
      <trkpt lat="43.51289" lon="1.21287">
        <ele>208.4</ele>
        <time>2024-08-01T06:58:56Z</time>
      </trkpt>
      <trkpt lat="43.51285" lon="1.21288">
        <ele>208.4</ele>
        <time>2024-08-01T06:58:57Z</time>
      </trkpt>
      <trkpt lat="43.51281" lon="1.21287">
        <ele>208.4</ele>
        <time>2024-08-01T06:58:58Z</time>
      </trkpt>
      <trkpt lat="43.51277" lon="1.21284">
        <ele>208.2</ele>
        <time>2024-08-01T06:58:59Z</time>
      </trkpt>
      <trkpt lat="43.51273" lon="1.21283">
        <ele>208.2</ele>
        <time>2024-08-01T06:59:00Z</time>
      </trkpt>
      <trkpt lat="43.51268" lon="1.21281">
        <ele>208.2</ele>
        <time>2024-08-01T06:59:01Z</time>
      </trkpt>
      <trkpt lat="43.51264" lon="1.21281">
        <ele>208.2</ele>
        <time>2024-08-01T06:59:02Z</time>
      </trkpt>
      <trkpt lat="43.51259" lon="1.21282">
        <ele>208.2</ele>
        <time>2024-08-01T06:59:03Z</time>
      </trkpt>
      <trkpt lat="43.51254" lon="1.21283">
        <ele>208.2</ele>
        <time>2024-08-01T06:59:04Z</time>
      </trkpt>
      <trkpt lat="43.51249" lon="1.21286">
        <ele>208.2</ele>
        <time>2024-08-01T06:59:05Z</time>
      </trkpt>
      <trkpt lat="43.51244" lon="1.2129">
        <ele>208.2</ele>
        <time>2024-08-01T06:59:06Z</time>
      </trkpt>
      <trkpt lat="43.5124" lon="1.21295">
        <ele>208.2</ele>
        <time>2024-08-01T06:59:07Z</time>
      </trkpt>
      <trkpt lat="43.51236" lon="1.21301">
        <ele>208.2</ele>
        <time>2024-08-01T06:59:08Z</time>
      </trkpt>
      <trkpt lat="43.51232" lon="1.21306">
        <ele>208.2</ele>
        <time>2024-08-01T06:59:09Z</time>
      </trkpt>
      <trkpt lat="43.51228" lon="1.21311">
        <ele>208.2</ele>
        <time>2024-08-01T06:59:10Z</time>
      </trkpt>
      <trkpt lat="43.51223" lon="1.21315">
        <ele>208.2</ele>
        <time>2024-08-01T06:59:11Z</time>
      </trkpt>
      <trkpt lat="43.51218" lon="1.21316">
        <ele>208.2</ele>
        <time>2024-08-01T06:59:12Z</time>
      </trkpt>
      <trkpt lat="43.51213" lon="1.21313">
        <ele>208.2</ele>
        <time>2024-08-01T06:59:13Z</time>
      </trkpt>
      <trkpt lat="43.51208" lon="1.21308">
        <ele>208.2</ele>
        <time>2024-08-01T06:59:14Z</time>
      </trkpt>
      <trkpt lat="43.51205" lon="1.21302">
        <ele>208.2</ele>
        <time>2024-08-01T06:59:15Z</time>
      </trkpt>
      <trkpt lat="43.51201" lon="1.21295">
        <ele>208.2</ele>
        <time>2024-08-01T06:59:16Z</time>
      </trkpt>
      <trkpt lat="43.51197" lon="1.21289">
        <ele>208.2</ele>
        <time>2024-08-01T06:59:17Z</time>
      </trkpt>
      <trkpt lat="43.51194" lon="1.21283">
        <ele>208.2</ele>
        <time>2024-08-01T06:59:18Z</time>
      </trkpt>
      <trkpt lat="43.5119" lon="1.21276">
        <ele>208.2</ele>
        <time>2024-08-01T06:59:19Z</time>
      </trkpt>
      <trkpt lat="43.51187" lon="1.2127">
        <ele>208</ele>
        <time>2024-08-01T06:59:20Z</time>
      </trkpt>
      <trkpt lat="43.51183" lon="1.21264">
        <ele>208</ele>
        <time>2024-08-01T06:59:21Z</time>
      </trkpt>
      <trkpt lat="43.5118" lon="1.21257">
        <ele>208</ele>
        <time>2024-08-01T06:59:22Z</time>
      </trkpt>
      <trkpt lat="43.51177" lon="1.21251">
        <ele>208.2</ele>
        <time>2024-08-01T06:59:23Z</time>
      </trkpt>
      <trkpt lat="43.51174" lon="1.21245">
        <ele>208.2</ele>
        <time>2024-08-01T06:59:24Z</time>
      </trkpt>
      <trkpt lat="43.5117" lon="1.21239">
        <ele>208.2</ele>
        <time>2024-08-01T06:59:25Z</time>
      </trkpt>
      <trkpt lat="43.51167" lon="1.21233">
        <ele>208.2</ele>
        <time>2024-08-01T06:59:26Z</time>
      </trkpt>
      <trkpt lat="43.51163" lon="1.21227">
        <ele>208.4</ele>
        <time>2024-08-01T06:59:27Z</time>
      </trkpt>
      <trkpt lat="43.5116" lon="1.2122">
        <ele>208.6</ele>
        <time>2024-08-01T06:59:28Z</time>
      </trkpt>
      <trkpt lat="43.51156" lon="1.21214">
        <ele>208.6</ele>
        <time>2024-08-01T06:59:29Z</time>
      </trkpt>
      <trkpt lat="43.51153" lon="1.21208">
        <ele>208.6</ele>
        <time>2024-08-01T06:59:30Z</time>
      </trkpt>
      <trkpt lat="43.51149" lon="1.21202">
        <ele>208.6</ele>
        <time>2024-08-01T06:59:31Z</time>
      </trkpt>
      <trkpt lat="43.51145" lon="1.21196">
        <ele>208.8</ele>
        <time>2024-08-01T06:59:32Z</time>
      </trkpt>
      <trkpt lat="43.5114" lon="1.2119">
        <ele>208.8</ele>
        <time>2024-08-01T06:59:33Z</time>
      </trkpt>
      <trkpt lat="43.51136" lon="1.21185">
        <ele>209</ele>
        <time>2024-08-01T06:59:34Z</time>
      </trkpt>
      <trkpt lat="43.51131" lon="1.21179">
        <ele>209</ele>
        <time>2024-08-01T06:59:35Z</time>
      </trkpt>
      <trkpt lat="43.51126" lon="1.21174">
        <ele>209</ele>
        <time>2024-08-01T06:59:36Z</time>
      </trkpt>
      <trkpt lat="43.51121" lon="1.21169">
        <ele>209.2</ele>
        <time>2024-08-01T06:59:37Z</time>
      </trkpt>
      <trkpt lat="43.51117" lon="1.21164">
        <ele>209.2</ele>
        <time>2024-08-01T06:59:38Z</time>
      </trkpt>
      <trkpt lat="43.51112" lon="1.21158">
        <ele>209.2</ele>
        <time>2024-08-01T06:59:39Z</time>
      </trkpt>
      <trkpt lat="43.51107" lon="1.21153">
        <ele>209.2</ele>
        <time>2024-08-01T06:59:40Z</time>
      </trkpt>
      <trkpt lat="43.51103" lon="1.21148">
        <ele>209.2</ele>
        <time>2024-08-01T06:59:41Z</time>
      </trkpt>
      <trkpt lat="43.51098" lon="1.21143">
        <ele>209.4</ele>
        <time>2024-08-01T06:59:42Z</time>
      </trkpt>
      <trkpt lat="43.51093" lon="1.21138">
        <ele>209.4</ele>
        <time>2024-08-01T06:59:43Z</time>
      </trkpt>
      <trkpt lat="43.51088" lon="1.21133">
        <ele>209.4</ele>
        <time>2024-08-01T06:59:44Z</time>
      </trkpt>
      <trkpt lat="43.51083" lon="1.21128">
        <ele>209.4</ele>
        <time>2024-08-01T06:59:45Z</time>
      </trkpt>
      <trkpt lat="43.51078" lon="1.21123">
        <ele>209.4</ele>
        <time>2024-08-01T06:59:46Z</time>
      </trkpt>
      <trkpt lat="43.51073" lon="1.21117">
        <ele>209.4</ele>
        <time>2024-08-01T06:59:47Z</time>
      </trkpt>
      <trkpt lat="43.51068" lon="1.21112">
        <ele>209.6</ele>
        <time>2024-08-01T06:59:48Z</time>
      </trkpt>
      <trkpt lat="43.51063" lon="1.21107">
        <ele>209.6</ele>
        <time>2024-08-01T06:59:49Z</time>
      </trkpt>
      <trkpt lat="43.51058" lon="1.21102">
        <ele>209.6</ele>
        <time>2024-08-01T06:59:50Z</time>
      </trkpt>
      <trkpt lat="43.51053" lon="1.21096">
        <ele>209.6</ele>
        <time>2024-08-01T06:59:51Z</time>
      </trkpt>
      <trkpt lat="43.51048" lon="1.21091">
        <ele>209.6</ele>
        <time>2024-08-01T06:59:52Z</time>
      </trkpt>
      <trkpt lat="43.51043" lon="1.21086">
        <ele>209.6</ele>
        <time>2024-08-01T06:59:53Z</time>
      </trkpt>
      <trkpt lat="43.51038" lon="1.21081">
        <ele>209.6</ele>
        <time>2024-08-01T06:59:54Z</time>
      </trkpt>
      <trkpt lat="43.51033" lon="1.21075">
        <ele>209.8</ele>
        <time>2024-08-01T06:59:55Z</time>
      </trkpt>
      <trkpt lat="43.51028" lon="1.2107">
        <ele>209.8</ele>
        <time>2024-08-01T06:59:56Z</time>
      </trkpt>
      <trkpt lat="43.51022" lon="1.21064">
        <ele>209.8</ele>
        <time>2024-08-01T06:59:57Z</time>
      </trkpt>
      <trkpt lat="43.51017" lon="1.21059">
        <ele>209.8</ele>
        <time>2024-08-01T06:59:58Z</time>
      </trkpt>
      <trkpt lat="43.51011" lon="1.21054">
        <ele>210</ele>
        <time>2024-08-01T06:59:59Z</time>
      </trkpt>
      <trkpt lat="43.51006" lon="1.21049">
        <ele>210</ele>
        <time>2024-08-01T07:00:00Z</time>
      </trkpt>
      <trkpt lat="43.51001" lon="1.21044">
        <ele>210</ele>
        <time>2024-08-01T07:00:01Z</time>
      </trkpt>
      <trkpt lat="43.50995" lon="1.21039">
        <ele>210</ele>
        <time>2024-08-01T07:00:02Z</time>
      </trkpt>
      <trkpt lat="43.50989" lon="1.21034">
        <ele>210</ele>
        <time>2024-08-01T07:00:03Z</time>
      </trkpt>
      <trkpt lat="43.50984" lon="1.21029">
        <ele>210</ele>
        <time>2024-08-01T07:00:04Z</time>
      </trkpt>
      <trkpt lat="43.50978" lon="1.21024">
        <ele>210</ele>
        <time>2024-08-01T07:00:05Z</time>
      </trkpt>
      <trkpt lat="43.50973" lon="1.2102">
        <ele>210.2</ele>
        <time>2024-08-01T07:00:06Z</time>
      </trkpt>
      <trkpt lat="43.50967" lon="1.21015">
        <ele>210.2</ele>
        <time>2024-08-01T07:00:07Z</time>
      </trkpt>
      <trkpt lat="43.50962" lon="1.21011">
        <ele>210.2</ele>
        <time>2024-08-01T07:00:08Z</time>
      </trkpt>
      <trkpt lat="43.50956" lon="1.21006">
        <ele>210.2</ele>
        <time>2024-08-01T07:00:09Z</time>
      </trkpt>
      <trkpt lat="43.5095" lon="1.21001">
        <ele>210.2</ele>
        <time>2024-08-01T07:00:10Z</time>
      </trkpt>
      <trkpt lat="43.50944" lon="1.20997">
        <ele>210.2</ele>
        <time>2024-08-01T07:00:11Z</time>
      </trkpt>
      <trkpt lat="43.50939" lon="1.20993">
        <ele>210.2</ele>
        <time>2024-08-01T07:00:12Z</time>
      </trkpt>
      <trkpt lat="43.50934" lon="1.20988">
        <ele>210.2</ele>
        <time>2024-08-01T07:00:13Z</time>
      </trkpt>
      <trkpt lat="43.50928" lon="1.20983">
        <ele>210.2</ele>
        <time>2024-08-01T07:00:14Z</time>
      </trkpt>
      <trkpt lat="43.50922" lon="1.20979">
        <ele>210.2</ele>
        <time>2024-08-01T07:00:15Z</time>
      </trkpt>
      <trkpt lat="43.50915" lon="1.20973">
        <ele>210.2</ele>
        <time>2024-08-01T07:00:16Z</time>
      </trkpt>
      <trkpt lat="43.50909" lon="1.20968">
        <ele>210.2</ele>
        <time>2024-08-01T07:00:17Z</time>
      </trkpt>
      <trkpt lat="43.50905" lon="1.20964">
        <ele>210.2</ele>
        <time>2024-08-01T07:00:18Z</time>
      </trkpt>
      <trkpt lat="43.50899" lon="1.20959">
        <ele>210.2</ele>
        <time>2024-08-01T07:00:19Z</time>
      </trkpt>
      <trkpt lat="43.50893" lon="1.20953">
        <ele>210.2</ele>
        <time>2024-08-01T07:00:20Z</time>
      </trkpt>
      <trkpt lat="43.50887" lon="1.20947">
        <ele>210.2</ele>
        <time>2024-08-01T07:00:21Z</time>
      </trkpt>
      <trkpt lat="43.50881" lon="1.20941">
        <ele>210.2</ele>
        <time>2024-08-01T07:00:22Z</time>
      </trkpt>
      <trkpt lat="43.50877" lon="1.20937">
        <ele>210</ele>
        <time>2024-08-01T07:00:23Z</time>
      </trkpt>
      <trkpt lat="43.50871" lon="1.20931">
        <ele>210.2</ele>
        <time>2024-08-01T07:00:24Z</time>
      </trkpt>
      <trkpt lat="43.50866" lon="1.20925">
        <ele>210.2</ele>
        <time>2024-08-01T07:00:25Z</time>
      </trkpt>
      <trkpt lat="43.50859" lon="1.20919">
        <ele>210.2</ele>
        <time>2024-08-01T07:00:26Z</time>
      </trkpt>
      <trkpt lat="43.50854" lon="1.20913">
        <ele>210.2</ele>
        <time>2024-08-01T07:00:27Z</time>
      </trkpt>
      <trkpt lat="43.50849" lon="1.20909">
        <ele>210</ele>
        <time>2024-08-01T07:00:28Z</time>
      </trkpt>
      <trkpt lat="43.50844" lon="1.20903">
        <ele>210</ele>
        <time>2024-08-01T07:00:29Z</time>
      </trkpt>
      <trkpt lat="43.50839" lon="1.20898">
        <ele>210</ele>
        <time>2024-08-01T07:00:30Z</time>
      </trkpt>
      <trkpt lat="43.50832" lon="1.20891">
        <ele>210.2</ele>
        <time>2024-08-01T07:00:31Z</time>
      </trkpt>
      <trkpt lat="43.50827" lon="1.20886">
        <ele>210.2</ele>
        <time>2024-08-01T07:00:32Z</time>
      </trkpt>
      <trkpt lat="43.50822" lon="1.20882">
        <ele>210.2</ele>
        <time>2024-08-01T07:00:33Z</time>
      </trkpt>
      <trkpt lat="43.50817" lon="1.20877">
        <ele>210.2</ele>
        <time>2024-08-01T07:00:34Z</time>
      </trkpt>
      <trkpt lat="43.50817" lon="1.20877">
        <ele>210.4</ele>
        <time>2024-08-01T07:00:35Z</time>
      </trkpt>
      <trkpt lat="43.50804" lon="1.20867">
        <ele>210.4</ele>
        <time>2024-08-01T07:00:36Z</time>
      </trkpt>
      <trkpt lat="43.50798" lon="1.20863">
        <ele>210.4</ele>
        <time>2024-08-01T07:00:37Z</time>
      </trkpt>
      <trkpt lat="43.50794" lon="1.2086">
        <ele>210.6</ele>
        <time>2024-08-01T07:00:38Z</time>
      </trkpt>
      <trkpt lat="43.50788" lon="1.20856">
        <ele>210.6</ele>
        <time>2024-08-01T07:00:39Z</time>
      </trkpt>
      <trkpt lat="43.50782" lon="1.20852">
        <ele>210.6</ele>
        <time>2024-08-01T07:00:40Z</time>
      </trkpt>
      <trkpt lat="43.50775" lon="1.20847">
        <ele>210.6</ele>
        <time>2024-08-01T07:00:41Z</time>
      </trkpt>
      <trkpt lat="43.50769" lon="1.20843">
        <ele>210.6</ele>
        <time>2024-08-01T07:00:42Z</time>
      </trkpt>
      <trkpt lat="43.50764" lon="1.2084">
        <ele>210.8</ele>
        <time>2024-08-01T07:00:43Z</time>
      </trkpt>
      <trkpt lat="43.50758" lon="1.20836">
        <ele>210.8</ele>
        <time>2024-08-01T07:00:44Z</time>
      </trkpt>
      <trkpt lat="43.50752" lon="1.20832">
        <ele>210.8</ele>
        <time>2024-08-01T07:00:45Z</time>
      </trkpt>
      <trkpt lat="43.50745" lon="1.20827">
        <ele>210.8</ele>
        <time>2024-08-01T07:00:46Z</time>
      </trkpt>
      <trkpt lat="43.50739" lon="1.20823">
        <ele>210.8</ele>
        <time>2024-08-01T07:00:47Z</time>
      </trkpt>
      <trkpt lat="43.50735" lon="1.20819">
        <ele>210.6</ele>
        <time>2024-08-01T07:00:48Z</time>
      </trkpt>
      <trkpt lat="43.50729" lon="1.20815">
        <ele>210.6</ele>
        <time>2024-08-01T07:00:49Z</time>
      </trkpt>
      <trkpt lat="43.50723" lon="1.20811">
        <ele>210.6</ele>
        <time>2024-08-01T07:00:50Z</time>
      </trkpt>
      <trkpt lat="43.50716" lon="1.20806">
        <ele>210.6</ele>
        <time>2024-08-01T07:00:51Z</time>
      </trkpt>
      <trkpt lat="43.5071" lon="1.20802">
        <ele>210.6</ele>
        <time>2024-08-01T07:00:52Z</time>
      </trkpt>
      <trkpt lat="43.50705" lon="1.20799">
        <ele>210.6</ele>
        <time>2024-08-01T07:00:53Z</time>
      </trkpt>
      <trkpt lat="43.50699" lon="1.20795">
        <ele>210.6</ele>
        <time>2024-08-01T07:00:54Z</time>
      </trkpt>
      <trkpt lat="43.50693" lon="1.20793">
        <ele>210.6</ele>
        <time>2024-08-01T07:00:55Z</time>
      </trkpt>
      <trkpt lat="43.50686" lon="1.20791">
        <ele>210.6</ele>
        <time>2024-08-01T07:00:56Z</time>
      </trkpt>
      <trkpt lat="43.50678" lon="1.20789">
        <ele>210.6</ele>
        <time>2024-08-01T07:00:57Z</time>
      </trkpt>
      <trkpt lat="43.50671" lon="1.20788">
        <ele>210.6</ele>
        <time>2024-08-01T07:00:58Z</time>
      </trkpt>
      <trkpt lat="43.50665" lon="1.20788">
        <ele>210.6</ele>
        <time>2024-08-01T07:00:59Z</time>
      </trkpt>
      <trkpt lat="43.50658" lon="1.20787">
        <ele>210.6</ele>
        <time>2024-08-01T07:01:00Z</time>
      </trkpt>
      <trkpt lat="43.5065" lon="1.20786">
        <ele>210.6</ele>
        <time>2024-08-01T07:01:01Z</time>
      </trkpt>
      <trkpt lat="43.50643" lon="1.20784">
        <ele>210.6</ele>
        <time>2024-08-01T07:01:02Z</time>
      </trkpt>
      <trkpt lat="43.50638" lon="1.20784">
        <ele>210.6</ele>
        <time>2024-08-01T07:01:03Z</time>
      </trkpt>
      <trkpt lat="43.50631" lon="1.20783">
        <ele>210.6</ele>
        <time>2024-08-01T07:01:04Z</time>
      </trkpt>
      <trkpt lat="43.50624" lon="1.20782">
        <ele>210.6</ele>
        <time>2024-08-01T07:01:05Z</time>
      </trkpt>
      <trkpt lat="43.50615" lon="1.2078">
        <ele>210.6</ele>
        <time>2024-08-01T07:01:06Z</time>
      </trkpt>
      <trkpt lat="43.50608" lon="1.20779">
        <ele>210.6</ele>
        <time>2024-08-01T07:01:07Z</time>
      </trkpt>
      <trkpt lat="43.50601" lon="1.20779">
        <ele>210.6</ele>
        <time>2024-08-01T07:01:08Z</time>
      </trkpt>
      <trkpt lat="43.50594" lon="1.20778">
        <ele>210.6</ele>
        <time>2024-08-01T07:01:09Z</time>
      </trkpt>
      <trkpt lat="43.50587" lon="1.20777">
        <ele>210.6</ele>
        <time>2024-08-01T07:01:10Z</time>
      </trkpt>
      <trkpt lat="43.5058" lon="1.20776">
        <ele>210.6</ele>
        <time>2024-08-01T07:01:11Z</time>
      </trkpt>
      <trkpt lat="43.50573" lon="1.20775">
        <ele>210.4</ele>
        <time>2024-08-01T07:01:12Z</time>
      </trkpt>
      <trkpt lat="43.50567" lon="1.20774">
        <ele>210.2</ele>
        <time>2024-08-01T07:01:13Z</time>
      </trkpt>
      <trkpt lat="43.5056" lon="1.20774">
        <ele>210.2</ele>
        <time>2024-08-01T07:01:14Z</time>
      </trkpt>
      <trkpt lat="43.50553" lon="1.20773">
        <ele>210.2</ele>
        <time>2024-08-01T07:01:15Z</time>
      </trkpt>
      <trkpt lat="43.50548" lon="1.20773">
        <ele>210.2</ele>
        <time>2024-08-01T07:01:16Z</time>
      </trkpt>
      <trkpt lat="43.5054" lon="1.20773">
        <ele>210.2</ele>
        <time>2024-08-01T07:01:17Z</time>
      </trkpt>
      <trkpt lat="43.50534" lon="1.20772">
        <ele>210.2</ele>
        <time>2024-08-01T07:01:18Z</time>
      </trkpt>
      <trkpt lat="43.50528" lon="1.20772">
        <ele>210</ele>
        <time>2024-08-01T07:01:19Z</time>
      </trkpt>
      <trkpt lat="43.50521" lon="1.20772">
        <ele>210</ele>
        <time>2024-08-01T07:01:20Z</time>
      </trkpt>
      <trkpt lat="43.50513" lon="1.20772">
        <ele>210</ele>
        <time>2024-08-01T07:01:21Z</time>
      </trkpt>
      <trkpt lat="43.50507" lon="1.20772">
        <ele>210</ele>
        <time>2024-08-01T07:01:22Z</time>
      </trkpt>
      <trkpt lat="43.50501" lon="1.20772">
        <ele>210</ele>
        <time>2024-08-01T07:01:23Z</time>
      </trkpt>
      <trkpt lat="43.50495" lon="1.20772">
        <ele>210.2</ele>
        <time>2024-08-01T07:01:24Z</time>
      </trkpt>
      <trkpt lat="43.50488" lon="1.20772">
        <ele>210.4</ele>
        <time>2024-08-01T07:01:25Z</time>
      </trkpt>
      <trkpt lat="43.50481" lon="1.20772">
        <ele>210.6</ele>
        <time>2024-08-01T07:01:26Z</time>
      </trkpt>
      <trkpt lat="43.50474" lon="1.20772">
        <ele>210.8</ele>
        <time>2024-08-01T07:01:27Z</time>
      </trkpt>
      <trkpt lat="43.50469" lon="1.20772">
        <ele>210.8</ele>
        <time>2024-08-01T07:01:28Z</time>
      </trkpt>
      <trkpt lat="43.50463" lon="1.20771">
        <ele>210.8</ele>
        <time>2024-08-01T07:01:29Z</time>
      </trkpt>
      <trkpt lat="43.50457" lon="1.20771">
        <ele>211</ele>
        <time>2024-08-01T07:01:30Z</time>
      </trkpt>
      <trkpt lat="43.50449" lon="1.20771">
        <ele>211</ele>
        <time>2024-08-01T07:01:31Z</time>
      </trkpt>
      <trkpt lat="43.50443" lon="1.20771">
        <ele>211</ele>
        <time>2024-08-01T07:01:32Z</time>
      </trkpt>
      <trkpt lat="43.50438" lon="1.20771">
        <ele>211</ele>
        <time>2024-08-01T07:01:33Z</time>
      </trkpt>
      <trkpt lat="43.5043" lon="1.20771">
        <ele>211.2</ele>
        <time>2024-08-01T07:01:34Z</time>
      </trkpt>
      <trkpt lat="43.50424" lon="1.20771">
        <ele>211.2</ele>
        <time>2024-08-01T07:01:35Z</time>
      </trkpt>
      <trkpt lat="43.50418" lon="1.20771">
        <ele>211.2</ele>
        <time>2024-08-01T07:01:36Z</time>
      </trkpt>
      <trkpt lat="43.50412" lon="1.20771">
        <ele>211.2</ele>
        <time>2024-08-01T07:01:37Z</time>
      </trkpt>
      <trkpt lat="43.50406" lon="1.20771">
        <ele>211.4</ele>
        <time>2024-08-01T07:01:38Z</time>
      </trkpt>
      <trkpt lat="43.504" lon="1.20771">
        <ele>211.4</ele>
        <time>2024-08-01T07:01:39Z</time>
      </trkpt>
      <trkpt lat="43.50394" lon="1.20771">
        <ele>211.4</ele>
        <time>2024-08-01T07:01:40Z</time>
      </trkpt>
      <trkpt lat="43.50389" lon="1.20771">
        <ele>211.4</ele>
        <time>2024-08-01T07:01:41Z</time>
      </trkpt>
      <trkpt lat="43.50383" lon="1.2077">
        <ele>211.4</ele>
        <time>2024-08-01T07:01:42Z</time>
      </trkpt>
      <trkpt lat="43.50377" lon="1.2077">
        <ele>211.4</ele>
        <time>2024-08-01T07:01:43Z</time>
      </trkpt>
      <trkpt lat="43.50372" lon="1.2077">
        <ele>211.6</ele>
        <time>2024-08-01T07:01:44Z</time>
      </trkpt>
      <trkpt lat="43.50367" lon="1.2077">
        <ele>211.6</ele>
        <time>2024-08-01T07:01:45Z</time>
      </trkpt>
      <trkpt lat="43.50362" lon="1.2077">
        <ele>211.8</ele>
        <time>2024-08-01T07:01:46Z</time>
      </trkpt>
      <trkpt lat="43.50358" lon="1.2077">
        <ele>211.8</ele>
        <time>2024-08-01T07:01:47Z</time>
      </trkpt>
      <trkpt lat="43.50354" lon="1.20769">
        <ele>211.8</ele>
        <time>2024-08-01T07:01:48Z</time>
      </trkpt>
      <trkpt lat="43.50352" lon="1.20769">
        <ele>211.8</ele>
        <time>2024-08-01T07:01:49Z</time>
      </trkpt>
      <trkpt lat="43.5035" lon="1.20769">
        <ele>211.8</ele>
        <time>2024-08-01T07:01:50Z</time>
      </trkpt>
      <trkpt lat="43.50348" lon="1.20768">
        <ele>211.8</ele>
        <time>2024-08-01T07:01:51Z</time>
      </trkpt>
      <trkpt lat="43.50346" lon="1.20767">
        <ele>211.8</ele>
        <time>2024-08-01T07:01:52Z</time>
      </trkpt>
      <trkpt lat="43.50344" lon="1.20765">
        <ele>211.8</ele>
        <time>2024-08-01T07:01:53Z</time>
      </trkpt>
      <trkpt lat="43.50341" lon="1.20764">
        <ele>212</ele>
        <time>2024-08-01T07:01:54Z</time>
      </trkpt>
      <trkpt lat="43.50337" lon="1.20763">
        <ele>212</ele>
        <time>2024-08-01T07:01:55Z</time>
      </trkpt>
      <trkpt lat="43.50334" lon="1.20761">
        <ele>212</ele>
        <time>2024-08-01T07:01:56Z</time>
      </trkpt>
      <trkpt lat="43.5033" lon="1.20759">
        <ele>212</ele>
        <time>2024-08-01T07:01:57Z</time>
      </trkpt>
      <trkpt lat="43.50326" lon="1.20756">
        <ele>212</ele>
        <time>2024-08-01T07:01:58Z</time>
      </trkpt>
      <trkpt lat="43.50323" lon="1.20753">
        <ele>212.2</ele>
        <time>2024-08-01T07:01:59Z</time>
      </trkpt>
      <trkpt lat="43.50318" lon="1.20749">
        <ele>212.2</ele>
        <time>2024-08-01T07:02:00Z</time>
      </trkpt>
      <trkpt lat="43.50314" lon="1.20744">
        <ele>212.2</ele>
        <time>2024-08-01T07:02:01Z</time>
      </trkpt>
      <trkpt lat="43.5031" lon="1.2074">
        <ele>212.2</ele>
        <time>2024-08-01T07:02:02Z</time>
      </trkpt>
      <trkpt lat="43.50306" lon="1.20736">
        <ele>212.2</ele>
        <time>2024-08-01T07:02:03Z</time>
      </trkpt>
      <trkpt lat="43.50301" lon="1.20732">
        <ele>212.2</ele>
        <time>2024-08-01T07:02:04Z</time>
      </trkpt>
      <trkpt lat="43.50296" lon="1.20727">
        <ele>212.2</ele>
        <time>2024-08-01T07:02:05Z</time>
      </trkpt>
      <trkpt lat="43.50292" lon="1.20723">
        <ele>212.4</ele>
        <time>2024-08-01T07:02:06Z</time>
      </trkpt>
      <trkpt lat="43.50287" lon="1.20719">
        <ele>212.4</ele>
        <time>2024-08-01T07:02:07Z</time>
      </trkpt>
      <trkpt lat="43.50283" lon="1.20714">
        <ele>212.4</ele>
        <time>2024-08-01T07:02:08Z</time>
      </trkpt>
      <trkpt lat="43.50278" lon="1.2071">
        <ele>212.4</ele>
        <time>2024-08-01T07:02:09Z</time>
      </trkpt>
      <trkpt lat="43.50273" lon="1.20705">
        <ele>212.4</ele>
        <time>2024-08-01T07:02:10Z</time>
      </trkpt>
      <trkpt lat="43.50268" lon="1.207">
        <ele>212.4</ele>
        <time>2024-08-01T07:02:11Z</time>
      </trkpt>
      <trkpt lat="43.50262" lon="1.20696">
        <ele>212.4</ele>
        <time>2024-08-01T07:02:12Z</time>
      </trkpt>
      <trkpt lat="43.50257" lon="1.20691">
        <ele>212.6</ele>
        <time>2024-08-01T07:02:13Z</time>
      </trkpt>
      <trkpt lat="43.50252" lon="1.20686">
        <ele>212.6</ele>
        <time>2024-08-01T07:02:14Z</time>
      </trkpt>
      <trkpt lat="43.50247" lon="1.20682">
        <ele>212.6</ele>
        <time>2024-08-01T07:02:15Z</time>
      </trkpt>
      <trkpt lat="43.50242" lon="1.20678">
        <ele>212.6</ele>
        <time>2024-08-01T07:02:16Z</time>
      </trkpt>
      <trkpt lat="43.50237" lon="1.20673">
        <ele>212.6</ele>
        <time>2024-08-01T07:02:17Z</time>
      </trkpt>
      <trkpt lat="43.50232" lon="1.20668">
        <ele>212.6</ele>
        <time>2024-08-01T07:02:18Z</time>
      </trkpt>
      <trkpt lat="43.50227" lon="1.20663">
        <ele>212.6</ele>
        <time>2024-08-01T07:02:19Z</time>
      </trkpt>
      <trkpt lat="43.50222" lon="1.20658">
        <ele>212.6</ele>
        <time>2024-08-01T07:02:20Z</time>
      </trkpt>
      <trkpt lat="43.50216" lon="1.20653">
        <ele>212.8</ele>
        <time>2024-08-01T07:02:21Z</time>
      </trkpt>
      <trkpt lat="43.50211" lon="1.20648">
        <ele>212.8</ele>
        <time>2024-08-01T07:02:22Z</time>
      </trkpt>
      <trkpt lat="43.50205" lon="1.20643">
        <ele>212.8</ele>
        <time>2024-08-01T07:02:23Z</time>
      </trkpt>
      <trkpt lat="43.502" lon="1.20639">
        <ele>212.8</ele>
        <time>2024-08-01T07:02:24Z</time>
      </trkpt>
      <trkpt lat="43.50195" lon="1.20634">
        <ele>212.6</ele>
        <time>2024-08-01T07:02:25Z</time>
      </trkpt>
      <trkpt lat="43.5019" lon="1.20629">
        <ele>212.4</ele>
        <time>2024-08-01T07:02:26Z</time>
      </trkpt>
      <trkpt lat="43.50184" lon="1.20624">
        <ele>212.4</ele>
        <time>2024-08-01T07:02:27Z</time>
      </trkpt>
      <trkpt lat="43.50179" lon="1.20619">
        <ele>212.2</ele>
        <time>2024-08-01T07:02:28Z</time>
      </trkpt>
      <trkpt lat="43.50174" lon="1.20614">
        <ele>212.2</ele>
        <time>2024-08-01T07:02:29Z</time>
      </trkpt>
      <trkpt lat="43.50168" lon="1.20609">
        <ele>212.2</ele>
        <time>2024-08-01T07:02:30Z</time>
      </trkpt>
      <trkpt lat="43.50163" lon="1.20604">
        <ele>212.2</ele>
        <time>2024-08-01T07:02:31Z</time>
      </trkpt>
      <trkpt lat="43.50158" lon="1.20599">
        <ele>212.2</ele>
        <time>2024-08-01T07:02:32Z</time>
      </trkpt>
      <trkpt lat="43.50153" lon="1.20594">
        <ele>212</ele>
        <time>2024-08-01T07:02:33Z</time>
      </trkpt>
      <trkpt lat="43.50148" lon="1.20589">
        <ele>212</ele>
        <time>2024-08-01T07:02:34Z</time>
      </trkpt>
      <trkpt lat="43.50142" lon="1.20584">
        <ele>212</ele>
        <time>2024-08-01T07:02:35Z</time>
      </trkpt>
      <trkpt lat="43.50137" lon="1.20579">
        <ele>212</ele>
        <time>2024-08-01T07:02:36Z</time>
      </trkpt>
      <trkpt lat="43.50131" lon="1.20574">
        <ele>211.8</ele>
        <time>2024-08-01T07:02:37Z</time>
      </trkpt>
      <trkpt lat="43.50126" lon="1.20568">
        <ele>211.8</ele>
        <time>2024-08-01T07:02:38Z</time>
      </trkpt>
      <trkpt lat="43.5012" lon="1.20563">
        <ele>211.8</ele>
        <time>2024-08-01T07:02:39Z</time>
      </trkpt>
      <trkpt lat="43.50115" lon="1.20558">
        <ele>211.8</ele>
        <time>2024-08-01T07:02:40Z</time>
      </trkpt>
      <trkpt lat="43.50109" lon="1.20552">
        <ele>211.8</ele>
        <time>2024-08-01T07:02:41Z</time>
      </trkpt>
      <trkpt lat="43.50103" lon="1.20547">
        <ele>211.8</ele>
        <time>2024-08-01T07:02:42Z</time>
      </trkpt>
      <trkpt lat="43.50098" lon="1.20542">
        <ele>211.8</ele>
        <time>2024-08-01T07:02:43Z</time>
      </trkpt>
      <trkpt lat="43.50092" lon="1.20536">
        <ele>211.8</ele>
        <time>2024-08-01T07:02:44Z</time>
      </trkpt>
      <trkpt lat="43.50086" lon="1.20531">
        <ele>211.8</ele>
        <time>2024-08-01T07:02:45Z</time>
      </trkpt>
      <trkpt lat="43.50081" lon="1.20526">
        <ele>212</ele>
        <time>2024-08-01T07:02:46Z</time>
      </trkpt>
      <trkpt lat="43.50075" lon="1.2052">
        <ele>212</ele>
        <time>2024-08-01T07:02:47Z</time>
      </trkpt>
      <trkpt lat="43.5007" lon="1.20514">
        <ele>212</ele>
        <time>2024-08-01T07:02:48Z</time>
      </trkpt>
      <trkpt lat="43.50064" lon="1.20509">
        <ele>212.2</ele>
        <time>2024-08-01T07:02:49Z</time>
      </trkpt>
      <trkpt lat="43.50058" lon="1.20504">
        <ele>212.2</ele>
        <time>2024-08-01T07:02:50Z</time>
      </trkpt>
      <trkpt lat="43.50052" lon="1.20498">
        <ele>212.2</ele>
        <time>2024-08-01T07:02:51Z</time>
      </trkpt>
      <trkpt lat="43.50047" lon="1.20493">
        <ele>212.2</ele>
        <time>2024-08-01T07:02:52Z</time>
      </trkpt>
      <trkpt lat="43.50041" lon="1.20488">
        <ele>212.2</ele>
        <time>2024-08-01T07:02:53Z</time>
      </trkpt>
      <trkpt lat="43.50036" lon="1.20482">
        <ele>212.2</ele>
        <time>2024-08-01T07:02:54Z</time>
      </trkpt>
      <trkpt lat="43.5003" lon="1.20477">
        <ele>212.2</ele>
        <time>2024-08-01T07:02:55Z</time>
      </trkpt>
      <trkpt lat="43.50025" lon="1.20472">
        <ele>212.2</ele>
        <time>2024-08-01T07:02:56Z</time>
      </trkpt>
      <trkpt lat="43.50019" lon="1.20467">
        <ele>212.4</ele>
        <time>2024-08-01T07:02:57Z</time>
      </trkpt>
      <trkpt lat="43.50013" lon="1.20462">
        <ele>212.4</ele>
        <time>2024-08-01T07:02:58Z</time>
      </trkpt>
      <trkpt lat="43.50007" lon="1.20456">
        <ele>212.4</ele>
        <time>2024-08-01T07:02:59Z</time>
      </trkpt>
      <trkpt lat="43.50002" lon="1.20451">
        <ele>212.4</ele>
        <time>2024-08-01T07:03:00Z</time>
      </trkpt>
      <trkpt lat="43.49996" lon="1.20445">
        <ele>212.4</ele>
        <time>2024-08-01T07:03:01Z</time>
      </trkpt>
      <trkpt lat="43.49991" lon="1.2044">
        <ele>212.4</ele>
        <time>2024-08-01T07:03:02Z</time>
      </trkpt>
      <trkpt lat="43.49985" lon="1.20435">
        <ele>212.4</ele>
        <time>2024-08-01T07:03:03Z</time>
      </trkpt>
      <trkpt lat="43.4998" lon="1.20429">
        <ele>212.6</ele>
        <time>2024-08-01T07:03:04Z</time>
      </trkpt>
      <trkpt lat="43.49974" lon="1.20424">
        <ele>212.6</ele>
        <time>2024-08-01T07:03:05Z</time>
      </trkpt>
      <trkpt lat="43.49968" lon="1.20419">
        <ele>212.6</ele>
        <time>2024-08-01T07:03:06Z</time>
      </trkpt>
      <trkpt lat="43.49963" lon="1.20413">
        <ele>212.6</ele>
        <time>2024-08-01T07:03:07Z</time>
      </trkpt>
      <trkpt lat="43.49958" lon="1.20408">
        <ele>212.6</ele>
        <time>2024-08-01T07:03:08Z</time>
      </trkpt>
      <trkpt lat="43.49952" lon="1.20403">
        <ele>212.6</ele>
        <time>2024-08-01T07:03:09Z</time>
      </trkpt>
      <trkpt lat="43.49947" lon="1.20398">
        <ele>212.6</ele>
        <time>2024-08-01T07:03:10Z</time>
      </trkpt>
      <trkpt lat="43.49941" lon="1.20393">
        <ele>212.6</ele>
        <time>2024-08-01T07:03:11Z</time>
      </trkpt>
      <trkpt lat="43.49936" lon="1.20387">
        <ele>212.6</ele>
        <time>2024-08-01T07:03:12Z</time>
      </trkpt>
      <trkpt lat="43.4993" lon="1.20382">
        <ele>212.6</ele>
        <time>2024-08-01T07:03:13Z</time>
      </trkpt>
      <trkpt lat="43.49925" lon="1.20377">
        <ele>212.8</ele>
        <time>2024-08-01T07:03:14Z</time>
      </trkpt>
      <trkpt lat="43.4992" lon="1.20372">
        <ele>213</ele>
        <time>2024-08-01T07:03:15Z</time>
      </trkpt>
      <trkpt lat="43.49914" lon="1.20366">
        <ele>213</ele>
        <time>2024-08-01T07:03:16Z</time>
      </trkpt>
      <trkpt lat="43.49909" lon="1.20361">
        <ele>213</ele>
        <time>2024-08-01T07:03:17Z</time>
      </trkpt>
      <trkpt lat="43.49903" lon="1.20356">
        <ele>212.8</ele>
        <time>2024-08-01T07:03:18Z</time>
      </trkpt>
      <trkpt lat="43.49898" lon="1.20351">
        <ele>213</ele>
        <time>2024-08-01T07:03:19Z</time>
      </trkpt>
      <trkpt lat="43.49892" lon="1.20346">
        <ele>213</ele>
        <time>2024-08-01T07:03:20Z</time>
      </trkpt>
      <trkpt lat="43.49887" lon="1.20341">
        <ele>213.2</ele>
        <time>2024-08-01T07:03:21Z</time>
      </trkpt>
      <trkpt lat="43.49881" lon="1.20336">
        <ele>213.2</ele>
        <time>2024-08-01T07:03:22Z</time>
      </trkpt>
      <trkpt lat="43.49876" lon="1.20331">
        <ele>213.4</ele>
        <time>2024-08-01T07:03:23Z</time>
      </trkpt>
      <trkpt lat="43.4987" lon="1.20325">
        <ele>213.4</ele>
        <time>2024-08-01T07:03:24Z</time>
      </trkpt>
      <trkpt lat="43.49865" lon="1.2032">
        <ele>213.4</ele>
        <time>2024-08-01T07:03:25Z</time>
      </trkpt>
      <trkpt lat="43.49859" lon="1.20315">
        <ele>213.6</ele>
        <time>2024-08-01T07:03:26Z</time>
      </trkpt>
      <trkpt lat="43.49854" lon="1.2031">
        <ele>213.6</ele>
        <time>2024-08-01T07:03:27Z</time>
      </trkpt>
      <trkpt lat="43.49848" lon="1.20304">
        <ele>213.6</ele>
        <time>2024-08-01T07:03:28Z</time>
      </trkpt>
      <trkpt lat="43.49843" lon="1.20299">
        <ele>213.8</ele>
        <time>2024-08-01T07:03:29Z</time>
      </trkpt>
      <trkpt lat="43.49837" lon="1.20294">
        <ele>213.8</ele>
        <time>2024-08-01T07:03:30Z</time>
      </trkpt>
      <trkpt lat="43.49831" lon="1.2029">
        <ele>213.8</ele>
        <time>2024-08-01T07:03:31Z</time>
      </trkpt>
      <trkpt lat="43.49826" lon="1.20285">
        <ele>213.8</ele>
        <time>2024-08-01T07:03:32Z</time>
      </trkpt>
      <trkpt lat="43.4982" lon="1.20281">
        <ele>214</ele>
        <time>2024-08-01T07:03:33Z</time>
      </trkpt>
      <trkpt lat="43.49814" lon="1.20276">
        <ele>214</ele>
        <time>2024-08-01T07:03:34Z</time>
      </trkpt>
      <trkpt lat="43.49808" lon="1.20273">
        <ele>214</ele>
        <time>2024-08-01T07:03:35Z</time>
      </trkpt>
      <trkpt lat="43.49801" lon="1.20269">
        <ele>214.2</ele>
        <time>2024-08-01T07:03:36Z</time>
      </trkpt>
      <trkpt lat="43.49795" lon="1.20266">
        <ele>214.2</ele>
        <time>2024-08-01T07:03:37Z</time>
      </trkpt>
      <trkpt lat="43.49789" lon="1.20264">
        <ele>214.4</ele>
        <time>2024-08-01T07:03:38Z</time>
      </trkpt>
      <trkpt lat="43.49783" lon="1.20261">
        <ele>214.4</ele>
        <time>2024-08-01T07:03:39Z</time>
      </trkpt>
      <trkpt lat="43.49777" lon="1.20259">
        <ele>214.6</ele>
        <time>2024-08-01T07:03:40Z</time>
      </trkpt>
      <trkpt lat="43.49771" lon="1.20257">
        <ele>214.6</ele>
        <time>2024-08-01T07:03:41Z</time>
      </trkpt>
      <trkpt lat="43.49764" lon="1.20254">
        <ele>214.6</ele>
        <time>2024-08-01T07:03:42Z</time>
      </trkpt>
      <trkpt lat="43.49758" lon="1.20252">
        <ele>214.8</ele>
        <time>2024-08-01T07:03:43Z</time>
      </trkpt>
      <trkpt lat="43.49752" lon="1.2025">
        <ele>214.8</ele>
        <time>2024-08-01T07:03:44Z</time>
      </trkpt>
      <trkpt lat="43.49745" lon="1.20247">
        <ele>214.8</ele>
        <time>2024-08-01T07:03:45Z</time>
      </trkpt>
      <trkpt lat="43.49739" lon="1.20245">
        <ele>214.8</ele>
        <time>2024-08-01T07:03:46Z</time>
      </trkpt>
      <trkpt lat="43.49733" lon="1.20242">
        <ele>214.8</ele>
        <time>2024-08-01T07:03:47Z</time>
      </trkpt>
      <trkpt lat="43.49727" lon="1.2024">
        <ele>214.8</ele>
        <time>2024-08-01T07:03:48Z</time>
      </trkpt>
      <trkpt lat="43.49721" lon="1.20236">
        <ele>215</ele>
        <time>2024-08-01T07:03:49Z</time>
      </trkpt>
      <trkpt lat="43.49715" lon="1.20233">
        <ele>215</ele>
        <time>2024-08-01T07:03:50Z</time>
      </trkpt>
      <trkpt lat="43.49709" lon="1.2023">
        <ele>215</ele>
        <time>2024-08-01T07:03:51Z</time>
      </trkpt>
      <trkpt lat="43.49702" lon="1.20226">
        <ele>215</ele>
        <time>2024-08-01T07:03:52Z</time>
      </trkpt>
      <trkpt lat="43.49696" lon="1.20222">
        <ele>215</ele>
        <time>2024-08-01T07:03:53Z</time>
      </trkpt>
      <trkpt lat="43.4969" lon="1.20217">
        <ele>215</ele>
        <time>2024-08-01T07:03:54Z</time>
      </trkpt>
      <trkpt lat="43.49684" lon="1.20213">
        <ele>215</ele>
        <time>2024-08-01T07:03:55Z</time>
      </trkpt>
      <trkpt lat="43.49678" lon="1.20209">
        <ele>215</ele>
        <time>2024-08-01T07:03:56Z</time>
      </trkpt>
      <trkpt lat="43.49672" lon="1.20205">
        <ele>215</ele>
        <time>2024-08-01T07:03:57Z</time>
      </trkpt>
      <trkpt lat="43.49665" lon="1.20201">
        <ele>215</ele>
        <time>2024-08-01T07:03:58Z</time>
      </trkpt>
      <trkpt lat="43.49659" lon="1.20196">
        <ele>215</ele>
        <time>2024-08-01T07:03:59Z</time>
      </trkpt>
      <trkpt lat="43.49653" lon="1.20192">
        <ele>215.2</ele>
        <time>2024-08-01T07:04:00Z</time>
      </trkpt>
      <trkpt lat="43.49647" lon="1.20187">
        <ele>215.2</ele>
        <time>2024-08-01T07:04:01Z</time>
      </trkpt>
      <trkpt lat="43.49641" lon="1.20182">
        <ele>215.2</ele>
        <time>2024-08-01T07:04:02Z</time>
      </trkpt>
      <trkpt lat="43.49635" lon="1.20178">
        <ele>215.2</ele>
        <time>2024-08-01T07:04:03Z</time>
      </trkpt>
      <trkpt lat="43.49629" lon="1.20173">
        <ele>215.2</ele>
        <time>2024-08-01T07:04:04Z</time>
      </trkpt>
      <trkpt lat="43.49623" lon="1.20169">
        <ele>215.2</ele>
        <time>2024-08-01T07:04:05Z</time>
      </trkpt>
      <trkpt lat="43.49618" lon="1.20165">
        <ele>215.4</ele>
        <time>2024-08-01T07:04:06Z</time>
      </trkpt>
      <trkpt lat="43.49612" lon="1.20161">
        <ele>215.4</ele>
        <time>2024-08-01T07:04:07Z</time>
      </trkpt>
      <trkpt lat="43.49606" lon="1.20156">
        <ele>215.4</ele>
        <time>2024-08-01T07:04:08Z</time>
      </trkpt>
      <trkpt lat="43.496" lon="1.20152">
        <ele>215.4</ele>
        <time>2024-08-01T07:04:09Z</time>
      </trkpt>
      <trkpt lat="43.49594" lon="1.20147">
        <ele>215.4</ele>
        <time>2024-08-01T07:04:10Z</time>
      </trkpt>
      <trkpt lat="43.49588" lon="1.20143">
        <ele>215.4</ele>
        <time>2024-08-01T07:04:11Z</time>
      </trkpt>
      <trkpt lat="43.49583" lon="1.20139">
        <ele>215.4</ele>
        <time>2024-08-01T07:04:12Z</time>
      </trkpt>
      <trkpt lat="43.49577" lon="1.20134">
        <ele>215.4</ele>
        <time>2024-08-01T07:04:13Z</time>
      </trkpt>
      <trkpt lat="43.49571" lon="1.2013">
        <ele>215.4</ele>
        <time>2024-08-01T07:04:14Z</time>
      </trkpt>
      <trkpt lat="43.49566" lon="1.20126">
        <ele>215.4</ele>
        <time>2024-08-01T07:04:15Z</time>
      </trkpt>
      <trkpt lat="43.49561" lon="1.20122">
        <ele>215.4</ele>
        <time>2024-08-01T07:04:16Z</time>
      </trkpt>
      <trkpt lat="43.49555" lon="1.20118">
        <ele>215.4</ele>
        <time>2024-08-01T07:04:17Z</time>
      </trkpt>
      <trkpt lat="43.4955" lon="1.20113">
        <ele>215.6</ele>
        <time>2024-08-01T07:04:18Z</time>
      </trkpt>
      <trkpt lat="43.49545" lon="1.20109">
        <ele>215.6</ele>
        <time>2024-08-01T07:04:19Z</time>
      </trkpt>
      <trkpt lat="43.4954" lon="1.20106">
        <ele>215.6</ele>
        <time>2024-08-01T07:04:20Z</time>
      </trkpt>
      <trkpt lat="43.49536" lon="1.20102">
        <ele>215.6</ele>
        <time>2024-08-01T07:04:21Z</time>
      </trkpt>
      <trkpt lat="43.49531" lon="1.20098">
        <ele>215.8</ele>
        <time>2024-08-01T07:04:22Z</time>
      </trkpt>
      <trkpt lat="43.49527" lon="1.20095">
        <ele>215.8</ele>
        <time>2024-08-01T07:04:23Z</time>
      </trkpt>
      <trkpt lat="43.49523" lon="1.20091">
        <ele>215.8</ele>
        <time>2024-08-01T07:04:24Z</time>
      </trkpt>
      <trkpt lat="43.49519" lon="1.20088">
        <ele>215.8</ele>
        <time>2024-08-01T07:04:25Z</time>
      </trkpt>
      <trkpt lat="43.49517" lon="1.20085">
        <ele>215.8</ele>
        <time>2024-08-01T07:04:26Z</time>
      </trkpt>
      <trkpt lat="43.49514" lon="1.20082">
        <ele>216</ele>
        <time>2024-08-01T07:04:27Z</time>
      </trkpt>
      <trkpt lat="43.49514" lon="1.20079">
        <ele>216</ele>
        <time>2024-08-01T07:04:28Z</time>
      </trkpt>
      <trkpt lat="43.49514" lon="1.20076">
        <ele>216</ele>
        <time>2024-08-01T07:04:29Z</time>
      </trkpt>
      <trkpt lat="43.49515" lon="1.20074">
        <ele>216</ele>
        <time>2024-08-01T07:04:30Z</time>
      </trkpt>
      <trkpt lat="43.49517" lon="1.20072">
        <ele>216</ele>
        <time>2024-08-01T07:04:31Z</time>
      </trkpt>
      <trkpt lat="43.4952" lon="1.20071">
        <ele>216.2</ele>
        <time>2024-08-01T07:04:32Z</time>
      </trkpt>
      <trkpt lat="43.49523" lon="1.20069">
        <ele>216.2</ele>
        <time>2024-08-01T07:04:33Z</time>
      </trkpt>
      <trkpt lat="43.49527" lon="1.20067">
        <ele>216.2</ele>
        <time>2024-08-01T07:04:34Z</time>
      </trkpt>
      <trkpt lat="43.49531" lon="1.20065">
        <ele>216.2</ele>
        <time>2024-08-01T07:04:35Z</time>
      </trkpt>
      <trkpt lat="43.49536" lon="1.20063">
        <ele>216.2</ele>
        <time>2024-08-01T07:04:36Z</time>
      </trkpt>
      <trkpt lat="43.49541" lon="1.20061">
        <ele>216.2</ele>
        <time>2024-08-01T07:04:37Z</time>
      </trkpt>
      <trkpt lat="43.49546" lon="1.20059">
        <ele>216.4</ele>
        <time>2024-08-01T07:04:38Z</time>
      </trkpt>
      <trkpt lat="43.49551" lon="1.20057">
        <ele>216.4</ele>
        <time>2024-08-01T07:04:39Z</time>
      </trkpt>
      <trkpt lat="43.49556" lon="1.20054">
        <ele>216.4</ele>
        <time>2024-08-01T07:04:40Z</time>
      </trkpt>
      <trkpt lat="43.49561" lon="1.20052">
        <ele>216.4</ele>
        <time>2024-08-01T07:04:41Z</time>
      </trkpt>
      <trkpt lat="43.49565" lon="1.20048">
        <ele>216.2</ele>
        <time>2024-08-01T07:04:42Z</time>
      </trkpt>
      <trkpt lat="43.49567" lon="1.20043">
        <ele>216.4</ele>
        <time>2024-08-01T07:04:43Z</time>
      </trkpt>
      <trkpt lat="43.49568" lon="1.20036">
        <ele>216.2</ele>
        <time>2024-08-01T07:04:44Z</time>
      </trkpt>
      <trkpt lat="43.49568" lon="1.20029">
        <ele>216.2</ele>
        <time>2024-08-01T07:04:45Z</time>
      </trkpt>
      <trkpt lat="43.49568" lon="1.20023">
        <ele>216.4</ele>
        <time>2024-08-01T07:04:46Z</time>
      </trkpt>
      <trkpt lat="43.49568" lon="1.20016">
        <ele>216.4</ele>
        <time>2024-08-01T07:04:47Z</time>
      </trkpt>
      <trkpt lat="43.49568" lon="1.20008">
        <ele>216.6</ele>
        <time>2024-08-01T07:04:48Z</time>
      </trkpt>
      <trkpt lat="43.49568" lon="1.20002">
        <ele>216.4</ele>
        <time>2024-08-01T07:04:49Z</time>
      </trkpt>
      <trkpt lat="43.49568" lon="1.19995">
        <ele>216.4</ele>
        <time>2024-08-01T07:04:50Z</time>
      </trkpt>
      <trkpt lat="43.49568" lon="1.19988">
        <ele>216.4</ele>
        <time>2024-08-01T07:04:51Z</time>
      </trkpt>
      <trkpt lat="43.49568" lon="1.1998">
        <ele>216.6</ele>
        <time>2024-08-01T07:04:52Z</time>
      </trkpt>
      <trkpt lat="43.49568" lon="1.19972">
        <ele>217</ele>
        <time>2024-08-01T07:04:53Z</time>
      </trkpt>
      <trkpt lat="43.49568" lon="1.19966">
        <ele>216.8</ele>
        <time>2024-08-01T07:04:54Z</time>
      </trkpt>
      <trkpt lat="43.49568" lon="1.19966">
        <ele>217</ele>
        <time>2024-08-01T07:04:55Z</time>
      </trkpt>
      <trkpt lat="43.49568" lon="1.19952">
        <ele>217</ele>
        <time>2024-08-01T07:04:56Z</time>
      </trkpt>
      <trkpt lat="43.49568" lon="1.19945">
        <ele>217.2</ele>
        <time>2024-08-01T07:04:57Z</time>
      </trkpt>
      <trkpt lat="43.49569" lon="1.19938">
        <ele>217.2</ele>
        <time>2024-08-01T07:04:58Z</time>
      </trkpt>
      <trkpt lat="43.4957" lon="1.19932">
        <ele>217.2</ele>
        <time>2024-08-01T07:04:59Z</time>
      </trkpt>
      <trkpt lat="43.49573" lon="1.19926">
        <ele>217.2</ele>
        <time>2024-08-01T07:05:00Z</time>
      </trkpt>
      <trkpt lat="43.49576" lon="1.19921">
        <ele>217.2</ele>
        <time>2024-08-01T07:05:01Z</time>
      </trkpt>
      <trkpt lat="43.4958" lon="1.19917">
        <ele>217.2</ele>
        <time>2024-08-01T07:05:02Z</time>
      </trkpt>
      <trkpt lat="43.49585" lon="1.19913">
        <ele>217.4</ele>
        <time>2024-08-01T07:05:03Z</time>
      </trkpt>
      <trkpt lat="43.49589" lon="1.19909">
        <ele>217.4</ele>
        <time>2024-08-01T07:05:04Z</time>
      </trkpt>
      <trkpt lat="43.49593" lon="1.19905">
        <ele>217.4</ele>
        <time>2024-08-01T07:05:05Z</time>
      </trkpt>
      <trkpt lat="43.49596" lon="1.19898">
        <ele>217.4</ele>
        <time>2024-08-01T07:05:06Z</time>
      </trkpt>
      <trkpt lat="43.49598" lon="1.19891">
        <ele>217.4</ele>
        <time>2024-08-01T07:05:07Z</time>
      </trkpt>
      <trkpt lat="43.49598" lon="1.19884">
        <ele>217.4</ele>
        <time>2024-08-01T07:05:08Z</time>
      </trkpt>
      <trkpt lat="43.49599" lon="1.19876">
        <ele>217.4</ele>
        <time>2024-08-01T07:05:09Z</time>
      </trkpt>
      <trkpt lat="43.49599" lon="1.19868">
        <ele>217.4</ele>
        <time>2024-08-01T07:05:10Z</time>
      </trkpt>
      <trkpt lat="43.49599" lon="1.19861">
        <ele>217.4</ele>
        <time>2024-08-01T07:05:11Z</time>
      </trkpt>
      <trkpt lat="43.49599" lon="1.19853">
        <ele>217.6</ele>
        <time>2024-08-01T07:05:12Z</time>
      </trkpt>
      <trkpt lat="43.49599" lon="1.19846">
        <ele>217.6</ele>
        <time>2024-08-01T07:05:13Z</time>
      </trkpt>
      <trkpt lat="43.49598" lon="1.19838">
        <ele>217.6</ele>
        <time>2024-08-01T07:05:14Z</time>
      </trkpt>
      <trkpt lat="43.49597" lon="1.19831">
        <ele>217.6</ele>
        <time>2024-08-01T07:05:15Z</time>
      </trkpt>
      <trkpt lat="43.49596" lon="1.19823">
        <ele>217.8</ele>
        <time>2024-08-01T07:05:16Z</time>
      </trkpt>
      <trkpt lat="43.49595" lon="1.19816">
        <ele>217.8</ele>
        <time>2024-08-01T07:05:17Z</time>
      </trkpt>
      <trkpt lat="43.49592" lon="1.19809">
        <ele>217.8</ele>
        <time>2024-08-01T07:05:18Z</time>
      </trkpt>
      <trkpt lat="43.4959" lon="1.19803">
        <ele>218</ele>
        <time>2024-08-01T07:05:19Z</time>
      </trkpt>
      <trkpt lat="43.49588" lon="1.19797">
        <ele>218</ele>
        <time>2024-08-01T07:05:20Z</time>
      </trkpt>
      <trkpt lat="43.49585" lon="1.19791">
        <ele>218.2</ele>
        <time>2024-08-01T07:05:21Z</time>
      </trkpt>
      <trkpt lat="43.49583" lon="1.19785">
        <ele>218.2</ele>
        <time>2024-08-01T07:05:22Z</time>
      </trkpt>
      <trkpt lat="43.49581" lon="1.1978">
        <ele>218.4</ele>
        <time>2024-08-01T07:05:23Z</time>
      </trkpt>
      <trkpt lat="43.49579" lon="1.19775">
        <ele>218.6</ele>
        <time>2024-08-01T07:05:24Z</time>
      </trkpt>
      <trkpt lat="43.49577" lon="1.1977">
        <ele>218.6</ele>
        <time>2024-08-01T07:05:25Z</time>
      </trkpt>
      <trkpt lat="43.49575" lon="1.19765">
        <ele>218.6</ele>
        <time>2024-08-01T07:05:26Z</time>
      </trkpt>
      <trkpt lat="43.49573" lon="1.19759">
        <ele>218.6</ele>
        <time>2024-08-01T07:05:27Z</time>
      </trkpt>
      <trkpt lat="43.49571" lon="1.19753">
        <ele>218.6</ele>
        <time>2024-08-01T07:05:28Z</time>
      </trkpt>
      <trkpt lat="43.49569" lon="1.19747">
        <ele>218.6</ele>
        <time>2024-08-01T07:05:29Z</time>
      </trkpt>
      <trkpt lat="43.49567" lon="1.19742">
        <ele>218.8</ele>
        <time>2024-08-01T07:05:30Z</time>
      </trkpt>
      <trkpt lat="43.49566" lon="1.19737">
        <ele>218.8</ele>
        <time>2024-08-01T07:05:31Z</time>
      </trkpt>
      <trkpt lat="43.49564" lon="1.19732">
        <ele>218.8</ele>
        <time>2024-08-01T07:05:32Z</time>
      </trkpt>
      <trkpt lat="43.49562" lon="1.19727">
        <ele>218.8</ele>
        <time>2024-08-01T07:05:33Z</time>
      </trkpt>
      <trkpt lat="43.4956" lon="1.19721">
        <ele>218.8</ele>
        <time>2024-08-01T07:05:34Z</time>
      </trkpt>
      <trkpt lat="43.49558" lon="1.19715">
        <ele>218.8</ele>
        <time>2024-08-01T07:05:35Z</time>
      </trkpt>
      <trkpt lat="43.49556" lon="1.19708">
        <ele>218.8</ele>
        <time>2024-08-01T07:05:36Z</time>
      </trkpt>
      <trkpt lat="43.49554" lon="1.19703">
        <ele>218.8</ele>
        <time>2024-08-01T07:05:37Z</time>
      </trkpt>
      <trkpt lat="43.49552" lon="1.19697">
        <ele>218.6</ele>
        <time>2024-08-01T07:05:38Z</time>
      </trkpt>
      <trkpt lat="43.4955" lon="1.1969">
        <ele>218.6</ele>
        <time>2024-08-01T07:05:39Z</time>
      </trkpt>
      <trkpt lat="43.49548" lon="1.19683">
        <ele>218.6</ele>
        <time>2024-08-01T07:05:40Z</time>
      </trkpt>
      <trkpt lat="43.49546" lon="1.19676">
        <ele>218.8</ele>
        <time>2024-08-01T07:05:41Z</time>
      </trkpt>
      <trkpt lat="43.49545" lon="1.19669">
        <ele>218.8</ele>
        <time>2024-08-01T07:05:42Z</time>
      </trkpt>
      <trkpt lat="43.49543" lon="1.19661">
        <ele>218.8</ele>
        <time>2024-08-01T07:05:43Z</time>
      </trkpt>
      <trkpt lat="43.49542" lon="1.19653">
        <ele>218.6</ele>
        <time>2024-08-01T07:05:44Z</time>
      </trkpt>
      <trkpt lat="43.49541" lon="1.19645">
        <ele>218.6</ele>
        <time>2024-08-01T07:05:45Z</time>
      </trkpt>
      <trkpt lat="43.4954" lon="1.19637">
        <ele>218.6</ele>
        <time>2024-08-01T07:05:46Z</time>
      </trkpt>
      <trkpt lat="43.4954" lon="1.19629">
        <ele>218.6</ele>
        <time>2024-08-01T07:05:47Z</time>
      </trkpt>
      <trkpt lat="43.4954" lon="1.19621">
        <ele>218.6</ele>
        <time>2024-08-01T07:05:48Z</time>
      </trkpt>
      <trkpt lat="43.49539" lon="1.19613">
        <ele>218.6</ele>
        <time>2024-08-01T07:05:49Z</time>
      </trkpt>
      <trkpt lat="43.49539" lon="1.19605">
        <ele>218.6</ele>
        <time>2024-08-01T07:05:50Z</time>
      </trkpt>
      <trkpt lat="43.49539" lon="1.19597">
        <ele>218.8</ele>
        <time>2024-08-01T07:05:51Z</time>
      </trkpt>
      <trkpt lat="43.49539" lon="1.19589">
        <ele>218.6</ele>
        <time>2024-08-01T07:05:52Z</time>
      </trkpt>
      <trkpt lat="43.49539" lon="1.19581">
        <ele>218.6</ele>
        <time>2024-08-01T07:05:53Z</time>
      </trkpt>
      <trkpt lat="43.4954" lon="1.19573">
        <ele>218.8</ele>
        <time>2024-08-01T07:05:54Z</time>
      </trkpt>
      <trkpt lat="43.4954" lon="1.19564">
        <ele>218.8</ele>
        <time>2024-08-01T07:05:55Z</time>
      </trkpt>
      <trkpt lat="43.4954" lon="1.19556">
        <ele>219</ele>
        <time>2024-08-01T07:05:56Z</time>
      </trkpt>
      <trkpt lat="43.4954" lon="1.19548">
        <ele>219</ele>
        <time>2024-08-01T07:05:57Z</time>
      </trkpt>
      <trkpt lat="43.49541" lon="1.1954">
        <ele>218.8</ele>
        <time>2024-08-01T07:05:58Z</time>
      </trkpt>
      <trkpt lat="43.49541" lon="1.19532">
        <ele>219</ele>
        <time>2024-08-01T07:05:59Z</time>
      </trkpt>
      <trkpt lat="43.49542" lon="1.19524">
        <ele>218.8</ele>
        <time>2024-08-01T07:06:00Z</time>
      </trkpt>
      <trkpt lat="43.49542" lon="1.19517">
        <ele>219.2</ele>
        <time>2024-08-01T07:06:01Z</time>
      </trkpt>
      <trkpt lat="43.49543" lon="1.19509">
        <ele>219.2</ele>
        <time>2024-08-01T07:06:02Z</time>
      </trkpt>
      <trkpt lat="43.49543" lon="1.19501">
        <ele>219</ele>
        <time>2024-08-01T07:06:03Z</time>
      </trkpt>
      <trkpt lat="43.49543" lon="1.19494">
        <ele>219</ele>
        <time>2024-08-01T07:06:04Z</time>
      </trkpt>
      <trkpt lat="43.49542" lon="1.19487">
        <ele>218.8</ele>
        <time>2024-08-01T07:06:05Z</time>
      </trkpt>
      <trkpt lat="43.49539" lon="1.19482">
        <ele>218.8</ele>
        <time>2024-08-01T07:06:06Z</time>
      </trkpt>
      <trkpt lat="43.49534" lon="1.19478">
        <ele>218.8</ele>
        <time>2024-08-01T07:06:07Z</time>
      </trkpt>
      <trkpt lat="43.49529" lon="1.19477">
        <ele>218.8</ele>
        <time>2024-08-01T07:06:08Z</time>
      </trkpt>
      <trkpt lat="43.49513" lon="1.19477">
        <ele>218.8</ele>
        <time>2024-08-01T07:06:11Z</time>
      </trkpt>
      <trkpt lat="43.49508" lon="1.19476">
        <ele>218.8</ele>
        <time>2024-08-01T07:06:12Z</time>
      </trkpt>
      <trkpt lat="43.49502" lon="1.19476">
        <ele>218.8</ele>
        <time>2024-08-01T07:06:13Z</time>
      </trkpt>
      <trkpt lat="43.49497" lon="1.19477">
        <ele>218.8</ele>
        <time>2024-08-01T07:06:14Z</time>
      </trkpt>
      <trkpt lat="43.49491" lon="1.19477">
        <ele>218.8</ele>
        <time>2024-08-01T07:06:15Z</time>
      </trkpt>
      <trkpt lat="43.49485" lon="1.19476">
        <ele>218.8</ele>
        <time>2024-08-01T07:06:16Z</time>
      </trkpt>
      <trkpt lat="43.49478" lon="1.19476">
        <ele>218.8</ele>
        <time>2024-08-01T07:06:17Z</time>
      </trkpt>
      <trkpt lat="43.49473" lon="1.19475">
        <ele>218.8</ele>
        <time>2024-08-01T07:06:18Z</time>
      </trkpt>
      <trkpt lat="43.49467" lon="1.19474">
        <ele>218.8</ele>
        <time>2024-08-01T07:06:19Z</time>
      </trkpt>
      <trkpt lat="43.49462" lon="1.19473">
        <ele>218.8</ele>
        <time>2024-08-01T07:06:20Z</time>
      </trkpt>
      <trkpt lat="43.49456" lon="1.19472">
        <ele>218.8</ele>
        <time>2024-08-01T07:06:21Z</time>
      </trkpt>
      <trkpt lat="43.49449" lon="1.19471">
        <ele>218.8</ele>
        <time>2024-08-01T07:06:22Z</time>
      </trkpt>
      <trkpt lat="43.49444" lon="1.1947">
        <ele>218.8</ele>
        <time>2024-08-01T07:06:23Z</time>
      </trkpt>
      <trkpt lat="43.49438" lon="1.19469">
        <ele>218.8</ele>
        <time>2024-08-01T07:06:24Z</time>
      </trkpt>
      <trkpt lat="43.49432" lon="1.19468">
        <ele>218.8</ele>
        <time>2024-08-01T07:06:25Z</time>
      </trkpt>
      <trkpt lat="43.49426" lon="1.19467">
        <ele>218.8</ele>
        <time>2024-08-01T07:06:26Z</time>
      </trkpt>
      <trkpt lat="43.4942" lon="1.19466">
        <ele>218.8</ele>
        <time>2024-08-01T07:06:27Z</time>
      </trkpt>
      <trkpt lat="43.49414" lon="1.19465">
        <ele>218.8</ele>
        <time>2024-08-01T07:06:28Z</time>
      </trkpt>
      <trkpt lat="43.49408" lon="1.19464">
        <ele>218.8</ele>
        <time>2024-08-01T07:06:29Z</time>
      </trkpt>
      <trkpt lat="43.49402" lon="1.19462">
        <ele>218.8</ele>
        <time>2024-08-01T07:06:30Z</time>
      </trkpt>
      <trkpt lat="43.49396" lon="1.19462">
        <ele>218.8</ele>
        <time>2024-08-01T07:06:31Z</time>
      </trkpt>
      <trkpt lat="43.49389" lon="1.1946">
        <ele>218.8</ele>
        <time>2024-08-01T07:06:32Z</time>
      </trkpt>
      <trkpt lat="43.49384" lon="1.1946">
        <ele>218.8</ele>
        <time>2024-08-01T07:06:33Z</time>
      </trkpt>
      <trkpt lat="43.49378" lon="1.19459">
        <ele>218.8</ele>
        <time>2024-08-01T07:06:34Z</time>
      </trkpt>
      <trkpt lat="43.49372" lon="1.19458">
        <ele>218.8</ele>
        <time>2024-08-01T07:06:35Z</time>
      </trkpt>
      <trkpt lat="43.49366" lon="1.19456">
        <ele>218.6</ele>
        <time>2024-08-01T07:06:36Z</time>
      </trkpt>
      <trkpt lat="43.49361" lon="1.19454">
        <ele>218.6</ele>
        <time>2024-08-01T07:06:37Z</time>
      </trkpt>
      <trkpt lat="43.49355" lon="1.19452">
        <ele>218.4</ele>
        <time>2024-08-01T07:06:38Z</time>
      </trkpt>
      <trkpt lat="43.4935" lon="1.19448">
        <ele>218.4</ele>
        <time>2024-08-01T07:06:39Z</time>
      </trkpt>
      <trkpt lat="43.49345" lon="1.19444">
        <ele>218.4</ele>
        <time>2024-08-01T07:06:40Z</time>
      </trkpt>
      <trkpt lat="43.4934" lon="1.19439">
        <ele>218.4</ele>
        <time>2024-08-01T07:06:41Z</time>
      </trkpt>
      <trkpt lat="43.49336" lon="1.19433">
        <ele>218.4</ele>
        <time>2024-08-01T07:06:42Z</time>
      </trkpt>
      <trkpt lat="43.49333" lon="1.19427">
        <ele>218.6</ele>
        <time>2024-08-01T07:06:43Z</time>
      </trkpt>
      <trkpt lat="43.49329" lon="1.1942">
        <ele>218.8</ele>
        <time>2024-08-01T07:06:44Z</time>
      </trkpt>
      <trkpt lat="43.49326" lon="1.19414">
        <ele>218.8</ele>
        <time>2024-08-01T07:06:45Z</time>
      </trkpt>
      <trkpt lat="43.49322" lon="1.19405">
        <ele>218.8</ele>
        <time>2024-08-01T07:06:46Z</time>
      </trkpt>
      <trkpt lat="43.49319" lon="1.19398">
        <ele>218.8</ele>
        <time>2024-08-01T07:06:47Z</time>
      </trkpt>
      <trkpt lat="43.49316" lon="1.19391">
        <ele>219</ele>
        <time>2024-08-01T07:06:48Z</time>
      </trkpt>
      <trkpt lat="43.49314" lon="1.19385">
        <ele>219</ele>
        <time>2024-08-01T07:06:49Z</time>
      </trkpt>
      <trkpt lat="43.49312" lon="1.19378">
        <ele>219</ele>
        <time>2024-08-01T07:06:50Z</time>
      </trkpt>
      <trkpt lat="43.49309" lon="1.19369">
        <ele>219.2</ele>
        <time>2024-08-01T07:06:51Z</time>
      </trkpt>
      <trkpt lat="43.49306" lon="1.19361">
        <ele>219.2</ele>
        <time>2024-08-01T07:06:52Z</time>
      </trkpt>
      <trkpt lat="43.49304" lon="1.19354">
        <ele>219.2</ele>
        <time>2024-08-01T07:06:53Z</time>
      </trkpt>
      <trkpt lat="43.49302" lon="1.19346">
        <ele>219.4</ele>
        <time>2024-08-01T07:06:54Z</time>
      </trkpt>
      <trkpt lat="43.493" lon="1.19341">
        <ele>219.6</ele>
        <time>2024-08-01T07:06:55Z</time>
      </trkpt>
      <trkpt lat="43.49297" lon="1.19333">
        <ele>219.6</ele>
        <time>2024-08-01T07:06:56Z</time>
      </trkpt>
      <trkpt lat="43.49294" lon="1.19324">
        <ele>219.6</ele>
        <time>2024-08-01T07:06:57Z</time>
      </trkpt>
      <trkpt lat="43.49291" lon="1.19317">
        <ele>219.6</ele>
        <time>2024-08-01T07:06:58Z</time>
      </trkpt>
      <trkpt lat="43.49288" lon="1.19309">
        <ele>219.6</ele>
        <time>2024-08-01T07:06:59Z</time>
      </trkpt>
      <trkpt lat="43.49286" lon="1.19302">
        <ele>219.6</ele>
        <time>2024-08-01T07:07:00Z</time>
      </trkpt>
      <trkpt lat="43.49283" lon="1.19294">
        <ele>219.6</ele>
        <time>2024-08-01T07:07:01Z</time>
      </trkpt>
      <trkpt lat="43.4928" lon="1.19287">
        <ele>219.6</ele>
        <time>2024-08-01T07:07:02Z</time>
      </trkpt>
      <trkpt lat="43.49277" lon="1.1928">
        <ele>219.6</ele>
        <time>2024-08-01T07:07:03Z</time>
      </trkpt>
      <trkpt lat="43.49275" lon="1.19273">
        <ele>219.8</ele>
        <time>2024-08-01T07:07:04Z</time>
      </trkpt>
      <trkpt lat="43.49272" lon="1.19265">
        <ele>219.8</ele>
        <time>2024-08-01T07:07:05Z</time>
      </trkpt>
      <trkpt lat="43.49269" lon="1.19259">
        <ele>219.8</ele>
        <time>2024-08-01T07:07:06Z</time>
      </trkpt>
      <trkpt lat="43.49266" lon="1.19252">
        <ele>219.8</ele>
        <time>2024-08-01T07:07:07Z</time>
      </trkpt>
      <trkpt lat="43.49264" lon="1.19245">
        <ele>219.8</ele>
        <time>2024-08-01T07:07:08Z</time>
      </trkpt>
      <trkpt lat="43.49261" lon="1.19239">
        <ele>220</ele>
        <time>2024-08-01T07:07:09Z</time>
      </trkpt>
      <trkpt lat="43.49259" lon="1.19232">
        <ele>220</ele>
        <time>2024-08-01T07:07:10Z</time>
      </trkpt>
      <trkpt lat="43.49257" lon="1.19225">
        <ele>220</ele>
        <time>2024-08-01T07:07:11Z</time>
      </trkpt>
      <trkpt lat="43.49256" lon="1.19219">
        <ele>220</ele>
        <time>2024-08-01T07:07:12Z</time>
      </trkpt>
      <trkpt lat="43.49255" lon="1.19212">
        <ele>220</ele>
        <time>2024-08-01T07:07:13Z</time>
      </trkpt>
      <trkpt lat="43.49255" lon="1.19205">
        <ele>220</ele>
        <time>2024-08-01T07:07:14Z</time>
      </trkpt>
      <trkpt lat="43.49256" lon="1.19198">
        <ele>220</ele>
        <time>2024-08-01T07:07:15Z</time>
      </trkpt>
      <trkpt lat="43.49257" lon="1.19192">
        <ele>219.8</ele>
        <time>2024-08-01T07:07:16Z</time>
      </trkpt>
      <trkpt lat="43.49258" lon="1.19185">
        <ele>219.8</ele>
        <time>2024-08-01T07:07:17Z</time>
      </trkpt>
      <trkpt lat="43.49259" lon="1.19179">
        <ele>220</ele>
        <time>2024-08-01T07:07:18Z</time>
      </trkpt>
      <trkpt lat="43.4926" lon="1.19172">
        <ele>219.8</ele>
        <time>2024-08-01T07:07:19Z</time>
      </trkpt>
      <trkpt lat="43.49261" lon="1.19166">
        <ele>220</ele>
        <time>2024-08-01T07:07:20Z</time>
      </trkpt>
      <trkpt lat="43.49262" lon="1.19159">
        <ele>219.8</ele>
        <time>2024-08-01T07:07:21Z</time>
      </trkpt>
      <trkpt lat="43.49263" lon="1.19153">
        <ele>219.6</ele>
        <time>2024-08-01T07:07:22Z</time>
      </trkpt>
      <trkpt lat="43.49264" lon="1.19147">
        <ele>219.6</ele>
        <time>2024-08-01T07:07:23Z</time>
      </trkpt>
      <trkpt lat="43.49265" lon="1.19142">
        <ele>219.8</ele>
        <time>2024-08-01T07:07:24Z</time>
      </trkpt>
      <trkpt lat="43.49265" lon="1.19138">
        <ele>219.8</ele>
        <time>2024-08-01T07:07:25Z</time>
      </trkpt>
      <trkpt lat="43.49265" lon="1.19133">
        <ele>219.8</ele>
        <time>2024-08-01T07:07:26Z</time>
      </trkpt>
      <trkpt lat="43.49264" lon="1.19129">
        <ele>219.8</ele>
        <time>2024-08-01T07:07:27Z</time>
      </trkpt>
      <trkpt lat="43.49261" lon="1.19126">
        <ele>219.8</ele>
        <time>2024-08-01T07:07:28Z</time>
      </trkpt>
      <trkpt lat="43.49257" lon="1.19123">
        <ele>219.8</ele>
        <time>2024-08-01T07:07:29Z</time>
      </trkpt>
      <trkpt lat="43.49252" lon="1.19122">
        <ele>219.8</ele>
        <time>2024-08-01T07:07:30Z</time>
      </trkpt>
      <trkpt lat="43.49247" lon="1.1912">
        <ele>219.8</ele>
        <time>2024-08-01T07:07:31Z</time>
      </trkpt>
      <trkpt lat="43.49242" lon="1.19119">
        <ele>219.8</ele>
        <time>2024-08-01T07:07:32Z</time>
      </trkpt>
      <trkpt lat="43.49237" lon="1.19117">
        <ele>220</ele>
        <time>2024-08-01T07:07:33Z</time>
      </trkpt>
      <trkpt lat="43.49232" lon="1.19116">
        <ele>220</ele>
        <time>2024-08-01T07:07:34Z</time>
      </trkpt>
      <trkpt lat="43.49227" lon="1.19114">
        <ele>220</ele>
        <time>2024-08-01T07:07:35Z</time>
      </trkpt>
      <trkpt lat="43.49222" lon="1.19112">
        <ele>219.8</ele>
        <time>2024-08-01T07:07:36Z</time>
      </trkpt>
      <trkpt lat="43.49216" lon="1.1911">
        <ele>219.8</ele>
        <time>2024-08-01T07:07:37Z</time>
      </trkpt>
      <trkpt lat="43.4921" lon="1.19108">
        <ele>219.8</ele>
        <time>2024-08-01T07:07:38Z</time>
      </trkpt>
      <trkpt lat="43.49205" lon="1.19107">
        <ele>219.8</ele>
        <time>2024-08-01T07:07:39Z</time>
      </trkpt>
      <trkpt lat="43.49199" lon="1.19105">
        <ele>219.6</ele>
        <time>2024-08-01T07:07:40Z</time>
      </trkpt>
      <trkpt lat="43.49192" lon="1.19102">
        <ele>219.6</ele>
        <time>2024-08-01T07:07:41Z</time>
      </trkpt>
      <trkpt lat="43.49186" lon="1.191">
        <ele>219.4</ele>
        <time>2024-08-01T07:07:42Z</time>
      </trkpt>
      <trkpt lat="43.4918" lon="1.19098">
        <ele>219.4</ele>
        <time>2024-08-01T07:07:43Z</time>
      </trkpt>
      <trkpt lat="43.49176" lon="1.19096">
        <ele>219.4</ele>
        <time>2024-08-01T07:07:44Z</time>
      </trkpt>
      <trkpt lat="43.49169" lon="1.19094">
        <ele>219.2</ele>
        <time>2024-08-01T07:07:45Z</time>
      </trkpt>
      <trkpt lat="43.49162" lon="1.19091">
        <ele>219.2</ele>
        <time>2024-08-01T07:07:46Z</time>
      </trkpt>
      <trkpt lat="43.49155" lon="1.19089">
        <ele>219</ele>
        <time>2024-08-01T07:07:47Z</time>
      </trkpt>
      <trkpt lat="43.49148" lon="1.19086">
        <ele>219</ele>
        <time>2024-08-01T07:07:48Z</time>
      </trkpt>
      <trkpt lat="43.49143" lon="1.19084">
        <ele>218.8</ele>
        <time>2024-08-01T07:07:49Z</time>
      </trkpt>
      <trkpt lat="43.49136" lon="1.19082">
        <ele>218.8</ele>
        <time>2024-08-01T07:07:50Z</time>
      </trkpt>
      <trkpt lat="43.4913" lon="1.19079">
        <ele>218.6</ele>
        <time>2024-08-01T07:07:51Z</time>
      </trkpt>
      <trkpt lat="43.49122" lon="1.19077">
        <ele>218.6</ele>
        <time>2024-08-01T07:07:52Z</time>
      </trkpt>
      <trkpt lat="43.49116" lon="1.19075">
        <ele>218.4</ele>
        <time>2024-08-01T07:07:53Z</time>
      </trkpt>
      <trkpt lat="43.49109" lon="1.19074">
        <ele>218.2</ele>
        <time>2024-08-01T07:07:54Z</time>
      </trkpt>
      <trkpt lat="43.49104" lon="1.19073">
        <ele>218.2</ele>
        <time>2024-08-01T07:07:55Z</time>
      </trkpt>
      <trkpt lat="43.49097" lon="1.19072">
        <ele>218.2</ele>
        <time>2024-08-01T07:07:56Z</time>
      </trkpt>
      <trkpt lat="43.49091" lon="1.1907">
        <ele>218</ele>
        <time>2024-08-01T07:07:57Z</time>
      </trkpt>
      <trkpt lat="43.49084" lon="1.1907">
        <ele>218</ele>
        <time>2024-08-01T07:07:58Z</time>
      </trkpt>
      <trkpt lat="43.49078" lon="1.19069">
        <ele>217.8</ele>
        <time>2024-08-01T07:07:59Z</time>
      </trkpt>
      <trkpt lat="43.49072" lon="1.1907">
        <ele>217.8</ele>
        <time>2024-08-01T07:08:00Z</time>
      </trkpt>
      <trkpt lat="43.49065" lon="1.19071">
        <ele>217.8</ele>
        <time>2024-08-01T07:08:01Z</time>
      </trkpt>
      <trkpt lat="43.49059" lon="1.19074">
        <ele>218</ele>
        <time>2024-08-01T07:08:02Z</time>
      </trkpt>
      <trkpt lat="43.49054" lon="1.19077">
        <ele>218</ele>
        <time>2024-08-01T07:08:03Z</time>
      </trkpt>
      <trkpt lat="43.49048" lon="1.19082">
        <ele>218</ele>
        <time>2024-08-01T07:08:04Z</time>
      </trkpt>
      <trkpt lat="43.49044" lon="1.19086">
        <ele>218.2</ele>
        <time>2024-08-01T07:08:05Z</time>
      </trkpt>
      <trkpt lat="43.49039" lon="1.19091">
        <ele>218.2</ele>
        <time>2024-08-01T07:08:06Z</time>
      </trkpt>
      <trkpt lat="43.49033" lon="1.19098">
        <ele>218.2</ele>
        <time>2024-08-01T07:08:07Z</time>
      </trkpt>
      <trkpt lat="43.49028" lon="1.19104">
        <ele>218.2</ele>
        <time>2024-08-01T07:08:08Z</time>
      </trkpt>
      <trkpt lat="43.49022" lon="1.1911">
        <ele>218.2</ele>
        <time>2024-08-01T07:08:09Z</time>
      </trkpt>
      <trkpt lat="43.49017" lon="1.19116">
        <ele>218.4</ele>
        <time>2024-08-01T07:08:10Z</time>
      </trkpt>
      <trkpt lat="43.49012" lon="1.19122">
        <ele>218.4</ele>
        <time>2024-08-01T07:08:11Z</time>
      </trkpt>
      <trkpt lat="43.49006" lon="1.19127">
        <ele>218.4</ele>
        <time>2024-08-01T07:08:12Z</time>
      </trkpt>
      <trkpt lat="43.49001" lon="1.19133">
        <ele>218.4</ele>
        <time>2024-08-01T07:08:13Z</time>
      </trkpt>
      <trkpt lat="43.48995" lon="1.19139">
        <ele>218.4</ele>
        <time>2024-08-01T07:08:14Z</time>
      </trkpt>
      <trkpt lat="43.48991" lon="1.19143">
        <ele>218.4</ele>
        <time>2024-08-01T07:08:15Z</time>
      </trkpt>
      <trkpt lat="43.48984" lon="1.19149">
        <ele>218.4</ele>
        <time>2024-08-01T07:08:16Z</time>
      </trkpt>
      <trkpt lat="43.48978" lon="1.19153">
        <ele>218.4</ele>
        <time>2024-08-01T07:08:17Z</time>
      </trkpt>
      <trkpt lat="43.48971" lon="1.19155">
        <ele>218.2</ele>
        <time>2024-08-01T07:08:18Z</time>
      </trkpt>
      <trkpt lat="43.48965" lon="1.19156">
        <ele>218.2</ele>
        <time>2024-08-01T07:08:19Z</time>
      </trkpt>
      <trkpt lat="43.4896" lon="1.19155">
        <ele>218</ele>
        <time>2024-08-01T07:08:20Z</time>
      </trkpt>
      <trkpt lat="43.48952" lon="1.19152">
        <ele>218</ele>
        <time>2024-08-01T07:08:21Z</time>
      </trkpt>
      <trkpt lat="43.48947" lon="1.19148">
        <ele>218</ele>
        <time>2024-08-01T07:08:22Z</time>
      </trkpt>
      <trkpt lat="43.48942" lon="1.19144">
        <ele>218</ele>
        <time>2024-08-01T07:08:23Z</time>
      </trkpt>
      <trkpt lat="43.48937" lon="1.19141">
        <ele>218</ele>
        <time>2024-08-01T07:08:24Z</time>
      </trkpt>
      <trkpt lat="43.48931" lon="1.19136">
        <ele>218</ele>
        <time>2024-08-01T07:08:25Z</time>
      </trkpt>
      <trkpt lat="43.48925" lon="1.19132">
        <ele>218.2</ele>
        <time>2024-08-01T07:08:26Z</time>
      </trkpt>
      <trkpt lat="43.4892" lon="1.19128">
        <ele>218.2</ele>
        <time>2024-08-01T07:08:27Z</time>
      </trkpt>
      <trkpt lat="43.48915" lon="1.19123">
        <ele>218.2</ele>
        <time>2024-08-01T07:08:28Z</time>
      </trkpt>
      <trkpt lat="43.4891" lon="1.19118">
        <ele>218.2</ele>
        <time>2024-08-01T07:08:29Z</time>
      </trkpt>
      <trkpt lat="43.48905" lon="1.19113">
        <ele>218.2</ele>
        <time>2024-08-01T07:08:30Z</time>
      </trkpt>
      <trkpt lat="43.489" lon="1.19108">
        <ele>218.2</ele>
        <time>2024-08-01T07:08:31Z</time>
      </trkpt>
      <trkpt lat="43.489" lon="1.19108">
        <ele>218.2</ele>
        <time>2024-08-01T07:08:32Z</time>
      </trkpt>
      <trkpt lat="43.4889" lon="1.19097">
        <ele>218.4</ele>
        <time>2024-08-01T07:08:33Z</time>
      </trkpt>
      <trkpt lat="43.48884" lon="1.19091">
        <ele>218.4</ele>
        <time>2024-08-01T07:08:34Z</time>
      </trkpt>
      <trkpt lat="43.48879" lon="1.19085">
        <ele>218.4</ele>
        <time>2024-08-01T07:08:35Z</time>
      </trkpt>
      <trkpt lat="43.48874" lon="1.19079">
        <ele>218.4</ele>
        <time>2024-08-01T07:08:36Z</time>
      </trkpt>
      <trkpt lat="43.48869" lon="1.19073">
        <ele>218.4</ele>
        <time>2024-08-01T07:08:37Z</time>
      </trkpt>
      <trkpt lat="43.48863" lon="1.19068">
        <ele>218.2</ele>
        <time>2024-08-01T07:08:38Z</time>
      </trkpt>
      <trkpt lat="43.48858" lon="1.19062">
        <ele>218.2</ele>
        <time>2024-08-01T07:08:39Z</time>
      </trkpt>
      <trkpt lat="43.48854" lon="1.19057">
        <ele>218</ele>
        <time>2024-08-01T07:08:40Z</time>
      </trkpt>
      <trkpt lat="43.48848" lon="1.1905">
        <ele>218</ele>
        <time>2024-08-01T07:08:41Z</time>
      </trkpt>
      <trkpt lat="43.48843" lon="1.19044">
        <ele>218</ele>
        <time>2024-08-01T07:08:42Z</time>
      </trkpt>
      <trkpt lat="43.48838" lon="1.19038">
        <ele>217.8</ele>
        <time>2024-08-01T07:08:43Z</time>
      </trkpt>
      <trkpt lat="43.48832" lon="1.19033">
        <ele>217.8</ele>
        <time>2024-08-01T07:08:44Z</time>
      </trkpt>
      <trkpt lat="43.48827" lon="1.19027">
        <ele>217.8</ele>
        <time>2024-08-01T07:08:45Z</time>
      </trkpt>
      <trkpt lat="43.48822" lon="1.19021">
        <ele>217.8</ele>
        <time>2024-08-01T07:08:46Z</time>
      </trkpt>
      <trkpt lat="43.48817" lon="1.19015">
        <ele>217.8</ele>
        <time>2024-08-01T07:08:47Z</time>
      </trkpt>
      <trkpt lat="43.48813" lon="1.19011">
        <ele>217.8</ele>
        <time>2024-08-01T07:08:48Z</time>
      </trkpt>
      <trkpt lat="43.48809" lon="1.19005">
        <ele>217.8</ele>
        <time>2024-08-01T07:08:49Z</time>
      </trkpt>
      <trkpt lat="43.48803" lon="1.18999">
        <ele>218</ele>
        <time>2024-08-01T07:08:50Z</time>
      </trkpt>
      <trkpt lat="43.48799" lon="1.18993">
        <ele>218</ele>
        <time>2024-08-01T07:08:51Z</time>
      </trkpt>
      <trkpt lat="43.48794" lon="1.18987">
        <ele>218</ele>
        <time>2024-08-01T07:08:52Z</time>
      </trkpt>
      <trkpt lat="43.48791" lon="1.18982">
        <ele>218.2</ele>
        <time>2024-08-01T07:08:53Z</time>
      </trkpt>
      <trkpt lat="43.48786" lon="1.18975">
        <ele>218.2</ele>
        <time>2024-08-01T07:08:54Z</time>
      </trkpt>
      <trkpt lat="43.48782" lon="1.18968">
        <ele>218.4</ele>
        <time>2024-08-01T07:08:55Z</time>
      </trkpt>
      <trkpt lat="43.48778" lon="1.18962">
        <ele>218.6</ele>
        <time>2024-08-01T07:08:56Z</time>
      </trkpt>
      <trkpt lat="43.48775" lon="1.18955">
        <ele>218.8</ele>
        <time>2024-08-01T07:08:57Z</time>
      </trkpt>
      <trkpt lat="43.48772" lon="1.18949">
        <ele>218.8</ele>
        <time>2024-08-01T07:08:58Z</time>
      </trkpt>
      <trkpt lat="43.48768" lon="1.18942">
        <ele>218.8</ele>
        <time>2024-08-01T07:08:59Z</time>
      </trkpt>
      <trkpt lat="43.48764" lon="1.18933">
        <ele>219</ele>
        <time>2024-08-01T07:09:00Z</time>
      </trkpt>
      <trkpt lat="43.48761" lon="1.18925">
        <ele>219</ele>
        <time>2024-08-01T07:09:01Z</time>
      </trkpt>
      <trkpt lat="43.48758" lon="1.18918">
        <ele>219</ele>
        <time>2024-08-01T07:09:02Z</time>
      </trkpt>
      <trkpt lat="43.48754" lon="1.1891">
        <ele>219</ele>
        <time>2024-08-01T07:09:03Z</time>
      </trkpt>
      <trkpt lat="43.48751" lon="1.18903">
        <ele>219</ele>
        <time>2024-08-01T07:09:04Z</time>
      </trkpt>
      <trkpt lat="43.48748" lon="1.18895">
        <ele>219</ele>
        <time>2024-08-01T07:09:05Z</time>
      </trkpt>
      <trkpt lat="43.48745" lon="1.18887">
        <ele>219</ele>
        <time>2024-08-01T07:09:06Z</time>
      </trkpt>
      <trkpt lat="43.48743" lon="1.18879">
        <ele>219</ele>
        <time>2024-08-01T07:09:07Z</time>
      </trkpt>
      <trkpt lat="43.4874" lon="1.18871">
        <ele>219</ele>
        <time>2024-08-01T07:09:08Z</time>
      </trkpt>
      <trkpt lat="43.48738" lon="1.18865">
        <ele>219</ele>
        <time>2024-08-01T07:09:09Z</time>
      </trkpt>
      <trkpt lat="43.48735" lon="1.18855">
        <ele>219</ele>
        <time>2024-08-01T07:09:10Z</time>
      </trkpt>
      <trkpt lat="43.48732" lon="1.18847">
        <ele>219</ele>
        <time>2024-08-01T07:09:11Z</time>
      </trkpt>
      <trkpt lat="43.48729" lon="1.18839">
        <ele>219</ele>
        <time>2024-08-01T07:09:12Z</time>
      </trkpt>
      <trkpt lat="43.48727" lon="1.18831">
        <ele>219</ele>
        <time>2024-08-01T07:09:13Z</time>
      </trkpt>
      <trkpt lat="43.48724" lon="1.18823">
        <ele>219.2</ele>
        <time>2024-08-01T07:09:14Z</time>
      </trkpt>
      <trkpt lat="43.48721" lon="1.18815">
        <ele>219.2</ele>
        <time>2024-08-01T07:09:15Z</time>
      </trkpt>
      <trkpt lat="43.48718" lon="1.18807">
        <ele>219.2</ele>
        <time>2024-08-01T07:09:16Z</time>
      </trkpt>
      <trkpt lat="43.48716" lon="1.188">
        <ele>219.2</ele>
        <time>2024-08-01T07:09:17Z</time>
      </trkpt>
      <trkpt lat="43.48713" lon="1.18792">
        <ele>219.2</ele>
        <time>2024-08-01T07:09:18Z</time>
      </trkpt>
      <trkpt lat="43.4871" lon="1.18782">
        <ele>219.4</ele>
        <time>2024-08-01T07:09:19Z</time>
      </trkpt>
      <trkpt lat="43.48707" lon="1.18774">
        <ele>219.4</ele>
        <time>2024-08-01T07:09:20Z</time>
      </trkpt>
      <trkpt lat="43.48705" lon="1.18766">
        <ele>219.4</ele>
        <time>2024-08-01T07:09:21Z</time>
      </trkpt>
      <trkpt lat="43.48702" lon="1.18759">
        <ele>219.4</ele>
        <time>2024-08-01T07:09:22Z</time>
      </trkpt>
      <trkpt lat="43.48699" lon="1.1875">
        <ele>219.4</ele>
        <time>2024-08-01T07:09:23Z</time>
      </trkpt>
      <trkpt lat="43.48697" lon="1.18743">
        <ele>219.4</ele>
        <time>2024-08-01T07:09:24Z</time>
      </trkpt>
      <trkpt lat="43.48693" lon="1.18733">
        <ele>219.2</ele>
        <time>2024-08-01T07:09:25Z</time>
      </trkpt>
      <trkpt lat="43.48691" lon="1.18725">
        <ele>219.2</ele>
        <time>2024-08-01T07:09:26Z</time>
      </trkpt>
      <trkpt lat="43.48688" lon="1.18718">
        <ele>219.2</ele>
        <time>2024-08-01T07:09:27Z</time>
      </trkpt>
      <trkpt lat="43.48685" lon="1.1871">
        <ele>219.2</ele>
        <time>2024-08-01T07:09:28Z</time>
      </trkpt>
      <trkpt lat="43.48682" lon="1.18702">
        <ele>219.2</ele>
        <time>2024-08-01T07:09:29Z</time>
      </trkpt>
      <trkpt lat="43.48678" lon="1.18695">
        <ele>219</ele>
        <time>2024-08-01T07:09:30Z</time>
      </trkpt>
      <trkpt lat="43.48673" lon="1.18688">
        <ele>219</ele>
        <time>2024-08-01T07:09:31Z</time>
      </trkpt>
      <trkpt lat="43.48668" lon="1.18682">
        <ele>219</ele>
        <time>2024-08-01T07:09:32Z</time>
      </trkpt>
      <trkpt lat="43.48663" lon="1.18676">
        <ele>219</ele>
        <time>2024-08-01T07:09:33Z</time>
      </trkpt>
      <trkpt lat="43.48658" lon="1.1867">
        <ele>219</ele>
        <time>2024-08-01T07:09:34Z</time>
      </trkpt>
      <trkpt lat="43.48653" lon="1.18664">
        <ele>219</ele>
        <time>2024-08-01T07:09:35Z</time>
      </trkpt>
      <trkpt lat="43.48648" lon="1.18658">
        <ele>219</ele>
        <time>2024-08-01T07:09:36Z</time>
      </trkpt>
      <trkpt lat="43.48645" lon="1.18652">
        <ele>219.2</ele>
        <time>2024-08-01T07:09:37Z</time>
      </trkpt>
      <trkpt lat="43.48642" lon="1.18645">
        <ele>219.2</ele>
        <time>2024-08-01T07:09:38Z</time>
      </trkpt>
      <trkpt lat="43.48639" lon="1.18636">
        <ele>219.4</ele>
        <time>2024-08-01T07:09:39Z</time>
      </trkpt>
      <trkpt lat="43.48636" lon="1.18628">
        <ele>219.6</ele>
        <time>2024-08-01T07:09:40Z</time>
      </trkpt>
      <trkpt lat="43.48635" lon="1.1862">
        <ele>219.8</ele>
        <time>2024-08-01T07:09:41Z</time>
      </trkpt>
      <trkpt lat="43.48634" lon="1.18612">
        <ele>220</ele>
        <time>2024-08-01T07:09:42Z</time>
      </trkpt>
      <trkpt lat="43.48633" lon="1.18603">
        <ele>220</ele>
        <time>2024-08-01T07:09:43Z</time>
      </trkpt>
      <trkpt lat="43.48632" lon="1.18595">
        <ele>220</ele>
        <time>2024-08-01T07:09:44Z</time>
      </trkpt>
      <trkpt lat="43.48632" lon="1.18587">
        <ele>220.2</ele>
        <time>2024-08-01T07:09:45Z</time>
      </trkpt>
      <trkpt lat="43.48631" lon="1.18579">
        <ele>220.2</ele>
        <time>2024-08-01T07:09:46Z</time>
      </trkpt>
      <trkpt lat="43.48631" lon="1.18571">
        <ele>220.2</ele>
        <time>2024-08-01T07:09:47Z</time>
      </trkpt>
      <trkpt lat="43.4863" lon="1.18562">
        <ele>220.4</ele>
        <time>2024-08-01T07:09:48Z</time>
      </trkpt>
      <trkpt lat="43.4863" lon="1.18554">
        <ele>220.4</ele>
        <time>2024-08-01T07:09:49Z</time>
      </trkpt>
      <trkpt lat="43.4863" lon="1.18546">
        <ele>220.6</ele>
        <time>2024-08-01T07:09:50Z</time>
      </trkpt>
      <trkpt lat="43.4863" lon="1.18538">
        <ele>220.6</ele>
        <time>2024-08-01T07:09:51Z</time>
      </trkpt>
      <trkpt lat="43.4863" lon="1.18529">
        <ele>220.8</ele>
        <time>2024-08-01T07:09:52Z</time>
      </trkpt>
      <trkpt lat="43.4863" lon="1.18522">
        <ele>220.8</ele>
        <time>2024-08-01T07:09:53Z</time>
      </trkpt>
      <trkpt lat="43.4863" lon="1.18513">
        <ele>220.8</ele>
        <time>2024-08-01T07:09:54Z</time>
      </trkpt>
      <trkpt lat="43.4863" lon="1.18504">
        <ele>221</ele>
        <time>2024-08-01T07:09:55Z</time>
      </trkpt>
      <trkpt lat="43.48629" lon="1.18498">
        <ele>221.2</ele>
        <time>2024-08-01T07:09:56Z</time>
      </trkpt>
      <trkpt lat="43.48629" lon="1.18489">
        <ele>221.2</ele>
        <time>2024-08-01T07:09:57Z</time>
      </trkpt>
      <trkpt lat="43.4863" lon="1.18479">
        <ele>221.2</ele>
        <time>2024-08-01T07:09:58Z</time>
      </trkpt>
      <trkpt lat="43.4863" lon="1.18471">
        <ele>221.2</ele>
        <time>2024-08-01T07:09:59Z</time>
      </trkpt>
      <trkpt lat="43.48632" lon="1.18462">
        <ele>221.4</ele>
        <time>2024-08-01T07:10:00Z</time>
      </trkpt>
      <trkpt lat="43.48633" lon="1.18456">
        <ele>221.4</ele>
        <time>2024-08-01T07:10:01Z</time>
      </trkpt>
      <trkpt lat="43.48636" lon="1.18448">
        <ele>221.4</ele>
        <time>2024-08-01T07:10:02Z</time>
      </trkpt>
      <trkpt lat="43.48639" lon="1.18439">
        <ele>221.4</ele>
        <time>2024-08-01T07:10:03Z</time>
      </trkpt>
      <trkpt lat="43.48641" lon="1.18431">
        <ele>221.4</ele>
        <time>2024-08-01T07:10:04Z</time>
      </trkpt>
      <trkpt lat="43.48644" lon="1.18424">
        <ele>221.4</ele>
        <time>2024-08-01T07:10:05Z</time>
      </trkpt>
      <trkpt lat="43.48645" lon="1.18417">
        <ele>221.4</ele>
        <time>2024-08-01T07:10:06Z</time>
      </trkpt>
      <trkpt lat="43.48646" lon="1.18409">
        <ele>221.4</ele>
        <time>2024-08-01T07:10:07Z</time>
      </trkpt>
      <trkpt lat="43.48646" lon="1.18399">
        <ele>221.4</ele>
        <time>2024-08-01T07:10:08Z</time>
      </trkpt>
      <trkpt lat="43.48644" lon="1.1839">
        <ele>221.4</ele>
        <time>2024-08-01T07:10:09Z</time>
      </trkpt>
      <trkpt lat="43.4864" lon="1.18383">
        <ele>221.2</ele>
        <time>2024-08-01T07:10:10Z</time>
      </trkpt>
      <trkpt lat="43.48637" lon="1.18375">
        <ele>221.2</ele>
        <time>2024-08-01T07:10:11Z</time>
      </trkpt>
      <trkpt lat="43.48634" lon="1.18369">
        <ele>221.2</ele>
        <time>2024-08-01T07:10:12Z</time>
      </trkpt>
      <trkpt lat="43.4863" lon="1.18359">
        <ele>221.2</ele>
        <time>2024-08-01T07:10:13Z</time>
      </trkpt>
      <trkpt lat="43.48626" lon="1.18352">
        <ele>221</ele>
        <time>2024-08-01T07:10:14Z</time>
      </trkpt>
      <trkpt lat="43.48622" lon="1.18344">
        <ele>221</ele>
        <time>2024-08-01T07:10:15Z</time>
      </trkpt>
      <trkpt lat="43.48618" lon="1.18337">
        <ele>221</ele>
        <time>2024-08-01T07:10:16Z</time>
      </trkpt>
      <trkpt lat="43.48614" lon="1.18329">
        <ele>220.8</ele>
        <time>2024-08-01T07:10:17Z</time>
      </trkpt>
      <trkpt lat="43.48611" lon="1.18322">
        <ele>220.8</ele>
        <time>2024-08-01T07:10:18Z</time>
      </trkpt>
      <trkpt lat="43.48607" lon="1.18314">
        <ele>220.6</ele>
        <time>2024-08-01T07:10:19Z</time>
      </trkpt>
      <trkpt lat="43.48605" lon="1.18306">
        <ele>220.6</ele>
        <time>2024-08-01T07:10:20Z</time>
      </trkpt>
      <trkpt lat="43.48603" lon="1.18299">
        <ele>220.2</ele>
        <time>2024-08-01T07:10:21Z</time>
      </trkpt>
      <trkpt lat="43.48601" lon="1.1829">
        <ele>220</ele>
        <time>2024-08-01T07:10:22Z</time>
      </trkpt>
      <trkpt lat="43.486" lon="1.18279">
        <ele>219.8</ele>
        <time>2024-08-01T07:10:23Z</time>
      </trkpt>
      <trkpt lat="43.48599" lon="1.1827">
        <ele>219.8</ele>
        <time>2024-08-01T07:10:24Z</time>
      </trkpt>
      <trkpt lat="43.48599" lon="1.18263">
        <ele>219.8</ele>
        <time>2024-08-01T07:10:25Z</time>
      </trkpt>
      <trkpt lat="43.48598" lon="1.18255">
        <ele>219.6</ele>
        <time>2024-08-01T07:10:26Z</time>
      </trkpt>
      <trkpt lat="43.48598" lon="1.18249">
        <ele>219.6</ele>
        <time>2024-08-01T07:10:27Z</time>
      </trkpt>
      <trkpt lat="43.48598" lon="1.1824">
        <ele>219.4</ele>
        <time>2024-08-01T07:10:28Z</time>
      </trkpt>
      <trkpt lat="43.48598" lon="1.18233">
        <ele>219.2</ele>
        <time>2024-08-01T07:10:29Z</time>
      </trkpt>
      <trkpt lat="43.48598" lon="1.18227">
        <ele>219</ele>
        <time>2024-08-01T07:10:30Z</time>
      </trkpt>
      <trkpt lat="43.48598" lon="1.18221">
        <ele>218.6</ele>
        <time>2024-08-01T07:10:31Z</time>
      </trkpt>
      <trkpt lat="43.48598" lon="1.18217">
        <ele>218.2</ele>
        <time>2024-08-01T07:10:32Z</time>
      </trkpt>
      <trkpt lat="43.48598" lon="1.18214">
        <ele>217.6</ele>
        <time>2024-08-01T07:10:33Z</time>
      </trkpt>
      <trkpt lat="43.48598" lon="1.18213">
        <ele>217.4</ele>
        <time>2024-08-01T07:10:34Z</time>
      </trkpt>
      <trkpt lat="43.48597" lon="1.18211">
        <ele>216.8</ele>
        <time>2024-08-01T07:10:35Z</time>
      </trkpt>
      <trkpt lat="43.48596" lon="1.18209">
        <ele>216.6</ele>
        <time>2024-08-01T07:10:36Z</time>
      </trkpt>
      <trkpt lat="43.48593" lon="1.18208">
        <ele>216.4</ele>
        <time>2024-08-01T07:10:37Z</time>
      </trkpt>
      <trkpt lat="43.4859" lon="1.18208">
        <ele>216.4</ele>
        <time>2024-08-01T07:10:38Z</time>
      </trkpt>
      <trkpt lat="43.48586" lon="1.18208">
        <ele>216.2</ele>
        <time>2024-08-01T07:10:39Z</time>
      </trkpt>
      <trkpt lat="43.48583" lon="1.18208">
        <ele>216.2</ele>
        <time>2024-08-01T07:10:40Z</time>
      </trkpt>
      <trkpt lat="43.48576" lon="1.18208">
        <ele>216</ele>
        <time>2024-08-01T07:10:41Z</time>
      </trkpt>
      <trkpt lat="43.48569" lon="1.18208">
        <ele>215.8</ele>
        <time>2024-08-01T07:10:42Z</time>
      </trkpt>
      <trkpt lat="43.48563" lon="1.18208">
        <ele>215.6</ele>
        <time>2024-08-01T07:10:43Z</time>
      </trkpt>
      <trkpt lat="43.48556" lon="1.18207">
        <ele>215.4</ele>
        <time>2024-08-01T07:10:44Z</time>
      </trkpt>
      <trkpt lat="43.48549" lon="1.18206">
        <ele>215.2</ele>
        <time>2024-08-01T07:10:45Z</time>
      </trkpt>
      <trkpt lat="43.48542" lon="1.18205">
        <ele>215.2</ele>
        <time>2024-08-01T07:10:46Z</time>
      </trkpt>
      <trkpt lat="43.48534" lon="1.18204">
        <ele>214.8</ele>
        <time>2024-08-01T07:10:47Z</time>
      </trkpt>
      <trkpt lat="43.48526" lon="1.18203">
        <ele>214.6</ele>
        <time>2024-08-01T07:10:48Z</time>
      </trkpt>
      <trkpt lat="43.48517" lon="1.18201">
        <ele>214</ele>
        <time>2024-08-01T07:10:49Z</time>
      </trkpt>
      <trkpt lat="43.48509" lon="1.18199">
        <ele>213</ele>
        <time>2024-08-01T07:10:50Z</time>
      </trkpt>
      <trkpt lat="43.48501" lon="1.18198">
        <ele>212.6</ele>
        <time>2024-08-01T07:10:51Z</time>
      </trkpt>
      <trkpt lat="43.4849" lon="1.18197">
        <ele>211.6</ele>
        <time>2024-08-01T07:10:52Z</time>
      </trkpt>
      <trkpt lat="43.4848" lon="1.18196">
        <ele>211.4</ele>
        <time>2024-08-01T07:10:53Z</time>
      </trkpt>
      <trkpt lat="43.4847" lon="1.18195">
        <ele>210.8</ele>
        <time>2024-08-01T07:10:54Z</time>
      </trkpt>
      <trkpt lat="43.4846" lon="1.18194">
        <ele>210.2</ele>
        <time>2024-08-01T07:10:55Z</time>
      </trkpt>
      <trkpt lat="43.48452" lon="1.18193">
        <ele>209.2</ele>
        <time>2024-08-01T07:10:56Z</time>
      </trkpt>
      <trkpt lat="43.48439" lon="1.18193">
        <ele>208.6</ele>
        <time>2024-08-01T07:10:57Z</time>
      </trkpt>
      <trkpt lat="43.48427" lon="1.18193">
        <ele>208.4</ele>
        <time>2024-08-01T07:10:58Z</time>
      </trkpt>
      <trkpt lat="43.48416" lon="1.18194">
        <ele>207.2</ele>
        <time>2024-08-01T07:10:59Z</time>
      </trkpt>
      <trkpt lat="43.48405" lon="1.18195">
        <ele>206.8</ele>
        <time>2024-08-01T07:11:00Z</time>
      </trkpt>
      <trkpt lat="43.48396" lon="1.18197">
        <ele>206</ele>
        <time>2024-08-01T07:11:01Z</time>
      </trkpt>
      <trkpt lat="43.48384" lon="1.182">
        <ele>205.6</ele>
        <time>2024-08-01T07:11:02Z</time>
      </trkpt>
      <trkpt lat="43.48374" lon="1.18203">
        <ele>204.6</ele>
        <time>2024-08-01T07:11:03Z</time>
      </trkpt>
      <trkpt lat="43.48365" lon="1.18206">
        <ele>203.4</ele>
        <time>2024-08-01T07:11:04Z</time>
      </trkpt>
      <trkpt lat="43.48357" lon="1.18208">
        <ele>203</ele>
        <time>2024-08-01T07:11:05Z</time>
      </trkpt>
      <trkpt lat="43.48348" lon="1.18211">
        <ele>202.4</ele>
        <time>2024-08-01T07:11:06Z</time>
      </trkpt>
      <trkpt lat="43.48337" lon="1.18214">
        <ele>202.2</ele>
        <time>2024-08-01T07:11:07Z</time>
      </trkpt>
      <trkpt lat="43.48328" lon="1.18217">
        <ele>201.8</ele>
        <time>2024-08-01T07:11:08Z</time>
      </trkpt>
      <trkpt lat="43.48319" lon="1.18219">
        <ele>201.8</ele>
        <time>2024-08-01T07:11:09Z</time>
      </trkpt>
      <trkpt lat="43.48311" lon="1.18221">
        <ele>201.8</ele>
        <time>2024-08-01T07:11:10Z</time>
      </trkpt>
      <trkpt lat="43.48304" lon="1.18222">
        <ele>201.6</ele>
        <time>2024-08-01T07:11:11Z</time>
      </trkpt>
      <trkpt lat="43.48294" lon="1.18225">
        <ele>201.6</ele>
        <time>2024-08-01T07:11:12Z</time>
      </trkpt>
      <trkpt lat="43.48285" lon="1.18227">
        <ele>201.6</ele>
        <time>2024-08-01T07:11:13Z</time>
      </trkpt>
      <trkpt lat="43.48278" lon="1.18229">
        <ele>201.6</ele>
        <time>2024-08-01T07:11:14Z</time>
      </trkpt>
      <trkpt lat="43.4827" lon="1.18231">
        <ele>201.6</ele>
        <time>2024-08-01T07:11:15Z</time>
      </trkpt>
      <trkpt lat="43.4826" lon="1.18233">
        <ele>201.6</ele>
        <time>2024-08-01T07:11:16Z</time>
      </trkpt>
      <trkpt lat="43.48251" lon="1.18235">
        <ele>201.6</ele>
        <time>2024-08-01T07:11:17Z</time>
      </trkpt>
      <trkpt lat="43.48243" lon="1.18237">
        <ele>201.6</ele>
        <time>2024-08-01T07:11:18Z</time>
      </trkpt>
      <trkpt lat="43.48235" lon="1.18238">
        <ele>201.8</ele>
        <time>2024-08-01T07:11:19Z</time>
      </trkpt>
      <trkpt lat="43.48228" lon="1.1824">
        <ele>201.8</ele>
        <time>2024-08-01T07:11:20Z</time>
      </trkpt>
      <trkpt lat="43.48221" lon="1.18241">
        <ele>201.8</ele>
        <time>2024-08-01T07:11:21Z</time>
      </trkpt>
      <trkpt lat="43.48214" lon="1.18242">
        <ele>201.8</ele>
        <time>2024-08-01T07:11:22Z</time>
      </trkpt>
      <trkpt lat="43.48208" lon="1.18243">
        <ele>202</ele>
        <time>2024-08-01T07:11:23Z</time>
      </trkpt>
      <trkpt lat="43.48203" lon="1.18243">
        <ele>202.2</ele>
        <time>2024-08-01T07:11:24Z</time>
      </trkpt>
      <trkpt lat="43.48197" lon="1.18242">
        <ele>202.6</ele>
        <time>2024-08-01T07:11:25Z</time>
      </trkpt>
      <trkpt lat="43.48192" lon="1.18242">
        <ele>202.6</ele>
        <time>2024-08-01T07:11:26Z</time>
      </trkpt>
      <trkpt lat="43.48186" lon="1.1824">
        <ele>203</ele>
        <time>2024-08-01T07:11:27Z</time>
      </trkpt>
      <trkpt lat="43.48181" lon="1.18239">
        <ele>203.2</ele>
        <time>2024-08-01T07:11:28Z</time>
      </trkpt>
      <trkpt lat="43.48176" lon="1.18238">
        <ele>204</ele>
        <time>2024-08-01T07:11:29Z</time>
      </trkpt>
      <trkpt lat="43.48171" lon="1.18236">
        <ele>204.4</ele>
        <time>2024-08-01T07:11:30Z</time>
      </trkpt>
      <trkpt lat="43.48166" lon="1.18233">
        <ele>205</ele>
        <time>2024-08-01T07:11:31Z</time>
      </trkpt>
      <trkpt lat="43.48161" lon="1.1823">
        <ele>205.4</ele>
        <time>2024-08-01T07:11:32Z</time>
      </trkpt>
      <trkpt lat="43.48156" lon="1.18228">
        <ele>205.8</ele>
        <time>2024-08-01T07:11:33Z</time>
      </trkpt>
      <trkpt lat="43.48151" lon="1.18226">
        <ele>206.4</ele>
        <time>2024-08-01T07:11:34Z</time>
      </trkpt>
      <trkpt lat="43.48147" lon="1.18224">
        <ele>206.6</ele>
        <time>2024-08-01T07:11:35Z</time>
      </trkpt>
      <trkpt lat="43.48142" lon="1.18221">
        <ele>207.6</ele>
        <time>2024-08-01T07:11:36Z</time>
      </trkpt>
      <trkpt lat="43.48136" lon="1.18219">
        <ele>208.2</ele>
        <time>2024-08-01T07:11:37Z</time>
      </trkpt>
      <trkpt lat="43.48131" lon="1.18217">
        <ele>209.2</ele>
        <time>2024-08-01T07:11:38Z</time>
      </trkpt>
      <trkpt lat="43.48128" lon="1.18215">
        <ele>209.8</ele>
        <time>2024-08-01T07:11:39Z</time>
      </trkpt>
      <trkpt lat="43.48122" lon="1.18213">
        <ele>210</ele>
        <time>2024-08-01T07:11:40Z</time>
      </trkpt>
      <trkpt lat="43.48117" lon="1.18212">
        <ele>210.2</ele>
        <time>2024-08-01T07:11:41Z</time>
      </trkpt>
      <trkpt lat="43.48112" lon="1.1821">
        <ele>210.6</ele>
        <time>2024-08-01T07:11:42Z</time>
      </trkpt>
      <trkpt lat="43.48107" lon="1.1821">
        <ele>211.2</ele>
        <time>2024-08-01T07:11:43Z</time>
      </trkpt>
      <trkpt lat="43.48102" lon="1.18209">
        <ele>211.6</ele>
        <time>2024-08-01T07:11:44Z</time>
      </trkpt>
      <trkpt lat="43.48098" lon="1.18208">
        <ele>212.2</ele>
        <time>2024-08-01T07:11:45Z</time>
      </trkpt>
      <trkpt lat="43.48092" lon="1.18208">
        <ele>212.8</ele>
        <time>2024-08-01T07:11:46Z</time>
      </trkpt>
      <trkpt lat="43.48087" lon="1.18207">
        <ele>213.2</ele>
        <time>2024-08-01T07:11:47Z</time>
      </trkpt>
      <trkpt lat="43.48083" lon="1.18207">
        <ele>213.6</ele>
        <time>2024-08-01T07:11:48Z</time>
      </trkpt>
      <trkpt lat="43.48079" lon="1.18206">
        <ele>214</ele>
        <time>2024-08-01T07:11:49Z</time>
      </trkpt>
      <trkpt lat="43.48074" lon="1.18206">
        <ele>214.6</ele>
        <time>2024-08-01T07:11:50Z</time>
      </trkpt>
      <trkpt lat="43.48071" lon="1.18206">
        <ele>215.2</ele>
        <time>2024-08-01T07:11:51Z</time>
      </trkpt>
      <trkpt lat="43.48067" lon="1.18205">
        <ele>215.8</ele>
        <time>2024-08-01T07:11:52Z</time>
      </trkpt>
      <trkpt lat="43.48062" lon="1.18204">
        <ele>216.4</ele>
        <time>2024-08-01T07:11:53Z</time>
      </trkpt>
      <trkpt lat="43.48057" lon="1.18204">
        <ele>216.6</ele>
        <time>2024-08-01T07:11:54Z</time>
      </trkpt>
      <trkpt lat="43.48052" lon="1.18203">
        <ele>217</ele>
        <time>2024-08-01T07:11:55Z</time>
      </trkpt>
      <trkpt lat="43.4805" lon="1.18203">
        <ele>217.2</ele>
        <time>2024-08-01T07:11:56Z</time>
      </trkpt>
      <trkpt lat="43.48046" lon="1.18202">
        <ele>217.4</ele>
        <time>2024-08-01T07:11:57Z</time>
      </trkpt>
      <trkpt lat="43.48041" lon="1.18202">
        <ele>217.8</ele>
        <time>2024-08-01T07:11:58Z</time>
      </trkpt>
      <trkpt lat="43.48038" lon="1.18201">
        <ele>218</ele>
        <time>2024-08-01T07:11:59Z</time>
      </trkpt>
      <trkpt lat="43.48032" lon="1.18201">
        <ele>218.4</ele>
        <time>2024-08-01T07:12:00Z</time>
      </trkpt>
      <trkpt lat="43.48029" lon="1.182">
        <ele>218.8</ele>
        <time>2024-08-01T07:12:01Z</time>
      </trkpt>
      <trkpt lat="43.48024" lon="1.18199">
        <ele>219.4</ele>
        <time>2024-08-01T07:12:02Z</time>
      </trkpt>
      <trkpt lat="43.48019" lon="1.18199">
        <ele>219.6</ele>
        <time>2024-08-01T07:12:03Z</time>
      </trkpt>
      <trkpt lat="43.48014" lon="1.18198">
        <ele>220</ele>
        <time>2024-08-01T07:12:04Z</time>
      </trkpt>
      <trkpt lat="43.4801" lon="1.18196">
        <ele>220.2</ele>
        <time>2024-08-01T07:12:05Z</time>
      </trkpt>
      <trkpt lat="43.48003" lon="1.18196">
        <ele>220.6</ele>
        <time>2024-08-01T07:12:06Z</time>
      </trkpt>
      <trkpt lat="43.47997" lon="1.18195">
        <ele>221</ele>
        <time>2024-08-01T07:12:07Z</time>
      </trkpt>
      <trkpt lat="43.47992" lon="1.18194">
        <ele>221.2</ele>
        <time>2024-08-01T07:12:08Z</time>
      </trkpt>
      <trkpt lat="43.47987" lon="1.18193">
        <ele>221.8</ele>
        <time>2024-08-01T07:12:09Z</time>
      </trkpt>
      <trkpt lat="43.47982" lon="1.18193">
        <ele>222</ele>
        <time>2024-08-01T07:12:10Z</time>
      </trkpt>
      <trkpt lat="43.47976" lon="1.18192">
        <ele>222.2</ele>
        <time>2024-08-01T07:12:11Z</time>
      </trkpt>
      <trkpt lat="43.4797" lon="1.18191">
        <ele>222.4</ele>
        <time>2024-08-01T07:12:12Z</time>
      </trkpt>
      <trkpt lat="43.47965" lon="1.1819">
        <ele>222.4</ele>
        <time>2024-08-01T07:12:13Z</time>
      </trkpt>
      <trkpt lat="43.4796" lon="1.1819">
        <ele>222.6</ele>
        <time>2024-08-01T07:12:14Z</time>
      </trkpt>
      <trkpt lat="43.47956" lon="1.18189">
        <ele>222.6</ele>
        <time>2024-08-01T07:12:15Z</time>
      </trkpt>
      <trkpt lat="43.47956" lon="1.18189">
        <ele>222.8</ele>
        <time>2024-08-01T07:12:16Z</time>
      </trkpt>
      <trkpt lat="43.47944" lon="1.18188">
        <ele>223</ele>
        <time>2024-08-01T07:12:17Z</time>
      </trkpt>
      <trkpt lat="43.47939" lon="1.18187">
        <ele>223</ele>
        <time>2024-08-01T07:12:18Z</time>
      </trkpt>
      <trkpt lat="43.47934" lon="1.18187">
        <ele>223</ele>
        <time>2024-08-01T07:12:19Z</time>
      </trkpt>
      <trkpt lat="43.47929" lon="1.18186">
        <ele>223</ele>
        <time>2024-08-01T07:12:20Z</time>
      </trkpt>
      <trkpt lat="43.47924" lon="1.18186">
        <ele>223.2</ele>
        <time>2024-08-01T07:12:21Z</time>
      </trkpt>
      <trkpt lat="43.47918" lon="1.18185">
        <ele>223.2</ele>
        <time>2024-08-01T07:12:22Z</time>
      </trkpt>
      <trkpt lat="43.47912" lon="1.18184">
        <ele>223.4</ele>
        <time>2024-08-01T07:12:23Z</time>
      </trkpt>
      <trkpt lat="43.47907" lon="1.18183">
        <ele>223.4</ele>
        <time>2024-08-01T07:12:24Z</time>
      </trkpt>
      <trkpt lat="43.47902" lon="1.18183">
        <ele>223.6</ele>
        <time>2024-08-01T07:12:25Z</time>
      </trkpt>
      <trkpt lat="43.47898" lon="1.18182">
        <ele>223.6</ele>
        <time>2024-08-01T07:12:26Z</time>
      </trkpt>
      <trkpt lat="43.47891" lon="1.18181">
        <ele>223.6</ele>
        <time>2024-08-01T07:12:27Z</time>
      </trkpt>
      <trkpt lat="43.47886" lon="1.1818">
        <ele>223.6</ele>
        <time>2024-08-01T07:12:28Z</time>
      </trkpt>
      <trkpt lat="43.47881" lon="1.18179">
        <ele>223.6</ele>
        <time>2024-08-01T07:12:29Z</time>
      </trkpt>
      <trkpt lat="43.47876" lon="1.18178">
        <ele>223.6</ele>
        <time>2024-08-01T07:12:30Z</time>
      </trkpt>
      <trkpt lat="43.47871" lon="1.18178">
        <ele>223.6</ele>
        <time>2024-08-01T07:12:31Z</time>
      </trkpt>
      <trkpt lat="43.47865" lon="1.18177">
        <ele>223.6</ele>
        <time>2024-08-01T07:12:32Z</time>
      </trkpt>
      <trkpt lat="43.4786" lon="1.18176">
        <ele>223.6</ele>
        <time>2024-08-01T07:12:33Z</time>
      </trkpt>
      <trkpt lat="43.47854" lon="1.18175">
        <ele>223.6</ele>
        <time>2024-08-01T07:12:34Z</time>
      </trkpt>
      <trkpt lat="43.47849" lon="1.18175">
        <ele>223.4</ele>
        <time>2024-08-01T07:12:35Z</time>
      </trkpt>
      <trkpt lat="43.47845" lon="1.18174">
        <ele>223.4</ele>
        <time>2024-08-01T07:12:36Z</time>
      </trkpt>
      <trkpt lat="43.47839" lon="1.18173">
        <ele>223.6</ele>
        <time>2024-08-01T07:12:37Z</time>
      </trkpt>
      <trkpt lat="43.47833" lon="1.18172">
        <ele>223.6</ele>
        <time>2024-08-01T07:12:38Z</time>
      </trkpt>
      <trkpt lat="43.47828" lon="1.18171">
        <ele>223.6</ele>
        <time>2024-08-01T07:12:39Z</time>
      </trkpt>
      <trkpt lat="43.47822" lon="1.18171">
        <ele>223.6</ele>
        <time>2024-08-01T07:12:40Z</time>
      </trkpt>
      <trkpt lat="43.47817" lon="1.1817">
        <ele>223.8</ele>
        <time>2024-08-01T07:12:41Z</time>
      </trkpt>
      <trkpt lat="43.47812" lon="1.1817">
        <ele>223.8</ele>
        <time>2024-08-01T07:12:42Z</time>
      </trkpt>
      <trkpt lat="43.47807" lon="1.18169">
        <ele>223.8</ele>
        <time>2024-08-01T07:12:43Z</time>
      </trkpt>
      <trkpt lat="43.47803" lon="1.18168">
        <ele>223.8</ele>
        <time>2024-08-01T07:12:44Z</time>
      </trkpt>
      <trkpt lat="43.47797" lon="1.18167">
        <ele>223.8</ele>
        <time>2024-08-01T07:12:45Z</time>
      </trkpt>
      <trkpt lat="43.47791" lon="1.18166">
        <ele>223.8</ele>
        <time>2024-08-01T07:12:46Z</time>
      </trkpt>
      <trkpt lat="43.47786" lon="1.18165">
        <ele>224</ele>
        <time>2024-08-01T07:12:47Z</time>
      </trkpt>
      <trkpt lat="43.4778" lon="1.18164">
        <ele>223.8</ele>
        <time>2024-08-01T07:12:48Z</time>
      </trkpt>
      <trkpt lat="43.47776" lon="1.18163">
        <ele>224</ele>
        <time>2024-08-01T07:12:49Z</time>
      </trkpt>
      <trkpt lat="43.4777" lon="1.18162">
        <ele>224</ele>
        <time>2024-08-01T07:12:50Z</time>
      </trkpt>
      <trkpt lat="43.47765" lon="1.18161">
        <ele>224</ele>
        <time>2024-08-01T07:12:51Z</time>
      </trkpt>
      <trkpt lat="43.47758" lon="1.1816">
        <ele>224.2</ele>
        <time>2024-08-01T07:12:52Z</time>
      </trkpt>
      <trkpt lat="43.47752" lon="1.18159">
        <ele>224.2</ele>
        <time>2024-08-01T07:12:53Z</time>
      </trkpt>
      <trkpt lat="43.47748" lon="1.18158">
        <ele>224</ele>
        <time>2024-08-01T07:12:54Z</time>
      </trkpt>
      <trkpt lat="43.47742" lon="1.18157">
        <ele>224</ele>
        <time>2024-08-01T07:12:55Z</time>
      </trkpt>
      <trkpt lat="43.47735" lon="1.18155">
        <ele>224</ele>
        <time>2024-08-01T07:12:56Z</time>
      </trkpt>
      <trkpt lat="43.4773" lon="1.18154">
        <ele>224</ele>
        <time>2024-08-01T07:12:57Z</time>
      </trkpt>
      <trkpt lat="43.47724" lon="1.18153">
        <ele>224.2</ele>
        <time>2024-08-01T07:12:58Z</time>
      </trkpt>
      <trkpt lat="43.47718" lon="1.18152">
        <ele>224.2</ele>
        <time>2024-08-01T07:12:59Z</time>
      </trkpt>
      <trkpt lat="43.47712" lon="1.1815">
        <ele>224</ele>
        <time>2024-08-01T07:13:00Z</time>
      </trkpt>
      <trkpt lat="43.47706" lon="1.18149">
        <ele>224</ele>
        <time>2024-08-01T07:13:01Z</time>
      </trkpt>
      <trkpt lat="43.477" lon="1.18148">
        <ele>224.2</ele>
        <time>2024-08-01T07:13:02Z</time>
      </trkpt>
      <trkpt lat="43.47694" lon="1.18146">
        <ele>224.4</ele>
        <time>2024-08-01T07:13:03Z</time>
      </trkpt>
      <trkpt lat="43.4769" lon="1.18145">
        <ele>224.4</ele>
        <time>2024-08-01T07:13:04Z</time>
      </trkpt>
      <trkpt lat="43.47683" lon="1.18144">
        <ele>224.4</ele>
        <time>2024-08-01T07:13:05Z</time>
      </trkpt>
      <trkpt lat="43.47676" lon="1.18142">
        <ele>224.4</ele>
        <time>2024-08-01T07:13:06Z</time>
      </trkpt>
      <trkpt lat="43.4767" lon="1.1814">
        <ele>224.4</ele>
        <time>2024-08-01T07:13:07Z</time>
      </trkpt>
      <trkpt lat="43.47664" lon="1.18138">
        <ele>224.4</ele>
        <time>2024-08-01T07:13:08Z</time>
      </trkpt>
      <trkpt lat="43.47659" lon="1.18137">
        <ele>224.4</ele>
        <time>2024-08-01T07:13:09Z</time>
      </trkpt>
      <trkpt lat="43.47652" lon="1.18135">
        <ele>224.2</ele>
        <time>2024-08-01T07:13:10Z</time>
      </trkpt>
      <trkpt lat="43.47646" lon="1.18134">
        <ele>224.2</ele>
        <time>2024-08-01T07:13:11Z</time>
      </trkpt>
      <trkpt lat="43.47639" lon="1.18132">
        <ele>224.2</ele>
        <time>2024-08-01T07:13:12Z</time>
      </trkpt>
      <trkpt lat="43.47633" lon="1.1813">
        <ele>224.2</ele>
        <time>2024-08-01T07:13:13Z</time>
      </trkpt>
      <trkpt lat="43.47627" lon="1.18128">
        <ele>224</ele>
        <time>2024-08-01T07:13:14Z</time>
      </trkpt>
      <trkpt lat="43.47622" lon="1.18126">
        <ele>224</ele>
        <time>2024-08-01T07:13:15Z</time>
      </trkpt>
      <trkpt lat="43.47616" lon="1.18123">
        <ele>224</ele>
        <time>2024-08-01T07:13:16Z</time>
      </trkpt>
      <trkpt lat="43.4761" lon="1.1812">
        <ele>224</ele>
        <time>2024-08-01T07:13:17Z</time>
      </trkpt>
      <trkpt lat="43.47604" lon="1.18118">
        <ele>223.8</ele>
        <time>2024-08-01T07:13:18Z</time>
      </trkpt>
      <trkpt lat="43.47599" lon="1.18116">
        <ele>223.6</ele>
        <time>2024-08-01T07:13:19Z</time>
      </trkpt>
      <trkpt lat="43.47592" lon="1.18113">
        <ele>223.4</ele>
        <time>2024-08-01T07:13:20Z</time>
      </trkpt>
      <trkpt lat="43.47586" lon="1.18111">
        <ele>223.4</ele>
        <time>2024-08-01T07:13:21Z</time>
      </trkpt>
      <trkpt lat="43.4758" lon="1.18108">
        <ele>223.2</ele>
        <time>2024-08-01T07:13:22Z</time>
      </trkpt>
      <trkpt lat="43.47574" lon="1.18106">
        <ele>223.2</ele>
        <time>2024-08-01T07:13:23Z</time>
      </trkpt>
      <trkpt lat="43.47568" lon="1.18103">
        <ele>223.2</ele>
        <time>2024-08-01T07:13:24Z</time>
      </trkpt>
      <trkpt lat="43.47564" lon="1.18101">
        <ele>223.4</ele>
        <time>2024-08-01T07:13:25Z</time>
      </trkpt>
      <trkpt lat="43.47556" lon="1.18098">
        <ele>223.4</ele>
        <time>2024-08-01T07:13:26Z</time>
      </trkpt>
      <trkpt lat="43.4755" lon="1.18095">
        <ele>223.4</ele>
        <time>2024-08-01T07:13:27Z</time>
      </trkpt>
      <trkpt lat="43.47544" lon="1.18092">
        <ele>223.2</ele>
        <time>2024-08-01T07:13:28Z</time>
      </trkpt>
      <trkpt lat="43.4754" lon="1.1809">
        <ele>223.2</ele>
        <time>2024-08-01T07:13:29Z</time>
      </trkpt>
      <trkpt lat="43.47532" lon="1.18087">
        <ele>223.2</ele>
        <time>2024-08-01T07:13:30Z</time>
      </trkpt>
      <trkpt lat="43.47526" lon="1.18084">
        <ele>223.2</ele>
        <time>2024-08-01T07:13:31Z</time>
      </trkpt>
      <trkpt lat="43.4752" lon="1.18081">
        <ele>223.4</ele>
        <time>2024-08-01T07:13:32Z</time>
      </trkpt>
      <trkpt lat="43.47514" lon="1.18078">
        <ele>223.4</ele>
        <time>2024-08-01T07:13:33Z</time>
      </trkpt>
      <trkpt lat="43.4751" lon="1.18076">
        <ele>223.4</ele>
        <time>2024-08-01T07:13:34Z</time>
      </trkpt>
      <trkpt lat="43.47505" lon="1.18074">
        <ele>223.4</ele>
        <time>2024-08-01T07:13:35Z</time>
      </trkpt>
      <trkpt lat="43.47498" lon="1.18071">
        <ele>223.2</ele>
        <time>2024-08-01T07:13:36Z</time>
      </trkpt>
      <trkpt lat="43.47493" lon="1.18068">
        <ele>223.2</ele>
        <time>2024-08-01T07:13:37Z</time>
      </trkpt>
      <trkpt lat="43.47489" lon="1.18066">
        <ele>223.2</ele>
        <time>2024-08-01T07:13:38Z</time>
      </trkpt>
      <trkpt lat="43.47485" lon="1.18064">
        <ele>223.2</ele>
        <time>2024-08-01T07:13:39Z</time>
      </trkpt>
      <trkpt lat="43.47479" lon="1.18062">
        <ele>223.2</ele>
        <time>2024-08-01T07:13:40Z</time>
      </trkpt>
      <trkpt lat="43.47475" lon="1.1806">
        <ele>223.4</ele>
        <time>2024-08-01T07:13:41Z</time>
      </trkpt>
      <trkpt lat="43.47471" lon="1.18057">
        <ele>223.4</ele>
        <time>2024-08-01T07:13:42Z</time>
      </trkpt>
      <trkpt lat="43.47466" lon="1.18055">
        <ele>223.6</ele>
        <time>2024-08-01T07:13:43Z</time>
      </trkpt>
      <trkpt lat="43.47461" lon="1.18052">
        <ele>223.6</ele>
        <time>2024-08-01T07:13:44Z</time>
      </trkpt>
      <trkpt lat="43.47457" lon="1.1805">
        <ele>223.6</ele>
        <time>2024-08-01T07:13:45Z</time>
      </trkpt>
      <trkpt lat="43.47452" lon="1.18048">
        <ele>223.6</ele>
        <time>2024-08-01T07:13:46Z</time>
      </trkpt>
      <trkpt lat="43.47447" lon="1.18046">
        <ele>223.4</ele>
        <time>2024-08-01T07:13:47Z</time>
      </trkpt>
      <trkpt lat="43.47442" lon="1.18044">
        <ele>223.4</ele>
        <time>2024-08-01T07:13:48Z</time>
      </trkpt>
      <trkpt lat="43.47439" lon="1.18041">
        <ele>223.6</ele>
        <time>2024-08-01T07:13:49Z</time>
      </trkpt>
      <trkpt lat="43.47432" lon="1.18038">
        <ele>223.8</ele>
        <time>2024-08-01T07:13:50Z</time>
      </trkpt>
      <trkpt lat="43.47427" lon="1.18035">
        <ele>223.8</ele>
        <time>2024-08-01T07:13:51Z</time>
      </trkpt>
      <trkpt lat="43.47422" lon="1.18033">
        <ele>223.6</ele>
        <time>2024-08-01T07:13:52Z</time>
      </trkpt>
      <trkpt lat="43.47417" lon="1.18031">
        <ele>224</ele>
        <time>2024-08-01T07:13:53Z</time>
      </trkpt>
      <trkpt lat="43.47412" lon="1.18029">
        <ele>224</ele>
        <time>2024-08-01T07:13:54Z</time>
      </trkpt>
      <trkpt lat="43.47406" lon="1.18026">
        <ele>223.8</ele>
        <time>2024-08-01T07:13:55Z</time>
      </trkpt>
      <trkpt lat="43.47401" lon="1.18024">
        <ele>223.8</ele>
        <time>2024-08-01T07:13:56Z</time>
      </trkpt>
      <trkpt lat="43.47395" lon="1.18023">
        <ele>223.8</ele>
        <time>2024-08-01T07:13:57Z</time>
      </trkpt>
      <trkpt lat="43.4739" lon="1.18022">
        <ele>223.8</ele>
        <time>2024-08-01T07:13:58Z</time>
      </trkpt>
      <trkpt lat="43.47385" lon="1.18021">
        <ele>224.2</ele>
        <time>2024-08-01T07:13:59Z</time>
      </trkpt>
      <trkpt lat="43.47379" lon="1.18019">
        <ele>224</ele>
        <time>2024-08-01T07:14:00Z</time>
      </trkpt>
      <trkpt lat="43.47373" lon="1.18018">
        <ele>224</ele>
        <time>2024-08-01T07:14:01Z</time>
      </trkpt>
      <trkpt lat="43.47368" lon="1.18016">
        <ele>224.2</ele>
        <time>2024-08-01T07:14:02Z</time>
      </trkpt>
      <trkpt lat="43.47363" lon="1.18015">
        <ele>224.2</ele>
        <time>2024-08-01T07:14:03Z</time>
      </trkpt>
      <trkpt lat="43.47358" lon="1.18014">
        <ele>224.4</ele>
        <time>2024-08-01T07:14:04Z</time>
      </trkpt>
      <trkpt lat="43.47351" lon="1.18013">
        <ele>224.4</ele>
        <time>2024-08-01T07:14:05Z</time>
      </trkpt>
      <trkpt lat="43.47346" lon="1.18012">
        <ele>224.4</ele>
        <time>2024-08-01T07:14:06Z</time>
      </trkpt>
      <trkpt lat="43.47342" lon="1.18011">
        <ele>224.4</ele>
        <time>2024-08-01T07:14:07Z</time>
      </trkpt>
      <trkpt lat="43.47336" lon="1.1801">
        <ele>224.6</ele>
        <time>2024-08-01T07:14:08Z</time>
      </trkpt>
      <trkpt lat="43.47332" lon="1.18009">
        <ele>224.6</ele>
        <time>2024-08-01T07:14:09Z</time>
      </trkpt>
      <trkpt lat="43.47327" lon="1.18008">
        <ele>224.6</ele>
        <time>2024-08-01T07:14:10Z</time>
      </trkpt>
      <trkpt lat="43.47324" lon="1.18006">
        <ele>224.8</ele>
        <time>2024-08-01T07:14:11Z</time>
      </trkpt>
      <trkpt lat="43.47322" lon="1.18004">
        <ele>224.8</ele>
        <time>2024-08-01T07:14:12Z</time>
      </trkpt>
      <trkpt lat="43.47321" lon="1.18">
        <ele>224.8</ele>
        <time>2024-08-01T07:14:13Z</time>
      </trkpt>
      <trkpt lat="43.47321" lon="1.17995">
        <ele>224.8</ele>
        <time>2024-08-01T07:14:14Z</time>
      </trkpt>
      <trkpt lat="43.47321" lon="1.1799">
        <ele>224.8</ele>
        <time>2024-08-01T07:14:15Z</time>
      </trkpt>
      <trkpt lat="43.47321" lon="1.17985">
        <ele>224.8</ele>
        <time>2024-08-01T07:14:16Z</time>
      </trkpt>
      <trkpt lat="43.47322" lon="1.17981">
        <ele>224.8</ele>
        <time>2024-08-01T07:14:17Z</time>
      </trkpt>
      <trkpt lat="43.47323" lon="1.17974">
        <ele>224.8</ele>
        <time>2024-08-01T07:14:18Z</time>
      </trkpt>
      <trkpt lat="43.47325" lon="1.17968">
        <ele>225</ele>
        <time>2024-08-01T07:14:19Z</time>
      </trkpt>
      <trkpt lat="43.47326" lon="1.17962">
        <ele>224.8</ele>
        <time>2024-08-01T07:14:20Z</time>
      </trkpt>
      <trkpt lat="43.47327" lon="1.17956">
        <ele>225</ele>
        <time>2024-08-01T07:14:21Z</time>
      </trkpt>
      <trkpt lat="43.47328" lon="1.1795">
        <ele>225</ele>
        <time>2024-08-01T07:14:22Z</time>
      </trkpt>
      <trkpt lat="43.47329" lon="1.17943">
        <ele>225.2</ele>
        <time>2024-08-01T07:14:23Z</time>
      </trkpt>
      <trkpt lat="43.4733" lon="1.17937">
        <ele>225.2</ele>
        <time>2024-08-01T07:14:24Z</time>
      </trkpt>
      <trkpt lat="43.47332" lon="1.1793">
        <ele>225.2</ele>
        <time>2024-08-01T07:14:25Z</time>
      </trkpt>
      <trkpt lat="43.47333" lon="1.17923">
        <ele>225.2</ele>
        <time>2024-08-01T07:14:26Z</time>
      </trkpt>
      <trkpt lat="43.47335" lon="1.17916">
        <ele>225.4</ele>
        <time>2024-08-01T07:14:27Z</time>
      </trkpt>
      <trkpt lat="43.47335" lon="1.1791">
        <ele>225.6</ele>
        <time>2024-08-01T07:14:28Z</time>
      </trkpt>
      <trkpt lat="43.47337" lon="1.17901">
        <ele>225.8</ele>
        <time>2024-08-01T07:14:29Z</time>
      </trkpt>
      <trkpt lat="43.47338" lon="1.17894">
        <ele>225.8</ele>
        <time>2024-08-01T07:14:30Z</time>
      </trkpt>
      <trkpt lat="43.4734" lon="1.17886">
        <ele>225.8</ele>
        <time>2024-08-01T07:14:31Z</time>
      </trkpt>
      <trkpt lat="43.47341" lon="1.1788">
        <ele>225.8</ele>
        <time>2024-08-01T07:14:32Z</time>
      </trkpt>
      <trkpt lat="43.47342" lon="1.17873">
        <ele>225.8</ele>
        <time>2024-08-01T07:14:33Z</time>
      </trkpt>
      <trkpt lat="43.47344" lon="1.17864">
        <ele>225.8</ele>
        <time>2024-08-01T07:14:34Z</time>
      </trkpt>
      <trkpt lat="43.47345" lon="1.17857">
        <ele>225.8</ele>
        <time>2024-08-01T07:14:35Z</time>
      </trkpt>
      <trkpt lat="43.47346" lon="1.17849">
        <ele>225.8</ele>
        <time>2024-08-01T07:14:36Z</time>
      </trkpt>
      <trkpt lat="43.47348" lon="1.17843">
        <ele>226.2</ele>
        <time>2024-08-01T07:14:37Z</time>
      </trkpt>
      <trkpt lat="43.47349" lon="1.17835">
        <ele>226.2</ele>
        <time>2024-08-01T07:14:38Z</time>
      </trkpt>
      <trkpt lat="43.4735" lon="1.17826">
        <ele>226.2</ele>
        <time>2024-08-01T07:14:39Z</time>
      </trkpt>
      <trkpt lat="43.47351" lon="1.17818">
        <ele>226</ele>
        <time>2024-08-01T07:14:40Z</time>
      </trkpt>
      <trkpt lat="43.47353" lon="1.1781">
        <ele>226</ele>
        <time>2024-08-01T07:14:41Z</time>
      </trkpt>
      <trkpt lat="43.47354" lon="1.17804">
        <ele>226.2</ele>
        <time>2024-08-01T07:14:42Z</time>
      </trkpt>
      <trkpt lat="43.47356" lon="1.17796">
        <ele>226.2</ele>
        <time>2024-08-01T07:14:43Z</time>
      </trkpt>
      <trkpt lat="43.47357" lon="1.17787">
        <ele>226.2</ele>
        <time>2024-08-01T07:14:44Z</time>
      </trkpt>
      <trkpt lat="43.47358" lon="1.17779">
        <ele>226.2</ele>
        <time>2024-08-01T07:14:45Z</time>
      </trkpt>
      <trkpt lat="43.47358" lon="1.17772">
        <ele>226.4</ele>
        <time>2024-08-01T07:14:46Z</time>
      </trkpt>
      <trkpt lat="43.47357" lon="1.17765">
        <ele>226.4</ele>
        <time>2024-08-01T07:14:47Z</time>
      </trkpt>
      <trkpt lat="43.47355" lon="1.17757">
        <ele>226.2</ele>
        <time>2024-08-01T07:14:48Z</time>
      </trkpt>
      <trkpt lat="43.47353" lon="1.17751">
        <ele>226.2</ele>
        <time>2024-08-01T07:14:49Z</time>
      </trkpt>
      <trkpt lat="43.47349" lon="1.17746">
        <ele>226.4</ele>
        <time>2024-08-01T07:14:50Z</time>
      </trkpt>
      <trkpt lat="43.47346" lon="1.17742">
        <ele>226.4</ele>
        <time>2024-08-01T07:14:51Z</time>
      </trkpt>
      <trkpt lat="43.47341" lon="1.17737">
        <ele>226.4</ele>
        <time>2024-08-01T07:14:52Z</time>
      </trkpt>
      <trkpt lat="43.47338" lon="1.17734">
        <ele>226.4</ele>
        <time>2024-08-01T07:14:53Z</time>
      </trkpt>
      <trkpt lat="43.47333" lon="1.1773">
        <ele>226.4</ele>
        <time>2024-08-01T07:14:54Z</time>
      </trkpt>
      <trkpt lat="43.47329" lon="1.17726">
        <ele>226.6</ele>
        <time>2024-08-01T07:14:55Z</time>
      </trkpt>
      <trkpt lat="43.47325" lon="1.17722">
        <ele>226.6</ele>
        <time>2024-08-01T07:14:56Z</time>
      </trkpt>
      <trkpt lat="43.47322" lon="1.17719">
        <ele>226.6</ele>
        <time>2024-08-01T07:14:57Z</time>
      </trkpt>
      <trkpt lat="43.47317" lon="1.17715">
        <ele>226.6</ele>
        <time>2024-08-01T07:14:58Z</time>
      </trkpt>
      <trkpt lat="43.47313" lon="1.17711">
        <ele>226.6</ele>
        <time>2024-08-01T07:14:59Z</time>
      </trkpt>
      <trkpt lat="43.47308" lon="1.17708">
        <ele>226.6</ele>
        <time>2024-08-01T07:15:00Z</time>
      </trkpt>
      <trkpt lat="43.47304" lon="1.17704">
        <ele>226.6</ele>
        <time>2024-08-01T07:15:01Z</time>
      </trkpt>
      <trkpt lat="43.47299" lon="1.17701">
        <ele>226.6</ele>
        <time>2024-08-01T07:15:02Z</time>
      </trkpt>
      <trkpt lat="43.47294" lon="1.17698">
        <ele>226.6</ele>
        <time>2024-08-01T07:15:03Z</time>
      </trkpt>
      <trkpt lat="43.47289" lon="1.17695">
        <ele>226.6</ele>
        <time>2024-08-01T07:15:04Z</time>
      </trkpt>
      <trkpt lat="43.47283" lon="1.17692">
        <ele>226.8</ele>
        <time>2024-08-01T07:15:05Z</time>
      </trkpt>
      <trkpt lat="43.47279" lon="1.1769">
        <ele>226.8</ele>
        <time>2024-08-01T07:15:06Z</time>
      </trkpt>
      <trkpt lat="43.47274" lon="1.17687">
        <ele>226.8</ele>
        <time>2024-08-01T07:15:07Z</time>
      </trkpt>
      <trkpt lat="43.47267" lon="1.17684">
        <ele>226.8</ele>
        <time>2024-08-01T07:15:08Z</time>
      </trkpt>
      <trkpt lat="43.47262" lon="1.17682">
        <ele>226.8</ele>
        <time>2024-08-01T07:15:09Z</time>
      </trkpt>
      <trkpt lat="43.47256" lon="1.1768">
        <ele>226.8</ele>
        <time>2024-08-01T07:15:10Z</time>
      </trkpt>
      <trkpt lat="43.47251" lon="1.17677">
        <ele>226.8</ele>
        <time>2024-08-01T07:15:11Z</time>
      </trkpt>
      <trkpt lat="43.47247" lon="1.17674">
        <ele>226.8</ele>
        <time>2024-08-01T07:15:12Z</time>
      </trkpt>
      <trkpt lat="43.4724" lon="1.1767">
        <ele>226.8</ele>
        <time>2024-08-01T07:15:13Z</time>
      </trkpt>
      <trkpt lat="43.47235" lon="1.17666">
        <ele>226.8</ele>
        <time>2024-08-01T07:15:14Z</time>
      </trkpt>
      <trkpt lat="43.47231" lon="1.17663">
        <ele>226.8</ele>
        <time>2024-08-01T07:15:15Z</time>
      </trkpt>
      <trkpt lat="43.47226" lon="1.17659">
        <ele>226.8</ele>
        <time>2024-08-01T07:15:16Z</time>
      </trkpt>
      <trkpt lat="43.47222" lon="1.17655">
        <ele>226.8</ele>
        <time>2024-08-01T07:15:17Z</time>
      </trkpt>
      <trkpt lat="43.47216" lon="1.17649">
        <ele>226.8</ele>
        <time>2024-08-01T07:15:18Z</time>
      </trkpt>
      <trkpt lat="43.47211" lon="1.17645">
        <ele>226.8</ele>
        <time>2024-08-01T07:15:19Z</time>
      </trkpt>
      <trkpt lat="43.47207" lon="1.17639">
        <ele>226.8</ele>
        <time>2024-08-01T07:15:20Z</time>
      </trkpt>
      <trkpt lat="43.47202" lon="1.17634">
        <ele>227</ele>
        <time>2024-08-01T07:15:21Z</time>
      </trkpt>
      <trkpt lat="43.47199" lon="1.1763">
        <ele>227</ele>
        <time>2024-08-01T07:15:22Z</time>
      </trkpt>
      <trkpt lat="43.47194" lon="1.17623">
        <ele>226.8</ele>
        <time>2024-08-01T07:15:23Z</time>
      </trkpt>
      <trkpt lat="43.47189" lon="1.17617">
        <ele>226.8</ele>
        <time>2024-08-01T07:15:24Z</time>
      </trkpt>
      <trkpt lat="43.47184" lon="1.17611">
        <ele>227</ele>
        <time>2024-08-01T07:15:25Z</time>
      </trkpt>
      <trkpt lat="43.47181" lon="1.17606">
        <ele>227</ele>
        <time>2024-08-01T07:15:26Z</time>
      </trkpt>
      <trkpt lat="43.47175" lon="1.176">
        <ele>227</ele>
        <time>2024-08-01T07:15:27Z</time>
      </trkpt>
      <trkpt lat="43.47171" lon="1.17594">
        <ele>227</ele>
        <time>2024-08-01T07:15:28Z</time>
      </trkpt>
      <trkpt lat="43.47167" lon="1.17588">
        <ele>227</ele>
        <time>2024-08-01T07:15:29Z</time>
      </trkpt>
      <trkpt lat="43.47162" lon="1.17582">
        <ele>227</ele>
        <time>2024-08-01T07:15:30Z</time>
      </trkpt>
      <trkpt lat="43.47158" lon="1.17577">
        <ele>227.2</ele>
        <time>2024-08-01T07:15:31Z</time>
      </trkpt>
      <trkpt lat="43.47153" lon="1.1757">
        <ele>227.2</ele>
        <time>2024-08-01T07:15:32Z</time>
      </trkpt>
      <trkpt lat="43.47148" lon="1.17564">
        <ele>227.2</ele>
        <time>2024-08-01T07:15:33Z</time>
      </trkpt>
      <trkpt lat="43.47144" lon="1.17558">
        <ele>227</ele>
        <time>2024-08-01T07:15:34Z</time>
      </trkpt>
      <trkpt lat="43.4714" lon="1.17553">
        <ele>227.2</ele>
        <time>2024-08-01T07:15:35Z</time>
      </trkpt>
      <trkpt lat="43.47136" lon="1.17547">
        <ele>227.2</ele>
        <time>2024-08-01T07:15:36Z</time>
      </trkpt>
      <trkpt lat="43.47131" lon="1.1754">
        <ele>227.2</ele>
        <time>2024-08-01T07:15:37Z</time>
      </trkpt>
      <trkpt lat="43.47127" lon="1.17533">
        <ele>227.2</ele>
        <time>2024-08-01T07:15:38Z</time>
      </trkpt>
      <trkpt lat="43.47123" lon="1.17527">
        <ele>227</ele>
        <time>2024-08-01T07:15:39Z</time>
      </trkpt>
      <trkpt lat="43.4712" lon="1.1752">
        <ele>227.2</ele>
        <time>2024-08-01T07:15:40Z</time>
      </trkpt>
      <trkpt lat="43.47117" lon="1.17515">
        <ele>227.2</ele>
        <time>2024-08-01T07:15:41Z</time>
      </trkpt>
      <trkpt lat="43.47113" lon="1.17506">
        <ele>227.2</ele>
        <time>2024-08-01T07:15:42Z</time>
      </trkpt>
      <trkpt lat="43.47109" lon="1.17499">
        <ele>227.2</ele>
        <time>2024-08-01T07:15:43Z</time>
      </trkpt>
      <trkpt lat="43.47106" lon="1.17492">
        <ele>227.2</ele>
        <time>2024-08-01T07:15:44Z</time>
      </trkpt>
      <trkpt lat="43.47103" lon="1.17485">
        <ele>227</ele>
        <time>2024-08-01T07:15:45Z</time>
      </trkpt>
      <trkpt lat="43.47099" lon="1.17478">
        <ele>227</ele>
        <time>2024-08-01T07:15:46Z</time>
      </trkpt>
      <trkpt lat="43.47095" lon="1.17472">
        <ele>227</ele>
        <time>2024-08-01T07:15:47Z</time>
      </trkpt>
      <trkpt lat="43.47091" lon="1.17465">
        <ele>227</ele>
        <time>2024-08-01T07:15:48Z</time>
      </trkpt>
      <trkpt lat="43.47086" lon="1.17459">
        <ele>226.8</ele>
        <time>2024-08-01T07:15:49Z</time>
      </trkpt>
      <trkpt lat="43.4708" lon="1.17453">
        <ele>226.8</ele>
        <time>2024-08-01T07:15:50Z</time>
      </trkpt>
      <trkpt lat="43.47076" lon="1.17449">
        <ele>226.8</ele>
        <time>2024-08-01T07:15:51Z</time>
      </trkpt>
      <trkpt lat="43.4707" lon="1.17442">
        <ele>226.6</ele>
        <time>2024-08-01T07:15:52Z</time>
      </trkpt>
      <trkpt lat="43.47064" lon="1.17436">
        <ele>226.6</ele>
        <time>2024-08-01T07:15:53Z</time>
      </trkpt>
      <trkpt lat="43.47059" lon="1.1743">
        <ele>226.4</ele>
        <time>2024-08-01T07:15:54Z</time>
      </trkpt>
      <trkpt lat="43.47053" lon="1.17424">
        <ele>226.4</ele>
        <time>2024-08-01T07:15:55Z</time>
      </trkpt>
      <trkpt lat="43.47048" lon="1.17419">
        <ele>226.2</ele>
        <time>2024-08-01T07:15:56Z</time>
      </trkpt>
      <trkpt lat="43.47042" lon="1.17413">
        <ele>226.2</ele>
        <time>2024-08-01T07:15:57Z</time>
      </trkpt>
      <trkpt lat="43.47036" lon="1.17407">
        <ele>226</ele>
        <time>2024-08-01T07:15:58Z</time>
      </trkpt>
      <trkpt lat="43.47031" lon="1.17401">
        <ele>225.8</ele>
        <time>2024-08-01T07:15:59Z</time>
      </trkpt>
      <trkpt lat="43.47026" lon="1.17396">
        <ele>225.8</ele>
        <time>2024-08-01T07:16:00Z</time>
      </trkpt>
      <trkpt lat="43.47021" lon="1.1739">
        <ele>225.8</ele>
        <time>2024-08-01T07:16:01Z</time>
      </trkpt>
      <trkpt lat="43.47016" lon="1.17385">
        <ele>225.8</ele>
        <time>2024-08-01T07:16:02Z</time>
      </trkpt>
      <trkpt lat="43.4701" lon="1.17379">
        <ele>225.6</ele>
        <time>2024-08-01T07:16:03Z</time>
      </trkpt>
      <trkpt lat="43.47005" lon="1.17374">
        <ele>225.6</ele>
        <time>2024-08-01T07:16:04Z</time>
      </trkpt>
      <trkpt lat="43.47" lon="1.17368">
        <ele>225.4</ele>
        <time>2024-08-01T07:16:05Z</time>
      </trkpt>
      <trkpt lat="43.46995" lon="1.17363">
        <ele>225.4</ele>
        <time>2024-08-01T07:16:06Z</time>
      </trkpt>
      <trkpt lat="43.46989" lon="1.17357">
        <ele>225.4</ele>
        <time>2024-08-01T07:16:07Z</time>
      </trkpt>
      <trkpt lat="43.46984" lon="1.17352">
        <ele>225.4</ele>
        <time>2024-08-01T07:16:08Z</time>
      </trkpt>
      <trkpt lat="43.46979" lon="1.17346">
        <ele>225.4</ele>
        <time>2024-08-01T07:16:09Z</time>
      </trkpt>
      <trkpt lat="43.46974" lon="1.17341">
        <ele>225.4</ele>
        <time>2024-08-01T07:16:10Z</time>
      </trkpt>
      <trkpt lat="43.46969" lon="1.17335">
        <ele>225.4</ele>
        <time>2024-08-01T07:16:11Z</time>
      </trkpt>
      <trkpt lat="43.46964" lon="1.17329">
        <ele>225.4</ele>
        <time>2024-08-01T07:16:12Z</time>
      </trkpt>
      <trkpt lat="43.46959" lon="1.17323">
        <ele>225.4</ele>
        <time>2024-08-01T07:16:13Z</time>
      </trkpt>
      <trkpt lat="43.46955" lon="1.17318">
        <ele>225.4</ele>
        <time>2024-08-01T07:16:14Z</time>
      </trkpt>
      <trkpt lat="43.4695" lon="1.17312">
        <ele>225.6</ele>
        <time>2024-08-01T07:16:15Z</time>
      </trkpt>
      <trkpt lat="43.46945" lon="1.17305">
        <ele>225.8</ele>
        <time>2024-08-01T07:16:16Z</time>
      </trkpt>
      <trkpt lat="43.46941" lon="1.17299">
        <ele>226</ele>
        <time>2024-08-01T07:16:17Z</time>
      </trkpt>
      <trkpt lat="43.46937" lon="1.17294">
        <ele>226.2</ele>
        <time>2024-08-01T07:16:18Z</time>
      </trkpt>
      <trkpt lat="43.46933" lon="1.17288">
        <ele>226.2</ele>
        <time>2024-08-01T07:16:19Z</time>
      </trkpt>
      <trkpt lat="43.46928" lon="1.1728">
        <ele>226.2</ele>
        <time>2024-08-01T07:16:20Z</time>
      </trkpt>
      <trkpt lat="43.46923" lon="1.17273">
        <ele>226.4</ele>
        <time>2024-08-01T07:16:21Z</time>
      </trkpt>
      <trkpt lat="43.46919" lon="1.17266">
        <ele>226.4</ele>
        <time>2024-08-01T07:16:22Z</time>
      </trkpt>
      <trkpt lat="43.46914" lon="1.1726">
        <ele>226.4</ele>
        <time>2024-08-01T07:16:23Z</time>
      </trkpt>
      <trkpt lat="43.46911" lon="1.17255">
        <ele>227</ele>
        <time>2024-08-01T07:16:24Z</time>
      </trkpt>
      <trkpt lat="43.46906" lon="1.17247">
        <ele>227.2</ele>
        <time>2024-08-01T07:16:25Z</time>
      </trkpt>
      <trkpt lat="43.46902" lon="1.17241">
        <ele>227.2</ele>
        <time>2024-08-01T07:16:26Z</time>
      </trkpt>
      <trkpt lat="43.46898" lon="1.17235">
        <ele>227.4</ele>
        <time>2024-08-01T07:16:27Z</time>
      </trkpt>
      <trkpt lat="43.46894" lon="1.17229">
        <ele>227.4</ele>
        <time>2024-08-01T07:16:28Z</time>
      </trkpt>
      <trkpt lat="43.4689" lon="1.17223">
        <ele>227.4</ele>
        <time>2024-08-01T07:16:29Z</time>
      </trkpt>
      <trkpt lat="43.46886" lon="1.17217">
        <ele>227.4</ele>
        <time>2024-08-01T07:16:30Z</time>
      </trkpt>
      <trkpt lat="43.46882" lon="1.1721">
        <ele>227.6</ele>
        <time>2024-08-01T07:16:31Z</time>
      </trkpt>
      <trkpt lat="43.46878" lon="1.17204">
        <ele>227.8</ele>
        <time>2024-08-01T07:16:32Z</time>
      </trkpt>
      <trkpt lat="43.46873" lon="1.17197">
        <ele>227.8</ele>
        <time>2024-08-01T07:16:33Z</time>
      </trkpt>
      <trkpt lat="43.46869" lon="1.1719">
        <ele>227.8</ele>
        <time>2024-08-01T07:16:34Z</time>
      </trkpt>
      <trkpt lat="43.46865" lon="1.17184">
        <ele>227.8</ele>
        <time>2024-08-01T07:16:35Z</time>
      </trkpt>
      <trkpt lat="43.4686" lon="1.17177">
        <ele>228</ele>
        <time>2024-08-01T07:16:36Z</time>
      </trkpt>
      <trkpt lat="43.46856" lon="1.1717">
        <ele>228</ele>
        <time>2024-08-01T07:16:37Z</time>
      </trkpt>
      <trkpt lat="43.46851" lon="1.17163">
        <ele>228</ele>
        <time>2024-08-01T07:16:38Z</time>
      </trkpt>
      <trkpt lat="43.46847" lon="1.17158">
        <ele>228</ele>
        <time>2024-08-01T07:16:39Z</time>
      </trkpt>
      <trkpt lat="43.46841" lon="1.1715">
        <ele>228</ele>
        <time>2024-08-01T07:16:40Z</time>
      </trkpt>
      <trkpt lat="43.46836" lon="1.17143">
        <ele>228</ele>
        <time>2024-08-01T07:16:41Z</time>
      </trkpt>
      <trkpt lat="43.46832" lon="1.17136">
        <ele>228</ele>
        <time>2024-08-01T07:16:42Z</time>
      </trkpt>
      <trkpt lat="43.46827" lon="1.17129">
        <ele>228</ele>
        <time>2024-08-01T07:16:43Z</time>
      </trkpt>
      <trkpt lat="43.46822" lon="1.17123">
        <ele>227.8</ele>
        <time>2024-08-01T07:16:44Z</time>
      </trkpt>
      <trkpt lat="43.46817" lon="1.17116">
        <ele>227.8</ele>
        <time>2024-08-01T07:16:45Z</time>
      </trkpt>
      <trkpt lat="43.46812" lon="1.1711">
        <ele>227.8</ele>
        <time>2024-08-01T07:16:46Z</time>
      </trkpt>
      <trkpt lat="43.46807" lon="1.17103">
        <ele>227.8</ele>
        <time>2024-08-01T07:16:47Z</time>
      </trkpt>
      <trkpt lat="43.46802" lon="1.17096">
        <ele>227.8</ele>
        <time>2024-08-01T07:16:48Z</time>
      </trkpt>
      <trkpt lat="43.46796" lon="1.1709">
        <ele>227.8</ele>
        <time>2024-08-01T07:16:49Z</time>
      </trkpt>
      <trkpt lat="43.46791" lon="1.17084">
        <ele>227.8</ele>
        <time>2024-08-01T07:16:50Z</time>
      </trkpt>
      <trkpt lat="43.46785" lon="1.1708">
        <ele>228</ele>
        <time>2024-08-01T07:16:51Z</time>
      </trkpt>
      <trkpt lat="43.46779" lon="1.17075">
        <ele>228</ele>
        <time>2024-08-01T07:16:52Z</time>
      </trkpt>
      <trkpt lat="43.46772" lon="1.17072">
        <ele>228</ele>
        <time>2024-08-01T07:16:53Z</time>
      </trkpt>
      <trkpt lat="43.46766" lon="1.17069">
        <ele>228</ele>
        <time>2024-08-01T07:16:54Z</time>
      </trkpt>
      <trkpt lat="43.46759" lon="1.17066">
        <ele>228</ele>
        <time>2024-08-01T07:16:55Z</time>
      </trkpt>
      <trkpt lat="43.46752" lon="1.17064">
        <ele>228</ele>
        <time>2024-08-01T07:16:56Z</time>
      </trkpt>
      <trkpt lat="43.46747" lon="1.17062">
        <ele>228</ele>
        <time>2024-08-01T07:16:57Z</time>
      </trkpt>
      <trkpt lat="43.46739" lon="1.17059">
        <ele>228</ele>
        <time>2024-08-01T07:16:58Z</time>
      </trkpt>
      <trkpt lat="43.46732" lon="1.17056">
        <ele>228</ele>
        <time>2024-08-01T07:16:59Z</time>
      </trkpt>
      <trkpt lat="43.46726" lon="1.17054">
        <ele>228</ele>
        <time>2024-08-01T07:17:00Z</time>
      </trkpt>
      <trkpt lat="43.46719" lon="1.17051">
        <ele>228</ele>
        <time>2024-08-01T07:17:01Z</time>
      </trkpt>
      <trkpt lat="43.46712" lon="1.17049">
        <ele>228</ele>
        <time>2024-08-01T07:17:02Z</time>
      </trkpt>
      <trkpt lat="43.46706" lon="1.17047">
        <ele>228</ele>
        <time>2024-08-01T07:17:03Z</time>
      </trkpt>
      <trkpt lat="43.46698" lon="1.17044">
        <ele>228</ele>
        <time>2024-08-01T07:17:04Z</time>
      </trkpt>
      <trkpt lat="43.46691" lon="1.17041">
        <ele>228</ele>
        <time>2024-08-01T07:17:05Z</time>
      </trkpt>
      <trkpt lat="43.46685" lon="1.17039">
        <ele>228</ele>
        <time>2024-08-01T07:17:06Z</time>
      </trkpt>
      <trkpt lat="43.46678" lon="1.17036">
        <ele>228</ele>
        <time>2024-08-01T07:17:07Z</time>
      </trkpt>
      <trkpt lat="43.46671" lon="1.17034">
        <ele>228</ele>
        <time>2024-08-01T07:17:08Z</time>
      </trkpt>
      <trkpt lat="43.46665" lon="1.17031">
        <ele>228</ele>
        <time>2024-08-01T07:17:09Z</time>
      </trkpt>
      <trkpt lat="43.46658" lon="1.17029">
        <ele>228</ele>
        <time>2024-08-01T07:17:10Z</time>
      </trkpt>
      <trkpt lat="43.46652" lon="1.17026">
        <ele>228</ele>
        <time>2024-08-01T07:17:11Z</time>
      </trkpt>
      <trkpt lat="43.46647" lon="1.17024">
        <ele>228</ele>
        <time>2024-08-01T07:17:12Z</time>
      </trkpt>
      <trkpt lat="43.46639" lon="1.17021">
        <ele>228</ele>
        <time>2024-08-01T07:17:13Z</time>
      </trkpt>
      <trkpt lat="43.46632" lon="1.17019">
        <ele>228</ele>
        <time>2024-08-01T07:17:14Z</time>
      </trkpt>
      <trkpt lat="43.46626" lon="1.17016">
        <ele>228</ele>
        <time>2024-08-01T07:17:15Z</time>
      </trkpt>
      <trkpt lat="43.4662" lon="1.17014">
        <ele>228</ele>
        <time>2024-08-01T07:17:16Z</time>
      </trkpt>
      <trkpt lat="43.46615" lon="1.17012">
        <ele>228</ele>
        <time>2024-08-01T07:17:17Z</time>
      </trkpt>
      <trkpt lat="43.46607" lon="1.1701">
        <ele>228</ele>
        <time>2024-08-01T07:17:18Z</time>
      </trkpt>
      <trkpt lat="43.46601" lon="1.17008">
        <ele>228</ele>
        <time>2024-08-01T07:17:19Z</time>
      </trkpt>
      <trkpt lat="43.46595" lon="1.17007">
        <ele>228</ele>
        <time>2024-08-01T07:17:20Z</time>
      </trkpt>
      <trkpt lat="43.46589" lon="1.17006">
        <ele>228</ele>
        <time>2024-08-01T07:17:21Z</time>
      </trkpt>
      <trkpt lat="43.46584" lon="1.17005">
        <ele>228</ele>
        <time>2024-08-01T07:17:22Z</time>
      </trkpt>
      <trkpt lat="43.46578" lon="1.17004">
        <ele>228</ele>
        <time>2024-08-01T07:17:23Z</time>
      </trkpt>
      <trkpt lat="43.46571" lon="1.17003">
        <ele>228</ele>
        <time>2024-08-01T07:17:24Z</time>
      </trkpt>
      <trkpt lat="43.46565" lon="1.17002">
        <ele>228</ele>
        <time>2024-08-01T07:17:25Z</time>
      </trkpt>
      <trkpt lat="43.46559" lon="1.17002">
        <ele>228</ele>
        <time>2024-08-01T07:17:26Z</time>
      </trkpt>
      <trkpt lat="43.46553" lon="1.17001">
        <ele>228</ele>
        <time>2024-08-01T07:17:27Z</time>
      </trkpt>
      <trkpt lat="43.46547" lon="1.17">
        <ele>228</ele>
        <time>2024-08-01T07:17:28Z</time>
      </trkpt>
      <trkpt lat="43.46541" lon="1.17">
        <ele>228</ele>
        <time>2024-08-01T07:17:29Z</time>
      </trkpt>
      <trkpt lat="43.46534" lon="1.16999">
        <ele>228</ele>
        <time>2024-08-01T07:17:30Z</time>
      </trkpt>
      <trkpt lat="43.46528" lon="1.16998">
        <ele>228</ele>
        <time>2024-08-01T07:17:31Z</time>
      </trkpt>
      <trkpt lat="43.46522" lon="1.16997">
        <ele>228</ele>
        <time>2024-08-01T07:17:32Z</time>
      </trkpt>
      <trkpt lat="43.46515" lon="1.16996">
        <ele>228</ele>
        <time>2024-08-01T07:17:33Z</time>
      </trkpt>
      <trkpt lat="43.46509" lon="1.16996">
        <ele>227.8</ele>
        <time>2024-08-01T07:17:34Z</time>
      </trkpt>
      <trkpt lat="43.46502" lon="1.16996">
        <ele>227.8</ele>
        <time>2024-08-01T07:17:35Z</time>
      </trkpt>
      <trkpt lat="43.46495" lon="1.16996">
        <ele>227.8</ele>
        <time>2024-08-01T07:17:36Z</time>
      </trkpt>
      <trkpt lat="43.46488" lon="1.16998">
        <ele>227.6</ele>
        <time>2024-08-01T07:17:37Z</time>
      </trkpt>
      <trkpt lat="43.46481" lon="1.17">
        <ele>227.6</ele>
        <time>2024-08-01T07:17:38Z</time>
      </trkpt>
      <trkpt lat="43.46474" lon="1.17002">
        <ele>227.4</ele>
        <time>2024-08-01T07:17:39Z</time>
      </trkpt>
      <trkpt lat="43.46466" lon="1.17004">
        <ele>227.4</ele>
        <time>2024-08-01T07:17:40Z</time>
      </trkpt>
      <trkpt lat="43.46459" lon="1.17004">
        <ele>227</ele>
        <time>2024-08-01T07:17:41Z</time>
      </trkpt>
      <trkpt lat="43.46451" lon="1.17003">
        <ele>226.6</ele>
        <time>2024-08-01T07:17:42Z</time>
      </trkpt>
      <trkpt lat="43.46443" lon="1.17002">
        <ele>226.4</ele>
        <time>2024-08-01T07:17:43Z</time>
      </trkpt>
      <trkpt lat="43.46436" lon="1.17">
        <ele>226.2</ele>
        <time>2024-08-01T07:17:44Z</time>
      </trkpt>
      <trkpt lat="43.46429" lon="1.16998">
        <ele>226</ele>
        <time>2024-08-01T07:17:45Z</time>
      </trkpt>
      <trkpt lat="43.46423" lon="1.16996">
        <ele>225.6</ele>
        <time>2024-08-01T07:17:46Z</time>
      </trkpt>
      <trkpt lat="43.46417" lon="1.16994">
        <ele>225.6</ele>
        <time>2024-08-01T07:17:47Z</time>
      </trkpt>
      <trkpt lat="43.46411" lon="1.16991">
        <ele>224.8</ele>
        <time>2024-08-01T07:17:48Z</time>
      </trkpt>
      <trkpt lat="43.46406" lon="1.16987">
        <ele>224.4</ele>
        <time>2024-08-01T07:17:49Z</time>
      </trkpt>
      <trkpt lat="43.46401" lon="1.16983">
        <ele>224.2</ele>
        <time>2024-08-01T07:17:50Z</time>
      </trkpt>
      <trkpt lat="43.46398" lon="1.16978">
        <ele>223.6</ele>
        <time>2024-08-01T07:17:51Z</time>
      </trkpt>
      <trkpt lat="43.46396" lon="1.16972">
        <ele>223.6</ele>
        <time>2024-08-01T07:17:52Z</time>
      </trkpt>
      <trkpt lat="43.46395" lon="1.16967">
        <ele>223.4</ele>
        <time>2024-08-01T07:17:53Z</time>
      </trkpt>
      <trkpt lat="43.46395" lon="1.16959">
        <ele>223.2</ele>
        <time>2024-08-01T07:17:54Z</time>
      </trkpt>
      <trkpt lat="43.46395" lon="1.16952">
        <ele>222.8</ele>
        <time>2024-08-01T07:17:55Z</time>
      </trkpt>
      <trkpt lat="43.46395" lon="1.16944">
        <ele>222.6</ele>
        <time>2024-08-01T07:17:56Z</time>
      </trkpt>
      <trkpt lat="43.46395" lon="1.16937">
        <ele>222.6</ele>
        <time>2024-08-01T07:17:57Z</time>
      </trkpt>
      <trkpt lat="43.46394" lon="1.1693">
        <ele>222.4</ele>
        <time>2024-08-01T07:17:58Z</time>
      </trkpt>
      <trkpt lat="43.46393" lon="1.1692">
        <ele>222.2</ele>
        <time>2024-08-01T07:17:59Z</time>
      </trkpt>
      <trkpt lat="43.46392" lon="1.16912">
        <ele>222.2</ele>
        <time>2024-08-01T07:18:00Z</time>
      </trkpt>
      <trkpt lat="43.4639" lon="1.16904">
        <ele>222.2</ele>
        <time>2024-08-01T07:18:01Z</time>
      </trkpt>
      <trkpt lat="43.46389" lon="1.16896">
        <ele>222.2</ele>
        <time>2024-08-01T07:18:02Z</time>
      </trkpt>
      <trkpt lat="43.46387" lon="1.16888">
        <ele>222.2</ele>
        <time>2024-08-01T07:18:03Z</time>
      </trkpt>
      <trkpt lat="43.46386" lon="1.16881">
        <ele>222.2</ele>
        <time>2024-08-01T07:18:04Z</time>
      </trkpt>
      <trkpt lat="43.46385" lon="1.16874">
        <ele>222.2</ele>
        <time>2024-08-01T07:18:05Z</time>
      </trkpt>
      <trkpt lat="43.46383" lon="1.16865">
        <ele>222.4</ele>
        <time>2024-08-01T07:18:06Z</time>
      </trkpt>
      <trkpt lat="43.46381" lon="1.16857">
        <ele>222.4</ele>
        <time>2024-08-01T07:18:07Z</time>
      </trkpt>
      <trkpt lat="43.4638" lon="1.16849">
        <ele>222.4</ele>
        <time>2024-08-01T07:18:08Z</time>
      </trkpt>
      <trkpt lat="43.46379" lon="1.16843">
        <ele>222.4</ele>
        <time>2024-08-01T07:18:09Z</time>
      </trkpt>
      <trkpt lat="43.46377" lon="1.16835">
        <ele>222.6</ele>
        <time>2024-08-01T07:18:10Z</time>
      </trkpt>
      <trkpt lat="43.46375" lon="1.16826">
        <ele>222.6</ele>
        <time>2024-08-01T07:18:11Z</time>
      </trkpt>
      <trkpt lat="43.46374" lon="1.16819">
        <ele>222.6</ele>
        <time>2024-08-01T07:18:12Z</time>
      </trkpt>
      <trkpt lat="43.46372" lon="1.16812">
        <ele>222.6</ele>
        <time>2024-08-01T07:18:13Z</time>
      </trkpt>
      <trkpt lat="43.46372" lon="1.16806">
        <ele>222.8</ele>
        <time>2024-08-01T07:18:14Z</time>
      </trkpt>
      <trkpt lat="43.4637" lon="1.16797">
        <ele>222.8</ele>
        <time>2024-08-01T07:18:15Z</time>
      </trkpt>
      <trkpt lat="43.46369" lon="1.1679">
        <ele>223</ele>
        <time>2024-08-01T07:18:16Z</time>
      </trkpt>
      <trkpt lat="43.46368" lon="1.16783">
        <ele>223.2</ele>
        <time>2024-08-01T07:18:17Z</time>
      </trkpt>
      <trkpt lat="43.46366" lon="1.16775">
        <ele>223.2</ele>
        <time>2024-08-01T07:18:18Z</time>
      </trkpt>
      <trkpt lat="43.46364" lon="1.16767">
        <ele>223.4</ele>
        <time>2024-08-01T07:18:19Z</time>
      </trkpt>
      <trkpt lat="43.46363" lon="1.1676">
        <ele>223.4</ele>
        <time>2024-08-01T07:18:20Z</time>
      </trkpt>
      <trkpt lat="43.46361" lon="1.16753">
        <ele>223.4</ele>
        <time>2024-08-01T07:18:21Z</time>
      </trkpt>
      <trkpt lat="43.4636" lon="1.16745">
        <ele>223.4</ele>
        <time>2024-08-01T07:18:22Z</time>
      </trkpt>
      <trkpt lat="43.46358" lon="1.16737">
        <ele>223.6</ele>
        <time>2024-08-01T07:18:23Z</time>
      </trkpt>
      <trkpt lat="43.46356" lon="1.1673">
        <ele>223.6</ele>
        <time>2024-08-01T07:18:24Z</time>
      </trkpt>
      <trkpt lat="43.46354" lon="1.16722">
        <ele>223.8</ele>
        <time>2024-08-01T07:18:25Z</time>
      </trkpt>
      <trkpt lat="43.46352" lon="1.16713">
        <ele>223.8</ele>
        <time>2024-08-01T07:18:26Z</time>
      </trkpt>
      <trkpt lat="43.46349" lon="1.16705">
        <ele>223.8</ele>
        <time>2024-08-01T07:18:27Z</time>
      </trkpt>
      <trkpt lat="43.46348" lon="1.16697">
        <ele>224</ele>
        <time>2024-08-01T07:18:28Z</time>
      </trkpt>
      <trkpt lat="43.46346" lon="1.16689">
        <ele>224</ele>
        <time>2024-08-01T07:18:29Z</time>
      </trkpt>
      <trkpt lat="43.46344" lon="1.1668">
        <ele>224.2</ele>
        <time>2024-08-01T07:18:30Z</time>
      </trkpt>
      <trkpt lat="43.46342" lon="1.16672">
        <ele>224.2</ele>
        <time>2024-08-01T07:18:31Z</time>
      </trkpt>
      <trkpt lat="43.4634" lon="1.16663">
        <ele>224.2</ele>
        <time>2024-08-01T07:18:32Z</time>
      </trkpt>
      <trkpt lat="43.46339" lon="1.16655">
        <ele>224.2</ele>
        <time>2024-08-01T07:18:33Z</time>
      </trkpt>
      <trkpt lat="43.46339" lon="1.16655">
        <ele>224.2</ele>
        <time>2024-08-01T07:18:34Z</time>
      </trkpt>
      <trkpt lat="43.46335" lon="1.16638">
        <ele>224.2</ele>
        <time>2024-08-01T07:18:35Z</time>
      </trkpt>
      <trkpt lat="43.46334" lon="1.16629">
        <ele>224.2</ele>
        <time>2024-08-01T07:18:36Z</time>
      </trkpt>
      <trkpt lat="43.46332" lon="1.16621">
        <ele>224.2</ele>
        <time>2024-08-01T07:18:37Z</time>
      </trkpt>
      <trkpt lat="43.4633" lon="1.16612">
        <ele>224.2</ele>
        <time>2024-08-01T07:18:38Z</time>
      </trkpt>
      <trkpt lat="43.46329" lon="1.16603">
        <ele>224.2</ele>
        <time>2024-08-01T07:18:39Z</time>
      </trkpt>
      <trkpt lat="43.46328" lon="1.16595">
        <ele>224.2</ele>
        <time>2024-08-01T07:18:40Z</time>
      </trkpt>
      <trkpt lat="43.46326" lon="1.16586">
        <ele>224.2</ele>
        <time>2024-08-01T07:18:41Z</time>
      </trkpt>
      <trkpt lat="43.46325" lon="1.16577">
        <ele>224.4</ele>
        <time>2024-08-01T07:18:42Z</time>
      </trkpt>
      <trkpt lat="43.46323" lon="1.16569">
        <ele>224.4</ele>
        <time>2024-08-01T07:18:43Z</time>
      </trkpt>
      <trkpt lat="43.46322" lon="1.1656">
        <ele>224.4</ele>
        <time>2024-08-01T07:18:44Z</time>
      </trkpt>
      <trkpt lat="43.46322" lon="1.1656">
        <ele>224.4</ele>
        <time>2024-08-01T07:18:45Z</time>
      </trkpt>
      <trkpt lat="43.46319" lon="1.16543">
        <ele>224.4</ele>
        <time>2024-08-01T07:18:46Z</time>
      </trkpt>
      <trkpt lat="43.46319" lon="1.16543">
        <ele>224.6</ele>
        <time>2024-08-01T07:18:47Z</time>
      </trkpt>
      <trkpt lat="43.46317" lon="1.16525">
        <ele>224.6</ele>
        <time>2024-08-01T07:18:48Z</time>
      </trkpt>
      <trkpt lat="43.46315" lon="1.16517">
        <ele>224.6</ele>
        <time>2024-08-01T07:18:49Z</time>
      </trkpt>
      <trkpt lat="43.46314" lon="1.16508">
        <ele>224.8</ele>
        <time>2024-08-01T07:18:50Z</time>
      </trkpt>
      <trkpt lat="43.46313" lon="1.16499">
        <ele>224.8</ele>
        <time>2024-08-01T07:18:51Z</time>
      </trkpt>
      <trkpt lat="43.46312" lon="1.1649">
        <ele>225</ele>
        <time>2024-08-01T07:18:52Z</time>
      </trkpt>
      <trkpt lat="43.46311" lon="1.16482">
        <ele>225</ele>
        <time>2024-08-01T07:18:53Z</time>
      </trkpt>
      <trkpt lat="43.4631" lon="1.16473">
        <ele>225.2</ele>
        <time>2024-08-01T07:18:54Z</time>
      </trkpt>
      <trkpt lat="43.46309" lon="1.16464">
        <ele>225.2</ele>
        <time>2024-08-01T07:18:55Z</time>
      </trkpt>
      <trkpt lat="43.46309" lon="1.16464">
        <ele>225.2</ele>
        <time>2024-08-01T07:18:56Z</time>
      </trkpt>
      <trkpt lat="43.46307" lon="1.16446">
        <ele>225.2</ele>
        <time>2024-08-01T07:18:57Z</time>
      </trkpt>
      <trkpt lat="43.46306" lon="1.16437">
        <ele>225.2</ele>
        <time>2024-08-01T07:18:58Z</time>
      </trkpt>
      <trkpt lat="43.46306" lon="1.16437">
        <ele>225.4</ele>
        <time>2024-08-01T07:18:59Z</time>
      </trkpt>
      <trkpt lat="43.46304" lon="1.16419">
        <ele>225.4</ele>
        <time>2024-08-01T07:19:00Z</time>
      </trkpt>
      <trkpt lat="43.46303" lon="1.1641">
        <ele>225.4</ele>
        <time>2024-08-01T07:19:01Z</time>
      </trkpt>
      <trkpt lat="43.46302" lon="1.16401">
        <ele>225.6</ele>
        <time>2024-08-01T07:19:02Z</time>
      </trkpt>
      <trkpt lat="43.46301" lon="1.16393">
        <ele>225.6</ele>
        <time>2024-08-01T07:19:03Z</time>
      </trkpt>
      <trkpt lat="43.463" lon="1.16382">
        <ele>225.6</ele>
        <time>2024-08-01T07:19:04Z</time>
      </trkpt>
      <trkpt lat="43.46299" lon="1.16374">
        <ele>225.6</ele>
        <time>2024-08-01T07:19:05Z</time>
      </trkpt>
      <trkpt lat="43.46299" lon="1.16365">
        <ele>225.6</ele>
        <time>2024-08-01T07:19:06Z</time>
      </trkpt>
      <trkpt lat="43.46298" lon="1.16356">
        <ele>225.6</ele>
        <time>2024-08-01T07:19:07Z</time>
      </trkpt>
      <trkpt lat="43.46297" lon="1.16349">
        <ele>225.8</ele>
        <time>2024-08-01T07:19:08Z</time>
      </trkpt>
      <trkpt lat="43.46296" lon="1.16341">
        <ele>225.8</ele>
        <time>2024-08-01T07:19:09Z</time>
      </trkpt>
      <trkpt lat="43.46295" lon="1.1633">
        <ele>225.8</ele>
        <time>2024-08-01T07:19:10Z</time>
      </trkpt>
      <trkpt lat="43.46295" lon="1.16321">
        <ele>226</ele>
        <time>2024-08-01T07:19:11Z</time>
      </trkpt>
      <trkpt lat="43.46294" lon="1.16313">
        <ele>226</ele>
        <time>2024-08-01T07:19:12Z</time>
      </trkpt>
      <trkpt lat="43.46294" lon="1.16306">
        <ele>226</ele>
        <time>2024-08-01T07:19:13Z</time>
      </trkpt>
      <trkpt lat="43.46294" lon="1.16297">
        <ele>226.2</ele>
        <time>2024-08-01T07:19:14Z</time>
      </trkpt>
      <trkpt lat="43.46294" lon="1.16288">
        <ele>226.2</ele>
        <time>2024-08-01T07:19:15Z</time>
      </trkpt>
      <trkpt lat="43.46294" lon="1.16277">
        <ele>226.2</ele>
        <time>2024-08-01T07:19:16Z</time>
      </trkpt>
      <trkpt lat="43.46295" lon="1.16269">
        <ele>226.2</ele>
        <time>2024-08-01T07:19:17Z</time>
      </trkpt>
      <trkpt lat="43.46296" lon="1.16262">
        <ele>226.2</ele>
        <time>2024-08-01T07:19:18Z</time>
      </trkpt>
      <trkpt lat="43.46297" lon="1.16254">
        <ele>226.2</ele>
        <time>2024-08-01T07:19:19Z</time>
      </trkpt>
      <trkpt lat="43.46298" lon="1.16245">
        <ele>226.2</ele>
        <time>2024-08-01T07:19:20Z</time>
      </trkpt>
      <trkpt lat="43.463" lon="1.16235">
        <ele>226.2</ele>
        <time>2024-08-01T07:19:21Z</time>
      </trkpt>
      <trkpt lat="43.46302" lon="1.16227">
        <ele>226.2</ele>
        <time>2024-08-01T07:19:22Z</time>
      </trkpt>
      <trkpt lat="43.46304" lon="1.16219">
        <ele>226.2</ele>
        <time>2024-08-01T07:19:23Z</time>
      </trkpt>
      <trkpt lat="43.46305" lon="1.16212">
        <ele>226.2</ele>
        <time>2024-08-01T07:19:24Z</time>
      </trkpt>
      <trkpt lat="43.46307" lon="1.16204">
        <ele>226.4</ele>
        <time>2024-08-01T07:19:25Z</time>
      </trkpt>
      <trkpt lat="43.46309" lon="1.16194">
        <ele>226.4</ele>
        <time>2024-08-01T07:19:26Z</time>
      </trkpt>
      <trkpt lat="43.46311" lon="1.16185">
        <ele>226.4</ele>
        <time>2024-08-01T07:19:27Z</time>
      </trkpt>
      <trkpt lat="43.46313" lon="1.16177">
        <ele>226.6</ele>
        <time>2024-08-01T07:19:28Z</time>
      </trkpt>
      <trkpt lat="43.46314" lon="1.16171">
        <ele>226.6</ele>
        <time>2024-08-01T07:19:29Z</time>
      </trkpt>
      <trkpt lat="43.46316" lon="1.16162">
        <ele>226.6</ele>
        <time>2024-08-01T07:19:30Z</time>
      </trkpt>
      <trkpt lat="43.46318" lon="1.16154">
        <ele>226.6</ele>
        <time>2024-08-01T07:19:31Z</time>
      </trkpt>
      <trkpt lat="43.4632" lon="1.16144">
        <ele>226.6</ele>
        <time>2024-08-01T07:19:32Z</time>
      </trkpt>
      <trkpt lat="43.46322" lon="1.16135">
        <ele>226.6</ele>
        <time>2024-08-01T07:19:33Z</time>
      </trkpt>
      <trkpt lat="43.46324" lon="1.16128">
        <ele>226.6</ele>
        <time>2024-08-01T07:19:34Z</time>
      </trkpt>
      <trkpt lat="43.46325" lon="1.1612">
        <ele>226.8</ele>
        <time>2024-08-01T07:19:35Z</time>
      </trkpt>
      <trkpt lat="43.46327" lon="1.16111">
        <ele>226.8</ele>
        <time>2024-08-01T07:19:36Z</time>
      </trkpt>
      <trkpt lat="43.46329" lon="1.16101">
        <ele>226.8</ele>
        <time>2024-08-01T07:19:37Z</time>
      </trkpt>
      <trkpt lat="43.46331" lon="1.16092">
        <ele>226.8</ele>
        <time>2024-08-01T07:19:38Z</time>
      </trkpt>
      <trkpt lat="43.46333" lon="1.16084">
        <ele>227</ele>
        <time>2024-08-01T07:19:39Z</time>
      </trkpt>
      <trkpt lat="43.46335" lon="1.16077">
        <ele>227</ele>
        <time>2024-08-01T07:19:40Z</time>
      </trkpt>
      <trkpt lat="43.46336" lon="1.16068">
        <ele>227</ele>
        <time>2024-08-01T07:19:41Z</time>
      </trkpt>
      <trkpt lat="43.46339" lon="1.16057">
        <ele>227</ele>
        <time>2024-08-01T07:19:42Z</time>
      </trkpt>
      <trkpt lat="43.4634" lon="1.16048">
        <ele>227</ele>
        <time>2024-08-01T07:19:43Z</time>
      </trkpt>
      <trkpt lat="43.46342" lon="1.16039">
        <ele>227</ele>
        <time>2024-08-01T07:19:44Z</time>
      </trkpt>
      <trkpt lat="43.46343" lon="1.16032">
        <ele>227</ele>
        <time>2024-08-01T07:19:45Z</time>
      </trkpt>
      <trkpt lat="43.46345" lon="1.16023">
        <ele>227.2</ele>
        <time>2024-08-01T07:19:46Z</time>
      </trkpt>
      <trkpt lat="43.46347" lon="1.16012">
        <ele>227.2</ele>
        <time>2024-08-01T07:19:47Z</time>
      </trkpt>
      <trkpt lat="43.46349" lon="1.16003">
        <ele>227.2</ele>
        <time>2024-08-01T07:19:48Z</time>
      </trkpt>
      <trkpt lat="43.4635" lon="1.15994">
        <ele>227.2</ele>
        <time>2024-08-01T07:19:49Z</time>
      </trkpt>
      <trkpt lat="43.46351" lon="1.15986">
        <ele>227.2</ele>
        <time>2024-08-01T07:19:50Z</time>
      </trkpt>
      <trkpt lat="43.46352" lon="1.15977">
        <ele>227.2</ele>
        <time>2024-08-01T07:19:51Z</time>
      </trkpt>
      <trkpt lat="43.46354" lon="1.15966">
        <ele>227.4</ele>
        <time>2024-08-01T07:19:52Z</time>
      </trkpt>
      <trkpt lat="43.46355" lon="1.15957">
        <ele>227.4</ele>
        <time>2024-08-01T07:19:53Z</time>
      </trkpt>
      <trkpt lat="43.46356" lon="1.15948">
        <ele>227.6</ele>
        <time>2024-08-01T07:19:54Z</time>
      </trkpt>
      <trkpt lat="43.46357" lon="1.1594">
        <ele>227.6</ele>
        <time>2024-08-01T07:19:55Z</time>
      </trkpt>
      <trkpt lat="43.46357" lon="1.15931">
        <ele>227.6</ele>
        <time>2024-08-01T07:19:56Z</time>
      </trkpt>
      <trkpt lat="43.46358" lon="1.15921">
        <ele>227.6</ele>
        <time>2024-08-01T07:19:57Z</time>
      </trkpt>
      <trkpt lat="43.46359" lon="1.15912">
        <ele>227.4</ele>
        <time>2024-08-01T07:19:58Z</time>
      </trkpt>
      <trkpt lat="43.46359" lon="1.15905">
        <ele>227.6</ele>
        <time>2024-08-01T07:19:59Z</time>
      </trkpt>
      <trkpt lat="43.4636" lon="1.15896">
        <ele>227.6</ele>
        <time>2024-08-01T07:20:00Z</time>
      </trkpt>
      <trkpt lat="43.4636" lon="1.15886">
        <ele>227.6</ele>
        <time>2024-08-01T07:20:01Z</time>
      </trkpt>
      <trkpt lat="43.4636" lon="1.15875">
        <ele>227.6</ele>
        <time>2024-08-01T07:20:02Z</time>
      </trkpt>
      <trkpt lat="43.4636" lon="1.15865">
        <ele>227.6</ele>
        <time>2024-08-01T07:20:03Z</time>
      </trkpt>
      <trkpt lat="43.4636" lon="1.15858">
        <ele>227.8</ele>
        <time>2024-08-01T07:20:04Z</time>
      </trkpt>
      <trkpt lat="43.4636" lon="1.15848">
        <ele>227.8</ele>
        <time>2024-08-01T07:20:05Z</time>
      </trkpt>
      <trkpt lat="43.4636" lon="1.15837">
        <ele>227.8</ele>
        <time>2024-08-01T07:20:06Z</time>
      </trkpt>
      <trkpt lat="43.4636" lon="1.15828">
        <ele>227.8</ele>
        <time>2024-08-01T07:20:07Z</time>
      </trkpt>
      <trkpt lat="43.4636" lon="1.15818">
        <ele>227.8</ele>
        <time>2024-08-01T07:20:08Z</time>
      </trkpt>
      <trkpt lat="43.4636" lon="1.15811">
        <ele>227.8</ele>
        <time>2024-08-01T07:20:09Z</time>
      </trkpt>
      <trkpt lat="43.4636" lon="1.15801">
        <ele>227.8</ele>
        <time>2024-08-01T07:20:10Z</time>
      </trkpt>
      <trkpt lat="43.46359" lon="1.1579">
        <ele>227.8</ele>
        <time>2024-08-01T07:20:11Z</time>
      </trkpt>
      <trkpt lat="43.46359" lon="1.15781">
        <ele>227.8</ele>
        <time>2024-08-01T07:20:12Z</time>
      </trkpt>
      <trkpt lat="43.46359" lon="1.15771">
        <ele>227.8</ele>
        <time>2024-08-01T07:20:13Z</time>
      </trkpt>
      <trkpt lat="43.46358" lon="1.15762">
        <ele>227.8</ele>
        <time>2024-08-01T07:20:14Z</time>
      </trkpt>
      <trkpt lat="43.46358" lon="1.15755">
        <ele>227.8</ele>
        <time>2024-08-01T07:20:15Z</time>
      </trkpt>
      <trkpt lat="43.46357" lon="1.15744">
        <ele>227.8</ele>
        <time>2024-08-01T07:20:16Z</time>
      </trkpt>
      <trkpt lat="43.46356" lon="1.15735">
        <ele>227.8</ele>
        <time>2024-08-01T07:20:17Z</time>
      </trkpt>
      <trkpt lat="43.46356" lon="1.15727">
        <ele>227.8</ele>
        <time>2024-08-01T07:20:18Z</time>
      </trkpt>
      <trkpt lat="43.46355" lon="1.15718">
        <ele>227.8</ele>
        <time>2024-08-01T07:20:19Z</time>
      </trkpt>
      <trkpt lat="43.46355" lon="1.15709">
        <ele>227.8</ele>
        <time>2024-08-01T07:20:20Z</time>
      </trkpt>
      <trkpt lat="43.46354" lon="1.15697">
        <ele>227.8</ele>
        <time>2024-08-01T07:20:21Z</time>
      </trkpt>
      <trkpt lat="43.46353" lon="1.15688">
        <ele>227.8</ele>
        <time>2024-08-01T07:20:22Z</time>
      </trkpt>
      <trkpt lat="43.46352" lon="1.15681">
        <ele>227.8</ele>
        <time>2024-08-01T07:20:23Z</time>
      </trkpt>
      <trkpt lat="43.4635" lon="1.15671">
        <ele>227.8</ele>
        <time>2024-08-01T07:20:24Z</time>
      </trkpt>
      <trkpt lat="43.46348" lon="1.1566">
        <ele>228</ele>
        <time>2024-08-01T07:20:25Z</time>
      </trkpt>
      <trkpt lat="43.46346" lon="1.15651">
        <ele>228</ele>
        <time>2024-08-01T07:20:26Z</time>
      </trkpt>
      <trkpt lat="43.46344" lon="1.15642">
        <ele>228</ele>
        <time>2024-08-01T07:20:27Z</time>
      </trkpt>
      <trkpt lat="43.46342" lon="1.15635">
        <ele>228</ele>
        <time>2024-08-01T07:20:28Z</time>
      </trkpt>
      <trkpt lat="43.4634" lon="1.15625">
        <ele>228</ele>
        <time>2024-08-01T07:20:29Z</time>
      </trkpt>
      <trkpt lat="43.46338" lon="1.15615">
        <ele>228</ele>
        <time>2024-08-01T07:20:30Z</time>
      </trkpt>
      <trkpt lat="43.46336" lon="1.15605">
        <ele>228.2</ele>
        <time>2024-08-01T07:20:31Z</time>
      </trkpt>
      <trkpt lat="43.46334" lon="1.15597">
        <ele>228.2</ele>
        <time>2024-08-01T07:20:32Z</time>
      </trkpt>
      <trkpt lat="43.46332" lon="1.1559">
        <ele>228.2</ele>
        <time>2024-08-01T07:20:33Z</time>
      </trkpt>
      <trkpt lat="43.4633" lon="1.15581">
        <ele>228.2</ele>
        <time>2024-08-01T07:20:34Z</time>
      </trkpt>
      <trkpt lat="43.46328" lon="1.15571">
        <ele>228.4</ele>
        <time>2024-08-01T07:20:35Z</time>
      </trkpt>
      <trkpt lat="43.46326" lon="1.15562">
        <ele>228.4</ele>
        <time>2024-08-01T07:20:36Z</time>
      </trkpt>
      <trkpt lat="43.46324" lon="1.15554">
        <ele>228.4</ele>
        <time>2024-08-01T07:20:37Z</time>
      </trkpt>
      <trkpt lat="43.46322" lon="1.15546">
        <ele>228.4</ele>
        <time>2024-08-01T07:20:38Z</time>
      </trkpt>
      <trkpt lat="43.4632" lon="1.15539">
        <ele>228.6</ele>
        <time>2024-08-01T07:20:39Z</time>
      </trkpt>
      <trkpt lat="43.46318" lon="1.15528">
        <ele>228.6</ele>
        <time>2024-08-01T07:20:40Z</time>
      </trkpt>
      <trkpt lat="43.46316" lon="1.1552">
        <ele>228.6</ele>
        <time>2024-08-01T07:20:41Z</time>
      </trkpt>
      <trkpt lat="43.46315" lon="1.15513">
        <ele>228.6</ele>
        <time>2024-08-01T07:20:42Z</time>
      </trkpt>
      <trkpt lat="43.46313" lon="1.15504">
        <ele>228.6</ele>
        <time>2024-08-01T07:20:43Z</time>
      </trkpt>
      <trkpt lat="43.46311" lon="1.15495">
        <ele>228.6</ele>
        <time>2024-08-01T07:20:44Z</time>
      </trkpt>
      <trkpt lat="43.46309" lon="1.15485">
        <ele>228.6</ele>
        <time>2024-08-01T07:20:45Z</time>
      </trkpt>
      <trkpt lat="43.46307" lon="1.15476">
        <ele>228.8</ele>
        <time>2024-08-01T07:20:46Z</time>
      </trkpt>
      <trkpt lat="43.46305" lon="1.1547">
        <ele>228.8</ele>
        <time>2024-08-01T07:20:47Z</time>
      </trkpt>
      <trkpt lat="43.46303" lon="1.15461">
        <ele>228.8</ele>
        <time>2024-08-01T07:20:48Z</time>
      </trkpt>
      <trkpt lat="43.46301" lon="1.15452">
        <ele>228.8</ele>
        <time>2024-08-01T07:20:49Z</time>
      </trkpt>
      <trkpt lat="43.46299" lon="1.15442">
        <ele>228.8</ele>
        <time>2024-08-01T07:20:50Z</time>
      </trkpt>
      <trkpt lat="43.46297" lon="1.15433">
        <ele>228.8</ele>
        <time>2024-08-01T07:20:51Z</time>
      </trkpt>
      <trkpt lat="43.46296" lon="1.15426">
        <ele>228.8</ele>
        <time>2024-08-01T07:20:52Z</time>
      </trkpt>
      <trkpt lat="43.46294" lon="1.15417">
        <ele>228.8</ele>
        <time>2024-08-01T07:20:53Z</time>
      </trkpt>
      <trkpt lat="43.46292" lon="1.15407">
        <ele>228.8</ele>
        <time>2024-08-01T07:20:54Z</time>
      </trkpt>
      <trkpt lat="43.4629" lon="1.15398">
        <ele>228.8</ele>
        <time>2024-08-01T07:20:55Z</time>
      </trkpt>
      <trkpt lat="43.46287" lon="1.15389">
        <ele>229</ele>
        <time>2024-08-01T07:20:56Z</time>
      </trkpt>
      <trkpt lat="43.46286" lon="1.15382">
        <ele>229</ele>
        <time>2024-08-01T07:20:57Z</time>
      </trkpt>
      <trkpt lat="43.46284" lon="1.15374">
        <ele>229</ele>
        <time>2024-08-01T07:20:58Z</time>
      </trkpt>
      <trkpt lat="43.46281" lon="1.15363">
        <ele>229</ele>
        <time>2024-08-01T07:20:59Z</time>
      </trkpt>
      <trkpt lat="43.46279" lon="1.15354">
        <ele>229</ele>
        <time>2024-08-01T07:21:00Z</time>
      </trkpt>
      <trkpt lat="43.46276" lon="1.15345">
        <ele>229</ele>
        <time>2024-08-01T07:21:01Z</time>
      </trkpt>
      <trkpt lat="43.46275" lon="1.15338">
        <ele>229</ele>
        <time>2024-08-01T07:21:02Z</time>
      </trkpt>
      <trkpt lat="43.46272" lon="1.15329">
        <ele>229.2</ele>
        <time>2024-08-01T07:21:03Z</time>
      </trkpt>
      <trkpt lat="43.4627" lon="1.15319">
        <ele>229.2</ele>
        <time>2024-08-01T07:21:04Z</time>
      </trkpt>
      <trkpt lat="43.46268" lon="1.15311">
        <ele>229.2</ele>
        <time>2024-08-01T07:21:05Z</time>
      </trkpt>
      <trkpt lat="43.46266" lon="1.15304">
        <ele>229.4</ele>
        <time>2024-08-01T07:21:06Z</time>
      </trkpt>
      <trkpt lat="43.46264" lon="1.15295">
        <ele>229.4</ele>
        <time>2024-08-01T07:21:07Z</time>
      </trkpt>
      <trkpt lat="43.46262" lon="1.15286">
        <ele>229.4</ele>
        <time>2024-08-01T07:21:08Z</time>
      </trkpt>
      <trkpt lat="43.46259" lon="1.15276">
        <ele>229.6</ele>
        <time>2024-08-01T07:21:09Z</time>
      </trkpt>
      <trkpt lat="43.46258" lon="1.15268">
        <ele>229.6</ele>
        <time>2024-08-01T07:21:10Z</time>
      </trkpt>
      <trkpt lat="43.46256" lon="1.15261">
        <ele>229.6</ele>
        <time>2024-08-01T07:21:11Z</time>
      </trkpt>
      <trkpt lat="43.46254" lon="1.15253">
        <ele>229.6</ele>
        <time>2024-08-01T07:21:12Z</time>
      </trkpt>
      <trkpt lat="43.46251" lon="1.15243">
        <ele>229.6</ele>
        <time>2024-08-01T07:21:13Z</time>
      </trkpt>
      <trkpt lat="43.4625" lon="1.15235">
        <ele>229.6</ele>
        <time>2024-08-01T07:21:14Z</time>
      </trkpt>
      <trkpt lat="43.46247" lon="1.15227">
        <ele>229.6</ele>
        <time>2024-08-01T07:21:15Z</time>
      </trkpt>
      <trkpt lat="43.46245" lon="1.15219">
        <ele>229.6</ele>
        <time>2024-08-01T07:21:16Z</time>
      </trkpt>
      <trkpt lat="43.46243" lon="1.15213">
        <ele>229.6</ele>
        <time>2024-08-01T07:21:17Z</time>
      </trkpt>
      <trkpt lat="43.46241" lon="1.15203">
        <ele>229.6</ele>
        <time>2024-08-01T07:21:18Z</time>
      </trkpt>
      <trkpt lat="43.46239" lon="1.15195">
        <ele>229.6</ele>
        <time>2024-08-01T07:21:19Z</time>
      </trkpt>
      <trkpt lat="43.46237" lon="1.15186">
        <ele>229.8</ele>
        <time>2024-08-01T07:21:20Z</time>
      </trkpt>
      <trkpt lat="43.46235" lon="1.15178">
        <ele>229.8</ele>
        <time>2024-08-01T07:21:21Z</time>
      </trkpt>
      <trkpt lat="43.46233" lon="1.1517">
        <ele>229.8</ele>
        <time>2024-08-01T07:21:22Z</time>
      </trkpt>
      <trkpt lat="43.46231" lon="1.15162">
        <ele>229.8</ele>
        <time>2024-08-01T07:21:23Z</time>
      </trkpt>
      <trkpt lat="43.46229" lon="1.15154">
        <ele>229.8</ele>
        <time>2024-08-01T07:21:24Z</time>
      </trkpt>
      <trkpt lat="43.46227" lon="1.15146">
        <ele>229.8</ele>
        <time>2024-08-01T07:21:25Z</time>
      </trkpt>
      <trkpt lat="43.46225" lon="1.15139">
        <ele>229.8</ele>
        <time>2024-08-01T07:21:26Z</time>
      </trkpt>
      <trkpt lat="43.46223" lon="1.15131">
        <ele>229.8</ele>
        <time>2024-08-01T07:21:27Z</time>
      </trkpt>
      <trkpt lat="43.46221" lon="1.15123">
        <ele>230</ele>
        <time>2024-08-01T07:21:28Z</time>
      </trkpt>
      <trkpt lat="43.46219" lon="1.15114">
        <ele>230</ele>
        <time>2024-08-01T07:21:29Z</time>
      </trkpt>
      <trkpt lat="43.46216" lon="1.15106">
        <ele>230</ele>
        <time>2024-08-01T07:21:30Z</time>
      </trkpt>
      <trkpt lat="43.46215" lon="1.151">
        <ele>230</ele>
        <time>2024-08-01T07:21:31Z</time>
      </trkpt>
      <trkpt lat="43.46212" lon="1.1509">
        <ele>230</ele>
        <time>2024-08-01T07:21:32Z</time>
      </trkpt>
      <trkpt lat="43.46209" lon="1.15082">
        <ele>230</ele>
        <time>2024-08-01T07:21:33Z</time>
      </trkpt>
      <trkpt lat="43.46207" lon="1.15074">
        <ele>230.2</ele>
        <time>2024-08-01T07:21:34Z</time>
      </trkpt>
      <trkpt lat="43.46204" lon="1.15066">
        <ele>230.2</ele>
        <time>2024-08-01T07:21:35Z</time>
      </trkpt>
      <trkpt lat="43.46202" lon="1.15059">
        <ele>230.2</ele>
        <time>2024-08-01T07:21:36Z</time>
      </trkpt>
      <trkpt lat="43.46199" lon="1.15051">
        <ele>230.2</ele>
        <time>2024-08-01T07:21:37Z</time>
      </trkpt>
      <trkpt lat="43.46196" lon="1.15044">
        <ele>230.2</ele>
        <time>2024-08-01T07:21:38Z</time>
      </trkpt>
      <trkpt lat="43.46193" lon="1.15037">
        <ele>230.2</ele>
        <time>2024-08-01T07:21:39Z</time>
      </trkpt>
      <trkpt lat="43.46189" lon="1.1503">
        <ele>230.4</ele>
        <time>2024-08-01T07:21:40Z</time>
      </trkpt>
      <trkpt lat="43.46186" lon="1.15023">
        <ele>230.4</ele>
        <time>2024-08-01T07:21:41Z</time>
      </trkpt>
      <trkpt lat="43.46182" lon="1.15016">
        <ele>230.4</ele>
        <time>2024-08-01T07:21:42Z</time>
      </trkpt>
      <trkpt lat="43.46178" lon="1.1501">
        <ele>230.4</ele>
        <time>2024-08-01T07:21:43Z</time>
      </trkpt>
      <trkpt lat="43.46174" lon="1.15003">
        <ele>230.4</ele>
        <time>2024-08-01T07:21:44Z</time>
      </trkpt>
      <trkpt lat="43.4617" lon="1.14996">
        <ele>230.4</ele>
        <time>2024-08-01T07:21:45Z</time>
      </trkpt>
      <trkpt lat="43.46166" lon="1.14989">
        <ele>230.4</ele>
        <time>2024-08-01T07:21:46Z</time>
      </trkpt>
      <trkpt lat="43.46162" lon="1.14982">
        <ele>230.6</ele>
        <time>2024-08-01T07:21:47Z</time>
      </trkpt>
      <trkpt lat="43.46159" lon="1.14975">
        <ele>230.6</ele>
        <time>2024-08-01T07:21:48Z</time>
      </trkpt>
      <trkpt lat="43.46155" lon="1.14968">
        <ele>230.6</ele>
        <time>2024-08-01T07:21:49Z</time>
      </trkpt>
      <trkpt lat="43.46151" lon="1.14963">
        <ele>230.6</ele>
        <time>2024-08-01T07:21:50Z</time>
      </trkpt>
      <trkpt lat="43.46147" lon="1.14954">
        <ele>230.6</ele>
        <time>2024-08-01T07:21:51Z</time>
      </trkpt>
      <trkpt lat="43.46143" lon="1.14948">
        <ele>230.6</ele>
        <time>2024-08-01T07:21:52Z</time>
      </trkpt>
      <trkpt lat="43.46139" lon="1.14941">
        <ele>230.6</ele>
        <time>2024-08-01T07:21:53Z</time>
      </trkpt>
      <trkpt lat="43.46135" lon="1.14934">
        <ele>230.6</ele>
        <time>2024-08-01T07:21:54Z</time>
      </trkpt>
      <trkpt lat="43.46131" lon="1.14926">
        <ele>230.6</ele>
        <time>2024-08-01T07:21:55Z</time>
      </trkpt>
      <trkpt lat="43.46128" lon="1.14919">
        <ele>230.6</ele>
        <time>2024-08-01T07:21:56Z</time>
      </trkpt>
      <trkpt lat="43.46125" lon="1.14912">
        <ele>230.8</ele>
        <time>2024-08-01T07:21:57Z</time>
      </trkpt>
      <trkpt lat="43.46122" lon="1.14904">
        <ele>230.8</ele>
        <time>2024-08-01T07:21:58Z</time>
      </trkpt>
      <trkpt lat="43.4612" lon="1.14896">
        <ele>230.8</ele>
        <time>2024-08-01T07:21:59Z</time>
      </trkpt>
      <trkpt lat="43.46119" lon="1.14888">
        <ele>230.8</ele>
        <time>2024-08-01T07:22:00Z</time>
      </trkpt>
      <trkpt lat="43.46117" lon="1.14879">
        <ele>231</ele>
        <time>2024-08-01T07:22:01Z</time>
      </trkpt>
      <trkpt lat="43.46116" lon="1.1487">
        <ele>231</ele>
        <time>2024-08-01T07:22:02Z</time>
      </trkpt>
      <trkpt lat="43.46116" lon="1.14862">
        <ele>231</ele>
        <time>2024-08-01T07:22:03Z</time>
      </trkpt>
      <trkpt lat="43.46115" lon="1.14853">
        <ele>231.2</ele>
        <time>2024-08-01T07:22:04Z</time>
      </trkpt>
      <trkpt lat="43.46115" lon="1.14844">
        <ele>231.2</ele>
        <time>2024-08-01T07:22:05Z</time>
      </trkpt>
      <trkpt lat="43.46115" lon="1.14836">
        <ele>231.2</ele>
        <time>2024-08-01T07:22:06Z</time>
      </trkpt>
      <trkpt lat="43.46115" lon="1.14827">
        <ele>231.2</ele>
        <time>2024-08-01T07:22:07Z</time>
      </trkpt>
      <trkpt lat="43.46115" lon="1.1482">
        <ele>231.4</ele>
        <time>2024-08-01T07:22:08Z</time>
      </trkpt>
      <trkpt lat="43.46115" lon="1.14809">
        <ele>231.4</ele>
        <time>2024-08-01T07:22:09Z</time>
      </trkpt>
      <trkpt lat="43.46115" lon="1.148">
        <ele>231.4</ele>
        <time>2024-08-01T07:22:10Z</time>
      </trkpt>
      <trkpt lat="43.46115" lon="1.14791">
        <ele>231.4</ele>
        <time>2024-08-01T07:22:11Z</time>
      </trkpt>
      <trkpt lat="43.46115" lon="1.14782">
        <ele>231.4</ele>
        <time>2024-08-01T07:22:12Z</time>
      </trkpt>
      <trkpt lat="43.46115" lon="1.14774">
        <ele>231.4</ele>
        <time>2024-08-01T07:22:13Z</time>
      </trkpt>
      <trkpt lat="43.46115" lon="1.14765">
        <ele>231.4</ele>
        <time>2024-08-01T07:22:14Z</time>
      </trkpt>
      <trkpt lat="43.46115" lon="1.14756">
        <ele>231.4</ele>
        <time>2024-08-01T07:22:15Z</time>
      </trkpt>
      <trkpt lat="43.46115" lon="1.14746">
        <ele>231.4</ele>
        <time>2024-08-01T07:22:16Z</time>
      </trkpt>
      <trkpt lat="43.46116" lon="1.14738">
        <ele>231.4</ele>
        <time>2024-08-01T07:22:17Z</time>
      </trkpt>
      <trkpt lat="43.46116" lon="1.14729">
        <ele>231.4</ele>
        <time>2024-08-01T07:22:18Z</time>
      </trkpt>
      <trkpt lat="43.46116" lon="1.1472">
        <ele>231.4</ele>
        <time>2024-08-01T07:22:19Z</time>
      </trkpt>
      <trkpt lat="43.46116" lon="1.14711">
        <ele>231.4</ele>
        <time>2024-08-01T07:22:20Z</time>
      </trkpt>
      <trkpt lat="43.46117" lon="1.14703">
        <ele>231.4</ele>
        <time>2024-08-01T07:22:21Z</time>
      </trkpt>
      <trkpt lat="43.46117" lon="1.14694">
        <ele>231.4</ele>
        <time>2024-08-01T07:22:22Z</time>
      </trkpt>
      <trkpt lat="43.46117" lon="1.14686">
        <ele>231.4</ele>
        <time>2024-08-01T07:22:23Z</time>
      </trkpt>
      <trkpt lat="43.46116" lon="1.14677">
        <ele>231.6</ele>
        <time>2024-08-01T07:22:24Z</time>
      </trkpt>
      <trkpt lat="43.46116" lon="1.14668">
        <ele>231.8</ele>
        <time>2024-08-01T07:22:25Z</time>
      </trkpt>
      <trkpt lat="43.46115" lon="1.14659">
        <ele>231.8</ele>
        <time>2024-08-01T07:22:26Z</time>
      </trkpt>
      <trkpt lat="43.46114" lon="1.14651">
        <ele>231.8</ele>
        <time>2024-08-01T07:22:27Z</time>
      </trkpt>
      <trkpt lat="43.46112" lon="1.14642">
        <ele>231.8</ele>
        <time>2024-08-01T07:22:28Z</time>
      </trkpt>
      <trkpt lat="43.4611" lon="1.14634">
        <ele>232</ele>
        <time>2024-08-01T07:22:29Z</time>
      </trkpt>
      <trkpt lat="43.46109" lon="1.14625">
        <ele>232</ele>
        <time>2024-08-01T07:22:30Z</time>
      </trkpt>
      <trkpt lat="43.46107" lon="1.14616">
        <ele>232</ele>
        <time>2024-08-01T07:22:31Z</time>
      </trkpt>
      <trkpt lat="43.46105" lon="1.14608">
        <ele>232</ele>
        <time>2024-08-01T07:22:32Z</time>
      </trkpt>
      <trkpt lat="43.46103" lon="1.14601">
        <ele>232.2</ele>
        <time>2024-08-01T07:22:33Z</time>
      </trkpt>
      <trkpt lat="43.46101" lon="1.14591">
        <ele>232.2</ele>
        <time>2024-08-01T07:22:34Z</time>
      </trkpt>
      <trkpt lat="43.461" lon="1.14582">
        <ele>232.2</ele>
        <time>2024-08-01T07:22:35Z</time>
      </trkpt>
      <trkpt lat="43.46099" lon="1.14573">
        <ele>232.4</ele>
        <time>2024-08-01T07:22:36Z</time>
      </trkpt>
      <trkpt lat="43.46098" lon="1.14565">
        <ele>232.4</ele>
        <time>2024-08-01T07:22:37Z</time>
      </trkpt>
      <trkpt lat="43.46096" lon="1.14556">
        <ele>232.6</ele>
        <time>2024-08-01T07:22:38Z</time>
      </trkpt>
      <trkpt lat="43.46095" lon="1.14547">
        <ele>232.6</ele>
        <time>2024-08-01T07:22:39Z</time>
      </trkpt>
      <trkpt lat="43.46094" lon="1.14538">
        <ele>232.6</ele>
        <time>2024-08-01T07:22:40Z</time>
      </trkpt>
      <trkpt lat="43.46093" lon="1.14531">
        <ele>232.6</ele>
        <time>2024-08-01T07:22:41Z</time>
      </trkpt>
      <trkpt lat="43.46092" lon="1.14521">
        <ele>232.6</ele>
        <time>2024-08-01T07:22:42Z</time>
      </trkpt>
      <trkpt lat="43.4609" lon="1.14512">
        <ele>232.6</ele>
        <time>2024-08-01T07:22:43Z</time>
      </trkpt>
      <trkpt lat="43.46089" lon="1.14504">
        <ele>232.6</ele>
        <time>2024-08-01T07:22:44Z</time>
      </trkpt>
      <trkpt lat="43.46088" lon="1.14495">
        <ele>232.8</ele>
        <time>2024-08-01T07:22:45Z</time>
      </trkpt>
      <trkpt lat="43.46087" lon="1.14487">
        <ele>232.8</ele>
        <time>2024-08-01T07:22:46Z</time>
      </trkpt>
      <trkpt lat="43.46086" lon="1.1448">
        <ele>233</ele>
        <time>2024-08-01T07:22:47Z</time>
      </trkpt>
      <trkpt lat="43.46085" lon="1.1447">
        <ele>233</ele>
        <time>2024-08-01T07:22:48Z</time>
      </trkpt>
      <trkpt lat="43.46084" lon="1.14462">
        <ele>233</ele>
        <time>2024-08-01T07:22:49Z</time>
      </trkpt>
      <trkpt lat="43.46083" lon="1.14454">
        <ele>233.2</ele>
        <time>2024-08-01T07:22:50Z</time>
      </trkpt>
      <trkpt lat="43.46082" lon="1.14445">
        <ele>233.2</ele>
        <time>2024-08-01T07:22:51Z</time>
      </trkpt>
      <trkpt lat="43.46082" lon="1.14437">
        <ele>233.4</ele>
        <time>2024-08-01T07:22:52Z</time>
      </trkpt>
      <trkpt lat="43.46081" lon="1.14429">
        <ele>233.4</ele>
        <time>2024-08-01T07:22:53Z</time>
      </trkpt>
      <trkpt lat="43.4608" lon="1.14421">
        <ele>233.4</ele>
        <time>2024-08-01T07:22:54Z</time>
      </trkpt>
      <trkpt lat="43.4608" lon="1.14416">
        <ele>233.4</ele>
        <time>2024-08-01T07:22:55Z</time>
      </trkpt>
      <trkpt lat="43.46078" lon="1.14407">
        <ele>233.6</ele>
        <time>2024-08-01T07:22:56Z</time>
      </trkpt>
      <trkpt lat="43.46078" lon="1.144">
        <ele>233.6</ele>
        <time>2024-08-01T07:22:57Z</time>
      </trkpt>
      <trkpt lat="43.46077" lon="1.14393">
        <ele>233.6</ele>
        <time>2024-08-01T07:22:58Z</time>
      </trkpt>
      <trkpt lat="43.46077" lon="1.14387">
        <ele>233.6</ele>
        <time>2024-08-01T07:22:59Z</time>
      </trkpt>
      <trkpt lat="43.46076" lon="1.14379">
        <ele>233.6</ele>
        <time>2024-08-01T07:23:00Z</time>
      </trkpt>
      <trkpt lat="43.46075" lon="1.14372">
        <ele>233.6</ele>
        <time>2024-08-01T07:23:01Z</time>
      </trkpt>
      <trkpt lat="43.46075" lon="1.14365">
        <ele>233.8</ele>
        <time>2024-08-01T07:23:02Z</time>
      </trkpt>
      <trkpt lat="43.46074" lon="1.14358">
        <ele>233.8</ele>
        <time>2024-08-01T07:23:03Z</time>
      </trkpt>
      <trkpt lat="43.46074" lon="1.14352">
        <ele>234</ele>
        <time>2024-08-01T07:23:04Z</time>
      </trkpt>
      <trkpt lat="43.46074" lon="1.14346">
        <ele>234</ele>
        <time>2024-08-01T07:23:05Z</time>
      </trkpt>
      <trkpt lat="43.46073" lon="1.1434">
        <ele>234</ele>
        <time>2024-08-01T07:23:06Z</time>
      </trkpt>
      <trkpt lat="43.46073" lon="1.14334">
        <ele>234.2</ele>
        <time>2024-08-01T07:23:07Z</time>
      </trkpt>
      <trkpt lat="43.46072" lon="1.14329">
        <ele>234.2</ele>
        <time>2024-08-01T07:23:08Z</time>
      </trkpt>
      <trkpt lat="43.46072" lon="1.14324">
        <ele>234.2</ele>
        <time>2024-08-01T07:23:09Z</time>
      </trkpt>
      <trkpt lat="43.46072" lon="1.1432">
        <ele>234.4</ele>
        <time>2024-08-01T07:23:10Z</time>
      </trkpt>
      <trkpt lat="43.46072" lon="1.14317">
        <ele>234.4</ele>
        <time>2024-08-01T07:23:11Z</time>
      </trkpt>
      <trkpt lat="43.46072" lon="1.14314">
        <ele>234.4</ele>
        <time>2024-08-01T07:23:12Z</time>
      </trkpt>
      <trkpt lat="43.46072" lon="1.14312">
        <ele>234.4</ele>
        <time>2024-08-01T07:23:13Z</time>
      </trkpt>
      <trkpt lat="43.46072" lon="1.14311">
        <ele>234.4</ele>
        <time>2024-08-01T07:23:14Z</time>
      </trkpt>
      <trkpt lat="43.46072" lon="1.1431">
        <ele>234.4</ele>
        <time>2024-08-01T07:23:15Z</time>
      </trkpt>
      <trkpt lat="43.46073" lon="1.1431">
        <ele>234.4</ele>
        <time>2024-08-01T07:23:16Z</time>
      </trkpt>
      <trkpt lat="43.46073" lon="1.1431">
        <ele>234.4</ele>
        <time>2024-08-01T07:23:17Z</time>
      </trkpt>
      <trkpt lat="43.46073" lon="1.1431">
        <ele>234.4</ele>
        <time>2024-08-01T07:23:18Z</time>
      </trkpt>
      <trkpt lat="43.46073" lon="1.1431">
        <ele>234.4</ele>
        <time>2024-08-01T07:23:19Z</time>
      </trkpt>
      <trkpt lat="43.46073" lon="1.14306">
        <ele>234.6</ele>
        <time>2024-08-01T07:23:36Z</time>
      </trkpt>
      <trkpt lat="43.46073" lon="1.14302">
        <ele>234.6</ele>
        <time>2024-08-01T07:23:37Z</time>
      </trkpt>
      <trkpt lat="43.46073" lon="1.14298">
        <ele>234.8</ele>
        <time>2024-08-01T07:23:38Z</time>
      </trkpt>
      <trkpt lat="43.46073" lon="1.14293">
        <ele>234.8</ele>
        <time>2024-08-01T07:23:39Z</time>
      </trkpt>
      <trkpt lat="43.46073" lon="1.14287">
        <ele>234.8</ele>
        <time>2024-08-01T07:23:40Z</time>
      </trkpt>
      <trkpt lat="43.46073" lon="1.14281">
        <ele>234.8</ele>
        <time>2024-08-01T07:23:41Z</time>
      </trkpt>
      <trkpt lat="43.46073" lon="1.14275">
        <ele>234.8</ele>
        <time>2024-08-01T07:23:42Z</time>
      </trkpt>
      <trkpt lat="43.46073" lon="1.14269">
        <ele>234.8</ele>
        <time>2024-08-01T07:23:43Z</time>
      </trkpt>
      <trkpt lat="43.46073" lon="1.14265">
        <ele>234.8</ele>
        <time>2024-08-01T07:23:44Z</time>
      </trkpt>
      <trkpt lat="43.46072" lon="1.14258">
        <ele>234.8</ele>
        <time>2024-08-01T07:23:45Z</time>
      </trkpt>
      <trkpt lat="43.46072" lon="1.14253">
        <ele>235</ele>
        <time>2024-08-01T07:23:46Z</time>
      </trkpt>
      <trkpt lat="43.46072" lon="1.14247">
        <ele>235</ele>
        <time>2024-08-01T07:23:47Z</time>
      </trkpt>
      <trkpt lat="43.46071" lon="1.1424">
        <ele>235</ele>
        <time>2024-08-01T07:23:48Z</time>
      </trkpt>
      <trkpt lat="43.46071" lon="1.14234">
        <ele>235</ele>
        <time>2024-08-01T07:23:49Z</time>
      </trkpt>
      <trkpt lat="43.4607" lon="1.14225">
        <ele>235</ele>
        <time>2024-08-01T07:23:50Z</time>
      </trkpt>
      <trkpt lat="43.46069" lon="1.14218">
        <ele>235.2</ele>
        <time>2024-08-01T07:23:51Z</time>
      </trkpt>
      <trkpt lat="43.46068" lon="1.14211">
        <ele>235.2</ele>
        <time>2024-08-01T07:23:52Z</time>
      </trkpt>
      <trkpt lat="43.46067" lon="1.14204">
        <ele>235.2</ele>
        <time>2024-08-01T07:23:53Z</time>
      </trkpt>
      <trkpt lat="43.46066" lon="1.14197">
        <ele>235.4</ele>
        <time>2024-08-01T07:23:54Z</time>
      </trkpt>
      <trkpt lat="43.46064" lon="1.1419">
        <ele>235.4</ele>
        <time>2024-08-01T07:23:55Z</time>
      </trkpt>
      <trkpt lat="43.46063" lon="1.14183">
        <ele>235.6</ele>
        <time>2024-08-01T07:23:56Z</time>
      </trkpt>
      <trkpt lat="43.46062" lon="1.14178">
        <ele>235.6</ele>
        <time>2024-08-01T07:23:57Z</time>
      </trkpt>
      <trkpt lat="43.4606" lon="1.14171">
        <ele>235.6</ele>
        <time>2024-08-01T07:23:58Z</time>
      </trkpt>
      <trkpt lat="43.46058" lon="1.14163">
        <ele>235.6</ele>
        <time>2024-08-01T07:23:59Z</time>
      </trkpt>
      <trkpt lat="43.46057" lon="1.14155">
        <ele>235.6</ele>
        <time>2024-08-01T07:24:00Z</time>
      </trkpt>
      <trkpt lat="43.46055" lon="1.14148">
        <ele>235.6</ele>
        <time>2024-08-01T07:24:01Z</time>
      </trkpt>
      <trkpt lat="43.46054" lon="1.14141">
        <ele>235.6</ele>
        <time>2024-08-01T07:24:02Z</time>
      </trkpt>
      <trkpt lat="43.46053" lon="1.14136">
        <ele>235.6</ele>
        <time>2024-08-01T07:24:03Z</time>
      </trkpt>
      <trkpt lat="43.46051" lon="1.14127">
        <ele>235.6</ele>
        <time>2024-08-01T07:24:04Z</time>
      </trkpt>
      <trkpt lat="43.4605" lon="1.1412">
        <ele>235.6</ele>
        <time>2024-08-01T07:24:05Z</time>
      </trkpt>
      <trkpt lat="43.46048" lon="1.14113">
        <ele>235.6</ele>
        <time>2024-08-01T07:24:06Z</time>
      </trkpt>
      <trkpt lat="43.46047" lon="1.14106">
        <ele>235.8</ele>
        <time>2024-08-01T07:24:07Z</time>
      </trkpt>
      <trkpt lat="43.46046" lon="1.14099">
        <ele>235.8</ele>
        <time>2024-08-01T07:24:08Z</time>
      </trkpt>
      <trkpt lat="43.46044" lon="1.14092">
        <ele>235.8</ele>
        <time>2024-08-01T07:24:09Z</time>
      </trkpt>
      <trkpt lat="43.46043" lon="1.14085">
        <ele>236</ele>
        <time>2024-08-01T07:24:10Z</time>
      </trkpt>
      <trkpt lat="43.46041" lon="1.14079">
        <ele>236</ele>
        <time>2024-08-01T07:24:11Z</time>
      </trkpt>
      <trkpt lat="43.4604" lon="1.1407">
        <ele>236.2</ele>
        <time>2024-08-01T07:24:12Z</time>
      </trkpt>
      <trkpt lat="43.46039" lon="1.14062">
        <ele>236.2</ele>
        <time>2024-08-01T07:24:13Z</time>
      </trkpt>
      <trkpt lat="43.46037" lon="1.14054">
        <ele>236.2</ele>
        <time>2024-08-01T07:24:14Z</time>
      </trkpt>
      <trkpt lat="43.46036" lon="1.14046">
        <ele>236.2</ele>
        <time>2024-08-01T07:24:15Z</time>
      </trkpt>
      <trkpt lat="43.46036" lon="1.1404">
        <ele>236.2</ele>
        <time>2024-08-01T07:24:16Z</time>
      </trkpt>
      <trkpt lat="43.46036" lon="1.14032">
        <ele>236.2</ele>
        <time>2024-08-01T07:24:17Z</time>
      </trkpt>
      <trkpt lat="43.46036" lon="1.14024">
        <ele>236.2</ele>
        <time>2024-08-01T07:24:18Z</time>
      </trkpt>
      <trkpt lat="43.46036" lon="1.14016">
        <ele>236.2</ele>
        <time>2024-08-01T07:24:19Z</time>
      </trkpt>
      <trkpt lat="43.46036" lon="1.14006">
        <ele>236.2</ele>
        <time>2024-08-01T07:24:20Z</time>
      </trkpt>
      <trkpt lat="43.46036" lon="1.13997">
        <ele>236.2</ele>
        <time>2024-08-01T07:24:21Z</time>
      </trkpt>
      <trkpt lat="43.46036" lon="1.1399">
        <ele>235.8</ele>
        <time>2024-08-01T07:24:22Z</time>
      </trkpt>
      <trkpt lat="43.46037" lon="1.13978">
        <ele>235.8</ele>
        <time>2024-08-01T07:24:23Z</time>
      </trkpt>
      <trkpt lat="43.46038" lon="1.13967">
        <ele>235.4</ele>
        <time>2024-08-01T07:24:24Z</time>
      </trkpt>
      <trkpt lat="43.46039" lon="1.13955">
        <ele>235.2</ele>
        <time>2024-08-01T07:24:25Z</time>
      </trkpt>
      <trkpt lat="43.46041" lon="1.13943">
        <ele>234.4</ele>
        <time>2024-08-01T07:24:26Z</time>
      </trkpt>
      <trkpt lat="43.46042" lon="1.13931">
        <ele>234</ele>
        <time>2024-08-01T07:24:27Z</time>
      </trkpt>
      <trkpt lat="43.46043" lon="1.13919">
        <ele>233.4</ele>
        <time>2024-08-01T07:24:28Z</time>
      </trkpt>
      <trkpt lat="43.46044" lon="1.13907">
        <ele>232.8</ele>
        <time>2024-08-01T07:24:29Z</time>
      </trkpt>
      <trkpt lat="43.46046" lon="1.13895">
        <ele>232.4</ele>
        <time>2024-08-01T07:24:30Z</time>
      </trkpt>
      <trkpt lat="43.46047" lon="1.13886">
        <ele>232</ele>
        <time>2024-08-01T07:24:31Z</time>
      </trkpt>
      <trkpt lat="43.46048" lon="1.13873">
        <ele>231.8</ele>
        <time>2024-08-01T07:24:32Z</time>
      </trkpt>
      <trkpt lat="43.46049" lon="1.13862">
        <ele>231.4</ele>
        <time>2024-08-01T07:24:33Z</time>
      </trkpt>
      <trkpt lat="43.4605" lon="1.1385">
        <ele>231.2</ele>
        <time>2024-08-01T07:24:34Z</time>
      </trkpt>
      <trkpt lat="43.46052" lon="1.13838">
        <ele>231</ele>
        <time>2024-08-01T07:24:35Z</time>
      </trkpt>
      <trkpt lat="43.46053" lon="1.13829">
        <ele>230.8</ele>
        <time>2024-08-01T07:24:36Z</time>
      </trkpt>
      <trkpt lat="43.46055" lon="1.13816">
        <ele>230.6</ele>
        <time>2024-08-01T07:24:37Z</time>
      </trkpt>
      <trkpt lat="43.46057" lon="1.13805">
        <ele>230.2</ele>
        <time>2024-08-01T07:24:38Z</time>
      </trkpt>
      <trkpt lat="43.46058" lon="1.13797">
        <ele>230</ele>
        <time>2024-08-01T07:24:39Z</time>
      </trkpt>
      <trkpt lat="43.4606" lon="1.13786">
        <ele>229.6</ele>
        <time>2024-08-01T07:24:40Z</time>
      </trkpt>
      <trkpt lat="43.46063" lon="1.13776">
        <ele>229.6</ele>
        <time>2024-08-01T07:24:41Z</time>
      </trkpt>
      <trkpt lat="43.46064" lon="1.13766">
        <ele>229.4</ele>
        <time>2024-08-01T07:24:42Z</time>
      </trkpt>
      <trkpt lat="43.46066" lon="1.13756">
        <ele>229.4</ele>
        <time>2024-08-01T07:24:43Z</time>
      </trkpt>
      <trkpt lat="43.46068" lon="1.13746">
        <ele>229.4</ele>
        <time>2024-08-01T07:24:44Z</time>
      </trkpt>
      <trkpt lat="43.4607" lon="1.13736">
        <ele>229.4</ele>
        <time>2024-08-01T07:24:45Z</time>
      </trkpt>
      <trkpt lat="43.46072" lon="1.13726">
        <ele>229.4</ele>
        <time>2024-08-01T07:24:46Z</time>
      </trkpt>
      <trkpt lat="43.46074" lon="1.13717">
        <ele>229.4</ele>
        <time>2024-08-01T07:24:47Z</time>
      </trkpt>
      <trkpt lat="43.46076" lon="1.13708">
        <ele>229.4</ele>
        <time>2024-08-01T07:24:48Z</time>
      </trkpt>
      <trkpt lat="43.46079" lon="1.13697">
        <ele>229.6</ele>
        <time>2024-08-01T07:24:49Z</time>
      </trkpt>
      <trkpt lat="43.46081" lon="1.13688">
        <ele>229.6</ele>
        <time>2024-08-01T07:24:50Z</time>
      </trkpt>
      <trkpt lat="43.46083" lon="1.13679">
        <ele>229.6</ele>
        <time>2024-08-01T07:24:51Z</time>
      </trkpt>
      <trkpt lat="43.46086" lon="1.13671">
        <ele>229.8</ele>
        <time>2024-08-01T07:24:52Z</time>
      </trkpt>
      <trkpt lat="43.46088" lon="1.13662">
        <ele>229.8</ele>
        <time>2024-08-01T07:24:53Z</time>
      </trkpt>
      <trkpt lat="43.46091" lon="1.13654">
        <ele>230</ele>
        <time>2024-08-01T07:24:54Z</time>
      </trkpt>
      <trkpt lat="43.46093" lon="1.13647">
        <ele>230</ele>
        <time>2024-08-01T07:24:55Z</time>
      </trkpt>
      <trkpt lat="43.46096" lon="1.13638">
        <ele>230</ele>
        <time>2024-08-01T07:24:56Z</time>
      </trkpt>
      <trkpt lat="43.46098" lon="1.13628">
        <ele>230</ele>
        <time>2024-08-01T07:24:57Z</time>
      </trkpt>
      <trkpt lat="43.461" lon="1.13619">
        <ele>230.2</ele>
        <time>2024-08-01T07:24:58Z</time>
      </trkpt>
      <trkpt lat="43.46101" lon="1.1361">
        <ele>230.2</ele>
        <time>2024-08-01T07:24:59Z</time>
      </trkpt>
      <trkpt lat="43.46102" lon="1.13601">
        <ele>230.2</ele>
        <time>2024-08-01T07:25:00Z</time>
      </trkpt>
      <trkpt lat="43.46102" lon="1.13592">
        <ele>230.2</ele>
        <time>2024-08-01T07:25:01Z</time>
      </trkpt>
      <trkpt lat="43.46102" lon="1.13583">
        <ele>230.2</ele>
        <time>2024-08-01T07:25:02Z</time>
      </trkpt>
      <trkpt lat="43.46103" lon="1.13574">
        <ele>230.2</ele>
        <time>2024-08-01T07:25:03Z</time>
      </trkpt>
      <trkpt lat="43.46103" lon="1.13565">
        <ele>230.2</ele>
        <time>2024-08-01T07:25:04Z</time>
      </trkpt>
      <trkpt lat="43.46103" lon="1.13557">
        <ele>230.2</ele>
        <time>2024-08-01T07:25:05Z</time>
      </trkpt>
      <trkpt lat="43.46103" lon="1.13546">
        <ele>230.4</ele>
        <time>2024-08-01T07:25:06Z</time>
      </trkpt>
      <trkpt lat="43.46103" lon="1.13537">
        <ele>230.4</ele>
        <time>2024-08-01T07:25:07Z</time>
      </trkpt>
      <trkpt lat="43.46103" lon="1.13528">
        <ele>230.4</ele>
        <time>2024-08-01T07:25:08Z</time>
      </trkpt>
      <trkpt lat="43.46103" lon="1.13519">
        <ele>230.6</ele>
        <time>2024-08-01T07:25:09Z</time>
      </trkpt>
      <trkpt lat="43.46103" lon="1.1351">
        <ele>230.8</ele>
        <time>2024-08-01T07:25:10Z</time>
      </trkpt>
      <trkpt lat="43.46103" lon="1.13501">
        <ele>230.8</ele>
        <time>2024-08-01T07:25:11Z</time>
      </trkpt>
      <trkpt lat="43.46103" lon="1.13492">
        <ele>231</ele>
        <time>2024-08-01T07:25:12Z</time>
      </trkpt>
      <trkpt lat="43.46103" lon="1.13483">
        <ele>231</ele>
        <time>2024-08-01T07:25:13Z</time>
      </trkpt>
      <trkpt lat="43.46103" lon="1.13475">
        <ele>231.2</ele>
        <time>2024-08-01T07:25:14Z</time>
      </trkpt>
      <trkpt lat="43.46103" lon="1.13466">
        <ele>231.4</ele>
        <time>2024-08-01T07:25:15Z</time>
      </trkpt>
      <trkpt lat="43.46104" lon="1.13458">
        <ele>231.6</ele>
        <time>2024-08-01T07:25:16Z</time>
      </trkpt>
      <trkpt lat="43.46104" lon="1.13449">
        <ele>231.6</ele>
        <time>2024-08-01T07:25:17Z</time>
      </trkpt>
      <trkpt lat="43.46105" lon="1.1344">
        <ele>231.6</ele>
        <time>2024-08-01T07:25:18Z</time>
      </trkpt>
      <trkpt lat="43.46105" lon="1.13432">
        <ele>231.8</ele>
        <time>2024-08-01T07:25:19Z</time>
      </trkpt>
      <trkpt lat="43.46105" lon="1.13423">
        <ele>232</ele>
        <time>2024-08-01T07:25:20Z</time>
      </trkpt>
      <trkpt lat="43.46105" lon="1.13414">
        <ele>232</ele>
        <time>2024-08-01T07:25:21Z</time>
      </trkpt>
      <trkpt lat="43.46106" lon="1.13405">
        <ele>232</ele>
        <time>2024-08-01T07:25:22Z</time>
      </trkpt>
      <trkpt lat="43.46105" lon="1.13395">
        <ele>232.2</ele>
        <time>2024-08-01T07:25:23Z</time>
      </trkpt>
      <trkpt lat="43.46104" lon="1.13386">
        <ele>232.2</ele>
        <time>2024-08-01T07:25:24Z</time>
      </trkpt>
      <trkpt lat="43.46104" lon="1.13376">
        <ele>232.2</ele>
        <time>2024-08-01T07:25:25Z</time>
      </trkpt>
      <trkpt lat="43.46103" lon="1.13366">
        <ele>232.2</ele>
        <time>2024-08-01T07:25:26Z</time>
      </trkpt>
      <trkpt lat="43.46103" lon="1.13357">
        <ele>232</ele>
        <time>2024-08-01T07:25:27Z</time>
      </trkpt>
      <trkpt lat="43.46103" lon="1.13347">
        <ele>232</ele>
        <time>2024-08-01T07:25:28Z</time>
      </trkpt>
      <trkpt lat="43.46102" lon="1.13338">
        <ele>232</ele>
        <time>2024-08-01T07:25:29Z</time>
      </trkpt>
      <trkpt lat="43.46103" lon="1.13328">
        <ele>232</ele>
        <time>2024-08-01T07:25:30Z</time>
      </trkpt>
      <trkpt lat="43.46104" lon="1.13318">
        <ele>232</ele>
        <time>2024-08-01T07:25:31Z</time>
      </trkpt>
      <trkpt lat="43.46105" lon="1.13309">
        <ele>231.8</ele>
        <time>2024-08-01T07:25:32Z</time>
      </trkpt>
      <trkpt lat="43.46107" lon="1.133">
        <ele>231.8</ele>
        <time>2024-08-01T07:25:33Z</time>
      </trkpt>
      <trkpt lat="43.46109" lon="1.13291">
        <ele>231.6</ele>
        <time>2024-08-01T07:25:34Z</time>
      </trkpt>
      <trkpt lat="43.46111" lon="1.13282">
        <ele>231.6</ele>
        <time>2024-08-01T07:25:35Z</time>
      </trkpt>
      <trkpt lat="43.46113" lon="1.13274">
        <ele>231.6</ele>
        <time>2024-08-01T07:25:36Z</time>
      </trkpt>
      <trkpt lat="43.46116" lon="1.13266">
        <ele>231.6</ele>
        <time>2024-08-01T07:25:37Z</time>
      </trkpt>
      <trkpt lat="43.46119" lon="1.13259">
        <ele>231.6</ele>
        <time>2024-08-01T07:25:38Z</time>
      </trkpt>
      <trkpt lat="43.46121" lon="1.13252">
        <ele>231.8</ele>
        <time>2024-08-01T07:25:39Z</time>
      </trkpt>
      <trkpt lat="43.46124" lon="1.13245">
        <ele>231.8</ele>
        <time>2024-08-01T07:25:40Z</time>
      </trkpt>
      <trkpt lat="43.46127" lon="1.13238">
        <ele>232</ele>
        <time>2024-08-01T07:25:41Z</time>
      </trkpt>
      <trkpt lat="43.4613" lon="1.13231">
        <ele>232.2</ele>
        <time>2024-08-01T07:25:42Z</time>
      </trkpt>
      <trkpt lat="43.46133" lon="1.13225">
        <ele>232.2</ele>
        <time>2024-08-01T07:25:43Z</time>
      </trkpt>
      <trkpt lat="43.46135" lon="1.13219">
        <ele>232.6</ele>
        <time>2024-08-01T07:25:44Z</time>
      </trkpt>
      <trkpt lat="43.46138" lon="1.13212">
        <ele>232.8</ele>
        <time>2024-08-01T07:25:45Z</time>
      </trkpt>
      <trkpt lat="43.46141" lon="1.13206">
        <ele>233.2</ele>
        <time>2024-08-01T07:25:46Z</time>
      </trkpt>
      <trkpt lat="43.46144" lon="1.132">
        <ele>233.6</ele>
        <time>2024-08-01T07:25:47Z</time>
      </trkpt>
      <trkpt lat="43.46146" lon="1.13194">
        <ele>233.8</ele>
        <time>2024-08-01T07:25:48Z</time>
      </trkpt>
      <trkpt lat="43.46149" lon="1.13188">
        <ele>234.2</ele>
        <time>2024-08-01T07:25:49Z</time>
      </trkpt>
      <trkpt lat="43.46151" lon="1.13182">
        <ele>234.8</ele>
        <time>2024-08-01T07:25:50Z</time>
      </trkpt>
      <trkpt lat="43.46154" lon="1.13176">
        <ele>235.2</ele>
        <time>2024-08-01T07:25:51Z</time>
      </trkpt>
      <trkpt lat="43.46157" lon="1.1317">
        <ele>235.4</ele>
        <time>2024-08-01T07:25:52Z</time>
      </trkpt>
      <trkpt lat="43.46159" lon="1.13164">
        <ele>235.6</ele>
        <time>2024-08-01T07:25:53Z</time>
      </trkpt>
      <trkpt lat="43.46161" lon="1.13158">
        <ele>236</ele>
        <time>2024-08-01T07:25:54Z</time>
      </trkpt>
      <trkpt lat="43.46164" lon="1.13151">
        <ele>236.6</ele>
        <time>2024-08-01T07:25:55Z</time>
      </trkpt>
      <trkpt lat="43.46166" lon="1.13145">
        <ele>236.8</ele>
        <time>2024-08-01T07:25:56Z</time>
      </trkpt>
      <trkpt lat="43.46168" lon="1.13138">
        <ele>237.2</ele>
        <time>2024-08-01T07:25:57Z</time>
      </trkpt>
      <trkpt lat="43.46171" lon="1.13131">
        <ele>237.6</ele>
        <time>2024-08-01T07:25:58Z</time>
      </trkpt>
      <trkpt lat="43.46172" lon="1.13125">
        <ele>238</ele>
        <time>2024-08-01T07:25:59Z</time>
      </trkpt>
      <trkpt lat="43.46174" lon="1.13118">
        <ele>238.4</ele>
        <time>2024-08-01T07:26:00Z</time>
      </trkpt>
      <trkpt lat="43.46176" lon="1.13111">
        <ele>238.6</ele>
        <time>2024-08-01T07:26:01Z</time>
      </trkpt>
      <trkpt lat="43.46177" lon="1.13104">
        <ele>239</ele>
        <time>2024-08-01T07:26:02Z</time>
      </trkpt>
      <trkpt lat="43.46179" lon="1.13097">
        <ele>239</ele>
        <time>2024-08-01T07:26:03Z</time>
      </trkpt>
      <trkpt lat="43.4618" lon="1.13089">
        <ele>239.2</ele>
        <time>2024-08-01T07:26:04Z</time>
      </trkpt>
      <trkpt lat="43.46182" lon="1.13082">
        <ele>239.6</ele>
        <time>2024-08-01T07:26:05Z</time>
      </trkpt>
      <trkpt lat="43.46184" lon="1.13075">
        <ele>240</ele>
        <time>2024-08-01T07:26:06Z</time>
      </trkpt>
      <trkpt lat="43.46185" lon="1.13068">
        <ele>240.2</ele>
        <time>2024-08-01T07:26:07Z</time>
      </trkpt>
      <trkpt lat="43.46186" lon="1.1306">
        <ele>240.4</ele>
        <time>2024-08-01T07:26:08Z</time>
      </trkpt>
      <trkpt lat="43.46188" lon="1.13053">
        <ele>241</ele>
        <time>2024-08-01T07:26:09Z</time>
      </trkpt>
      <trkpt lat="43.4619" lon="1.13046">
        <ele>241.2</ele>
        <time>2024-08-01T07:26:10Z</time>
      </trkpt>
      <trkpt lat="43.46191" lon="1.13039">
        <ele>241.2</ele>
        <time>2024-08-01T07:26:11Z</time>
      </trkpt>
      <trkpt lat="43.46193" lon="1.13032">
        <ele>241.4</ele>
        <time>2024-08-01T07:26:12Z</time>
      </trkpt>
      <trkpt lat="43.46194" lon="1.13024">
        <ele>241.6</ele>
        <time>2024-08-01T07:26:13Z</time>
      </trkpt>
      <trkpt lat="43.46196" lon="1.13017">
        <ele>241.6</ele>
        <time>2024-08-01T07:26:14Z</time>
      </trkpt>
      <trkpt lat="43.46197" lon="1.1301">
        <ele>241.8</ele>
        <time>2024-08-01T07:26:15Z</time>
      </trkpt>
      <trkpt lat="43.46199" lon="1.13003">
        <ele>242</ele>
        <time>2024-08-01T07:26:16Z</time>
      </trkpt>
      <trkpt lat="43.46201" lon="1.12995">
        <ele>242.2</ele>
        <time>2024-08-01T07:26:17Z</time>
      </trkpt>
      <trkpt lat="43.46202" lon="1.12988">
        <ele>242.6</ele>
        <time>2024-08-01T07:26:18Z</time>
      </trkpt>
      <trkpt lat="43.46204" lon="1.12981">
        <ele>242.8</ele>
        <time>2024-08-01T07:26:19Z</time>
      </trkpt>
      <trkpt lat="43.46206" lon="1.12973">
        <ele>243</ele>
        <time>2024-08-01T07:26:20Z</time>
      </trkpt>
      <trkpt lat="43.46207" lon="1.12966">
        <ele>243.2</ele>
        <time>2024-08-01T07:26:21Z</time>
      </trkpt>
      <trkpt lat="43.46209" lon="1.12958">
        <ele>243.4</ele>
        <time>2024-08-01T07:26:22Z</time>
      </trkpt>
      <trkpt lat="43.46211" lon="1.1295">
        <ele>243.4</ele>
        <time>2024-08-01T07:26:23Z</time>
      </trkpt>
      <trkpt lat="43.46212" lon="1.12943">
        <ele>243.4</ele>
        <time>2024-08-01T07:26:24Z</time>
      </trkpt>
      <trkpt lat="43.46214" lon="1.12935">
        <ele>243.6</ele>
        <time>2024-08-01T07:26:25Z</time>
      </trkpt>
      <trkpt lat="43.46216" lon="1.12927">
        <ele>243.8</ele>
        <time>2024-08-01T07:26:26Z</time>
      </trkpt>
      <trkpt lat="43.46218" lon="1.1292">
        <ele>244</ele>
        <time>2024-08-01T07:26:27Z</time>
      </trkpt>
      <trkpt lat="43.46219" lon="1.12912">
        <ele>244</ele>
        <time>2024-08-01T07:26:28Z</time>
      </trkpt>
      <trkpt lat="43.46221" lon="1.12904">
        <ele>244.2</ele>
        <time>2024-08-01T07:26:29Z</time>
      </trkpt>
      <trkpt lat="43.46223" lon="1.12897">
        <ele>244.2</ele>
        <time>2024-08-01T07:26:30Z</time>
      </trkpt>
      <trkpt lat="43.46225" lon="1.12889">
        <ele>244.4</ele>
        <time>2024-08-01T07:26:31Z</time>
      </trkpt>
      <trkpt lat="43.46226" lon="1.12881">
        <ele>244.6</ele>
        <time>2024-08-01T07:26:32Z</time>
      </trkpt>
      <trkpt lat="43.46228" lon="1.12873">
        <ele>245</ele>
        <time>2024-08-01T07:26:33Z</time>
      </trkpt>
      <trkpt lat="43.46229" lon="1.12866">
        <ele>245</ele>
        <time>2024-08-01T07:26:34Z</time>
      </trkpt>
      <trkpt lat="43.46231" lon="1.12858">
        <ele>245.2</ele>
        <time>2024-08-01T07:26:35Z</time>
      </trkpt>
      <trkpt lat="43.46232" lon="1.12851">
        <ele>245.2</ele>
        <time>2024-08-01T07:26:36Z</time>
      </trkpt>
      <trkpt lat="43.46233" lon="1.12843">
        <ele>245.4</ele>
        <time>2024-08-01T07:26:37Z</time>
      </trkpt>
      <trkpt lat="43.46234" lon="1.12835">
        <ele>245.6</ele>
        <time>2024-08-01T07:26:38Z</time>
      </trkpt>
      <trkpt lat="43.46235" lon="1.12828">
        <ele>245.8</ele>
        <time>2024-08-01T07:26:39Z</time>
      </trkpt>
      <trkpt lat="43.46236" lon="1.12821">
        <ele>246.2</ele>
        <time>2024-08-01T07:26:40Z</time>
      </trkpt>
      <trkpt lat="43.46237" lon="1.12813">
        <ele>246.2</ele>
        <time>2024-08-01T07:26:41Z</time>
      </trkpt>
      <trkpt lat="43.46237" lon="1.12806">
        <ele>246.6</ele>
        <time>2024-08-01T07:26:42Z</time>
      </trkpt>
      <trkpt lat="43.46238" lon="1.12799">
        <ele>246.6</ele>
        <time>2024-08-01T07:26:43Z</time>
      </trkpt>
      <trkpt lat="43.46238" lon="1.12792">
        <ele>247</ele>
        <time>2024-08-01T07:26:44Z</time>
      </trkpt>
      <trkpt lat="43.46239" lon="1.12784">
        <ele>247.2</ele>
        <time>2024-08-01T07:26:45Z</time>
      </trkpt>
      <trkpt lat="43.46239" lon="1.12777">
        <ele>247.6</ele>
        <time>2024-08-01T07:26:46Z</time>
      </trkpt>
      <trkpt lat="43.46239" lon="1.12769">
        <ele>247.8</ele>
        <time>2024-08-01T07:26:47Z</time>
      </trkpt>
      <trkpt lat="43.46239" lon="1.12761">
        <ele>248</ele>
        <time>2024-08-01T07:26:48Z</time>
      </trkpt>
      <trkpt lat="43.46239" lon="1.12754">
        <ele>248.2</ele>
        <time>2024-08-01T07:26:49Z</time>
      </trkpt>
      <trkpt lat="43.46239" lon="1.12746">
        <ele>248.4</ele>
        <time>2024-08-01T07:26:50Z</time>
      </trkpt>
      <trkpt lat="43.46239" lon="1.12739">
        <ele>248.4</ele>
        <time>2024-08-01T07:26:51Z</time>
      </trkpt>
      <trkpt lat="43.46239" lon="1.12732">
        <ele>248.6</ele>
        <time>2024-08-01T07:26:52Z</time>
      </trkpt>
      <trkpt lat="43.46238" lon="1.12724">
        <ele>248.6</ele>
        <time>2024-08-01T07:26:53Z</time>
      </trkpt>
      <trkpt lat="43.46238" lon="1.12716">
        <ele>248.8</ele>
        <time>2024-08-01T07:26:54Z</time>
      </trkpt>
      <trkpt lat="43.46238" lon="1.12709">
        <ele>249</ele>
        <time>2024-08-01T07:26:55Z</time>
      </trkpt>
      <trkpt lat="43.46238" lon="1.12701">
        <ele>249.4</ele>
        <time>2024-08-01T07:26:56Z</time>
      </trkpt>
      <trkpt lat="43.46238" lon="1.12694">
        <ele>249.6</ele>
        <time>2024-08-01T07:26:57Z</time>
      </trkpt>
      <trkpt lat="43.46238" lon="1.12687">
        <ele>249.8</ele>
        <time>2024-08-01T07:26:58Z</time>
      </trkpt>
      <trkpt lat="43.46238" lon="1.12679">
        <ele>250.2</ele>
        <time>2024-08-01T07:26:59Z</time>
      </trkpt>
      <trkpt lat="43.46238" lon="1.12672">
        <ele>250.4</ele>
        <time>2024-08-01T07:27:00Z</time>
      </trkpt>
      <trkpt lat="43.46238" lon="1.12665">
        <ele>250.8</ele>
        <time>2024-08-01T07:27:01Z</time>
      </trkpt>
      <trkpt lat="43.46238" lon="1.12658">
        <ele>251</ele>
        <time>2024-08-01T07:27:02Z</time>
      </trkpt>
      <trkpt lat="43.46238" lon="1.12651">
        <ele>251.4</ele>
        <time>2024-08-01T07:27:03Z</time>
      </trkpt>
      <trkpt lat="43.46238" lon="1.12644">
        <ele>251.6</ele>
        <time>2024-08-01T07:27:04Z</time>
      </trkpt>
      <trkpt lat="43.46238" lon="1.12637">
        <ele>251.8</ele>
        <time>2024-08-01T07:27:05Z</time>
      </trkpt>
      <trkpt lat="43.46238" lon="1.1263">
        <ele>252</ele>
        <time>2024-08-01T07:27:06Z</time>
      </trkpt>
      <trkpt lat="43.46238" lon="1.12623">
        <ele>252.2</ele>
        <time>2024-08-01T07:27:07Z</time>
      </trkpt>
      <trkpt lat="43.46238" lon="1.12616">
        <ele>252.6</ele>
        <time>2024-08-01T07:27:08Z</time>
      </trkpt>
      <trkpt lat="43.46238" lon="1.12609">
        <ele>252.8</ele>
        <time>2024-08-01T07:27:09Z</time>
      </trkpt>
      <trkpt lat="43.46238" lon="1.12602">
        <ele>253.2</ele>
        <time>2024-08-01T07:27:10Z</time>
      </trkpt>
      <trkpt lat="43.46238" lon="1.12596">
        <ele>253.2</ele>
        <time>2024-08-01T07:27:11Z</time>
      </trkpt>
      <trkpt lat="43.46238" lon="1.12589">
        <ele>253.6</ele>
        <time>2024-08-01T07:27:12Z</time>
      </trkpt>
      <trkpt lat="43.46238" lon="1.12582">
        <ele>253.8</ele>
        <time>2024-08-01T07:27:13Z</time>
      </trkpt>
      <trkpt lat="43.46238" lon="1.12576">
        <ele>254.2</ele>
        <time>2024-08-01T07:27:14Z</time>
      </trkpt>
      <trkpt lat="43.46238" lon="1.12569">
        <ele>254.8</ele>
        <time>2024-08-01T07:27:15Z</time>
      </trkpt>
      <trkpt lat="43.46238" lon="1.12563">
        <ele>255</ele>
        <time>2024-08-01T07:27:16Z</time>
      </trkpt>
      <trkpt lat="43.46238" lon="1.12556">
        <ele>255.4</ele>
        <time>2024-08-01T07:27:17Z</time>
      </trkpt>
      <trkpt lat="43.46238" lon="1.12549">
        <ele>255.6</ele>
        <time>2024-08-01T07:27:18Z</time>
      </trkpt>
      <trkpt lat="43.46237" lon="1.12542">
        <ele>255.8</ele>
        <time>2024-08-01T07:27:19Z</time>
      </trkpt>
      <trkpt lat="43.46237" lon="1.12536">
        <ele>256.6</ele>
        <time>2024-08-01T07:27:20Z</time>
      </trkpt>
      <trkpt lat="43.46237" lon="1.12529">
        <ele>256.8</ele>
        <time>2024-08-01T07:27:21Z</time>
      </trkpt>
      <trkpt lat="43.46237" lon="1.12523">
        <ele>257.4</ele>
        <time>2024-08-01T07:27:22Z</time>
      </trkpt>
      <trkpt lat="43.46237" lon="1.12517">
        <ele>257.4</ele>
        <time>2024-08-01T07:27:23Z</time>
      </trkpt>
      <trkpt lat="43.46236" lon="1.12511">
        <ele>257.8</ele>
        <time>2024-08-01T07:27:24Z</time>
      </trkpt>
      <trkpt lat="43.46236" lon="1.12505">
        <ele>258</ele>
        <time>2024-08-01T07:27:25Z</time>
      </trkpt>
      <trkpt lat="43.46235" lon="1.12499">
        <ele>258.2</ele>
        <time>2024-08-01T07:27:26Z</time>
      </trkpt>
      <trkpt lat="43.46234" lon="1.12493">
        <ele>258.6</ele>
        <time>2024-08-01T07:27:27Z</time>
      </trkpt>
      <trkpt lat="43.46234" lon="1.12487">
        <ele>259</ele>
        <time>2024-08-01T07:27:28Z</time>
      </trkpt>
      <trkpt lat="43.46233" lon="1.12481">
        <ele>259.2</ele>
        <time>2024-08-01T07:27:29Z</time>
      </trkpt>
      <trkpt lat="43.46232" lon="1.12475">
        <ele>259.4</ele>
        <time>2024-08-01T07:27:30Z</time>
      </trkpt>
      <trkpt lat="43.4623" lon="1.12469">
        <ele>260</ele>
        <time>2024-08-01T07:27:31Z</time>
      </trkpt>
      <trkpt lat="43.46229" lon="1.12462">
        <ele>260.2</ele>
        <time>2024-08-01T07:27:32Z</time>
      </trkpt>
      <trkpt lat="43.46227" lon="1.12456">
        <ele>260.6</ele>
        <time>2024-08-01T07:27:33Z</time>
      </trkpt>
      <trkpt lat="43.46226" lon="1.1245">
        <ele>261.2</ele>
        <time>2024-08-01T07:27:34Z</time>
      </trkpt>
      <trkpt lat="43.46225" lon="1.12444">
        <ele>261.4</ele>
        <time>2024-08-01T07:27:35Z</time>
      </trkpt>
      <trkpt lat="43.46223" lon="1.12438">
        <ele>261.8</ele>
        <time>2024-08-01T07:27:36Z</time>
      </trkpt>
      <trkpt lat="43.46222" lon="1.12432">
        <ele>261.8</ele>
        <time>2024-08-01T07:27:37Z</time>
      </trkpt>
      <trkpt lat="43.4622" lon="1.12426">
        <ele>262.2</ele>
        <time>2024-08-01T07:27:38Z</time>
      </trkpt>
      <trkpt lat="43.46219" lon="1.12419">
        <ele>262.2</ele>
        <time>2024-08-01T07:27:39Z</time>
      </trkpt>
      <trkpt lat="43.46217" lon="1.12413">
        <ele>262.4</ele>
        <time>2024-08-01T07:27:40Z</time>
      </trkpt>
      <trkpt lat="43.46215" lon="1.12407">
        <ele>262.8</ele>
        <time>2024-08-01T07:27:41Z</time>
      </trkpt>
      <trkpt lat="43.46214" lon="1.124">
        <ele>262.8</ele>
        <time>2024-08-01T07:27:42Z</time>
      </trkpt>
      <trkpt lat="43.46212" lon="1.12394">
        <ele>263.2</ele>
        <time>2024-08-01T07:27:43Z</time>
      </trkpt>
      <trkpt lat="43.4621" lon="1.12388">
        <ele>263.2</ele>
        <time>2024-08-01T07:27:44Z</time>
      </trkpt>
      <trkpt lat="43.46209" lon="1.12382">
        <ele>263.4</ele>
        <time>2024-08-01T07:27:45Z</time>
      </trkpt>
      <trkpt lat="43.46207" lon="1.12376">
        <ele>263.6</ele>
        <time>2024-08-01T07:27:46Z</time>
      </trkpt>
      <trkpt lat="43.46205" lon="1.1237">
        <ele>263.8</ele>
        <time>2024-08-01T07:27:47Z</time>
      </trkpt>
      <trkpt lat="43.46204" lon="1.12364">
        <ele>264</ele>
        <time>2024-08-01T07:27:48Z</time>
      </trkpt>
      <trkpt lat="43.46202" lon="1.12357">
        <ele>264</ele>
        <time>2024-08-01T07:27:49Z</time>
      </trkpt>
      <trkpt lat="43.46201" lon="1.12351">
        <ele>264.2</ele>
        <time>2024-08-01T07:27:50Z</time>
      </trkpt>
      <trkpt lat="43.46199" lon="1.12344">
        <ele>264.4</ele>
        <time>2024-08-01T07:27:51Z</time>
      </trkpt>
      <trkpt lat="43.46197" lon="1.12338">
        <ele>264.6</ele>
        <time>2024-08-01T07:27:52Z</time>
      </trkpt>
      <trkpt lat="43.46196" lon="1.12331">
        <ele>264.8</ele>
        <time>2024-08-01T07:27:53Z</time>
      </trkpt>
      <trkpt lat="43.46194" lon="1.12325">
        <ele>264.8</ele>
        <time>2024-08-01T07:27:54Z</time>
      </trkpt>
      <trkpt lat="43.46192" lon="1.12318">
        <ele>265</ele>
        <time>2024-08-01T07:27:55Z</time>
      </trkpt>
      <trkpt lat="43.4619" lon="1.12312">
        <ele>265</ele>
        <time>2024-08-01T07:27:56Z</time>
      </trkpt>
      <trkpt lat="43.46189" lon="1.12305">
        <ele>265.2</ele>
        <time>2024-08-01T07:27:57Z</time>
      </trkpt>
      <trkpt lat="43.46187" lon="1.12298">
        <ele>265.4</ele>
        <time>2024-08-01T07:27:58Z</time>
      </trkpt>
      <trkpt lat="43.46185" lon="1.12292">
        <ele>265.4</ele>
        <time>2024-08-01T07:27:59Z</time>
      </trkpt>
      <trkpt lat="43.46183" lon="1.12285">
        <ele>265.6</ele>
        <time>2024-08-01T07:28:00Z</time>
      </trkpt>
      <trkpt lat="43.4618" lon="1.12278">
        <ele>265.6</ele>
        <time>2024-08-01T07:28:01Z</time>
      </trkpt>
      <trkpt lat="43.46178" lon="1.12271">
        <ele>265.8</ele>
        <time>2024-08-01T07:28:02Z</time>
      </trkpt>
      <trkpt lat="43.46176" lon="1.12264">
        <ele>265.8</ele>
        <time>2024-08-01T07:28:03Z</time>
      </trkpt>
      <trkpt lat="43.46173" lon="1.12257">
        <ele>265.8</ele>
        <time>2024-08-01T07:28:04Z</time>
      </trkpt>
      <trkpt lat="43.46171" lon="1.1225">
        <ele>265.8</ele>
        <time>2024-08-01T07:28:05Z</time>
      </trkpt>
      <trkpt lat="43.46168" lon="1.12243">
        <ele>265.8</ele>
        <time>2024-08-01T07:28:06Z</time>
      </trkpt>
      <trkpt lat="43.46166" lon="1.12236">
        <ele>266</ele>
        <time>2024-08-01T07:28:07Z</time>
      </trkpt>
      <trkpt lat="43.46163" lon="1.12229">
        <ele>266</ele>
        <time>2024-08-01T07:28:08Z</time>
      </trkpt>
      <trkpt lat="43.46161" lon="1.12222">
        <ele>266</ele>
        <time>2024-08-01T07:28:09Z</time>
      </trkpt>
      <trkpt lat="43.46158" lon="1.12215">
        <ele>265.8</ele>
        <time>2024-08-01T07:28:10Z</time>
      </trkpt>
      <trkpt lat="43.46156" lon="1.12208">
        <ele>265.8</ele>
        <time>2024-08-01T07:28:11Z</time>
      </trkpt>
      <trkpt lat="43.46153" lon="1.12201">
        <ele>265.8</ele>
        <time>2024-08-01T07:28:12Z</time>
      </trkpt>
      <trkpt lat="43.4615" lon="1.12194">
        <ele>265.8</ele>
        <time>2024-08-01T07:28:13Z</time>
      </trkpt>
      <trkpt lat="43.46148" lon="1.12187">
        <ele>265.6</ele>
        <time>2024-08-01T07:28:14Z</time>
      </trkpt>
      <trkpt lat="43.46145" lon="1.1218">
        <ele>265.6</ele>
        <time>2024-08-01T07:28:15Z</time>
      </trkpt>
      <trkpt lat="43.46142" lon="1.12173">
        <ele>265.6</ele>
        <time>2024-08-01T07:28:16Z</time>
      </trkpt>
      <trkpt lat="43.46139" lon="1.12166">
        <ele>265.4</ele>
        <time>2024-08-01T07:28:17Z</time>
      </trkpt>
      <trkpt lat="43.46136" lon="1.12159">
        <ele>265.4</ele>
        <time>2024-08-01T07:28:18Z</time>
      </trkpt>
      <trkpt lat="43.46133" lon="1.12152">
        <ele>265.4</ele>
        <time>2024-08-01T07:28:19Z</time>
      </trkpt>
      <trkpt lat="43.46129" lon="1.12145">
        <ele>265.2</ele>
        <time>2024-08-01T07:28:20Z</time>
      </trkpt>
      <trkpt lat="43.46126" lon="1.12138">
        <ele>265.2</ele>
        <time>2024-08-01T07:28:21Z</time>
      </trkpt>
      <trkpt lat="43.46122" lon="1.1213">
        <ele>265</ele>
        <time>2024-08-01T07:28:22Z</time>
      </trkpt>
      <trkpt lat="43.46117" lon="1.12123">
        <ele>265</ele>
        <time>2024-08-01T07:28:23Z</time>
      </trkpt>
      <trkpt lat="43.46113" lon="1.12116">
        <ele>264.8</ele>
        <time>2024-08-01T07:28:24Z</time>
      </trkpt>
      <trkpt lat="43.46109" lon="1.12109">
        <ele>264.4</ele>
        <time>2024-08-01T07:28:25Z</time>
      </trkpt>
      <trkpt lat="43.46105" lon="1.12102">
        <ele>264</ele>
        <time>2024-08-01T07:28:26Z</time>
      </trkpt>
      <trkpt lat="43.46101" lon="1.12095">
        <ele>263.8</ele>
        <time>2024-08-01T07:28:27Z</time>
      </trkpt>
      <trkpt lat="43.46097" lon="1.12088">
        <ele>263.8</ele>
        <time>2024-08-01T07:28:28Z</time>
      </trkpt>
      <trkpt lat="43.46093" lon="1.12082">
        <ele>263.6</ele>
        <time>2024-08-01T07:28:29Z</time>
      </trkpt>
      <trkpt lat="43.46088" lon="1.12075">
        <ele>263.4</ele>
        <time>2024-08-01T07:28:30Z</time>
      </trkpt>
      <trkpt lat="43.46084" lon="1.12068">
        <ele>263.4</ele>
        <time>2024-08-01T07:28:31Z</time>
      </trkpt>
      <trkpt lat="43.4608" lon="1.12061">
        <ele>263.4</ele>
        <time>2024-08-01T07:28:32Z</time>
      </trkpt>
      <trkpt lat="43.46076" lon="1.12055">
        <ele>263.2</ele>
        <time>2024-08-01T07:28:33Z</time>
      </trkpt>
      <trkpt lat="43.46072" lon="1.12049">
        <ele>263.2</ele>
        <time>2024-08-01T07:28:34Z</time>
      </trkpt>
      <trkpt lat="43.46068" lon="1.12042">
        <ele>263.2</ele>
        <time>2024-08-01T07:28:35Z</time>
      </trkpt>
      <trkpt lat="43.46065" lon="1.12036">
        <ele>263.2</ele>
        <time>2024-08-01T07:28:36Z</time>
      </trkpt>
      <trkpt lat="43.46061" lon="1.12031">
        <ele>263.2</ele>
        <time>2024-08-01T07:28:37Z</time>
      </trkpt>
      <trkpt lat="43.46057" lon="1.12025">
        <ele>263.4</ele>
        <time>2024-08-01T07:28:38Z</time>
      </trkpt>
      <trkpt lat="43.46054" lon="1.12019">
        <ele>263.4</ele>
        <time>2024-08-01T07:28:39Z</time>
      </trkpt>
      <trkpt lat="43.4605" lon="1.12013">
        <ele>263.6</ele>
        <time>2024-08-01T07:28:40Z</time>
      </trkpt>
      <trkpt lat="43.46047" lon="1.12008">
        <ele>263.6</ele>
        <time>2024-08-01T07:28:41Z</time>
      </trkpt>
      <trkpt lat="43.46043" lon="1.12002">
        <ele>263.8</ele>
        <time>2024-08-01T07:28:42Z</time>
      </trkpt>
      <trkpt lat="43.4604" lon="1.11996">
        <ele>264</ele>
        <time>2024-08-01T07:28:43Z</time>
      </trkpt>
      <trkpt lat="43.46037" lon="1.11991">
        <ele>264.6</ele>
        <time>2024-08-01T07:28:44Z</time>
      </trkpt>
      <trkpt lat="43.46033" lon="1.11985">
        <ele>264.8</ele>
        <time>2024-08-01T07:28:45Z</time>
      </trkpt>
      <trkpt lat="43.4603" lon="1.11979">
        <ele>265.2</ele>
        <time>2024-08-01T07:28:46Z</time>
      </trkpt>
      <trkpt lat="43.46027" lon="1.11973">
        <ele>265.4</ele>
        <time>2024-08-01T07:28:47Z</time>
      </trkpt>
      <trkpt lat="43.46024" lon="1.11966">
        <ele>265.6</ele>
        <time>2024-08-01T07:28:48Z</time>
      </trkpt>
      <trkpt lat="43.4602" lon="1.1196">
        <ele>265.6</ele>
        <time>2024-08-01T07:28:49Z</time>
      </trkpt>
      <trkpt lat="43.46017" lon="1.11954">
        <ele>265.8</ele>
        <time>2024-08-01T07:28:50Z</time>
      </trkpt>
      <trkpt lat="43.46014" lon="1.11947">
        <ele>266</ele>
        <time>2024-08-01T07:28:51Z</time>
      </trkpt>
      <trkpt lat="43.46011" lon="1.11941">
        <ele>266</ele>
        <time>2024-08-01T07:28:52Z</time>
      </trkpt>
      <trkpt lat="43.46008" lon="1.11935">
        <ele>266.2</ele>
        <time>2024-08-01T07:28:53Z</time>
      </trkpt>
      <trkpt lat="43.46005" lon="1.11929">
        <ele>266.2</ele>
        <time>2024-08-01T07:28:54Z</time>
      </trkpt>
      <trkpt lat="43.46002" lon="1.11922">
        <ele>266.2</ele>
        <time>2024-08-01T07:28:55Z</time>
      </trkpt>
      <trkpt lat="43.45998" lon="1.11916">
        <ele>266.2</ele>
        <time>2024-08-01T07:28:56Z</time>
      </trkpt>
      <trkpt lat="43.45995" lon="1.11909">
        <ele>266.4</ele>
        <time>2024-08-01T07:28:57Z</time>
      </trkpt>
      <trkpt lat="43.45992" lon="1.11903">
        <ele>266.4</ele>
        <time>2024-08-01T07:28:58Z</time>
      </trkpt>
      <trkpt lat="43.45989" lon="1.11896">
        <ele>266.4</ele>
        <time>2024-08-01T07:28:59Z</time>
      </trkpt>
      <trkpt lat="43.45986" lon="1.1189">
        <ele>266.6</ele>
        <time>2024-08-01T07:29:00Z</time>
      </trkpt>
      <trkpt lat="43.45983" lon="1.11883">
        <ele>266.6</ele>
        <time>2024-08-01T07:29:01Z</time>
      </trkpt>
      <trkpt lat="43.4598" lon="1.11876">
        <ele>266.6</ele>
        <time>2024-08-01T07:29:02Z</time>
      </trkpt>
      <trkpt lat="43.45977" lon="1.11869">
        <ele>266.6</ele>
        <time>2024-08-01T07:29:03Z</time>
      </trkpt>
      <trkpt lat="43.45974" lon="1.11862">
        <ele>266.8</ele>
        <time>2024-08-01T07:29:04Z</time>
      </trkpt>
      <trkpt lat="43.45971" lon="1.11856">
        <ele>266.8</ele>
        <time>2024-08-01T07:29:05Z</time>
      </trkpt>
      <trkpt lat="43.45969" lon="1.11849">
        <ele>266.8</ele>
        <time>2024-08-01T07:29:06Z</time>
      </trkpt>
      <trkpt lat="43.45966" lon="1.11842">
        <ele>266.6</ele>
        <time>2024-08-01T07:29:07Z</time>
      </trkpt>
      <trkpt lat="43.45964" lon="1.11836">
        <ele>266.6</ele>
        <time>2024-08-01T07:29:08Z</time>
      </trkpt>
      <trkpt lat="43.45961" lon="1.11829">
        <ele>266.6</ele>
        <time>2024-08-01T07:29:09Z</time>
      </trkpt>
      <trkpt lat="43.45958" lon="1.11822">
        <ele>266.6</ele>
        <time>2024-08-01T07:29:10Z</time>
      </trkpt>
      <trkpt lat="43.45955" lon="1.11815">
        <ele>266.4</ele>
        <time>2024-08-01T07:29:11Z</time>
      </trkpt>
      <trkpt lat="43.45953" lon="1.11808">
        <ele>266.4</ele>
        <time>2024-08-01T07:29:12Z</time>
      </trkpt>
      <trkpt lat="43.4595" lon="1.11801">
        <ele>266.4</ele>
        <time>2024-08-01T07:29:13Z</time>
      </trkpt>
      <trkpt lat="43.45947" lon="1.11793">
        <ele>266.2</ele>
        <time>2024-08-01T07:29:14Z</time>
      </trkpt>
      <trkpt lat="43.45945" lon="1.11786">
        <ele>266.2</ele>
        <time>2024-08-01T07:29:15Z</time>
      </trkpt>
      <trkpt lat="43.45942" lon="1.11779">
        <ele>266</ele>
        <time>2024-08-01T07:29:16Z</time>
      </trkpt>
      <trkpt lat="43.45939" lon="1.11771">
        <ele>266</ele>
        <time>2024-08-01T07:29:17Z</time>
      </trkpt>
      <trkpt lat="43.45937" lon="1.11764">
        <ele>265.8</ele>
        <time>2024-08-01T07:29:18Z</time>
      </trkpt>
      <trkpt lat="43.45935" lon="1.11756">
        <ele>265.6</ele>
        <time>2024-08-01T07:29:19Z</time>
      </trkpt>
      <trkpt lat="43.45932" lon="1.11748">
        <ele>265.4</ele>
        <time>2024-08-01T07:29:20Z</time>
      </trkpt>
      <trkpt lat="43.45929" lon="1.11739">
        <ele>265.2</ele>
        <time>2024-08-01T07:29:21Z</time>
      </trkpt>
      <trkpt lat="43.45927" lon="1.11731">
        <ele>265.2</ele>
        <time>2024-08-01T07:29:22Z</time>
      </trkpt>
      <trkpt lat="43.45924" lon="1.11722">
        <ele>265</ele>
        <time>2024-08-01T07:29:23Z</time>
      </trkpt>
      <trkpt lat="43.45921" lon="1.11713">
        <ele>264.8</ele>
        <time>2024-08-01T07:29:24Z</time>
      </trkpt>
      <trkpt lat="43.45918" lon="1.11704">
        <ele>264.6</ele>
        <time>2024-08-01T07:29:25Z</time>
      </trkpt>
      <trkpt lat="43.45915" lon="1.11694">
        <ele>264.2</ele>
        <time>2024-08-01T07:29:26Z</time>
      </trkpt>
      <trkpt lat="43.45911" lon="1.11684">
        <ele>264</ele>
        <time>2024-08-01T07:29:27Z</time>
      </trkpt>
      <trkpt lat="43.45908" lon="1.11673">
        <ele>263.6</ele>
        <time>2024-08-01T07:29:28Z</time>
      </trkpt>
      <trkpt lat="43.45905" lon="1.11663">
        <ele>263.4</ele>
        <time>2024-08-01T07:29:29Z</time>
      </trkpt>
      <trkpt lat="43.45901" lon="1.11652">
        <ele>263</ele>
        <time>2024-08-01T07:29:30Z</time>
      </trkpt>
      <trkpt lat="43.45898" lon="1.11641">
        <ele>262.6</ele>
        <time>2024-08-01T07:29:31Z</time>
      </trkpt>
      <trkpt lat="43.45895" lon="1.11631">
        <ele>262.4</ele>
        <time>2024-08-01T07:29:32Z</time>
      </trkpt>
      <trkpt lat="43.45892" lon="1.11621">
        <ele>261.8</ele>
        <time>2024-08-01T07:29:33Z</time>
      </trkpt>
      <trkpt lat="43.45889" lon="1.11611">
        <ele>261.4</ele>
        <time>2024-08-01T07:29:34Z</time>
      </trkpt>
      <trkpt lat="43.45886" lon="1.11601">
        <ele>261.2</ele>
        <time>2024-08-01T07:29:35Z</time>
      </trkpt>
      <trkpt lat="43.45883" lon="1.11593">
        <ele>261</ele>
        <time>2024-08-01T07:29:36Z</time>
      </trkpt>
      <trkpt lat="43.45881" lon="1.11585">
        <ele>261</ele>
        <time>2024-08-01T07:29:37Z</time>
      </trkpt>
      <trkpt lat="43.45879" lon="1.11577">
        <ele>261</ele>
        <time>2024-08-01T07:29:38Z</time>
      </trkpt>
      <trkpt lat="43.45877" lon="1.11569">
        <ele>261</ele>
        <time>2024-08-01T07:29:39Z</time>
      </trkpt>
      <trkpt lat="43.45876" lon="1.11562">
        <ele>261</ele>
        <time>2024-08-01T07:29:40Z</time>
      </trkpt>
      <trkpt lat="43.45875" lon="1.11555">
        <ele>261</ele>
        <time>2024-08-01T07:29:41Z</time>
      </trkpt>
      <trkpt lat="43.45875" lon="1.11549">
        <ele>261</ele>
        <time>2024-08-01T07:29:42Z</time>
      </trkpt>
      <trkpt lat="43.45875" lon="1.11543">
        <ele>261</ele>
        <time>2024-08-01T07:29:43Z</time>
      </trkpt>
      <trkpt lat="43.45875" lon="1.11537">
        <ele>261.2</ele>
        <time>2024-08-01T07:29:44Z</time>
      </trkpt>
      <trkpt lat="43.45875" lon="1.11531">
        <ele>261.6</ele>
        <time>2024-08-01T07:29:45Z</time>
      </trkpt>
      <trkpt lat="43.45876" lon="1.11525">
        <ele>261.8</ele>
        <time>2024-08-01T07:29:46Z</time>
      </trkpt>
      <trkpt lat="43.45876" lon="1.1152">
        <ele>262.2</ele>
        <time>2024-08-01T07:29:47Z</time>
      </trkpt>
      <trkpt lat="43.45877" lon="1.11513">
        <ele>262.6</ele>
        <time>2024-08-01T07:29:48Z</time>
      </trkpt>
      <trkpt lat="43.45878" lon="1.11507">
        <ele>263</ele>
        <time>2024-08-01T07:29:49Z</time>
      </trkpt>
      <trkpt lat="43.45879" lon="1.11501">
        <ele>263</ele>
        <time>2024-08-01T07:29:50Z</time>
      </trkpt>
      <trkpt lat="43.4588" lon="1.11495">
        <ele>263.6</ele>
        <time>2024-08-01T07:29:51Z</time>
      </trkpt>
      <trkpt lat="43.45881" lon="1.11489">
        <ele>264</ele>
        <time>2024-08-01T07:29:52Z</time>
      </trkpt>
      <trkpt lat="43.45882" lon="1.11483">
        <ele>264</ele>
        <time>2024-08-01T07:29:53Z</time>
      </trkpt>
      <trkpt lat="43.45883" lon="1.11478">
        <ele>264.6</ele>
        <time>2024-08-01T07:29:54Z</time>
      </trkpt>
      <trkpt lat="43.45884" lon="1.11471">
        <ele>264.6</ele>
        <time>2024-08-01T07:29:55Z</time>
      </trkpt>
      <trkpt lat="43.45885" lon="1.11465">
        <ele>265.2</ele>
        <time>2024-08-01T07:29:56Z</time>
      </trkpt>
      <trkpt lat="43.45886" lon="1.1146">
        <ele>265.4</ele>
        <time>2024-08-01T07:29:57Z</time>
      </trkpt>
      <trkpt lat="43.45887" lon="1.11454">
        <ele>266</ele>
        <time>2024-08-01T07:29:58Z</time>
      </trkpt>
      <trkpt lat="43.45888" lon="1.11447">
        <ele>266.8</ele>
        <time>2024-08-01T07:29:59Z</time>
      </trkpt>
      <trkpt lat="43.45889" lon="1.11441">
        <ele>267</ele>
        <time>2024-08-01T07:30:00Z</time>
      </trkpt>
      <trkpt lat="43.45891" lon="1.11435">
        <ele>267.6</ele>
        <time>2024-08-01T07:30:01Z</time>
      </trkpt>
      <trkpt lat="43.45892" lon="1.11429">
        <ele>267.8</ele>
        <time>2024-08-01T07:30:02Z</time>
      </trkpt>
      <trkpt lat="43.45893" lon="1.11423">
        <ele>268.2</ele>
        <time>2024-08-01T07:30:03Z</time>
      </trkpt>
      <trkpt lat="43.45894" lon="1.11417">
        <ele>268.6</ele>
        <time>2024-08-01T07:30:04Z</time>
      </trkpt>
      <trkpt lat="43.45895" lon="1.11411">
        <ele>269</ele>
        <time>2024-08-01T07:30:05Z</time>
      </trkpt>
      <trkpt lat="43.45896" lon="1.11406">
        <ele>269.2</ele>
        <time>2024-08-01T07:30:06Z</time>
      </trkpt>
      <trkpt lat="43.45897" lon="1.11401">
        <ele>269.4</ele>
        <time>2024-08-01T07:30:07Z</time>
      </trkpt>
      <trkpt lat="43.45898" lon="1.11396">
        <ele>269.6</ele>
        <time>2024-08-01T07:30:08Z</time>
      </trkpt>
      <trkpt lat="43.45899" lon="1.11392">
        <ele>269.8</ele>
        <time>2024-08-01T07:30:09Z</time>
      </trkpt>
      <trkpt lat="43.459" lon="1.11387">
        <ele>270.2</ele>
        <time>2024-08-01T07:30:10Z</time>
      </trkpt>
      <trkpt lat="43.45901" lon="1.11382">
        <ele>270.4</ele>
        <time>2024-08-01T07:30:11Z</time>
      </trkpt>
      <trkpt lat="43.45902" lon="1.11377">
        <ele>270.6</ele>
        <time>2024-08-01T07:30:12Z</time>
      </trkpt>
      <trkpt lat="43.45903" lon="1.11372">
        <ele>270.8</ele>
        <time>2024-08-01T07:30:13Z</time>
      </trkpt>
      <trkpt lat="43.45904" lon="1.11367">
        <ele>270.8</ele>
        <time>2024-08-01T07:30:14Z</time>
      </trkpt>
      <trkpt lat="43.45905" lon="1.11362">
        <ele>271</ele>
        <time>2024-08-01T07:30:15Z</time>
      </trkpt>
      <trkpt lat="43.45905" lon="1.11357">
        <ele>271.2</ele>
        <time>2024-08-01T07:30:16Z</time>
      </trkpt>
      <trkpt lat="43.45906" lon="1.11351">
        <ele>271.4</ele>
        <time>2024-08-01T07:30:17Z</time>
      </trkpt>
      <trkpt lat="43.45907" lon="1.11346">
        <ele>271.4</ele>
        <time>2024-08-01T07:30:18Z</time>
      </trkpt>
      <trkpt lat="43.45908" lon="1.11341">
        <ele>271.6</ele>
        <time>2024-08-01T07:30:19Z</time>
      </trkpt>
      <trkpt lat="43.45909" lon="1.11337">
        <ele>271.6</ele>
        <time>2024-08-01T07:30:20Z</time>
      </trkpt>
      <trkpt lat="43.4591" lon="1.11332">
        <ele>271.8</ele>
        <time>2024-08-01T07:30:21Z</time>
      </trkpt>
      <trkpt lat="43.45911" lon="1.11326">
        <ele>271.8</ele>
        <time>2024-08-01T07:30:22Z</time>
      </trkpt>
      <trkpt lat="43.45912" lon="1.11321">
        <ele>271.8</ele>
        <time>2024-08-01T07:30:23Z</time>
      </trkpt>
      <trkpt lat="43.45912" lon="1.11316">
        <ele>272</ele>
        <time>2024-08-01T07:30:24Z</time>
      </trkpt>
      <trkpt lat="43.45914" lon="1.11311">
        <ele>272</ele>
        <time>2024-08-01T07:30:25Z</time>
      </trkpt>
      <trkpt lat="43.45914" lon="1.11306">
        <ele>272.2</ele>
        <time>2024-08-01T07:30:26Z</time>
      </trkpt>
      <trkpt lat="43.45915" lon="1.11301">
        <ele>272.4</ele>
        <time>2024-08-01T07:30:27Z</time>
      </trkpt>
      <trkpt lat="43.45916" lon="1.11296">
        <ele>272.4</ele>
        <time>2024-08-01T07:30:28Z</time>
      </trkpt>
      <trkpt lat="43.45917" lon="1.11291">
        <ele>272.6</ele>
        <time>2024-08-01T07:30:29Z</time>
      </trkpt>
      <trkpt lat="43.45918" lon="1.11285">
        <ele>272.6</ele>
        <time>2024-08-01T07:30:30Z</time>
      </trkpt>
      <trkpt lat="43.45919" lon="1.1128">
        <ele>272.8</ele>
        <time>2024-08-01T07:30:31Z</time>
      </trkpt>
      <trkpt lat="43.4592" lon="1.11275">
        <ele>272.8</ele>
        <time>2024-08-01T07:30:32Z</time>
      </trkpt>
      <trkpt lat="43.45921" lon="1.1127">
        <ele>273</ele>
        <time>2024-08-01T07:30:33Z</time>
      </trkpt>
      <trkpt lat="43.45922" lon="1.11265">
        <ele>273</ele>
        <time>2024-08-01T07:30:34Z</time>
      </trkpt>
      <trkpt lat="43.45923" lon="1.11261">
        <ele>273.2</ele>
        <time>2024-08-01T07:30:35Z</time>
      </trkpt>
      <trkpt lat="43.45923" lon="1.11256">
        <ele>273.4</ele>
        <time>2024-08-01T07:30:36Z</time>
      </trkpt>
      <trkpt lat="43.45924" lon="1.11252">
        <ele>273.4</ele>
        <time>2024-08-01T07:30:37Z</time>
      </trkpt>
      <trkpt lat="43.45925" lon="1.11249">
        <ele>273.4</ele>
        <time>2024-08-01T07:30:38Z</time>
      </trkpt>
      <trkpt lat="43.45925" lon="1.11245">
        <ele>273.6</ele>
        <time>2024-08-01T07:30:39Z</time>
      </trkpt>
      <trkpt lat="43.45926" lon="1.11242">
        <ele>273.6</ele>
        <time>2024-08-01T07:30:40Z</time>
      </trkpt>
      <trkpt lat="43.45926" lon="1.1124">
        <ele>273.8</ele>
        <time>2024-08-01T07:30:41Z</time>
      </trkpt>
      <trkpt lat="43.45927" lon="1.11238">
        <ele>273.8</ele>
        <time>2024-08-01T07:30:42Z</time>
      </trkpt>
      <trkpt lat="43.45927" lon="1.11236">
        <ele>273.8</ele>
        <time>2024-08-01T07:30:43Z</time>
      </trkpt>
      <trkpt lat="43.45928" lon="1.11235">
        <ele>273.8</ele>
        <time>2024-08-01T07:30:44Z</time>
      </trkpt>
      <trkpt lat="43.45928" lon="1.11235">
        <ele>274</ele>
        <time>2024-08-01T07:30:45Z</time>
      </trkpt>
      <trkpt lat="43.45928" lon="1.11235">
        <ele>274</ele>
        <time>2024-08-01T07:30:46Z</time>
      </trkpt>
      <trkpt lat="43.45928" lon="1.11235">
        <ele>274</ele>
        <time>2024-08-01T07:30:47Z</time>
      </trkpt>
      <trkpt lat="43.45928" lon="1.11235">
        <ele>274.2</ele>
        <time>2024-08-01T07:30:48Z</time>
      </trkpt>
      <trkpt lat="43.45928" lon="1.1123">
        <ele>273.8</ele>
        <time>2024-08-01T07:31:38Z</time>
      </trkpt>
      <trkpt lat="43.45928" lon="1.11228">
        <ele>273.8</ele>
        <time>2024-08-01T07:31:39Z</time>
      </trkpt>
      <trkpt lat="43.45928" lon="1.11225">
        <ele>273.8</ele>
        <time>2024-08-01T07:31:40Z</time>
      </trkpt>
      <trkpt lat="43.45929" lon="1.11222">
        <ele>274</ele>
        <time>2024-08-01T07:31:41Z</time>
      </trkpt>
      <trkpt lat="43.4593" lon="1.11219">
        <ele>274</ele>
        <time>2024-08-01T07:31:42Z</time>
      </trkpt>
      <trkpt lat="43.45931" lon="1.11215">
        <ele>274</ele>
        <time>2024-08-01T07:31:43Z</time>
      </trkpt>
      <trkpt lat="43.45932" lon="1.11211">
        <ele>273.8</ele>
        <time>2024-08-01T07:31:44Z</time>
      </trkpt>
      <trkpt lat="43.45933" lon="1.11207">
        <ele>274</ele>
        <time>2024-08-01T07:31:45Z</time>
      </trkpt>
      <trkpt lat="43.45934" lon="1.11203">
        <ele>274.2</ele>
        <time>2024-08-01T07:31:46Z</time>
      </trkpt>
      <trkpt lat="43.45935" lon="1.11198">
        <ele>274.2</ele>
        <time>2024-08-01T07:31:47Z</time>
      </trkpt>
      <trkpt lat="43.45936" lon="1.11194">
        <ele>274</ele>
        <time>2024-08-01T07:31:48Z</time>
      </trkpt>
      <trkpt lat="43.45937" lon="1.1119">
        <ele>274</ele>
        <time>2024-08-01T07:31:49Z</time>
      </trkpt>
      <trkpt lat="43.45938" lon="1.11186">
        <ele>274</ele>
        <time>2024-08-01T07:31:50Z</time>
      </trkpt>
      <trkpt lat="43.4594" lon="1.11182">
        <ele>274.2</ele>
        <time>2024-08-01T07:31:51Z</time>
      </trkpt>
      <trkpt lat="43.45941" lon="1.11177">
        <ele>274.2</ele>
        <time>2024-08-01T07:31:52Z</time>
      </trkpt>
      <trkpt lat="43.45942" lon="1.11173">
        <ele>274.4</ele>
        <time>2024-08-01T07:31:53Z</time>
      </trkpt>
      <trkpt lat="43.45943" lon="1.11168">
        <ele>274.4</ele>
        <time>2024-08-01T07:31:54Z</time>
      </trkpt>
      <trkpt lat="43.45944" lon="1.11164">
        <ele>274.4</ele>
        <time>2024-08-01T07:31:55Z</time>
      </trkpt>
      <trkpt lat="43.45945" lon="1.11159">
        <ele>274.4</ele>
        <time>2024-08-01T07:31:56Z</time>
      </trkpt>
      <trkpt lat="43.45946" lon="1.11154">
        <ele>274.4</ele>
        <time>2024-08-01T07:31:57Z</time>
      </trkpt>
      <trkpt lat="43.45947" lon="1.11149">
        <ele>274.4</ele>
        <time>2024-08-01T07:31:58Z</time>
      </trkpt>
      <trkpt lat="43.45948" lon="1.11144">
        <ele>274.4</ele>
        <time>2024-08-01T07:31:59Z</time>
      </trkpt>
      <trkpt lat="43.45948" lon="1.11138">
        <ele>274.6</ele>
        <time>2024-08-01T07:32:00Z</time>
      </trkpt>
      <trkpt lat="43.45948" lon="1.11132">
        <ele>274.6</ele>
        <time>2024-08-01T07:32:01Z</time>
      </trkpt>
      <trkpt lat="43.45948" lon="1.11126">
        <ele>274.6</ele>
        <time>2024-08-01T07:32:02Z</time>
      </trkpt>
      <trkpt lat="43.45949" lon="1.1112">
        <ele>274.6</ele>
        <time>2024-08-01T07:32:03Z</time>
      </trkpt>
      <trkpt lat="43.4595" lon="1.11114">
        <ele>274.6</ele>
        <time>2024-08-01T07:32:04Z</time>
      </trkpt>
      <trkpt lat="43.45951" lon="1.11107">
        <ele>274.4</ele>
        <time>2024-08-01T07:32:05Z</time>
      </trkpt>
      <trkpt lat="43.45951" lon="1.11101">
        <ele>274.4</ele>
        <time>2024-08-01T07:32:06Z</time>
      </trkpt>
      <trkpt lat="43.45952" lon="1.11094">
        <ele>274.4</ele>
        <time>2024-08-01T07:32:07Z</time>
      </trkpt>
      <trkpt lat="43.45954" lon="1.11088">
        <ele>274.4</ele>
        <time>2024-08-01T07:32:08Z</time>
      </trkpt>
      <trkpt lat="43.45955" lon="1.11081">
        <ele>274.2</ele>
        <time>2024-08-01T07:32:09Z</time>
      </trkpt>
      <trkpt lat="43.45956" lon="1.11075">
        <ele>274.2</ele>
        <time>2024-08-01T07:32:10Z</time>
      </trkpt>
      <trkpt lat="43.45958" lon="1.11069">
        <ele>274.2</ele>
        <time>2024-08-01T07:32:11Z</time>
      </trkpt>
      <trkpt lat="43.45959" lon="1.11063">
        <ele>274.2</ele>
        <time>2024-08-01T07:32:12Z</time>
      </trkpt>
      <trkpt lat="43.45961" lon="1.11057">
        <ele>274.2</ele>
        <time>2024-08-01T07:32:13Z</time>
      </trkpt>
      <trkpt lat="43.45962" lon="1.1105">
        <ele>274</ele>
        <time>2024-08-01T07:32:14Z</time>
      </trkpt>
      <trkpt lat="43.45964" lon="1.11043">
        <ele>274</ele>
        <time>2024-08-01T07:32:15Z</time>
      </trkpt>
      <trkpt lat="43.45965" lon="1.11036">
        <ele>273.8</ele>
        <time>2024-08-01T07:32:16Z</time>
      </trkpt>
      <trkpt lat="43.45966" lon="1.11029">
        <ele>273.8</ele>
        <time>2024-08-01T07:32:17Z</time>
      </trkpt>
      <trkpt lat="43.45967" lon="1.11023">
        <ele>273.8</ele>
        <time>2024-08-01T07:32:18Z</time>
      </trkpt>
      <trkpt lat="43.45968" lon="1.11016">
        <ele>273.8</ele>
        <time>2024-08-01T07:32:19Z</time>
      </trkpt>
      <trkpt lat="43.4597" lon="1.1101">
        <ele>273.8</ele>
        <time>2024-08-01T07:32:20Z</time>
      </trkpt>
      <trkpt lat="43.45971" lon="1.11003">
        <ele>273.8</ele>
        <time>2024-08-01T07:32:21Z</time>
      </trkpt>
      <trkpt lat="43.45972" lon="1.10997">
        <ele>273.8</ele>
        <time>2024-08-01T07:32:22Z</time>
      </trkpt>
      <trkpt lat="43.45973" lon="1.1099">
        <ele>273.8</ele>
        <time>2024-08-01T07:32:23Z</time>
      </trkpt>
      <trkpt lat="43.45974" lon="1.10984">
        <ele>273.8</ele>
        <time>2024-08-01T07:32:24Z</time>
      </trkpt>
      <trkpt lat="43.45976" lon="1.10977">
        <ele>273.8</ele>
        <time>2024-08-01T07:32:25Z</time>
      </trkpt>
      <trkpt lat="43.45977" lon="1.1097">
        <ele>274</ele>
        <time>2024-08-01T07:32:26Z</time>
      </trkpt>
      <trkpt lat="43.45978" lon="1.10964">
        <ele>274</ele>
        <time>2024-08-01T07:32:27Z</time>
      </trkpt>
      <trkpt lat="43.45979" lon="1.10957">
        <ele>274</ele>
        <time>2024-08-01T07:32:28Z</time>
      </trkpt>
      <trkpt lat="43.4598" lon="1.1095">
        <ele>274.2</ele>
        <time>2024-08-01T07:32:29Z</time>
      </trkpt>
      <trkpt lat="43.45981" lon="1.10942">
        <ele>274.2</ele>
        <time>2024-08-01T07:32:30Z</time>
      </trkpt>
      <trkpt lat="43.45981" lon="1.10935">
        <ele>274.4</ele>
        <time>2024-08-01T07:32:31Z</time>
      </trkpt>
      <trkpt lat="43.45982" lon="1.10929">
        <ele>274.4</ele>
        <time>2024-08-01T07:32:32Z</time>
      </trkpt>
      <trkpt lat="43.45982" lon="1.10922">
        <ele>274.6</ele>
        <time>2024-08-01T07:32:33Z</time>
      </trkpt>
      <trkpt lat="43.45983" lon="1.10915">
        <ele>274.6</ele>
        <time>2024-08-01T07:32:34Z</time>
      </trkpt>
      <trkpt lat="43.45983" lon="1.10908">
        <ele>274.8</ele>
        <time>2024-08-01T07:32:35Z</time>
      </trkpt>
      <trkpt lat="43.45984" lon="1.10901">
        <ele>274.8</ele>
        <time>2024-08-01T07:32:36Z</time>
      </trkpt>
      <trkpt lat="43.45984" lon="1.10894">
        <ele>275</ele>
        <time>2024-08-01T07:32:37Z</time>
      </trkpt>
      <trkpt lat="43.45984" lon="1.10888">
        <ele>275.2</ele>
        <time>2024-08-01T07:32:38Z</time>
      </trkpt>
      <trkpt lat="43.45985" lon="1.10881">
        <ele>275.4</ele>
        <time>2024-08-01T07:32:39Z</time>
      </trkpt>
      <trkpt lat="43.45985" lon="1.10874">
        <ele>275.4</ele>
        <time>2024-08-01T07:32:40Z</time>
      </trkpt>
      <trkpt lat="43.45985" lon="1.10867">
        <ele>275.6</ele>
        <time>2024-08-01T07:32:41Z</time>
      </trkpt>
      <trkpt lat="43.45986" lon="1.1086">
        <ele>275.8</ele>
        <time>2024-08-01T07:32:42Z</time>
      </trkpt>
      <trkpt lat="43.45986" lon="1.10853">
        <ele>275.8</ele>
        <time>2024-08-01T07:32:43Z</time>
      </trkpt>
      <trkpt lat="43.45987" lon="1.10847">
        <ele>275.8</ele>
        <time>2024-08-01T07:32:44Z</time>
      </trkpt>
      <trkpt lat="43.45987" lon="1.1084">
        <ele>276</ele>
        <time>2024-08-01T07:32:45Z</time>
      </trkpt>
      <trkpt lat="43.45988" lon="1.10833">
        <ele>276</ele>
        <time>2024-08-01T07:32:46Z</time>
      </trkpt>
      <trkpt lat="43.45988" lon="1.10826">
        <ele>276.2</ele>
        <time>2024-08-01T07:32:47Z</time>
      </trkpt>
      <trkpt lat="43.45988" lon="1.10819">
        <ele>276.4</ele>
        <time>2024-08-01T07:32:48Z</time>
      </trkpt>
      <trkpt lat="43.45989" lon="1.10813">
        <ele>276.6</ele>
        <time>2024-08-01T07:32:49Z</time>
      </trkpt>
      <trkpt lat="43.45989" lon="1.10806">
        <ele>276.6</ele>
        <time>2024-08-01T07:32:50Z</time>
      </trkpt>
      <trkpt lat="43.45989" lon="1.10799">
        <ele>276.8</ele>
        <time>2024-08-01T07:32:51Z</time>
      </trkpt>
      <trkpt lat="43.4599" lon="1.10793">
        <ele>276.8</ele>
        <time>2024-08-01T07:32:52Z</time>
      </trkpt>
      <trkpt lat="43.4599" lon="1.10786">
        <ele>277</ele>
        <time>2024-08-01T07:32:53Z</time>
      </trkpt>
      <trkpt lat="43.4599" lon="1.1078">
        <ele>277.2</ele>
        <time>2024-08-01T07:32:54Z</time>
      </trkpt>
      <trkpt lat="43.45991" lon="1.10774">
        <ele>277.4</ele>
        <time>2024-08-01T07:32:55Z</time>
      </trkpt>
      <trkpt lat="43.45991" lon="1.10768">
        <ele>277.6</ele>
        <time>2024-08-01T07:32:56Z</time>
      </trkpt>
      <trkpt lat="43.45992" lon="1.10762">
        <ele>277.6</ele>
        <time>2024-08-01T07:32:57Z</time>
      </trkpt>
      <trkpt lat="43.45992" lon="1.10755">
        <ele>277.8</ele>
        <time>2024-08-01T07:32:58Z</time>
      </trkpt>
      <trkpt lat="43.45992" lon="1.10749">
        <ele>278</ele>
        <time>2024-08-01T07:32:59Z</time>
      </trkpt>
      <trkpt lat="43.45993" lon="1.10743">
        <ele>278</ele>
        <time>2024-08-01T07:33:00Z</time>
      </trkpt>
      <trkpt lat="43.45993" lon="1.10737">
        <ele>278.2</ele>
        <time>2024-08-01T07:33:01Z</time>
      </trkpt>
      <trkpt lat="43.45993" lon="1.10731">
        <ele>278.4</ele>
        <time>2024-08-01T07:33:02Z</time>
      </trkpt>
      <trkpt lat="43.45993" lon="1.10724">
        <ele>278.8</ele>
        <time>2024-08-01T07:33:03Z</time>
      </trkpt>
      <trkpt lat="43.45994" lon="1.10718">
        <ele>279</ele>
        <time>2024-08-01T07:33:04Z</time>
      </trkpt>
      <trkpt lat="43.45994" lon="1.10712">
        <ele>279.2</ele>
        <time>2024-08-01T07:33:05Z</time>
      </trkpt>
      <trkpt lat="43.45995" lon="1.10704">
        <ele>279.4</ele>
        <time>2024-08-01T07:33:06Z</time>
      </trkpt>
      <trkpt lat="43.45995" lon="1.10698">
        <ele>279.4</ele>
        <time>2024-08-01T07:33:07Z</time>
      </trkpt>
      <trkpt lat="43.45995" lon="1.10691">
        <ele>279.6</ele>
        <time>2024-08-01T07:33:08Z</time>
      </trkpt>
      <trkpt lat="43.45996" lon="1.10685">
        <ele>279.6</ele>
        <time>2024-08-01T07:33:09Z</time>
      </trkpt>
      <trkpt lat="43.45996" lon="1.10678">
        <ele>279.8</ele>
        <time>2024-08-01T07:33:10Z</time>
      </trkpt>
      <trkpt lat="43.45996" lon="1.10672">
        <ele>280.2</ele>
        <time>2024-08-01T07:33:11Z</time>
      </trkpt>
      <trkpt lat="43.45997" lon="1.10666">
        <ele>280.2</ele>
        <time>2024-08-01T07:33:12Z</time>
      </trkpt>
      <trkpt lat="43.45997" lon="1.1066">
        <ele>280.4</ele>
        <time>2024-08-01T07:33:13Z</time>
      </trkpt>
      <trkpt lat="43.45997" lon="1.10654">
        <ele>280.6</ele>
        <time>2024-08-01T07:33:14Z</time>
      </trkpt>
      <trkpt lat="43.45998" lon="1.10648">
        <ele>280.8</ele>
        <time>2024-08-01T07:33:15Z</time>
      </trkpt>
      <trkpt lat="43.45998" lon="1.10642">
        <ele>280.8</ele>
        <time>2024-08-01T07:33:16Z</time>
      </trkpt>
      <trkpt lat="43.45998" lon="1.10636">
        <ele>281</ele>
        <time>2024-08-01T07:33:17Z</time>
      </trkpt>
      <trkpt lat="43.45999" lon="1.1063">
        <ele>281.2</ele>
        <time>2024-08-01T07:33:18Z</time>
      </trkpt>
      <trkpt lat="43.45999" lon="1.10624">
        <ele>281.2</ele>
        <time>2024-08-01T07:33:19Z</time>
      </trkpt>
      <trkpt lat="43.45999" lon="1.10619">
        <ele>281.6</ele>
        <time>2024-08-01T07:33:20Z</time>
      </trkpt>
      <trkpt lat="43.46" lon="1.10613">
        <ele>281.8</ele>
        <time>2024-08-01T07:33:21Z</time>
      </trkpt>
      <trkpt lat="43.46" lon="1.10608">
        <ele>282</ele>
        <time>2024-08-01T07:33:22Z</time>
      </trkpt>
      <trkpt lat="43.46" lon="1.10604">
        <ele>282.2</ele>
        <time>2024-08-01T07:33:23Z</time>
      </trkpt>
      <trkpt lat="43.46" lon="1.10599">
        <ele>282.6</ele>
        <time>2024-08-01T07:33:24Z</time>
      </trkpt>
      <trkpt lat="43.46" lon="1.10594">
        <ele>282.8</ele>
        <time>2024-08-01T07:33:25Z</time>
      </trkpt>
      <trkpt lat="43.46001" lon="1.10589">
        <ele>283</ele>
        <time>2024-08-01T07:33:26Z</time>
      </trkpt>
      <trkpt lat="43.46001" lon="1.10584">
        <ele>283.4</ele>
        <time>2024-08-01T07:33:27Z</time>
      </trkpt>
      <trkpt lat="43.46001" lon="1.10579">
        <ele>283.4</ele>
        <time>2024-08-01T07:33:28Z</time>
      </trkpt>
      <trkpt lat="43.46001" lon="1.10574">
        <ele>283.6</ele>
        <time>2024-08-01T07:33:29Z</time>
      </trkpt>
      <trkpt lat="43.46002" lon="1.10569">
        <ele>283.6</ele>
        <time>2024-08-01T07:33:30Z</time>
      </trkpt>
      <trkpt lat="43.46002" lon="1.10563">
        <ele>283.8</ele>
        <time>2024-08-01T07:33:31Z</time>
      </trkpt>
      <trkpt lat="43.46003" lon="1.10558">
        <ele>284.2</ele>
        <time>2024-08-01T07:33:32Z</time>
      </trkpt>
      <trkpt lat="43.46003" lon="1.10552">
        <ele>284.4</ele>
        <time>2024-08-01T07:33:33Z</time>
      </trkpt>
      <trkpt lat="43.46003" lon="1.10547">
        <ele>284.6</ele>
        <time>2024-08-01T07:33:34Z</time>
      </trkpt>
      <trkpt lat="43.46003" lon="1.10541">
        <ele>284.8</ele>
        <time>2024-08-01T07:33:35Z</time>
      </trkpt>
      <trkpt lat="43.46003" lon="1.10536">
        <ele>284.8</ele>
        <time>2024-08-01T07:33:36Z</time>
      </trkpt>
      <trkpt lat="43.46003" lon="1.1053">
        <ele>285</ele>
        <time>2024-08-01T07:33:37Z</time>
      </trkpt>
      <trkpt lat="43.46004" lon="1.10524">
        <ele>285.2</ele>
        <time>2024-08-01T07:33:38Z</time>
      </trkpt>
      <trkpt lat="43.46004" lon="1.10519">
        <ele>285.4</ele>
        <time>2024-08-01T07:33:39Z</time>
      </trkpt>
      <trkpt lat="43.46004" lon="1.10513">
        <ele>285.6</ele>
        <time>2024-08-01T07:33:40Z</time>
      </trkpt>
      <trkpt lat="43.46004" lon="1.10507">
        <ele>285.8</ele>
        <time>2024-08-01T07:33:41Z</time>
      </trkpt>
      <trkpt lat="43.46004" lon="1.10502">
        <ele>285.8</ele>
        <time>2024-08-01T07:33:42Z</time>
      </trkpt>
      <trkpt lat="43.46004" lon="1.10496">
        <ele>286</ele>
        <time>2024-08-01T07:33:43Z</time>
      </trkpt>
      <trkpt lat="43.46004" lon="1.1049">
        <ele>286.2</ele>
        <time>2024-08-01T07:33:44Z</time>
      </trkpt>
      <trkpt lat="43.46003" lon="1.10484">
        <ele>286.4</ele>
        <time>2024-08-01T07:33:45Z</time>
      </trkpt>
      <trkpt lat="43.46003" lon="1.10479">
        <ele>286.8</ele>
        <time>2024-08-01T07:33:46Z</time>
      </trkpt>
      <trkpt lat="43.46003" lon="1.10473">
        <ele>286.8</ele>
        <time>2024-08-01T07:33:47Z</time>
      </trkpt>
      <trkpt lat="43.46003" lon="1.10468">
        <ele>287</ele>
        <time>2024-08-01T07:33:48Z</time>
      </trkpt>
      <trkpt lat="43.46003" lon="1.10463">
        <ele>287</ele>
        <time>2024-08-01T07:33:49Z</time>
      </trkpt>
      <trkpt lat="43.46003" lon="1.10457">
        <ele>287.4</ele>
        <time>2024-08-01T07:33:50Z</time>
      </trkpt>
      <trkpt lat="43.46003" lon="1.10452">
        <ele>287.4</ele>
        <time>2024-08-01T07:33:51Z</time>
      </trkpt>
      <trkpt lat="43.46003" lon="1.10446">
        <ele>287.6</ele>
        <time>2024-08-01T07:33:52Z</time>
      </trkpt>
      <trkpt lat="43.46003" lon="1.10441">
        <ele>287.8</ele>
        <time>2024-08-01T07:33:53Z</time>
      </trkpt>
      <trkpt lat="43.46003" lon="1.10435">
        <ele>288</ele>
        <time>2024-08-01T07:33:54Z</time>
      </trkpt>
      <trkpt lat="43.46003" lon="1.1043">
        <ele>288</ele>
        <time>2024-08-01T07:33:55Z</time>
      </trkpt>
      <trkpt lat="43.46002" lon="1.10425">
        <ele>288.2</ele>
        <time>2024-08-01T07:33:56Z</time>
      </trkpt>
      <trkpt lat="43.46002" lon="1.1042">
        <ele>288.2</ele>
        <time>2024-08-01T07:33:57Z</time>
      </trkpt>
      <trkpt lat="43.46002" lon="1.10414">
        <ele>288.2</ele>
        <time>2024-08-01T07:33:58Z</time>
      </trkpt>
      <trkpt lat="43.46002" lon="1.10409">
        <ele>288.6</ele>
        <time>2024-08-01T07:33:59Z</time>
      </trkpt>
      <trkpt lat="43.46002" lon="1.10404">
        <ele>288.8</ele>
        <time>2024-08-01T07:34:00Z</time>
      </trkpt>
      <trkpt lat="43.46001" lon="1.10399">
        <ele>289</ele>
        <time>2024-08-01T07:34:01Z</time>
      </trkpt>
      <trkpt lat="43.46001" lon="1.10394">
        <ele>289</ele>
        <time>2024-08-01T07:34:02Z</time>
      </trkpt>
      <trkpt lat="43.46001" lon="1.10389">
        <ele>289.2</ele>
        <time>2024-08-01T07:34:03Z</time>
      </trkpt>
      <trkpt lat="43.46001" lon="1.10383">
        <ele>289.4</ele>
        <time>2024-08-01T07:34:04Z</time>
      </trkpt>
      <trkpt lat="43.46001" lon="1.10378">
        <ele>289.6</ele>
        <time>2024-08-01T07:34:05Z</time>
      </trkpt>
      <trkpt lat="43.46001" lon="1.10373">
        <ele>290</ele>
        <time>2024-08-01T07:34:06Z</time>
      </trkpt>
      <trkpt lat="43.46001" lon="1.10367">
        <ele>290.2</ele>
        <time>2024-08-01T07:34:07Z</time>
      </trkpt>
      <trkpt lat="43.46" lon="1.10362">
        <ele>290.2</ele>
        <time>2024-08-01T07:34:08Z</time>
      </trkpt>
      <trkpt lat="43.46" lon="1.10357">
        <ele>290.4</ele>
        <time>2024-08-01T07:34:09Z</time>
      </trkpt>
      <trkpt lat="43.46" lon="1.10352">
        <ele>290.4</ele>
        <time>2024-08-01T07:34:10Z</time>
      </trkpt>
      <trkpt lat="43.46" lon="1.10347">
        <ele>290.6</ele>
        <time>2024-08-01T07:34:11Z</time>
      </trkpt>
      <trkpt lat="43.46" lon="1.10342">
        <ele>290.8</ele>
        <time>2024-08-01T07:34:12Z</time>
      </trkpt>
      <trkpt lat="43.46" lon="1.10337">
        <ele>291</ele>
        <time>2024-08-01T07:34:13Z</time>
      </trkpt>
      <trkpt lat="43.45999" lon="1.10332">
        <ele>291.2</ele>
        <time>2024-08-01T07:34:14Z</time>
      </trkpt>
      <trkpt lat="43.45999" lon="1.10326">
        <ele>291.4</ele>
        <time>2024-08-01T07:34:15Z</time>
      </trkpt>
      <trkpt lat="43.45999" lon="1.10321">
        <ele>291.6</ele>
        <time>2024-08-01T07:34:16Z</time>
      </trkpt>
      <trkpt lat="43.45999" lon="1.10316">
        <ele>291.8</ele>
        <time>2024-08-01T07:34:17Z</time>
      </trkpt>
      <trkpt lat="43.45999" lon="1.10311">
        <ele>292</ele>
        <time>2024-08-01T07:34:18Z</time>
      </trkpt>
      <trkpt lat="43.45999" lon="1.10306">
        <ele>292.2</ele>
        <time>2024-08-01T07:34:19Z</time>
      </trkpt>
      <trkpt lat="43.45998" lon="1.10301">
        <ele>292.2</ele>
        <time>2024-08-01T07:34:20Z</time>
      </trkpt>
      <trkpt lat="43.45998" lon="1.10296">
        <ele>292.6</ele>
        <time>2024-08-01T07:34:21Z</time>
      </trkpt>
      <trkpt lat="43.45998" lon="1.10291">
        <ele>292.8</ele>
        <time>2024-08-01T07:34:22Z</time>
      </trkpt>
      <trkpt lat="43.45998" lon="1.10285">
        <ele>293.2</ele>
        <time>2024-08-01T07:34:23Z</time>
      </trkpt>
      <trkpt lat="43.45998" lon="1.1028">
        <ele>293.2</ele>
        <time>2024-08-01T07:34:24Z</time>
      </trkpt>
      <trkpt lat="43.45998" lon="1.10275">
        <ele>293.4</ele>
        <time>2024-08-01T07:34:25Z</time>
      </trkpt>
      <trkpt lat="43.45997" lon="1.1027">
        <ele>293.6</ele>
        <time>2024-08-01T07:34:26Z</time>
      </trkpt>
      <trkpt lat="43.45997" lon="1.10265">
        <ele>293.8</ele>
        <time>2024-08-01T07:34:27Z</time>
      </trkpt>
      <trkpt lat="43.45997" lon="1.10259">
        <ele>294.2</ele>
        <time>2024-08-01T07:34:28Z</time>
      </trkpt>
      <trkpt lat="43.45997" lon="1.10254">
        <ele>294.2</ele>
        <time>2024-08-01T07:34:29Z</time>
      </trkpt>
      <trkpt lat="43.45996" lon="1.10249">
        <ele>294.6</ele>
        <time>2024-08-01T07:34:30Z</time>
      </trkpt>
      <trkpt lat="43.45996" lon="1.10244">
        <ele>294.6</ele>
        <time>2024-08-01T07:34:31Z</time>
      </trkpt>
      <trkpt lat="43.45995" lon="1.10239">
        <ele>294.8</ele>
        <time>2024-08-01T07:34:32Z</time>
      </trkpt>
      <trkpt lat="43.45995" lon="1.10234">
        <ele>295</ele>
        <time>2024-08-01T07:34:33Z</time>
      </trkpt>
      <trkpt lat="43.45995" lon="1.1023">
        <ele>295</ele>
        <time>2024-08-01T07:34:34Z</time>
      </trkpt>
      <trkpt lat="43.45994" lon="1.10225">
        <ele>295.2</ele>
        <time>2024-08-01T07:34:35Z</time>
      </trkpt>
      <trkpt lat="43.45994" lon="1.1022">
        <ele>295.4</ele>
        <time>2024-08-01T07:34:36Z</time>
      </trkpt>
      <trkpt lat="43.45994" lon="1.10215">
        <ele>295.8</ele>
        <time>2024-08-01T07:34:37Z</time>
      </trkpt>
      <trkpt lat="43.45993" lon="1.1021">
        <ele>296</ele>
        <time>2024-08-01T07:34:38Z</time>
      </trkpt>
      <trkpt lat="43.45993" lon="1.10206">
        <ele>296.2</ele>
        <time>2024-08-01T07:34:39Z</time>
      </trkpt>
      <trkpt lat="43.45992" lon="1.10201">
        <ele>296.4</ele>
        <time>2024-08-01T07:34:40Z</time>
      </trkpt>
      <trkpt lat="43.45992" lon="1.10196">
        <ele>296.6</ele>
        <time>2024-08-01T07:34:41Z</time>
      </trkpt>
      <trkpt lat="43.45992" lon="1.10192">
        <ele>297</ele>
        <time>2024-08-01T07:34:42Z</time>
      </trkpt>
      <trkpt lat="43.45992" lon="1.10187">
        <ele>297</ele>
        <time>2024-08-01T07:34:43Z</time>
      </trkpt>
      <trkpt lat="43.45991" lon="1.10182">
        <ele>297.4</ele>
        <time>2024-08-01T07:34:44Z</time>
      </trkpt>
      <trkpt lat="43.4599" lon="1.10177">
        <ele>297.6</ele>
        <time>2024-08-01T07:34:45Z</time>
      </trkpt>
      <trkpt lat="43.4599" lon="1.10172">
        <ele>298</ele>
        <time>2024-08-01T07:34:46Z</time>
      </trkpt>
      <trkpt lat="43.45989" lon="1.10167">
        <ele>298.4</ele>
        <time>2024-08-01T07:34:47Z</time>
      </trkpt>
      <trkpt lat="43.45989" lon="1.10162">
        <ele>298.6</ele>
        <time>2024-08-01T07:34:48Z</time>
      </trkpt>
      <trkpt lat="43.45988" lon="1.10157">
        <ele>298.8</ele>
        <time>2024-08-01T07:34:49Z</time>
      </trkpt>
      <trkpt lat="43.45988" lon="1.10153">
        <ele>299</ele>
        <time>2024-08-01T07:34:50Z</time>
      </trkpt>
      <trkpt lat="43.45987" lon="1.10149">
        <ele>299.2</ele>
        <time>2024-08-01T07:34:51Z</time>
      </trkpt>
      <trkpt lat="43.45987" lon="1.10145">
        <ele>299.4</ele>
        <time>2024-08-01T07:34:52Z</time>
      </trkpt>
      <trkpt lat="43.45986" lon="1.1014">
        <ele>299.8</ele>
        <time>2024-08-01T07:34:53Z</time>
      </trkpt>
      <trkpt lat="43.45986" lon="1.10136">
        <ele>300</ele>
        <time>2024-08-01T07:34:54Z</time>
      </trkpt>
      <trkpt lat="43.45985" lon="1.10131">
        <ele>300.2</ele>
        <time>2024-08-01T07:34:55Z</time>
      </trkpt>
      <trkpt lat="43.45985" lon="1.10127">
        <ele>300.6</ele>
        <time>2024-08-01T07:34:56Z</time>
      </trkpt>
      <trkpt lat="43.45984" lon="1.10122">
        <ele>300.8</ele>
        <time>2024-08-01T07:34:57Z</time>
      </trkpt>
      <trkpt lat="43.45984" lon="1.10117">
        <ele>301</ele>
        <time>2024-08-01T07:34:58Z</time>
      </trkpt>
      <trkpt lat="43.45983" lon="1.10112">
        <ele>301</ele>
        <time>2024-08-01T07:34:59Z</time>
      </trkpt>
      <trkpt lat="43.45982" lon="1.10106">
        <ele>301.4</ele>
        <time>2024-08-01T07:35:00Z</time>
      </trkpt>
      <trkpt lat="43.45982" lon="1.10101">
        <ele>301.8</ele>
        <time>2024-08-01T07:35:01Z</time>
      </trkpt>
      <trkpt lat="43.45981" lon="1.10097">
        <ele>302</ele>
        <time>2024-08-01T07:35:02Z</time>
      </trkpt>
      <trkpt lat="43.4598" lon="1.10092">
        <ele>302.4</ele>
        <time>2024-08-01T07:35:03Z</time>
      </trkpt>
      <trkpt lat="43.4598" lon="1.10087">
        <ele>302.6</ele>
        <time>2024-08-01T07:35:04Z</time>
      </trkpt>
      <trkpt lat="43.4598" lon="1.10083">
        <ele>302.8</ele>
        <time>2024-08-01T07:35:05Z</time>
      </trkpt>
      <trkpt lat="43.4598" lon="1.10079">
        <ele>303</ele>
        <time>2024-08-01T07:35:06Z</time>
      </trkpt>
      <trkpt lat="43.45979" lon="1.10074">
        <ele>303.4</ele>
        <time>2024-08-01T07:35:07Z</time>
      </trkpt>
      <trkpt lat="43.45979" lon="1.10068">
        <ele>303.8</ele>
        <time>2024-08-01T07:35:08Z</time>
      </trkpt>
      <trkpt lat="43.45979" lon="1.10062">
        <ele>304</ele>
        <time>2024-08-01T07:35:09Z</time>
      </trkpt>
      <trkpt lat="43.45978" lon="1.10056">
        <ele>304.2</ele>
        <time>2024-08-01T07:35:10Z</time>
      </trkpt>
      <trkpt lat="43.45977" lon="1.1005">
        <ele>304.4</ele>
        <time>2024-08-01T07:35:11Z</time>
      </trkpt>
      <trkpt lat="43.45977" lon="1.10045">
        <ele>304.6</ele>
        <time>2024-08-01T07:35:12Z</time>
      </trkpt>
      <trkpt lat="43.45976" lon="1.10041">
        <ele>304.8</ele>
        <time>2024-08-01T07:35:13Z</time>
      </trkpt>
      <trkpt lat="43.45975" lon="1.10035">
        <ele>305.2</ele>
        <time>2024-08-01T07:35:14Z</time>
      </trkpt>
      <trkpt lat="43.45974" lon="1.1003">
        <ele>305.6</ele>
        <time>2024-08-01T07:35:15Z</time>
      </trkpt>
      <trkpt lat="43.45974" lon="1.10024">
        <ele>305.6</ele>
        <time>2024-08-01T07:35:16Z</time>
      </trkpt>
      <trkpt lat="43.45973" lon="1.10019">
        <ele>306</ele>
        <time>2024-08-01T07:35:17Z</time>
      </trkpt>
      <trkpt lat="43.45972" lon="1.10014">
        <ele>306.2</ele>
        <time>2024-08-01T07:35:18Z</time>
      </trkpt>
      <trkpt lat="43.45972" lon="1.10009">
        <ele>306.6</ele>
        <time>2024-08-01T07:35:19Z</time>
      </trkpt>
      <trkpt lat="43.45972" lon="1.10005">
        <ele>306.6</ele>
        <time>2024-08-01T07:35:20Z</time>
      </trkpt>
      <trkpt lat="43.45972" lon="1.1">
        <ele>306.8</ele>
        <time>2024-08-01T07:35:21Z</time>
      </trkpt>
      <trkpt lat="43.45972" lon="1.09994">
        <ele>307.2</ele>
        <time>2024-08-01T07:35:22Z</time>
      </trkpt>
      <trkpt lat="43.45971" lon="1.09989">
        <ele>307.4</ele>
        <time>2024-08-01T07:35:23Z</time>
      </trkpt>
      <trkpt lat="43.45971" lon="1.09984">
        <ele>308</ele>
        <time>2024-08-01T07:35:24Z</time>
      </trkpt>
      <trkpt lat="43.4597" lon="1.09979">
        <ele>308.2</ele>
        <time>2024-08-01T07:35:25Z</time>
      </trkpt>
      <trkpt lat="43.45969" lon="1.09974">
        <ele>308.4</ele>
        <time>2024-08-01T07:35:26Z</time>
      </trkpt>
      <trkpt lat="43.45968" lon="1.09969">
        <ele>308.8</ele>
        <time>2024-08-01T07:35:27Z</time>
      </trkpt>
      <trkpt lat="43.45966" lon="1.09964">
        <ele>309</ele>
        <time>2024-08-01T07:35:28Z</time>
      </trkpt>
      <trkpt lat="43.45966" lon="1.09959">
        <ele>309.4</ele>
        <time>2024-08-01T07:35:29Z</time>
      </trkpt>
      <trkpt lat="43.45964" lon="1.09953">
        <ele>309.4</ele>
        <time>2024-08-01T07:35:30Z</time>
      </trkpt>
      <trkpt lat="43.45963" lon="1.09948">
        <ele>309.8</ele>
        <time>2024-08-01T07:35:31Z</time>
      </trkpt>
      <trkpt lat="43.45962" lon="1.09944">
        <ele>310</ele>
        <time>2024-08-01T07:35:32Z</time>
      </trkpt>
      <trkpt lat="43.45961" lon="1.09938">
        <ele>310.4</ele>
        <time>2024-08-01T07:35:33Z</time>
      </trkpt>
      <trkpt lat="43.4596" lon="1.09934">
        <ele>310.8</ele>
        <time>2024-08-01T07:35:34Z</time>
      </trkpt>
      <trkpt lat="43.45958" lon="1.09929">
        <ele>311</ele>
        <time>2024-08-01T07:35:35Z</time>
      </trkpt>
      <trkpt lat="43.45957" lon="1.09925">
        <ele>311.2</ele>
        <time>2024-08-01T07:35:36Z</time>
      </trkpt>
      <trkpt lat="43.45956" lon="1.0992">
        <ele>311.4</ele>
        <time>2024-08-01T07:35:37Z</time>
      </trkpt>
      <trkpt lat="43.45955" lon="1.09914">
        <ele>311.4</ele>
        <time>2024-08-01T07:35:38Z</time>
      </trkpt>
      <trkpt lat="43.45954" lon="1.09909">
        <ele>311.6</ele>
        <time>2024-08-01T07:35:39Z</time>
      </trkpt>
      <trkpt lat="43.45953" lon="1.09905">
        <ele>312.2</ele>
        <time>2024-08-01T07:35:40Z</time>
      </trkpt>
      <trkpt lat="43.45951" lon="1.099">
        <ele>312.4</ele>
        <time>2024-08-01T07:35:41Z</time>
      </trkpt>
      <trkpt lat="43.4595" lon="1.09895">
        <ele>312.6</ele>
        <time>2024-08-01T07:35:42Z</time>
      </trkpt>
      <trkpt lat="43.45949" lon="1.09889">
        <ele>313</ele>
        <time>2024-08-01T07:35:43Z</time>
      </trkpt>
      <trkpt lat="43.45948" lon="1.09884">
        <ele>313.2</ele>
        <time>2024-08-01T07:35:44Z</time>
      </trkpt>
      <trkpt lat="43.45947" lon="1.09879">
        <ele>313.6</ele>
        <time>2024-08-01T07:35:45Z</time>
      </trkpt>
      <trkpt lat="43.45946" lon="1.09873">
        <ele>313.8</ele>
        <time>2024-08-01T07:35:46Z</time>
      </trkpt>
      <trkpt lat="43.45946" lon="1.09868">
        <ele>314.2</ele>
        <time>2024-08-01T07:35:47Z</time>
      </trkpt>
      <trkpt lat="43.45945" lon="1.09862">
        <ele>314.4</ele>
        <time>2024-08-01T07:35:48Z</time>
      </trkpt>
      <trkpt lat="43.45945" lon="1.09856">
        <ele>314.4</ele>
        <time>2024-08-01T07:35:49Z</time>
      </trkpt>
      <trkpt lat="43.45944" lon="1.0985">
        <ele>314.6</ele>
        <time>2024-08-01T07:35:50Z</time>
      </trkpt>
      <trkpt lat="43.45944" lon="1.09844">
        <ele>314.8</ele>
        <time>2024-08-01T07:35:51Z</time>
      </trkpt>
      <trkpt lat="43.45944" lon="1.09838">
        <ele>315.2</ele>
        <time>2024-08-01T07:35:52Z</time>
      </trkpt>
      <trkpt lat="43.45944" lon="1.09832">
        <ele>315.2</ele>
        <time>2024-08-01T07:35:53Z</time>
      </trkpt>
      <trkpt lat="43.45944" lon="1.09826">
        <ele>315.4</ele>
        <time>2024-08-01T07:35:54Z</time>
      </trkpt>
      <trkpt lat="43.45944" lon="1.09819">
        <ele>315.8</ele>
        <time>2024-08-01T07:35:55Z</time>
      </trkpt>
      <trkpt lat="43.45945" lon="1.09813">
        <ele>316</ele>
        <time>2024-08-01T07:35:56Z</time>
      </trkpt>
      <trkpt lat="43.45945" lon="1.09807">
        <ele>316.2</ele>
        <time>2024-08-01T07:35:57Z</time>
      </trkpt>
      <trkpt lat="43.45945" lon="1.098">
        <ele>316.2</ele>
        <time>2024-08-01T07:35:58Z</time>
      </trkpt>
      <trkpt lat="43.45945" lon="1.09794">
        <ele>316.4</ele>
        <time>2024-08-01T07:35:59Z</time>
      </trkpt>
      <trkpt lat="43.45945" lon="1.09788">
        <ele>316.4</ele>
        <time>2024-08-01T07:36:00Z</time>
      </trkpt>
      <trkpt lat="43.45945" lon="1.09781">
        <ele>316.6</ele>
        <time>2024-08-01T07:36:01Z</time>
      </trkpt>
      <trkpt lat="43.45945" lon="1.09775">
        <ele>316.6</ele>
        <time>2024-08-01T07:36:02Z</time>
      </trkpt>
      <trkpt lat="43.45945" lon="1.09768">
        <ele>316.6</ele>
        <time>2024-08-01T07:36:03Z</time>
      </trkpt>
      <trkpt lat="43.45945" lon="1.09761">
        <ele>316.8</ele>
        <time>2024-08-01T07:36:04Z</time>
      </trkpt>
      <trkpt lat="43.45945" lon="1.09754">
        <ele>316.8</ele>
        <time>2024-08-01T07:36:05Z</time>
      </trkpt>
      <trkpt lat="43.45945" lon="1.09747">
        <ele>317</ele>
        <time>2024-08-01T07:36:06Z</time>
      </trkpt>
      <trkpt lat="43.45945" lon="1.0974">
        <ele>317</ele>
        <time>2024-08-01T07:36:07Z</time>
      </trkpt>
      <trkpt lat="43.45945" lon="1.09733">
        <ele>317</ele>
        <time>2024-08-01T07:36:08Z</time>
      </trkpt>
      <trkpt lat="43.45946" lon="1.09726">
        <ele>317</ele>
        <time>2024-08-01T07:36:09Z</time>
      </trkpt>
      <trkpt lat="43.45946" lon="1.09719">
        <ele>317</ele>
        <time>2024-08-01T07:36:10Z</time>
      </trkpt>
      <trkpt lat="43.45946" lon="1.09712">
        <ele>317.2</ele>
        <time>2024-08-01T07:36:11Z</time>
      </trkpt>
      <trkpt lat="43.45946" lon="1.09704">
        <ele>317.2</ele>
        <time>2024-08-01T07:36:12Z</time>
      </trkpt>
      <trkpt lat="43.45946" lon="1.09697">
        <ele>317.2</ele>
        <time>2024-08-01T07:36:13Z</time>
      </trkpt>
      <trkpt lat="43.45946" lon="1.0969">
        <ele>317.2</ele>
        <time>2024-08-01T07:36:14Z</time>
      </trkpt>
      <trkpt lat="43.45946" lon="1.09682">
        <ele>317.4</ele>
        <time>2024-08-01T07:36:15Z</time>
      </trkpt>
      <trkpt lat="43.45946" lon="1.09674">
        <ele>317.4</ele>
        <time>2024-08-01T07:36:16Z</time>
      </trkpt>
      <trkpt lat="43.45946" lon="1.09667">
        <ele>317.4</ele>
        <time>2024-08-01T07:36:17Z</time>
      </trkpt>
      <trkpt lat="43.45946" lon="1.09659">
        <ele>317.4</ele>
        <time>2024-08-01T07:36:18Z</time>
      </trkpt>
      <trkpt lat="43.45945" lon="1.09651">
        <ele>317.4</ele>
        <time>2024-08-01T07:36:19Z</time>
      </trkpt>
      <trkpt lat="43.45946" lon="1.09644">
        <ele>317.6</ele>
        <time>2024-08-01T07:36:20Z</time>
      </trkpt>
      <trkpt lat="43.45946" lon="1.09636">
        <ele>317.6</ele>
        <time>2024-08-01T07:36:21Z</time>
      </trkpt>
      <trkpt lat="43.45946" lon="1.09628">
        <ele>317.6</ele>
        <time>2024-08-01T07:36:22Z</time>
      </trkpt>
      <trkpt lat="43.45946" lon="1.0962">
        <ele>317.6</ele>
        <time>2024-08-01T07:36:23Z</time>
      </trkpt>
      <trkpt lat="43.45946" lon="1.09612">
        <ele>317.6</ele>
        <time>2024-08-01T07:36:24Z</time>
      </trkpt>
      <trkpt lat="43.45946" lon="1.09604">
        <ele>317.6</ele>
        <time>2024-08-01T07:36:25Z</time>
      </trkpt>
      <trkpt lat="43.45947" lon="1.09596">
        <ele>317.6</ele>
        <time>2024-08-01T07:36:26Z</time>
      </trkpt>
      <trkpt lat="43.45946" lon="1.09587">
        <ele>317.6</ele>
        <time>2024-08-01T07:36:27Z</time>
      </trkpt>
      <trkpt lat="43.45947" lon="1.09579">
        <ele>317.6</ele>
        <time>2024-08-01T07:36:28Z</time>
      </trkpt>
      <trkpt lat="43.45947" lon="1.09571">
        <ele>317.6</ele>
        <time>2024-08-01T07:36:29Z</time>
      </trkpt>
      <trkpt lat="43.45947" lon="1.09563">
        <ele>317.6</ele>
        <time>2024-08-01T07:36:30Z</time>
      </trkpt>
      <trkpt lat="43.45948" lon="1.09554">
        <ele>317.4</ele>
        <time>2024-08-01T07:36:31Z</time>
      </trkpt>
      <trkpt lat="43.45948" lon="1.09546">
        <ele>317.4</ele>
        <time>2024-08-01T07:36:32Z</time>
      </trkpt>
      <trkpt lat="43.45948" lon="1.09537">
        <ele>317.2</ele>
        <time>2024-08-01T07:36:33Z</time>
      </trkpt>
      <trkpt lat="43.45948" lon="1.09528">
        <ele>317.2</ele>
        <time>2024-08-01T07:36:34Z</time>
      </trkpt>
      <trkpt lat="43.45948" lon="1.0952">
        <ele>317.2</ele>
        <time>2024-08-01T07:36:35Z</time>
      </trkpt>
      <trkpt lat="43.45948" lon="1.09512">
        <ele>317.2</ele>
        <time>2024-08-01T07:36:36Z</time>
      </trkpt>
      <trkpt lat="43.45948" lon="1.09503">
        <ele>317.2</ele>
        <time>2024-08-01T07:36:37Z</time>
      </trkpt>
      <trkpt lat="43.45948" lon="1.09496">
        <ele>317.2</ele>
        <time>2024-08-01T07:36:38Z</time>
      </trkpt>
      <trkpt lat="43.45948" lon="1.09488">
        <ele>317.2</ele>
        <time>2024-08-01T07:36:39Z</time>
      </trkpt>
      <trkpt lat="43.45947" lon="1.09479">
        <ele>317</ele>
        <time>2024-08-01T07:36:40Z</time>
      </trkpt>
      <trkpt lat="43.45947" lon="1.09471">
        <ele>317</ele>
        <time>2024-08-01T07:36:41Z</time>
      </trkpt>
      <trkpt lat="43.45946" lon="1.09463">
        <ele>317</ele>
        <time>2024-08-01T07:36:42Z</time>
      </trkpt>
      <trkpt lat="43.45945" lon="1.09455">
        <ele>317</ele>
        <time>2024-08-01T07:36:43Z</time>
      </trkpt>
      <trkpt lat="43.45944" lon="1.09447">
        <ele>317</ele>
        <time>2024-08-01T07:36:44Z</time>
      </trkpt>
      <trkpt lat="43.45943" lon="1.09439">
        <ele>317</ele>
        <time>2024-08-01T07:36:45Z</time>
      </trkpt>
      <trkpt lat="43.45942" lon="1.09431">
        <ele>317</ele>
        <time>2024-08-01T07:36:46Z</time>
      </trkpt>
      <trkpt lat="43.45941" lon="1.09424">
        <ele>317</ele>
        <time>2024-08-01T07:36:47Z</time>
      </trkpt>
      <trkpt lat="43.4594" lon="1.09417">
        <ele>317.2</ele>
        <time>2024-08-01T07:36:48Z</time>
      </trkpt>
      <trkpt lat="43.45939" lon="1.0941">
        <ele>317.2</ele>
        <time>2024-08-01T07:36:49Z</time>
      </trkpt>
      <trkpt lat="43.45938" lon="1.09403">
        <ele>317.2</ele>
        <time>2024-08-01T07:36:50Z</time>
      </trkpt>
      <trkpt lat="43.45937" lon="1.09396">
        <ele>317.2</ele>
        <time>2024-08-01T07:36:51Z</time>
      </trkpt>
      <trkpt lat="43.45936" lon="1.09389">
        <ele>317.2</ele>
        <time>2024-08-01T07:36:52Z</time>
      </trkpt>
      <trkpt lat="43.45935" lon="1.09381">
        <ele>317.2</ele>
        <time>2024-08-01T07:36:53Z</time>
      </trkpt>
      <trkpt lat="43.45934" lon="1.09374">
        <ele>317.2</ele>
        <time>2024-08-01T07:36:54Z</time>
      </trkpt>
      <trkpt lat="43.45933" lon="1.09366">
        <ele>317.4</ele>
        <time>2024-08-01T07:36:55Z</time>
      </trkpt>
      <trkpt lat="43.45932" lon="1.09359">
        <ele>317.4</ele>
        <time>2024-08-01T07:36:56Z</time>
      </trkpt>
      <trkpt lat="43.45931" lon="1.09351">
        <ele>317.4</ele>
        <time>2024-08-01T07:36:57Z</time>
      </trkpt>
      <trkpt lat="43.4593" lon="1.09344">
        <ele>317.4</ele>
        <time>2024-08-01T07:36:58Z</time>
      </trkpt>
      <trkpt lat="43.45928" lon="1.09336">
        <ele>317.4</ele>
        <time>2024-08-01T07:36:59Z</time>
      </trkpt>
      <trkpt lat="43.45927" lon="1.09329">
        <ele>317.4</ele>
        <time>2024-08-01T07:37:00Z</time>
      </trkpt>
      <trkpt lat="43.45925" lon="1.09321">
        <ele>317.2</ele>
        <time>2024-08-01T07:37:01Z</time>
      </trkpt>
      <trkpt lat="43.45924" lon="1.09314">
        <ele>317.2</ele>
        <time>2024-08-01T07:37:02Z</time>
      </trkpt>
      <trkpt lat="43.45923" lon="1.09307">
        <ele>317.2</ele>
        <time>2024-08-01T07:37:03Z</time>
      </trkpt>
      <trkpt lat="43.45921" lon="1.09299">
        <ele>317.2</ele>
        <time>2024-08-01T07:37:04Z</time>
      </trkpt>
      <trkpt lat="43.45919" lon="1.09291">
        <ele>317.2</ele>
        <time>2024-08-01T07:37:05Z</time>
      </trkpt>
      <trkpt lat="43.45917" lon="1.09283">
        <ele>317</ele>
        <time>2024-08-01T07:37:06Z</time>
      </trkpt>
      <trkpt lat="43.45915" lon="1.09275">
        <ele>317</ele>
        <time>2024-08-01T07:37:07Z</time>
      </trkpt>
      <trkpt lat="43.45913" lon="1.09267">
        <ele>317</ele>
        <time>2024-08-01T07:37:08Z</time>
      </trkpt>
      <trkpt lat="43.45911" lon="1.09259">
        <ele>316.8</ele>
        <time>2024-08-01T07:37:09Z</time>
      </trkpt>
      <trkpt lat="43.45909" lon="1.09252">
        <ele>316.8</ele>
        <time>2024-08-01T07:37:10Z</time>
      </trkpt>
      <trkpt lat="43.45907" lon="1.09245">
        <ele>316.8</ele>
        <time>2024-08-01T07:37:11Z</time>
      </trkpt>
      <trkpt lat="43.45905" lon="1.09238">
        <ele>316.6</ele>
        <time>2024-08-01T07:37:12Z</time>
      </trkpt>
      <trkpt lat="43.45902" lon="1.09231">
        <ele>316.6</ele>
        <time>2024-08-01T07:37:13Z</time>
      </trkpt>
      <trkpt lat="43.459" lon="1.09223">
        <ele>316.4</ele>
        <time>2024-08-01T07:37:14Z</time>
      </trkpt>
      <trkpt lat="43.45898" lon="1.09216">
        <ele>316.4</ele>
        <time>2024-08-01T07:37:15Z</time>
      </trkpt>
      <trkpt lat="43.45896" lon="1.09209">
        <ele>316.4</ele>
        <time>2024-08-01T07:37:16Z</time>
      </trkpt>
      <trkpt lat="43.45894" lon="1.09202">
        <ele>316.4</ele>
        <time>2024-08-01T07:37:17Z</time>
      </trkpt>
      <trkpt lat="43.45891" lon="1.09194">
        <ele>316.4</ele>
        <time>2024-08-01T07:37:18Z</time>
      </trkpt>
      <trkpt lat="43.45889" lon="1.09187">
        <ele>316.4</ele>
        <time>2024-08-01T07:37:19Z</time>
      </trkpt>
      <trkpt lat="43.45887" lon="1.0918">
        <ele>316.4</ele>
        <time>2024-08-01T07:37:20Z</time>
      </trkpt>
      <trkpt lat="43.45885" lon="1.09173">
        <ele>316.4</ele>
        <time>2024-08-01T07:37:21Z</time>
      </trkpt>
      <trkpt lat="43.45882" lon="1.09166">
        <ele>316.4</ele>
        <time>2024-08-01T07:37:22Z</time>
      </trkpt>
      <trkpt lat="43.4588" lon="1.09159">
        <ele>316.4</ele>
        <time>2024-08-01T07:37:23Z</time>
      </trkpt>
      <trkpt lat="43.45878" lon="1.09152">
        <ele>316.4</ele>
        <time>2024-08-01T07:37:24Z</time>
      </trkpt>
      <trkpt lat="43.45876" lon="1.09145">
        <ele>316.6</ele>
        <time>2024-08-01T07:37:25Z</time>
      </trkpt>
      <trkpt lat="43.45874" lon="1.09139">
        <ele>316.6</ele>
        <time>2024-08-01T07:37:26Z</time>
      </trkpt>
      <trkpt lat="43.45872" lon="1.09132">
        <ele>316.6</ele>
        <time>2024-08-01T07:37:27Z</time>
      </trkpt>
      <trkpt lat="43.4587" lon="1.09125">
        <ele>316.8</ele>
        <time>2024-08-01T07:37:28Z</time>
      </trkpt>
      <trkpt lat="43.45868" lon="1.09118">
        <ele>316.8</ele>
        <time>2024-08-01T07:37:29Z</time>
      </trkpt>
      <trkpt lat="43.45866" lon="1.09112">
        <ele>316.8</ele>
        <time>2024-08-01T07:37:30Z</time>
      </trkpt>
      <trkpt lat="43.45865" lon="1.09105">
        <ele>316.8</ele>
        <time>2024-08-01T07:37:31Z</time>
      </trkpt>
      <trkpt lat="43.45863" lon="1.09098">
        <ele>316.8</ele>
        <time>2024-08-01T07:37:32Z</time>
      </trkpt>
      <trkpt lat="43.4586" lon="1.09091">
        <ele>316.8</ele>
        <time>2024-08-01T07:37:33Z</time>
      </trkpt>
      <trkpt lat="43.45858" lon="1.09084">
        <ele>317</ele>
        <time>2024-08-01T07:37:34Z</time>
      </trkpt>
      <trkpt lat="43.45856" lon="1.09078">
        <ele>317</ele>
        <time>2024-08-01T07:37:35Z</time>
      </trkpt>
      <trkpt lat="43.45854" lon="1.09071">
        <ele>317</ele>
        <time>2024-08-01T07:37:36Z</time>
      </trkpt>
      <trkpt lat="43.45852" lon="1.09065">
        <ele>317</ele>
        <time>2024-08-01T07:37:37Z</time>
      </trkpt>
      <trkpt lat="43.4585" lon="1.09058">
        <ele>317</ele>
        <time>2024-08-01T07:37:38Z</time>
      </trkpt>
      <trkpt lat="43.45849" lon="1.09052">
        <ele>317</ele>
        <time>2024-08-01T07:37:39Z</time>
      </trkpt>
      <trkpt lat="43.45847" lon="1.09046">
        <ele>317</ele>
        <time>2024-08-01T07:37:40Z</time>
      </trkpt>
      <trkpt lat="43.45845" lon="1.0904">
        <ele>317</ele>
        <time>2024-08-01T07:37:41Z</time>
      </trkpt>
      <trkpt lat="43.45843" lon="1.09034">
        <ele>317</ele>
        <time>2024-08-01T07:37:42Z</time>
      </trkpt>
      <trkpt lat="43.45842" lon="1.09028">
        <ele>317</ele>
        <time>2024-08-01T07:37:43Z</time>
      </trkpt>
      <trkpt lat="43.4584" lon="1.09022">
        <ele>317</ele>
        <time>2024-08-01T07:37:44Z</time>
      </trkpt>
      <trkpt lat="43.45838" lon="1.09016">
        <ele>317</ele>
        <time>2024-08-01T07:37:45Z</time>
      </trkpt>
      <trkpt lat="43.45836" lon="1.09009">
        <ele>317</ele>
        <time>2024-08-01T07:37:46Z</time>
      </trkpt>
      <trkpt lat="43.45834" lon="1.09003">
        <ele>317</ele>
        <time>2024-08-01T07:37:47Z</time>
      </trkpt>
      <trkpt lat="43.45832" lon="1.08996">
        <ele>317.2</ele>
        <time>2024-08-01T07:37:48Z</time>
      </trkpt>
      <trkpt lat="43.4583" lon="1.08989">
        <ele>317.2</ele>
        <time>2024-08-01T07:37:49Z</time>
      </trkpt>
      <trkpt lat="43.45828" lon="1.08982">
        <ele>317.2</ele>
        <time>2024-08-01T07:37:50Z</time>
      </trkpt>
      <trkpt lat="43.45826" lon="1.08975">
        <ele>317.4</ele>
        <time>2024-08-01T07:37:51Z</time>
      </trkpt>
      <trkpt lat="43.45823" lon="1.08968">
        <ele>317.4</ele>
        <time>2024-08-01T07:37:52Z</time>
      </trkpt>
      <trkpt lat="43.45821" lon="1.08961">
        <ele>317.4</ele>
        <time>2024-08-01T07:37:53Z</time>
      </trkpt>
      <trkpt lat="43.45819" lon="1.08954">
        <ele>317.4</ele>
        <time>2024-08-01T07:37:54Z</time>
      </trkpt>
      <trkpt lat="43.45817" lon="1.08947">
        <ele>317.6</ele>
        <time>2024-08-01T07:37:55Z</time>
      </trkpt>
      <trkpt lat="43.45815" lon="1.08939">
        <ele>317.6</ele>
        <time>2024-08-01T07:37:56Z</time>
      </trkpt>
      <trkpt lat="43.45814" lon="1.08932">
        <ele>317.8</ele>
        <time>2024-08-01T07:37:57Z</time>
      </trkpt>
      <trkpt lat="43.45813" lon="1.08924">
        <ele>317.8</ele>
        <time>2024-08-01T07:37:58Z</time>
      </trkpt>
      <trkpt lat="43.45813" lon="1.08916">
        <ele>317.8</ele>
        <time>2024-08-01T07:37:59Z</time>
      </trkpt>
      <trkpt lat="43.45814" lon="1.08908">
        <ele>317.8</ele>
        <time>2024-08-01T07:38:00Z</time>
      </trkpt>
      <trkpt lat="43.45816" lon="1.08901">
        <ele>318</ele>
        <time>2024-08-01T07:38:01Z</time>
      </trkpt>
      <trkpt lat="43.45818" lon="1.08893">
        <ele>318</ele>
        <time>2024-08-01T07:38:02Z</time>
      </trkpt>
      <trkpt lat="43.45821" lon="1.08887">
        <ele>318.2</ele>
        <time>2024-08-01T07:38:03Z</time>
      </trkpt>
      <trkpt lat="43.45825" lon="1.0888">
        <ele>318.2</ele>
        <time>2024-08-01T07:38:04Z</time>
      </trkpt>
      <trkpt lat="43.45828" lon="1.08874">
        <ele>318.4</ele>
        <time>2024-08-01T07:38:05Z</time>
      </trkpt>
      <trkpt lat="43.45831" lon="1.08867">
        <ele>318.6</ele>
        <time>2024-08-01T07:38:06Z</time>
      </trkpt>
      <trkpt lat="43.45834" lon="1.0886">
        <ele>318.8</ele>
        <time>2024-08-01T07:38:07Z</time>
      </trkpt>
      <trkpt lat="43.45838" lon="1.08853">
        <ele>318.8</ele>
        <time>2024-08-01T07:38:08Z</time>
      </trkpt>
      <trkpt lat="43.45841" lon="1.08847">
        <ele>318.8</ele>
        <time>2024-08-01T07:38:09Z</time>
      </trkpt>
      <trkpt lat="43.45844" lon="1.0884">
        <ele>318.8</ele>
        <time>2024-08-01T07:38:10Z</time>
      </trkpt>
      <trkpt lat="43.45848" lon="1.08833">
        <ele>318.8</ele>
        <time>2024-08-01T07:38:11Z</time>
      </trkpt>
      <trkpt lat="43.45851" lon="1.08827">
        <ele>319</ele>
        <time>2024-08-01T07:38:12Z</time>
      </trkpt>
      <trkpt lat="43.45854" lon="1.0882">
        <ele>319</ele>
        <time>2024-08-01T07:38:13Z</time>
      </trkpt>
      <trkpt lat="43.45857" lon="1.08814">
        <ele>319</ele>
        <time>2024-08-01T07:38:14Z</time>
      </trkpt>
      <trkpt lat="43.4586" lon="1.08807">
        <ele>319</ele>
        <time>2024-08-01T07:38:15Z</time>
      </trkpt>
      <trkpt lat="43.45863" lon="1.08801">
        <ele>319.2</ele>
        <time>2024-08-01T07:38:16Z</time>
      </trkpt>
      <trkpt lat="43.45867" lon="1.08794">
        <ele>319.2</ele>
        <time>2024-08-01T07:38:17Z</time>
      </trkpt>
      <trkpt lat="43.4587" lon="1.08788">
        <ele>319.2</ele>
        <time>2024-08-01T07:38:18Z</time>
      </trkpt>
      <trkpt lat="43.45873" lon="1.08781">
        <ele>319.2</ele>
        <time>2024-08-01T07:38:19Z</time>
      </trkpt>
      <trkpt lat="43.45876" lon="1.08775">
        <ele>319.2</ele>
        <time>2024-08-01T07:38:20Z</time>
      </trkpt>
      <trkpt lat="43.4588" lon="1.08768">
        <ele>319.2</ele>
        <time>2024-08-01T07:38:21Z</time>
      </trkpt>
      <trkpt lat="43.45883" lon="1.08762">
        <ele>319.2</ele>
        <time>2024-08-01T07:38:22Z</time>
      </trkpt>
      <trkpt lat="43.45886" lon="1.08755">
        <ele>319.2</ele>
        <time>2024-08-01T07:38:23Z</time>
      </trkpt>
      <trkpt lat="43.45889" lon="1.08749">
        <ele>319.2</ele>
        <time>2024-08-01T07:38:24Z</time>
      </trkpt>
      <trkpt lat="43.45892" lon="1.08742">
        <ele>319.2</ele>
        <time>2024-08-01T07:38:25Z</time>
      </trkpt>
      <trkpt lat="43.45896" lon="1.08735">
        <ele>319</ele>
        <time>2024-08-01T07:38:26Z</time>
      </trkpt>
      <trkpt lat="43.45899" lon="1.08728">
        <ele>319</ele>
        <time>2024-08-01T07:38:27Z</time>
      </trkpt>
      <trkpt lat="43.45902" lon="1.0872">
        <ele>319</ele>
        <time>2024-08-01T07:38:28Z</time>
      </trkpt>
      <trkpt lat="43.45906" lon="1.08713">
        <ele>319</ele>
        <time>2024-08-01T07:38:29Z</time>
      </trkpt>
      <trkpt lat="43.4591" lon="1.08705">
        <ele>318.8</ele>
        <time>2024-08-01T07:38:30Z</time>
      </trkpt>
      <trkpt lat="43.45913" lon="1.08698">
        <ele>318.6</ele>
        <time>2024-08-01T07:38:31Z</time>
      </trkpt>
      <trkpt lat="43.45918" lon="1.0869">
        <ele>318.4</ele>
        <time>2024-08-01T07:38:32Z</time>
      </trkpt>
      <trkpt lat="43.45922" lon="1.08682">
        <ele>318.2</ele>
        <time>2024-08-01T07:38:33Z</time>
      </trkpt>
      <trkpt lat="43.45928" lon="1.08674">
        <ele>318</ele>
        <time>2024-08-01T07:38:34Z</time>
      </trkpt>
      <trkpt lat="43.45933" lon="1.08666">
        <ele>317.8</ele>
        <time>2024-08-01T07:38:35Z</time>
      </trkpt>
      <trkpt lat="43.45939" lon="1.08658">
        <ele>317.4</ele>
        <time>2024-08-01T07:38:36Z</time>
      </trkpt>
      <trkpt lat="43.45946" lon="1.0865">
        <ele>317</ele>
        <time>2024-08-01T07:38:37Z</time>
      </trkpt>
      <trkpt lat="43.45953" lon="1.08642">
        <ele>316.4</ele>
        <time>2024-08-01T07:38:38Z</time>
      </trkpt>
      <trkpt lat="43.4596" lon="1.08634">
        <ele>316</ele>
        <time>2024-08-01T07:38:39Z</time>
      </trkpt>
      <trkpt lat="43.45967" lon="1.08625">
        <ele>315.6</ele>
        <time>2024-08-01T07:38:40Z</time>
      </trkpt>
      <trkpt lat="43.45975" lon="1.08617">
        <ele>315</ele>
        <time>2024-08-01T07:38:41Z</time>
      </trkpt>
      <trkpt lat="43.45983" lon="1.08609">
        <ele>314.6</ele>
        <time>2024-08-01T07:38:42Z</time>
      </trkpt>
      <trkpt lat="43.45991" lon="1.08601">
        <ele>314</ele>
        <time>2024-08-01T07:38:43Z</time>
      </trkpt>
      <trkpt lat="43.46" lon="1.08594">
        <ele>313.4</ele>
        <time>2024-08-01T07:38:44Z</time>
      </trkpt>
      <trkpt lat="43.4601" lon="1.08589">
        <ele>312.6</ele>
        <time>2024-08-01T07:38:45Z</time>
      </trkpt>
      <trkpt lat="43.46021" lon="1.08586">
        <ele>312.2</ele>
        <time>2024-08-01T07:38:46Z</time>
      </trkpt>
      <trkpt lat="43.46031" lon="1.08585">
        <ele>311</ele>
        <time>2024-08-01T07:38:47Z</time>
      </trkpt>
      <trkpt lat="43.46043" lon="1.08586">
        <ele>310.2</ele>
        <time>2024-08-01T07:38:48Z</time>
      </trkpt>
      <trkpt lat="43.46054" lon="1.08589">
        <ele>309.6</ele>
        <time>2024-08-01T07:38:49Z</time>
      </trkpt>
      <trkpt lat="43.46066" lon="1.08592">
        <ele>308.8</ele>
        <time>2024-08-01T07:38:50Z</time>
      </trkpt>
      <trkpt lat="43.46078" lon="1.08595">
        <ele>308</ele>
        <time>2024-08-01T07:38:51Z</time>
      </trkpt>
      <trkpt lat="43.46091" lon="1.08598">
        <ele>306.8</ele>
        <time>2024-08-01T07:38:52Z</time>
      </trkpt>
      <trkpt lat="43.46103" lon="1.08602">
        <ele>306.2</ele>
        <time>2024-08-01T07:38:53Z</time>
      </trkpt>
      <trkpt lat="43.46115" lon="1.08605">
        <ele>305</ele>
        <time>2024-08-01T07:38:54Z</time>
      </trkpt>
      <trkpt lat="43.46128" lon="1.08609">
        <ele>303.4</ele>
        <time>2024-08-01T07:38:55Z</time>
      </trkpt>
      <trkpt lat="43.46141" lon="1.08614">
        <ele>302.8</ele>
        <time>2024-08-01T07:38:56Z</time>
      </trkpt>
      <trkpt lat="43.46155" lon="1.0862">
        <ele>301.8</ele>
        <time>2024-08-01T07:38:57Z</time>
      </trkpt>
      <trkpt lat="43.46167" lon="1.08626">
        <ele>301.4</ele>
        <time>2024-08-01T07:38:58Z</time>
      </trkpt>
      <trkpt lat="43.46179" lon="1.08631">
        <ele>299.8</ele>
        <time>2024-08-01T07:38:59Z</time>
      </trkpt>
      <trkpt lat="43.46191" lon="1.08636">
        <ele>299</ele>
        <time>2024-08-01T07:39:00Z</time>
      </trkpt>
      <trkpt lat="43.46202" lon="1.0864">
        <ele>297.8</ele>
        <time>2024-08-01T07:39:01Z</time>
      </trkpt>
      <trkpt lat="43.46213" lon="1.08643">
        <ele>296.8</ele>
        <time>2024-08-01T07:39:02Z</time>
      </trkpt>
      <trkpt lat="43.46224" lon="1.08644">
        <ele>296</ele>
        <time>2024-08-01T07:39:03Z</time>
      </trkpt>
      <trkpt lat="43.46235" lon="1.08641">
        <ele>294.6</ele>
        <time>2024-08-01T07:39:04Z</time>
      </trkpt>
      <trkpt lat="43.46245" lon="1.08633">
        <ele>294</ele>
        <time>2024-08-01T07:39:05Z</time>
      </trkpt>
      <trkpt lat="43.46254" lon="1.08624">
        <ele>293</ele>
        <time>2024-08-01T07:39:06Z</time>
      </trkpt>
      <trkpt lat="43.46263" lon="1.08613">
        <ele>292.6</ele>
        <time>2024-08-01T07:39:07Z</time>
      </trkpt>
      <trkpt lat="43.46271" lon="1.08603">
        <ele>291.6</ele>
        <time>2024-08-01T07:39:08Z</time>
      </trkpt>
      <trkpt lat="43.46279" lon="1.08591">
        <ele>290</ele>
        <time>2024-08-01T07:39:09Z</time>
      </trkpt>
      <trkpt lat="43.46286" lon="1.0858">
        <ele>289.4</ele>
        <time>2024-08-01T07:39:10Z</time>
      </trkpt>
      <trkpt lat="43.46294" lon="1.08568">
        <ele>288.2</ele>
        <time>2024-08-01T07:39:11Z</time>
      </trkpt>
      <trkpt lat="43.46301" lon="1.08558">
        <ele>287.4</ele>
        <time>2024-08-01T07:39:12Z</time>
      </trkpt>
      <trkpt lat="43.46308" lon="1.08547">
        <ele>286.6</ele>
        <time>2024-08-01T07:39:13Z</time>
      </trkpt>
      <trkpt lat="43.46315" lon="1.08536">
        <ele>286.2</ele>
        <time>2024-08-01T07:39:14Z</time>
      </trkpt>
      <trkpt lat="43.46321" lon="1.08527">
        <ele>285.6</ele>
        <time>2024-08-01T07:39:15Z</time>
      </trkpt>
      <trkpt lat="43.46327" lon="1.08518">
        <ele>285</ele>
        <time>2024-08-01T07:39:16Z</time>
      </trkpt>
      <trkpt lat="43.46333" lon="1.08508">
        <ele>284.8</ele>
        <time>2024-08-01T07:39:17Z</time>
      </trkpt>
      <trkpt lat="43.46339" lon="1.085">
        <ele>284.6</ele>
        <time>2024-08-01T07:39:18Z</time>
      </trkpt>
      <trkpt lat="43.46343" lon="1.08492">
        <ele>284.8</ele>
        <time>2024-08-01T07:39:19Z</time>
      </trkpt>
      <trkpt lat="43.46346" lon="1.08485">
        <ele>284.6</ele>
        <time>2024-08-01T07:39:20Z</time>
      </trkpt>
      <trkpt lat="43.4635" lon="1.08478">
        <ele>284.8</ele>
        <time>2024-08-01T07:39:21Z</time>
      </trkpt>
      <trkpt lat="43.46354" lon="1.08472">
        <ele>285</ele>
        <time>2024-08-01T07:39:22Z</time>
      </trkpt>
      <trkpt lat="43.46358" lon="1.08466">
        <ele>285.6</ele>
        <time>2024-08-01T07:39:23Z</time>
      </trkpt>
      <trkpt lat="43.46362" lon="1.0846">
        <ele>285.6</ele>
        <time>2024-08-01T07:39:24Z</time>
      </trkpt>
      <trkpt lat="43.46365" lon="1.08455">
        <ele>285.8</ele>
        <time>2024-08-01T07:39:25Z</time>
      </trkpt>
      <trkpt lat="43.46368" lon="1.08449">
        <ele>286.2</ele>
        <time>2024-08-01T07:39:26Z</time>
      </trkpt>
      <trkpt lat="43.46372" lon="1.08444">
        <ele>287</ele>
        <time>2024-08-01T07:39:27Z</time>
      </trkpt>
      <trkpt lat="43.46375" lon="1.08439">
        <ele>287.6</ele>
        <time>2024-08-01T07:39:28Z</time>
      </trkpt>
      <trkpt lat="43.46378" lon="1.08433">
        <ele>288.6</ele>
        <time>2024-08-01T07:39:29Z</time>
      </trkpt>
      <trkpt lat="43.46382" lon="1.08428">
        <ele>289.2</ele>
        <time>2024-08-01T07:39:30Z</time>
      </trkpt>
      <trkpt lat="43.46385" lon="1.08422">
        <ele>289.4</ele>
        <time>2024-08-01T07:39:31Z</time>
      </trkpt>
      <trkpt lat="43.46389" lon="1.08416">
        <ele>290</ele>
        <time>2024-08-01T07:39:32Z</time>
      </trkpt>
      <trkpt lat="43.46393" lon="1.08411">
        <ele>290.2</ele>
        <time>2024-08-01T07:39:33Z</time>
      </trkpt>
      <trkpt lat="43.46397" lon="1.08405">
        <ele>290.8</ele>
        <time>2024-08-01T07:39:34Z</time>
      </trkpt>
      <trkpt lat="43.464" lon="1.08399">
        <ele>291</ele>
        <time>2024-08-01T07:39:35Z</time>
      </trkpt>
      <trkpt lat="43.46404" lon="1.08394">
        <ele>291.8</ele>
        <time>2024-08-01T07:39:36Z</time>
      </trkpt>
      <trkpt lat="43.46407" lon="1.08388">
        <ele>292.2</ele>
        <time>2024-08-01T07:39:37Z</time>
      </trkpt>
      <trkpt lat="43.4641" lon="1.08382">
        <ele>292.4</ele>
        <time>2024-08-01T07:39:38Z</time>
      </trkpt>
      <trkpt lat="43.46414" lon="1.08376">
        <ele>293.2</ele>
        <time>2024-08-01T07:39:39Z</time>
      </trkpt>
      <trkpt lat="43.46418" lon="1.08371">
        <ele>293.4</ele>
        <time>2024-08-01T07:39:40Z</time>
      </trkpt>
      <trkpt lat="43.46421" lon="1.08365">
        <ele>293.8</ele>
        <time>2024-08-01T07:39:41Z</time>
      </trkpt>
      <trkpt lat="43.46425" lon="1.08359">
        <ele>294.2</ele>
        <time>2024-08-01T07:39:42Z</time>
      </trkpt>
      <trkpt lat="43.46429" lon="1.08354">
        <ele>294.6</ele>
        <time>2024-08-01T07:39:43Z</time>
      </trkpt>
      <trkpt lat="43.46433" lon="1.0835">
        <ele>295.4</ele>
        <time>2024-08-01T07:39:44Z</time>
      </trkpt>
      <trkpt lat="43.46437" lon="1.08345">
        <ele>295.6</ele>
        <time>2024-08-01T07:39:45Z</time>
      </trkpt>
      <trkpt lat="43.4644" lon="1.08339">
        <ele>296.2</ele>
        <time>2024-08-01T07:39:46Z</time>
      </trkpt>
      <trkpt lat="43.46444" lon="1.08334">
        <ele>296.4</ele>
        <time>2024-08-01T07:39:47Z</time>
      </trkpt>
      <trkpt lat="43.46447" lon="1.08328">
        <ele>297.2</ele>
        <time>2024-08-01T07:39:48Z</time>
      </trkpt>
      <trkpt lat="43.46451" lon="1.08323">
        <ele>297.6</ele>
        <time>2024-08-01T07:39:49Z</time>
      </trkpt>
      <trkpt lat="43.46455" lon="1.08319">
        <ele>297.8</ele>
        <time>2024-08-01T07:39:50Z</time>
      </trkpt>
      <trkpt lat="43.46459" lon="1.08314">
        <ele>298.2</ele>
        <time>2024-08-01T07:39:51Z</time>
      </trkpt>
      <trkpt lat="43.46463" lon="1.08309">
        <ele>298.6</ele>
        <time>2024-08-01T07:39:52Z</time>
      </trkpt>
      <trkpt lat="43.46466" lon="1.08305">
        <ele>299</ele>
        <time>2024-08-01T07:39:53Z</time>
      </trkpt>
      <trkpt lat="43.4647" lon="1.083">
        <ele>299</ele>
        <time>2024-08-01T07:39:54Z</time>
      </trkpt>
      <trkpt lat="43.46474" lon="1.08296">
        <ele>299.4</ele>
        <time>2024-08-01T07:39:55Z</time>
      </trkpt>
      <trkpt lat="43.46477" lon="1.08291">
        <ele>300.4</ele>
        <time>2024-08-01T07:39:56Z</time>
      </trkpt>
      <trkpt lat="43.46481" lon="1.08286">
        <ele>300.8</ele>
        <time>2024-08-01T07:39:57Z</time>
      </trkpt>
      <trkpt lat="43.46484" lon="1.08282">
        <ele>301.2</ele>
        <time>2024-08-01T07:39:58Z</time>
      </trkpt>
      <trkpt lat="43.46487" lon="1.08277">
        <ele>301.6</ele>
        <time>2024-08-01T07:39:59Z</time>
      </trkpt>
      <trkpt lat="43.4649" lon="1.08273">
        <ele>302</ele>
        <time>2024-08-01T07:40:00Z</time>
      </trkpt>
      <trkpt lat="43.46493" lon="1.08269">
        <ele>302.4</ele>
        <time>2024-08-01T07:40:01Z</time>
      </trkpt>
      <trkpt lat="43.46496" lon="1.08265">
        <ele>303</ele>
        <time>2024-08-01T07:40:02Z</time>
      </trkpt>
      <trkpt lat="43.465" lon="1.08261">
        <ele>303.4</ele>
        <time>2024-08-01T07:40:03Z</time>
      </trkpt>
      <trkpt lat="43.46503" lon="1.08257">
        <ele>303.6</ele>
        <time>2024-08-01T07:40:04Z</time>
      </trkpt>
      <trkpt lat="43.46506" lon="1.08253">
        <ele>304</ele>
        <time>2024-08-01T07:40:05Z</time>
      </trkpt>
      <trkpt lat="43.46509" lon="1.0825">
        <ele>304.2</ele>
        <time>2024-08-01T07:40:06Z</time>
      </trkpt>
      <trkpt lat="43.46512" lon="1.08246">
        <ele>304.6</ele>
        <time>2024-08-01T07:40:07Z</time>
      </trkpt>
      <trkpt lat="43.46516" lon="1.08242">
        <ele>304.8</ele>
        <time>2024-08-01T07:40:08Z</time>
      </trkpt>
      <trkpt lat="43.46519" lon="1.08239">
        <ele>305</ele>
        <time>2024-08-01T07:40:09Z</time>
      </trkpt>
      <trkpt lat="43.46522" lon="1.08236">
        <ele>305.4</ele>
        <time>2024-08-01T07:40:10Z</time>
      </trkpt>
      <trkpt lat="43.46525" lon="1.08232">
        <ele>305.6</ele>
        <time>2024-08-01T07:40:11Z</time>
      </trkpt>
      <trkpt lat="43.46528" lon="1.08229">
        <ele>306</ele>
        <time>2024-08-01T07:40:12Z</time>
      </trkpt>
      <trkpt lat="43.4653" lon="1.08225">
        <ele>306.2</ele>
        <time>2024-08-01T07:40:13Z</time>
      </trkpt>
      <trkpt lat="43.46533" lon="1.08222">
        <ele>307.2</ele>
        <time>2024-08-01T07:40:14Z</time>
      </trkpt>
      <trkpt lat="43.46536" lon="1.08218">
        <ele>307.4</ele>
        <time>2024-08-01T07:40:15Z</time>
      </trkpt>
      <trkpt lat="43.46539" lon="1.08215">
        <ele>307.8</ele>
        <time>2024-08-01T07:40:16Z</time>
      </trkpt>
      <trkpt lat="43.46541" lon="1.08211">
        <ele>308</ele>
        <time>2024-08-01T07:40:17Z</time>
      </trkpt>
      <trkpt lat="43.46544" lon="1.08208">
        <ele>308.2</ele>
        <time>2024-08-01T07:40:18Z</time>
      </trkpt>
      <trkpt lat="43.46547" lon="1.08205">
        <ele>308.2</ele>
        <time>2024-08-01T07:40:19Z</time>
      </trkpt>
      <trkpt lat="43.4655" lon="1.08202">
        <ele>308.2</ele>
        <time>2024-08-01T07:40:20Z</time>
      </trkpt>
      <trkpt lat="43.46553" lon="1.08198">
        <ele>308.4</ele>
        <time>2024-08-01T07:40:21Z</time>
      </trkpt>
      <trkpt lat="43.46555" lon="1.08195">
        <ele>308.8</ele>
        <time>2024-08-01T07:40:22Z</time>
      </trkpt>
      <trkpt lat="43.46558" lon="1.08191">
        <ele>309.2</ele>
        <time>2024-08-01T07:40:23Z</time>
      </trkpt>
      <trkpt lat="43.46561" lon="1.08188">
        <ele>309.4</ele>
        <time>2024-08-01T07:40:24Z</time>
      </trkpt>
      <trkpt lat="43.46563" lon="1.08184">
        <ele>309.8</ele>
        <time>2024-08-01T07:40:25Z</time>
      </trkpt>
      <trkpt lat="43.46567" lon="1.08181">
        <ele>310</ele>
        <time>2024-08-01T07:40:26Z</time>
      </trkpt>
      <trkpt lat="43.4657" lon="1.08178">
        <ele>310.2</ele>
        <time>2024-08-01T07:40:27Z</time>
      </trkpt>
      <trkpt lat="43.46573" lon="1.08175">
        <ele>310.4</ele>
        <time>2024-08-01T07:40:28Z</time>
      </trkpt>
      <trkpt lat="43.46576" lon="1.08172">
        <ele>310.4</ele>
        <time>2024-08-01T07:40:29Z</time>
      </trkpt>
      <trkpt lat="43.46579" lon="1.08168">
        <ele>310.4</ele>
        <time>2024-08-01T07:40:30Z</time>
      </trkpt>
      <trkpt lat="43.46582" lon="1.08165">
        <ele>310.6</ele>
        <time>2024-08-01T07:40:31Z</time>
      </trkpt>
      <trkpt lat="43.46585" lon="1.08162">
        <ele>310.8</ele>
        <time>2024-08-01T07:40:32Z</time>
      </trkpt>
      <trkpt lat="43.46588" lon="1.08159">
        <ele>311</ele>
        <time>2024-08-01T07:40:33Z</time>
      </trkpt>
      <trkpt lat="43.46592" lon="1.08156">
        <ele>311.4</ele>
        <time>2024-08-01T07:40:34Z</time>
      </trkpt>
      <trkpt lat="43.46595" lon="1.08152">
        <ele>311.8</ele>
        <time>2024-08-01T07:40:35Z</time>
      </trkpt>
      <trkpt lat="43.46598" lon="1.08149">
        <ele>311.6</ele>
        <time>2024-08-01T07:40:36Z</time>
      </trkpt>
      <trkpt lat="43.46601" lon="1.08146">
        <ele>312</ele>
        <time>2024-08-01T07:40:37Z</time>
      </trkpt>
      <trkpt lat="43.46604" lon="1.08143">
        <ele>312.4</ele>
        <time>2024-08-01T07:40:38Z</time>
      </trkpt>
      <trkpt lat="43.46607" lon="1.08139">
        <ele>312.6</ele>
        <time>2024-08-01T07:40:39Z</time>
      </trkpt>
      <trkpt lat="43.46611" lon="1.08136">
        <ele>312.8</ele>
        <time>2024-08-01T07:40:40Z</time>
      </trkpt>
      <trkpt lat="43.46614" lon="1.08133">
        <ele>313</ele>
        <time>2024-08-01T07:40:41Z</time>
      </trkpt>
      <trkpt lat="43.46617" lon="1.08129">
        <ele>313.2</ele>
        <time>2024-08-01T07:40:42Z</time>
      </trkpt>
      <trkpt lat="43.4662" lon="1.08126">
        <ele>313.2</ele>
        <time>2024-08-01T07:40:43Z</time>
      </trkpt>
      <trkpt lat="43.46623" lon="1.08123">
        <ele>313.6</ele>
        <time>2024-08-01T07:40:44Z</time>
      </trkpt>
      <trkpt lat="43.46626" lon="1.0812">
        <ele>314</ele>
        <time>2024-08-01T07:40:45Z</time>
      </trkpt>
      <trkpt lat="43.46629" lon="1.08116">
        <ele>314</ele>
        <time>2024-08-01T07:40:46Z</time>
      </trkpt>
      <trkpt lat="43.46632" lon="1.08113">
        <ele>314.4</ele>
        <time>2024-08-01T07:40:47Z</time>
      </trkpt>
      <trkpt lat="43.46635" lon="1.08109">
        <ele>314.6</ele>
        <time>2024-08-01T07:40:48Z</time>
      </trkpt>
      <trkpt lat="43.46638" lon="1.08106">
        <ele>314.8</ele>
        <time>2024-08-01T07:40:49Z</time>
      </trkpt>
      <trkpt lat="43.46641" lon="1.08102">
        <ele>315</ele>
        <time>2024-08-01T07:40:50Z</time>
      </trkpt>
      <trkpt lat="43.46644" lon="1.08098">
        <ele>315.2</ele>
        <time>2024-08-01T07:40:51Z</time>
      </trkpt>
      <trkpt lat="43.46647" lon="1.08094">
        <ele>315.6</ele>
        <time>2024-08-01T07:40:52Z</time>
      </trkpt>
      <trkpt lat="43.4665" lon="1.08091">
        <ele>315.6</ele>
        <time>2024-08-01T07:40:53Z</time>
      </trkpt>
      <trkpt lat="43.46653" lon="1.08087">
        <ele>315.8</ele>
        <time>2024-08-01T07:40:54Z</time>
      </trkpt>
      <trkpt lat="43.46656" lon="1.08083">
        <ele>316</ele>
        <time>2024-08-01T07:40:55Z</time>
      </trkpt>
      <trkpt lat="43.46659" lon="1.08079">
        <ele>316.2</ele>
        <time>2024-08-01T07:40:56Z</time>
      </trkpt>
      <trkpt lat="43.46662" lon="1.08075">
        <ele>316.4</ele>
        <time>2024-08-01T07:40:57Z</time>
      </trkpt>
      <trkpt lat="43.46665" lon="1.0807">
        <ele>316.4</ele>
        <time>2024-08-01T07:40:58Z</time>
      </trkpt>
      <trkpt lat="43.46667" lon="1.08066">
        <ele>316.6</ele>
        <time>2024-08-01T07:40:59Z</time>
      </trkpt>
      <trkpt lat="43.4667" lon="1.08061">
        <ele>316.6</ele>
        <time>2024-08-01T07:41:00Z</time>
      </trkpt>
      <trkpt lat="43.46673" lon="1.08057">
        <ele>316.6</ele>
        <time>2024-08-01T07:41:01Z</time>
      </trkpt>
      <trkpt lat="43.46676" lon="1.08052">
        <ele>316.8</ele>
        <time>2024-08-01T07:41:02Z</time>
      </trkpt>
      <trkpt lat="43.46679" lon="1.08047">
        <ele>316.8</ele>
        <time>2024-08-01T07:41:03Z</time>
      </trkpt>
      <trkpt lat="43.46682" lon="1.08043">
        <ele>316.8</ele>
        <time>2024-08-01T07:41:04Z</time>
      </trkpt>
      <trkpt lat="43.46684" lon="1.08037">
        <ele>316.8</ele>
        <time>2024-08-01T07:41:05Z</time>
      </trkpt>
      <trkpt lat="43.46687" lon="1.08032">
        <ele>316.8</ele>
        <time>2024-08-01T07:41:06Z</time>
      </trkpt>
      <trkpt lat="43.4669" lon="1.08026">
        <ele>316.8</ele>
        <time>2024-08-01T07:41:07Z</time>
      </trkpt>
      <trkpt lat="43.46693" lon="1.08021">
        <ele>316.8</ele>
        <time>2024-08-01T07:41:08Z</time>
      </trkpt>
      <trkpt lat="43.46695" lon="1.08016">
        <ele>316.8</ele>
        <time>2024-08-01T07:41:09Z</time>
      </trkpt>
      <trkpt lat="43.46698" lon="1.0801">
        <ele>316.8</ele>
        <time>2024-08-01T07:41:10Z</time>
      </trkpt>
      <trkpt lat="43.467" lon="1.08004">
        <ele>316.8</ele>
        <time>2024-08-01T07:41:11Z</time>
      </trkpt>
      <trkpt lat="43.46703" lon="1.07999">
        <ele>316.8</ele>
        <time>2024-08-01T07:41:12Z</time>
      </trkpt>
      <trkpt lat="43.46705" lon="1.07993">
        <ele>316.8</ele>
        <time>2024-08-01T07:41:13Z</time>
      </trkpt>
      <trkpt lat="43.46708" lon="1.07987">
        <ele>316.8</ele>
        <time>2024-08-01T07:41:14Z</time>
      </trkpt>
      <trkpt lat="43.46711" lon="1.07982">
        <ele>316.8</ele>
        <time>2024-08-01T07:41:15Z</time>
      </trkpt>
      <trkpt lat="43.46714" lon="1.07976">
        <ele>316.8</ele>
        <time>2024-08-01T07:41:16Z</time>
      </trkpt>
      <trkpt lat="43.46717" lon="1.0797">
        <ele>316.8</ele>
        <time>2024-08-01T07:41:17Z</time>
      </trkpt>
      <trkpt lat="43.46719" lon="1.07964">
        <ele>316.8</ele>
        <time>2024-08-01T07:41:18Z</time>
      </trkpt>
      <trkpt lat="43.46722" lon="1.07958">
        <ele>316.6</ele>
        <time>2024-08-01T07:41:19Z</time>
      </trkpt>
      <trkpt lat="43.46725" lon="1.07951">
        <ele>316.6</ele>
        <time>2024-08-01T07:41:20Z</time>
      </trkpt>
      <trkpt lat="43.46728" lon="1.07945">
        <ele>316.6</ele>
        <time>2024-08-01T07:41:21Z</time>
      </trkpt>
      <trkpt lat="43.46731" lon="1.07939">
        <ele>316.6</ele>
        <time>2024-08-01T07:41:22Z</time>
      </trkpt>
      <trkpt lat="43.46734" lon="1.07933">
        <ele>316.6</ele>
        <time>2024-08-01T07:41:23Z</time>
      </trkpt>
      <trkpt lat="43.46737" lon="1.07926">
        <ele>316.4</ele>
        <time>2024-08-01T07:41:24Z</time>
      </trkpt>
      <trkpt lat="43.4674" lon="1.0792">
        <ele>316.4</ele>
        <time>2024-08-01T07:41:25Z</time>
      </trkpt>
      <trkpt lat="43.46743" lon="1.07913">
        <ele>316.4</ele>
        <time>2024-08-01T07:41:26Z</time>
      </trkpt>
      <trkpt lat="43.46746" lon="1.07907">
        <ele>316.4</ele>
        <time>2024-08-01T07:41:27Z</time>
      </trkpt>
      <trkpt lat="43.46749" lon="1.079">
        <ele>316.4</ele>
        <time>2024-08-01T07:41:28Z</time>
      </trkpt>
      <trkpt lat="43.46752" lon="1.07894">
        <ele>316.4</ele>
        <time>2024-08-01T07:41:29Z</time>
      </trkpt>
      <trkpt lat="43.46755" lon="1.07887">
        <ele>316.4</ele>
        <time>2024-08-01T07:41:30Z</time>
      </trkpt>
      <trkpt lat="43.46758" lon="1.0788">
        <ele>316.4</ele>
        <time>2024-08-01T07:41:31Z</time>
      </trkpt>
      <trkpt lat="43.46761" lon="1.07873">
        <ele>316.4</ele>
        <time>2024-08-01T07:41:32Z</time>
      </trkpt>
      <trkpt lat="43.46764" lon="1.07867">
        <ele>316.4</ele>
        <time>2024-08-01T07:41:33Z</time>
      </trkpt>
      <trkpt lat="43.46767" lon="1.0786">
        <ele>316.4</ele>
        <time>2024-08-01T07:41:34Z</time>
      </trkpt>
      <trkpt lat="43.4677" lon="1.07853">
        <ele>316.4</ele>
        <time>2024-08-01T07:41:35Z</time>
      </trkpt>
      <trkpt lat="43.46773" lon="1.07847">
        <ele>316.4</ele>
        <time>2024-08-01T07:41:36Z</time>
      </trkpt>
      <trkpt lat="43.46776" lon="1.0784">
        <ele>316.4</ele>
        <time>2024-08-01T07:41:37Z</time>
      </trkpt>
      <trkpt lat="43.46779" lon="1.07833">
        <ele>316.4</ele>
        <time>2024-08-01T07:41:38Z</time>
      </trkpt>
      <trkpt lat="43.46782" lon="1.07827">
        <ele>316.4</ele>
        <time>2024-08-01T07:41:39Z</time>
      </trkpt>
      <trkpt lat="43.46785" lon="1.0782">
        <ele>316.4</ele>
        <time>2024-08-01T07:41:40Z</time>
      </trkpt>
      <trkpt lat="43.46788" lon="1.07814">
        <ele>316.4</ele>
        <time>2024-08-01T07:41:41Z</time>
      </trkpt>
      <trkpt lat="43.46791" lon="1.07807">
        <ele>316.4</ele>
        <time>2024-08-01T07:41:42Z</time>
      </trkpt>
      <trkpt lat="43.46794" lon="1.078">
        <ele>316.4</ele>
        <time>2024-08-01T07:41:43Z</time>
      </trkpt>
      <trkpt lat="43.46797" lon="1.07794">
        <ele>316.6</ele>
        <time>2024-08-01T07:41:44Z</time>
      </trkpt>
      <trkpt lat="43.468" lon="1.07787">
        <ele>316.6</ele>
        <time>2024-08-01T07:41:45Z</time>
      </trkpt>
      <trkpt lat="43.46803" lon="1.0778">
        <ele>316.6</ele>
        <time>2024-08-01T07:41:46Z</time>
      </trkpt>
      <trkpt lat="43.46806" lon="1.07774">
        <ele>316.6</ele>
        <time>2024-08-01T07:41:47Z</time>
      </trkpt>
      <trkpt lat="43.46809" lon="1.07767">
        <ele>316.8</ele>
        <time>2024-08-01T07:41:48Z</time>
      </trkpt>
      <trkpt lat="43.46812" lon="1.0776">
        <ele>316.8</ele>
        <time>2024-08-01T07:41:49Z</time>
      </trkpt>
      <trkpt lat="43.46815" lon="1.07754">
        <ele>316.8</ele>
        <time>2024-08-01T07:41:50Z</time>
      </trkpt>
      <trkpt lat="43.46818" lon="1.07747">
        <ele>317</ele>
        <time>2024-08-01T07:41:51Z</time>
      </trkpt>
      <trkpt lat="43.46821" lon="1.0774">
        <ele>317.2</ele>
        <time>2024-08-01T07:41:52Z</time>
      </trkpt>
      <trkpt lat="43.46825" lon="1.07733">
        <ele>317.4</ele>
        <time>2024-08-01T07:41:53Z</time>
      </trkpt>
      <trkpt lat="43.46828" lon="1.07726">
        <ele>317.4</ele>
        <time>2024-08-01T07:41:54Z</time>
      </trkpt>
      <trkpt lat="43.46831" lon="1.0772">
        <ele>317.6</ele>
        <time>2024-08-01T07:41:55Z</time>
      </trkpt>
      <trkpt lat="43.46834" lon="1.07713">
        <ele>317.6</ele>
        <time>2024-08-01T07:41:56Z</time>
      </trkpt>
      <trkpt lat="43.46837" lon="1.07706">
        <ele>317.6</ele>
        <time>2024-08-01T07:41:57Z</time>
      </trkpt>
      <trkpt lat="43.4684" lon="1.077">
        <ele>317.8</ele>
        <time>2024-08-01T07:41:58Z</time>
      </trkpt>
      <trkpt lat="43.46843" lon="1.07693">
        <ele>317.8</ele>
        <time>2024-08-01T07:41:59Z</time>
      </trkpt>
      <trkpt lat="43.46845" lon="1.07687">
        <ele>317.8</ele>
        <time>2024-08-01T07:42:00Z</time>
      </trkpt>
      <trkpt lat="43.46848" lon="1.07681">
        <ele>318</ele>
        <time>2024-08-01T07:42:01Z</time>
      </trkpt>
      <trkpt lat="43.46851" lon="1.07675">
        <ele>318.2</ele>
        <time>2024-08-01T07:42:02Z</time>
      </trkpt>
      <trkpt lat="43.46854" lon="1.07668">
        <ele>318.2</ele>
        <time>2024-08-01T07:42:03Z</time>
      </trkpt>
      <trkpt lat="43.46857" lon="1.07662">
        <ele>318.4</ele>
        <time>2024-08-01T07:42:04Z</time>
      </trkpt>
      <trkpt lat="43.4686" lon="1.07656">
        <ele>318.6</ele>
        <time>2024-08-01T07:42:05Z</time>
      </trkpt>
      <trkpt lat="43.46863" lon="1.07649">
        <ele>318.6</ele>
        <time>2024-08-01T07:42:06Z</time>
      </trkpt>
      <trkpt lat="43.46866" lon="1.07643">
        <ele>318.8</ele>
        <time>2024-08-01T07:42:07Z</time>
      </trkpt>
      <trkpt lat="43.46869" lon="1.07637">
        <ele>318.8</ele>
        <time>2024-08-01T07:42:08Z</time>
      </trkpt>
      <trkpt lat="43.46872" lon="1.07631">
        <ele>319</ele>
        <time>2024-08-01T07:42:09Z</time>
      </trkpt>
      <trkpt lat="43.46875" lon="1.07624">
        <ele>319</ele>
        <time>2024-08-01T07:42:10Z</time>
      </trkpt>
      <trkpt lat="43.46878" lon="1.07618">
        <ele>319.2</ele>
        <time>2024-08-01T07:42:11Z</time>
      </trkpt>
      <trkpt lat="43.46881" lon="1.07611">
        <ele>319.2</ele>
        <time>2024-08-01T07:42:12Z</time>
      </trkpt>
      <trkpt lat="43.46884" lon="1.07605">
        <ele>319.4</ele>
        <time>2024-08-01T07:42:13Z</time>
      </trkpt>
      <trkpt lat="43.46886" lon="1.07598">
        <ele>319.4</ele>
        <time>2024-08-01T07:42:14Z</time>
      </trkpt>
      <trkpt lat="43.4689" lon="1.07592">
        <ele>319.4</ele>
        <time>2024-08-01T07:42:15Z</time>
      </trkpt>
      <trkpt lat="43.46892" lon="1.07586">
        <ele>319.4</ele>
        <time>2024-08-01T07:42:16Z</time>
      </trkpt>
      <trkpt lat="43.46895" lon="1.07579">
        <ele>319.6</ele>
        <time>2024-08-01T07:42:17Z</time>
      </trkpt>
      <trkpt lat="43.46898" lon="1.07573">
        <ele>319.8</ele>
        <time>2024-08-01T07:42:18Z</time>
      </trkpt>
      <trkpt lat="43.46901" lon="1.07567">
        <ele>319.8</ele>
        <time>2024-08-01T07:42:19Z</time>
      </trkpt>
      <trkpt lat="43.46904" lon="1.0756">
        <ele>319.8</ele>
        <time>2024-08-01T07:42:20Z</time>
      </trkpt>
      <trkpt lat="43.46907" lon="1.07554">
        <ele>320</ele>
        <time>2024-08-01T07:42:21Z</time>
      </trkpt>
      <trkpt lat="43.46909" lon="1.07548">
        <ele>320</ele>
        <time>2024-08-01T07:42:22Z</time>
      </trkpt>
      <trkpt lat="43.46912" lon="1.07542">
        <ele>320</ele>
        <time>2024-08-01T07:42:23Z</time>
      </trkpt>
      <trkpt lat="43.46915" lon="1.07536">
        <ele>320</ele>
        <time>2024-08-01T07:42:24Z</time>
      </trkpt>
      <trkpt lat="43.46918" lon="1.0753">
        <ele>320.2</ele>
        <time>2024-08-01T07:42:25Z</time>
      </trkpt>
      <trkpt lat="43.46921" lon="1.07524">
        <ele>320.2</ele>
        <time>2024-08-01T07:42:26Z</time>
      </trkpt>
      <trkpt lat="43.46923" lon="1.07517">
        <ele>320.2</ele>
        <time>2024-08-01T07:42:27Z</time>
      </trkpt>
      <trkpt lat="43.46926" lon="1.07511">
        <ele>320.4</ele>
        <time>2024-08-01T07:42:28Z</time>
      </trkpt>
      <trkpt lat="43.46929" lon="1.07505">
        <ele>320.6</ele>
        <time>2024-08-01T07:42:29Z</time>
      </trkpt>
      <trkpt lat="43.46931" lon="1.07499">
        <ele>320.6</ele>
        <time>2024-08-01T07:42:30Z</time>
      </trkpt>
      <trkpt lat="43.46933" lon="1.07493">
        <ele>320.6</ele>
        <time>2024-08-01T07:42:31Z</time>
      </trkpt>
      <trkpt lat="43.46935" lon="1.07487">
        <ele>320.8</ele>
        <time>2024-08-01T07:42:32Z</time>
      </trkpt>
      <trkpt lat="43.46938" lon="1.07481">
        <ele>320.8</ele>
        <time>2024-08-01T07:42:33Z</time>
      </trkpt>
      <trkpt lat="43.46939" lon="1.07474">
        <ele>320.8</ele>
        <time>2024-08-01T07:42:34Z</time>
      </trkpt>
      <trkpt lat="43.46941" lon="1.07467">
        <ele>321</ele>
        <time>2024-08-01T07:42:35Z</time>
      </trkpt>
      <trkpt lat="43.46942" lon="1.0746">
        <ele>321</ele>
        <time>2024-08-01T07:42:36Z</time>
      </trkpt>
      <trkpt lat="43.46943" lon="1.07454">
        <ele>321</ele>
        <time>2024-08-01T07:42:37Z</time>
      </trkpt>
      <trkpt lat="43.46943" lon="1.07446">
        <ele>321</ele>
        <time>2024-08-01T07:42:38Z</time>
      </trkpt>
      <trkpt lat="43.46944" lon="1.07439">
        <ele>321.2</ele>
        <time>2024-08-01T07:42:39Z</time>
      </trkpt>
      <trkpt lat="43.46944" lon="1.07432">
        <ele>321.2</ele>
        <time>2024-08-01T07:42:40Z</time>
      </trkpt>
      <trkpt lat="43.46944" lon="1.07425">
        <ele>321.2</ele>
        <time>2024-08-01T07:42:41Z</time>
      </trkpt>
      <trkpt lat="43.46944" lon="1.07418">
        <ele>321.4</ele>
        <time>2024-08-01T07:42:42Z</time>
      </trkpt>
      <trkpt lat="43.46943" lon="1.07412">
        <ele>321.4</ele>
        <time>2024-08-01T07:42:43Z</time>
      </trkpt>
      <trkpt lat="43.46942" lon="1.07406">
        <ele>321.4</ele>
        <time>2024-08-01T07:42:44Z</time>
      </trkpt>
      <trkpt lat="43.46941" lon="1.074">
        <ele>321.4</ele>
        <time>2024-08-01T07:42:45Z</time>
      </trkpt>
      <trkpt lat="43.4694" lon="1.07394">
        <ele>321.4</ele>
        <time>2024-08-01T07:42:46Z</time>
      </trkpt>
      <trkpt lat="43.46939" lon="1.07389">
        <ele>321.4</ele>
        <time>2024-08-01T07:42:47Z</time>
      </trkpt>
      <trkpt lat="43.46939" lon="1.07384">
        <ele>321.6</ele>
        <time>2024-08-01T07:42:48Z</time>
      </trkpt>
      <trkpt lat="43.46938" lon="1.07379">
        <ele>321.6</ele>
        <time>2024-08-01T07:42:49Z</time>
      </trkpt>
      <trkpt lat="43.46936" lon="1.07373">
        <ele>321.6</ele>
        <time>2024-08-01T07:42:50Z</time>
      </trkpt>
      <trkpt lat="43.46935" lon="1.07368">
        <ele>321.6</ele>
        <time>2024-08-01T07:42:51Z</time>
      </trkpt>
      <trkpt lat="43.46934" lon="1.07363">
        <ele>321.6</ele>
        <time>2024-08-01T07:42:52Z</time>
      </trkpt>
      <trkpt lat="43.46934" lon="1.07357">
        <ele>321.6</ele>
        <time>2024-08-01T07:42:53Z</time>
      </trkpt>
      <trkpt lat="43.46933" lon="1.07351">
        <ele>321.6</ele>
        <time>2024-08-01T07:42:54Z</time>
      </trkpt>
      <trkpt lat="43.46931" lon="1.07345">
        <ele>321.6</ele>
        <time>2024-08-01T07:42:55Z</time>
      </trkpt>
      <trkpt lat="43.4693" lon="1.07339">
        <ele>321.6</ele>
        <time>2024-08-01T07:42:56Z</time>
      </trkpt>
      <trkpt lat="43.46928" lon="1.07332">
        <ele>321.6</ele>
        <time>2024-08-01T07:42:57Z</time>
      </trkpt>
      <trkpt lat="43.46926" lon="1.07325">
        <ele>321.6</ele>
        <time>2024-08-01T07:42:58Z</time>
      </trkpt>
      <trkpt lat="43.46923" lon="1.07318">
        <ele>321.6</ele>
        <time>2024-08-01T07:42:59Z</time>
      </trkpt>
      <trkpt lat="43.4692" lon="1.0731">
        <ele>321.4</ele>
        <time>2024-08-01T07:43:00Z</time>
      </trkpt>
      <trkpt lat="43.46918" lon="1.07302">
        <ele>321.4</ele>
        <time>2024-08-01T07:43:01Z</time>
      </trkpt>
      <trkpt lat="43.46915" lon="1.07294">
        <ele>321</ele>
        <time>2024-08-01T07:43:02Z</time>
      </trkpt>
      <trkpt lat="43.46912" lon="1.07285">
        <ele>321</ele>
        <time>2024-08-01T07:43:03Z</time>
      </trkpt>
      <trkpt lat="43.46909" lon="1.07276">
        <ele>320.6</ele>
        <time>2024-08-01T07:43:04Z</time>
      </trkpt>
      <trkpt lat="43.46906" lon="1.07266">
        <ele>320.2</ele>
        <time>2024-08-01T07:43:05Z</time>
      </trkpt>
      <trkpt lat="43.46903" lon="1.07257">
        <ele>320</ele>
        <time>2024-08-01T07:43:06Z</time>
      </trkpt>
      <trkpt lat="43.46899" lon="1.07246">
        <ele>319.8</ele>
        <time>2024-08-01T07:43:07Z</time>
      </trkpt>
      <trkpt lat="43.46896" lon="1.07235">
        <ele>319.6</ele>
        <time>2024-08-01T07:43:08Z</time>
      </trkpt>
      <trkpt lat="43.46892" lon="1.07223">
        <ele>318.4</ele>
        <time>2024-08-01T07:43:09Z</time>
      </trkpt>
      <trkpt lat="43.46888" lon="1.07209">
        <ele>318</ele>
        <time>2024-08-01T07:43:10Z</time>
      </trkpt>
      <trkpt lat="43.46885" lon="1.07197">
        <ele>317.4</ele>
        <time>2024-08-01T07:43:11Z</time>
      </trkpt>
      <trkpt lat="43.46881" lon="1.07183">
        <ele>316.8</ele>
        <time>2024-08-01T07:43:12Z</time>
      </trkpt>
      <trkpt lat="43.46876" lon="1.0717">
        <ele>316.8</ele>
        <time>2024-08-01T07:43:13Z</time>
      </trkpt>
      <trkpt lat="43.46872" lon="1.07156">
        <ele>315.8</ele>
        <time>2024-08-01T07:43:14Z</time>
      </trkpt>
      <trkpt lat="43.46868" lon="1.07141">
        <ele>315.2</ele>
        <time>2024-08-01T07:43:15Z</time>
      </trkpt>
      <trkpt lat="43.46863" lon="1.07127">
        <ele>314.2</ele>
        <time>2024-08-01T07:43:16Z</time>
      </trkpt>
      <trkpt lat="43.46859" lon="1.07112">
        <ele>313.8</ele>
        <time>2024-08-01T07:43:17Z</time>
      </trkpt>
      <trkpt lat="43.46855" lon="1.07096">
        <ele>313.2</ele>
        <time>2024-08-01T07:43:18Z</time>
      </trkpt>
      <trkpt lat="43.46852" lon="1.0708">
        <ele>312</ele>
        <time>2024-08-01T07:43:19Z</time>
      </trkpt>
      <trkpt lat="43.46849" lon="1.07064">
        <ele>311.6</ele>
        <time>2024-08-01T07:43:20Z</time>
      </trkpt>
      <trkpt lat="43.46846" lon="1.07048">
        <ele>310.4</ele>
        <time>2024-08-01T07:43:21Z</time>
      </trkpt>
      <trkpt lat="43.46842" lon="1.07031">
        <ele>309.8</ele>
        <time>2024-08-01T07:43:22Z</time>
      </trkpt>
      <trkpt lat="43.4684" lon="1.07014">
        <ele>309.2</ele>
        <time>2024-08-01T07:43:23Z</time>
      </trkpt>
      <trkpt lat="43.46836" lon="1.06998">
        <ele>308.2</ele>
        <time>2024-08-01T07:43:24Z</time>
      </trkpt>
      <trkpt lat="43.46833" lon="1.06982">
        <ele>306.6</ele>
        <time>2024-08-01T07:43:25Z</time>
      </trkpt>
      <trkpt lat="43.46829" lon="1.06966">
        <ele>305.4</ele>
        <time>2024-08-01T07:43:26Z</time>
      </trkpt>
      <trkpt lat="43.46825" lon="1.0695">
        <ele>305</ele>
        <time>2024-08-01T07:43:27Z</time>
      </trkpt>
      <trkpt lat="43.46821" lon="1.06934">
        <ele>303.8</ele>
        <time>2024-08-01T07:43:28Z</time>
      </trkpt>
      <trkpt lat="43.46817" lon="1.06919">
        <ele>303.4</ele>
        <time>2024-08-01T07:43:29Z</time>
      </trkpt>
      <trkpt lat="43.46813" lon="1.06904">
        <ele>302.4</ele>
        <time>2024-08-01T07:43:30Z</time>
      </trkpt>
      <trkpt lat="43.46809" lon="1.06889">
        <ele>302</ele>
        <time>2024-08-01T07:43:31Z</time>
      </trkpt>
      <trkpt lat="43.46805" lon="1.06874">
        <ele>301</ele>
        <time>2024-08-01T07:43:32Z</time>
      </trkpt>
      <trkpt lat="43.46801" lon="1.0686">
        <ele>299.6</ele>
        <time>2024-08-01T07:43:33Z</time>
      </trkpt>
      <trkpt lat="43.46797" lon="1.06845">
        <ele>299.2</ele>
        <time>2024-08-01T07:43:34Z</time>
      </trkpt>
      <trkpt lat="43.46791" lon="1.0683">
        <ele>298.6</ele>
        <time>2024-08-01T07:43:35Z</time>
      </trkpt>
      <trkpt lat="43.46785" lon="1.06816">
        <ele>298.4</ele>
        <time>2024-08-01T07:43:36Z</time>
      </trkpt>
      <trkpt lat="43.46778" lon="1.06801">
        <ele>297.4</ele>
        <time>2024-08-01T07:43:37Z</time>
      </trkpt>
      <trkpt lat="43.46771" lon="1.06786">
        <ele>297</ele>
        <time>2024-08-01T07:43:38Z</time>
      </trkpt>
      <trkpt lat="43.46765" lon="1.06771">
        <ele>295</ele>
        <time>2024-08-01T07:43:39Z</time>
      </trkpt>
      <trkpt lat="43.4676" lon="1.06756">
        <ele>294</ele>
        <time>2024-08-01T07:43:40Z</time>
      </trkpt>
      <trkpt lat="43.46755" lon="1.06739">
        <ele>293.6</ele>
        <time>2024-08-01T07:43:41Z</time>
      </trkpt>
      <trkpt lat="43.46751" lon="1.06723">
        <ele>291.8</ele>
        <time>2024-08-01T07:43:42Z</time>
      </trkpt>
      <trkpt lat="43.46748" lon="1.06707">
        <ele>290.8</ele>
        <time>2024-08-01T07:43:43Z</time>
      </trkpt>
      <trkpt lat="43.46746" lon="1.06691">
        <ele>289.6</ele>
        <time>2024-08-01T07:43:44Z</time>
      </trkpt>
      <trkpt lat="43.46743" lon="1.06675">
        <ele>289.2</ele>
        <time>2024-08-01T07:43:45Z</time>
      </trkpt>
      <trkpt lat="43.46741" lon="1.06659">
        <ele>287.6</ele>
        <time>2024-08-01T07:43:46Z</time>
      </trkpt>
      <trkpt lat="43.46739" lon="1.06643">
        <ele>286.2</ele>
        <time>2024-08-01T07:43:47Z</time>
      </trkpt>
      <trkpt lat="43.46737" lon="1.06626">
        <ele>285.6</ele>
        <time>2024-08-01T07:43:48Z</time>
      </trkpt>
      <trkpt lat="43.46735" lon="1.0661">
        <ele>284.4</ele>
        <time>2024-08-01T07:43:49Z</time>
      </trkpt>
      <trkpt lat="43.46732" lon="1.06594">
        <ele>283.8</ele>
        <time>2024-08-01T07:43:50Z</time>
      </trkpt>
      <trkpt lat="43.4673" lon="1.06578">
        <ele>283.4</ele>
        <time>2024-08-01T07:43:51Z</time>
      </trkpt>
      <trkpt lat="43.46728" lon="1.06562">
        <ele>283.2</ele>
        <time>2024-08-01T07:43:52Z</time>
      </trkpt>
      <trkpt lat="43.46726" lon="1.06547">
        <ele>282.4</ele>
        <time>2024-08-01T07:43:53Z</time>
      </trkpt>
      <trkpt lat="43.46723" lon="1.06533">
        <ele>281.6</ele>
        <time>2024-08-01T07:43:54Z</time>
      </trkpt>
      <trkpt lat="43.4672" lon="1.06519">
        <ele>281.4</ele>
        <time>2024-08-01T07:43:55Z</time>
      </trkpt>
      <trkpt lat="43.46718" lon="1.06505">
        <ele>281</ele>
        <time>2024-08-01T07:43:56Z</time>
      </trkpt>
      <trkpt lat="43.46715" lon="1.06492">
        <ele>280.8</ele>
        <time>2024-08-01T07:43:57Z</time>
      </trkpt>
      <trkpt lat="43.46713" lon="1.0648">
        <ele>280.6</ele>
        <time>2024-08-01T07:43:58Z</time>
      </trkpt>
      <trkpt lat="43.4671" lon="1.06468">
        <ele>280.4</ele>
        <time>2024-08-01T07:43:59Z</time>
      </trkpt>
      <trkpt lat="43.46708" lon="1.06457">
        <ele>280.4</ele>
        <time>2024-08-01T07:44:00Z</time>
      </trkpt>
      <trkpt lat="43.46705" lon="1.06447">
        <ele>280.4</ele>
        <time>2024-08-01T07:44:01Z</time>
      </trkpt>
      <trkpt lat="43.46704" lon="1.06438">
        <ele>280.4</ele>
        <time>2024-08-01T07:44:02Z</time>
      </trkpt>
      <trkpt lat="43.46702" lon="1.0643">
        <ele>280.6</ele>
        <time>2024-08-01T07:44:03Z</time>
      </trkpt>
      <trkpt lat="43.46701" lon="1.06422">
        <ele>280.6</ele>
        <time>2024-08-01T07:44:04Z</time>
      </trkpt>
      <trkpt lat="43.467" lon="1.06414">
        <ele>281</ele>
        <time>2024-08-01T07:44:05Z</time>
      </trkpt>
      <trkpt lat="43.467" lon="1.06407">
        <ele>281.2</ele>
        <time>2024-08-01T07:44:06Z</time>
      </trkpt>
      <trkpt lat="43.46701" lon="1.06399">
        <ele>281.6</ele>
        <time>2024-08-01T07:44:07Z</time>
      </trkpt>
      <trkpt lat="43.46701" lon="1.06392">
        <ele>282</ele>
        <time>2024-08-01T07:44:08Z</time>
      </trkpt>
      <trkpt lat="43.46703" lon="1.06385">
        <ele>282.2</ele>
        <time>2024-08-01T07:44:09Z</time>
      </trkpt>
      <trkpt lat="43.46704" lon="1.06378">
        <ele>282.8</ele>
        <time>2024-08-01T07:44:10Z</time>
      </trkpt>
      <trkpt lat="43.46705" lon="1.06372">
        <ele>282.8</ele>
        <time>2024-08-01T07:44:11Z</time>
      </trkpt>
      <trkpt lat="43.46707" lon="1.06365">
        <ele>283.2</ele>
        <time>2024-08-01T07:44:12Z</time>
      </trkpt>
      <trkpt lat="43.46708" lon="1.06359">
        <ele>283.2</ele>
        <time>2024-08-01T07:44:13Z</time>
      </trkpt>
      <trkpt lat="43.46709" lon="1.06353">
        <ele>283.4</ele>
        <time>2024-08-01T07:44:14Z</time>
      </trkpt>
      <trkpt lat="43.4671" lon="1.06347">
        <ele>283.6</ele>
        <time>2024-08-01T07:44:15Z</time>
      </trkpt>
      <trkpt lat="43.46711" lon="1.06341">
        <ele>283.6</ele>
        <time>2024-08-01T07:44:16Z</time>
      </trkpt>
      <trkpt lat="43.46712" lon="1.06335">
        <ele>283.8</ele>
        <time>2024-08-01T07:44:17Z</time>
      </trkpt>
      <trkpt lat="43.46713" lon="1.06329">
        <ele>283.8</ele>
        <time>2024-08-01T07:44:18Z</time>
      </trkpt>
      <trkpt lat="43.46713" lon="1.06322">
        <ele>283.8</ele>
        <time>2024-08-01T07:44:19Z</time>
      </trkpt>
      <trkpt lat="43.46714" lon="1.06316">
        <ele>283.8</ele>
        <time>2024-08-01T07:44:20Z</time>
      </trkpt>
      <trkpt lat="43.46715" lon="1.0631">
        <ele>284</ele>
        <time>2024-08-01T07:44:21Z</time>
      </trkpt>
      <trkpt lat="43.46716" lon="1.06303">
        <ele>284</ele>
        <time>2024-08-01T07:44:22Z</time>
      </trkpt>
      <trkpt lat="43.46717" lon="1.06297">
        <ele>284</ele>
        <time>2024-08-01T07:44:23Z</time>
      </trkpt>
      <trkpt lat="43.46718" lon="1.06291">
        <ele>284</ele>
        <time>2024-08-01T07:44:24Z</time>
      </trkpt>
      <trkpt lat="43.46718" lon="1.06286">
        <ele>284</ele>
        <time>2024-08-01T07:44:25Z</time>
      </trkpt>
      <trkpt lat="43.46719" lon="1.06281">
        <ele>284</ele>
        <time>2024-08-01T07:44:26Z</time>
      </trkpt>
      <trkpt lat="43.46719" lon="1.06277">
        <ele>284.2</ele>
        <time>2024-08-01T07:44:27Z</time>
      </trkpt>
      <trkpt lat="43.4672" lon="1.06274">
        <ele>284.2</ele>
        <time>2024-08-01T07:44:28Z</time>
      </trkpt>
      <trkpt lat="43.4672" lon="1.06271">
        <ele>284.2</ele>
        <time>2024-08-01T07:44:29Z</time>
      </trkpt>
      <trkpt lat="43.4672" lon="1.06269">
        <ele>284.2</ele>
        <time>2024-08-01T07:44:30Z</time>
      </trkpt>
      <trkpt lat="43.46721" lon="1.06268">
        <ele>284.2</ele>
        <time>2024-08-01T07:44:31Z</time>
      </trkpt>
      <trkpt lat="43.46721" lon="1.06268">
        <ele>284.2</ele>
        <time>2024-08-01T07:44:32Z</time>
      </trkpt>
      <trkpt lat="43.46721" lon="1.06268">
        <ele>284.2</ele>
        <time>2024-08-01T07:44:33Z</time>
      </trkpt>
      <trkpt lat="43.4672" lon="1.06265">
        <ele>284</ele>
        <time>2024-08-01T07:48:24Z</time>
      </trkpt>
      <trkpt lat="43.46719" lon="1.06263">
        <ele>284</ele>
        <time>2024-08-01T07:48:25Z</time>
      </trkpt>
      <trkpt lat="43.46717" lon="1.06261">
        <ele>283.8</ele>
        <time>2024-08-01T07:48:26Z</time>
      </trkpt>
      <trkpt lat="43.46715" lon="1.0626">
        <ele>283.8</ele>
        <time>2024-08-01T07:48:27Z</time>
      </trkpt>
      <trkpt lat="43.46713" lon="1.0626">
        <ele>283.6</ele>
        <time>2024-08-01T07:48:28Z</time>
      </trkpt>
      <trkpt lat="43.46711" lon="1.06259">
        <ele>283.6</ele>
        <time>2024-08-01T07:48:29Z</time>
      </trkpt>
      <trkpt lat="43.46709" lon="1.06258">
        <ele>283.6</ele>
        <time>2024-08-01T07:48:30Z</time>
      </trkpt>
      <trkpt lat="43.46707" lon="1.06257">
        <ele>283.6</ele>
        <time>2024-08-01T07:48:31Z</time>
      </trkpt>
      <trkpt lat="43.46705" lon="1.06256">
        <ele>283.4</ele>
        <time>2024-08-01T07:48:32Z</time>
      </trkpt>
      <trkpt lat="43.46702" lon="1.06255">
        <ele>283.4</ele>
        <time>2024-08-01T07:48:33Z</time>
      </trkpt>
      <trkpt lat="43.46699" lon="1.06255">
        <ele>283.2</ele>
        <time>2024-08-01T07:48:34Z</time>
      </trkpt>
      <trkpt lat="43.46696" lon="1.06254">
        <ele>283.2</ele>
        <time>2024-08-01T07:48:35Z</time>
      </trkpt>
      <trkpt lat="43.46693" lon="1.06254">
        <ele>283.2</ele>
        <time>2024-08-01T07:48:36Z</time>
      </trkpt>
      <trkpt lat="43.4669" lon="1.06254">
        <ele>283.2</ele>
        <time>2024-08-01T07:48:37Z</time>
      </trkpt>
      <trkpt lat="43.46687" lon="1.06254">
        <ele>283.2</ele>
        <time>2024-08-01T07:48:38Z</time>
      </trkpt>
      <trkpt lat="43.46684" lon="1.06254">
        <ele>283</ele>
        <time>2024-08-01T07:48:39Z</time>
      </trkpt>
      <trkpt lat="43.46681" lon="1.06253">
        <ele>283</ele>
        <time>2024-08-01T07:48:40Z</time>
      </trkpt>
      <trkpt lat="43.46678" lon="1.06253">
        <ele>283</ele>
        <time>2024-08-01T07:48:41Z</time>
      </trkpt>
      <trkpt lat="43.46674" lon="1.06252">
        <ele>283</ele>
        <time>2024-08-01T07:48:42Z</time>
      </trkpt>
      <trkpt lat="43.46671" lon="1.06251">
        <ele>283</ele>
        <time>2024-08-01T07:48:43Z</time>
      </trkpt>
      <trkpt lat="43.46668" lon="1.06251">
        <ele>283</ele>
        <time>2024-08-01T07:48:44Z</time>
      </trkpt>
      <trkpt lat="43.46664" lon="1.0625">
        <ele>283</ele>
        <time>2024-08-01T07:48:45Z</time>
      </trkpt>
      <trkpt lat="43.4666" lon="1.06249">
        <ele>283.2</ele>
        <time>2024-08-01T07:48:46Z</time>
      </trkpt>
      <trkpt lat="43.46657" lon="1.06249">
        <ele>283.2</ele>
        <time>2024-08-01T07:48:47Z</time>
      </trkpt>
      <trkpt lat="43.46653" lon="1.06248">
        <ele>283.2</ele>
        <time>2024-08-01T07:48:48Z</time>
      </trkpt>
      <trkpt lat="43.46649" lon="1.06247">
        <ele>283</ele>
        <time>2024-08-01T07:48:49Z</time>
      </trkpt>
      <trkpt lat="43.46645" lon="1.06246">
        <ele>283</ele>
        <time>2024-08-01T07:48:50Z</time>
      </trkpt>
      <trkpt lat="43.46641" lon="1.06246">
        <ele>283</ele>
        <time>2024-08-01T07:48:51Z</time>
      </trkpt>
      <trkpt lat="43.46637" lon="1.06246">
        <ele>283</ele>
        <time>2024-08-01T07:48:52Z</time>
      </trkpt>
      <trkpt lat="43.46632" lon="1.06246">
        <ele>283</ele>
        <time>2024-08-01T07:48:53Z</time>
      </trkpt>
      <trkpt lat="43.46628" lon="1.06246">
        <ele>283</ele>
        <time>2024-08-01T07:48:54Z</time>
      </trkpt>
      <trkpt lat="43.46624" lon="1.06246">
        <ele>283</ele>
        <time>2024-08-01T07:48:55Z</time>
      </trkpt>
      <trkpt lat="43.4662" lon="1.06247">
        <ele>283</ele>
        <time>2024-08-01T07:48:56Z</time>
      </trkpt>
      <trkpt lat="43.46616" lon="1.06248">
        <ele>283.2</ele>
        <time>2024-08-01T07:48:57Z</time>
      </trkpt>
      <trkpt lat="43.46612" lon="1.0625">
        <ele>283</ele>
        <time>2024-08-01T07:48:58Z</time>
      </trkpt>
      <trkpt lat="43.46608" lon="1.06252">
        <ele>283</ele>
        <time>2024-08-01T07:48:59Z</time>
      </trkpt>
      <trkpt lat="43.46604" lon="1.06255">
        <ele>282.8</ele>
        <time>2024-08-01T07:49:00Z</time>
      </trkpt>
      <trkpt lat="43.466" lon="1.06258">
        <ele>283</ele>
        <time>2024-08-01T07:49:01Z</time>
      </trkpt>
      <trkpt lat="43.46595" lon="1.06261">
        <ele>283</ele>
        <time>2024-08-01T07:49:02Z</time>
      </trkpt>
      <trkpt lat="43.46591" lon="1.06265">
        <ele>282.8</ele>
        <time>2024-08-01T07:49:03Z</time>
      </trkpt>
      <trkpt lat="43.46588" lon="1.06269">
        <ele>282.8</ele>
        <time>2024-08-01T07:49:04Z</time>
      </trkpt>
      <trkpt lat="43.46585" lon="1.06273">
        <ele>282.8</ele>
        <time>2024-08-01T07:49:05Z</time>
      </trkpt>
      <trkpt lat="43.46581" lon="1.06277">
        <ele>282.6</ele>
        <time>2024-08-01T07:49:06Z</time>
      </trkpt>
      <trkpt lat="43.46578" lon="1.06281">
        <ele>282.6</ele>
        <time>2024-08-01T07:49:07Z</time>
      </trkpt>
      <trkpt lat="43.46574" lon="1.06285">
        <ele>282.8</ele>
        <time>2024-08-01T07:49:08Z</time>
      </trkpt>
      <trkpt lat="43.46571" lon="1.06289">
        <ele>283</ele>
        <time>2024-08-01T07:49:09Z</time>
      </trkpt>
      <trkpt lat="43.46568" lon="1.06292">
        <ele>283</ele>
        <time>2024-08-01T07:49:10Z</time>
      </trkpt>
      <trkpt lat="43.46565" lon="1.06296">
        <ele>283</ele>
        <time>2024-08-01T07:49:11Z</time>
      </trkpt>
      <trkpt lat="43.46562" lon="1.063">
        <ele>283</ele>
        <time>2024-08-01T07:49:12Z</time>
      </trkpt>
      <trkpt lat="43.46558" lon="1.06304">
        <ele>283</ele>
        <time>2024-08-01T07:49:13Z</time>
      </trkpt>
      <trkpt lat="43.46555" lon="1.06307">
        <ele>283.4</ele>
        <time>2024-08-01T07:49:14Z</time>
      </trkpt>
      <trkpt lat="43.46552" lon="1.06311">
        <ele>283.4</ele>
        <time>2024-08-01T07:49:15Z</time>
      </trkpt>
      <trkpt lat="43.46548" lon="1.06315">
        <ele>283.6</ele>
        <time>2024-08-01T07:49:16Z</time>
      </trkpt>
      <trkpt lat="43.46545" lon="1.06319">
        <ele>283.6</ele>
        <time>2024-08-01T07:49:17Z</time>
      </trkpt>
      <trkpt lat="43.46542" lon="1.06323">
        <ele>283.8</ele>
        <time>2024-08-01T07:49:18Z</time>
      </trkpt>
      <trkpt lat="43.46538" lon="1.06327">
        <ele>283.8</ele>
        <time>2024-08-01T07:49:19Z</time>
      </trkpt>
      <trkpt lat="43.46535" lon="1.06331">
        <ele>284</ele>
        <time>2024-08-01T07:49:20Z</time>
      </trkpt>
      <trkpt lat="43.46532" lon="1.06335">
        <ele>284</ele>
        <time>2024-08-01T07:49:21Z</time>
      </trkpt>
      <trkpt lat="43.46529" lon="1.06338">
        <ele>284.2</ele>
        <time>2024-08-01T07:49:22Z</time>
      </trkpt>
      <trkpt lat="43.46525" lon="1.06343">
        <ele>284.2</ele>
        <time>2024-08-01T07:49:23Z</time>
      </trkpt>
      <trkpt lat="43.46522" lon="1.06347">
        <ele>284.2</ele>
        <time>2024-08-01T07:49:24Z</time>
      </trkpt>
      <trkpt lat="43.46519" lon="1.06351">
        <ele>284.2</ele>
        <time>2024-08-01T07:49:25Z</time>
      </trkpt>
      <trkpt lat="43.46515" lon="1.06354">
        <ele>284.4</ele>
        <time>2024-08-01T07:49:26Z</time>
      </trkpt>
      <trkpt lat="43.46512" lon="1.06358">
        <ele>284.4</ele>
        <time>2024-08-01T07:49:27Z</time>
      </trkpt>
      <trkpt lat="43.46509" lon="1.06362">
        <ele>284.4</ele>
        <time>2024-08-01T07:49:28Z</time>
      </trkpt>
      <trkpt lat="43.46505" lon="1.06366">
        <ele>284.6</ele>
        <time>2024-08-01T07:49:29Z</time>
      </trkpt>
      <trkpt lat="43.46502" lon="1.0637">
        <ele>284.6</ele>
        <time>2024-08-01T07:49:30Z</time>
      </trkpt>
      <trkpt lat="43.46498" lon="1.06374">
        <ele>284.8</ele>
        <time>2024-08-01T07:49:31Z</time>
      </trkpt>
      <trkpt lat="43.46495" lon="1.06377">
        <ele>284.8</ele>
        <time>2024-08-01T07:49:32Z</time>
      </trkpt>
      <trkpt lat="43.46491" lon="1.0638">
        <ele>285</ele>
        <time>2024-08-01T07:49:33Z</time>
      </trkpt>
      <trkpt lat="43.46488" lon="1.06384">
        <ele>285.2</ele>
        <time>2024-08-01T07:49:34Z</time>
      </trkpt>
      <trkpt lat="43.46484" lon="1.06388">
        <ele>285.2</ele>
        <time>2024-08-01T07:49:35Z</time>
      </trkpt>
      <trkpt lat="43.4648" lon="1.06391">
        <ele>285.4</ele>
        <time>2024-08-01T07:49:36Z</time>
      </trkpt>
      <trkpt lat="43.46476" lon="1.06395">
        <ele>285.4</ele>
        <time>2024-08-01T07:49:37Z</time>
      </trkpt>
      <trkpt lat="43.46472" lon="1.06398">
        <ele>285.4</ele>
        <time>2024-08-01T07:49:38Z</time>
      </trkpt>
      <trkpt lat="43.46468" lon="1.06402">
        <ele>285.6</ele>
        <time>2024-08-01T07:49:39Z</time>
      </trkpt>
      <trkpt lat="43.46464" lon="1.06405">
        <ele>285.6</ele>
        <time>2024-08-01T07:49:40Z</time>
      </trkpt>
      <trkpt lat="43.46459" lon="1.06408">
        <ele>285.6</ele>
        <time>2024-08-01T07:49:41Z</time>
      </trkpt>
      <trkpt lat="43.46455" lon="1.06411">
        <ele>285.6</ele>
        <time>2024-08-01T07:49:42Z</time>
      </trkpt>
      <trkpt lat="43.4645" lon="1.06415">
        <ele>285.6</ele>
        <time>2024-08-01T07:49:43Z</time>
      </trkpt>
      <trkpt lat="43.46446" lon="1.06418">
        <ele>285.6</ele>
        <time>2024-08-01T07:49:44Z</time>
      </trkpt>
      <trkpt lat="43.46441" lon="1.06422">
        <ele>285.6</ele>
        <time>2024-08-01T07:49:45Z</time>
      </trkpt>
      <trkpt lat="43.46436" lon="1.06425">
        <ele>285.2</ele>
        <time>2024-08-01T07:49:46Z</time>
      </trkpt>
      <trkpt lat="43.46431" lon="1.06428">
        <ele>285.2</ele>
        <time>2024-08-01T07:49:47Z</time>
      </trkpt>
      <trkpt lat="43.46426" lon="1.06431">
        <ele>285.2</ele>
        <time>2024-08-01T07:49:48Z</time>
      </trkpt>
      <trkpt lat="43.4642" lon="1.06435">
        <ele>285</ele>
        <time>2024-08-01T07:49:49Z</time>
      </trkpt>
      <trkpt lat="43.46415" lon="1.06439">
        <ele>284.8</ele>
        <time>2024-08-01T07:49:50Z</time>
      </trkpt>
      <trkpt lat="43.46409" lon="1.06443">
        <ele>284.6</ele>
        <time>2024-08-01T07:49:51Z</time>
      </trkpt>
      <trkpt lat="43.46403" lon="1.06447">
        <ele>284.4</ele>
        <time>2024-08-01T07:49:52Z</time>
      </trkpt>
      <trkpt lat="43.46397" lon="1.06451">
        <ele>284.2</ele>
        <time>2024-08-01T07:49:53Z</time>
      </trkpt>
      <trkpt lat="43.46391" lon="1.06455">
        <ele>284</ele>
        <time>2024-08-01T07:49:54Z</time>
      </trkpt>
      <trkpt lat="43.46386" lon="1.06459">
        <ele>283.8</ele>
        <time>2024-08-01T07:49:55Z</time>
      </trkpt>
      <trkpt lat="43.4638" lon="1.06463">
        <ele>283.6</ele>
        <time>2024-08-01T07:49:56Z</time>
      </trkpt>
      <trkpt lat="43.46374" lon="1.06467">
        <ele>283.4</ele>
        <time>2024-08-01T07:49:57Z</time>
      </trkpt>
      <trkpt lat="43.46368" lon="1.06471">
        <ele>283.2</ele>
        <time>2024-08-01T07:49:58Z</time>
      </trkpt>
      <trkpt lat="43.46362" lon="1.06475">
        <ele>283.2</ele>
        <time>2024-08-01T07:49:59Z</time>
      </trkpt>
      <trkpt lat="43.46356" lon="1.06479">
        <ele>283.2</ele>
        <time>2024-08-01T07:50:00Z</time>
      </trkpt>
      <trkpt lat="43.46351" lon="1.06483">
        <ele>283</ele>
        <time>2024-08-01T07:50:01Z</time>
      </trkpt>
      <trkpt lat="43.46346" lon="1.06487">
        <ele>282.8</ele>
        <time>2024-08-01T07:50:02Z</time>
      </trkpt>
      <trkpt lat="43.46341" lon="1.0649">
        <ele>282.8</ele>
        <time>2024-08-01T07:50:03Z</time>
      </trkpt>
      <trkpt lat="43.46336" lon="1.06494">
        <ele>282.8</ele>
        <time>2024-08-01T07:50:04Z</time>
      </trkpt>
      <trkpt lat="43.46331" lon="1.06498">
        <ele>282.8</ele>
        <time>2024-08-01T07:50:05Z</time>
      </trkpt>
      <trkpt lat="43.46325" lon="1.06501">
        <ele>283</ele>
        <time>2024-08-01T07:50:06Z</time>
      </trkpt>
      <trkpt lat="43.46321" lon="1.06504">
        <ele>283</ele>
        <time>2024-08-01T07:50:07Z</time>
      </trkpt>
      <trkpt lat="43.46316" lon="1.06508">
        <ele>283</ele>
        <time>2024-08-01T07:50:08Z</time>
      </trkpt>
      <trkpt lat="43.46311" lon="1.06511">
        <ele>283</ele>
        <time>2024-08-01T07:50:09Z</time>
      </trkpt>
      <trkpt lat="43.46307" lon="1.06515">
        <ele>283</ele>
        <time>2024-08-01T07:50:10Z</time>
      </trkpt>
      <trkpt lat="43.46302" lon="1.06518">
        <ele>283</ele>
        <time>2024-08-01T07:50:11Z</time>
      </trkpt>
      <trkpt lat="43.46297" lon="1.06522">
        <ele>283</ele>
        <time>2024-08-01T07:50:12Z</time>
      </trkpt>
      <trkpt lat="43.46292" lon="1.06526">
        <ele>283.2</ele>
        <time>2024-08-01T07:50:13Z</time>
      </trkpt>
      <trkpt lat="43.46287" lon="1.06529">
        <ele>283.2</ele>
        <time>2024-08-01T07:50:14Z</time>
      </trkpt>
      <trkpt lat="43.46282" lon="1.06532">
        <ele>283.4</ele>
        <time>2024-08-01T07:50:15Z</time>
      </trkpt>
      <trkpt lat="43.46277" lon="1.06536">
        <ele>283.4</ele>
        <time>2024-08-01T07:50:16Z</time>
      </trkpt>
      <trkpt lat="43.46272" lon="1.06539">
        <ele>283.6</ele>
        <time>2024-08-01T07:50:17Z</time>
      </trkpt>
      <trkpt lat="43.46267" lon="1.06543">
        <ele>283.6</ele>
        <time>2024-08-01T07:50:18Z</time>
      </trkpt>
      <trkpt lat="43.46263" lon="1.06546">
        <ele>283.6</ele>
        <time>2024-08-01T07:50:19Z</time>
      </trkpt>
      <trkpt lat="43.46258" lon="1.0655">
        <ele>283.8</ele>
        <time>2024-08-01T07:50:20Z</time>
      </trkpt>
      <trkpt lat="43.46254" lon="1.06553">
        <ele>284</ele>
        <time>2024-08-01T07:50:21Z</time>
      </trkpt>
      <trkpt lat="43.4625" lon="1.06556">
        <ele>284</ele>
        <time>2024-08-01T07:50:22Z</time>
      </trkpt>
      <trkpt lat="43.46245" lon="1.0656">
        <ele>284.2</ele>
        <time>2024-08-01T07:50:23Z</time>
      </trkpt>
      <trkpt lat="43.46241" lon="1.06563">
        <ele>284.2</ele>
        <time>2024-08-01T07:50:24Z</time>
      </trkpt>
      <trkpt lat="43.46235" lon="1.06566">
        <ele>284.4</ele>
        <time>2024-08-01T07:50:25Z</time>
      </trkpt>
      <trkpt lat="43.46231" lon="1.0657">
        <ele>284.4</ele>
        <time>2024-08-01T07:50:26Z</time>
      </trkpt>
      <trkpt lat="43.46226" lon="1.06573">
        <ele>284.6</ele>
        <time>2024-08-01T07:50:27Z</time>
      </trkpt>
      <trkpt lat="43.46221" lon="1.06576">
        <ele>284.6</ele>
        <time>2024-08-01T07:50:28Z</time>
      </trkpt>
      <trkpt lat="43.46216" lon="1.0658">
        <ele>284.8</ele>
        <time>2024-08-01T07:50:29Z</time>
      </trkpt>
      <trkpt lat="43.46212" lon="1.06583">
        <ele>284.8</ele>
        <time>2024-08-01T07:50:30Z</time>
      </trkpt>
      <trkpt lat="43.46207" lon="1.06587">
        <ele>285</ele>
        <time>2024-08-01T07:50:31Z</time>
      </trkpt>
      <trkpt lat="43.46202" lon="1.0659">
        <ele>285.2</ele>
        <time>2024-08-01T07:50:32Z</time>
      </trkpt>
      <trkpt lat="43.46198" lon="1.06593">
        <ele>285.2</ele>
        <time>2024-08-01T07:50:33Z</time>
      </trkpt>
      <trkpt lat="43.46193" lon="1.06596">
        <ele>285.4</ele>
        <time>2024-08-01T07:50:34Z</time>
      </trkpt>
      <trkpt lat="43.46189" lon="1.06599">
        <ele>285.4</ele>
        <time>2024-08-01T07:50:35Z</time>
      </trkpt>
      <trkpt lat="43.46185" lon="1.06602">
        <ele>285.6</ele>
        <time>2024-08-01T07:50:36Z</time>
      </trkpt>
      <trkpt lat="43.46181" lon="1.06604">
        <ele>285.8</ele>
        <time>2024-08-01T07:50:37Z</time>
      </trkpt>
      <trkpt lat="43.46176" lon="1.06607">
        <ele>285.8</ele>
        <time>2024-08-01T07:50:38Z</time>
      </trkpt>
      <trkpt lat="43.46172" lon="1.0661">
        <ele>286.2</ele>
        <time>2024-08-01T07:50:39Z</time>
      </trkpt>
      <trkpt lat="43.46168" lon="1.06613">
        <ele>286.2</ele>
        <time>2024-08-01T07:50:40Z</time>
      </trkpt>
      <trkpt lat="43.46164" lon="1.06616">
        <ele>286.4</ele>
        <time>2024-08-01T07:50:41Z</time>
      </trkpt>
      <trkpt lat="43.46159" lon="1.06619">
        <ele>286.6</ele>
        <time>2024-08-01T07:50:42Z</time>
      </trkpt>
      <trkpt lat="43.46155" lon="1.06621">
        <ele>286.8</ele>
        <time>2024-08-01T07:50:43Z</time>
      </trkpt>
      <trkpt lat="43.46152" lon="1.06624">
        <ele>287</ele>
        <time>2024-08-01T07:50:44Z</time>
      </trkpt>
      <trkpt lat="43.46147" lon="1.06626">
        <ele>287</ele>
        <time>2024-08-01T07:50:45Z</time>
      </trkpt>
      <trkpt lat="43.46143" lon="1.06628">
        <ele>287.2</ele>
        <time>2024-08-01T07:50:46Z</time>
      </trkpt>
      <trkpt lat="43.4614" lon="1.06631">
        <ele>287.4</ele>
        <time>2024-08-01T07:50:47Z</time>
      </trkpt>
      <trkpt lat="43.46136" lon="1.06633">
        <ele>287.6</ele>
        <time>2024-08-01T07:50:48Z</time>
      </trkpt>
      <trkpt lat="43.46132" lon="1.06635">
        <ele>287.8</ele>
        <time>2024-08-01T07:50:49Z</time>
      </trkpt>
      <trkpt lat="43.46128" lon="1.06637">
        <ele>288.2</ele>
        <time>2024-08-01T07:50:50Z</time>
      </trkpt>
      <trkpt lat="43.46124" lon="1.06639">
        <ele>288.4</ele>
        <time>2024-08-01T07:50:51Z</time>
      </trkpt>
      <trkpt lat="43.46121" lon="1.06641">
        <ele>288.6</ele>
        <time>2024-08-01T07:50:52Z</time>
      </trkpt>
      <trkpt lat="43.46117" lon="1.06643">
        <ele>289</ele>
        <time>2024-08-01T07:50:53Z</time>
      </trkpt>
      <trkpt lat="43.46113" lon="1.06645">
        <ele>289</ele>
        <time>2024-08-01T07:50:54Z</time>
      </trkpt>
      <trkpt lat="43.46109" lon="1.06647">
        <ele>289.2</ele>
        <time>2024-08-01T07:50:55Z</time>
      </trkpt>
      <trkpt lat="43.46106" lon="1.06649">
        <ele>289.4</ele>
        <time>2024-08-01T07:50:56Z</time>
      </trkpt>
      <trkpt lat="43.46102" lon="1.06651">
        <ele>289.6</ele>
        <time>2024-08-01T07:50:57Z</time>
      </trkpt>
      <trkpt lat="43.46098" lon="1.06652">
        <ele>290</ele>
        <time>2024-08-01T07:50:58Z</time>
      </trkpt>
      <trkpt lat="43.46095" lon="1.06654">
        <ele>290.2</ele>
        <time>2024-08-01T07:50:59Z</time>
      </trkpt>
      <trkpt lat="43.46091" lon="1.06657">
        <ele>290.4</ele>
        <time>2024-08-01T07:51:00Z</time>
      </trkpt>
      <trkpt lat="43.46088" lon="1.06659">
        <ele>290.6</ele>
        <time>2024-08-01T07:51:01Z</time>
      </trkpt>
      <trkpt lat="43.46084" lon="1.06661">
        <ele>290.8</ele>
        <time>2024-08-01T07:51:02Z</time>
      </trkpt>
      <trkpt lat="43.46081" lon="1.06663">
        <ele>291</ele>
        <time>2024-08-01T07:51:03Z</time>
      </trkpt>
      <trkpt lat="43.46078" lon="1.06665">
        <ele>291.6</ele>
        <time>2024-08-01T07:51:04Z</time>
      </trkpt>
      <trkpt lat="43.46075" lon="1.06667">
        <ele>292</ele>
        <time>2024-08-01T07:51:05Z</time>
      </trkpt>
      <trkpt lat="43.46071" lon="1.06669">
        <ele>292.2</ele>
        <time>2024-08-01T07:51:06Z</time>
      </trkpt>
      <trkpt lat="43.46068" lon="1.06671">
        <ele>292.4</ele>
        <time>2024-08-01T07:51:07Z</time>
      </trkpt>
      <trkpt lat="43.46064" lon="1.06673">
        <ele>292.6</ele>
        <time>2024-08-01T07:51:08Z</time>
      </trkpt>
      <trkpt lat="43.46061" lon="1.06676">
        <ele>292.8</ele>
        <time>2024-08-01T07:51:09Z</time>
      </trkpt>
      <trkpt lat="43.46057" lon="1.06678">
        <ele>292.8</ele>
        <time>2024-08-01T07:51:10Z</time>
      </trkpt>
      <trkpt lat="43.46054" lon="1.0668">
        <ele>293</ele>
        <time>2024-08-01T07:51:11Z</time>
      </trkpt>
      <trkpt lat="43.4605" lon="1.06682">
        <ele>293.4</ele>
        <time>2024-08-01T07:51:12Z</time>
      </trkpt>
      <trkpt lat="43.46046" lon="1.06683">
        <ele>293.4</ele>
        <time>2024-08-01T07:51:13Z</time>
      </trkpt>
      <trkpt lat="43.46043" lon="1.06684">
        <ele>293.8</ele>
        <time>2024-08-01T07:51:14Z</time>
      </trkpt>
      <trkpt lat="43.46039" lon="1.06686">
        <ele>293.8</ele>
        <time>2024-08-01T07:51:15Z</time>
      </trkpt>
      <trkpt lat="43.46036" lon="1.06688">
        <ele>294.2</ele>
        <time>2024-08-01T07:51:16Z</time>
      </trkpt>
      <trkpt lat="43.46032" lon="1.06691">
        <ele>294.2</ele>
        <time>2024-08-01T07:51:17Z</time>
      </trkpt>
      <trkpt lat="43.46029" lon="1.06693">
        <ele>294.8</ele>
        <time>2024-08-01T07:51:18Z</time>
      </trkpt>
      <trkpt lat="43.46026" lon="1.06695">
        <ele>295.2</ele>
        <time>2024-08-01T07:51:19Z</time>
      </trkpt>
      <trkpt lat="43.46022" lon="1.06697">
        <ele>295.2</ele>
        <time>2024-08-01T07:51:20Z</time>
      </trkpt>
      <trkpt lat="43.4602" lon="1.06698">
        <ele>295.6</ele>
        <time>2024-08-01T07:51:21Z</time>
      </trkpt>
      <trkpt lat="43.46017" lon="1.067">
        <ele>295.8</ele>
        <time>2024-08-01T07:51:22Z</time>
      </trkpt>
      <trkpt lat="43.46014" lon="1.06701">
        <ele>296.2</ele>
        <time>2024-08-01T07:51:23Z</time>
      </trkpt>
      <trkpt lat="43.46011" lon="1.06703">
        <ele>296.6</ele>
        <time>2024-08-01T07:51:24Z</time>
      </trkpt>
      <trkpt lat="43.46008" lon="1.06706">
        <ele>297</ele>
        <time>2024-08-01T07:51:25Z</time>
      </trkpt>
      <trkpt lat="43.46005" lon="1.06708">
        <ele>297.2</ele>
        <time>2024-08-01T07:51:26Z</time>
      </trkpt>
      <trkpt lat="43.46003" lon="1.0671">
        <ele>297.4</ele>
        <time>2024-08-01T07:51:27Z</time>
      </trkpt>
      <trkpt lat="43.46" lon="1.06712">
        <ele>297.6</ele>
        <time>2024-08-01T07:51:28Z</time>
      </trkpt>
      <trkpt lat="43.45996" lon="1.06714">
        <ele>297.8</ele>
        <time>2024-08-01T07:51:29Z</time>
      </trkpt>
      <trkpt lat="43.45992" lon="1.06716">
        <ele>298.2</ele>
        <time>2024-08-01T07:51:30Z</time>
      </trkpt>
      <trkpt lat="43.45988" lon="1.06717">
        <ele>298.4</ele>
        <time>2024-08-01T07:51:31Z</time>
      </trkpt>
      <trkpt lat="43.45986" lon="1.06718">
        <ele>298.8</ele>
        <time>2024-08-01T07:51:32Z</time>
      </trkpt>
      <trkpt lat="43.45984" lon="1.06719">
        <ele>299</ele>
        <time>2024-08-01T07:51:33Z</time>
      </trkpt>
      <trkpt lat="43.45981" lon="1.06721">
        <ele>299.2</ele>
        <time>2024-08-01T07:51:34Z</time>
      </trkpt>
      <trkpt lat="43.45979" lon="1.06723">
        <ele>299.8</ele>
        <time>2024-08-01T07:51:35Z</time>
      </trkpt>
      <trkpt lat="43.45975" lon="1.06725">
        <ele>300</ele>
        <time>2024-08-01T07:51:36Z</time>
      </trkpt>
      <trkpt lat="43.45971" lon="1.06727">
        <ele>300.2</ele>
        <time>2024-08-01T07:51:37Z</time>
      </trkpt>
      <trkpt lat="43.45967" lon="1.06729">
        <ele>300.4</ele>
        <time>2024-08-01T07:51:38Z</time>
      </trkpt>
      <trkpt lat="43.45964" lon="1.06731">
        <ele>300.8</ele>
        <time>2024-08-01T07:51:39Z</time>
      </trkpt>
      <trkpt lat="43.4596" lon="1.06732">
        <ele>301.2</ele>
        <time>2024-08-01T07:51:40Z</time>
      </trkpt>
      <trkpt lat="43.45956" lon="1.06734">
        <ele>301.4</ele>
        <time>2024-08-01T07:51:41Z</time>
      </trkpt>
      <trkpt lat="43.45952" lon="1.06736">
        <ele>301.8</ele>
        <time>2024-08-01T07:51:42Z</time>
      </trkpt>
      <trkpt lat="43.45946" lon="1.06739">
        <ele>302</ele>
        <time>2024-08-01T07:51:43Z</time>
      </trkpt>
      <trkpt lat="43.45941" lon="1.06741">
        <ele>302.4</ele>
        <time>2024-08-01T07:51:44Z</time>
      </trkpt>
      <trkpt lat="43.45937" lon="1.06743">
        <ele>302.6</ele>
        <time>2024-08-01T07:51:45Z</time>
      </trkpt>
      <trkpt lat="43.45933" lon="1.06744">
        <ele>303</ele>
        <time>2024-08-01T07:51:46Z</time>
      </trkpt>
      <trkpt lat="43.45929" lon="1.06745">
        <ele>303.2</ele>
        <time>2024-08-01T07:51:47Z</time>
      </trkpt>
      <trkpt lat="43.45925" lon="1.06747">
        <ele>303.4</ele>
        <time>2024-08-01T07:51:48Z</time>
      </trkpt>
      <trkpt lat="43.45921" lon="1.06748">
        <ele>303.8</ele>
        <time>2024-08-01T07:51:49Z</time>
      </trkpt>
      <trkpt lat="43.45918" lon="1.06749">
        <ele>304</ele>
        <time>2024-08-01T07:51:50Z</time>
      </trkpt>
      <trkpt lat="43.45915" lon="1.0675">
        <ele>304.6</ele>
        <time>2024-08-01T07:51:51Z</time>
      </trkpt>
      <trkpt lat="43.45912" lon="1.06751">
        <ele>304.8</ele>
        <time>2024-08-01T07:51:52Z</time>
      </trkpt>
      <trkpt lat="43.45908" lon="1.06753">
        <ele>305.2</ele>
        <time>2024-08-01T07:51:53Z</time>
      </trkpt>
      <trkpt lat="43.45903" lon="1.06754">
        <ele>305.6</ele>
        <time>2024-08-01T07:51:54Z</time>
      </trkpt>
      <trkpt lat="43.45899" lon="1.06754">
        <ele>305.8</ele>
        <time>2024-08-01T07:51:55Z</time>
      </trkpt>
      <trkpt lat="43.45895" lon="1.06756">
        <ele>306</ele>
        <time>2024-08-01T07:51:56Z</time>
      </trkpt>
      <trkpt lat="43.45892" lon="1.06757">
        <ele>306.2</ele>
        <time>2024-08-01T07:51:57Z</time>
      </trkpt>
      <trkpt lat="43.45889" lon="1.06759">
        <ele>306.6</ele>
        <time>2024-08-01T07:51:58Z</time>
      </trkpt>
      <trkpt lat="43.45886" lon="1.0676">
        <ele>306.8</ele>
        <time>2024-08-01T07:51:59Z</time>
      </trkpt>
      <trkpt lat="43.45883" lon="1.06762">
        <ele>307.4</ele>
        <time>2024-08-01T07:52:00Z</time>
      </trkpt>
      <trkpt lat="43.4588" lon="1.06763">
        <ele>307.6</ele>
        <time>2024-08-01T07:52:01Z</time>
      </trkpt>
      <trkpt lat="43.45877" lon="1.06764">
        <ele>307.8</ele>
        <time>2024-08-01T07:52:02Z</time>
      </trkpt>
      <trkpt lat="43.45873" lon="1.06764">
        <ele>308</ele>
        <time>2024-08-01T07:52:03Z</time>
      </trkpt>
      <trkpt lat="43.4587" lon="1.06764">
        <ele>308.2</ele>
        <time>2024-08-01T07:52:04Z</time>
      </trkpt>
      <trkpt lat="43.45868" lon="1.06764">
        <ele>308.6</ele>
        <time>2024-08-01T07:52:05Z</time>
      </trkpt>
      <trkpt lat="43.45865" lon="1.06765">
        <ele>309</ele>
        <time>2024-08-01T07:52:06Z</time>
      </trkpt>
      <trkpt lat="43.45863" lon="1.06765">
        <ele>309.2</ele>
        <time>2024-08-01T07:52:07Z</time>
      </trkpt>
      <trkpt lat="43.4586" lon="1.06764">
        <ele>309.4</ele>
        <time>2024-08-01T07:52:08Z</time>
      </trkpt>
      <trkpt lat="43.45856" lon="1.06765">
        <ele>309.8</ele>
        <time>2024-08-01T07:52:09Z</time>
      </trkpt>
      <trkpt lat="43.45852" lon="1.06765">
        <ele>310.2</ele>
        <time>2024-08-01T07:52:10Z</time>
      </trkpt>
      <trkpt lat="43.45849" lon="1.06765">
        <ele>310.4</ele>
        <time>2024-08-01T07:52:11Z</time>
      </trkpt>
      <trkpt lat="43.45846" lon="1.06765">
        <ele>310.6</ele>
        <time>2024-08-01T07:52:12Z</time>
      </trkpt>
      <trkpt lat="43.45843" lon="1.06765">
        <ele>310.8</ele>
        <time>2024-08-01T07:52:13Z</time>
      </trkpt>
      <trkpt lat="43.45839" lon="1.06766">
        <ele>311.2</ele>
        <time>2024-08-01T07:52:14Z</time>
      </trkpt>
      <trkpt lat="43.45836" lon="1.06766">
        <ele>311.6</ele>
        <time>2024-08-01T07:52:15Z</time>
      </trkpt>
      <trkpt lat="43.45833" lon="1.06767">
        <ele>311.8</ele>
        <time>2024-08-01T07:52:16Z</time>
      </trkpt>
      <trkpt lat="43.4583" lon="1.06768">
        <ele>312</ele>
        <time>2024-08-01T07:52:17Z</time>
      </trkpt>
      <trkpt lat="43.45827" lon="1.06768">
        <ele>312.2</ele>
        <time>2024-08-01T07:52:18Z</time>
      </trkpt>
      <trkpt lat="43.45823" lon="1.06769">
        <ele>312.8</ele>
        <time>2024-08-01T07:52:19Z</time>
      </trkpt>
      <trkpt lat="43.4582" lon="1.0677">
        <ele>313</ele>
        <time>2024-08-01T07:52:20Z</time>
      </trkpt>
      <trkpt lat="43.45817" lon="1.06771">
        <ele>313.2</ele>
        <time>2024-08-01T07:52:21Z</time>
      </trkpt>
      <trkpt lat="43.45813" lon="1.06772">
        <ele>313.6</ele>
        <time>2024-08-01T07:52:22Z</time>
      </trkpt>
      <trkpt lat="43.4581" lon="1.06773">
        <ele>313.8</ele>
        <time>2024-08-01T07:52:23Z</time>
      </trkpt>
      <trkpt lat="43.45806" lon="1.06775">
        <ele>314.2</ele>
        <time>2024-08-01T07:52:24Z</time>
      </trkpt>
      <trkpt lat="43.45803" lon="1.06776">
        <ele>314.4</ele>
        <time>2024-08-01T07:52:25Z</time>
      </trkpt>
      <trkpt lat="43.45799" lon="1.06777">
        <ele>314.8</ele>
        <time>2024-08-01T07:52:26Z</time>
      </trkpt>
      <trkpt lat="43.45796" lon="1.06778">
        <ele>314.8</ele>
        <time>2024-08-01T07:52:27Z</time>
      </trkpt>
      <trkpt lat="43.45792" lon="1.06779">
        <ele>315</ele>
        <time>2024-08-01T07:52:28Z</time>
      </trkpt>
      <trkpt lat="43.45789" lon="1.0678">
        <ele>315.4</ele>
        <time>2024-08-01T07:52:29Z</time>
      </trkpt>
      <trkpt lat="43.45786" lon="1.06782">
        <ele>315.8</ele>
        <time>2024-08-01T07:52:30Z</time>
      </trkpt>
      <trkpt lat="43.45782" lon="1.06783">
        <ele>316.2</ele>
        <time>2024-08-01T07:52:31Z</time>
      </trkpt>
      <trkpt lat="43.45779" lon="1.06784">
        <ele>316.2</ele>
        <time>2024-08-01T07:52:32Z</time>
      </trkpt>
      <trkpt lat="43.45776" lon="1.06786">
        <ele>316.4</ele>
        <time>2024-08-01T07:52:33Z</time>
      </trkpt>
      <trkpt lat="43.45772" lon="1.06787">
        <ele>316.6</ele>
        <time>2024-08-01T07:52:34Z</time>
      </trkpt>
      <trkpt lat="43.45769" lon="1.06788">
        <ele>316.8</ele>
        <time>2024-08-01T07:52:35Z</time>
      </trkpt>
      <trkpt lat="43.45766" lon="1.0679">
        <ele>317</ele>
        <time>2024-08-01T07:52:36Z</time>
      </trkpt>
      <trkpt lat="43.45762" lon="1.06792">
        <ele>317</ele>
        <time>2024-08-01T07:52:37Z</time>
      </trkpt>
      <trkpt lat="43.45759" lon="1.06793">
        <ele>317.4</ele>
        <time>2024-08-01T07:52:38Z</time>
      </trkpt>
      <trkpt lat="43.45755" lon="1.06794">
        <ele>317.6</ele>
        <time>2024-08-01T07:52:39Z</time>
      </trkpt>
      <trkpt lat="43.45752" lon="1.06796">
        <ele>318</ele>
        <time>2024-08-01T07:52:40Z</time>
      </trkpt>
      <trkpt lat="43.45748" lon="1.06797">
        <ele>318.2</ele>
        <time>2024-08-01T07:52:41Z</time>
      </trkpt>
      <trkpt lat="43.45745" lon="1.06799">
        <ele>318.4</ele>
        <time>2024-08-01T07:52:42Z</time>
      </trkpt>
      <trkpt lat="43.45741" lon="1.068">
        <ele>318.6</ele>
        <time>2024-08-01T07:52:43Z</time>
      </trkpt>
      <trkpt lat="43.45738" lon="1.06802">
        <ele>318.6</ele>
        <time>2024-08-01T07:52:44Z</time>
      </trkpt>
      <trkpt lat="43.45734" lon="1.06804">
        <ele>318.8</ele>
        <time>2024-08-01T07:52:45Z</time>
      </trkpt>
      <trkpt lat="43.45731" lon="1.06806">
        <ele>318.8</ele>
        <time>2024-08-01T07:52:46Z</time>
      </trkpt>
      <trkpt lat="43.45727" lon="1.06808">
        <ele>319.2</ele>
        <time>2024-08-01T07:52:47Z</time>
      </trkpt>
      <trkpt lat="43.45724" lon="1.0681">
        <ele>319.2</ele>
        <time>2024-08-01T07:52:48Z</time>
      </trkpt>
      <trkpt lat="43.4572" lon="1.06812">
        <ele>319.4</ele>
        <time>2024-08-01T07:52:49Z</time>
      </trkpt>
      <trkpt lat="43.45717" lon="1.06813">
        <ele>319.6</ele>
        <time>2024-08-01T07:52:50Z</time>
      </trkpt>
      <trkpt lat="43.45713" lon="1.06815">
        <ele>319.8</ele>
        <time>2024-08-01T07:52:51Z</time>
      </trkpt>
      <trkpt lat="43.4571" lon="1.06818">
        <ele>319.8</ele>
        <time>2024-08-01T07:52:52Z</time>
      </trkpt>
      <trkpt lat="43.45707" lon="1.0682">
        <ele>320</ele>
        <time>2024-08-01T07:52:53Z</time>
      </trkpt>
      <trkpt lat="43.45703" lon="1.06823">
        <ele>320</ele>
        <time>2024-08-01T07:52:54Z</time>
      </trkpt>
      <trkpt lat="43.457" lon="1.06825">
        <ele>320</ele>
        <time>2024-08-01T07:52:55Z</time>
      </trkpt>
      <trkpt lat="43.45696" lon="1.06827">
        <ele>320</ele>
        <time>2024-08-01T07:52:56Z</time>
      </trkpt>
      <trkpt lat="43.45692" lon="1.0683">
        <ele>320</ele>
        <time>2024-08-01T07:52:57Z</time>
      </trkpt>
      <trkpt lat="43.45688" lon="1.06833">
        <ele>320</ele>
        <time>2024-08-01T07:52:58Z</time>
      </trkpt>
      <trkpt lat="43.45683" lon="1.06837">
        <ele>320</ele>
        <time>2024-08-01T07:52:59Z</time>
      </trkpt>
      <trkpt lat="43.45679" lon="1.06839">
        <ele>320</ele>
        <time>2024-08-01T07:53:00Z</time>
      </trkpt>
      <trkpt lat="43.45674" lon="1.06842">
        <ele>320</ele>
        <time>2024-08-01T07:53:01Z</time>
      </trkpt>
      <trkpt lat="43.4567" lon="1.06845">
        <ele>320</ele>
        <time>2024-08-01T07:53:02Z</time>
      </trkpt>
      <trkpt lat="43.45665" lon="1.06848">
        <ele>320</ele>
        <time>2024-08-01T07:53:03Z</time>
      </trkpt>
      <trkpt lat="43.45661" lon="1.06851">
        <ele>320</ele>
        <time>2024-08-01T07:53:04Z</time>
      </trkpt>
      <trkpt lat="43.45656" lon="1.06854">
        <ele>320</ele>
        <time>2024-08-01T07:53:05Z</time>
      </trkpt>
      <trkpt lat="43.45651" lon="1.06857">
        <ele>320</ele>
        <time>2024-08-01T07:53:06Z</time>
      </trkpt>
      <trkpt lat="43.45646" lon="1.0686">
        <ele>320</ele>
        <time>2024-08-01T07:53:07Z</time>
      </trkpt>
      <trkpt lat="43.4564" lon="1.06863">
        <ele>320</ele>
        <time>2024-08-01T07:53:08Z</time>
      </trkpt>
      <trkpt lat="43.45635" lon="1.06866">
        <ele>320</ele>
        <time>2024-08-01T07:53:09Z</time>
      </trkpt>
      <trkpt lat="43.4563" lon="1.06869">
        <ele>319.8</ele>
        <time>2024-08-01T07:53:10Z</time>
      </trkpt>
      <trkpt lat="43.45624" lon="1.06872">
        <ele>319.8</ele>
        <time>2024-08-01T07:53:11Z</time>
      </trkpt>
      <trkpt lat="43.45619" lon="1.06874">
        <ele>319.8</ele>
        <time>2024-08-01T07:53:12Z</time>
      </trkpt>
      <trkpt lat="43.45614" lon="1.06876">
        <ele>319.8</ele>
        <time>2024-08-01T07:53:13Z</time>
      </trkpt>
      <trkpt lat="43.45609" lon="1.06878">
        <ele>319.8</ele>
        <time>2024-08-01T07:53:14Z</time>
      </trkpt>
      <trkpt lat="43.45603" lon="1.0688">
        <ele>319.8</ele>
        <time>2024-08-01T07:53:15Z</time>
      </trkpt>
      <trkpt lat="43.45598" lon="1.06882">
        <ele>319.8</ele>
        <time>2024-08-01T07:53:16Z</time>
      </trkpt>
      <trkpt lat="43.45593" lon="1.06883">
        <ele>319.8</ele>
        <time>2024-08-01T07:53:17Z</time>
      </trkpt>
      <trkpt lat="43.45587" lon="1.06884">
        <ele>319.8</ele>
        <time>2024-08-01T07:53:18Z</time>
      </trkpt>
      <trkpt lat="43.45582" lon="1.06885">
        <ele>319.8</ele>
        <time>2024-08-01T07:53:19Z</time>
      </trkpt>
      <trkpt lat="43.45577" lon="1.06886">
        <ele>320</ele>
        <time>2024-08-01T07:53:20Z</time>
      </trkpt>
      <trkpt lat="43.45572" lon="1.06887">
        <ele>320</ele>
        <time>2024-08-01T07:53:21Z</time>
      </trkpt>
      <trkpt lat="43.45567" lon="1.06888">
        <ele>320.2</ele>
        <time>2024-08-01T07:53:22Z</time>
      </trkpt>
      <trkpt lat="43.45562" lon="1.06889">
        <ele>320.4</ele>
        <time>2024-08-01T07:53:23Z</time>
      </trkpt>
      <trkpt lat="43.45557" lon="1.0689">
        <ele>320.6</ele>
        <time>2024-08-01T07:53:24Z</time>
      </trkpt>
      <trkpt lat="43.45552" lon="1.0689">
        <ele>320.8</ele>
        <time>2024-08-01T07:53:25Z</time>
      </trkpt>
      <trkpt lat="43.45547" lon="1.06891">
        <ele>321</ele>
        <time>2024-08-01T07:53:26Z</time>
      </trkpt>
      <trkpt lat="43.45542" lon="1.06891">
        <ele>321.2</ele>
        <time>2024-08-01T07:53:27Z</time>
      </trkpt>
      <trkpt lat="43.45537" lon="1.06891">
        <ele>321.2</ele>
        <time>2024-08-01T07:53:28Z</time>
      </trkpt>
      <trkpt lat="43.45532" lon="1.06892">
        <ele>321.4</ele>
        <time>2024-08-01T07:53:29Z</time>
      </trkpt>
      <trkpt lat="43.45528" lon="1.06893">
        <ele>321.6</ele>
        <time>2024-08-01T07:53:30Z</time>
      </trkpt>
      <trkpt lat="43.45523" lon="1.06893">
        <ele>322.2</ele>
        <time>2024-08-01T07:53:31Z</time>
      </trkpt>
      <trkpt lat="43.45518" lon="1.06894">
        <ele>322.4</ele>
        <time>2024-08-01T07:53:32Z</time>
      </trkpt>
      <trkpt lat="43.45514" lon="1.06894">
        <ele>322.6</ele>
        <time>2024-08-01T07:53:33Z</time>
      </trkpt>
      <trkpt lat="43.45509" lon="1.06894">
        <ele>322.8</ele>
        <time>2024-08-01T07:53:34Z</time>
      </trkpt>
      <trkpt lat="43.45504" lon="1.06894">
        <ele>322.8</ele>
        <time>2024-08-01T07:53:35Z</time>
      </trkpt>
      <trkpt lat="43.455" lon="1.06895">
        <ele>323</ele>
        <time>2024-08-01T07:53:36Z</time>
      </trkpt>
      <trkpt lat="43.45495" lon="1.06895">
        <ele>323.2</ele>
        <time>2024-08-01T07:53:37Z</time>
      </trkpt>
      <trkpt lat="43.45491" lon="1.06896">
        <ele>323.6</ele>
        <time>2024-08-01T07:53:38Z</time>
      </trkpt>
      <trkpt lat="43.45486" lon="1.06896">
        <ele>323.8</ele>
        <time>2024-08-01T07:53:39Z</time>
      </trkpt>
      <trkpt lat="43.45482" lon="1.06896">
        <ele>324</ele>
        <time>2024-08-01T07:53:40Z</time>
      </trkpt>
      <trkpt lat="43.45478" lon="1.06896">
        <ele>324.2</ele>
        <time>2024-08-01T07:53:41Z</time>
      </trkpt>
      <trkpt lat="43.45473" lon="1.06896">
        <ele>324.4</ele>
        <time>2024-08-01T07:53:42Z</time>
      </trkpt>
      <trkpt lat="43.45468" lon="1.06897">
        <ele>324.8</ele>
        <time>2024-08-01T07:53:43Z</time>
      </trkpt>
      <trkpt lat="43.45463" lon="1.06897">
        <ele>324.8</ele>
        <time>2024-08-01T07:53:44Z</time>
      </trkpt>
      <trkpt lat="43.45459" lon="1.06897">
        <ele>325</ele>
        <time>2024-08-01T07:53:45Z</time>
      </trkpt>
      <trkpt lat="43.45454" lon="1.06897">
        <ele>325.2</ele>
        <time>2024-08-01T07:53:46Z</time>
      </trkpt>
      <trkpt lat="43.45449" lon="1.06897">
        <ele>325.2</ele>
        <time>2024-08-01T07:53:47Z</time>
      </trkpt>
      <trkpt lat="43.45444" lon="1.06897">
        <ele>325.2</ele>
        <time>2024-08-01T07:53:48Z</time>
      </trkpt>
      <trkpt lat="43.45438" lon="1.06897">
        <ele>325.2</ele>
        <time>2024-08-01T07:53:49Z</time>
      </trkpt>
      <trkpt lat="43.45432" lon="1.06897">
        <ele>325.4</ele>
        <time>2024-08-01T07:53:50Z</time>
      </trkpt>
      <trkpt lat="43.45426" lon="1.06897">
        <ele>325.4</ele>
        <time>2024-08-01T07:53:51Z</time>
      </trkpt>
      <trkpt lat="43.4542" lon="1.06897">
        <ele>325.2</ele>
        <time>2024-08-01T07:53:52Z</time>
      </trkpt>
      <trkpt lat="43.45414" lon="1.06897">
        <ele>325.2</ele>
        <time>2024-08-01T07:53:53Z</time>
      </trkpt>
      <trkpt lat="43.45407" lon="1.06897">
        <ele>325</ele>
        <time>2024-08-01T07:53:54Z</time>
      </trkpt>
      <trkpt lat="43.45401" lon="1.06898">
        <ele>325</ele>
        <time>2024-08-01T07:53:55Z</time>
      </trkpt>
      <trkpt lat="43.45394" lon="1.06898">
        <ele>325</ele>
        <time>2024-08-01T07:53:56Z</time>
      </trkpt>
      <trkpt lat="43.45387" lon="1.06898">
        <ele>324.6</ele>
        <time>2024-08-01T07:53:57Z</time>
      </trkpt>
      <trkpt lat="43.4538" lon="1.06898">
        <ele>324.4</ele>
        <time>2024-08-01T07:53:58Z</time>
      </trkpt>
      <trkpt lat="43.45374" lon="1.06898">
        <ele>324.4</ele>
        <time>2024-08-01T07:53:59Z</time>
      </trkpt>
      <trkpt lat="43.45367" lon="1.06898">
        <ele>324.2</ele>
        <time>2024-08-01T07:54:00Z</time>
      </trkpt>
      <trkpt lat="43.4536" lon="1.06898">
        <ele>324</ele>
        <time>2024-08-01T07:54:01Z</time>
      </trkpt>
      <trkpt lat="43.45354" lon="1.06898">
        <ele>323.6</ele>
        <time>2024-08-01T07:54:02Z</time>
      </trkpt>
      <trkpt lat="43.45347" lon="1.06898">
        <ele>323.4</ele>
        <time>2024-08-01T07:54:03Z</time>
      </trkpt>
      <trkpt lat="43.45341" lon="1.06898">
        <ele>323.2</ele>
        <time>2024-08-01T07:54:04Z</time>
      </trkpt>
      <trkpt lat="43.45335" lon="1.06898">
        <ele>323.2</ele>
        <time>2024-08-01T07:54:05Z</time>
      </trkpt>
      <trkpt lat="43.45329" lon="1.06898">
        <ele>323</ele>
        <time>2024-08-01T07:54:06Z</time>
      </trkpt>
      <trkpt lat="43.45323" lon="1.06898">
        <ele>323</ele>
        <time>2024-08-01T07:54:07Z</time>
      </trkpt>
      <trkpt lat="43.45317" lon="1.06898">
        <ele>322.8</ele>
        <time>2024-08-01T07:54:08Z</time>
      </trkpt>
      <trkpt lat="43.45311" lon="1.06898">
        <ele>322.8</ele>
        <time>2024-08-01T07:54:09Z</time>
      </trkpt>
      <trkpt lat="43.45305" lon="1.06898">
        <ele>322.8</ele>
        <time>2024-08-01T07:54:10Z</time>
      </trkpt>
      <trkpt lat="43.453" lon="1.06898">
        <ele>322.8</ele>
        <time>2024-08-01T07:54:11Z</time>
      </trkpt>
      <trkpt lat="43.45294" lon="1.06898">
        <ele>322.8</ele>
        <time>2024-08-01T07:54:12Z</time>
      </trkpt>
      <trkpt lat="43.45289" lon="1.06898">
        <ele>323</ele>
        <time>2024-08-01T07:54:13Z</time>
      </trkpt>
      <trkpt lat="43.45283" lon="1.06898">
        <ele>323</ele>
        <time>2024-08-01T07:54:14Z</time>
      </trkpt>
      <trkpt lat="43.45278" lon="1.06898">
        <ele>323.2</ele>
        <time>2024-08-01T07:54:15Z</time>
      </trkpt>
      <trkpt lat="43.45272" lon="1.06898">
        <ele>323.4</ele>
        <time>2024-08-01T07:54:16Z</time>
      </trkpt>
      <trkpt lat="43.45267" lon="1.06898">
        <ele>323.4</ele>
        <time>2024-08-01T07:54:17Z</time>
      </trkpt>
      <trkpt lat="43.45262" lon="1.06898">
        <ele>323.6</ele>
        <time>2024-08-01T07:54:18Z</time>
      </trkpt>
      <trkpt lat="43.45257" lon="1.06898">
        <ele>323.8</ele>
        <time>2024-08-01T07:54:19Z</time>
      </trkpt>
      <trkpt lat="43.45252" lon="1.06899">
        <ele>323.8</ele>
        <time>2024-08-01T07:54:20Z</time>
      </trkpt>
      <trkpt lat="43.45247" lon="1.06899">
        <ele>324.2</ele>
        <time>2024-08-01T07:54:21Z</time>
      </trkpt>
      <trkpt lat="43.45243" lon="1.06899">
        <ele>324.2</ele>
        <time>2024-08-01T07:54:22Z</time>
      </trkpt>
      <trkpt lat="43.45239" lon="1.06899">
        <ele>324.4</ele>
        <time>2024-08-01T07:54:23Z</time>
      </trkpt>
      <trkpt lat="43.45234" lon="1.06899">
        <ele>324.4</ele>
        <time>2024-08-01T07:54:24Z</time>
      </trkpt>
      <trkpt lat="43.4523" lon="1.06899">
        <ele>325</ele>
        <time>2024-08-01T07:54:25Z</time>
      </trkpt>
      <trkpt lat="43.45225" lon="1.06899">
        <ele>325</ele>
        <time>2024-08-01T07:54:26Z</time>
      </trkpt>
      <trkpt lat="43.45221" lon="1.06899">
        <ele>325.4</ele>
        <time>2024-08-01T07:54:27Z</time>
      </trkpt>
      <trkpt lat="43.45215" lon="1.069">
        <ele>325.6</ele>
        <time>2024-08-01T07:54:28Z</time>
      </trkpt>
      <trkpt lat="43.4521" lon="1.069">
        <ele>325.8</ele>
        <time>2024-08-01T07:54:29Z</time>
      </trkpt>
      <trkpt lat="43.45205" lon="1.06901">
        <ele>326</ele>
        <time>2024-08-01T07:54:30Z</time>
      </trkpt>
      <trkpt lat="43.452" lon="1.06901">
        <ele>326</ele>
        <time>2024-08-01T07:54:31Z</time>
      </trkpt>
      <trkpt lat="43.45195" lon="1.06903">
        <ele>326.2</ele>
        <time>2024-08-01T07:54:32Z</time>
      </trkpt>
      <trkpt lat="43.4519" lon="1.06904">
        <ele>326.4</ele>
        <time>2024-08-01T07:54:33Z</time>
      </trkpt>
      <trkpt lat="43.45185" lon="1.06905">
        <ele>326.4</ele>
        <time>2024-08-01T07:54:34Z</time>
      </trkpt>
      <trkpt lat="43.4518" lon="1.06906">
        <ele>326.6</ele>
        <time>2024-08-01T07:54:35Z</time>
      </trkpt>
      <trkpt lat="43.45175" lon="1.06908">
        <ele>326.6</ele>
        <time>2024-08-01T07:54:36Z</time>
      </trkpt>
      <trkpt lat="43.45169" lon="1.06909">
        <ele>326.8</ele>
        <time>2024-08-01T07:54:37Z</time>
      </trkpt>
      <trkpt lat="43.45164" lon="1.0691">
        <ele>326.8</ele>
        <time>2024-08-01T07:54:38Z</time>
      </trkpt>
      <trkpt lat="43.45158" lon="1.06912">
        <ele>326.8</ele>
        <time>2024-08-01T07:54:39Z</time>
      </trkpt>
      <trkpt lat="43.45153" lon="1.06913">
        <ele>327</ele>
        <time>2024-08-01T07:54:40Z</time>
      </trkpt>
      <trkpt lat="43.45148" lon="1.06915">
        <ele>327</ele>
        <time>2024-08-01T07:54:41Z</time>
      </trkpt>
      <trkpt lat="43.45143" lon="1.06916">
        <ele>327.2</ele>
        <time>2024-08-01T07:54:42Z</time>
      </trkpt>
      <trkpt lat="43.45137" lon="1.06917">
        <ele>327.2</ele>
        <time>2024-08-01T07:54:43Z</time>
      </trkpt>
      <trkpt lat="43.45132" lon="1.06919">
        <ele>327</ele>
        <time>2024-08-01T07:54:44Z</time>
      </trkpt>
      <trkpt lat="43.45127" lon="1.06921">
        <ele>327</ele>
        <time>2024-08-01T07:54:45Z</time>
      </trkpt>
      <trkpt lat="43.45122" lon="1.06922">
        <ele>327.2</ele>
        <time>2024-08-01T07:54:46Z</time>
      </trkpt>
      <trkpt lat="43.45116" lon="1.06923">
        <ele>327.2</ele>
        <time>2024-08-01T07:54:47Z</time>
      </trkpt>
      <trkpt lat="43.45111" lon="1.06924">
        <ele>327.2</ele>
        <time>2024-08-01T07:54:48Z</time>
      </trkpt>
      <trkpt lat="43.45105" lon="1.06925">
        <ele>327</ele>
        <time>2024-08-01T07:54:49Z</time>
      </trkpt>
      <trkpt lat="43.451" lon="1.06927">
        <ele>327</ele>
        <time>2024-08-01T07:54:50Z</time>
      </trkpt>
      <trkpt lat="43.45094" lon="1.06928">
        <ele>327</ele>
        <time>2024-08-01T07:54:51Z</time>
      </trkpt>
      <trkpt lat="43.45089" lon="1.06929">
        <ele>327</ele>
        <time>2024-08-01T07:54:52Z</time>
      </trkpt>
      <trkpt lat="43.45083" lon="1.06931">
        <ele>326.8</ele>
        <time>2024-08-01T07:54:53Z</time>
      </trkpt>
      <trkpt lat="43.45077" lon="1.06932">
        <ele>326.8</ele>
        <time>2024-08-01T07:54:54Z</time>
      </trkpt>
      <trkpt lat="43.45072" lon="1.06934">
        <ele>326.8</ele>
        <time>2024-08-01T07:54:55Z</time>
      </trkpt>
      <trkpt lat="43.45066" lon="1.06935">
        <ele>326.8</ele>
        <time>2024-08-01T07:54:56Z</time>
      </trkpt>
      <trkpt lat="43.45061" lon="1.06936">
        <ele>326.8</ele>
        <time>2024-08-01T07:54:57Z</time>
      </trkpt>
      <trkpt lat="43.45055" lon="1.06938">
        <ele>326.6</ele>
        <time>2024-08-01T07:54:58Z</time>
      </trkpt>
      <trkpt lat="43.45049" lon="1.06939">
        <ele>326.6</ele>
        <time>2024-08-01T07:54:59Z</time>
      </trkpt>
      <trkpt lat="43.45043" lon="1.0694">
        <ele>326.6</ele>
        <time>2024-08-01T07:55:00Z</time>
      </trkpt>
      <trkpt lat="43.45037" lon="1.06941">
        <ele>326.4</ele>
        <time>2024-08-01T07:55:01Z</time>
      </trkpt>
      <trkpt lat="43.4503" lon="1.06941">
        <ele>326.4</ele>
        <time>2024-08-01T07:55:02Z</time>
      </trkpt>
      <trkpt lat="43.45026" lon="1.06942">
        <ele>326.4</ele>
        <time>2024-08-01T07:55:03Z</time>
      </trkpt>
      <trkpt lat="43.4502" lon="1.06942">
        <ele>326.4</ele>
        <time>2024-08-01T07:55:04Z</time>
      </trkpt>
      <trkpt lat="43.45014" lon="1.06942">
        <ele>326.4</ele>
        <time>2024-08-01T07:55:05Z</time>
      </trkpt>
      <trkpt lat="43.45007" lon="1.06942">
        <ele>326.2</ele>
        <time>2024-08-01T07:55:06Z</time>
      </trkpt>
      <trkpt lat="43.45001" lon="1.06941">
        <ele>326.2</ele>
        <time>2024-08-01T07:55:07Z</time>
      </trkpt>
      <trkpt lat="43.44995" lon="1.06941">
        <ele>326.2</ele>
        <time>2024-08-01T07:55:08Z</time>
      </trkpt>
      <trkpt lat="43.44989" lon="1.0694">
        <ele>326.2</ele>
        <time>2024-08-01T07:55:09Z</time>
      </trkpt>
      <trkpt lat="43.44983" lon="1.0694">
        <ele>326.2</ele>
        <time>2024-08-01T07:55:10Z</time>
      </trkpt>
      <trkpt lat="43.44978" lon="1.06939">
        <ele>326.2</ele>
        <time>2024-08-01T07:55:11Z</time>
      </trkpt>
      <trkpt lat="43.44972" lon="1.06939">
        <ele>326.4</ele>
        <time>2024-08-01T07:55:12Z</time>
      </trkpt>
      <trkpt lat="43.44966" lon="1.06938">
        <ele>326.4</ele>
        <time>2024-08-01T07:55:13Z</time>
      </trkpt>
      <trkpt lat="43.4496" lon="1.06937">
        <ele>326.4</ele>
        <time>2024-08-01T07:55:14Z</time>
      </trkpt>
      <trkpt lat="43.44954" lon="1.06936">
        <ele>326.4</ele>
        <time>2024-08-01T07:55:15Z</time>
      </trkpt>
      <trkpt lat="43.44948" lon="1.06935">
        <ele>326.6</ele>
        <time>2024-08-01T07:55:16Z</time>
      </trkpt>
      <trkpt lat="43.44943" lon="1.06934">
        <ele>326.6</ele>
        <time>2024-08-01T07:55:17Z</time>
      </trkpt>
      <trkpt lat="43.44937" lon="1.06933">
        <ele>326.8</ele>
        <time>2024-08-01T07:55:18Z</time>
      </trkpt>
      <trkpt lat="43.44931" lon="1.06932">
        <ele>327</ele>
        <time>2024-08-01T07:55:19Z</time>
      </trkpt>
      <trkpt lat="43.44925" lon="1.0693">
        <ele>327</ele>
        <time>2024-08-01T07:55:20Z</time>
      </trkpt>
      <trkpt lat="43.4492" lon="1.06929">
        <ele>327.2</ele>
        <time>2024-08-01T07:55:21Z</time>
      </trkpt>
      <trkpt lat="43.44914" lon="1.06927">
        <ele>327.2</ele>
        <time>2024-08-01T07:55:22Z</time>
      </trkpt>
      <trkpt lat="43.44908" lon="1.06926">
        <ele>327.4</ele>
        <time>2024-08-01T07:55:23Z</time>
      </trkpt>
      <trkpt lat="43.44902" lon="1.06924">
        <ele>327.4</ele>
        <time>2024-08-01T07:55:24Z</time>
      </trkpt>
      <trkpt lat="43.44896" lon="1.06922">
        <ele>327.4</ele>
        <time>2024-08-01T07:55:25Z</time>
      </trkpt>
      <trkpt lat="43.44891" lon="1.06921">
        <ele>327.4</ele>
        <time>2024-08-01T07:55:26Z</time>
      </trkpt>
      <trkpt lat="43.44884" lon="1.06919">
        <ele>327.4</ele>
        <time>2024-08-01T07:55:27Z</time>
      </trkpt>
      <trkpt lat="43.44879" lon="1.06916">
        <ele>327.2</ele>
        <time>2024-08-01T07:55:28Z</time>
      </trkpt>
      <trkpt lat="43.44872" lon="1.06914">
        <ele>327.2</ele>
        <time>2024-08-01T07:55:29Z</time>
      </trkpt>
      <trkpt lat="43.44866" lon="1.06912">
        <ele>327</ele>
        <time>2024-08-01T07:55:30Z</time>
      </trkpt>
      <trkpt lat="43.44859" lon="1.0691">
        <ele>326.8</ele>
        <time>2024-08-01T07:55:31Z</time>
      </trkpt>
      <trkpt lat="43.44854" lon="1.06909">
        <ele>326.8</ele>
        <time>2024-08-01T07:55:32Z</time>
      </trkpt>
      <trkpt lat="43.44847" lon="1.06907">
        <ele>326.6</ele>
        <time>2024-08-01T07:55:33Z</time>
      </trkpt>
      <trkpt lat="43.44841" lon="1.06905">
        <ele>326.6</ele>
        <time>2024-08-01T07:55:34Z</time>
      </trkpt>
      <trkpt lat="43.44834" lon="1.06902">
        <ele>326.4</ele>
        <time>2024-08-01T07:55:35Z</time>
      </trkpt>
      <trkpt lat="43.44828" lon="1.069">
        <ele>326.2</ele>
        <time>2024-08-01T07:55:36Z</time>
      </trkpt>
      <trkpt lat="43.44821" lon="1.06897">
        <ele>326</ele>
        <time>2024-08-01T07:55:37Z</time>
      </trkpt>
      <trkpt lat="43.44815" lon="1.06895">
        <ele>325.8</ele>
        <time>2024-08-01T07:55:38Z</time>
      </trkpt>
      <trkpt lat="43.44808" lon="1.06892">
        <ele>325.8</ele>
        <time>2024-08-01T07:55:39Z</time>
      </trkpt>
      <trkpt lat="43.44802" lon="1.06889">
        <ele>325.6</ele>
        <time>2024-08-01T07:55:40Z</time>
      </trkpt>
      <trkpt lat="43.44795" lon="1.06887">
        <ele>325.6</ele>
        <time>2024-08-01T07:55:41Z</time>
      </trkpt>
      <trkpt lat="43.44787" lon="1.06883">
        <ele>325.4</ele>
        <time>2024-08-01T07:55:42Z</time>
      </trkpt>
      <trkpt lat="43.44782" lon="1.06881">
        <ele>325.2</ele>
        <time>2024-08-01T07:55:43Z</time>
      </trkpt>
      <trkpt lat="43.44775" lon="1.06878">
        <ele>325.2</ele>
        <time>2024-08-01T07:55:44Z</time>
      </trkpt>
      <trkpt lat="43.44769" lon="1.06875">
        <ele>325.2</ele>
        <time>2024-08-01T07:55:45Z</time>
      </trkpt>
      <trkpt lat="43.44762" lon="1.06872">
        <ele>325.2</ele>
        <time>2024-08-01T07:55:46Z</time>
      </trkpt>
      <trkpt lat="43.44755" lon="1.0687">
        <ele>325.2</ele>
        <time>2024-08-01T07:55:47Z</time>
      </trkpt>
      <trkpt lat="43.44749" lon="1.06867">
        <ele>325.2</ele>
        <time>2024-08-01T07:55:48Z</time>
      </trkpt>
      <trkpt lat="43.44742" lon="1.06864">
        <ele>325.2</ele>
        <time>2024-08-01T07:55:49Z</time>
      </trkpt>
      <trkpt lat="43.44736" lon="1.06861">
        <ele>325.2</ele>
        <time>2024-08-01T07:55:50Z</time>
      </trkpt>
      <trkpt lat="43.44729" lon="1.06858">
        <ele>325.2</ele>
        <time>2024-08-01T07:55:51Z</time>
      </trkpt>
      <trkpt lat="43.44723" lon="1.06856">
        <ele>325</ele>
        <time>2024-08-01T07:55:52Z</time>
      </trkpt>
      <trkpt lat="43.44717" lon="1.06853">
        <ele>325</ele>
        <time>2024-08-01T07:55:53Z</time>
      </trkpt>
      <trkpt lat="43.4471" lon="1.0685">
        <ele>324.8</ele>
        <time>2024-08-01T07:55:54Z</time>
      </trkpt>
      <trkpt lat="43.44704" lon="1.06847">
        <ele>324.8</ele>
        <time>2024-08-01T07:55:55Z</time>
      </trkpt>
      <trkpt lat="43.44698" lon="1.06844">
        <ele>324.6</ele>
        <time>2024-08-01T07:55:56Z</time>
      </trkpt>
      <trkpt lat="43.44692" lon="1.06842">
        <ele>324.6</ele>
        <time>2024-08-01T07:55:57Z</time>
      </trkpt>
      <trkpt lat="43.44686" lon="1.06839">
        <ele>324.6</ele>
        <time>2024-08-01T07:55:58Z</time>
      </trkpt>
      <trkpt lat="43.4468" lon="1.06835">
        <ele>324.6</ele>
        <time>2024-08-01T07:55:59Z</time>
      </trkpt>
      <trkpt lat="43.44674" lon="1.06831">
        <ele>324.6</ele>
        <time>2024-08-01T07:56:00Z</time>
      </trkpt>
      <trkpt lat="43.44668" lon="1.06827">
        <ele>324.6</ele>
        <time>2024-08-01T07:56:01Z</time>
      </trkpt>
      <trkpt lat="43.44662" lon="1.06822">
        <ele>324.6</ele>
        <time>2024-08-01T07:56:02Z</time>
      </trkpt>
      <trkpt lat="43.44657" lon="1.06818">
        <ele>324.8</ele>
        <time>2024-08-01T07:56:03Z</time>
      </trkpt>
      <trkpt lat="43.44651" lon="1.06813">
        <ele>324.8</ele>
        <time>2024-08-01T07:56:04Z</time>
      </trkpt>
      <trkpt lat="43.44646" lon="1.06807">
        <ele>325</ele>
        <time>2024-08-01T07:56:05Z</time>
      </trkpt>
      <trkpt lat="43.44641" lon="1.06802">
        <ele>325</ele>
        <time>2024-08-01T07:56:06Z</time>
      </trkpt>
      <trkpt lat="43.44636" lon="1.06796">
        <ele>325.2</ele>
        <time>2024-08-01T07:56:07Z</time>
      </trkpt>
      <trkpt lat="43.4463" lon="1.0679">
        <ele>325.4</ele>
        <time>2024-08-01T07:56:08Z</time>
      </trkpt>
      <trkpt lat="43.44625" lon="1.06784">
        <ele>325.4</ele>
        <time>2024-08-01T07:56:09Z</time>
      </trkpt>
      <trkpt lat="43.4462" lon="1.06778">
        <ele>325.6</ele>
        <time>2024-08-01T07:56:10Z</time>
      </trkpt>
      <trkpt lat="43.44615" lon="1.06772">
        <ele>325.6</ele>
        <time>2024-08-01T07:56:11Z</time>
      </trkpt>
      <trkpt lat="43.44609" lon="1.06766">
        <ele>325.8</ele>
        <time>2024-08-01T07:56:12Z</time>
      </trkpt>
      <trkpt lat="43.44604" lon="1.0676">
        <ele>325.8</ele>
        <time>2024-08-01T07:56:13Z</time>
      </trkpt>
      <trkpt lat="43.44599" lon="1.06754">
        <ele>326</ele>
        <time>2024-08-01T07:56:14Z</time>
      </trkpt>
      <trkpt lat="43.44594" lon="1.06749">
        <ele>326</ele>
        <time>2024-08-01T07:56:15Z</time>
      </trkpt>
      <trkpt lat="43.44589" lon="1.06743">
        <ele>326.2</ele>
        <time>2024-08-01T07:56:16Z</time>
      </trkpt>
      <trkpt lat="43.44584" lon="1.06738">
        <ele>326.2</ele>
        <time>2024-08-01T07:56:17Z</time>
      </trkpt>
      <trkpt lat="43.4458" lon="1.06733">
        <ele>326.4</ele>
        <time>2024-08-01T07:56:18Z</time>
      </trkpt>
      <trkpt lat="43.44575" lon="1.06727">
        <ele>326.4</ele>
        <time>2024-08-01T07:56:19Z</time>
      </trkpt>
      <trkpt lat="43.44571" lon="1.06722">
        <ele>326.6</ele>
        <time>2024-08-01T07:56:20Z</time>
      </trkpt>
      <trkpt lat="43.44566" lon="1.06715">
        <ele>326.6</ele>
        <time>2024-08-01T07:56:21Z</time>
      </trkpt>
      <trkpt lat="43.44562" lon="1.06711">
        <ele>326.8</ele>
        <time>2024-08-01T07:56:22Z</time>
      </trkpt>
      <trkpt lat="43.44558" lon="1.06706">
        <ele>327</ele>
        <time>2024-08-01T07:56:23Z</time>
      </trkpt>
      <trkpt lat="43.44553" lon="1.06702">
        <ele>327</ele>
        <time>2024-08-01T07:56:24Z</time>
      </trkpt>
      <trkpt lat="43.44549" lon="1.06697">
        <ele>327.2</ele>
        <time>2024-08-01T07:56:25Z</time>
      </trkpt>
      <trkpt lat="43.44545" lon="1.06692">
        <ele>327.4</ele>
        <time>2024-08-01T07:56:26Z</time>
      </trkpt>
      <trkpt lat="43.4454" lon="1.06686">
        <ele>327.6</ele>
        <time>2024-08-01T07:56:27Z</time>
      </trkpt>
      <trkpt lat="43.44536" lon="1.06681">
        <ele>327.8</ele>
        <time>2024-08-01T07:56:28Z</time>
      </trkpt>
      <trkpt lat="43.44532" lon="1.06676">
        <ele>328.2</ele>
        <time>2024-08-01T07:56:29Z</time>
      </trkpt>
      <trkpt lat="43.44528" lon="1.06671">
        <ele>328.4</ele>
        <time>2024-08-01T07:56:30Z</time>
      </trkpt>
      <trkpt lat="43.44524" lon="1.06666">
        <ele>328.8</ele>
        <time>2024-08-01T07:56:31Z</time>
      </trkpt>
      <trkpt lat="43.4452" lon="1.06661">
        <ele>328.8</ele>
        <time>2024-08-01T07:56:32Z</time>
      </trkpt>
      <trkpt lat="43.44516" lon="1.06656">
        <ele>329</ele>
        <time>2024-08-01T07:56:33Z</time>
      </trkpt>
      <trkpt lat="43.44512" lon="1.06651">
        <ele>329</ele>
        <time>2024-08-01T07:56:34Z</time>
      </trkpt>
      <trkpt lat="43.44508" lon="1.06645">
        <ele>329</ele>
        <time>2024-08-01T07:56:35Z</time>
      </trkpt>
      <trkpt lat="43.44503" lon="1.06638">
        <ele>329.2</ele>
        <time>2024-08-01T07:56:36Z</time>
      </trkpt>
      <trkpt lat="43.445" lon="1.06634">
        <ele>329.4</ele>
        <time>2024-08-01T07:56:37Z</time>
      </trkpt>
      <trkpt lat="43.44496" lon="1.06628">
        <ele>329.8</ele>
        <time>2024-08-01T07:56:38Z</time>
      </trkpt>
      <trkpt lat="43.44492" lon="1.06623">
        <ele>330</ele>
        <time>2024-08-01T07:56:39Z</time>
      </trkpt>
      <trkpt lat="43.44488" lon="1.06617">
        <ele>330.2</ele>
        <time>2024-08-01T07:56:40Z</time>
      </trkpt>
      <trkpt lat="43.44484" lon="1.06611">
        <ele>330.2</ele>
        <time>2024-08-01T07:56:41Z</time>
      </trkpt>
      <trkpt lat="43.4448" lon="1.06605">
        <ele>330.4</ele>
        <time>2024-08-01T07:56:42Z</time>
      </trkpt>
      <trkpt lat="43.44476" lon="1.06599">
        <ele>330.4</ele>
        <time>2024-08-01T07:56:43Z</time>
      </trkpt>
      <trkpt lat="43.44472" lon="1.06593">
        <ele>330.4</ele>
        <time>2024-08-01T07:56:44Z</time>
      </trkpt>
      <trkpt lat="43.44468" lon="1.06587">
        <ele>330.4</ele>
        <time>2024-08-01T07:56:45Z</time>
      </trkpt>
      <trkpt lat="43.44463" lon="1.06581">
        <ele>330.4</ele>
        <time>2024-08-01T07:56:46Z</time>
      </trkpt>
      <trkpt lat="43.44459" lon="1.06575">
        <ele>330.4</ele>
        <time>2024-08-01T07:56:47Z</time>
      </trkpt>
      <trkpt lat="43.44454" lon="1.06569">
        <ele>330.4</ele>
        <time>2024-08-01T07:56:48Z</time>
      </trkpt>
      <trkpt lat="43.4445" lon="1.06562">
        <ele>330.4</ele>
        <time>2024-08-01T07:56:49Z</time>
      </trkpt>
      <trkpt lat="43.44445" lon="1.06555">
        <ele>330.4</ele>
        <time>2024-08-01T07:56:50Z</time>
      </trkpt>
      <trkpt lat="43.44441" lon="1.06549">
        <ele>330.2</ele>
        <time>2024-08-01T07:56:51Z</time>
      </trkpt>
      <trkpt lat="43.44436" lon="1.06542">
        <ele>330.2</ele>
        <time>2024-08-01T07:56:52Z</time>
      </trkpt>
      <trkpt lat="43.44431" lon="1.06535">
        <ele>330</ele>
        <time>2024-08-01T07:56:53Z</time>
      </trkpt>
      <trkpt lat="43.44426" lon="1.06528">
        <ele>329.8</ele>
        <time>2024-08-01T07:56:54Z</time>
      </trkpt>
      <trkpt lat="43.44426" lon="1.06528">
        <ele>329.6</ele>
        <time>2024-08-01T07:56:55Z</time>
      </trkpt>
      <trkpt lat="43.44416" lon="1.06515">
        <ele>329.6</ele>
        <time>2024-08-01T07:56:56Z</time>
      </trkpt>
      <trkpt lat="43.44411" lon="1.06508">
        <ele>329.4</ele>
        <time>2024-08-01T07:56:57Z</time>
      </trkpt>
      <trkpt lat="43.44406" lon="1.06501">
        <ele>329.4</ele>
        <time>2024-08-01T07:56:58Z</time>
      </trkpt>
      <trkpt lat="43.444" lon="1.06494">
        <ele>329.2</ele>
        <time>2024-08-01T07:56:59Z</time>
      </trkpt>
      <trkpt lat="43.44395" lon="1.06487">
        <ele>329.2</ele>
        <time>2024-08-01T07:57:00Z</time>
      </trkpt>
      <trkpt lat="43.44389" lon="1.06479">
        <ele>329.2</ele>
        <time>2024-08-01T07:57:01Z</time>
      </trkpt>
      <trkpt lat="43.44384" lon="1.06472">
        <ele>328.8</ele>
        <time>2024-08-01T07:57:02Z</time>
      </trkpt>
      <trkpt lat="43.44378" lon="1.06464">
        <ele>328.6</ele>
        <time>2024-08-01T07:57:03Z</time>
      </trkpt>
      <trkpt lat="43.44372" lon="1.06456">
        <ele>328.2</ele>
        <time>2024-08-01T07:57:04Z</time>
      </trkpt>
      <trkpt lat="43.44367" lon="1.06448">
        <ele>328</ele>
        <time>2024-08-01T07:57:05Z</time>
      </trkpt>
      <trkpt lat="43.44361" lon="1.06441">
        <ele>327.8</ele>
        <time>2024-08-01T07:57:06Z</time>
      </trkpt>
      <trkpt lat="43.44355" lon="1.06433">
        <ele>327.6</ele>
        <time>2024-08-01T07:57:07Z</time>
      </trkpt>
      <trkpt lat="43.44349" lon="1.06425">
        <ele>327.2</ele>
        <time>2024-08-01T07:57:08Z</time>
      </trkpt>
      <trkpt lat="43.44343" lon="1.06418">
        <ele>327</ele>
        <time>2024-08-01T07:57:09Z</time>
      </trkpt>
      <trkpt lat="43.44338" lon="1.0641">
        <ele>326.8</ele>
        <time>2024-08-01T07:57:10Z</time>
      </trkpt>
      <trkpt lat="43.44332" lon="1.06402">
        <ele>326.6</ele>
        <time>2024-08-01T07:57:11Z</time>
      </trkpt>
      <trkpt lat="43.44326" lon="1.06394">
        <ele>326.6</ele>
        <time>2024-08-01T07:57:12Z</time>
      </trkpt>
      <trkpt lat="43.44321" lon="1.06387">
        <ele>326.4</ele>
        <time>2024-08-01T07:57:13Z</time>
      </trkpt>
      <trkpt lat="43.44315" lon="1.06379">
        <ele>326.4</ele>
        <time>2024-08-01T07:57:14Z</time>
      </trkpt>
      <trkpt lat="43.44309" lon="1.06372">
        <ele>326.2</ele>
        <time>2024-08-01T07:57:15Z</time>
      </trkpt>
      <trkpt lat="43.44303" lon="1.06364">
        <ele>326.2</ele>
        <time>2024-08-01T07:57:16Z</time>
      </trkpt>
      <trkpt lat="43.44298" lon="1.06357">
        <ele>326.2</ele>
        <time>2024-08-01T07:57:17Z</time>
      </trkpt>
      <trkpt lat="43.44292" lon="1.06349">
        <ele>326</ele>
        <time>2024-08-01T07:57:18Z</time>
      </trkpt>
      <trkpt lat="43.44287" lon="1.06342">
        <ele>326</ele>
        <time>2024-08-01T07:57:19Z</time>
      </trkpt>
      <trkpt lat="43.44281" lon="1.06335">
        <ele>325.8</ele>
        <time>2024-08-01T07:57:20Z</time>
      </trkpt>
      <trkpt lat="43.44275" lon="1.06328">
        <ele>325.8</ele>
        <time>2024-08-01T07:57:21Z</time>
      </trkpt>
      <trkpt lat="43.44269" lon="1.06322">
        <ele>325.6</ele>
        <time>2024-08-01T07:57:22Z</time>
      </trkpt>
      <trkpt lat="43.44263" lon="1.06317">
        <ele>325.4</ele>
        <time>2024-08-01T07:57:23Z</time>
      </trkpt>
      <trkpt lat="43.44256" lon="1.06312">
        <ele>325.4</ele>
        <time>2024-08-01T07:57:24Z</time>
      </trkpt>
      <trkpt lat="43.44249" lon="1.06309">
        <ele>325.4</ele>
        <time>2024-08-01T07:57:25Z</time>
      </trkpt>
      <trkpt lat="43.44243" lon="1.06307">
        <ele>325.4</ele>
        <time>2024-08-01T07:57:26Z</time>
      </trkpt>
      <trkpt lat="43.44236" lon="1.06305">
        <ele>325.2</ele>
        <time>2024-08-01T07:57:27Z</time>
      </trkpt>
      <trkpt lat="43.44229" lon="1.06304">
        <ele>325.2</ele>
        <time>2024-08-01T07:57:28Z</time>
      </trkpt>
      <trkpt lat="43.44221" lon="1.06304">
        <ele>325.2</ele>
        <time>2024-08-01T07:57:29Z</time>
      </trkpt>
      <trkpt lat="43.44216" lon="1.06303">
        <ele>325.2</ele>
        <time>2024-08-01T07:57:30Z</time>
      </trkpt>
      <trkpt lat="43.44209" lon="1.06303">
        <ele>325.2</ele>
        <time>2024-08-01T07:57:31Z</time>
      </trkpt>
      <trkpt lat="43.44203" lon="1.06303">
        <ele>325.4</ele>
        <time>2024-08-01T07:57:32Z</time>
      </trkpt>
      <trkpt lat="43.44197" lon="1.06303">
        <ele>325.4</ele>
        <time>2024-08-01T07:57:33Z</time>
      </trkpt>
      <trkpt lat="43.44189" lon="1.06302">
        <ele>325.8</ele>
        <time>2024-08-01T07:57:34Z</time>
      </trkpt>
      <trkpt lat="43.44185" lon="1.06302">
        <ele>325.8</ele>
        <time>2024-08-01T07:57:35Z</time>
      </trkpt>
      <trkpt lat="43.44179" lon="1.06302">
        <ele>326</ele>
        <time>2024-08-01T07:57:36Z</time>
      </trkpt>
      <trkpt lat="43.44173" lon="1.06301">
        <ele>326</ele>
        <time>2024-08-01T07:57:37Z</time>
      </trkpt>
      <trkpt lat="43.44167" lon="1.063">
        <ele>326</ele>
        <time>2024-08-01T07:57:38Z</time>
      </trkpt>
      <trkpt lat="43.44161" lon="1.06299">
        <ele>326.2</ele>
        <time>2024-08-01T07:57:39Z</time>
      </trkpt>
      <trkpt lat="43.44155" lon="1.06297">
        <ele>326.2</ele>
        <time>2024-08-01T07:57:40Z</time>
      </trkpt>
      <trkpt lat="43.44149" lon="1.06295">
        <ele>326.2</ele>
        <time>2024-08-01T07:57:41Z</time>
      </trkpt>
      <trkpt lat="43.44143" lon="1.06292">
        <ele>326.2</ele>
        <time>2024-08-01T07:57:42Z</time>
      </trkpt>
      <trkpt lat="43.44137" lon="1.06289">
        <ele>326.2</ele>
        <time>2024-08-01T07:57:43Z</time>
      </trkpt>
      <trkpt lat="43.4413" lon="1.06285">
        <ele>326.2</ele>
        <time>2024-08-01T07:57:44Z</time>
      </trkpt>
      <trkpt lat="43.44124" lon="1.0628">
        <ele>326.2</ele>
        <time>2024-08-01T07:57:45Z</time>
      </trkpt>
      <trkpt lat="43.44118" lon="1.06275">
        <ele>326</ele>
        <time>2024-08-01T07:57:46Z</time>
      </trkpt>
      <trkpt lat="43.44112" lon="1.0627">
        <ele>325.8</ele>
        <time>2024-08-01T07:57:47Z</time>
      </trkpt>
      <trkpt lat="43.44107" lon="1.06264">
        <ele>325.2</ele>
        <time>2024-08-01T07:57:48Z</time>
      </trkpt>
      <trkpt lat="43.44102" lon="1.06259">
        <ele>325</ele>
        <time>2024-08-01T07:57:49Z</time>
      </trkpt>
      <trkpt lat="43.44097" lon="1.06254">
        <ele>324.4</ele>
        <time>2024-08-01T07:57:50Z</time>
      </trkpt>
      <trkpt lat="43.44094" lon="1.06249">
        <ele>324.2</ele>
        <time>2024-08-01T07:57:51Z</time>
      </trkpt>
      <trkpt lat="43.44091" lon="1.06243">
        <ele>324</ele>
        <time>2024-08-01T07:57:52Z</time>
      </trkpt>
      <trkpt lat="43.44089" lon="1.06238">
        <ele>323.4</ele>
        <time>2024-08-01T07:57:53Z</time>
      </trkpt>
      <trkpt lat="43.44087" lon="1.06232">
        <ele>323</ele>
        <time>2024-08-01T07:57:54Z</time>
      </trkpt>
      <trkpt lat="43.44086" lon="1.06227">
        <ele>322.4</ele>
        <time>2024-08-01T07:57:55Z</time>
      </trkpt>
      <trkpt lat="43.44084" lon="1.06222">
        <ele>322</ele>
        <time>2024-08-01T07:57:56Z</time>
      </trkpt>
      <trkpt lat="43.44081" lon="1.06219">
        <ele>321.6</ele>
        <time>2024-08-01T07:57:57Z</time>
      </trkpt>
      <trkpt lat="43.44078" lon="1.06219">
        <ele>320.8</ele>
        <time>2024-08-01T07:57:58Z</time>
      </trkpt>
      <trkpt lat="43.44074" lon="1.0622">
        <ele>320.6</ele>
        <time>2024-08-01T07:57:59Z</time>
      </trkpt>
      <trkpt lat="43.44072" lon="1.06224">
        <ele>320.2</ele>
        <time>2024-08-01T07:58:00Z</time>
      </trkpt>
      <trkpt lat="43.4407" lon="1.06227">
        <ele>320</ele>
        <time>2024-08-01T07:58:01Z</time>
      </trkpt>
      <trkpt lat="43.44069" lon="1.0623">
        <ele>319.6</ele>
        <time>2024-08-01T07:58:02Z</time>
      </trkpt>
      <trkpt lat="43.44068" lon="1.06233">
        <ele>319.4</ele>
        <time>2024-08-01T07:58:03Z</time>
      </trkpt>
      <trkpt lat="43.44067" lon="1.06236">
        <ele>319.2</ele>
        <time>2024-08-01T07:58:04Z</time>
      </trkpt>
      <trkpt lat="43.44066" lon="1.06238">
        <ele>319</ele>
        <time>2024-08-01T07:58:05Z</time>
      </trkpt>
      <trkpt lat="43.44064" lon="1.0624">
        <ele>319</ele>
        <time>2024-08-01T07:58:06Z</time>
      </trkpt>
      <trkpt lat="43.44063" lon="1.06242">
        <ele>319</ele>
        <time>2024-08-01T07:58:07Z</time>
      </trkpt>
      <trkpt lat="43.44061" lon="1.06245">
        <ele>319</ele>
        <time>2024-08-01T07:58:08Z</time>
      </trkpt>
      <trkpt lat="43.44059" lon="1.06246">
        <ele>319.2</ele>
        <time>2024-08-01T07:58:09Z</time>
      </trkpt>
      <trkpt lat="43.44057" lon="1.06247">
        <ele>319.2</ele>
        <time>2024-08-01T07:58:10Z</time>
      </trkpt>
      <trkpt lat="43.44056" lon="1.06248">
        <ele>319.2</ele>
        <time>2024-08-01T07:58:11Z</time>
      </trkpt>
      <trkpt lat="43.44054" lon="1.06249">
        <ele>319.4</ele>
        <time>2024-08-01T07:58:12Z</time>
      </trkpt>
      <trkpt lat="43.44053" lon="1.06249">
        <ele>319.6</ele>
        <time>2024-08-01T07:58:13Z</time>
      </trkpt>
      <trkpt lat="43.44052" lon="1.0625">
        <ele>319.8</ele>
        <time>2024-08-01T07:58:14Z</time>
      </trkpt>
      <trkpt lat="43.44052" lon="1.06251">
        <ele>319.8</ele>
        <time>2024-08-01T07:58:15Z</time>
      </trkpt>
      <trkpt lat="43.44052" lon="1.06253">
        <ele>320.2</ele>
        <time>2024-08-01T07:58:16Z</time>
      </trkpt>
      <trkpt lat="43.44052" lon="1.06254">
        <ele>320.2</ele>
        <time>2024-08-01T07:58:17Z</time>
      </trkpt>
      <trkpt lat="43.44052" lon="1.06255">
        <ele>320.4</ele>
        <time>2024-08-01T07:58:18Z</time>
      </trkpt>
      <trkpt lat="43.44053" lon="1.06256">
        <ele>320.6</ele>
        <time>2024-08-01T07:58:19Z</time>
      </trkpt>
      <trkpt lat="43.44053" lon="1.06257">
        <ele>320.6</ele>
        <time>2024-08-01T07:58:20Z</time>
      </trkpt>
      <trkpt lat="43.44054" lon="1.06257">
        <ele>320.6</ele>
        <time>2024-08-01T07:58:21Z</time>
      </trkpt>
      <trkpt lat="43.44054" lon="1.06257">
        <ele>320.8</ele>
        <time>2024-08-01T07:58:22Z</time>
      </trkpt>
      <trkpt lat="43.44054" lon="1.0626">
        <ele>320.8</ele>
        <time>2024-08-01T07:59:16Z</time>
      </trkpt>
      <trkpt lat="43.44054" lon="1.06263">
        <ele>320.8</ele>
        <time>2024-08-01T07:59:17Z</time>
      </trkpt>
      <trkpt lat="43.44054" lon="1.06266">
        <ele>320.8</ele>
        <time>2024-08-01T07:59:18Z</time>
      </trkpt>
      <trkpt lat="43.44053" lon="1.06269">
        <ele>320.8</ele>
        <time>2024-08-01T07:59:19Z</time>
      </trkpt>
      <trkpt lat="43.44053" lon="1.06273">
        <ele>320.8</ele>
        <time>2024-08-01T07:59:20Z</time>
      </trkpt>
      <trkpt lat="43.44052" lon="1.06277">
        <ele>321</ele>
        <time>2024-08-01T07:59:21Z</time>
      </trkpt>
      <trkpt lat="43.44052" lon="1.06281">
        <ele>321</ele>
        <time>2024-08-01T07:59:22Z</time>
      </trkpt>
      <trkpt lat="43.4405" lon="1.06285">
        <ele>321</ele>
        <time>2024-08-01T07:59:23Z</time>
      </trkpt>
      <trkpt lat="43.4405" lon="1.06289">
        <ele>321.2</ele>
        <time>2024-08-01T07:59:24Z</time>
      </trkpt>
      <trkpt lat="43.44049" lon="1.06293">
        <ele>321.2</ele>
        <time>2024-08-01T07:59:25Z</time>
      </trkpt>
      <trkpt lat="43.44049" lon="1.06297">
        <ele>321.6</ele>
        <time>2024-08-01T07:59:26Z</time>
      </trkpt>
      <trkpt lat="43.44049" lon="1.06301">
        <ele>321.8</ele>
        <time>2024-08-01T07:59:27Z</time>
      </trkpt>
      <trkpt lat="43.44047" lon="1.06305">
        <ele>322</ele>
        <time>2024-08-01T07:59:28Z</time>
      </trkpt>
      <trkpt lat="43.44046" lon="1.06309">
        <ele>322</ele>
        <time>2024-08-01T07:59:29Z</time>
      </trkpt>
      <trkpt lat="43.44045" lon="1.06314">
        <ele>322.4</ele>
        <time>2024-08-01T07:59:30Z</time>
      </trkpt>
      <trkpt lat="43.44044" lon="1.06318">
        <ele>322.6</ele>
        <time>2024-08-01T07:59:31Z</time>
      </trkpt>
      <trkpt lat="43.44043" lon="1.06323">
        <ele>322.8</ele>
        <time>2024-08-01T07:59:32Z</time>
      </trkpt>
      <trkpt lat="43.44042" lon="1.06328">
        <ele>323.2</ele>
        <time>2024-08-01T07:59:33Z</time>
      </trkpt>
      <trkpt lat="43.44042" lon="1.06333">
        <ele>323.4</ele>
        <time>2024-08-01T07:59:34Z</time>
      </trkpt>
      <trkpt lat="43.44042" lon="1.06337">
        <ele>323.6</ele>
        <time>2024-08-01T07:59:35Z</time>
      </trkpt>
      <trkpt lat="43.44042" lon="1.06341">
        <ele>323.8</ele>
        <time>2024-08-01T07:59:36Z</time>
      </trkpt>
      <trkpt lat="43.44041" lon="1.06345">
        <ele>324</ele>
        <time>2024-08-01T07:59:37Z</time>
      </trkpt>
      <trkpt lat="43.44041" lon="1.06348">
        <ele>324.2</ele>
        <time>2024-08-01T07:59:38Z</time>
      </trkpt>
      <trkpt lat="43.44041" lon="1.06352">
        <ele>324.4</ele>
        <time>2024-08-01T07:59:39Z</time>
      </trkpt>
      <trkpt lat="43.4404" lon="1.06356">
        <ele>324.6</ele>
        <time>2024-08-01T07:59:40Z</time>
      </trkpt>
      <trkpt lat="43.4404" lon="1.06359">
        <ele>324.6</ele>
        <time>2024-08-01T07:59:41Z</time>
      </trkpt>
      <trkpt lat="43.44039" lon="1.06363">
        <ele>325</ele>
        <time>2024-08-01T07:59:42Z</time>
      </trkpt>
      <trkpt lat="43.44039" lon="1.06366">
        <ele>325</ele>
        <time>2024-08-01T07:59:43Z</time>
      </trkpt>
      <trkpt lat="43.44038" lon="1.06369">
        <ele>325.4</ele>
        <time>2024-08-01T07:59:44Z</time>
      </trkpt>
      <trkpt lat="43.44038" lon="1.06371">
        <ele>325.6</ele>
        <time>2024-08-01T07:59:45Z</time>
      </trkpt>
      <trkpt lat="43.44037" lon="1.06374">
        <ele>325.6</ele>
        <time>2024-08-01T07:59:46Z</time>
      </trkpt>
      <trkpt lat="43.44037" lon="1.06377">
        <ele>325.8</ele>
        <time>2024-08-01T07:59:47Z</time>
      </trkpt>
      <trkpt lat="43.44036" lon="1.0638">
        <ele>325.8</ele>
        <time>2024-08-01T07:59:48Z</time>
      </trkpt>
      <trkpt lat="43.44036" lon="1.06384">
        <ele>325.8</ele>
        <time>2024-08-01T07:59:49Z</time>
      </trkpt>
      <trkpt lat="43.44035" lon="1.06387">
        <ele>325.8</ele>
        <time>2024-08-01T07:59:50Z</time>
      </trkpt>
      <trkpt lat="43.44034" lon="1.06391">
        <ele>326</ele>
        <time>2024-08-01T07:59:51Z</time>
      </trkpt>
      <trkpt lat="43.44033" lon="1.06394">
        <ele>326</ele>
        <time>2024-08-01T07:59:52Z</time>
      </trkpt>
      <trkpt lat="43.44032" lon="1.06398">
        <ele>326</ele>
        <time>2024-08-01T07:59:53Z</time>
      </trkpt>
      <trkpt lat="43.4403" lon="1.06401">
        <ele>326.2</ele>
        <time>2024-08-01T07:59:54Z</time>
      </trkpt>
      <trkpt lat="43.44029" lon="1.06405">
        <ele>326.2</ele>
        <time>2024-08-01T07:59:55Z</time>
      </trkpt>
      <trkpt lat="43.44028" lon="1.06409">
        <ele>326.4</ele>
        <time>2024-08-01T07:59:56Z</time>
      </trkpt>
      <trkpt lat="43.44027" lon="1.06412">
        <ele>326.4</ele>
        <time>2024-08-01T07:59:57Z</time>
      </trkpt>
      <trkpt lat="43.44025" lon="1.06416">
        <ele>326.6</ele>
        <time>2024-08-01T07:59:58Z</time>
      </trkpt>
      <trkpt lat="43.44024" lon="1.0642">
        <ele>326.6</ele>
        <time>2024-08-01T07:59:59Z</time>
      </trkpt>
      <trkpt lat="43.44023" lon="1.06424">
        <ele>326.6</ele>
        <time>2024-08-01T08:00:00Z</time>
      </trkpt>
      <trkpt lat="43.44021" lon="1.06428">
        <ele>326.8</ele>
        <time>2024-08-01T08:00:01Z</time>
      </trkpt>
      <trkpt lat="43.4402" lon="1.06432">
        <ele>326.8</ele>
        <time>2024-08-01T08:00:02Z</time>
      </trkpt>
      <trkpt lat="43.44018" lon="1.06436">
        <ele>326.8</ele>
        <time>2024-08-01T08:00:03Z</time>
      </trkpt>
      <trkpt lat="43.44017" lon="1.0644">
        <ele>327</ele>
        <time>2024-08-01T08:00:04Z</time>
      </trkpt>
      <trkpt lat="43.44015" lon="1.06445">
        <ele>327</ele>
        <time>2024-08-01T08:00:05Z</time>
      </trkpt>
      <trkpt lat="43.44013" lon="1.06449">
        <ele>327</ele>
        <time>2024-08-01T08:00:06Z</time>
      </trkpt>
      <trkpt lat="43.44011" lon="1.06454">
        <ele>327</ele>
        <time>2024-08-01T08:00:07Z</time>
      </trkpt>
      <trkpt lat="43.4401" lon="1.06459">
        <ele>327.2</ele>
        <time>2024-08-01T08:00:08Z</time>
      </trkpt>
      <trkpt lat="43.44008" lon="1.06464">
        <ele>327.2</ele>
        <time>2024-08-01T08:00:09Z</time>
      </trkpt>
      <trkpt lat="43.44006" lon="1.06469">
        <ele>327.2</ele>
        <time>2024-08-01T08:00:10Z</time>
      </trkpt>
      <trkpt lat="43.44004" lon="1.06474">
        <ele>327.2</ele>
        <time>2024-08-01T08:00:11Z</time>
      </trkpt>
      <trkpt lat="43.44002" lon="1.0648">
        <ele>327.2</ele>
        <time>2024-08-01T08:00:12Z</time>
      </trkpt>
      <trkpt lat="43.44" lon="1.06485">
        <ele>327.2</ele>
        <time>2024-08-01T08:00:13Z</time>
      </trkpt>
      <trkpt lat="43.43997" lon="1.06491">
        <ele>327</ele>
        <time>2024-08-01T08:00:14Z</time>
      </trkpt>
      <trkpt lat="43.43995" lon="1.06496">
        <ele>327</ele>
        <time>2024-08-01T08:00:15Z</time>
      </trkpt>
      <trkpt lat="43.43993" lon="1.06502">
        <ele>326.8</ele>
        <time>2024-08-01T08:00:16Z</time>
      </trkpt>
      <trkpt lat="43.43991" lon="1.06508">
        <ele>326.8</ele>
        <time>2024-08-01T08:00:17Z</time>
      </trkpt>
      <trkpt lat="43.43989" lon="1.06514">
        <ele>326.6</ele>
        <time>2024-08-01T08:00:18Z</time>
      </trkpt>
      <trkpt lat="43.43986" lon="1.0652">
        <ele>326.6</ele>
        <time>2024-08-01T08:00:19Z</time>
      </trkpt>
      <trkpt lat="43.43984" lon="1.06526">
        <ele>326.6</ele>
        <time>2024-08-01T08:00:20Z</time>
      </trkpt>
      <trkpt lat="43.43981" lon="1.06532">
        <ele>326.4</ele>
        <time>2024-08-01T08:00:21Z</time>
      </trkpt>
      <trkpt lat="43.43979" lon="1.06539">
        <ele>326.4</ele>
        <time>2024-08-01T08:00:22Z</time>
      </trkpt>
      <trkpt lat="43.43977" lon="1.06546">
        <ele>326.4</ele>
        <time>2024-08-01T08:00:23Z</time>
      </trkpt>
      <trkpt lat="43.43974" lon="1.06553">
        <ele>326.2</ele>
        <time>2024-08-01T08:00:24Z</time>
      </trkpt>
      <trkpt lat="43.43972" lon="1.0656">
        <ele>326</ele>
        <time>2024-08-01T08:00:25Z</time>
      </trkpt>
      <trkpt lat="43.43969" lon="1.06567">
        <ele>326</ele>
        <time>2024-08-01T08:00:26Z</time>
      </trkpt>
      <trkpt lat="43.43966" lon="1.06574">
        <ele>325.8</ele>
        <time>2024-08-01T08:00:27Z</time>
      </trkpt>
      <trkpt lat="43.43964" lon="1.06581">
        <ele>325.6</ele>
        <time>2024-08-01T08:00:28Z</time>
      </trkpt>
      <trkpt lat="43.43962" lon="1.06588">
        <ele>325.6</ele>
        <time>2024-08-01T08:00:29Z</time>
      </trkpt>
      <trkpt lat="43.4396" lon="1.06595">
        <ele>325.6</ele>
        <time>2024-08-01T08:00:30Z</time>
      </trkpt>
      <trkpt lat="43.43958" lon="1.06601">
        <ele>325.4</ele>
        <time>2024-08-01T08:00:31Z</time>
      </trkpt>
      <trkpt lat="43.43956" lon="1.06608">
        <ele>325.4</ele>
        <time>2024-08-01T08:00:32Z</time>
      </trkpt>
      <trkpt lat="43.43954" lon="1.06616">
        <ele>325.4</ele>
        <time>2024-08-01T08:00:33Z</time>
      </trkpt>
      <trkpt lat="43.43951" lon="1.06623">
        <ele>325.2</ele>
        <time>2024-08-01T08:00:34Z</time>
      </trkpt>
      <trkpt lat="43.43949" lon="1.06631">
        <ele>325.2</ele>
        <time>2024-08-01T08:00:35Z</time>
      </trkpt>
      <trkpt lat="43.43947" lon="1.06638">
        <ele>325.2</ele>
        <time>2024-08-01T08:00:36Z</time>
      </trkpt>
      <trkpt lat="43.43944" lon="1.06647">
        <ele>325.2</ele>
        <time>2024-08-01T08:00:37Z</time>
      </trkpt>
      <trkpt lat="43.43942" lon="1.06655">
        <ele>325.2</ele>
        <time>2024-08-01T08:00:38Z</time>
      </trkpt>
      <trkpt lat="43.43939" lon="1.06663">
        <ele>325</ele>
        <time>2024-08-01T08:00:39Z</time>
      </trkpt>
      <trkpt lat="43.43937" lon="1.06671">
        <ele>325</ele>
        <time>2024-08-01T08:00:40Z</time>
      </trkpt>
      <trkpt lat="43.43934" lon="1.0668">
        <ele>325</ele>
        <time>2024-08-01T08:00:41Z</time>
      </trkpt>
      <trkpt lat="43.43932" lon="1.06688">
        <ele>324.8</ele>
        <time>2024-08-01T08:00:42Z</time>
      </trkpt>
      <trkpt lat="43.43929" lon="1.06695">
        <ele>324.8</ele>
        <time>2024-08-01T08:00:43Z</time>
      </trkpt>
      <trkpt lat="43.43927" lon="1.06703">
        <ele>324.8</ele>
        <time>2024-08-01T08:00:44Z</time>
      </trkpt>
      <trkpt lat="43.43925" lon="1.06711">
        <ele>324.6</ele>
        <time>2024-08-01T08:00:45Z</time>
      </trkpt>
      <trkpt lat="43.43922" lon="1.0672">
        <ele>324.6</ele>
        <time>2024-08-01T08:00:46Z</time>
      </trkpt>
      <trkpt lat="43.4392" lon="1.06728">
        <ele>324.6</ele>
        <time>2024-08-01T08:00:47Z</time>
      </trkpt>
      <trkpt lat="43.43918" lon="1.06736">
        <ele>324.6</ele>
        <time>2024-08-01T08:00:48Z</time>
      </trkpt>
      <trkpt lat="43.43916" lon="1.06744">
        <ele>324.4</ele>
        <time>2024-08-01T08:00:49Z</time>
      </trkpt>
      <trkpt lat="43.43914" lon="1.06753">
        <ele>324.4</ele>
        <time>2024-08-01T08:00:50Z</time>
      </trkpt>
      <trkpt lat="43.43911" lon="1.06761">
        <ele>324.4</ele>
        <time>2024-08-01T08:00:51Z</time>
      </trkpt>
      <trkpt lat="43.4391" lon="1.0677">
        <ele>324.4</ele>
        <time>2024-08-01T08:00:52Z</time>
      </trkpt>
      <trkpt lat="43.43908" lon="1.06778">
        <ele>324.2</ele>
        <time>2024-08-01T08:00:53Z</time>
      </trkpt>
      <trkpt lat="43.43906" lon="1.06786">
        <ele>324.2</ele>
        <time>2024-08-01T08:00:54Z</time>
      </trkpt>
      <trkpt lat="43.43904" lon="1.06795">
        <ele>324.2</ele>
        <time>2024-08-01T08:00:55Z</time>
      </trkpt>
      <trkpt lat="43.43902" lon="1.06802">
        <ele>324.2</ele>
        <time>2024-08-01T08:00:56Z</time>
      </trkpt>
      <trkpt lat="43.43901" lon="1.06811">
        <ele>324</ele>
        <time>2024-08-01T08:00:57Z</time>
      </trkpt>
      <trkpt lat="43.43899" lon="1.06819">
        <ele>324</ele>
        <time>2024-08-01T08:00:58Z</time>
      </trkpt>
      <trkpt lat="43.43897" lon="1.06827">
        <ele>324</ele>
        <time>2024-08-01T08:00:59Z</time>
      </trkpt>
      <trkpt lat="43.43896" lon="1.06836">
        <ele>324</ele>
        <time>2024-08-01T08:01:00Z</time>
      </trkpt>
      <trkpt lat="43.43894" lon="1.06844">
        <ele>324</ele>
        <time>2024-08-01T08:01:01Z</time>
      </trkpt>
      <trkpt lat="43.43892" lon="1.06853">
        <ele>323.8</ele>
        <time>2024-08-01T08:01:02Z</time>
      </trkpt>
      <trkpt lat="43.4389" lon="1.06862">
        <ele>323.8</ele>
        <time>2024-08-01T08:01:03Z</time>
      </trkpt>
      <trkpt lat="43.43888" lon="1.06871">
        <ele>323.8</ele>
        <time>2024-08-01T08:01:04Z</time>
      </trkpt>
      <trkpt lat="43.43886" lon="1.0688">
        <ele>323.6</ele>
        <time>2024-08-01T08:01:05Z</time>
      </trkpt>
      <trkpt lat="43.43883" lon="1.0689">
        <ele>323.4</ele>
        <time>2024-08-01T08:01:06Z</time>
      </trkpt>
      <trkpt lat="43.43881" lon="1.06899">
        <ele>323.2</ele>
        <time>2024-08-01T08:01:07Z</time>
      </trkpt>
      <trkpt lat="43.43879" lon="1.06909">
        <ele>323.2</ele>
        <time>2024-08-01T08:01:08Z</time>
      </trkpt>
      <trkpt lat="43.43877" lon="1.06919">
        <ele>322.8</ele>
        <time>2024-08-01T08:01:09Z</time>
      </trkpt>
      <trkpt lat="43.43875" lon="1.06929">
        <ele>322.8</ele>
        <time>2024-08-01T08:01:10Z</time>
      </trkpt>
      <trkpt lat="43.43874" lon="1.0694">
        <ele>322.4</ele>
        <time>2024-08-01T08:01:11Z</time>
      </trkpt>
      <trkpt lat="43.43873" lon="1.0695">
        <ele>322</ele>
        <time>2024-08-01T08:01:12Z</time>
      </trkpt>
      <trkpt lat="43.43872" lon="1.0696">
        <ele>321.8</ele>
        <time>2024-08-01T08:01:13Z</time>
      </trkpt>
      <trkpt lat="43.43872" lon="1.0697">
        <ele>321.6</ele>
        <time>2024-08-01T08:01:14Z</time>
      </trkpt>
      <trkpt lat="43.43872" lon="1.0698">
        <ele>321.6</ele>
        <time>2024-08-01T08:01:15Z</time>
      </trkpt>
      <trkpt lat="43.43872" lon="1.0699">
        <ele>321.2</ele>
        <time>2024-08-01T08:01:16Z</time>
      </trkpt>
      <trkpt lat="43.43872" lon="1.07">
        <ele>321.2</ele>
        <time>2024-08-01T08:01:17Z</time>
      </trkpt>
      <trkpt lat="43.43873" lon="1.07009">
        <ele>321</ele>
        <time>2024-08-01T08:01:18Z</time>
      </trkpt>
      <trkpt lat="43.43873" lon="1.07018">
        <ele>320.8</ele>
        <time>2024-08-01T08:01:19Z</time>
      </trkpt>
      <trkpt lat="43.43873" lon="1.07027">
        <ele>320.8</ele>
        <time>2024-08-01T08:01:20Z</time>
      </trkpt>
      <trkpt lat="43.43873" lon="1.07036">
        <ele>320.6</ele>
        <time>2024-08-01T08:01:21Z</time>
      </trkpt>
      <trkpt lat="43.43873" lon="1.07045">
        <ele>320.8</ele>
        <time>2024-08-01T08:01:22Z</time>
      </trkpt>
      <trkpt lat="43.43874" lon="1.07054">
        <ele>320.8</ele>
        <time>2024-08-01T08:01:23Z</time>
      </trkpt>
      <trkpt lat="43.43874" lon="1.07063">
        <ele>320.8</ele>
        <time>2024-08-01T08:01:24Z</time>
      </trkpt>
      <trkpt lat="43.43874" lon="1.07072">
        <ele>320.8</ele>
        <time>2024-08-01T08:01:25Z</time>
      </trkpt>
      <trkpt lat="43.43875" lon="1.0708">
        <ele>320.8</ele>
        <time>2024-08-01T08:01:26Z</time>
      </trkpt>
      <trkpt lat="43.43875" lon="1.07089">
        <ele>320.8</ele>
        <time>2024-08-01T08:01:27Z</time>
      </trkpt>
      <trkpt lat="43.43875" lon="1.07098">
        <ele>320.8</ele>
        <time>2024-08-01T08:01:28Z</time>
      </trkpt>
      <trkpt lat="43.43875" lon="1.07107">
        <ele>320.8</ele>
        <time>2024-08-01T08:01:29Z</time>
      </trkpt>
      <trkpt lat="43.43876" lon="1.07116">
        <ele>321</ele>
        <time>2024-08-01T08:01:30Z</time>
      </trkpt>
      <trkpt lat="43.43876" lon="1.07125">
        <ele>321.2</ele>
        <time>2024-08-01T08:01:31Z</time>
      </trkpt>
      <trkpt lat="43.43876" lon="1.07134">
        <ele>321.4</ele>
        <time>2024-08-01T08:01:32Z</time>
      </trkpt>
      <trkpt lat="43.43876" lon="1.07144">
        <ele>321.4</ele>
        <time>2024-08-01T08:01:33Z</time>
      </trkpt>
      <trkpt lat="43.43876" lon="1.07153">
        <ele>321.6</ele>
        <time>2024-08-01T08:01:34Z</time>
      </trkpt>
      <trkpt lat="43.43875" lon="1.07163">
        <ele>321.6</ele>
        <time>2024-08-01T08:01:35Z</time>
      </trkpt>
      <trkpt lat="43.43875" lon="1.07172">
        <ele>321.6</ele>
        <time>2024-08-01T08:01:36Z</time>
      </trkpt>
      <trkpt lat="43.43874" lon="1.07182">
        <ele>321.6</ele>
        <time>2024-08-01T08:01:37Z</time>
      </trkpt>
      <trkpt lat="43.43873" lon="1.07191">
        <ele>321.8</ele>
        <time>2024-08-01T08:01:38Z</time>
      </trkpt>
      <trkpt lat="43.43871" lon="1.072">
        <ele>321.8</ele>
        <time>2024-08-01T08:01:39Z</time>
      </trkpt>
      <trkpt lat="43.4387" lon="1.0721">
        <ele>321.8</ele>
        <time>2024-08-01T08:01:40Z</time>
      </trkpt>
      <trkpt lat="43.43868" lon="1.07219">
        <ele>321.8</ele>
        <time>2024-08-01T08:01:41Z</time>
      </trkpt>
      <trkpt lat="43.43867" lon="1.07229">
        <ele>322</ele>
        <time>2024-08-01T08:01:42Z</time>
      </trkpt>
      <trkpt lat="43.43865" lon="1.07238">
        <ele>322</ele>
        <time>2024-08-01T08:01:43Z</time>
      </trkpt>
      <trkpt lat="43.43863" lon="1.07248">
        <ele>322</ele>
        <time>2024-08-01T08:01:44Z</time>
      </trkpt>
      <trkpt lat="43.43861" lon="1.07257">
        <ele>322</ele>
        <time>2024-08-01T08:01:45Z</time>
      </trkpt>
      <trkpt lat="43.43859" lon="1.07266">
        <ele>322</ele>
        <time>2024-08-01T08:01:46Z</time>
      </trkpt>
      <trkpt lat="43.43857" lon="1.07275">
        <ele>322</ele>
        <time>2024-08-01T08:01:47Z</time>
      </trkpt>
      <trkpt lat="43.43856" lon="1.07285">
        <ele>322</ele>
        <time>2024-08-01T08:01:48Z</time>
      </trkpt>
      <trkpt lat="43.43854" lon="1.07294">
        <ele>322</ele>
        <time>2024-08-01T08:01:49Z</time>
      </trkpt>
      <trkpt lat="43.43852" lon="1.07303">
        <ele>322</ele>
        <time>2024-08-01T08:01:50Z</time>
      </trkpt>
      <trkpt lat="43.4385" lon="1.07312">
        <ele>322</ele>
        <time>2024-08-01T08:01:51Z</time>
      </trkpt>
      <trkpt lat="43.43849" lon="1.07321">
        <ele>322.2</ele>
        <time>2024-08-01T08:01:52Z</time>
      </trkpt>
      <trkpt lat="43.43847" lon="1.0733">
        <ele>322.2</ele>
        <time>2024-08-01T08:01:53Z</time>
      </trkpt>
      <trkpt lat="43.43845" lon="1.07339">
        <ele>322.4</ele>
        <time>2024-08-01T08:01:54Z</time>
      </trkpt>
      <trkpt lat="43.43843" lon="1.07348">
        <ele>322.4</ele>
        <time>2024-08-01T08:01:55Z</time>
      </trkpt>
      <trkpt lat="43.43842" lon="1.07357">
        <ele>322.4</ele>
        <time>2024-08-01T08:01:56Z</time>
      </trkpt>
      <trkpt lat="43.4384" lon="1.07366">
        <ele>322.4</ele>
        <time>2024-08-01T08:01:57Z</time>
      </trkpt>
      <trkpt lat="43.43838" lon="1.07375">
        <ele>322.4</ele>
        <time>2024-08-01T08:01:58Z</time>
      </trkpt>
      <trkpt lat="43.43836" lon="1.07385">
        <ele>322.4</ele>
        <time>2024-08-01T08:01:59Z</time>
      </trkpt>
      <trkpt lat="43.43834" lon="1.07394">
        <ele>322.6</ele>
        <time>2024-08-01T08:02:00Z</time>
      </trkpt>
      <trkpt lat="43.43832" lon="1.07403">
        <ele>322.6</ele>
        <time>2024-08-01T08:02:01Z</time>
      </trkpt>
      <trkpt lat="43.4383" lon="1.07412">
        <ele>322.8</ele>
        <time>2024-08-01T08:02:02Z</time>
      </trkpt>
      <trkpt lat="43.43828" lon="1.07421">
        <ele>322.8</ele>
        <time>2024-08-01T08:02:03Z</time>
      </trkpt>
      <trkpt lat="43.43827" lon="1.0743">
        <ele>322.8</ele>
        <time>2024-08-01T08:02:04Z</time>
      </trkpt>
      <trkpt lat="43.43825" lon="1.07439">
        <ele>322.8</ele>
        <time>2024-08-01T08:02:05Z</time>
      </trkpt>
      <trkpt lat="43.43823" lon="1.07448">
        <ele>323</ele>
        <time>2024-08-01T08:02:06Z</time>
      </trkpt>
      <trkpt lat="43.43821" lon="1.07457">
        <ele>323</ele>
        <time>2024-08-01T08:02:07Z</time>
      </trkpt>
      <trkpt lat="43.43819" lon="1.07466">
        <ele>323</ele>
        <time>2024-08-01T08:02:08Z</time>
      </trkpt>
      <trkpt lat="43.43818" lon="1.07475">
        <ele>323</ele>
        <time>2024-08-01T08:02:09Z</time>
      </trkpt>
      <trkpt lat="43.43816" lon="1.07484">
        <ele>323</ele>
        <time>2024-08-01T08:02:10Z</time>
      </trkpt>
      <trkpt lat="43.43814" lon="1.07494">
        <ele>323</ele>
        <time>2024-08-01T08:02:11Z</time>
      </trkpt>
      <trkpt lat="43.43812" lon="1.07503">
        <ele>322.8</ele>
        <time>2024-08-01T08:02:12Z</time>
      </trkpt>
      <trkpt lat="43.43811" lon="1.07512">
        <ele>323</ele>
        <time>2024-08-01T08:02:13Z</time>
      </trkpt>
      <trkpt lat="43.43809" lon="1.07521">
        <ele>323.2</ele>
        <time>2024-08-01T08:02:14Z</time>
      </trkpt>
      <trkpt lat="43.43807" lon="1.07531">
        <ele>323.2</ele>
        <time>2024-08-01T08:02:15Z</time>
      </trkpt>
      <trkpt lat="43.43805" lon="1.0754">
        <ele>323</ele>
        <time>2024-08-01T08:02:16Z</time>
      </trkpt>
      <trkpt lat="43.43803" lon="1.07549">
        <ele>323</ele>
        <time>2024-08-01T08:02:17Z</time>
      </trkpt>
      <trkpt lat="43.43801" lon="1.07558">
        <ele>323</ele>
        <time>2024-08-01T08:02:18Z</time>
      </trkpt>
      <trkpt lat="43.43798" lon="1.07568">
        <ele>323</ele>
        <time>2024-08-01T08:02:19Z</time>
      </trkpt>
      <trkpt lat="43.43796" lon="1.07577">
        <ele>323</ele>
        <time>2024-08-01T08:02:20Z</time>
      </trkpt>
      <trkpt lat="43.43792" lon="1.07586">
        <ele>323</ele>
        <time>2024-08-01T08:02:21Z</time>
      </trkpt>
      <trkpt lat="43.43789" lon="1.07595">
        <ele>322.8</ele>
        <time>2024-08-01T08:02:22Z</time>
      </trkpt>
      <trkpt lat="43.43785" lon="1.07604">
        <ele>322.8</ele>
        <time>2024-08-01T08:02:23Z</time>
      </trkpt>
      <trkpt lat="43.43781" lon="1.07613">
        <ele>322.6</ele>
        <time>2024-08-01T08:02:24Z</time>
      </trkpt>
      <trkpt lat="43.43777" lon="1.07622">
        <ele>322.6</ele>
        <time>2024-08-01T08:02:25Z</time>
      </trkpt>
      <trkpt lat="43.43773" lon="1.07632">
        <ele>322.4</ele>
        <time>2024-08-01T08:02:26Z</time>
      </trkpt>
      <trkpt lat="43.43769" lon="1.07641">
        <ele>322.2</ele>
        <time>2024-08-01T08:02:27Z</time>
      </trkpt>
      <trkpt lat="43.43765" lon="1.07649">
        <ele>322</ele>
        <time>2024-08-01T08:02:28Z</time>
      </trkpt>
      <trkpt lat="43.43761" lon="1.07658">
        <ele>322</ele>
        <time>2024-08-01T08:02:29Z</time>
      </trkpt>
      <trkpt lat="43.43757" lon="1.07667">
        <ele>321.8</ele>
        <time>2024-08-01T08:02:30Z</time>
      </trkpt>
      <trkpt lat="43.43753" lon="1.07677">
        <ele>321.8</ele>
        <time>2024-08-01T08:02:31Z</time>
      </trkpt>
      <trkpt lat="43.43748" lon="1.07686">
        <ele>321.8</ele>
        <time>2024-08-01T08:02:32Z</time>
      </trkpt>
      <trkpt lat="43.43744" lon="1.07695">
        <ele>321.8</ele>
        <time>2024-08-01T08:02:33Z</time>
      </trkpt>
      <trkpt lat="43.4374" lon="1.07704">
        <ele>321.6</ele>
        <time>2024-08-01T08:02:34Z</time>
      </trkpt>
      <trkpt lat="43.43736" lon="1.07713">
        <ele>321.6</ele>
        <time>2024-08-01T08:02:35Z</time>
      </trkpt>
      <trkpt lat="43.43732" lon="1.07722">
        <ele>321.6</ele>
        <time>2024-08-01T08:02:36Z</time>
      </trkpt>
      <trkpt lat="43.43728" lon="1.07732">
        <ele>321.4</ele>
        <time>2024-08-01T08:02:37Z</time>
      </trkpt>
      <trkpt lat="43.43724" lon="1.07741">
        <ele>321.4</ele>
        <time>2024-08-01T08:02:38Z</time>
      </trkpt>
      <trkpt lat="43.43721" lon="1.07751">
        <ele>321.2</ele>
        <time>2024-08-01T08:02:39Z</time>
      </trkpt>
      <trkpt lat="43.43717" lon="1.07761">
        <ele>321.2</ele>
        <time>2024-08-01T08:02:40Z</time>
      </trkpt>
      <trkpt lat="43.43714" lon="1.07771">
        <ele>321</ele>
        <time>2024-08-01T08:02:41Z</time>
      </trkpt>
      <trkpt lat="43.43712" lon="1.07782">
        <ele>321</ele>
        <time>2024-08-01T08:02:42Z</time>
      </trkpt>
      <trkpt lat="43.4371" lon="1.07792">
        <ele>320.8</ele>
        <time>2024-08-01T08:02:43Z</time>
      </trkpt>
      <trkpt lat="43.43707" lon="1.07803">
        <ele>320.8</ele>
        <time>2024-08-01T08:02:44Z</time>
      </trkpt>
      <trkpt lat="43.43705" lon="1.07813">
        <ele>320.6</ele>
        <time>2024-08-01T08:02:45Z</time>
      </trkpt>
      <trkpt lat="43.43703" lon="1.07824">
        <ele>320.4</ele>
        <time>2024-08-01T08:02:46Z</time>
      </trkpt>
      <trkpt lat="43.43702" lon="1.07834">
        <ele>320.4</ele>
        <time>2024-08-01T08:02:47Z</time>
      </trkpt>
      <trkpt lat="43.437" lon="1.07845">
        <ele>320.2</ele>
        <time>2024-08-01T08:02:48Z</time>
      </trkpt>
      <trkpt lat="43.43699" lon="1.07855">
        <ele>320.2</ele>
        <time>2024-08-01T08:02:49Z</time>
      </trkpt>
      <trkpt lat="43.43698" lon="1.07866">
        <ele>320.2</ele>
        <time>2024-08-01T08:02:50Z</time>
      </trkpt>
      <trkpt lat="43.43697" lon="1.07877">
        <ele>320</ele>
        <time>2024-08-01T08:02:51Z</time>
      </trkpt>
      <trkpt lat="43.43697" lon="1.07888">
        <ele>320</ele>
        <time>2024-08-01T08:02:52Z</time>
      </trkpt>
      <trkpt lat="43.43697" lon="1.07899">
        <ele>319.8</ele>
        <time>2024-08-01T08:02:53Z</time>
      </trkpt>
      <trkpt lat="43.43697" lon="1.0791">
        <ele>319.8</ele>
        <time>2024-08-01T08:02:54Z</time>
      </trkpt>
      <trkpt lat="43.43697" lon="1.07921">
        <ele>319.8</ele>
        <time>2024-08-01T08:02:55Z</time>
      </trkpt>
      <trkpt lat="43.43697" lon="1.07933">
        <ele>319.6</ele>
        <time>2024-08-01T08:02:56Z</time>
      </trkpt>
      <trkpt lat="43.43698" lon="1.07944">
        <ele>319.6</ele>
        <time>2024-08-01T08:02:57Z</time>
      </trkpt>
      <trkpt lat="43.43698" lon="1.07955">
        <ele>319.6</ele>
        <time>2024-08-01T08:02:58Z</time>
      </trkpt>
      <trkpt lat="43.43698" lon="1.07966">
        <ele>319.4</ele>
        <time>2024-08-01T08:02:59Z</time>
      </trkpt>
      <trkpt lat="43.43698" lon="1.07978">
        <ele>319.2</ele>
        <time>2024-08-01T08:03:00Z</time>
      </trkpt>
      <trkpt lat="43.43699" lon="1.07989">
        <ele>319</ele>
        <time>2024-08-01T08:03:01Z</time>
      </trkpt>
      <trkpt lat="43.43699" lon="1.08001">
        <ele>318.6</ele>
        <time>2024-08-01T08:03:02Z</time>
      </trkpt>
      <trkpt lat="43.43699" lon="1.08013">
        <ele>318.2</ele>
        <time>2024-08-01T08:03:03Z</time>
      </trkpt>
      <trkpt lat="43.437" lon="1.08025">
        <ele>318</ele>
        <time>2024-08-01T08:03:04Z</time>
      </trkpt>
      <trkpt lat="43.437" lon="1.08037">
        <ele>317.8</ele>
        <time>2024-08-01T08:03:05Z</time>
      </trkpt>
      <trkpt lat="43.43701" lon="1.08049">
        <ele>317.8</ele>
        <time>2024-08-01T08:03:06Z</time>
      </trkpt>
      <trkpt lat="43.43701" lon="1.08061">
        <ele>317.6</ele>
        <time>2024-08-01T08:03:07Z</time>
      </trkpt>
      <trkpt lat="43.43702" lon="1.08073">
        <ele>317.4</ele>
        <time>2024-08-01T08:03:08Z</time>
      </trkpt>
      <trkpt lat="43.43702" lon="1.08085">
        <ele>317.4</ele>
        <time>2024-08-01T08:03:09Z</time>
      </trkpt>
      <trkpt lat="43.43703" lon="1.08097">
        <ele>317</ele>
        <time>2024-08-01T08:03:10Z</time>
      </trkpt>
      <trkpt lat="43.43703" lon="1.08109">
        <ele>317</ele>
        <time>2024-08-01T08:03:11Z</time>
      </trkpt>
      <trkpt lat="43.43704" lon="1.08122">
        <ele>316.4</ele>
        <time>2024-08-01T08:03:12Z</time>
      </trkpt>
      <trkpt lat="43.43704" lon="1.08135">
        <ele>316.2</ele>
        <time>2024-08-01T08:03:13Z</time>
      </trkpt>
      <trkpt lat="43.43705" lon="1.08148">
        <ele>315.6</ele>
        <time>2024-08-01T08:03:14Z</time>
      </trkpt>
      <trkpt lat="43.43706" lon="1.08161">
        <ele>315.2</ele>
        <time>2024-08-01T08:03:15Z</time>
      </trkpt>
      <trkpt lat="43.43707" lon="1.08175">
        <ele>315</ele>
        <time>2024-08-01T08:03:16Z</time>
      </trkpt>
      <trkpt lat="43.43708" lon="1.08189">
        <ele>314.8</ele>
        <time>2024-08-01T08:03:17Z</time>
      </trkpt>
      <trkpt lat="43.43709" lon="1.08203">
        <ele>314.8</ele>
        <time>2024-08-01T08:03:18Z</time>
      </trkpt>
      <trkpt lat="43.4371" lon="1.08217">
        <ele>314.4</ele>
        <time>2024-08-01T08:03:19Z</time>
      </trkpt>
      <trkpt lat="43.43711" lon="1.08231">
        <ele>314.2</ele>
        <time>2024-08-01T08:03:20Z</time>
      </trkpt>
      <trkpt lat="43.43713" lon="1.08245">
        <ele>313.8</ele>
        <time>2024-08-01T08:03:21Z</time>
      </trkpt>
      <trkpt lat="43.43714" lon="1.08259">
        <ele>313.6</ele>
        <time>2024-08-01T08:03:22Z</time>
      </trkpt>
      <trkpt lat="43.43715" lon="1.08273">
        <ele>313.4</ele>
        <time>2024-08-01T08:03:23Z</time>
      </trkpt>
      <trkpt lat="43.43716" lon="1.08287">
        <ele>313.2</ele>
        <time>2024-08-01T08:03:24Z</time>
      </trkpt>
      <trkpt lat="43.43718" lon="1.08301">
        <ele>313.2</ele>
        <time>2024-08-01T08:03:25Z</time>
      </trkpt>
      <trkpt lat="43.43719" lon="1.08315">
        <ele>313</ele>
        <time>2024-08-01T08:03:26Z</time>
      </trkpt>
      <trkpt lat="43.4372" lon="1.0833">
        <ele>312.8</ele>
        <time>2024-08-01T08:03:27Z</time>
      </trkpt>
      <trkpt lat="43.43722" lon="1.08344">
        <ele>312.6</ele>
        <time>2024-08-01T08:03:28Z</time>
      </trkpt>
      <trkpt lat="43.43723" lon="1.08358">
        <ele>312.4</ele>
        <time>2024-08-01T08:03:29Z</time>
      </trkpt>
      <trkpt lat="43.43725" lon="1.08371">
        <ele>312.4</ele>
        <time>2024-08-01T08:03:30Z</time>
      </trkpt>
      <trkpt lat="43.43727" lon="1.08385">
        <ele>312.2</ele>
        <time>2024-08-01T08:03:31Z</time>
      </trkpt>
      <trkpt lat="43.43729" lon="1.08399">
        <ele>312.2</ele>
        <time>2024-08-01T08:03:32Z</time>
      </trkpt>
      <trkpt lat="43.43731" lon="1.08413">
        <ele>312</ele>
        <time>2024-08-01T08:03:33Z</time>
      </trkpt>
      <trkpt lat="43.43733" lon="1.08427">
        <ele>312</ele>
        <time>2024-08-01T08:03:34Z</time>
      </trkpt>
      <trkpt lat="43.43735" lon="1.0844">
        <ele>311.8</ele>
        <time>2024-08-01T08:03:35Z</time>
      </trkpt>
      <trkpt lat="43.43738" lon="1.08454">
        <ele>311.8</ele>
        <time>2024-08-01T08:03:36Z</time>
      </trkpt>
      <trkpt lat="43.4374" lon="1.08467">
        <ele>311.8</ele>
        <time>2024-08-01T08:03:37Z</time>
      </trkpt>
      <trkpt lat="43.43742" lon="1.0848">
        <ele>311.8</ele>
        <time>2024-08-01T08:03:38Z</time>
      </trkpt>
      <trkpt lat="43.43745" lon="1.08493">
        <ele>311.8</ele>
        <time>2024-08-01T08:03:39Z</time>
      </trkpt>
      <trkpt lat="43.43748" lon="1.08506">
        <ele>311.8</ele>
        <time>2024-08-01T08:03:40Z</time>
      </trkpt>
      <trkpt lat="43.4375" lon="1.08519">
        <ele>311.8</ele>
        <time>2024-08-01T08:03:41Z</time>
      </trkpt>
      <trkpt lat="43.43753" lon="1.08531">
        <ele>311.8</ele>
        <time>2024-08-01T08:03:42Z</time>
      </trkpt>
      <trkpt lat="43.43756" lon="1.08543">
        <ele>311.8</ele>
        <time>2024-08-01T08:03:43Z</time>
      </trkpt>
      <trkpt lat="43.43759" lon="1.08555">
        <ele>311.8</ele>
        <time>2024-08-01T08:03:44Z</time>
      </trkpt>
      <trkpt lat="43.43761" lon="1.08566">
        <ele>311.8</ele>
        <time>2024-08-01T08:03:45Z</time>
      </trkpt>
      <trkpt lat="43.43763" lon="1.08578">
        <ele>311.8</ele>
        <time>2024-08-01T08:03:46Z</time>
      </trkpt>
      <trkpt lat="43.43765" lon="1.08589">
        <ele>311.8</ele>
        <time>2024-08-01T08:03:47Z</time>
      </trkpt>
      <trkpt lat="43.43767" lon="1.086">
        <ele>311.8</ele>
        <time>2024-08-01T08:03:48Z</time>
      </trkpt>
      <trkpt lat="43.43769" lon="1.0861">
        <ele>311.8</ele>
        <time>2024-08-01T08:03:49Z</time>
      </trkpt>
      <trkpt lat="43.43771" lon="1.08621">
        <ele>311.8</ele>
        <time>2024-08-01T08:03:50Z</time>
      </trkpt>
      <trkpt lat="43.43773" lon="1.08631">
        <ele>311.8</ele>
        <time>2024-08-01T08:03:51Z</time>
      </trkpt>
      <trkpt lat="43.43775" lon="1.08641">
        <ele>311.8</ele>
        <time>2024-08-01T08:03:52Z</time>
      </trkpt>
      <trkpt lat="43.43777" lon="1.08651">
        <ele>311.8</ele>
        <time>2024-08-01T08:03:53Z</time>
      </trkpt>
      <trkpt lat="43.43778" lon="1.08661">
        <ele>311.8</ele>
        <time>2024-08-01T08:03:54Z</time>
      </trkpt>
      <trkpt lat="43.4378" lon="1.08672">
        <ele>311.8</ele>
        <time>2024-08-01T08:03:55Z</time>
      </trkpt>
      <trkpt lat="43.43782" lon="1.08683">
        <ele>311.8</ele>
        <time>2024-08-01T08:03:56Z</time>
      </trkpt>
      <trkpt lat="43.43784" lon="1.08694">
        <ele>311.6</ele>
        <time>2024-08-01T08:03:57Z</time>
      </trkpt>
      <trkpt lat="43.43786" lon="1.08705">
        <ele>311.6</ele>
        <time>2024-08-01T08:03:58Z</time>
      </trkpt>
      <trkpt lat="43.43788" lon="1.08715">
        <ele>311.6</ele>
        <time>2024-08-01T08:03:59Z</time>
      </trkpt>
      <trkpt lat="43.43789" lon="1.08726">
        <ele>311.6</ele>
        <time>2024-08-01T08:04:00Z</time>
      </trkpt>
      <trkpt lat="43.43791" lon="1.08737">
        <ele>311.4</ele>
        <time>2024-08-01T08:04:01Z</time>
      </trkpt>
      <trkpt lat="43.43793" lon="1.08747">
        <ele>311.4</ele>
        <time>2024-08-01T08:04:02Z</time>
      </trkpt>
      <trkpt lat="43.43794" lon="1.08758">
        <ele>311</ele>
        <time>2024-08-01T08:04:03Z</time>
      </trkpt>
      <trkpt lat="43.43796" lon="1.08769">
        <ele>310.8</ele>
        <time>2024-08-01T08:04:04Z</time>
      </trkpt>
      <trkpt lat="43.43797" lon="1.0878">
        <ele>310.8</ele>
        <time>2024-08-01T08:04:05Z</time>
      </trkpt>
      <trkpt lat="43.43799" lon="1.08792">
        <ele>310.4</ele>
        <time>2024-08-01T08:04:06Z</time>
      </trkpt>
      <trkpt lat="43.43801" lon="1.08803">
        <ele>310.2</ele>
        <time>2024-08-01T08:04:07Z</time>
      </trkpt>
      <trkpt lat="43.43803" lon="1.08815">
        <ele>309.8</ele>
        <time>2024-08-01T08:04:08Z</time>
      </trkpt>
      <trkpt lat="43.43805" lon="1.08827">
        <ele>309.6</ele>
        <time>2024-08-01T08:04:09Z</time>
      </trkpt>
      <trkpt lat="43.43806" lon="1.08839">
        <ele>309.4</ele>
        <time>2024-08-01T08:04:10Z</time>
      </trkpt>
      <trkpt lat="43.43808" lon="1.08851">
        <ele>309.2</ele>
        <time>2024-08-01T08:04:11Z</time>
      </trkpt>
      <trkpt lat="43.4381" lon="1.08863">
        <ele>309.2</ele>
        <time>2024-08-01T08:04:12Z</time>
      </trkpt>
      <trkpt lat="43.43811" lon="1.08874">
        <ele>308.8</ele>
        <time>2024-08-01T08:04:13Z</time>
      </trkpt>
      <trkpt lat="43.43812" lon="1.08886">
        <ele>308.4</ele>
        <time>2024-08-01T08:04:14Z</time>
      </trkpt>
      <trkpt lat="43.43814" lon="1.08897">
        <ele>307.8</ele>
        <time>2024-08-01T08:04:15Z</time>
      </trkpt>
      <trkpt lat="43.43815" lon="1.08909">
        <ele>307.6</ele>
        <time>2024-08-01T08:04:16Z</time>
      </trkpt>
      <trkpt lat="43.43817" lon="1.08921">
        <ele>307.2</ele>
        <time>2024-08-01T08:04:17Z</time>
      </trkpt>
      <trkpt lat="43.43818" lon="1.08933">
        <ele>306.8</ele>
        <time>2024-08-01T08:04:18Z</time>
      </trkpt>
      <trkpt lat="43.4382" lon="1.08945">
        <ele>306.8</ele>
        <time>2024-08-01T08:04:19Z</time>
      </trkpt>
      <trkpt lat="43.43821" lon="1.08958">
        <ele>306.6</ele>
        <time>2024-08-01T08:04:20Z</time>
      </trkpt>
      <trkpt lat="43.43822" lon="1.0897">
        <ele>306.6</ele>
        <time>2024-08-01T08:04:21Z</time>
      </trkpt>
      <trkpt lat="43.43823" lon="1.08983">
        <ele>306.4</ele>
        <time>2024-08-01T08:04:22Z</time>
      </trkpt>
      <trkpt lat="43.43825" lon="1.08996">
        <ele>306.2</ele>
        <time>2024-08-01T08:04:23Z</time>
      </trkpt>
      <trkpt lat="43.43826" lon="1.09008">
        <ele>306.2</ele>
        <time>2024-08-01T08:04:24Z</time>
      </trkpt>
      <trkpt lat="43.43827" lon="1.09021">
        <ele>305.8</ele>
        <time>2024-08-01T08:04:25Z</time>
      </trkpt>
      <trkpt lat="43.43827" lon="1.09034">
        <ele>305.4</ele>
        <time>2024-08-01T08:04:26Z</time>
      </trkpt>
      <trkpt lat="43.43828" lon="1.09046">
        <ele>304.8</ele>
        <time>2024-08-01T08:04:27Z</time>
      </trkpt>
      <trkpt lat="43.43829" lon="1.09058">
        <ele>304.6</ele>
        <time>2024-08-01T08:04:28Z</time>
      </trkpt>
      <trkpt lat="43.4383" lon="1.09072">
        <ele>304.2</ele>
        <time>2024-08-01T08:04:29Z</time>
      </trkpt>
      <trkpt lat="43.4383" lon="1.09084">
        <ele>304.2</ele>
        <time>2024-08-01T08:04:30Z</time>
      </trkpt>
      <trkpt lat="43.43831" lon="1.09097">
        <ele>304</ele>
        <time>2024-08-01T08:04:31Z</time>
      </trkpt>
      <trkpt lat="43.43832" lon="1.09109">
        <ele>303.6</ele>
        <time>2024-08-01T08:04:32Z</time>
      </trkpt>
      <trkpt lat="43.43833" lon="1.09121">
        <ele>303.4</ele>
        <time>2024-08-01T08:04:33Z</time>
      </trkpt>
      <trkpt lat="43.43834" lon="1.09133">
        <ele>303</ele>
        <time>2024-08-01T08:04:34Z</time>
      </trkpt>
      <trkpt lat="43.43835" lon="1.09146">
        <ele>302.8</ele>
        <time>2024-08-01T08:04:35Z</time>
      </trkpt>
      <trkpt lat="43.43836" lon="1.09159">
        <ele>302.4</ele>
        <time>2024-08-01T08:04:36Z</time>
      </trkpt>
      <trkpt lat="43.43837" lon="1.09171">
        <ele>302.2</ele>
        <time>2024-08-01T08:04:37Z</time>
      </trkpt>
      <trkpt lat="43.43838" lon="1.09185">
        <ele>301.8</ele>
        <time>2024-08-01T08:04:38Z</time>
      </trkpt>
      <trkpt lat="43.43839" lon="1.09197">
        <ele>301.4</ele>
        <time>2024-08-01T08:04:39Z</time>
      </trkpt>
      <trkpt lat="43.43839" lon="1.09209">
        <ele>301.4</ele>
        <time>2024-08-01T08:04:40Z</time>
      </trkpt>
      <trkpt lat="43.4384" lon="1.09222">
        <ele>301.2</ele>
        <time>2024-08-01T08:04:41Z</time>
      </trkpt>
      <trkpt lat="43.43842" lon="1.09235">
        <ele>301</ele>
        <time>2024-08-01T08:04:42Z</time>
      </trkpt>
      <trkpt lat="43.43843" lon="1.09248">
        <ele>300.8</ele>
        <time>2024-08-01T08:04:43Z</time>
      </trkpt>
      <trkpt lat="43.43844" lon="1.09262">
        <ele>300.6</ele>
        <time>2024-08-01T08:04:44Z</time>
      </trkpt>
      <trkpt lat="43.43845" lon="1.09275">
        <ele>300.2</ele>
        <time>2024-08-01T08:04:45Z</time>
      </trkpt>
      <trkpt lat="43.43846" lon="1.09288">
        <ele>300</ele>
        <time>2024-08-01T08:04:46Z</time>
      </trkpt>
      <trkpt lat="43.43848" lon="1.093">
        <ele>299.8</ele>
        <time>2024-08-01T08:04:47Z</time>
      </trkpt>
      <trkpt lat="43.43849" lon="1.09313">
        <ele>299.2</ele>
        <time>2024-08-01T08:04:48Z</time>
      </trkpt>
      <trkpt lat="43.43851" lon="1.09325">
        <ele>299.2</ele>
        <time>2024-08-01T08:04:49Z</time>
      </trkpt>
      <trkpt lat="43.43853" lon="1.09338">
        <ele>299</ele>
        <time>2024-08-01T08:04:50Z</time>
      </trkpt>
      <trkpt lat="43.43854" lon="1.0935">
        <ele>298.8</ele>
        <time>2024-08-01T08:04:51Z</time>
      </trkpt>
      <trkpt lat="43.43855" lon="1.09362">
        <ele>298.4</ele>
        <time>2024-08-01T08:04:52Z</time>
      </trkpt>
      <trkpt lat="43.43857" lon="1.09375">
        <ele>298.2</ele>
        <time>2024-08-01T08:04:53Z</time>
      </trkpt>
      <trkpt lat="43.43858" lon="1.09388">
        <ele>298</ele>
        <time>2024-08-01T08:04:54Z</time>
      </trkpt>
      <trkpt lat="43.43859" lon="1.094">
        <ele>297.8</ele>
        <time>2024-08-01T08:04:55Z</time>
      </trkpt>
      <trkpt lat="43.4386" lon="1.09413">
        <ele>297.6</ele>
        <time>2024-08-01T08:04:56Z</time>
      </trkpt>
      <trkpt lat="43.43861" lon="1.09425">
        <ele>297.2</ele>
        <time>2024-08-01T08:04:57Z</time>
      </trkpt>
      <trkpt lat="43.43863" lon="1.09438">
        <ele>297.2</ele>
        <time>2024-08-01T08:04:58Z</time>
      </trkpt>
      <trkpt lat="43.43864" lon="1.09451">
        <ele>297</ele>
        <time>2024-08-01T08:04:59Z</time>
      </trkpt>
      <trkpt lat="43.43865" lon="1.09464">
        <ele>297</ele>
        <time>2024-08-01T08:05:00Z</time>
      </trkpt>
      <trkpt lat="43.43866" lon="1.09477">
        <ele>296.8</ele>
        <time>2024-08-01T08:05:01Z</time>
      </trkpt>
      <trkpt lat="43.43868" lon="1.09491">
        <ele>296.6</ele>
        <time>2024-08-01T08:05:02Z</time>
      </trkpt>
      <trkpt lat="43.43869" lon="1.09504">
        <ele>296.4</ele>
        <time>2024-08-01T08:05:03Z</time>
      </trkpt>
      <trkpt lat="43.4387" lon="1.09518">
        <ele>296.2</ele>
        <time>2024-08-01T08:05:04Z</time>
      </trkpt>
      <trkpt lat="43.4387" lon="1.09531">
        <ele>296</ele>
        <time>2024-08-01T08:05:05Z</time>
      </trkpt>
      <trkpt lat="43.43871" lon="1.09545">
        <ele>295.8</ele>
        <time>2024-08-01T08:05:06Z</time>
      </trkpt>
      <trkpt lat="43.4387" lon="1.09559">
        <ele>295.4</ele>
        <time>2024-08-01T08:05:07Z</time>
      </trkpt>
      <trkpt lat="43.4387" lon="1.09573">
        <ele>295.2</ele>
        <time>2024-08-01T08:05:08Z</time>
      </trkpt>
      <trkpt lat="43.43868" lon="1.09587">
        <ele>294.8</ele>
        <time>2024-08-01T08:05:09Z</time>
      </trkpt>
      <trkpt lat="43.43866" lon="1.096">
        <ele>294.6</ele>
        <time>2024-08-01T08:05:10Z</time>
      </trkpt>
      <trkpt lat="43.43863" lon="1.09615">
        <ele>294.4</ele>
        <time>2024-08-01T08:05:11Z</time>
      </trkpt>
      <trkpt lat="43.4386" lon="1.09629">
        <ele>293.8</ele>
        <time>2024-08-01T08:05:12Z</time>
      </trkpt>
      <trkpt lat="43.43856" lon="1.09643">
        <ele>293.6</ele>
        <time>2024-08-01T08:05:13Z</time>
      </trkpt>
      <trkpt lat="43.43852" lon="1.09658">
        <ele>292.8</ele>
        <time>2024-08-01T08:05:14Z</time>
      </trkpt>
      <trkpt lat="43.43848" lon="1.09673">
        <ele>292.2</ele>
        <time>2024-08-01T08:05:15Z</time>
      </trkpt>
      <trkpt lat="43.43843" lon="1.09689">
        <ele>291.4</ele>
        <time>2024-08-01T08:05:16Z</time>
      </trkpt>
      <trkpt lat="43.43839" lon="1.09704">
        <ele>291.2</ele>
        <time>2024-08-01T08:05:17Z</time>
      </trkpt>
      <trkpt lat="43.43834" lon="1.0972">
        <ele>290.4</ele>
        <time>2024-08-01T08:05:18Z</time>
      </trkpt>
      <trkpt lat="43.43829" lon="1.09736">
        <ele>289.2</ele>
        <time>2024-08-01T08:05:19Z</time>
      </trkpt>
      <trkpt lat="43.43825" lon="1.09752">
        <ele>288.8</ele>
        <time>2024-08-01T08:05:20Z</time>
      </trkpt>
      <trkpt lat="43.4382" lon="1.09768">
        <ele>287.8</ele>
        <time>2024-08-01T08:05:21Z</time>
      </trkpt>
      <trkpt lat="43.43815" lon="1.09783">
        <ele>287.6</ele>
        <time>2024-08-01T08:05:22Z</time>
      </trkpt>
      <trkpt lat="43.43811" lon="1.09799">
        <ele>286.2</ele>
        <time>2024-08-01T08:05:23Z</time>
      </trkpt>
      <trkpt lat="43.43807" lon="1.09814">
        <ele>285.8</ele>
        <time>2024-08-01T08:05:24Z</time>
      </trkpt>
      <trkpt lat="43.43802" lon="1.0983">
        <ele>284.8</ele>
        <time>2024-08-01T08:05:25Z</time>
      </trkpt>
      <trkpt lat="43.43798" lon="1.09845">
        <ele>284</ele>
        <time>2024-08-01T08:05:26Z</time>
      </trkpt>
      <trkpt lat="43.43793" lon="1.09859">
        <ele>283.8</ele>
        <time>2024-08-01T08:05:27Z</time>
      </trkpt>
      <trkpt lat="43.43789" lon="1.09874">
        <ele>283</ele>
        <time>2024-08-01T08:05:28Z</time>
      </trkpt>
      <trkpt lat="43.43785" lon="1.09888">
        <ele>282.8</ele>
        <time>2024-08-01T08:05:29Z</time>
      </trkpt>
      <trkpt lat="43.43781" lon="1.09903">
        <ele>282.6</ele>
        <time>2024-08-01T08:05:30Z</time>
      </trkpt>
      <trkpt lat="43.43776" lon="1.09917">
        <ele>282.6</ele>
        <time>2024-08-01T08:05:31Z</time>
      </trkpt>
      <trkpt lat="43.43772" lon="1.09931">
        <ele>282.2</ele>
        <time>2024-08-01T08:05:32Z</time>
      </trkpt>
      <trkpt lat="43.43768" lon="1.09945">
        <ele>282</ele>
        <time>2024-08-01T08:05:33Z</time>
      </trkpt>
      <trkpt lat="43.43764" lon="1.09959">
        <ele>282</ele>
        <time>2024-08-01T08:05:34Z</time>
      </trkpt>
      <trkpt lat="43.4376" lon="1.09973">
        <ele>282</ele>
        <time>2024-08-01T08:05:35Z</time>
      </trkpt>
      <trkpt lat="43.43756" lon="1.09987">
        <ele>281.8</ele>
        <time>2024-08-01T08:05:36Z</time>
      </trkpt>
      <trkpt lat="43.43752" lon="1.1">
        <ele>281.8</ele>
        <time>2024-08-01T08:05:37Z</time>
      </trkpt>
      <trkpt lat="43.43748" lon="1.10013">
        <ele>281.8</ele>
        <time>2024-08-01T08:05:38Z</time>
      </trkpt>
      <trkpt lat="43.43744" lon="1.10027">
        <ele>281.6</ele>
        <time>2024-08-01T08:05:39Z</time>
      </trkpt>
      <trkpt lat="43.4374" lon="1.1004">
        <ele>281.6</ele>
        <time>2024-08-01T08:05:40Z</time>
      </trkpt>
      <trkpt lat="43.43736" lon="1.10053">
        <ele>281.6</ele>
        <time>2024-08-01T08:05:41Z</time>
      </trkpt>
      <trkpt lat="43.43732" lon="1.10066">
        <ele>281.6</ele>
        <time>2024-08-01T08:05:42Z</time>
      </trkpt>
      <trkpt lat="43.43728" lon="1.1008">
        <ele>281.6</ele>
        <time>2024-08-01T08:05:43Z</time>
      </trkpt>
      <trkpt lat="43.43725" lon="1.10093">
        <ele>281.6</ele>
        <time>2024-08-01T08:05:44Z</time>
      </trkpt>
      <trkpt lat="43.43721" lon="1.10105">
        <ele>281.8</ele>
        <time>2024-08-01T08:05:45Z</time>
      </trkpt>
      <trkpt lat="43.43717" lon="1.10118">
        <ele>281.8</ele>
        <time>2024-08-01T08:05:46Z</time>
      </trkpt>
      <trkpt lat="43.43713" lon="1.1013">
        <ele>282</ele>
        <time>2024-08-01T08:05:47Z</time>
      </trkpt>
      <trkpt lat="43.4371" lon="1.10142">
        <ele>282.2</ele>
        <time>2024-08-01T08:05:48Z</time>
      </trkpt>
      <trkpt lat="43.43706" lon="1.10154">
        <ele>282.6</ele>
        <time>2024-08-01T08:05:49Z</time>
      </trkpt>
      <trkpt lat="43.43702" lon="1.10167">
        <ele>282.6</ele>
        <time>2024-08-01T08:05:50Z</time>
      </trkpt>
      <trkpt lat="43.43699" lon="1.10179">
        <ele>282.8</ele>
        <time>2024-08-01T08:05:51Z</time>
      </trkpt>
      <trkpt lat="43.43695" lon="1.10191">
        <ele>283</ele>
        <time>2024-08-01T08:05:52Z</time>
      </trkpt>
      <trkpt lat="43.43691" lon="1.10204">
        <ele>283.2</ele>
        <time>2024-08-01T08:05:53Z</time>
      </trkpt>
      <trkpt lat="43.43688" lon="1.10216">
        <ele>283.6</ele>
        <time>2024-08-01T08:05:54Z</time>
      </trkpt>
      <trkpt lat="43.43684" lon="1.10228">
        <ele>283.8</ele>
        <time>2024-08-01T08:05:55Z</time>
      </trkpt>
      <trkpt lat="43.43681" lon="1.1024">
        <ele>284.2</ele>
        <time>2024-08-01T08:05:56Z</time>
      </trkpt>
      <trkpt lat="43.43678" lon="1.10252">
        <ele>284.4</ele>
        <time>2024-08-01T08:05:57Z</time>
      </trkpt>
      <trkpt lat="43.43674" lon="1.10264">
        <ele>284.6</ele>
        <time>2024-08-01T08:05:58Z</time>
      </trkpt>
      <trkpt lat="43.43671" lon="1.10276">
        <ele>284.6</ele>
        <time>2024-08-01T08:05:59Z</time>
      </trkpt>
      <trkpt lat="43.43667" lon="1.10288">
        <ele>284.8</ele>
        <time>2024-08-01T08:06:00Z</time>
      </trkpt>
      <trkpt lat="43.43663" lon="1.103">
        <ele>285</ele>
        <time>2024-08-01T08:06:01Z</time>
      </trkpt>
      <trkpt lat="43.4366" lon="1.10312">
        <ele>285.2</ele>
        <time>2024-08-01T08:06:02Z</time>
      </trkpt>
      <trkpt lat="43.43656" lon="1.10324">
        <ele>285.4</ele>
        <time>2024-08-01T08:06:03Z</time>
      </trkpt>
      <trkpt lat="43.43653" lon="1.10337">
        <ele>285.4</ele>
        <time>2024-08-01T08:06:04Z</time>
      </trkpt>
      <trkpt lat="43.43649" lon="1.10349">
        <ele>285.4</ele>
        <time>2024-08-01T08:06:05Z</time>
      </trkpt>
      <trkpt lat="43.43645" lon="1.10362">
        <ele>285.4</ele>
        <time>2024-08-01T08:06:06Z</time>
      </trkpt>
      <trkpt lat="43.43641" lon="1.10374">
        <ele>285.4</ele>
        <time>2024-08-01T08:06:07Z</time>
      </trkpt>
      <trkpt lat="43.43637" lon="1.10387">
        <ele>285.2</ele>
        <time>2024-08-01T08:06:08Z</time>
      </trkpt>
      <trkpt lat="43.43634" lon="1.104">
        <ele>285.2</ele>
        <time>2024-08-01T08:06:09Z</time>
      </trkpt>
      <trkpt lat="43.4363" lon="1.10413">
        <ele>285.2</ele>
        <time>2024-08-01T08:06:10Z</time>
      </trkpt>
      <trkpt lat="43.43626" lon="1.10426">
        <ele>285.2</ele>
        <time>2024-08-01T08:06:11Z</time>
      </trkpt>
      <trkpt lat="43.43622" lon="1.1044">
        <ele>285</ele>
        <time>2024-08-01T08:06:12Z</time>
      </trkpt>
      <trkpt lat="43.43618" lon="1.10453">
        <ele>285</ele>
        <time>2024-08-01T08:06:13Z</time>
      </trkpt>
      <trkpt lat="43.43615" lon="1.10466">
        <ele>285</ele>
        <time>2024-08-01T08:06:14Z</time>
      </trkpt>
      <trkpt lat="43.43611" lon="1.10479">
        <ele>284.8</ele>
        <time>2024-08-01T08:06:15Z</time>
      </trkpt>
      <trkpt lat="43.43607" lon="1.10493">
        <ele>284.8</ele>
        <time>2024-08-01T08:06:16Z</time>
      </trkpt>
      <trkpt lat="43.43603" lon="1.10506">
        <ele>284.6</ele>
        <time>2024-08-01T08:06:17Z</time>
      </trkpt>
      <trkpt lat="43.43598" lon="1.1052">
        <ele>284.4</ele>
        <time>2024-08-01T08:06:18Z</time>
      </trkpt>
      <trkpt lat="43.43595" lon="1.10533">
        <ele>284.4</ele>
        <time>2024-08-01T08:06:19Z</time>
      </trkpt>
      <trkpt lat="43.43591" lon="1.10546">
        <ele>284.2</ele>
        <time>2024-08-01T08:06:20Z</time>
      </trkpt>
      <trkpt lat="43.43587" lon="1.1056">
        <ele>284.2</ele>
        <time>2024-08-01T08:06:21Z</time>
      </trkpt>
      <trkpt lat="43.43583" lon="1.10573">
        <ele>284.2</ele>
        <time>2024-08-01T08:06:22Z</time>
      </trkpt>
      <trkpt lat="43.43579" lon="1.10585">
        <ele>284</ele>
        <time>2024-08-01T08:06:23Z</time>
      </trkpt>
      <trkpt lat="43.43575" lon="1.10598">
        <ele>283.8</ele>
        <time>2024-08-01T08:06:24Z</time>
      </trkpt>
      <trkpt lat="43.43572" lon="1.10611">
        <ele>283.8</ele>
        <time>2024-08-01T08:06:25Z</time>
      </trkpt>
      <trkpt lat="43.43568" lon="1.10624">
        <ele>283.6</ele>
        <time>2024-08-01T08:06:26Z</time>
      </trkpt>
      <trkpt lat="43.43564" lon="1.10638">
        <ele>283.6</ele>
        <time>2024-08-01T08:06:27Z</time>
      </trkpt>
      <trkpt lat="43.4356" lon="1.10651">
        <ele>283.6</ele>
        <time>2024-08-01T08:06:28Z</time>
      </trkpt>
      <trkpt lat="43.43557" lon="1.10663">
        <ele>283.6</ele>
        <time>2024-08-01T08:06:29Z</time>
      </trkpt>
      <trkpt lat="43.43553" lon="1.10676">
        <ele>283.4</ele>
        <time>2024-08-01T08:06:30Z</time>
      </trkpt>
      <trkpt lat="43.43549" lon="1.10688">
        <ele>283.4</ele>
        <time>2024-08-01T08:06:31Z</time>
      </trkpt>
      <trkpt lat="43.43546" lon="1.107">
        <ele>283.4</ele>
        <time>2024-08-01T08:06:32Z</time>
      </trkpt>
      <trkpt lat="43.43542" lon="1.10712">
        <ele>283.2</ele>
        <time>2024-08-01T08:06:33Z</time>
      </trkpt>
      <trkpt lat="43.43538" lon="1.10724">
        <ele>283.2</ele>
        <time>2024-08-01T08:06:34Z</time>
      </trkpt>
      <trkpt lat="43.43535" lon="1.10736">
        <ele>283.2</ele>
        <time>2024-08-01T08:06:35Z</time>
      </trkpt>
      <trkpt lat="43.43532" lon="1.10748">
        <ele>283.2</ele>
        <time>2024-08-01T08:06:36Z</time>
      </trkpt>
      <trkpt lat="43.43528" lon="1.1076">
        <ele>283.2</ele>
        <time>2024-08-01T08:06:37Z</time>
      </trkpt>
      <trkpt lat="43.43524" lon="1.10773">
        <ele>283.2</ele>
        <time>2024-08-01T08:06:38Z</time>
      </trkpt>
      <trkpt lat="43.43521" lon="1.10784">
        <ele>283.2</ele>
        <time>2024-08-01T08:06:39Z</time>
      </trkpt>
      <trkpt lat="43.43517" lon="1.10796">
        <ele>283.4</ele>
        <time>2024-08-01T08:06:40Z</time>
      </trkpt>
      <trkpt lat="43.43514" lon="1.10807">
        <ele>283.4</ele>
        <time>2024-08-01T08:06:41Z</time>
      </trkpt>
      <trkpt lat="43.4351" lon="1.10819">
        <ele>283.4</ele>
        <time>2024-08-01T08:06:42Z</time>
      </trkpt>
      <trkpt lat="43.43507" lon="1.1083">
        <ele>283.4</ele>
        <time>2024-08-01T08:06:43Z</time>
      </trkpt>
      <trkpt lat="43.43503" lon="1.10842">
        <ele>283.6</ele>
        <time>2024-08-01T08:06:44Z</time>
      </trkpt>
      <trkpt lat="43.435" lon="1.10853">
        <ele>283.6</ele>
        <time>2024-08-01T08:06:45Z</time>
      </trkpt>
      <trkpt lat="43.43497" lon="1.10865">
        <ele>283.6</ele>
        <time>2024-08-01T08:06:46Z</time>
      </trkpt>
      <trkpt lat="43.43493" lon="1.10877">
        <ele>283.6</ele>
        <time>2024-08-01T08:06:47Z</time>
      </trkpt>
      <trkpt lat="43.4349" lon="1.10888">
        <ele>283.6</ele>
        <time>2024-08-01T08:06:48Z</time>
      </trkpt>
      <trkpt lat="43.43486" lon="1.109">
        <ele>283.6</ele>
        <time>2024-08-01T08:06:49Z</time>
      </trkpt>
      <trkpt lat="43.43483" lon="1.10912">
        <ele>283.6</ele>
        <time>2024-08-01T08:06:50Z</time>
      </trkpt>
      <trkpt lat="43.4348" lon="1.10924">
        <ele>283.6</ele>
        <time>2024-08-01T08:06:51Z</time>
      </trkpt>
      <trkpt lat="43.43476" lon="1.10935">
        <ele>283.6</ele>
        <time>2024-08-01T08:06:52Z</time>
      </trkpt>
      <trkpt lat="43.43473" lon="1.10947">
        <ele>283.6</ele>
        <time>2024-08-01T08:06:53Z</time>
      </trkpt>
      <trkpt lat="43.4347" lon="1.10959">
        <ele>283.8</ele>
        <time>2024-08-01T08:06:54Z</time>
      </trkpt>
      <trkpt lat="43.43466" lon="1.10971">
        <ele>283.8</ele>
        <time>2024-08-01T08:06:55Z</time>
      </trkpt>
      <trkpt lat="43.43463" lon="1.10983">
        <ele>283.8</ele>
        <time>2024-08-01T08:06:56Z</time>
      </trkpt>
      <trkpt lat="43.43459" lon="1.10995">
        <ele>283.8</ele>
        <time>2024-08-01T08:06:57Z</time>
      </trkpt>
      <trkpt lat="43.43455" lon="1.11007">
        <ele>283.8</ele>
        <time>2024-08-01T08:06:58Z</time>
      </trkpt>
      <trkpt lat="43.43452" lon="1.11019">
        <ele>283.8</ele>
        <time>2024-08-01T08:06:59Z</time>
      </trkpt>
      <trkpt lat="43.43448" lon="1.11031">
        <ele>283.6</ele>
        <time>2024-08-01T08:07:00Z</time>
      </trkpt>
      <trkpt lat="43.43445" lon="1.11044">
        <ele>283.6</ele>
        <time>2024-08-01T08:07:01Z</time>
      </trkpt>
      <trkpt lat="43.43441" lon="1.11056">
        <ele>283.4</ele>
        <time>2024-08-01T08:07:02Z</time>
      </trkpt>
      <trkpt lat="43.43437" lon="1.11068">
        <ele>283.4</ele>
        <time>2024-08-01T08:07:03Z</time>
      </trkpt>
      <trkpt lat="43.43434" lon="1.1108">
        <ele>283.4</ele>
        <time>2024-08-01T08:07:04Z</time>
      </trkpt>
      <trkpt lat="43.4343" lon="1.11092">
        <ele>283.4</ele>
        <time>2024-08-01T08:07:05Z</time>
      </trkpt>
      <trkpt lat="43.43427" lon="1.11105">
        <ele>283.2</ele>
        <time>2024-08-01T08:07:06Z</time>
      </trkpt>
      <trkpt lat="43.43423" lon="1.11118">
        <ele>283.2</ele>
        <time>2024-08-01T08:07:07Z</time>
      </trkpt>
      <trkpt lat="43.43419" lon="1.1113">
        <ele>283</ele>
        <time>2024-08-01T08:07:08Z</time>
      </trkpt>
      <trkpt lat="43.43415" lon="1.11143">
        <ele>283</ele>
        <time>2024-08-01T08:07:09Z</time>
      </trkpt>
      <trkpt lat="43.43412" lon="1.11155">
        <ele>282.8</ele>
        <time>2024-08-01T08:07:10Z</time>
      </trkpt>
      <trkpt lat="43.43408" lon="1.11168">
        <ele>282.8</ele>
        <time>2024-08-01T08:07:11Z</time>
      </trkpt>
      <trkpt lat="43.43404" lon="1.11181">
        <ele>282.8</ele>
        <time>2024-08-01T08:07:12Z</time>
      </trkpt>
      <trkpt lat="43.43401" lon="1.11194">
        <ele>282.6</ele>
        <time>2024-08-01T08:07:13Z</time>
      </trkpt>
      <trkpt lat="43.43397" lon="1.11206">
        <ele>282.6</ele>
        <time>2024-08-01T08:07:14Z</time>
      </trkpt>
      <trkpt lat="43.43393" lon="1.11219">
        <ele>282.6</ele>
        <time>2024-08-01T08:07:15Z</time>
      </trkpt>
      <trkpt lat="43.43389" lon="1.11232">
        <ele>282.4</ele>
        <time>2024-08-01T08:07:16Z</time>
      </trkpt>
      <trkpt lat="43.43386" lon="1.11245">
        <ele>282.2</ele>
        <time>2024-08-01T08:07:17Z</time>
      </trkpt>
      <trkpt lat="43.43382" lon="1.11258">
        <ele>282.2</ele>
        <time>2024-08-01T08:07:18Z</time>
      </trkpt>
      <trkpt lat="43.43378" lon="1.11271">
        <ele>282.2</ele>
        <time>2024-08-01T08:07:19Z</time>
      </trkpt>
      <trkpt lat="43.43375" lon="1.11284">
        <ele>282.2</ele>
        <time>2024-08-01T08:07:20Z</time>
      </trkpt>
      <trkpt lat="43.43371" lon="1.11297">
        <ele>282</ele>
        <time>2024-08-01T08:07:21Z</time>
      </trkpt>
      <trkpt lat="43.43367" lon="1.1131">
        <ele>282</ele>
        <time>2024-08-01T08:07:22Z</time>
      </trkpt>
      <trkpt lat="43.43363" lon="1.11324">
        <ele>282</ele>
        <time>2024-08-01T08:07:23Z</time>
      </trkpt>
      <trkpt lat="43.43359" lon="1.11337">
        <ele>281.8</ele>
        <time>2024-08-01T08:07:24Z</time>
      </trkpt>
      <trkpt lat="43.43355" lon="1.1135">
        <ele>281.6</ele>
        <time>2024-08-01T08:07:25Z</time>
      </trkpt>
      <trkpt lat="43.43352" lon="1.11363">
        <ele>281.6</ele>
        <time>2024-08-01T08:07:26Z</time>
      </trkpt>
      <trkpt lat="43.43348" lon="1.11376">
        <ele>281.2</ele>
        <time>2024-08-01T08:07:27Z</time>
      </trkpt>
      <trkpt lat="43.43344" lon="1.11389">
        <ele>281</ele>
        <time>2024-08-01T08:07:28Z</time>
      </trkpt>
      <trkpt lat="43.4334" lon="1.11403">
        <ele>280.8</ele>
        <time>2024-08-01T08:07:29Z</time>
      </trkpt>
      <trkpt lat="43.43336" lon="1.11416">
        <ele>280.8</ele>
        <time>2024-08-01T08:07:30Z</time>
      </trkpt>
      <trkpt lat="43.43332" lon="1.11429">
        <ele>280.4</ele>
        <time>2024-08-01T08:07:31Z</time>
      </trkpt>
      <trkpt lat="43.43328" lon="1.11443">
        <ele>280.2</ele>
        <time>2024-08-01T08:07:32Z</time>
      </trkpt>
      <trkpt lat="43.43324" lon="1.11457">
        <ele>280</ele>
        <time>2024-08-01T08:07:33Z</time>
      </trkpt>
      <trkpt lat="43.4332" lon="1.11471">
        <ele>280</ele>
        <time>2024-08-01T08:07:34Z</time>
      </trkpt>
      <trkpt lat="43.43316" lon="1.11485">
        <ele>279.8</ele>
        <time>2024-08-01T08:07:35Z</time>
      </trkpt>
      <trkpt lat="43.43312" lon="1.11499">
        <ele>279.8</ele>
        <time>2024-08-01T08:07:36Z</time>
      </trkpt>
      <trkpt lat="43.43308" lon="1.11513">
        <ele>279.6</ele>
        <time>2024-08-01T08:07:37Z</time>
      </trkpt>
      <trkpt lat="43.43304" lon="1.11527">
        <ele>279.6</ele>
        <time>2024-08-01T08:07:38Z</time>
      </trkpt>
      <trkpt lat="43.433" lon="1.11541">
        <ele>279.4</ele>
        <time>2024-08-01T08:07:39Z</time>
      </trkpt>
      <trkpt lat="43.43296" lon="1.11554">
        <ele>279.2</ele>
        <time>2024-08-01T08:07:40Z</time>
      </trkpt>
      <trkpt lat="43.43292" lon="1.11568">
        <ele>279</ele>
        <time>2024-08-01T08:07:41Z</time>
      </trkpt>
      <trkpt lat="43.43288" lon="1.11582">
        <ele>279</ele>
        <time>2024-08-01T08:07:42Z</time>
      </trkpt>
      <trkpt lat="43.43284" lon="1.11595">
        <ele>278.8</ele>
        <time>2024-08-01T08:07:43Z</time>
      </trkpt>
      <trkpt lat="43.43281" lon="1.11609">
        <ele>278.8</ele>
        <time>2024-08-01T08:07:44Z</time>
      </trkpt>
      <trkpt lat="43.43277" lon="1.11622">
        <ele>278.6</ele>
        <time>2024-08-01T08:07:45Z</time>
      </trkpt>
      <trkpt lat="43.43273" lon="1.11635">
        <ele>278.6</ele>
        <time>2024-08-01T08:07:46Z</time>
      </trkpt>
      <trkpt lat="43.43269" lon="1.11648">
        <ele>278.6</ele>
        <time>2024-08-01T08:07:47Z</time>
      </trkpt>
      <trkpt lat="43.43265" lon="1.11661">
        <ele>278.4</ele>
        <time>2024-08-01T08:07:48Z</time>
      </trkpt>
      <trkpt lat="43.43261" lon="1.11674">
        <ele>278.4</ele>
        <time>2024-08-01T08:07:49Z</time>
      </trkpt>
      <trkpt lat="43.43257" lon="1.11688">
        <ele>278</ele>
        <time>2024-08-01T08:07:50Z</time>
      </trkpt>
      <trkpt lat="43.43254" lon="1.11701">
        <ele>278</ele>
        <time>2024-08-01T08:07:51Z</time>
      </trkpt>
      <trkpt lat="43.4325" lon="1.11714">
        <ele>278</ele>
        <time>2024-08-01T08:07:52Z</time>
      </trkpt>
      <trkpt lat="43.43246" lon="1.11727">
        <ele>277.8</ele>
        <time>2024-08-01T08:07:53Z</time>
      </trkpt>
      <trkpt lat="43.43242" lon="1.1174">
        <ele>277.4</ele>
        <time>2024-08-01T08:07:54Z</time>
      </trkpt>
      <trkpt lat="43.43238" lon="1.11752">
        <ele>277.4</ele>
        <time>2024-08-01T08:07:55Z</time>
      </trkpt>
      <trkpt lat="43.43235" lon="1.11765">
        <ele>277.4</ele>
        <time>2024-08-01T08:07:56Z</time>
      </trkpt>
      <trkpt lat="43.43231" lon="1.11777">
        <ele>277.4</ele>
        <time>2024-08-01T08:07:57Z</time>
      </trkpt>
      <trkpt lat="43.43227" lon="1.11789">
        <ele>277.4</ele>
        <time>2024-08-01T08:07:58Z</time>
      </trkpt>
      <trkpt lat="43.43224" lon="1.11801">
        <ele>277.4</ele>
        <time>2024-08-01T08:07:59Z</time>
      </trkpt>
      <trkpt lat="43.4322" lon="1.11813">
        <ele>277.4</ele>
        <time>2024-08-01T08:08:00Z</time>
      </trkpt>
      <trkpt lat="43.43217" lon="1.11826">
        <ele>277.2</ele>
        <time>2024-08-01T08:08:01Z</time>
      </trkpt>
      <trkpt lat="43.43214" lon="1.11837">
        <ele>277</ele>
        <time>2024-08-01T08:08:02Z</time>
      </trkpt>
      <trkpt lat="43.43211" lon="1.1185">
        <ele>277</ele>
        <time>2024-08-01T08:08:03Z</time>
      </trkpt>
      <trkpt lat="43.43207" lon="1.11861">
        <ele>277</ele>
        <time>2024-08-01T08:08:04Z</time>
      </trkpt>
      <trkpt lat="43.43204" lon="1.11873">
        <ele>276.8</ele>
        <time>2024-08-01T08:08:05Z</time>
      </trkpt>
      <trkpt lat="43.432" lon="1.11885">
        <ele>276.8</ele>
        <time>2024-08-01T08:08:06Z</time>
      </trkpt>
      <trkpt lat="43.43197" lon="1.11896">
        <ele>276.8</ele>
        <time>2024-08-01T08:08:07Z</time>
      </trkpt>
      <trkpt lat="43.43193" lon="1.11908">
        <ele>276.6</ele>
        <time>2024-08-01T08:08:08Z</time>
      </trkpt>
      <trkpt lat="43.4319" lon="1.11919">
        <ele>276.6</ele>
        <time>2024-08-01T08:08:09Z</time>
      </trkpt>
      <trkpt lat="43.43187" lon="1.11931">
        <ele>276.6</ele>
        <time>2024-08-01T08:08:10Z</time>
      </trkpt>
      <trkpt lat="43.43183" lon="1.11942">
        <ele>276.4</ele>
        <time>2024-08-01T08:08:11Z</time>
      </trkpt>
      <trkpt lat="43.4318" lon="1.1195">
        <ele>276.4</ele>
        <time>2024-08-01T08:08:12Z</time>
      </trkpt>
      <trkpt lat="43.43177" lon="1.11961">
        <ele>276.2</ele>
        <time>2024-08-01T08:08:13Z</time>
      </trkpt>
      <trkpt lat="43.43173" lon="1.11974">
        <ele>276</ele>
        <time>2024-08-01T08:08:14Z</time>
      </trkpt>
      <trkpt lat="43.4317" lon="1.11984">
        <ele>275.8</ele>
        <time>2024-08-01T08:08:15Z</time>
      </trkpt>
      <trkpt lat="43.43168" lon="1.11994">
        <ele>275.8</ele>
        <time>2024-08-01T08:08:16Z</time>
      </trkpt>
      <trkpt lat="43.43165" lon="1.12002">
        <ele>275.6</ele>
        <time>2024-08-01T08:08:17Z</time>
      </trkpt>
      <trkpt lat="43.43162" lon="1.1201">
        <ele>275.4</ele>
        <time>2024-08-01T08:08:18Z</time>
      </trkpt>
      <trkpt lat="43.43157" lon="1.12015">
        <ele>275.4</ele>
        <time>2024-08-01T08:08:19Z</time>
      </trkpt>
      <trkpt lat="43.43152" lon="1.12017">
        <ele>275.4</ele>
        <time>2024-08-01T08:08:20Z</time>
      </trkpt>
      <trkpt lat="43.43145" lon="1.12018">
        <ele>275.2</ele>
        <time>2024-08-01T08:08:21Z</time>
      </trkpt>
      <trkpt lat="43.43138" lon="1.12018">
        <ele>275.2</ele>
        <time>2024-08-01T08:08:22Z</time>
      </trkpt>
      <trkpt lat="43.43131" lon="1.12018">
        <ele>275.2</ele>
        <time>2024-08-01T08:08:23Z</time>
      </trkpt>
      <trkpt lat="43.43124" lon="1.12018">
        <ele>275</ele>
        <time>2024-08-01T08:08:24Z</time>
      </trkpt>
      <trkpt lat="43.43117" lon="1.12018">
        <ele>275</ele>
        <time>2024-08-01T08:08:25Z</time>
      </trkpt>
      <trkpt lat="43.43109" lon="1.12017">
        <ele>275</ele>
        <time>2024-08-01T08:08:26Z</time>
      </trkpt>
      <trkpt lat="43.43101" lon="1.12017">
        <ele>275</ele>
        <time>2024-08-01T08:08:27Z</time>
      </trkpt>
      <trkpt lat="43.43094" lon="1.12017">
        <ele>275</ele>
        <time>2024-08-01T08:08:28Z</time>
      </trkpt>
      <trkpt lat="43.43086" lon="1.12016">
        <ele>275</ele>
        <time>2024-08-01T08:08:29Z</time>
      </trkpt>
      <trkpt lat="43.43079" lon="1.12016">
        <ele>275</ele>
        <time>2024-08-01T08:08:30Z</time>
      </trkpt>
      <trkpt lat="43.43073" lon="1.12015">
        <ele>275.2</ele>
        <time>2024-08-01T08:08:31Z</time>
      </trkpt>
      <trkpt lat="43.43067" lon="1.12015">
        <ele>275.2</ele>
        <time>2024-08-01T08:08:32Z</time>
      </trkpt>
      <trkpt lat="43.43061" lon="1.12014">
        <ele>275.2</ele>
        <time>2024-08-01T08:08:33Z</time>
      </trkpt>
      <trkpt lat="43.43056" lon="1.12014">
        <ele>275.4</ele>
        <time>2024-08-01T08:08:34Z</time>
      </trkpt>
      <trkpt lat="43.43051" lon="1.12014">
        <ele>275.4</ele>
        <time>2024-08-01T08:08:35Z</time>
      </trkpt>
      <trkpt lat="43.43047" lon="1.12015">
        <ele>275.4</ele>
        <time>2024-08-01T08:08:36Z</time>
      </trkpt>
      <trkpt lat="43.43042" lon="1.12014">
        <ele>275.4</ele>
        <time>2024-08-01T08:08:37Z</time>
      </trkpt>
      <trkpt lat="43.43038" lon="1.12014">
        <ele>275.6</ele>
        <time>2024-08-01T08:08:38Z</time>
      </trkpt>
      <trkpt lat="43.43034" lon="1.12013">
        <ele>275.8</ele>
        <time>2024-08-01T08:08:39Z</time>
      </trkpt>
      <trkpt lat="43.43031" lon="1.12013">
        <ele>276</ele>
        <time>2024-08-01T08:08:40Z</time>
      </trkpt>
      <trkpt lat="43.43027" lon="1.12012">
        <ele>276</ele>
        <time>2024-08-01T08:08:41Z</time>
      </trkpt>
      <trkpt lat="43.43024" lon="1.12012">
        <ele>276.2</ele>
        <time>2024-08-01T08:08:42Z</time>
      </trkpt>
      <trkpt lat="43.4302" lon="1.12011">
        <ele>276.2</ele>
        <time>2024-08-01T08:08:43Z</time>
      </trkpt>
      <trkpt lat="43.43017" lon="1.12011">
        <ele>276.4</ele>
        <time>2024-08-01T08:08:44Z</time>
      </trkpt>
      <trkpt lat="43.43013" lon="1.12011">
        <ele>276.4</ele>
        <time>2024-08-01T08:08:45Z</time>
      </trkpt>
      <trkpt lat="43.43009" lon="1.12011">
        <ele>276.4</ele>
        <time>2024-08-01T08:08:46Z</time>
      </trkpt>
      <trkpt lat="43.43005" lon="1.1201">
        <ele>276.4</ele>
        <time>2024-08-01T08:08:47Z</time>
      </trkpt>
      <trkpt lat="43.43001" lon="1.1201">
        <ele>276.6</ele>
        <time>2024-08-01T08:08:48Z</time>
      </trkpt>
      <trkpt lat="43.42998" lon="1.12009">
        <ele>276.6</ele>
        <time>2024-08-01T08:08:49Z</time>
      </trkpt>
      <trkpt lat="43.42994" lon="1.12009">
        <ele>276.6</ele>
        <time>2024-08-01T08:08:50Z</time>
      </trkpt>
      <trkpt lat="43.42991" lon="1.1201">
        <ele>276.6</ele>
        <time>2024-08-01T08:08:51Z</time>
      </trkpt>
      <trkpt lat="43.42988" lon="1.12009">
        <ele>276.8</ele>
        <time>2024-08-01T08:08:52Z</time>
      </trkpt>
      <trkpt lat="43.42984" lon="1.12009">
        <ele>276.8</ele>
        <time>2024-08-01T08:08:53Z</time>
      </trkpt>
      <trkpt lat="43.42981" lon="1.12008">
        <ele>276.8</ele>
        <time>2024-08-01T08:08:54Z</time>
      </trkpt>
      <trkpt lat="43.42978" lon="1.12007">
        <ele>277</ele>
        <time>2024-08-01T08:08:55Z</time>
      </trkpt>
      <trkpt lat="43.42974" lon="1.12006">
        <ele>277</ele>
        <time>2024-08-01T08:08:56Z</time>
      </trkpt>
      <trkpt lat="43.42971" lon="1.12006">
        <ele>277</ele>
        <time>2024-08-01T08:08:57Z</time>
      </trkpt>
      <trkpt lat="43.42968" lon="1.12006">
        <ele>277</ele>
        <time>2024-08-01T08:08:58Z</time>
      </trkpt>
      <trkpt lat="43.42964" lon="1.12005">
        <ele>277</ele>
        <time>2024-08-01T08:08:59Z</time>
      </trkpt>
      <trkpt lat="43.42961" lon="1.12004">
        <ele>277</ele>
        <time>2024-08-01T08:09:00Z</time>
      </trkpt>
      <trkpt lat="43.42957" lon="1.12004">
        <ele>277</ele>
        <time>2024-08-01T08:09:01Z</time>
      </trkpt>
      <trkpt lat="43.42954" lon="1.12003">
        <ele>277</ele>
        <time>2024-08-01T08:09:02Z</time>
      </trkpt>
      <trkpt lat="43.42949" lon="1.12003">
        <ele>277</ele>
        <time>2024-08-01T08:09:03Z</time>
      </trkpt>
      <trkpt lat="43.42945" lon="1.12003">
        <ele>277</ele>
        <time>2024-08-01T08:09:04Z</time>
      </trkpt>
      <trkpt lat="43.42942" lon="1.12002">
        <ele>277</ele>
        <time>2024-08-01T08:09:05Z</time>
      </trkpt>
      <trkpt lat="43.42938" lon="1.12002">
        <ele>277</ele>
        <time>2024-08-01T08:09:06Z</time>
      </trkpt>
      <trkpt lat="43.42935" lon="1.12">
        <ele>277</ele>
        <time>2024-08-01T08:09:07Z</time>
      </trkpt>
      <trkpt lat="43.42931" lon="1.11999">
        <ele>277</ele>
        <time>2024-08-01T08:09:08Z</time>
      </trkpt>
      <trkpt lat="43.42927" lon="1.11999">
        <ele>277</ele>
        <time>2024-08-01T08:09:09Z</time>
      </trkpt>
      <trkpt lat="43.42923" lon="1.11998">
        <ele>277</ele>
        <time>2024-08-01T08:09:10Z</time>
      </trkpt>
      <trkpt lat="43.42919" lon="1.11998">
        <ele>277</ele>
        <time>2024-08-01T08:09:11Z</time>
      </trkpt>
      <trkpt lat="43.42914" lon="1.11997">
        <ele>277</ele>
        <time>2024-08-01T08:09:12Z</time>
      </trkpt>
      <trkpt lat="43.4291" lon="1.11997">
        <ele>277</ele>
        <time>2024-08-01T08:09:13Z</time>
      </trkpt>
      <trkpt lat="43.42907" lon="1.11996">
        <ele>276.8</ele>
        <time>2024-08-01T08:09:14Z</time>
      </trkpt>
      <trkpt lat="43.42903" lon="1.11995">
        <ele>276.8</ele>
        <time>2024-08-01T08:09:15Z</time>
      </trkpt>
      <trkpt lat="43.42899" lon="1.11994">
        <ele>276.8</ele>
        <time>2024-08-01T08:09:16Z</time>
      </trkpt>
      <trkpt lat="43.42895" lon="1.11993">
        <ele>276.8</ele>
        <time>2024-08-01T08:09:17Z</time>
      </trkpt>
      <trkpt lat="43.4289" lon="1.11992">
        <ele>276.8</ele>
        <time>2024-08-01T08:09:18Z</time>
      </trkpt>
      <trkpt lat="43.42885" lon="1.11991">
        <ele>276.8</ele>
        <time>2024-08-01T08:09:19Z</time>
      </trkpt>
      <trkpt lat="43.42881" lon="1.1199">
        <ele>276.8</ele>
        <time>2024-08-01T08:09:20Z</time>
      </trkpt>
      <trkpt lat="43.42876" lon="1.11989">
        <ele>276.8</ele>
        <time>2024-08-01T08:09:21Z</time>
      </trkpt>
      <trkpt lat="43.42871" lon="1.11988">
        <ele>276.8</ele>
        <time>2024-08-01T08:09:22Z</time>
      </trkpt>
      <trkpt lat="43.42866" lon="1.11987">
        <ele>276.6</ele>
        <time>2024-08-01T08:09:23Z</time>
      </trkpt>
      <trkpt lat="43.42861" lon="1.11985">
        <ele>276.6</ele>
        <time>2024-08-01T08:09:24Z</time>
      </trkpt>
      <trkpt lat="43.42855" lon="1.11984">
        <ele>276.6</ele>
        <time>2024-08-01T08:09:25Z</time>
      </trkpt>
      <trkpt lat="43.42849" lon="1.11982">
        <ele>276.4</ele>
        <time>2024-08-01T08:09:26Z</time>
      </trkpt>
      <trkpt lat="43.42843" lon="1.1198">
        <ele>276.2</ele>
        <time>2024-08-01T08:09:27Z</time>
      </trkpt>
      <trkpt lat="43.42835" lon="1.11978">
        <ele>276</ele>
        <time>2024-08-01T08:09:28Z</time>
      </trkpt>
      <trkpt lat="43.42828" lon="1.11976">
        <ele>276</ele>
        <time>2024-08-01T08:09:29Z</time>
      </trkpt>
      <trkpt lat="43.4282" lon="1.11973">
        <ele>275.8</ele>
        <time>2024-08-01T08:09:30Z</time>
      </trkpt>
      <trkpt lat="43.42813" lon="1.11968">
        <ele>275.6</ele>
        <time>2024-08-01T08:09:31Z</time>
      </trkpt>
      <trkpt lat="43.42806" lon="1.11961">
        <ele>275.2</ele>
        <time>2024-08-01T08:09:32Z</time>
      </trkpt>
      <trkpt lat="43.428" lon="1.11952">
        <ele>275</ele>
        <time>2024-08-01T08:09:33Z</time>
      </trkpt>
      <trkpt lat="43.42795" lon="1.11942">
        <ele>274.6</ele>
        <time>2024-08-01T08:09:34Z</time>
      </trkpt>
      <trkpt lat="43.42792" lon="1.11931">
        <ele>274.2</ele>
        <time>2024-08-01T08:09:35Z</time>
      </trkpt>
      <trkpt lat="43.42788" lon="1.11919">
        <ele>273.6</ele>
        <time>2024-08-01T08:09:36Z</time>
      </trkpt>
      <trkpt lat="43.42784" lon="1.11908">
        <ele>273.2</ele>
        <time>2024-08-01T08:09:37Z</time>
      </trkpt>
      <trkpt lat="43.4278" lon="1.11897">
        <ele>272.6</ele>
        <time>2024-08-01T08:09:38Z</time>
      </trkpt>
      <trkpt lat="43.42776" lon="1.11887">
        <ele>271.4</ele>
        <time>2024-08-01T08:09:39Z</time>
      </trkpt>
      <trkpt lat="43.4277" lon="1.11877">
        <ele>271</ele>
        <time>2024-08-01T08:09:40Z</time>
      </trkpt>
      <trkpt lat="43.42762" lon="1.11869">
        <ele>270.4</ele>
        <time>2024-08-01T08:09:41Z</time>
      </trkpt>
      <trkpt lat="43.42753" lon="1.11863">
        <ele>269.8</ele>
        <time>2024-08-01T08:09:42Z</time>
      </trkpt>
      <trkpt lat="43.42744" lon="1.1186">
        <ele>269.2</ele>
        <time>2024-08-01T08:09:43Z</time>
      </trkpt>
      <trkpt lat="43.42735" lon="1.11863">
        <ele>268.4</ele>
        <time>2024-08-01T08:09:44Z</time>
      </trkpt>
      <trkpt lat="43.42727" lon="1.11869">
        <ele>268</ele>
        <time>2024-08-01T08:09:45Z</time>
      </trkpt>
      <trkpt lat="43.4272" lon="1.11878">
        <ele>267.2</ele>
        <time>2024-08-01T08:09:46Z</time>
      </trkpt>
      <trkpt lat="43.42715" lon="1.11888">
        <ele>266.6</ele>
        <time>2024-08-01T08:09:47Z</time>
      </trkpt>
      <trkpt lat="43.42708" lon="1.11899">
        <ele>265.6</ele>
        <time>2024-08-01T08:09:48Z</time>
      </trkpt>
      <trkpt lat="43.42703" lon="1.11911">
        <ele>264.8</ele>
        <time>2024-08-01T08:09:49Z</time>
      </trkpt>
      <trkpt lat="43.42699" lon="1.11924">
        <ele>264.6</ele>
        <time>2024-08-01T08:09:50Z</time>
      </trkpt>
      <trkpt lat="43.42695" lon="1.11936">
        <ele>263.8</ele>
        <time>2024-08-01T08:09:51Z</time>
      </trkpt>
      <trkpt lat="43.42689" lon="1.11948">
        <ele>263.4</ele>
        <time>2024-08-01T08:09:52Z</time>
      </trkpt>
      <trkpt lat="43.42685" lon="1.1196">
        <ele>262.6</ele>
        <time>2024-08-01T08:09:53Z</time>
      </trkpt>
      <trkpt lat="43.42679" lon="1.1197">
        <ele>262.2</ele>
        <time>2024-08-01T08:09:54Z</time>
      </trkpt>
      <trkpt lat="43.42672" lon="1.11979">
        <ele>261</ele>
        <time>2024-08-01T08:09:55Z</time>
      </trkpt>
      <trkpt lat="43.42665" lon="1.11986">
        <ele>260.2</ele>
        <time>2024-08-01T08:09:56Z</time>
      </trkpt>
      <trkpt lat="43.42657" lon="1.11993">
        <ele>259.8</ele>
        <time>2024-08-01T08:09:57Z</time>
      </trkpt>
      <trkpt lat="43.4265" lon="1.11997">
        <ele>259</ele>
        <time>2024-08-01T08:09:58Z</time>
      </trkpt>
      <trkpt lat="43.42639" lon="1.12">
        <ele>258.6</ele>
        <time>2024-08-01T08:09:59Z</time>
      </trkpt>
      <trkpt lat="43.42629" lon="1.11999">
        <ele>258</ele>
        <time>2024-08-01T08:10:00Z</time>
      </trkpt>
      <trkpt lat="43.42618" lon="1.11997">
        <ele>257.4</ele>
        <time>2024-08-01T08:10:01Z</time>
      </trkpt>
      <trkpt lat="43.42606" lon="1.11994">
        <ele>256.6</ele>
        <time>2024-08-01T08:10:02Z</time>
      </trkpt>
      <trkpt lat="43.42594" lon="1.1199">
        <ele>255.6</ele>
        <time>2024-08-01T08:10:03Z</time>
      </trkpt>
      <trkpt lat="43.42583" lon="1.11986">
        <ele>255</ele>
        <time>2024-08-01T08:10:04Z</time>
      </trkpt>
      <trkpt lat="43.42571" lon="1.11982">
        <ele>254</ele>
        <time>2024-08-01T08:10:05Z</time>
      </trkpt>
      <trkpt lat="43.42559" lon="1.11978">
        <ele>253.8</ele>
        <time>2024-08-01T08:10:06Z</time>
      </trkpt>
      <trkpt lat="43.42546" lon="1.11975">
        <ele>253.2</ele>
        <time>2024-08-01T08:10:07Z</time>
      </trkpt>
      <trkpt lat="43.42534" lon="1.11972">
        <ele>252.8</ele>
        <time>2024-08-01T08:10:08Z</time>
      </trkpt>
      <trkpt lat="43.42521" lon="1.11968">
        <ele>252.2</ele>
        <time>2024-08-01T08:10:09Z</time>
      </trkpt>
      <trkpt lat="43.42508" lon="1.11965">
        <ele>251</ele>
        <time>2024-08-01T08:10:10Z</time>
      </trkpt>
      <trkpt lat="43.42496" lon="1.11962">
        <ele>250.4</ele>
        <time>2024-08-01T08:10:11Z</time>
      </trkpt>
      <trkpt lat="43.42484" lon="1.1196">
        <ele>249</ele>
        <time>2024-08-01T08:10:12Z</time>
      </trkpt>
      <trkpt lat="43.42472" lon="1.11958">
        <ele>248.6</ele>
        <time>2024-08-01T08:10:13Z</time>
      </trkpt>
      <trkpt lat="43.4246" lon="1.11956">
        <ele>247.4</ele>
        <time>2024-08-01T08:10:14Z</time>
      </trkpt>
      <trkpt lat="43.42449" lon="1.11955">
        <ele>247.2</ele>
        <time>2024-08-01T08:10:15Z</time>
      </trkpt>
      <trkpt lat="43.42438" lon="1.11954">
        <ele>246.6</ele>
        <time>2024-08-01T08:10:16Z</time>
      </trkpt>
      <trkpt lat="43.42427" lon="1.11953">
        <ele>246.2</ele>
        <time>2024-08-01T08:10:17Z</time>
      </trkpt>
      <trkpt lat="43.42417" lon="1.11952">
        <ele>246</ele>
        <time>2024-08-01T08:10:18Z</time>
      </trkpt>
      <trkpt lat="43.42408" lon="1.11952">
        <ele>245.8</ele>
        <time>2024-08-01T08:10:19Z</time>
      </trkpt>
      <trkpt lat="43.42398" lon="1.11952">
        <ele>245.8</ele>
        <time>2024-08-01T08:10:20Z</time>
      </trkpt>
      <trkpt lat="43.42389" lon="1.11951">
        <ele>245.8</ele>
        <time>2024-08-01T08:10:21Z</time>
      </trkpt>
      <trkpt lat="43.42381" lon="1.1195">
        <ele>245.8</ele>
        <time>2024-08-01T08:10:22Z</time>
      </trkpt>
      <trkpt lat="43.42372" lon="1.11949">
        <ele>245.8</ele>
        <time>2024-08-01T08:10:23Z</time>
      </trkpt>
      <trkpt lat="43.42364" lon="1.11949">
        <ele>245.8</ele>
        <time>2024-08-01T08:10:24Z</time>
      </trkpt>
      <trkpt lat="43.42356" lon="1.11948">
        <ele>245.8</ele>
        <time>2024-08-01T08:10:25Z</time>
      </trkpt>
      <trkpt lat="43.42348" lon="1.11947">
        <ele>246.2</ele>
        <time>2024-08-01T08:10:26Z</time>
      </trkpt>
      <trkpt lat="43.42341" lon="1.11947">
        <ele>246.4</ele>
        <time>2024-08-01T08:10:27Z</time>
      </trkpt>
      <trkpt lat="43.42333" lon="1.11946">
        <ele>246.4</ele>
        <time>2024-08-01T08:10:28Z</time>
      </trkpt>
      <trkpt lat="43.42325" lon="1.11945">
        <ele>246.6</ele>
        <time>2024-08-01T08:10:29Z</time>
      </trkpt>
      <trkpt lat="43.42317" lon="1.11945">
        <ele>246.8</ele>
        <time>2024-08-01T08:10:30Z</time>
      </trkpt>
      <trkpt lat="43.42309" lon="1.11944">
        <ele>247.2</ele>
        <time>2024-08-01T08:10:31Z</time>
      </trkpt>
      <trkpt lat="43.42302" lon="1.11943">
        <ele>247.4</ele>
        <time>2024-08-01T08:10:32Z</time>
      </trkpt>
      <trkpt lat="43.42294" lon="1.11943">
        <ele>247.8</ele>
        <time>2024-08-01T08:10:33Z</time>
      </trkpt>
      <trkpt lat="43.42287" lon="1.11942">
        <ele>247.8</ele>
        <time>2024-08-01T08:10:34Z</time>
      </trkpt>
      <trkpt lat="43.4228" lon="1.11941">
        <ele>248</ele>
        <time>2024-08-01T08:10:35Z</time>
      </trkpt>
      <trkpt lat="43.42273" lon="1.11941">
        <ele>248.2</ele>
        <time>2024-08-01T08:10:36Z</time>
      </trkpt>
      <trkpt lat="43.42265" lon="1.1194">
        <ele>248.4</ele>
        <time>2024-08-01T08:10:37Z</time>
      </trkpt>
      <trkpt lat="43.42258" lon="1.1194">
        <ele>248.6</ele>
        <time>2024-08-01T08:10:38Z</time>
      </trkpt>
      <trkpt lat="43.42251" lon="1.1194">
        <ele>249</ele>
        <time>2024-08-01T08:10:39Z</time>
      </trkpt>
      <trkpt lat="43.42244" lon="1.11939">
        <ele>249.4</ele>
        <time>2024-08-01T08:10:40Z</time>
      </trkpt>
      <trkpt lat="43.42237" lon="1.11938">
        <ele>249.4</ele>
        <time>2024-08-01T08:10:41Z</time>
      </trkpt>
      <trkpt lat="43.4223" lon="1.11938">
        <ele>249.6</ele>
        <time>2024-08-01T08:10:42Z</time>
      </trkpt>
      <trkpt lat="43.42223" lon="1.11937">
        <ele>249.6</ele>
        <time>2024-08-01T08:10:43Z</time>
      </trkpt>
      <trkpt lat="43.42216" lon="1.11937">
        <ele>250</ele>
        <time>2024-08-01T08:10:44Z</time>
      </trkpt>
      <trkpt lat="43.42209" lon="1.11936">
        <ele>250.2</ele>
        <time>2024-08-01T08:10:45Z</time>
      </trkpt>
      <trkpt lat="43.42204" lon="1.11936">
        <ele>250.4</ele>
        <time>2024-08-01T08:10:46Z</time>
      </trkpt>
      <trkpt lat="43.42197" lon="1.11935">
        <ele>250.6</ele>
        <time>2024-08-01T08:10:47Z</time>
      </trkpt>
      <trkpt lat="43.4219" lon="1.11935">
        <ele>250.6</ele>
        <time>2024-08-01T08:10:48Z</time>
      </trkpt>
      <trkpt lat="43.42182" lon="1.11934">
        <ele>250.8</ele>
        <time>2024-08-01T08:10:49Z</time>
      </trkpt>
      <trkpt lat="43.42175" lon="1.11934">
        <ele>250.8</ele>
        <time>2024-08-01T08:10:50Z</time>
      </trkpt>
      <trkpt lat="43.4217" lon="1.11933">
        <ele>251</ele>
        <time>2024-08-01T08:10:51Z</time>
      </trkpt>
      <trkpt lat="43.42163" lon="1.11932">
        <ele>251</ele>
        <time>2024-08-01T08:10:52Z</time>
      </trkpt>
      <trkpt lat="43.42156" lon="1.11932">
        <ele>251</ele>
        <time>2024-08-01T08:10:53Z</time>
      </trkpt>
      <trkpt lat="43.42149" lon="1.11931">
        <ele>251.2</ele>
        <time>2024-08-01T08:10:54Z</time>
      </trkpt>
      <trkpt lat="43.42142" lon="1.11931">
        <ele>251.4</ele>
        <time>2024-08-01T08:10:55Z</time>
      </trkpt>
      <trkpt lat="43.42135" lon="1.11931">
        <ele>251.8</ele>
        <time>2024-08-01T08:10:56Z</time>
      </trkpt>
      <trkpt lat="43.4213" lon="1.11931">
        <ele>251.8</ele>
        <time>2024-08-01T08:10:57Z</time>
      </trkpt>
      <trkpt lat="43.42124" lon="1.1193">
        <ele>252</ele>
        <time>2024-08-01T08:10:58Z</time>
      </trkpt>
      <trkpt lat="43.42117" lon="1.1193">
        <ele>252.2</ele>
        <time>2024-08-01T08:10:59Z</time>
      </trkpt>
      <trkpt lat="43.42112" lon="1.1193">
        <ele>252.4</ele>
        <time>2024-08-01T08:11:00Z</time>
      </trkpt>
      <trkpt lat="43.42107" lon="1.11929">
        <ele>252.6</ele>
        <time>2024-08-01T08:11:01Z</time>
      </trkpt>
      <trkpt lat="43.42104" lon="1.11929">
        <ele>252.8</ele>
        <time>2024-08-01T08:11:02Z</time>
      </trkpt>
      <trkpt lat="43.42099" lon="1.11929">
        <ele>253</ele>
        <time>2024-08-01T08:11:03Z</time>
      </trkpt>
      <trkpt lat="43.42095" lon="1.11929">
        <ele>253.2</ele>
        <time>2024-08-01T08:11:04Z</time>
      </trkpt>
      <trkpt lat="43.4209" lon="1.1193">
        <ele>253.4</ele>
        <time>2024-08-01T08:11:05Z</time>
      </trkpt>
      <trkpt lat="43.42086" lon="1.11931">
        <ele>253.6</ele>
        <time>2024-08-01T08:11:06Z</time>
      </trkpt>
      <trkpt lat="43.42083" lon="1.11932">
        <ele>254</ele>
        <time>2024-08-01T08:11:07Z</time>
      </trkpt>
      <trkpt lat="43.4208" lon="1.11933">
        <ele>254.2</ele>
        <time>2024-08-01T08:11:08Z</time>
      </trkpt>
      <trkpt lat="43.42078" lon="1.11934">
        <ele>254.2</ele>
        <time>2024-08-01T08:11:09Z</time>
      </trkpt>
      <trkpt lat="43.42075" lon="1.11937">
        <ele>254.6</ele>
        <time>2024-08-01T08:11:10Z</time>
      </trkpt>
      <trkpt lat="43.42073" lon="1.11939">
        <ele>254.8</ele>
        <time>2024-08-01T08:11:11Z</time>
      </trkpt>
      <trkpt lat="43.42071" lon="1.1194">
        <ele>254.8</ele>
        <time>2024-08-01T08:11:12Z</time>
      </trkpt>
      <trkpt lat="43.42069" lon="1.11942">
        <ele>255</ele>
        <time>2024-08-01T08:11:13Z</time>
      </trkpt>
      <trkpt lat="43.42068" lon="1.11943">
        <ele>255.4</ele>
        <time>2024-08-01T08:11:14Z</time>
      </trkpt>
      <trkpt lat="43.42066" lon="1.11945">
        <ele>255.4</ele>
        <time>2024-08-01T08:11:15Z</time>
      </trkpt>
      <trkpt lat="43.42065" lon="1.11946">
        <ele>255.6</ele>
        <time>2024-08-01T08:11:16Z</time>
      </trkpt>
      <trkpt lat="43.42063" lon="1.11949">
        <ele>255.8</ele>
        <time>2024-08-01T08:11:17Z</time>
      </trkpt>
      <trkpt lat="43.42061" lon="1.11952">
        <ele>255.8</ele>
        <time>2024-08-01T08:11:18Z</time>
      </trkpt>
      <trkpt lat="43.4206" lon="1.11955">
        <ele>256</ele>
        <time>2024-08-01T08:11:19Z</time>
      </trkpt>
      <trkpt lat="43.42058" lon="1.1196">
        <ele>256</ele>
        <time>2024-08-01T08:11:20Z</time>
      </trkpt>
      <trkpt lat="43.42056" lon="1.11964">
        <ele>256</ele>
        <time>2024-08-01T08:11:21Z</time>
      </trkpt>
      <trkpt lat="43.42055" lon="1.1197">
        <ele>256</ele>
        <time>2024-08-01T08:11:22Z</time>
      </trkpt>
      <trkpt lat="43.42055" lon="1.11974">
        <ele>256</ele>
        <time>2024-08-01T08:11:23Z</time>
      </trkpt>
      <trkpt lat="43.42054" lon="1.11981">
        <ele>256</ele>
        <time>2024-08-01T08:11:24Z</time>
      </trkpt>
      <trkpt lat="43.42052" lon="1.11987">
        <ele>256</ele>
        <time>2024-08-01T08:11:25Z</time>
      </trkpt>
      <trkpt lat="43.42051" lon="1.11995">
        <ele>255.8</ele>
        <time>2024-08-01T08:11:26Z</time>
      </trkpt>
      <trkpt lat="43.4205" lon="1.12001">
        <ele>255.8</ele>
        <time>2024-08-01T08:11:27Z</time>
      </trkpt>
      <trkpt lat="43.42049" lon="1.12006">
        <ele>255.6</ele>
        <time>2024-08-01T08:11:28Z</time>
      </trkpt>
      <trkpt lat="43.42048" lon="1.12011">
        <ele>255.2</ele>
        <time>2024-08-01T08:11:29Z</time>
      </trkpt>
      <trkpt lat="43.42048" lon="1.12015">
        <ele>255.2</ele>
        <time>2024-08-01T08:11:30Z</time>
      </trkpt>
      <trkpt lat="43.42047" lon="1.1202">
        <ele>255</ele>
        <time>2024-08-01T08:11:31Z</time>
      </trkpt>
      <trkpt lat="43.42047" lon="1.12023">
        <ele>255</ele>
        <time>2024-08-01T08:11:32Z</time>
      </trkpt>
      <trkpt lat="43.42046" lon="1.12025">
        <ele>254.8</ele>
        <time>2024-08-01T08:11:33Z</time>
      </trkpt>
      <trkpt lat="43.42046" lon="1.12027">
        <ele>254.6</ele>
        <time>2024-08-01T08:11:34Z</time>
      </trkpt>
      <trkpt lat="43.42046" lon="1.1203">
        <ele>254.6</ele>
        <time>2024-08-01T08:11:35Z</time>
      </trkpt>
      <trkpt lat="43.42045" lon="1.12032">
        <ele>254.4</ele>
        <time>2024-08-01T08:11:36Z</time>
      </trkpt>
      <trkpt lat="43.42044" lon="1.12034">
        <ele>254.2</ele>
        <time>2024-08-01T08:11:37Z</time>
      </trkpt>
      <trkpt lat="43.42044" lon="1.12034">
        <ele>254.2</ele>
        <time>2024-08-01T08:11:38Z</time>
      </trkpt>
      <trkpt lat="43.42044" lon="1.12034">
        <ele>254.2</ele>
        <time>2024-08-01T08:11:39Z</time>
      </trkpt>
      <trkpt lat="43.42043" lon="1.12045">
        <ele>252.6</ele>
        <time>2024-08-01T08:17:09Z</time>
      </trkpt>
      <trkpt lat="43.42043" lon="1.12049">
        <ele>252.6</ele>
        <time>2024-08-01T08:17:10Z</time>
      </trkpt>
      <trkpt lat="43.42043" lon="1.12054">
        <ele>252.6</ele>
        <time>2024-08-01T08:17:11Z</time>
      </trkpt>
      <trkpt lat="43.42042" lon="1.1206">
        <ele>252.6</ele>
        <time>2024-08-01T08:17:12Z</time>
      </trkpt>
      <trkpt lat="43.42041" lon="1.12066">
        <ele>252.6</ele>
        <time>2024-08-01T08:17:13Z</time>
      </trkpt>
      <trkpt lat="43.42041" lon="1.12072">
        <ele>252.6</ele>
        <time>2024-08-01T08:17:14Z</time>
      </trkpt>
      <trkpt lat="43.4204" lon="1.12079">
        <ele>252.6</ele>
        <time>2024-08-01T08:17:15Z</time>
      </trkpt>
      <trkpt lat="43.42039" lon="1.12086">
        <ele>252.6</ele>
        <time>2024-08-01T08:17:16Z</time>
      </trkpt>
      <trkpt lat="43.42039" lon="1.12093">
        <ele>252.6</ele>
        <time>2024-08-01T08:17:17Z</time>
      </trkpt>
      <trkpt lat="43.42038" lon="1.12101">
        <ele>252.4</ele>
        <time>2024-08-01T08:17:18Z</time>
      </trkpt>
      <trkpt lat="43.42037" lon="1.12108">
        <ele>252.2</ele>
        <time>2024-08-01T08:17:19Z</time>
      </trkpt>
      <trkpt lat="43.42036" lon="1.12116">
        <ele>252</ele>
        <time>2024-08-01T08:17:20Z</time>
      </trkpt>
      <trkpt lat="43.42035" lon="1.12124">
        <ele>252</ele>
        <time>2024-08-01T08:17:21Z</time>
      </trkpt>
      <trkpt lat="43.42034" lon="1.12132">
        <ele>252</ele>
        <time>2024-08-01T08:17:22Z</time>
      </trkpt>
      <trkpt lat="43.42033" lon="1.12141">
        <ele>251.6</ele>
        <time>2024-08-01T08:17:23Z</time>
      </trkpt>
      <trkpt lat="43.42032" lon="1.12149">
        <ele>251.6</ele>
        <time>2024-08-01T08:17:24Z</time>
      </trkpt>
      <trkpt lat="43.42031" lon="1.12158">
        <ele>251</ele>
        <time>2024-08-01T08:17:25Z</time>
      </trkpt>
      <trkpt lat="43.42031" lon="1.12167">
        <ele>250.8</ele>
        <time>2024-08-01T08:17:26Z</time>
      </trkpt>
      <trkpt lat="43.4203" lon="1.12176">
        <ele>250.8</ele>
        <time>2024-08-01T08:17:27Z</time>
      </trkpt>
      <trkpt lat="43.42029" lon="1.12185">
        <ele>250.6</ele>
        <time>2024-08-01T08:17:28Z</time>
      </trkpt>
      <trkpt lat="43.42028" lon="1.12194">
        <ele>250.4</ele>
        <time>2024-08-01T08:17:29Z</time>
      </trkpt>
      <trkpt lat="43.42027" lon="1.12203">
        <ele>250.4</ele>
        <time>2024-08-01T08:17:30Z</time>
      </trkpt>
      <trkpt lat="43.42026" lon="1.12211">
        <ele>250.2</ele>
        <time>2024-08-01T08:17:31Z</time>
      </trkpt>
      <trkpt lat="43.42025" lon="1.1222">
        <ele>250</ele>
        <time>2024-08-01T08:17:32Z</time>
      </trkpt>
      <trkpt lat="43.42024" lon="1.12229">
        <ele>249.6</ele>
        <time>2024-08-01T08:17:33Z</time>
      </trkpt>
      <trkpt lat="43.42023" lon="1.12238">
        <ele>249.6</ele>
        <time>2024-08-01T08:17:34Z</time>
      </trkpt>
      <trkpt lat="43.42022" lon="1.12248">
        <ele>249.4</ele>
        <time>2024-08-01T08:17:35Z</time>
      </trkpt>
      <trkpt lat="43.42021" lon="1.12257">
        <ele>249.4</ele>
        <time>2024-08-01T08:17:36Z</time>
      </trkpt>
      <trkpt lat="43.4202" lon="1.12266">
        <ele>249.2</ele>
        <time>2024-08-01T08:17:37Z</time>
      </trkpt>
      <trkpt lat="43.42019" lon="1.12275">
        <ele>249</ele>
        <time>2024-08-01T08:17:38Z</time>
      </trkpt>
      <trkpt lat="43.42018" lon="1.12283">
        <ele>248.8</ele>
        <time>2024-08-01T08:17:39Z</time>
      </trkpt>
      <trkpt lat="43.42017" lon="1.1229">
        <ele>248.6</ele>
        <time>2024-08-01T08:17:40Z</time>
      </trkpt>
      <trkpt lat="43.42016" lon="1.12296">
        <ele>248.4</ele>
        <time>2024-08-01T08:17:41Z</time>
      </trkpt>
      <trkpt lat="43.42015" lon="1.12302">
        <ele>248.4</ele>
        <time>2024-08-01T08:17:42Z</time>
      </trkpt>
      <trkpt lat="43.42014" lon="1.12306">
        <ele>248.2</ele>
        <time>2024-08-01T08:17:43Z</time>
      </trkpt>
      <trkpt lat="43.42012" lon="1.12309">
        <ele>248.2</ele>
        <time>2024-08-01T08:17:44Z</time>
      </trkpt>
      <trkpt lat="43.42009" lon="1.1231">
        <ele>248</ele>
        <time>2024-08-01T08:17:45Z</time>
      </trkpt>
      <trkpt lat="43.42006" lon="1.12309">
        <ele>248</ele>
        <time>2024-08-01T08:17:46Z</time>
      </trkpt>
      <trkpt lat="43.42003" lon="1.12308">
        <ele>247.8</ele>
        <time>2024-08-01T08:17:47Z</time>
      </trkpt>
      <trkpt lat="43.41999" lon="1.12306">
        <ele>247.8</ele>
        <time>2024-08-01T08:17:48Z</time>
      </trkpt>
      <trkpt lat="43.41995" lon="1.12304">
        <ele>247.8</ele>
        <time>2024-08-01T08:17:49Z</time>
      </trkpt>
      <trkpt lat="43.41991" lon="1.12302">
        <ele>247.8</ele>
        <time>2024-08-01T08:17:50Z</time>
      </trkpt>
      <trkpt lat="43.41986" lon="1.12299">
        <ele>247.6</ele>
        <time>2024-08-01T08:17:51Z</time>
      </trkpt>
      <trkpt lat="43.41982" lon="1.12297">
        <ele>247.6</ele>
        <time>2024-08-01T08:17:52Z</time>
      </trkpt>
      <trkpt lat="43.41977" lon="1.12295">
        <ele>247.6</ele>
        <time>2024-08-01T08:17:53Z</time>
      </trkpt>
      <trkpt lat="43.41973" lon="1.12293">
        <ele>247.6</ele>
        <time>2024-08-01T08:17:54Z</time>
      </trkpt>
      <trkpt lat="43.41969" lon="1.12291">
        <ele>247.8</ele>
        <time>2024-08-01T08:17:55Z</time>
      </trkpt>
      <trkpt lat="43.41964" lon="1.12288">
        <ele>247.8</ele>
        <time>2024-08-01T08:17:56Z</time>
      </trkpt>
      <trkpt lat="43.4196" lon="1.12286">
        <ele>247.8</ele>
        <time>2024-08-01T08:17:57Z</time>
      </trkpt>
      <trkpt lat="43.41955" lon="1.12284">
        <ele>247.8</ele>
        <time>2024-08-01T08:17:58Z</time>
      </trkpt>
      <trkpt lat="43.4195" lon="1.12281">
        <ele>247.8</ele>
        <time>2024-08-01T08:17:59Z</time>
      </trkpt>
      <trkpt lat="43.41946" lon="1.12279">
        <ele>248</ele>
        <time>2024-08-01T08:18:00Z</time>
      </trkpt>
      <trkpt lat="43.4194" lon="1.12277">
        <ele>248</ele>
        <time>2024-08-01T08:18:01Z</time>
      </trkpt>
      <trkpt lat="43.41934" lon="1.12273">
        <ele>248</ele>
        <time>2024-08-01T08:18:02Z</time>
      </trkpt>
      <trkpt lat="43.41929" lon="1.12271">
        <ele>248.2</ele>
        <time>2024-08-01T08:18:03Z</time>
      </trkpt>
      <trkpt lat="43.41923" lon="1.12268">
        <ele>248</ele>
        <time>2024-08-01T08:18:04Z</time>
      </trkpt>
      <trkpt lat="43.41917" lon="1.12265">
        <ele>248</ele>
        <time>2024-08-01T08:18:05Z</time>
      </trkpt>
      <trkpt lat="43.41911" lon="1.12262">
        <ele>248</ele>
        <time>2024-08-01T08:18:06Z</time>
      </trkpt>
      <trkpt lat="43.41905" lon="1.12259">
        <ele>248</ele>
        <time>2024-08-01T08:18:07Z</time>
      </trkpt>
      <trkpt lat="43.41899" lon="1.12256">
        <ele>248</ele>
        <time>2024-08-01T08:18:08Z</time>
      </trkpt>
      <trkpt lat="43.41892" lon="1.12253">
        <ele>248</ele>
        <time>2024-08-01T08:18:09Z</time>
      </trkpt>
      <trkpt lat="43.41886" lon="1.12249">
        <ele>247.8</ele>
        <time>2024-08-01T08:18:10Z</time>
      </trkpt>
      <trkpt lat="43.4188" lon="1.12246">
        <ele>247.8</ele>
        <time>2024-08-01T08:18:11Z</time>
      </trkpt>
      <trkpt lat="43.41873" lon="1.12243">
        <ele>247.6</ele>
        <time>2024-08-01T08:18:12Z</time>
      </trkpt>
      <trkpt lat="43.41867" lon="1.1224">
        <ele>247.2</ele>
        <time>2024-08-01T08:18:13Z</time>
      </trkpt>
      <trkpt lat="43.4186" lon="1.12237">
        <ele>247.2</ele>
        <time>2024-08-01T08:18:14Z</time>
      </trkpt>
      <trkpt lat="43.41853" lon="1.12234">
        <ele>246.8</ele>
        <time>2024-08-01T08:18:15Z</time>
      </trkpt>
      <trkpt lat="43.41847" lon="1.1223">
        <ele>246.8</ele>
        <time>2024-08-01T08:18:16Z</time>
      </trkpt>
      <trkpt lat="43.4184" lon="1.12227">
        <ele>246.6</ele>
        <time>2024-08-01T08:18:17Z</time>
      </trkpt>
      <trkpt lat="43.41834" lon="1.12224">
        <ele>246.6</ele>
        <time>2024-08-01T08:18:18Z</time>
      </trkpt>
      <trkpt lat="43.41828" lon="1.1222">
        <ele>246.4</ele>
        <time>2024-08-01T08:18:19Z</time>
      </trkpt>
      <trkpt lat="43.41821" lon="1.12217">
        <ele>246.2</ele>
        <time>2024-08-01T08:18:20Z</time>
      </trkpt>
      <trkpt lat="43.41815" lon="1.12214">
        <ele>246</ele>
        <time>2024-08-01T08:18:21Z</time>
      </trkpt>
      <trkpt lat="43.41808" lon="1.12211">
        <ele>245.6</ele>
        <time>2024-08-01T08:18:22Z</time>
      </trkpt>
      <trkpt lat="43.41801" lon="1.12208">
        <ele>245.8</ele>
        <time>2024-08-01T08:18:23Z</time>
      </trkpt>
      <trkpt lat="43.41795" lon="1.12204">
        <ele>245.6</ele>
        <time>2024-08-01T08:18:24Z</time>
      </trkpt>
      <trkpt lat="43.41788" lon="1.12201">
        <ele>245.4</ele>
        <time>2024-08-01T08:18:25Z</time>
      </trkpt>
      <trkpt lat="43.41782" lon="1.12198">
        <ele>245.2</ele>
        <time>2024-08-01T08:18:26Z</time>
      </trkpt>
      <trkpt lat="43.41777" lon="1.12196">
        <ele>245.2</ele>
        <time>2024-08-01T08:18:27Z</time>
      </trkpt>
      <trkpt lat="43.41771" lon="1.12193">
        <ele>245.2</ele>
        <time>2024-08-01T08:18:28Z</time>
      </trkpt>
      <trkpt lat="43.41765" lon="1.1219">
        <ele>245.2</ele>
        <time>2024-08-01T08:18:29Z</time>
      </trkpt>
      <trkpt lat="43.4176" lon="1.12188">
        <ele>245.2</ele>
        <time>2024-08-01T08:18:30Z</time>
      </trkpt>
      <trkpt lat="43.41755" lon="1.12185">
        <ele>245.2</ele>
        <time>2024-08-01T08:18:31Z</time>
      </trkpt>
      <trkpt lat="43.4175" lon="1.12182">
        <ele>245.2</ele>
        <time>2024-08-01T08:18:32Z</time>
      </trkpt>
      <trkpt lat="43.41745" lon="1.1218">
        <ele>245.2</ele>
        <time>2024-08-01T08:18:33Z</time>
      </trkpt>
      <trkpt lat="43.4174" lon="1.12177">
        <ele>245.4</ele>
        <time>2024-08-01T08:18:34Z</time>
      </trkpt>
      <trkpt lat="43.41735" lon="1.12175">
        <ele>245.6</ele>
        <time>2024-08-01T08:18:35Z</time>
      </trkpt>
      <trkpt lat="43.41731" lon="1.12172">
        <ele>245.8</ele>
        <time>2024-08-01T08:18:36Z</time>
      </trkpt>
      <trkpt lat="43.41727" lon="1.1217">
        <ele>246</ele>
        <time>2024-08-01T08:18:37Z</time>
      </trkpt>
      <trkpt lat="43.41723" lon="1.12168">
        <ele>246.2</ele>
        <time>2024-08-01T08:18:38Z</time>
      </trkpt>
      <trkpt lat="43.41719" lon="1.12167">
        <ele>246.4</ele>
        <time>2024-08-01T08:18:39Z</time>
      </trkpt>
      <trkpt lat="43.41715" lon="1.12164">
        <ele>246.6</ele>
        <time>2024-08-01T08:18:40Z</time>
      </trkpt>
      <trkpt lat="43.41711" lon="1.12162">
        <ele>247</ele>
        <time>2024-08-01T08:18:41Z</time>
      </trkpt>
      <trkpt lat="43.41707" lon="1.1216">
        <ele>247.2</ele>
        <time>2024-08-01T08:18:42Z</time>
      </trkpt>
      <trkpt lat="43.41703" lon="1.12158">
        <ele>247.4</ele>
        <time>2024-08-01T08:18:43Z</time>
      </trkpt>
      <trkpt lat="43.417" lon="1.12157">
        <ele>247.8</ele>
        <time>2024-08-01T08:18:44Z</time>
      </trkpt>
      <trkpt lat="43.41697" lon="1.12155">
        <ele>248.2</ele>
        <time>2024-08-01T08:18:45Z</time>
      </trkpt>
      <trkpt lat="43.41695" lon="1.12154">
        <ele>248.4</ele>
        <time>2024-08-01T08:18:46Z</time>
      </trkpt>
      <trkpt lat="43.41691" lon="1.12153">
        <ele>248.8</ele>
        <time>2024-08-01T08:18:47Z</time>
      </trkpt>
      <trkpt lat="43.41688" lon="1.12151">
        <ele>249</ele>
        <time>2024-08-01T08:18:48Z</time>
      </trkpt>
      <trkpt lat="43.41685" lon="1.1215">
        <ele>249</ele>
        <time>2024-08-01T08:18:49Z</time>
      </trkpt>
      <trkpt lat="43.41683" lon="1.12149">
        <ele>249.4</ele>
        <time>2024-08-01T08:18:50Z</time>
      </trkpt>
      <trkpt lat="43.4168" lon="1.12147">
        <ele>249.8</ele>
        <time>2024-08-01T08:18:51Z</time>
      </trkpt>
      <trkpt lat="43.41678" lon="1.12146">
        <ele>250.2</ele>
        <time>2024-08-01T08:18:52Z</time>
      </trkpt>
      <trkpt lat="43.41674" lon="1.12144">
        <ele>250.4</ele>
        <time>2024-08-01T08:18:53Z</time>
      </trkpt>
      <trkpt lat="43.41672" lon="1.12143">
        <ele>250.6</ele>
        <time>2024-08-01T08:18:54Z</time>
      </trkpt>
      <trkpt lat="43.41669" lon="1.12142">
        <ele>251</ele>
        <time>2024-08-01T08:18:55Z</time>
      </trkpt>
      <trkpt lat="43.41666" lon="1.1214">
        <ele>251</ele>
        <time>2024-08-01T08:18:56Z</time>
      </trkpt>
      <trkpt lat="43.41665" lon="1.12139">
        <ele>251.4</ele>
        <time>2024-08-01T08:18:57Z</time>
      </trkpt>
      <trkpt lat="43.41663" lon="1.12139">
        <ele>251.6</ele>
        <time>2024-08-01T08:18:58Z</time>
      </trkpt>
      <trkpt lat="43.41661" lon="1.12137">
        <ele>252</ele>
        <time>2024-08-01T08:18:59Z</time>
      </trkpt>
      <trkpt lat="43.4166" lon="1.12136">
        <ele>252.2</ele>
        <time>2024-08-01T08:19:00Z</time>
      </trkpt>
      <trkpt lat="43.41659" lon="1.12136">
        <ele>252.4</ele>
        <time>2024-08-01T08:19:01Z</time>
      </trkpt>
      <trkpt lat="43.41658" lon="1.12135">
        <ele>252.6</ele>
        <time>2024-08-01T08:19:02Z</time>
      </trkpt>
      <trkpt lat="43.41656" lon="1.12134">
        <ele>252.8</ele>
        <time>2024-08-01T08:19:03Z</time>
      </trkpt>
      <trkpt lat="43.41654" lon="1.12133">
        <ele>253</ele>
        <time>2024-08-01T08:19:04Z</time>
      </trkpt>
      <trkpt lat="43.41652" lon="1.12133">
        <ele>253.2</ele>
        <time>2024-08-01T08:19:05Z</time>
      </trkpt>
      <trkpt lat="43.4165" lon="1.12132">
        <ele>253.4</ele>
        <time>2024-08-01T08:19:06Z</time>
      </trkpt>
      <trkpt lat="43.41648" lon="1.12132">
        <ele>253.6</ele>
        <time>2024-08-01T08:19:07Z</time>
      </trkpt>
      <trkpt lat="43.41647" lon="1.12132">
        <ele>253.6</ele>
        <time>2024-08-01T08:19:08Z</time>
      </trkpt>
      <trkpt lat="43.41646" lon="1.12131">
        <ele>253.6</ele>
        <time>2024-08-01T08:19:09Z</time>
      </trkpt>
      <trkpt lat="43.41644" lon="1.12129">
        <ele>253.8</ele>
        <time>2024-08-01T08:19:10Z</time>
      </trkpt>
      <trkpt lat="43.41644" lon="1.12129">
        <ele>253.8</ele>
        <time>2024-08-01T08:19:11Z</time>
      </trkpt>
      <trkpt lat="43.41642" lon="1.12128">
        <ele>253.8</ele>
        <time>2024-08-01T08:19:12Z</time>
      </trkpt>
      <trkpt lat="43.41641" lon="1.12128">
        <ele>254</ele>
        <time>2024-08-01T08:19:13Z</time>
      </trkpt>
      <trkpt lat="43.4164" lon="1.12128">
        <ele>254.2</ele>
        <time>2024-08-01T08:19:14Z</time>
      </trkpt>
      <trkpt lat="43.41638" lon="1.12127">
        <ele>254.2</ele>
        <time>2024-08-01T08:19:15Z</time>
      </trkpt>
      <trkpt lat="43.41637" lon="1.12126">
        <ele>254.4</ele>
        <time>2024-08-01T08:19:16Z</time>
      </trkpt>
      <trkpt lat="43.41635" lon="1.12126">
        <ele>254.4</ele>
        <time>2024-08-01T08:19:17Z</time>
      </trkpt>
      <trkpt lat="43.41634" lon="1.12125">
        <ele>254.6</ele>
        <time>2024-08-01T08:19:18Z</time>
      </trkpt>
      <trkpt lat="43.41632" lon="1.12124">
        <ele>254.6</ele>
        <time>2024-08-01T08:19:19Z</time>
      </trkpt>
      <trkpt lat="43.41631" lon="1.12123">
        <ele>254.6</ele>
        <time>2024-08-01T08:19:20Z</time>
      </trkpt>
      <trkpt lat="43.41629" lon="1.12122">
        <ele>254.6</ele>
        <time>2024-08-01T08:19:21Z</time>
      </trkpt>
      <trkpt lat="43.41627" lon="1.12122">
        <ele>254.8</ele>
        <time>2024-08-01T08:19:22Z</time>
      </trkpt>
      <trkpt lat="43.41626" lon="1.12121">
        <ele>254.8</ele>
        <time>2024-08-01T08:19:23Z</time>
      </trkpt>
      <trkpt lat="43.41623" lon="1.1212">
        <ele>255</ele>
        <time>2024-08-01T08:19:24Z</time>
      </trkpt>
      <trkpt lat="43.41621" lon="1.12119">
        <ele>255</ele>
        <time>2024-08-01T08:19:25Z</time>
      </trkpt>
      <trkpt lat="43.4162" lon="1.12118">
        <ele>255.2</ele>
        <time>2024-08-01T08:19:26Z</time>
      </trkpt>
      <trkpt lat="43.41618" lon="1.12117">
        <ele>255.2</ele>
        <time>2024-08-01T08:19:27Z</time>
      </trkpt>
      <trkpt lat="43.41616" lon="1.12116">
        <ele>255.4</ele>
        <time>2024-08-01T08:19:28Z</time>
      </trkpt>
      <trkpt lat="43.41614" lon="1.12115">
        <ele>255.4</ele>
        <time>2024-08-01T08:19:29Z</time>
      </trkpt>
      <trkpt lat="43.41612" lon="1.12114">
        <ele>255.6</ele>
        <time>2024-08-01T08:19:30Z</time>
      </trkpt>
      <trkpt lat="43.41609" lon="1.12113">
        <ele>255.6</ele>
        <time>2024-08-01T08:19:31Z</time>
      </trkpt>
      <trkpt lat="43.41607" lon="1.12112">
        <ele>256</ele>
        <time>2024-08-01T08:19:32Z</time>
      </trkpt>
      <trkpt lat="43.41604" lon="1.12111">
        <ele>256.2</ele>
        <time>2024-08-01T08:19:33Z</time>
      </trkpt>
      <trkpt lat="43.41602" lon="1.12109">
        <ele>256.2</ele>
        <time>2024-08-01T08:19:34Z</time>
      </trkpt>
      <trkpt lat="43.41599" lon="1.12108">
        <ele>256.6</ele>
        <time>2024-08-01T08:19:35Z</time>
      </trkpt>
      <trkpt lat="43.41596" lon="1.12106">
        <ele>256.6</ele>
        <time>2024-08-01T08:19:36Z</time>
      </trkpt>
      <trkpt lat="43.41594" lon="1.12105">
        <ele>257</ele>
        <time>2024-08-01T08:19:37Z</time>
      </trkpt>
      <trkpt lat="43.41591" lon="1.12103">
        <ele>257</ele>
        <time>2024-08-01T08:19:38Z</time>
      </trkpt>
      <trkpt lat="43.41588" lon="1.12102">
        <ele>257.2</ele>
        <time>2024-08-01T08:19:39Z</time>
      </trkpt>
      <trkpt lat="43.41586" lon="1.12101">
        <ele>257.4</ele>
        <time>2024-08-01T08:19:40Z</time>
      </trkpt>
      <trkpt lat="43.41584" lon="1.121">
        <ele>257.6</ele>
        <time>2024-08-01T08:19:41Z</time>
      </trkpt>
      <trkpt lat="43.41581" lon="1.12099">
        <ele>257.8</ele>
        <time>2024-08-01T08:19:42Z</time>
      </trkpt>
      <trkpt lat="43.41579" lon="1.12097">
        <ele>257.8</ele>
        <time>2024-08-01T08:19:43Z</time>
      </trkpt>
      <trkpt lat="43.41576" lon="1.12096">
        <ele>258</ele>
        <time>2024-08-01T08:19:44Z</time>
      </trkpt>
      <trkpt lat="43.41573" lon="1.12094">
        <ele>258</ele>
        <time>2024-08-01T08:19:45Z</time>
      </trkpt>
      <trkpt lat="43.4157" lon="1.12093">
        <ele>258.8</ele>
        <time>2024-08-01T08:19:46Z</time>
      </trkpt>
      <trkpt lat="43.41568" lon="1.12091">
        <ele>259</ele>
        <time>2024-08-01T08:19:47Z</time>
      </trkpt>
      <trkpt lat="43.41566" lon="1.12091">
        <ele>259.2</ele>
        <time>2024-08-01T08:19:48Z</time>
      </trkpt>
      <trkpt lat="43.41564" lon="1.1209">
        <ele>259.2</ele>
        <time>2024-08-01T08:19:49Z</time>
      </trkpt>
      <trkpt lat="43.41561" lon="1.12088">
        <ele>259.4</ele>
        <time>2024-08-01T08:19:50Z</time>
      </trkpt>
      <trkpt lat="43.41558" lon="1.12087">
        <ele>259.6</ele>
        <time>2024-08-01T08:19:51Z</time>
      </trkpt>
      <trkpt lat="43.41555" lon="1.12085">
        <ele>259.8</ele>
        <time>2024-08-01T08:19:52Z</time>
      </trkpt>
      <trkpt lat="43.41554" lon="1.12084">
        <ele>260</ele>
        <time>2024-08-01T08:19:53Z</time>
      </trkpt>
      <trkpt lat="43.41551" lon="1.12083">
        <ele>260.2</ele>
        <time>2024-08-01T08:19:54Z</time>
      </trkpt>
      <trkpt lat="43.41549" lon="1.12082">
        <ele>260.6</ele>
        <time>2024-08-01T08:19:55Z</time>
      </trkpt>
      <trkpt lat="43.41546" lon="1.12081">
        <ele>260.8</ele>
        <time>2024-08-01T08:19:56Z</time>
      </trkpt>
      <trkpt lat="43.41544" lon="1.1208">
        <ele>261</ele>
        <time>2024-08-01T08:19:57Z</time>
      </trkpt>
      <trkpt lat="43.41542" lon="1.12079">
        <ele>261.2</ele>
        <time>2024-08-01T08:19:58Z</time>
      </trkpt>
      <trkpt lat="43.4154" lon="1.12077">
        <ele>261.2</ele>
        <time>2024-08-01T08:19:59Z</time>
      </trkpt>
      <trkpt lat="43.41538" lon="1.12077">
        <ele>261.6</ele>
        <time>2024-08-01T08:20:00Z</time>
      </trkpt>
      <trkpt lat="43.41536" lon="1.12076">
        <ele>261.6</ele>
        <time>2024-08-01T08:20:01Z</time>
      </trkpt>
      <trkpt lat="43.41534" lon="1.12075">
        <ele>262</ele>
        <time>2024-08-01T08:20:02Z</time>
      </trkpt>
      <trkpt lat="43.41532" lon="1.12074">
        <ele>262.2</ele>
        <time>2024-08-01T08:20:03Z</time>
      </trkpt>
      <trkpt lat="43.4153" lon="1.12073">
        <ele>262.2</ele>
        <time>2024-08-01T08:20:04Z</time>
      </trkpt>
      <trkpt lat="43.41528" lon="1.12072">
        <ele>262.4</ele>
        <time>2024-08-01T08:20:05Z</time>
      </trkpt>
      <trkpt lat="43.41525" lon="1.12071">
        <ele>262.6</ele>
        <time>2024-08-01T08:20:06Z</time>
      </trkpt>
      <trkpt lat="43.41523" lon="1.1207">
        <ele>262.6</ele>
        <time>2024-08-01T08:20:07Z</time>
      </trkpt>
      <trkpt lat="43.4152" lon="1.12068">
        <ele>262.8</ele>
        <time>2024-08-01T08:20:08Z</time>
      </trkpt>
      <trkpt lat="43.41518" lon="1.12067">
        <ele>263.2</ele>
        <time>2024-08-01T08:20:09Z</time>
      </trkpt>
      <trkpt lat="43.41515" lon="1.12066">
        <ele>263.4</ele>
        <time>2024-08-01T08:20:10Z</time>
      </trkpt>
      <trkpt lat="43.41514" lon="1.12065">
        <ele>263.6</ele>
        <time>2024-08-01T08:20:11Z</time>
      </trkpt>
      <trkpt lat="43.41512" lon="1.12065">
        <ele>263.8</ele>
        <time>2024-08-01T08:20:12Z</time>
      </trkpt>
      <trkpt lat="43.4151" lon="1.12064">
        <ele>264</ele>
        <time>2024-08-01T08:20:13Z</time>
      </trkpt>
      <trkpt lat="43.41507" lon="1.12064">
        <ele>264.2</ele>
        <time>2024-08-01T08:20:14Z</time>
      </trkpt>
      <trkpt lat="43.41504" lon="1.12062">
        <ele>264.2</ele>
        <time>2024-08-01T08:20:15Z</time>
      </trkpt>
      <trkpt lat="43.41501" lon="1.12061">
        <ele>264.6</ele>
        <time>2024-08-01T08:20:16Z</time>
      </trkpt>
      <trkpt lat="43.41497" lon="1.12059">
        <ele>265</ele>
        <time>2024-08-01T08:20:17Z</time>
      </trkpt>
      <trkpt lat="43.41495" lon="1.12058">
        <ele>265</ele>
        <time>2024-08-01T08:20:18Z</time>
      </trkpt>
      <trkpt lat="43.41492" lon="1.12056">
        <ele>265.2</ele>
        <time>2024-08-01T08:20:19Z</time>
      </trkpt>
      <trkpt lat="43.41489" lon="1.12055">
        <ele>265.4</ele>
        <time>2024-08-01T08:20:20Z</time>
      </trkpt>
      <trkpt lat="43.41486" lon="1.12054">
        <ele>265.6</ele>
        <time>2024-08-01T08:20:21Z</time>
      </trkpt>
      <trkpt lat="43.41483" lon="1.12052">
        <ele>265.8</ele>
        <time>2024-08-01T08:20:22Z</time>
      </trkpt>
      <trkpt lat="43.4148" lon="1.1205">
        <ele>266</ele>
        <time>2024-08-01T08:20:23Z</time>
      </trkpt>
      <trkpt lat="43.41476" lon="1.12048">
        <ele>266.2</ele>
        <time>2024-08-01T08:20:24Z</time>
      </trkpt>
      <trkpt lat="43.41473" lon="1.12046">
        <ele>266.4</ele>
        <time>2024-08-01T08:20:25Z</time>
      </trkpt>
      <trkpt lat="43.41471" lon="1.12045">
        <ele>266.4</ele>
        <time>2024-08-01T08:20:26Z</time>
      </trkpt>
      <trkpt lat="43.41468" lon="1.12043">
        <ele>266.6</ele>
        <time>2024-08-01T08:20:27Z</time>
      </trkpt>
      <trkpt lat="43.41465" lon="1.12042">
        <ele>267</ele>
        <time>2024-08-01T08:20:28Z</time>
      </trkpt>
      <trkpt lat="43.41462" lon="1.1204">
        <ele>267.2</ele>
        <time>2024-08-01T08:20:29Z</time>
      </trkpt>
      <trkpt lat="43.4146" lon="1.12038">
        <ele>267.6</ele>
        <time>2024-08-01T08:20:30Z</time>
      </trkpt>
      <trkpt lat="43.41457" lon="1.12037">
        <ele>268</ele>
        <time>2024-08-01T08:20:31Z</time>
      </trkpt>
      <trkpt lat="43.41454" lon="1.12035">
        <ele>268</ele>
        <time>2024-08-01T08:20:32Z</time>
      </trkpt>
      <trkpt lat="43.41451" lon="1.12033">
        <ele>268.2</ele>
        <time>2024-08-01T08:20:33Z</time>
      </trkpt>
      <trkpt lat="43.41449" lon="1.12032">
        <ele>268.4</ele>
        <time>2024-08-01T08:20:34Z</time>
      </trkpt>
      <trkpt lat="43.41446" lon="1.12031">
        <ele>268.6</ele>
        <time>2024-08-01T08:20:35Z</time>
      </trkpt>
      <trkpt lat="43.41443" lon="1.1203">
        <ele>268.6</ele>
        <time>2024-08-01T08:20:36Z</time>
      </trkpt>
      <trkpt lat="43.4144" lon="1.12028">
        <ele>269.2</ele>
        <time>2024-08-01T08:20:37Z</time>
      </trkpt>
      <trkpt lat="43.41437" lon="1.12026">
        <ele>269.4</ele>
        <time>2024-08-01T08:20:38Z</time>
      </trkpt>
      <trkpt lat="43.41434" lon="1.12025">
        <ele>269.4</ele>
        <time>2024-08-01T08:20:39Z</time>
      </trkpt>
      <trkpt lat="43.41432" lon="1.12023">
        <ele>269.8</ele>
        <time>2024-08-01T08:20:40Z</time>
      </trkpt>
      <trkpt lat="43.41429" lon="1.12023">
        <ele>269.8</ele>
        <time>2024-08-01T08:20:41Z</time>
      </trkpt>
      <trkpt lat="43.41426" lon="1.12021">
        <ele>270</ele>
        <time>2024-08-01T08:20:42Z</time>
      </trkpt>
      <trkpt lat="43.41423" lon="1.1202">
        <ele>270.4</ele>
        <time>2024-08-01T08:20:43Z</time>
      </trkpt>
      <trkpt lat="43.4142" lon="1.12019">
        <ele>270.4</ele>
        <time>2024-08-01T08:20:44Z</time>
      </trkpt>
      <trkpt lat="43.41416" lon="1.12017">
        <ele>270.4</ele>
        <time>2024-08-01T08:20:45Z</time>
      </trkpt>
      <trkpt lat="43.41412" lon="1.12015">
        <ele>270.6</ele>
        <time>2024-08-01T08:20:46Z</time>
      </trkpt>
      <trkpt lat="43.41409" lon="1.12014">
        <ele>271</ele>
        <time>2024-08-01T08:20:47Z</time>
      </trkpt>
      <trkpt lat="43.41406" lon="1.12012">
        <ele>271.2</ele>
        <time>2024-08-01T08:20:48Z</time>
      </trkpt>
      <trkpt lat="43.41403" lon="1.12011">
        <ele>271.4</ele>
        <time>2024-08-01T08:20:49Z</time>
      </trkpt>
      <trkpt lat="43.414" lon="1.12009">
        <ele>271.8</ele>
        <time>2024-08-01T08:20:50Z</time>
      </trkpt>
      <trkpt lat="43.41398" lon="1.12008">
        <ele>272</ele>
        <time>2024-08-01T08:20:51Z</time>
      </trkpt>
      <trkpt lat="43.41395" lon="1.12008">
        <ele>272.4</ele>
        <time>2024-08-01T08:20:52Z</time>
      </trkpt>
      <trkpt lat="43.41392" lon="1.12006">
        <ele>272.4</ele>
        <time>2024-08-01T08:20:53Z</time>
      </trkpt>
      <trkpt lat="43.41389" lon="1.12005">
        <ele>272.8</ele>
        <time>2024-08-01T08:20:54Z</time>
      </trkpt>
      <trkpt lat="43.41386" lon="1.12004">
        <ele>273</ele>
        <time>2024-08-01T08:20:55Z</time>
      </trkpt>
      <trkpt lat="43.41383" lon="1.12003">
        <ele>273</ele>
        <time>2024-08-01T08:20:56Z</time>
      </trkpt>
      <trkpt lat="43.41381" lon="1.12002">
        <ele>273.6</ele>
        <time>2024-08-01T08:20:57Z</time>
      </trkpt>
      <trkpt lat="43.41379" lon="1.12001">
        <ele>273.8</ele>
        <time>2024-08-01T08:20:58Z</time>
      </trkpt>
      <trkpt lat="43.41376" lon="1.12">
        <ele>274</ele>
        <time>2024-08-01T08:20:59Z</time>
      </trkpt>
      <trkpt lat="43.41374" lon="1.11998">
        <ele>274.2</ele>
        <time>2024-08-01T08:21:00Z</time>
      </trkpt>
      <trkpt lat="43.41371" lon="1.11997">
        <ele>274.4</ele>
        <time>2024-08-01T08:21:01Z</time>
      </trkpt>
      <trkpt lat="43.41369" lon="1.11996">
        <ele>274.6</ele>
        <time>2024-08-01T08:21:02Z</time>
      </trkpt>
      <trkpt lat="43.41366" lon="1.11994">
        <ele>275</ele>
        <time>2024-08-01T08:21:03Z</time>
      </trkpt>
      <trkpt lat="43.41364" lon="1.11992">
        <ele>275.2</ele>
        <time>2024-08-01T08:21:04Z</time>
      </trkpt>
      <trkpt lat="43.41361" lon="1.11991">
        <ele>275.2</ele>
        <time>2024-08-01T08:21:05Z</time>
      </trkpt>
      <trkpt lat="43.41358" lon="1.1199">
        <ele>275.6</ele>
        <time>2024-08-01T08:21:06Z</time>
      </trkpt>
      <trkpt lat="43.41356" lon="1.11989">
        <ele>275.6</ele>
        <time>2024-08-01T08:21:07Z</time>
      </trkpt>
      <trkpt lat="43.41353" lon="1.11987">
        <ele>275.8</ele>
        <time>2024-08-01T08:21:08Z</time>
      </trkpt>
      <trkpt lat="43.41351" lon="1.11986">
        <ele>276</ele>
        <time>2024-08-01T08:21:09Z</time>
      </trkpt>
      <trkpt lat="43.41348" lon="1.11984">
        <ele>276.2</ele>
        <time>2024-08-01T08:21:10Z</time>
      </trkpt>
      <trkpt lat="43.41346" lon="1.11982">
        <ele>276.6</ele>
        <time>2024-08-01T08:21:11Z</time>
      </trkpt>
      <trkpt lat="43.41344" lon="1.1198">
        <ele>276.6</ele>
        <time>2024-08-01T08:21:12Z</time>
      </trkpt>
      <trkpt lat="43.41343" lon="1.11978">
        <ele>277</ele>
        <time>2024-08-01T08:21:13Z</time>
      </trkpt>
      <trkpt lat="43.41344" lon="1.11975">
        <ele>277</ele>
        <time>2024-08-01T08:21:14Z</time>
      </trkpt>
      <trkpt lat="43.41345" lon="1.11972">
        <ele>277.2</ele>
        <time>2024-08-01T08:21:15Z</time>
      </trkpt>
      <trkpt lat="43.41347" lon="1.11968">
        <ele>277.2</ele>
        <time>2024-08-01T08:21:16Z</time>
      </trkpt>
      <trkpt lat="43.41348" lon="1.11964">
        <ele>277.4</ele>
        <time>2024-08-01T08:21:17Z</time>
      </trkpt>
      <trkpt lat="43.4135" lon="1.11959">
        <ele>277.6</ele>
        <time>2024-08-01T08:21:18Z</time>
      </trkpt>
      <trkpt lat="43.41353" lon="1.11955">
        <ele>277.6</ele>
        <time>2024-08-01T08:21:19Z</time>
      </trkpt>
      <trkpt lat="43.41355" lon="1.11951">
        <ele>277.8</ele>
        <time>2024-08-01T08:21:20Z</time>
      </trkpt>
      <trkpt lat="43.41357" lon="1.11946">
        <ele>277.8</ele>
        <time>2024-08-01T08:21:21Z</time>
      </trkpt>
      <trkpt lat="43.41359" lon="1.11941">
        <ele>278</ele>
        <time>2024-08-01T08:21:22Z</time>
      </trkpt>
      <trkpt lat="43.41361" lon="1.11936">
        <ele>278</ele>
        <time>2024-08-01T08:21:23Z</time>
      </trkpt>
      <trkpt lat="43.41363" lon="1.11931">
        <ele>278.2</ele>
        <time>2024-08-01T08:21:24Z</time>
      </trkpt>
      <trkpt lat="43.41366" lon="1.11926">
        <ele>278.2</ele>
        <time>2024-08-01T08:21:25Z</time>
      </trkpt>
      <trkpt lat="43.41367" lon="1.11921">
        <ele>278.2</ele>
        <time>2024-08-01T08:21:26Z</time>
      </trkpt>
      <trkpt lat="43.4137" lon="1.11916">
        <ele>278.4</ele>
        <time>2024-08-01T08:21:27Z</time>
      </trkpt>
      <trkpt lat="43.41371" lon="1.1191">
        <ele>278.4</ele>
        <time>2024-08-01T08:21:28Z</time>
      </trkpt>
      <trkpt lat="43.41373" lon="1.11904">
        <ele>278.4</ele>
        <time>2024-08-01T08:21:29Z</time>
      </trkpt>
      <trkpt lat="43.41375" lon="1.11898">
        <ele>278.4</ele>
        <time>2024-08-01T08:21:30Z</time>
      </trkpt>
      <trkpt lat="43.41377" lon="1.11892">
        <ele>278.4</ele>
        <time>2024-08-01T08:21:31Z</time>
      </trkpt>
      <trkpt lat="43.41378" lon="1.11886">
        <ele>278.4</ele>
        <time>2024-08-01T08:21:32Z</time>
      </trkpt>
      <trkpt lat="43.41378" lon="1.11879">
        <ele>278.4</ele>
        <time>2024-08-01T08:21:33Z</time>
      </trkpt>
      <trkpt lat="43.41379" lon="1.11872">
        <ele>278.4</ele>
        <time>2024-08-01T08:21:34Z</time>
      </trkpt>
      <trkpt lat="43.41379" lon="1.11865">
        <ele>278.4</ele>
        <time>2024-08-01T08:21:35Z</time>
      </trkpt>
      <trkpt lat="43.41379" lon="1.11857">
        <ele>278.2</ele>
        <time>2024-08-01T08:21:36Z</time>
      </trkpt>
      <trkpt lat="43.41379" lon="1.11851">
        <ele>278.2</ele>
        <time>2024-08-01T08:21:37Z</time>
      </trkpt>
      <trkpt lat="43.41379" lon="1.11844">
        <ele>278.2</ele>
        <time>2024-08-01T08:21:38Z</time>
      </trkpt>
      <trkpt lat="43.41379" lon="1.11837">
        <ele>278.2</ele>
        <time>2024-08-01T08:21:39Z</time>
      </trkpt>
      <trkpt lat="43.41378" lon="1.11829">
        <ele>278.2</ele>
        <time>2024-08-01T08:21:40Z</time>
      </trkpt>
      <trkpt lat="43.41377" lon="1.11821">
        <ele>278.2</ele>
        <time>2024-08-01T08:21:41Z</time>
      </trkpt>
      <trkpt lat="43.41376" lon="1.11814">
        <ele>278.2</ele>
        <time>2024-08-01T08:21:42Z</time>
      </trkpt>
      <trkpt lat="43.41376" lon="1.11807">
        <ele>278.2</ele>
        <time>2024-08-01T08:21:43Z</time>
      </trkpt>
      <trkpt lat="43.41375" lon="1.118">
        <ele>278.2</ele>
        <time>2024-08-01T08:21:44Z</time>
      </trkpt>
      <trkpt lat="43.41374" lon="1.11793">
        <ele>278.4</ele>
        <time>2024-08-01T08:21:45Z</time>
      </trkpt>
      <trkpt lat="43.41373" lon="1.11786">
        <ele>278.6</ele>
        <time>2024-08-01T08:21:46Z</time>
      </trkpt>
      <trkpt lat="43.41372" lon="1.11779">
        <ele>278.6</ele>
        <time>2024-08-01T08:21:47Z</time>
      </trkpt>
      <trkpt lat="43.41372" lon="1.11772">
        <ele>278.6</ele>
        <time>2024-08-01T08:21:48Z</time>
      </trkpt>
      <trkpt lat="43.41371" lon="1.11765">
        <ele>278.8</ele>
        <time>2024-08-01T08:21:49Z</time>
      </trkpt>
      <trkpt lat="43.4137" lon="1.11758">
        <ele>278.8</ele>
        <time>2024-08-01T08:21:50Z</time>
      </trkpt>
      <trkpt lat="43.41369" lon="1.11751">
        <ele>278.8</ele>
        <time>2024-08-01T08:21:51Z</time>
      </trkpt>
      <trkpt lat="43.41367" lon="1.11746">
        <ele>278.8</ele>
        <time>2024-08-01T08:21:52Z</time>
      </trkpt>
      <trkpt lat="43.41364" lon="1.11742">
        <ele>279</ele>
        <time>2024-08-01T08:21:53Z</time>
      </trkpt>
      <trkpt lat="43.41361" lon="1.11742">
        <ele>279</ele>
        <time>2024-08-01T08:21:54Z</time>
      </trkpt>
      <trkpt lat="43.41357" lon="1.11744">
        <ele>279</ele>
        <time>2024-08-01T08:21:55Z</time>
      </trkpt>
      <trkpt lat="43.41353" lon="1.11746">
        <ele>279</ele>
        <time>2024-08-01T08:21:56Z</time>
      </trkpt>
      <trkpt lat="43.41348" lon="1.11747">
        <ele>279.2</ele>
        <time>2024-08-01T08:21:57Z</time>
      </trkpt>
      <trkpt lat="43.41343" lon="1.11748">
        <ele>279.2</ele>
        <time>2024-08-01T08:21:58Z</time>
      </trkpt>
      <trkpt lat="43.41338" lon="1.11749">
        <ele>279.2</ele>
        <time>2024-08-01T08:21:59Z</time>
      </trkpt>
      <trkpt lat="43.41333" lon="1.1175">
        <ele>279.2</ele>
        <time>2024-08-01T08:22:00Z</time>
      </trkpt>
      <trkpt lat="43.41328" lon="1.11751">
        <ele>279.4</ele>
        <time>2024-08-01T08:22:01Z</time>
      </trkpt>
      <trkpt lat="43.41324" lon="1.11752">
        <ele>279.4</ele>
        <time>2024-08-01T08:22:02Z</time>
      </trkpt>
      <trkpt lat="43.41319" lon="1.11753">
        <ele>279.6</ele>
        <time>2024-08-01T08:22:03Z</time>
      </trkpt>
      <trkpt lat="43.41314" lon="1.11754">
        <ele>279.6</ele>
        <time>2024-08-01T08:22:04Z</time>
      </trkpt>
      <trkpt lat="43.41309" lon="1.11755">
        <ele>279.6</ele>
        <time>2024-08-01T08:22:05Z</time>
      </trkpt>
      <trkpt lat="43.41305" lon="1.11756">
        <ele>279.6</ele>
        <time>2024-08-01T08:22:06Z</time>
      </trkpt>
      <trkpt lat="43.41301" lon="1.11758">
        <ele>279.8</ele>
        <time>2024-08-01T08:22:07Z</time>
      </trkpt>
      <trkpt lat="43.41297" lon="1.11758">
        <ele>279.8</ele>
        <time>2024-08-01T08:22:08Z</time>
      </trkpt>
      <trkpt lat="43.41292" lon="1.11759">
        <ele>280</ele>
        <time>2024-08-01T08:22:09Z</time>
      </trkpt>
      <trkpt lat="43.41287" lon="1.1176">
        <ele>280</ele>
        <time>2024-08-01T08:22:10Z</time>
      </trkpt>
      <trkpt lat="43.41282" lon="1.1176">
        <ele>280</ele>
        <time>2024-08-01T08:22:11Z</time>
      </trkpt>
      <trkpt lat="43.41277" lon="1.1176">
        <ele>280.2</ele>
        <time>2024-08-01T08:22:12Z</time>
      </trkpt>
      <trkpt lat="43.41272" lon="1.11761">
        <ele>280.2</ele>
        <time>2024-08-01T08:22:13Z</time>
      </trkpt>
      <trkpt lat="43.41267" lon="1.11761">
        <ele>280.2</ele>
        <time>2024-08-01T08:22:14Z</time>
      </trkpt>
      <trkpt lat="43.41262" lon="1.11762">
        <ele>280.2</ele>
        <time>2024-08-01T08:22:15Z</time>
      </trkpt>
      <trkpt lat="43.41257" lon="1.11763">
        <ele>280.2</ele>
        <time>2024-08-01T08:22:16Z</time>
      </trkpt>
      <trkpt lat="43.41253" lon="1.11764">
        <ele>280.2</ele>
        <time>2024-08-01T08:22:17Z</time>
      </trkpt>
      <trkpt lat="43.41248" lon="1.11764">
        <ele>280.2</ele>
        <time>2024-08-01T08:22:18Z</time>
      </trkpt>
      <trkpt lat="43.41244" lon="1.11765">
        <ele>280.4</ele>
        <time>2024-08-01T08:22:19Z</time>
      </trkpt>
      <trkpt lat="43.41242" lon="1.11766">
        <ele>280.4</ele>
        <time>2024-08-01T08:22:20Z</time>
      </trkpt>
      <trkpt lat="43.41239" lon="1.11766">
        <ele>280.4</ele>
        <time>2024-08-01T08:22:21Z</time>
      </trkpt>
      <trkpt lat="43.41237" lon="1.11767">
        <ele>280.6</ele>
        <time>2024-08-01T08:22:22Z</time>
      </trkpt>
      <trkpt lat="43.41235" lon="1.11767">
        <ele>280.6</ele>
        <time>2024-08-01T08:22:23Z</time>
      </trkpt>
      <trkpt lat="43.41234" lon="1.11766">
        <ele>280.6</ele>
        <time>2024-08-01T08:22:24Z</time>
      </trkpt>
      <trkpt lat="43.41233" lon="1.11766">
        <ele>280.6</ele>
        <time>2024-08-01T08:22:25Z</time>
      </trkpt>
      <trkpt lat="43.41232" lon="1.11767">
        <ele>280.6</ele>
        <time>2024-08-01T08:22:26Z</time>
      </trkpt>
      <trkpt lat="43.41232" lon="1.11768">
        <ele>280.6</ele>
        <time>2024-08-01T08:22:27Z</time>
      </trkpt>
      <trkpt lat="43.41231" lon="1.11769">
        <ele>280.8</ele>
        <time>2024-08-01T08:22:28Z</time>
      </trkpt>
      <trkpt lat="43.41231" lon="1.1177">
        <ele>280.8</ele>
        <time>2024-08-01T08:22:29Z</time>
      </trkpt>
      <trkpt lat="43.41232" lon="1.11772">
        <ele>280.8</ele>
        <time>2024-08-01T08:22:30Z</time>
      </trkpt>
      <trkpt lat="43.41231" lon="1.11773">
        <ele>280.8</ele>
        <time>2024-08-01T08:22:31Z</time>
      </trkpt>
      <trkpt lat="43.41231" lon="1.11774">
        <ele>280.8</ele>
        <time>2024-08-01T08:22:32Z</time>
      </trkpt>
      <trkpt lat="43.41231" lon="1.11775">
        <ele>280.8</ele>
        <time>2024-08-01T08:22:33Z</time>
      </trkpt>
      <trkpt lat="43.41231" lon="1.11776">
        <ele>280.8</ele>
        <time>2024-08-01T08:22:34Z</time>
      </trkpt>
      <trkpt lat="43.41232" lon="1.11777">
        <ele>280.8</ele>
        <time>2024-08-01T08:22:35Z</time>
      </trkpt>
      <trkpt lat="43.41232" lon="1.11779">
        <ele>280.8</ele>
        <time>2024-08-01T08:22:36Z</time>
      </trkpt>
      <trkpt lat="43.41232" lon="1.11781">
        <ele>281</ele>
        <time>2024-08-01T08:22:37Z</time>
      </trkpt>
      <trkpt lat="43.41233" lon="1.11783">
        <ele>281</ele>
        <time>2024-08-01T08:22:38Z</time>
      </trkpt>
      <trkpt lat="43.41233" lon="1.11785">
        <ele>281</ele>
        <time>2024-08-01T08:22:39Z</time>
      </trkpt>
      <trkpt lat="43.41233" lon="1.11787">
        <ele>281</ele>
        <time>2024-08-01T08:22:40Z</time>
      </trkpt>
      <trkpt lat="43.41234" lon="1.11789">
        <ele>281.2</ele>
        <time>2024-08-01T08:22:41Z</time>
      </trkpt>
      <trkpt lat="43.41234" lon="1.1179">
        <ele>281.2</ele>
        <time>2024-08-01T08:22:42Z</time>
      </trkpt>
      <trkpt lat="43.41234" lon="1.11791">
        <ele>281.2</ele>
        <time>2024-08-01T08:22:43Z</time>
      </trkpt>
      <trkpt lat="43.41234" lon="1.11793">
        <ele>281.2</ele>
        <time>2024-08-01T08:22:44Z</time>
      </trkpt>
      <trkpt lat="43.41233" lon="1.11794">
        <ele>281.2</ele>
        <time>2024-08-01T08:22:45Z</time>
      </trkpt>
      <trkpt lat="43.41233" lon="1.11796">
        <ele>281.2</ele>
        <time>2024-08-01T08:22:46Z</time>
      </trkpt>
      <trkpt lat="43.41233" lon="1.11798">
        <ele>281.2</ele>
        <time>2024-08-01T08:22:47Z</time>
      </trkpt>
      <trkpt lat="43.41233" lon="1.118">
        <ele>281.2</ele>
        <time>2024-08-01T08:22:48Z</time>
      </trkpt>
      <trkpt lat="43.41233" lon="1.11802">
        <ele>281.2</ele>
        <time>2024-08-01T08:22:49Z</time>
      </trkpt>
      <trkpt lat="43.41233" lon="1.11804">
        <ele>281.2</ele>
        <time>2024-08-01T08:22:50Z</time>
      </trkpt>
      <trkpt lat="43.41234" lon="1.11806">
        <ele>281.2</ele>
        <time>2024-08-01T08:22:51Z</time>
      </trkpt>
      <trkpt lat="43.41234" lon="1.11809">
        <ele>281.2</ele>
        <time>2024-08-01T08:22:52Z</time>
      </trkpt>
      <trkpt lat="43.41234" lon="1.11811">
        <ele>281.2</ele>
        <time>2024-08-01T08:22:53Z</time>
      </trkpt>
      <trkpt lat="43.41233" lon="1.11813">
        <ele>281.2</ele>
        <time>2024-08-01T08:22:54Z</time>
      </trkpt>
      <trkpt lat="43.41233" lon="1.11816">
        <ele>281.2</ele>
        <time>2024-08-01T08:22:55Z</time>
      </trkpt>
      <trkpt lat="43.41233" lon="1.11819">
        <ele>281.2</ele>
        <time>2024-08-01T08:22:56Z</time>
      </trkpt>
      <trkpt lat="43.41234" lon="1.11822">
        <ele>281.2</ele>
        <time>2024-08-01T08:22:57Z</time>
      </trkpt>
      <trkpt lat="43.41234" lon="1.11825">
        <ele>281.2</ele>
        <time>2024-08-01T08:22:58Z</time>
      </trkpt>
      <trkpt lat="43.41235" lon="1.11828">
        <ele>281.2</ele>
        <time>2024-08-01T08:22:59Z</time>
      </trkpt>
      <trkpt lat="43.41236" lon="1.11831">
        <ele>281.2</ele>
        <time>2024-08-01T08:23:00Z</time>
      </trkpt>
      <trkpt lat="43.41238" lon="1.11834">
        <ele>281.2</ele>
        <time>2024-08-01T08:23:01Z</time>
      </trkpt>
      <trkpt lat="43.41239" lon="1.11838">
        <ele>281.2</ele>
        <time>2024-08-01T08:23:02Z</time>
      </trkpt>
      <trkpt lat="43.41239" lon="1.11841">
        <ele>281.2</ele>
        <time>2024-08-01T08:23:03Z</time>
      </trkpt>
      <trkpt lat="43.41239" lon="1.11845">
        <ele>281.2</ele>
        <time>2024-08-01T08:23:04Z</time>
      </trkpt>
      <trkpt lat="43.41239" lon="1.11849">
        <ele>281.2</ele>
        <time>2024-08-01T08:23:05Z</time>
      </trkpt>
      <trkpt lat="43.41239" lon="1.11853">
        <ele>281.2</ele>
        <time>2024-08-01T08:23:06Z</time>
      </trkpt>
      <trkpt lat="43.41239" lon="1.11857">
        <ele>281.2</ele>
        <time>2024-08-01T08:23:07Z</time>
      </trkpt>
      <trkpt lat="43.41239" lon="1.11861">
        <ele>281.2</ele>
        <time>2024-08-01T08:23:08Z</time>
      </trkpt>
      <trkpt lat="43.4124" lon="1.11865">
        <ele>281.2</ele>
        <time>2024-08-01T08:23:09Z</time>
      </trkpt>
      <trkpt lat="43.4124" lon="1.11869">
        <ele>281.2</ele>
        <time>2024-08-01T08:23:10Z</time>
      </trkpt>
      <trkpt lat="43.41241" lon="1.11873">
        <ele>281.2</ele>
        <time>2024-08-01T08:23:11Z</time>
      </trkpt>
      <trkpt lat="43.41241" lon="1.11876">
        <ele>281.2</ele>
        <time>2024-08-01T08:23:12Z</time>
      </trkpt>
      <trkpt lat="43.41242" lon="1.1188">
        <ele>281.2</ele>
        <time>2024-08-01T08:23:13Z</time>
      </trkpt>
      <trkpt lat="43.41243" lon="1.11884">
        <ele>281</ele>
        <time>2024-08-01T08:23:14Z</time>
      </trkpt>
      <trkpt lat="43.41244" lon="1.11887">
        <ele>281</ele>
        <time>2024-08-01T08:23:15Z</time>
      </trkpt>
      <trkpt lat="43.41245" lon="1.11891">
        <ele>281</ele>
        <time>2024-08-01T08:23:16Z</time>
      </trkpt>
      <trkpt lat="43.41245" lon="1.11895">
        <ele>281</ele>
        <time>2024-08-01T08:23:17Z</time>
      </trkpt>
      <trkpt lat="43.41246" lon="1.11899">
        <ele>281</ele>
        <time>2024-08-01T08:23:18Z</time>
      </trkpt>
      <trkpt lat="43.41247" lon="1.11903">
        <ele>280.8</ele>
        <time>2024-08-01T08:23:19Z</time>
      </trkpt>
      <trkpt lat="43.41248" lon="1.11906">
        <ele>280.8</ele>
        <time>2024-08-01T08:23:20Z</time>
      </trkpt>
      <trkpt lat="43.41249" lon="1.1191">
        <ele>280.8</ele>
        <time>2024-08-01T08:23:21Z</time>
      </trkpt>
      <trkpt lat="43.4125" lon="1.11914">
        <ele>280.8</ele>
        <time>2024-08-01T08:23:22Z</time>
      </trkpt>
      <trkpt lat="43.41251" lon="1.11917">
        <ele>280.8</ele>
        <time>2024-08-01T08:23:23Z</time>
      </trkpt>
      <trkpt lat="43.41252" lon="1.1192">
        <ele>280.8</ele>
        <time>2024-08-01T08:23:24Z</time>
      </trkpt>
      <trkpt lat="43.41253" lon="1.11924">
        <ele>280.8</ele>
        <time>2024-08-01T08:23:25Z</time>
      </trkpt>
      <trkpt lat="43.41253" lon="1.11927">
        <ele>280.8</ele>
        <time>2024-08-01T08:23:26Z</time>
      </trkpt>
      <trkpt lat="43.41252" lon="1.1193">
        <ele>280.8</ele>
        <time>2024-08-01T08:23:27Z</time>
      </trkpt>
      <trkpt lat="43.41252" lon="1.11933">
        <ele>280.8</ele>
        <time>2024-08-01T08:23:28Z</time>
      </trkpt>
      <trkpt lat="43.41252" lon="1.11936">
        <ele>280.8</ele>
        <time>2024-08-01T08:23:29Z</time>
      </trkpt>
      <trkpt lat="43.41252" lon="1.1194">
        <ele>280.8</ele>
        <time>2024-08-01T08:23:30Z</time>
      </trkpt>
      <trkpt lat="43.41252" lon="1.11943">
        <ele>280.8</ele>
        <time>2024-08-01T08:23:31Z</time>
      </trkpt>
      <trkpt lat="43.41253" lon="1.11946">
        <ele>280.8</ele>
        <time>2024-08-01T08:23:32Z</time>
      </trkpt>
      <trkpt lat="43.41255" lon="1.11949">
        <ele>280.8</ele>
        <time>2024-08-01T08:23:33Z</time>
      </trkpt>
      <trkpt lat="43.41256" lon="1.11952">
        <ele>280.6</ele>
        <time>2024-08-01T08:23:34Z</time>
      </trkpt>
      <trkpt lat="43.41258" lon="1.11955">
        <ele>280.6</ele>
        <time>2024-08-01T08:23:35Z</time>
      </trkpt>
      <trkpt lat="43.41259" lon="1.11959">
        <ele>280.6</ele>
        <time>2024-08-01T08:23:36Z</time>
      </trkpt>
      <trkpt lat="43.41259" lon="1.11963">
        <ele>280.6</ele>
        <time>2024-08-01T08:23:37Z</time>
      </trkpt>
      <trkpt lat="43.41259" lon="1.11966">
        <ele>280.4</ele>
        <time>2024-08-01T08:23:38Z</time>
      </trkpt>
      <trkpt lat="43.41259" lon="1.11969">
        <ele>280.4</ele>
        <time>2024-08-01T08:23:39Z</time>
      </trkpt>
      <trkpt lat="43.41259" lon="1.11972">
        <ele>280.4</ele>
        <time>2024-08-01T08:23:40Z</time>
      </trkpt>
      <trkpt lat="43.41258" lon="1.11974">
        <ele>280.4</ele>
        <time>2024-08-01T08:23:41Z</time>
      </trkpt>
      <trkpt lat="43.41258" lon="1.11975">
        <ele>280.4</ele>
        <time>2024-08-01T08:23:42Z</time>
      </trkpt>
      <trkpt lat="43.41259" lon="1.11976">
        <ele>280.2</ele>
        <time>2024-08-01T08:23:43Z</time>
      </trkpt>
      <trkpt lat="43.41259" lon="1.11977">
        <ele>280.4</ele>
        <time>2024-08-01T08:23:44Z</time>
      </trkpt>
      <trkpt lat="43.41259" lon="1.11978">
        <ele>280.4</ele>
        <time>2024-08-01T08:23:45Z</time>
      </trkpt>
      <trkpt lat="43.41259" lon="1.11979">
        <ele>280.4</ele>
        <time>2024-08-01T08:23:46Z</time>
      </trkpt>
      <trkpt lat="43.41259" lon="1.1198">
        <ele>280.6</ele>
        <time>2024-08-01T08:23:47Z</time>
      </trkpt>
      <trkpt lat="43.41258" lon="1.11981">
        <ele>280.6</ele>
        <time>2024-08-01T08:23:48Z</time>
      </trkpt>
      <trkpt lat="43.41258" lon="1.11981">
        <ele>280.6</ele>
        <time>2024-08-01T08:23:49Z</time>
      </trkpt>
      <trkpt lat="43.41258" lon="1.11981">
        <ele>280.6</ele>
        <time>2024-08-01T08:23:50Z</time>
      </trkpt>
      <trkpt lat="43.41258" lon="1.11981">
        <ele>280.4</ele>
        <time>2024-08-01T08:23:51Z</time>
      </trkpt>
      <trkpt lat="43.41257" lon="1.11982">
        <ele>280.4</ele>
        <time>2024-08-01T08:23:52Z</time>
      </trkpt>
      <trkpt lat="43.41257" lon="1.11983">
        <ele>280.4</ele>
        <time>2024-08-01T08:23:53Z</time>
      </trkpt>
      <trkpt lat="43.41257" lon="1.11983">
        <ele>280.4</ele>
        <time>2024-08-01T08:23:54Z</time>
      </trkpt>
      <trkpt lat="43.41257" lon="1.11983">
        <ele>280.4</ele>
        <time>2024-08-01T08:23:55Z</time>
      </trkpt>
      <trkpt lat="43.41257" lon="1.11984">
        <ele>280.4</ele>
        <time>2024-08-01T08:23:56Z</time>
      </trkpt>
      <trkpt lat="43.41257" lon="1.11984">
        <ele>280.4</ele>
        <time>2024-08-01T08:23:57Z</time>
      </trkpt>
      <trkpt lat="43.41254" lon="1.11987">
        <ele>280</ele>
        <time>2024-08-01T08:25:32Z</time>
      </trkpt>
      <trkpt lat="43.41252" lon="1.11989">
        <ele>280</ele>
        <time>2024-08-01T08:25:33Z</time>
      </trkpt>
      <trkpt lat="43.41252" lon="1.11992">
        <ele>280</ele>
        <time>2024-08-01T08:25:34Z</time>
      </trkpt>
      <trkpt lat="43.41251" lon="1.11996">
        <ele>280</ele>
        <time>2024-08-01T08:25:35Z</time>
      </trkpt>
      <trkpt lat="43.4125" lon="1.12">
        <ele>280</ele>
        <time>2024-08-01T08:25:36Z</time>
      </trkpt>
      <trkpt lat="43.4125" lon="1.12004">
        <ele>280</ele>
        <time>2024-08-01T08:25:37Z</time>
      </trkpt>
      <trkpt lat="43.4125" lon="1.12008">
        <ele>280</ele>
        <time>2024-08-01T08:25:38Z</time>
      </trkpt>
      <trkpt lat="43.41249" lon="1.12013">
        <ele>280</ele>
        <time>2024-08-01T08:25:39Z</time>
      </trkpt>
      <trkpt lat="43.41249" lon="1.12017">
        <ele>280</ele>
        <time>2024-08-01T08:25:40Z</time>
      </trkpt>
      <trkpt lat="43.41249" lon="1.12021">
        <ele>280</ele>
        <time>2024-08-01T08:25:41Z</time>
      </trkpt>
      <trkpt lat="43.41249" lon="1.12024">
        <ele>280</ele>
        <time>2024-08-01T08:25:42Z</time>
      </trkpt>
      <trkpt lat="43.4125" lon="1.12028">
        <ele>280</ele>
        <time>2024-08-01T08:25:43Z</time>
      </trkpt>
      <trkpt lat="43.4125" lon="1.12033">
        <ele>280</ele>
        <time>2024-08-01T08:25:44Z</time>
      </trkpt>
      <trkpt lat="43.41251" lon="1.12037">
        <ele>280</ele>
        <time>2024-08-01T08:25:45Z</time>
      </trkpt>
      <trkpt lat="43.41251" lon="1.12042">
        <ele>280</ele>
        <time>2024-08-01T08:25:46Z</time>
      </trkpt>
      <trkpt lat="43.41251" lon="1.12047">
        <ele>279.8</ele>
        <time>2024-08-01T08:25:47Z</time>
      </trkpt>
      <trkpt lat="43.41251" lon="1.12051">
        <ele>279.8</ele>
        <time>2024-08-01T08:25:48Z</time>
      </trkpt>
      <trkpt lat="43.41251" lon="1.12055">
        <ele>279.8</ele>
        <time>2024-08-01T08:25:49Z</time>
      </trkpt>
      <trkpt lat="43.41251" lon="1.12061">
        <ele>279.8</ele>
        <time>2024-08-01T08:25:50Z</time>
      </trkpt>
      <trkpt lat="43.41251" lon="1.12067">
        <ele>279.8</ele>
        <time>2024-08-01T08:25:51Z</time>
      </trkpt>
      <trkpt lat="43.41251" lon="1.12071">
        <ele>279.6</ele>
        <time>2024-08-01T08:25:52Z</time>
      </trkpt>
      <trkpt lat="43.41251" lon="1.12076">
        <ele>279.6</ele>
        <time>2024-08-01T08:25:53Z</time>
      </trkpt>
      <trkpt lat="43.41251" lon="1.12081">
        <ele>279.6</ele>
        <time>2024-08-01T08:25:54Z</time>
      </trkpt>
      <trkpt lat="43.41251" lon="1.12087">
        <ele>279.6</ele>
        <time>2024-08-01T08:25:55Z</time>
      </trkpt>
      <trkpt lat="43.4125" lon="1.12094">
        <ele>279.6</ele>
        <time>2024-08-01T08:25:56Z</time>
      </trkpt>
      <trkpt lat="43.4125" lon="1.12098">
        <ele>279.4</ele>
        <time>2024-08-01T08:25:57Z</time>
      </trkpt>
      <trkpt lat="43.4125" lon="1.12104">
        <ele>279.4</ele>
        <time>2024-08-01T08:25:58Z</time>
      </trkpt>
      <trkpt lat="43.41249" lon="1.12109">
        <ele>279.4</ele>
        <time>2024-08-01T08:25:59Z</time>
      </trkpt>
      <trkpt lat="43.41249" lon="1.12116">
        <ele>279.4</ele>
        <time>2024-08-01T08:26:00Z</time>
      </trkpt>
      <trkpt lat="43.41249" lon="1.12121">
        <ele>279.4</ele>
        <time>2024-08-01T08:26:01Z</time>
      </trkpt>
      <trkpt lat="43.41249" lon="1.12125">
        <ele>279.4</ele>
        <time>2024-08-01T08:26:02Z</time>
      </trkpt>
      <trkpt lat="43.4125" lon="1.1213">
        <ele>279.2</ele>
        <time>2024-08-01T08:26:03Z</time>
      </trkpt>
      <trkpt lat="43.4125" lon="1.12135">
        <ele>279.2</ele>
        <time>2024-08-01T08:26:04Z</time>
      </trkpt>
      <trkpt lat="43.4125" lon="1.12141">
        <ele>279.2</ele>
        <time>2024-08-01T08:26:05Z</time>
      </trkpt>
      <trkpt lat="43.4125" lon="1.12146">
        <ele>279.2</ele>
        <time>2024-08-01T08:26:06Z</time>
      </trkpt>
      <trkpt lat="43.4125" lon="1.1215">
        <ele>279.2</ele>
        <time>2024-08-01T08:26:07Z</time>
      </trkpt>
      <trkpt lat="43.4125" lon="1.12155">
        <ele>279</ele>
        <time>2024-08-01T08:26:08Z</time>
      </trkpt>
      <trkpt lat="43.41249" lon="1.1216">
        <ele>279</ele>
        <time>2024-08-01T08:26:09Z</time>
      </trkpt>
      <trkpt lat="43.41249" lon="1.12166">
        <ele>279</ele>
        <time>2024-08-01T08:26:10Z</time>
      </trkpt>
      <trkpt lat="43.4125" lon="1.12172">
        <ele>279</ele>
        <time>2024-08-01T08:26:11Z</time>
      </trkpt>
      <trkpt lat="43.4125" lon="1.12177">
        <ele>279</ele>
        <time>2024-08-01T08:26:12Z</time>
      </trkpt>
      <trkpt lat="43.4125" lon="1.12183">
        <ele>279</ele>
        <time>2024-08-01T08:26:13Z</time>
      </trkpt>
      <trkpt lat="43.4125" lon="1.12191">
        <ele>279</ele>
        <time>2024-08-01T08:26:14Z</time>
      </trkpt>
      <trkpt lat="43.4125" lon="1.12198">
        <ele>278.8</ele>
        <time>2024-08-01T08:26:15Z</time>
      </trkpt>
      <trkpt lat="43.41251" lon="1.12205">
        <ele>278.8</ele>
        <time>2024-08-01T08:26:16Z</time>
      </trkpt>
      <trkpt lat="43.41251" lon="1.12211">
        <ele>278.8</ele>
        <time>2024-08-01T08:26:17Z</time>
      </trkpt>
      <trkpt lat="43.41251" lon="1.12218">
        <ele>278.6</ele>
        <time>2024-08-01T08:26:18Z</time>
      </trkpt>
      <trkpt lat="43.41252" lon="1.12225">
        <ele>278.6</ele>
        <time>2024-08-01T08:26:19Z</time>
      </trkpt>
      <trkpt lat="43.41253" lon="1.12232">
        <ele>278.6</ele>
        <time>2024-08-01T08:26:20Z</time>
      </trkpt>
      <trkpt lat="43.41254" lon="1.12241">
        <ele>278.6</ele>
        <time>2024-08-01T08:26:21Z</time>
      </trkpt>
      <trkpt lat="43.41255" lon="1.12247">
        <ele>278.6</ele>
        <time>2024-08-01T08:26:22Z</time>
      </trkpt>
      <trkpt lat="43.41256" lon="1.12255">
        <ele>278.6</ele>
        <time>2024-08-01T08:26:23Z</time>
      </trkpt>
      <trkpt lat="43.41257" lon="1.12263">
        <ele>278.4</ele>
        <time>2024-08-01T08:26:24Z</time>
      </trkpt>
      <trkpt lat="43.41257" lon="1.12271">
        <ele>278.2</ele>
        <time>2024-08-01T08:26:25Z</time>
      </trkpt>
      <trkpt lat="43.41258" lon="1.12279">
        <ele>278.2</ele>
        <time>2024-08-01T08:26:26Z</time>
      </trkpt>
      <trkpt lat="43.41258" lon="1.12285">
        <ele>278.2</ele>
        <time>2024-08-01T08:26:27Z</time>
      </trkpt>
      <trkpt lat="43.41259" lon="1.12293">
        <ele>278</ele>
        <time>2024-08-01T08:26:28Z</time>
      </trkpt>
      <trkpt lat="43.4126" lon="1.12304">
        <ele>278</ele>
        <time>2024-08-01T08:26:29Z</time>
      </trkpt>
      <trkpt lat="43.41261" lon="1.12313">
        <ele>277.8</ele>
        <time>2024-08-01T08:26:30Z</time>
      </trkpt>
      <trkpt lat="43.41262" lon="1.12322">
        <ele>277.8</ele>
        <time>2024-08-01T08:26:31Z</time>
      </trkpt>
      <trkpt lat="43.41262" lon="1.12329">
        <ele>277.6</ele>
        <time>2024-08-01T08:26:32Z</time>
      </trkpt>
      <trkpt lat="43.41263" lon="1.12339">
        <ele>277.6</ele>
        <time>2024-08-01T08:26:33Z</time>
      </trkpt>
      <trkpt lat="43.41264" lon="1.12351">
        <ele>277.4</ele>
        <time>2024-08-01T08:26:34Z</time>
      </trkpt>
      <trkpt lat="43.41265" lon="1.1236">
        <ele>277.2</ele>
        <time>2024-08-01T08:26:35Z</time>
      </trkpt>
      <trkpt lat="43.41266" lon="1.12371">
        <ele>277</ele>
        <time>2024-08-01T08:26:36Z</time>
      </trkpt>
      <trkpt lat="43.41267" lon="1.12382">
        <ele>276.8</ele>
        <time>2024-08-01T08:26:37Z</time>
      </trkpt>
      <trkpt lat="43.41268" lon="1.12394">
        <ele>276.2</ele>
        <time>2024-08-01T08:26:38Z</time>
      </trkpt>
      <trkpt lat="43.41269" lon="1.12407">
        <ele>275.8</ele>
        <time>2024-08-01T08:26:39Z</time>
      </trkpt>
      <trkpt lat="43.4127" lon="1.12419">
        <ele>275.2</ele>
        <time>2024-08-01T08:26:40Z</time>
      </trkpt>
      <trkpt lat="43.41272" lon="1.12432">
        <ele>274.6</ele>
        <time>2024-08-01T08:26:41Z</time>
      </trkpt>
      <trkpt lat="43.41273" lon="1.12442">
        <ele>274.2</ele>
        <time>2024-08-01T08:26:42Z</time>
      </trkpt>
      <trkpt lat="43.41274" lon="1.12455">
        <ele>273.6</ele>
        <time>2024-08-01T08:26:43Z</time>
      </trkpt>
      <trkpt lat="43.41276" lon="1.12471">
        <ele>273.4</ele>
        <time>2024-08-01T08:26:44Z</time>
      </trkpt>
      <trkpt lat="43.41277" lon="1.12484">
        <ele>272.6</ele>
        <time>2024-08-01T08:26:45Z</time>
      </trkpt>
      <trkpt lat="43.41277" lon="1.12497">
        <ele>271.6</ele>
        <time>2024-08-01T08:26:46Z</time>
      </trkpt>
      <trkpt lat="43.41277" lon="1.12508">
        <ele>271.2</ele>
        <time>2024-08-01T08:26:47Z</time>
      </trkpt>
      <trkpt lat="43.41276" lon="1.12523">
        <ele>270</ele>
        <time>2024-08-01T08:26:48Z</time>
      </trkpt>
      <trkpt lat="43.41275" lon="1.12534">
        <ele>269.4</ele>
        <time>2024-08-01T08:26:49Z</time>
      </trkpt>
      <trkpt lat="43.41274" lon="1.12543">
        <ele>268.4</ele>
        <time>2024-08-01T08:26:50Z</time>
      </trkpt>
      <trkpt lat="43.41273" lon="1.12548">
        <ele>267.6</ele>
        <time>2024-08-01T08:26:51Z</time>
      </trkpt>
      <trkpt lat="43.41272" lon="1.12551">
        <ele>266.6</ele>
        <time>2024-08-01T08:26:52Z</time>
      </trkpt>
      <trkpt lat="43.41271" lon="1.12553">
        <ele>265.8</ele>
        <time>2024-08-01T08:26:53Z</time>
      </trkpt>
      <trkpt lat="43.41269" lon="1.12553">
        <ele>265.2</ele>
        <time>2024-08-01T08:26:54Z</time>
      </trkpt>
      <trkpt lat="43.41268" lon="1.12555">
        <ele>264.4</ele>
        <time>2024-08-01T08:26:55Z</time>
      </trkpt>
      <trkpt lat="43.41266" lon="1.12557">
        <ele>264.2</ele>
        <time>2024-08-01T08:26:56Z</time>
      </trkpt>
      <trkpt lat="43.41263" lon="1.12561">
        <ele>263.8</ele>
        <time>2024-08-01T08:26:57Z</time>
      </trkpt>
      <trkpt lat="43.41261" lon="1.12566">
        <ele>263.4</ele>
        <time>2024-08-01T08:26:58Z</time>
      </trkpt>
      <trkpt lat="43.41259" lon="1.12574">
        <ele>263.4</ele>
        <time>2024-08-01T08:26:59Z</time>
      </trkpt>
      <trkpt lat="43.41258" lon="1.12582">
        <ele>263</ele>
        <time>2024-08-01T08:27:00Z</time>
      </trkpt>
      <trkpt lat="43.41259" lon="1.1259">
        <ele>262.8</ele>
        <time>2024-08-01T08:27:01Z</time>
      </trkpt>
      <trkpt lat="43.4126" lon="1.126">
        <ele>262.6</ele>
        <time>2024-08-01T08:27:02Z</time>
      </trkpt>
      <trkpt lat="43.41263" lon="1.12613">
        <ele>262.6</ele>
        <time>2024-08-01T08:27:03Z</time>
      </trkpt>
      <trkpt lat="43.41264" lon="1.12624">
        <ele>262</ele>
        <time>2024-08-01T08:27:04Z</time>
      </trkpt>
      <trkpt lat="43.41265" lon="1.12636">
        <ele>261.6</ele>
        <time>2024-08-01T08:27:05Z</time>
      </trkpt>
      <trkpt lat="43.41265" lon="1.12646">
        <ele>261.4</ele>
        <time>2024-08-01T08:27:06Z</time>
      </trkpt>
      <trkpt lat="43.41264" lon="1.12659">
        <ele>260.8</ele>
        <time>2024-08-01T08:27:07Z</time>
      </trkpt>
      <trkpt lat="43.41262" lon="1.12675">
        <ele>260.4</ele>
        <time>2024-08-01T08:27:08Z</time>
      </trkpt>
      <trkpt lat="43.4126" lon="1.12688">
        <ele>259.8</ele>
        <time>2024-08-01T08:27:09Z</time>
      </trkpt>
      <trkpt lat="43.41257" lon="1.12701">
        <ele>259.6</ele>
        <time>2024-08-01T08:27:10Z</time>
      </trkpt>
      <trkpt lat="43.41255" lon="1.1271">
        <ele>258.6</ele>
        <time>2024-08-01T08:27:11Z</time>
      </trkpt>
      <trkpt lat="43.41252" lon="1.12721">
        <ele>258</ele>
        <time>2024-08-01T08:27:12Z</time>
      </trkpt>
      <trkpt lat="43.41251" lon="1.12734">
        <ele>257.6</ele>
        <time>2024-08-01T08:27:13Z</time>
      </trkpt>
      <trkpt lat="43.41253" lon="1.12745">
        <ele>256.8</ele>
        <time>2024-08-01T08:27:14Z</time>
      </trkpt>
      <trkpt lat="43.41256" lon="1.12754">
        <ele>256.2</ele>
        <time>2024-08-01T08:27:15Z</time>
      </trkpt>
      <trkpt lat="43.41259" lon="1.12764">
        <ele>255.8</ele>
        <time>2024-08-01T08:27:16Z</time>
      </trkpt>
      <trkpt lat="43.41263" lon="1.12776">
        <ele>255.4</ele>
        <time>2024-08-01T08:27:17Z</time>
      </trkpt>
      <trkpt lat="43.41265" lon="1.12791">
        <ele>254.8</ele>
        <time>2024-08-01T08:27:18Z</time>
      </trkpt>
      <trkpt lat="43.41266" lon="1.12805">
        <ele>254.4</ele>
        <time>2024-08-01T08:27:19Z</time>
      </trkpt>
      <trkpt lat="43.41266" lon="1.12815">
        <ele>254.2</ele>
        <time>2024-08-01T08:27:20Z</time>
      </trkpt>
      <trkpt lat="43.41267" lon="1.12829">
        <ele>253.4</ele>
        <time>2024-08-01T08:27:21Z</time>
      </trkpt>
      <trkpt lat="43.41268" lon="1.12843">
        <ele>253.2</ele>
        <time>2024-08-01T08:27:22Z</time>
      </trkpt>
      <trkpt lat="43.41269" lon="1.12859">
        <ele>252.2</ele>
        <time>2024-08-01T08:27:23Z</time>
      </trkpt>
      <trkpt lat="43.4127" lon="1.12873">
        <ele>251.6</ele>
        <time>2024-08-01T08:27:24Z</time>
      </trkpt>
      <trkpt lat="43.4127" lon="1.12884">
        <ele>251</ele>
        <time>2024-08-01T08:27:25Z</time>
      </trkpt>
      <trkpt lat="43.41271" lon="1.12898">
        <ele>250.6</ele>
        <time>2024-08-01T08:27:26Z</time>
      </trkpt>
      <trkpt lat="43.41272" lon="1.12915">
        <ele>250.4</ele>
        <time>2024-08-01T08:27:27Z</time>
      </trkpt>
      <trkpt lat="43.41273" lon="1.12929">
        <ele>250.2</ele>
        <time>2024-08-01T08:27:28Z</time>
      </trkpt>
      <trkpt lat="43.41274" lon="1.12943">
        <ele>250</ele>
        <time>2024-08-01T08:27:29Z</time>
      </trkpt>
      <trkpt lat="43.41274" lon="1.12954">
        <ele>249.4</ele>
        <time>2024-08-01T08:27:30Z</time>
      </trkpt>
      <trkpt lat="43.41274" lon="1.1297">
        <ele>249.2</ele>
        <time>2024-08-01T08:27:31Z</time>
      </trkpt>
      <trkpt lat="43.41273" lon="1.12984">
        <ele>248.8</ele>
        <time>2024-08-01T08:27:32Z</time>
      </trkpt>
      <trkpt lat="43.41272" lon="1.12998">
        <ele>248.4</ele>
        <time>2024-08-01T08:27:33Z</time>
      </trkpt>
      <trkpt lat="43.41272" lon="1.13012">
        <ele>248.2</ele>
        <time>2024-08-01T08:27:34Z</time>
      </trkpt>
      <trkpt lat="43.41271" lon="1.13026">
        <ele>248</ele>
        <time>2024-08-01T08:27:35Z</time>
      </trkpt>
      <trkpt lat="43.41271" lon="1.13038">
        <ele>248</ele>
        <time>2024-08-01T08:27:36Z</time>
      </trkpt>
      <trkpt lat="43.4127" lon="1.13054">
        <ele>247.8</ele>
        <time>2024-08-01T08:27:37Z</time>
      </trkpt>
      <trkpt lat="43.41269" lon="1.13068">
        <ele>247.6</ele>
        <time>2024-08-01T08:27:38Z</time>
      </trkpt>
      <trkpt lat="43.41268" lon="1.13082">
        <ele>247.4</ele>
        <time>2024-08-01T08:27:39Z</time>
      </trkpt>
      <trkpt lat="43.41268" lon="1.13096">
        <ele>247.2</ele>
        <time>2024-08-01T08:27:40Z</time>
      </trkpt>
      <trkpt lat="43.41267" lon="1.13107">
        <ele>247</ele>
        <time>2024-08-01T08:27:41Z</time>
      </trkpt>
      <trkpt lat="43.41266" lon="1.13123">
        <ele>247</ele>
        <time>2024-08-01T08:27:42Z</time>
      </trkpt>
      <trkpt lat="43.41264" lon="1.13136">
        <ele>246.8</ele>
        <time>2024-08-01T08:27:43Z</time>
      </trkpt>
      <trkpt lat="43.4126" lon="1.13162">
        <ele>246.8</ele>
        <time>2024-08-01T08:27:44Z</time>
      </trkpt>
      <trkpt lat="43.4126" lon="1.13162">
        <ele>246.8</ele>
        <time>2024-08-01T08:27:45Z</time>
      </trkpt>
      <trkpt lat="43.41254" lon="1.13187">
        <ele>246.6</ele>
        <time>2024-08-01T08:27:46Z</time>
      </trkpt>
      <trkpt lat="43.41254" lon="1.13187">
        <ele>246.6</ele>
        <time>2024-08-01T08:27:47Z</time>
      </trkpt>
      <trkpt lat="43.41247" lon="1.13209">
        <ele>246.6</ele>
        <time>2024-08-01T08:27:48Z</time>
      </trkpt>
      <trkpt lat="43.41242" lon="1.13224">
        <ele>246.4</ele>
        <time>2024-08-01T08:27:49Z</time>
      </trkpt>
      <trkpt lat="43.41242" lon="1.13224">
        <ele>246.2</ele>
        <time>2024-08-01T08:27:50Z</time>
      </trkpt>
      <trkpt lat="43.41233" lon="1.13248">
        <ele>246.2</ele>
        <time>2024-08-01T08:27:51Z</time>
      </trkpt>
      <trkpt lat="43.41229" lon="1.1326">
        <ele>246</ele>
        <time>2024-08-01T08:27:52Z</time>
      </trkpt>
      <trkpt lat="43.41226" lon="1.1327">
        <ele>245.8</ele>
        <time>2024-08-01T08:27:53Z</time>
      </trkpt>
      <trkpt lat="43.41222" lon="1.13283">
        <ele>245.6</ele>
        <time>2024-08-01T08:27:54Z</time>
      </trkpt>
      <trkpt lat="43.41218" lon="1.13298">
        <ele>245.4</ele>
        <time>2024-08-01T08:27:55Z</time>
      </trkpt>
      <trkpt lat="43.41216" lon="1.13311">
        <ele>245.4</ele>
        <time>2024-08-01T08:27:56Z</time>
      </trkpt>
      <trkpt lat="43.41213" lon="1.13324">
        <ele>245.2</ele>
        <time>2024-08-01T08:27:57Z</time>
      </trkpt>
      <trkpt lat="43.41211" lon="1.13336">
        <ele>244.8</ele>
        <time>2024-08-01T08:27:58Z</time>
      </trkpt>
      <trkpt lat="43.41209" lon="1.13349">
        <ele>244.8</ele>
        <time>2024-08-01T08:27:59Z</time>
      </trkpt>
      <trkpt lat="43.41207" lon="1.13363">
        <ele>244.6</ele>
        <time>2024-08-01T08:28:00Z</time>
      </trkpt>
      <trkpt lat="43.41205" lon="1.13376">
        <ele>244.4</ele>
        <time>2024-08-01T08:28:01Z</time>
      </trkpt>
      <trkpt lat="43.41203" lon="1.13389">
        <ele>244.2</ele>
        <time>2024-08-01T08:28:02Z</time>
      </trkpt>
      <trkpt lat="43.41201" lon="1.134">
        <ele>244</ele>
        <time>2024-08-01T08:28:03Z</time>
      </trkpt>
      <trkpt lat="43.41199" lon="1.13416">
        <ele>244</ele>
        <time>2024-08-01T08:28:04Z</time>
      </trkpt>
      <trkpt lat="43.41199" lon="1.13416">
        <ele>243.8</ele>
        <time>2024-08-01T08:28:05Z</time>
      </trkpt>
      <trkpt lat="43.41195" lon="1.13442">
        <ele>243.6</ele>
        <time>2024-08-01T08:28:06Z</time>
      </trkpt>
      <trkpt lat="43.41194" lon="1.13456">
        <ele>243.6</ele>
        <time>2024-08-01T08:28:07Z</time>
      </trkpt>
      <trkpt lat="43.41194" lon="1.1347">
        <ele>243.6</ele>
        <time>2024-08-01T08:28:08Z</time>
      </trkpt>
      <trkpt lat="43.41193" lon="1.13483">
        <ele>243.4</ele>
        <time>2024-08-01T08:28:09Z</time>
      </trkpt>
      <trkpt lat="43.41193" lon="1.13483">
        <ele>243.4</ele>
        <time>2024-08-01T08:28:10Z</time>
      </trkpt>
      <trkpt lat="43.41193" lon="1.1351">
        <ele>243.4</ele>
        <time>2024-08-01T08:28:11Z</time>
      </trkpt>
      <trkpt lat="43.41192" lon="1.13524">
        <ele>243.4</ele>
        <time>2024-08-01T08:28:12Z</time>
      </trkpt>
      <trkpt lat="43.41192" lon="1.13537">
        <ele>243.4</ele>
        <time>2024-08-01T08:28:13Z</time>
      </trkpt>
      <trkpt lat="43.41191" lon="1.1355">
        <ele>243.2</ele>
        <time>2024-08-01T08:28:14Z</time>
      </trkpt>
      <trkpt lat="43.4119" lon="1.13563">
        <ele>243</ele>
        <time>2024-08-01T08:28:15Z</time>
      </trkpt>
      <trkpt lat="43.41189" lon="1.13576">
        <ele>243</ele>
        <time>2024-08-01T08:28:16Z</time>
      </trkpt>
      <trkpt lat="43.41187" lon="1.13589">
        <ele>243</ele>
        <time>2024-08-01T08:28:17Z</time>
      </trkpt>
      <trkpt lat="43.41185" lon="1.13601">
        <ele>243</ele>
        <time>2024-08-01T08:28:18Z</time>
      </trkpt>
      <trkpt lat="43.41185" lon="1.13601">
        <ele>243</ele>
        <time>2024-08-01T08:28:19Z</time>
      </trkpt>
      <trkpt lat="43.41181" lon="1.13625">
        <ele>242.8</ele>
        <time>2024-08-01T08:28:20Z</time>
      </trkpt>
      <trkpt lat="43.41181" lon="1.13625">
        <ele>242.8</ele>
        <time>2024-08-01T08:28:21Z</time>
      </trkpt>
      <trkpt lat="43.41177" lon="1.13649">
        <ele>243</ele>
        <time>2024-08-01T08:28:22Z</time>
      </trkpt>
      <trkpt lat="43.41175" lon="1.13661">
        <ele>243</ele>
        <time>2024-08-01T08:28:23Z</time>
      </trkpt>
      <trkpt lat="43.41173" lon="1.13673">
        <ele>243</ele>
        <time>2024-08-01T08:28:24Z</time>
      </trkpt>
      <trkpt lat="43.41171" lon="1.13685">
        <ele>243</ele>
        <time>2024-08-01T08:28:25Z</time>
      </trkpt>
      <trkpt lat="43.41171" lon="1.13685">
        <ele>243</ele>
        <time>2024-08-01T08:28:26Z</time>
      </trkpt>
      <trkpt lat="43.41168" lon="1.13708">
        <ele>243.2</ele>
        <time>2024-08-01T08:28:27Z</time>
      </trkpt>
      <trkpt lat="43.41166" lon="1.1372">
        <ele>243.4</ele>
        <time>2024-08-01T08:28:28Z</time>
      </trkpt>
      <trkpt lat="43.41164" lon="1.13732">
        <ele>243.4</ele>
        <time>2024-08-01T08:28:29Z</time>
      </trkpt>
      <trkpt lat="43.41163" lon="1.13744">
        <ele>243.6</ele>
        <time>2024-08-01T08:28:30Z</time>
      </trkpt>
      <trkpt lat="43.41161" lon="1.13756">
        <ele>243.8</ele>
        <time>2024-08-01T08:28:31Z</time>
      </trkpt>
      <trkpt lat="43.4116" lon="1.13768">
        <ele>243.8</ele>
        <time>2024-08-01T08:28:32Z</time>
      </trkpt>
      <trkpt lat="43.41159" lon="1.13781">
        <ele>244</ele>
        <time>2024-08-01T08:28:33Z</time>
      </trkpt>
      <trkpt lat="43.41158" lon="1.13793">
        <ele>244</ele>
        <time>2024-08-01T08:28:34Z</time>
      </trkpt>
      <trkpt lat="43.41157" lon="1.13805">
        <ele>244</ele>
        <time>2024-08-01T08:28:35Z</time>
      </trkpt>
      <trkpt lat="43.41155" lon="1.13817">
        <ele>244</ele>
        <time>2024-08-01T08:28:36Z</time>
      </trkpt>
      <trkpt lat="43.41155" lon="1.13817">
        <ele>244</ele>
        <time>2024-08-01T08:28:37Z</time>
      </trkpt>
      <trkpt lat="43.41153" lon="1.13842">
        <ele>244</ele>
        <time>2024-08-01T08:28:38Z</time>
      </trkpt>
      <trkpt lat="43.41152" lon="1.13854">
        <ele>244</ele>
        <time>2024-08-01T08:28:39Z</time>
      </trkpt>
      <trkpt lat="43.41151" lon="1.13866">
        <ele>244</ele>
        <time>2024-08-01T08:28:40Z</time>
      </trkpt>
      <trkpt lat="43.41149" lon="1.13879">
        <ele>244</ele>
        <time>2024-08-01T08:28:41Z</time>
      </trkpt>
      <trkpt lat="43.41149" lon="1.13879">
        <ele>244</ele>
        <time>2024-08-01T08:28:42Z</time>
      </trkpt>
      <trkpt lat="43.41147" lon="1.13903">
        <ele>244</ele>
        <time>2024-08-01T08:28:43Z</time>
      </trkpt>
      <trkpt lat="43.41146" lon="1.13916">
        <ele>244</ele>
        <time>2024-08-01T08:28:44Z</time>
      </trkpt>
      <trkpt lat="43.41145" lon="1.13928">
        <ele>243.8</ele>
        <time>2024-08-01T08:28:45Z</time>
      </trkpt>
      <trkpt lat="43.41144" lon="1.13941">
        <ele>243.8</ele>
        <time>2024-08-01T08:28:46Z</time>
      </trkpt>
      <trkpt lat="43.41143" lon="1.13954">
        <ele>243.6</ele>
        <time>2024-08-01T08:28:47Z</time>
      </trkpt>
      <trkpt lat="43.41142" lon="1.13966">
        <ele>243.4</ele>
        <time>2024-08-01T08:28:48Z</time>
      </trkpt>
      <trkpt lat="43.4114" lon="1.13978">
        <ele>243.2</ele>
        <time>2024-08-01T08:28:49Z</time>
      </trkpt>
      <trkpt lat="43.41139" lon="1.13991">
        <ele>243.2</ele>
        <time>2024-08-01T08:28:50Z</time>
      </trkpt>
      <trkpt lat="43.41138" lon="1.14003">
        <ele>243</ele>
        <time>2024-08-01T08:28:51Z</time>
      </trkpt>
      <trkpt lat="43.41137" lon="1.14015">
        <ele>243</ele>
        <time>2024-08-01T08:28:52Z</time>
      </trkpt>
      <trkpt lat="43.41136" lon="1.14027">
        <ele>242.8</ele>
        <time>2024-08-01T08:28:53Z</time>
      </trkpt>
      <trkpt lat="43.41135" lon="1.1404">
        <ele>242.8</ele>
        <time>2024-08-01T08:28:54Z</time>
      </trkpt>
      <trkpt lat="43.41134" lon="1.14052">
        <ele>242.6</ele>
        <time>2024-08-01T08:28:55Z</time>
      </trkpt>
      <trkpt lat="43.41132" lon="1.14064">
        <ele>242.6</ele>
        <time>2024-08-01T08:28:56Z</time>
      </trkpt>
      <trkpt lat="43.41131" lon="1.14077">
        <ele>242.4</ele>
        <time>2024-08-01T08:28:57Z</time>
      </trkpt>
      <trkpt lat="43.41131" lon="1.14077">
        <ele>242.4</ele>
        <time>2024-08-01T08:28:58Z</time>
      </trkpt>
      <trkpt lat="43.41129" lon="1.14101">
        <ele>242.4</ele>
        <time>2024-08-01T08:28:59Z</time>
      </trkpt>
      <trkpt lat="43.41127" lon="1.14114">
        <ele>242.2</ele>
        <time>2024-08-01T08:29:00Z</time>
      </trkpt>
      <trkpt lat="43.41126" lon="1.14127">
        <ele>241.8</ele>
        <time>2024-08-01T08:29:01Z</time>
      </trkpt>
      <trkpt lat="43.41125" lon="1.14139">
        <ele>241.6</ele>
        <time>2024-08-01T08:29:02Z</time>
      </trkpt>
      <trkpt lat="43.41123" lon="1.14152">
        <ele>241.4</ele>
        <time>2024-08-01T08:29:03Z</time>
      </trkpt>
      <trkpt lat="43.41121" lon="1.14164">
        <ele>241.2</ele>
        <time>2024-08-01T08:29:04Z</time>
      </trkpt>
      <trkpt lat="43.41119" lon="1.14177">
        <ele>241.2</ele>
        <time>2024-08-01T08:29:05Z</time>
      </trkpt>
      <trkpt lat="43.41116" lon="1.1419">
        <ele>240.8</ele>
        <time>2024-08-01T08:29:06Z</time>
      </trkpt>
      <trkpt lat="43.41112" lon="1.14202">
        <ele>240.8</ele>
        <time>2024-08-01T08:29:07Z</time>
      </trkpt>
      <trkpt lat="43.41108" lon="1.14215">
        <ele>240.4</ele>
        <time>2024-08-01T08:29:08Z</time>
      </trkpt>
      <trkpt lat="43.41104" lon="1.14228">
        <ele>240</ele>
        <time>2024-08-01T08:29:09Z</time>
      </trkpt>
      <trkpt lat="43.411" lon="1.14241">
        <ele>239.8</ele>
        <time>2024-08-01T08:29:10Z</time>
      </trkpt>
      <trkpt lat="43.41096" lon="1.14254">
        <ele>239.2</ele>
        <time>2024-08-01T08:29:11Z</time>
      </trkpt>
      <trkpt lat="43.41092" lon="1.14267">
        <ele>239.2</ele>
        <time>2024-08-01T08:29:12Z</time>
      </trkpt>
      <trkpt lat="43.41088" lon="1.1428">
        <ele>238.8</ele>
        <time>2024-08-01T08:29:13Z</time>
      </trkpt>
      <trkpt lat="43.41085" lon="1.14293">
        <ele>238.4</ele>
        <time>2024-08-01T08:29:14Z</time>
      </trkpt>
      <trkpt lat="43.41083" lon="1.14306">
        <ele>238</ele>
        <time>2024-08-01T08:29:15Z</time>
      </trkpt>
      <trkpt lat="43.41082" lon="1.14319">
        <ele>237.6</ele>
        <time>2024-08-01T08:29:16Z</time>
      </trkpt>
      <trkpt lat="43.41082" lon="1.14331">
        <ele>237.4</ele>
        <time>2024-08-01T08:29:17Z</time>
      </trkpt>
      <trkpt lat="43.41081" lon="1.14343">
        <ele>237</ele>
        <time>2024-08-01T08:29:18Z</time>
      </trkpt>
      <trkpt lat="43.41081" lon="1.14343">
        <ele>237</ele>
        <time>2024-08-01T08:29:19Z</time>
      </trkpt>
      <trkpt lat="43.4108" lon="1.14367">
        <ele>236.8</ele>
        <time>2024-08-01T08:29:20Z</time>
      </trkpt>
      <trkpt lat="43.41079" lon="1.14379">
        <ele>236.8</ele>
        <time>2024-08-01T08:29:21Z</time>
      </trkpt>
      <trkpt lat="43.41079" lon="1.1439">
        <ele>236.8</ele>
        <time>2024-08-01T08:29:22Z</time>
      </trkpt>
      <trkpt lat="43.41079" lon="1.14401">
        <ele>236.8</ele>
        <time>2024-08-01T08:29:23Z</time>
      </trkpt>
      <trkpt lat="43.4108" lon="1.14412">
        <ele>236.8</ele>
        <time>2024-08-01T08:29:24Z</time>
      </trkpt>
      <trkpt lat="43.4108" lon="1.14423">
        <ele>237.2</ele>
        <time>2024-08-01T08:29:25Z</time>
      </trkpt>
      <trkpt lat="43.41081" lon="1.14433">
        <ele>237.4</ele>
        <time>2024-08-01T08:29:26Z</time>
      </trkpt>
      <trkpt lat="43.41082" lon="1.14444">
        <ele>238</ele>
        <time>2024-08-01T08:29:27Z</time>
      </trkpt>
      <trkpt lat="43.41083" lon="1.14455">
        <ele>238.2</ele>
        <time>2024-08-01T08:29:28Z</time>
      </trkpt>
      <trkpt lat="43.41084" lon="1.14466">
        <ele>238.8</ele>
        <time>2024-08-01T08:29:29Z</time>
      </trkpt>
      <trkpt lat="43.41086" lon="1.14477">
        <ele>239.6</ele>
        <time>2024-08-01T08:29:30Z</time>
      </trkpt>
      <trkpt lat="43.41088" lon="1.14488">
        <ele>240</ele>
        <time>2024-08-01T08:29:31Z</time>
      </trkpt>
      <trkpt lat="43.4109" lon="1.14498">
        <ele>240.4</ele>
        <time>2024-08-01T08:29:32Z</time>
      </trkpt>
      <trkpt lat="43.41091" lon="1.14509">
        <ele>240.6</ele>
        <time>2024-08-01T08:29:33Z</time>
      </trkpt>
      <trkpt lat="43.41093" lon="1.14519">
        <ele>241</ele>
        <time>2024-08-01T08:29:34Z</time>
      </trkpt>
      <trkpt lat="43.41094" lon="1.1453">
        <ele>241.2</ele>
        <time>2024-08-01T08:29:35Z</time>
      </trkpt>
      <trkpt lat="43.41096" lon="1.1454">
        <ele>241.4</ele>
        <time>2024-08-01T08:29:36Z</time>
      </trkpt>
      <trkpt lat="43.41097" lon="1.1455">
        <ele>241.6</ele>
        <time>2024-08-01T08:29:37Z</time>
      </trkpt>
      <trkpt lat="43.41097" lon="1.1455">
        <ele>241.8</ele>
        <time>2024-08-01T08:29:38Z</time>
      </trkpt>
      <trkpt lat="43.41101" lon="1.14571">
        <ele>242</ele>
        <time>2024-08-01T08:29:39Z</time>
      </trkpt>
      <trkpt lat="43.41102" lon="1.14582">
        <ele>242</ele>
        <time>2024-08-01T08:29:40Z</time>
      </trkpt>
      <trkpt lat="43.41104" lon="1.14592">
        <ele>242</ele>
        <time>2024-08-01T08:29:41Z</time>
      </trkpt>
      <trkpt lat="43.41106" lon="1.14603">
        <ele>242</ele>
        <time>2024-08-01T08:29:42Z</time>
      </trkpt>
      <trkpt lat="43.41108" lon="1.14614">
        <ele>242</ele>
        <time>2024-08-01T08:29:43Z</time>
      </trkpt>
      <trkpt lat="43.41109" lon="1.14624">
        <ele>242</ele>
        <time>2024-08-01T08:29:44Z</time>
      </trkpt>
      <trkpt lat="43.41111" lon="1.14635">
        <ele>242.2</ele>
        <time>2024-08-01T08:29:45Z</time>
      </trkpt>
      <trkpt lat="43.41113" lon="1.14646">
        <ele>242.2</ele>
        <time>2024-08-01T08:29:46Z</time>
      </trkpt>
      <trkpt lat="43.41114" lon="1.14657">
        <ele>242.2</ele>
        <time>2024-08-01T08:29:47Z</time>
      </trkpt>
      <trkpt lat="43.41116" lon="1.14668">
        <ele>242.2</ele>
        <time>2024-08-01T08:29:48Z</time>
      </trkpt>
      <trkpt lat="43.41116" lon="1.14668">
        <ele>242.2</ele>
        <time>2024-08-01T08:29:49Z</time>
      </trkpt>
      <trkpt lat="43.41119" lon="1.1469">
        <ele>242.2</ele>
        <time>2024-08-01T08:29:50Z</time>
      </trkpt>
      <trkpt lat="43.41121" lon="1.14701">
        <ele>242.2</ele>
        <time>2024-08-01T08:29:51Z</time>
      </trkpt>
      <trkpt lat="43.41121" lon="1.14701">
        <ele>242.2</ele>
        <time>2024-08-01T08:29:52Z</time>
      </trkpt>
      <trkpt lat="43.41124" lon="1.14723">
        <ele>242.2</ele>
        <time>2024-08-01T08:29:53Z</time>
      </trkpt>
      <trkpt lat="43.41125" lon="1.14734">
        <ele>242.2</ele>
        <time>2024-08-01T08:29:54Z</time>
      </trkpt>
      <trkpt lat="43.41127" lon="1.14745">
        <ele>242</ele>
        <time>2024-08-01T08:29:55Z</time>
      </trkpt>
      <trkpt lat="43.41128" lon="1.14756">
        <ele>242</ele>
        <time>2024-08-01T08:29:56Z</time>
      </trkpt>
      <trkpt lat="43.4113" lon="1.14768">
        <ele>242</ele>
        <time>2024-08-01T08:29:57Z</time>
      </trkpt>
      <trkpt lat="43.41131" lon="1.14779">
        <ele>242</ele>
        <time>2024-08-01T08:29:58Z</time>
      </trkpt>
      <trkpt lat="43.41133" lon="1.1479">
        <ele>242</ele>
        <time>2024-08-01T08:29:59Z</time>
      </trkpt>
      <trkpt lat="43.41134" lon="1.14802">
        <ele>242</ele>
        <time>2024-08-01T08:30:00Z</time>
      </trkpt>
      <trkpt lat="43.41135" lon="1.14813">
        <ele>241.8</ele>
        <time>2024-08-01T08:30:01Z</time>
      </trkpt>
      <trkpt lat="43.41137" lon="1.14824">
        <ele>241.8</ele>
        <time>2024-08-01T08:30:02Z</time>
      </trkpt>
      <trkpt lat="43.41138" lon="1.14836">
        <ele>241.8</ele>
        <time>2024-08-01T08:30:03Z</time>
      </trkpt>
      <trkpt lat="43.41139" lon="1.14847">
        <ele>241.8</ele>
        <time>2024-08-01T08:30:04Z</time>
      </trkpt>
      <trkpt lat="43.41141" lon="1.14859">
        <ele>241.6</ele>
        <time>2024-08-01T08:30:05Z</time>
      </trkpt>
      <trkpt lat="43.41142" lon="1.14871">
        <ele>241.6</ele>
        <time>2024-08-01T08:30:06Z</time>
      </trkpt>
      <trkpt lat="43.41144" lon="1.14882">
        <ele>241.6</ele>
        <time>2024-08-01T08:30:07Z</time>
      </trkpt>
      <trkpt lat="43.41145" lon="1.14893">
        <ele>241.6</ele>
        <time>2024-08-01T08:30:08Z</time>
      </trkpt>
      <trkpt lat="43.41147" lon="1.14905">
        <ele>241.4</ele>
        <time>2024-08-01T08:30:09Z</time>
      </trkpt>
      <trkpt lat="43.41148" lon="1.14917">
        <ele>241.4</ele>
        <time>2024-08-01T08:30:10Z</time>
      </trkpt>
      <trkpt lat="43.4115" lon="1.14928">
        <ele>241.4</ele>
        <time>2024-08-01T08:30:11Z</time>
      </trkpt>
      <trkpt lat="43.41151" lon="1.1494">
        <ele>241.2</ele>
        <time>2024-08-01T08:30:12Z</time>
      </trkpt>
      <trkpt lat="43.41152" lon="1.14952">
        <ele>241.2</ele>
        <time>2024-08-01T08:30:13Z</time>
      </trkpt>
      <trkpt lat="43.41153" lon="1.14964">
        <ele>241.2</ele>
        <time>2024-08-01T08:30:14Z</time>
      </trkpt>
      <trkpt lat="43.41155" lon="1.14976">
        <ele>241.2</ele>
        <time>2024-08-01T08:30:15Z</time>
      </trkpt>
      <trkpt lat="43.41157" lon="1.14987">
        <ele>241.2</ele>
        <time>2024-08-01T08:30:16Z</time>
      </trkpt>
      <trkpt lat="43.41159" lon="1.14999">
        <ele>241</ele>
        <time>2024-08-01T08:30:17Z</time>
      </trkpt>
      <trkpt lat="43.41161" lon="1.15011">
        <ele>241</ele>
        <time>2024-08-01T08:30:18Z</time>
      </trkpt>
      <trkpt lat="43.41163" lon="1.15023">
        <ele>240.8</ele>
        <time>2024-08-01T08:30:19Z</time>
      </trkpt>
      <trkpt lat="43.41165" lon="1.15035">
        <ele>240.8</ele>
        <time>2024-08-01T08:30:20Z</time>
      </trkpt>
      <trkpt lat="43.41167" lon="1.15047">
        <ele>240.6</ele>
        <time>2024-08-01T08:30:21Z</time>
      </trkpt>
      <trkpt lat="43.41169" lon="1.15058">
        <ele>240.6</ele>
        <time>2024-08-01T08:30:22Z</time>
      </trkpt>
      <trkpt lat="43.41172" lon="1.1507">
        <ele>240.4</ele>
        <time>2024-08-01T08:30:23Z</time>
      </trkpt>
      <trkpt lat="43.41175" lon="1.15081">
        <ele>240.4</ele>
        <time>2024-08-01T08:30:24Z</time>
      </trkpt>
      <trkpt lat="43.41177" lon="1.15093">
        <ele>240.2</ele>
        <time>2024-08-01T08:30:25Z</time>
      </trkpt>
      <trkpt lat="43.4118" lon="1.15104">
        <ele>240.2</ele>
        <time>2024-08-01T08:30:26Z</time>
      </trkpt>
      <trkpt lat="43.41183" lon="1.15116">
        <ele>240</ele>
        <time>2024-08-01T08:30:27Z</time>
      </trkpt>
      <trkpt lat="43.41186" lon="1.15127">
        <ele>240</ele>
        <time>2024-08-01T08:30:28Z</time>
      </trkpt>
      <trkpt lat="43.41189" lon="1.15139">
        <ele>240</ele>
        <time>2024-08-01T08:30:29Z</time>
      </trkpt>
      <trkpt lat="43.41192" lon="1.15151">
        <ele>239.8</ele>
        <time>2024-08-01T08:30:30Z</time>
      </trkpt>
      <trkpt lat="43.41192" lon="1.15151">
        <ele>239.8</ele>
        <time>2024-08-01T08:30:31Z</time>
      </trkpt>
      <trkpt lat="43.41198" lon="1.15174">
        <ele>239.8</ele>
        <time>2024-08-01T08:30:32Z</time>
      </trkpt>
      <trkpt lat="43.41201" lon="1.15185">
        <ele>239.6</ele>
        <time>2024-08-01T08:30:33Z</time>
      </trkpt>
      <trkpt lat="43.41201" lon="1.15185">
        <ele>239.6</ele>
        <time>2024-08-01T08:30:34Z</time>
      </trkpt>
      <trkpt lat="43.41206" lon="1.15209">
        <ele>239.6</ele>
        <time>2024-08-01T08:30:35Z</time>
      </trkpt>
      <trkpt lat="43.41208" lon="1.15221">
        <ele>239.4</ele>
        <time>2024-08-01T08:30:36Z</time>
      </trkpt>
      <trkpt lat="43.41211" lon="1.15233">
        <ele>239.4</ele>
        <time>2024-08-01T08:30:37Z</time>
      </trkpt>
      <trkpt lat="43.41213" lon="1.15245">
        <ele>239.4</ele>
        <time>2024-08-01T08:30:38Z</time>
      </trkpt>
      <trkpt lat="43.41215" lon="1.15257">
        <ele>239.2</ele>
        <time>2024-08-01T08:30:39Z</time>
      </trkpt>
      <trkpt lat="43.41217" lon="1.15269">
        <ele>239.2</ele>
        <time>2024-08-01T08:30:40Z</time>
      </trkpt>
      <trkpt lat="43.41219" lon="1.1528">
        <ele>239.2</ele>
        <time>2024-08-01T08:30:41Z</time>
      </trkpt>
      <trkpt lat="43.41221" lon="1.15292">
        <ele>239</ele>
        <time>2024-08-01T08:30:42Z</time>
      </trkpt>
      <trkpt lat="43.41222" lon="1.15304">
        <ele>239</ele>
        <time>2024-08-01T08:30:43Z</time>
      </trkpt>
      <trkpt lat="43.41224" lon="1.15316">
        <ele>238.6</ele>
        <time>2024-08-01T08:30:44Z</time>
      </trkpt>
      <trkpt lat="43.41226" lon="1.15328">
        <ele>238.4</ele>
        <time>2024-08-01T08:30:45Z</time>
      </trkpt>
      <trkpt lat="43.41228" lon="1.1534">
        <ele>238.4</ele>
        <time>2024-08-01T08:30:46Z</time>
      </trkpt>
      <trkpt lat="43.41229" lon="1.15352">
        <ele>238.2</ele>
        <time>2024-08-01T08:30:47Z</time>
      </trkpt>
      <trkpt lat="43.41231" lon="1.15363">
        <ele>238.2</ele>
        <time>2024-08-01T08:30:48Z</time>
      </trkpt>
      <trkpt lat="43.41233" lon="1.15375">
        <ele>238</ele>
        <time>2024-08-01T08:30:49Z</time>
      </trkpt>
      <trkpt lat="43.41234" lon="1.15386">
        <ele>238</ele>
        <time>2024-08-01T08:30:50Z</time>
      </trkpt>
      <trkpt lat="43.41236" lon="1.15397">
        <ele>237.6</ele>
        <time>2024-08-01T08:30:51Z</time>
      </trkpt>
      <trkpt lat="43.41238" lon="1.15408">
        <ele>237.6</ele>
        <time>2024-08-01T08:30:52Z</time>
      </trkpt>
      <trkpt lat="43.41239" lon="1.15419">
        <ele>237.4</ele>
        <time>2024-08-01T08:30:53Z</time>
      </trkpt>
      <trkpt lat="43.41241" lon="1.1543">
        <ele>237.4</ele>
        <time>2024-08-01T08:30:54Z</time>
      </trkpt>
      <trkpt lat="43.41243" lon="1.1544">
        <ele>237.2</ele>
        <time>2024-08-01T08:30:55Z</time>
      </trkpt>
      <trkpt lat="43.41245" lon="1.1545">
        <ele>237.2</ele>
        <time>2024-08-01T08:30:56Z</time>
      </trkpt>
      <trkpt lat="43.41247" lon="1.1546">
        <ele>237.2</ele>
        <time>2024-08-01T08:30:57Z</time>
      </trkpt>
      <trkpt lat="43.41249" lon="1.15471">
        <ele>237.2</ele>
        <time>2024-08-01T08:30:58Z</time>
      </trkpt>
      <trkpt lat="43.41251" lon="1.15481">
        <ele>237.4</ele>
        <time>2024-08-01T08:30:59Z</time>
      </trkpt>
      <trkpt lat="43.41253" lon="1.15491">
        <ele>237.4</ele>
        <time>2024-08-01T08:31:00Z</time>
      </trkpt>
      <trkpt lat="43.41255" lon="1.15501">
        <ele>237.4</ele>
        <time>2024-08-01T08:31:01Z</time>
      </trkpt>
      <trkpt lat="43.41258" lon="1.15511">
        <ele>237.4</ele>
        <time>2024-08-01T08:31:02Z</time>
      </trkpt>
      <trkpt lat="43.41261" lon="1.15521">
        <ele>237.2</ele>
        <time>2024-08-01T08:31:03Z</time>
      </trkpt>
      <trkpt lat="43.41264" lon="1.15531">
        <ele>237</ele>
        <time>2024-08-01T08:31:04Z</time>
      </trkpt>
      <trkpt lat="43.41267" lon="1.15541">
        <ele>237</ele>
        <time>2024-08-01T08:31:05Z</time>
      </trkpt>
      <trkpt lat="43.4127" lon="1.1555">
        <ele>237.2</ele>
        <time>2024-08-01T08:31:06Z</time>
      </trkpt>
      <trkpt lat="43.41273" lon="1.15561">
        <ele>237.2</ele>
        <time>2024-08-01T08:31:07Z</time>
      </trkpt>
      <trkpt lat="43.41276" lon="1.15571">
        <ele>237.2</ele>
        <time>2024-08-01T08:31:08Z</time>
      </trkpt>
      <trkpt lat="43.41279" lon="1.1558">
        <ele>237.2</ele>
        <time>2024-08-01T08:31:09Z</time>
      </trkpt>
      <trkpt lat="43.41282" lon="1.15591">
        <ele>237.2</ele>
        <time>2024-08-01T08:31:10Z</time>
      </trkpt>
      <trkpt lat="43.41285" lon="1.15601">
        <ele>237.2</ele>
        <time>2024-08-01T08:31:11Z</time>
      </trkpt>
      <trkpt lat="43.41288" lon="1.15611">
        <ele>237.2</ele>
        <time>2024-08-01T08:31:12Z</time>
      </trkpt>
      <trkpt lat="43.41291" lon="1.15621">
        <ele>237</ele>
        <time>2024-08-01T08:31:13Z</time>
      </trkpt>
      <trkpt lat="43.41294" lon="1.15632">
        <ele>237</ele>
        <time>2024-08-01T08:31:14Z</time>
      </trkpt>
      <trkpt lat="43.41297" lon="1.15642">
        <ele>237</ele>
        <time>2024-08-01T08:31:15Z</time>
      </trkpt>
      <trkpt lat="43.41301" lon="1.15652">
        <ele>237</ele>
        <time>2024-08-01T08:31:16Z</time>
      </trkpt>
      <trkpt lat="43.41304" lon="1.15663">
        <ele>236.8</ele>
        <time>2024-08-01T08:31:17Z</time>
      </trkpt>
      <trkpt lat="43.41308" lon="1.15674">
        <ele>236.8</ele>
        <time>2024-08-01T08:31:18Z</time>
      </trkpt>
      <trkpt lat="43.41311" lon="1.15684">
        <ele>236.8</ele>
        <time>2024-08-01T08:31:19Z</time>
      </trkpt>
      <trkpt lat="43.41315" lon="1.15694">
        <ele>236.6</ele>
        <time>2024-08-01T08:31:20Z</time>
      </trkpt>
      <trkpt lat="43.41315" lon="1.15694">
        <ele>236.6</ele>
        <time>2024-08-01T08:31:21Z</time>
      </trkpt>
      <trkpt lat="43.41322" lon="1.15715">
        <ele>236.6</ele>
        <time>2024-08-01T08:31:22Z</time>
      </trkpt>
      <trkpt lat="43.41325" lon="1.15725">
        <ele>236.6</ele>
        <time>2024-08-01T08:31:23Z</time>
      </trkpt>
      <trkpt lat="43.41328" lon="1.15736">
        <ele>236.2</ele>
        <time>2024-08-01T08:31:24Z</time>
      </trkpt>
      <trkpt lat="43.41331" lon="1.15746">
        <ele>236.2</ele>
        <time>2024-08-01T08:31:25Z</time>
      </trkpt>
      <trkpt lat="43.41333" lon="1.15758">
        <ele>236.2</ele>
        <time>2024-08-01T08:31:26Z</time>
      </trkpt>
      <trkpt lat="43.41335" lon="1.15769">
        <ele>236</ele>
        <time>2024-08-01T08:31:27Z</time>
      </trkpt>
      <trkpt lat="43.41337" lon="1.15781">
        <ele>236</ele>
        <time>2024-08-01T08:31:28Z</time>
      </trkpt>
      <trkpt lat="43.41339" lon="1.15794">
        <ele>236</ele>
        <time>2024-08-01T08:31:29Z</time>
      </trkpt>
      <trkpt lat="43.41341" lon="1.15806">
        <ele>236</ele>
        <time>2024-08-01T08:31:30Z</time>
      </trkpt>
      <trkpt lat="43.41343" lon="1.1582">
        <ele>235.8</ele>
        <time>2024-08-01T08:31:31Z</time>
      </trkpt>
      <trkpt lat="43.41346" lon="1.15833">
        <ele>235.6</ele>
        <time>2024-08-01T08:31:32Z</time>
      </trkpt>
      <trkpt lat="43.41348" lon="1.15847">
        <ele>235.4</ele>
        <time>2024-08-01T08:31:33Z</time>
      </trkpt>
      <trkpt lat="43.4135" lon="1.15862">
        <ele>235</ele>
        <time>2024-08-01T08:31:34Z</time>
      </trkpt>
      <trkpt lat="43.41352" lon="1.15876">
        <ele>235</ele>
        <time>2024-08-01T08:31:35Z</time>
      </trkpt>
      <trkpt lat="43.41354" lon="1.1589">
        <ele>234.4</ele>
        <time>2024-08-01T08:31:36Z</time>
      </trkpt>
      <trkpt lat="43.41356" lon="1.15903">
        <ele>234</ele>
        <time>2024-08-01T08:31:37Z</time>
      </trkpt>
      <trkpt lat="43.41359" lon="1.15917">
        <ele>233.6</ele>
        <time>2024-08-01T08:31:38Z</time>
      </trkpt>
      <trkpt lat="43.41361" lon="1.1593">
        <ele>233.4</ele>
        <time>2024-08-01T08:31:39Z</time>
      </trkpt>
      <trkpt lat="43.41363" lon="1.15943">
        <ele>232.6</ele>
        <time>2024-08-01T08:31:40Z</time>
      </trkpt>
      <trkpt lat="43.41364" lon="1.15955">
        <ele>232.2</ele>
        <time>2024-08-01T08:31:41Z</time>
      </trkpt>
      <trkpt lat="43.41366" lon="1.15968">
        <ele>232</ele>
        <time>2024-08-01T08:31:42Z</time>
      </trkpt>
      <trkpt lat="43.41368" lon="1.1598">
        <ele>231.8</ele>
        <time>2024-08-01T08:31:43Z</time>
      </trkpt>
      <trkpt lat="43.4137" lon="1.15993">
        <ele>231.8</ele>
        <time>2024-08-01T08:31:44Z</time>
      </trkpt>
      <trkpt lat="43.41372" lon="1.16005">
        <ele>231.6</ele>
        <time>2024-08-01T08:31:45Z</time>
      </trkpt>
      <trkpt lat="43.41373" lon="1.16017">
        <ele>231.4</ele>
        <time>2024-08-01T08:31:46Z</time>
      </trkpt>
      <trkpt lat="43.41375" lon="1.1603">
        <ele>231.4</ele>
        <time>2024-08-01T08:31:47Z</time>
      </trkpt>
      <trkpt lat="43.41377" lon="1.16042">
        <ele>231.2</ele>
        <time>2024-08-01T08:31:48Z</time>
      </trkpt>
      <trkpt lat="43.4138" lon="1.16054">
        <ele>231.2</ele>
        <time>2024-08-01T08:31:49Z</time>
      </trkpt>
      <trkpt lat="43.41382" lon="1.16067">
        <ele>231.2</ele>
        <time>2024-08-01T08:31:50Z</time>
      </trkpt>
      <trkpt lat="43.41384" lon="1.16079">
        <ele>231.2</ele>
        <time>2024-08-01T08:31:51Z</time>
      </trkpt>
      <trkpt lat="43.41386" lon="1.16091">
        <ele>231</ele>
        <time>2024-08-01T08:31:52Z</time>
      </trkpt>
      <trkpt lat="43.41388" lon="1.16103">
        <ele>231</ele>
        <time>2024-08-01T08:31:53Z</time>
      </trkpt>
      <trkpt lat="43.4139" lon="1.16114">
        <ele>231</ele>
        <time>2024-08-01T08:31:54Z</time>
      </trkpt>
      <trkpt lat="43.41392" lon="1.16125">
        <ele>231</ele>
        <time>2024-08-01T08:31:55Z</time>
      </trkpt>
      <trkpt lat="43.41393" lon="1.16136">
        <ele>231</ele>
        <time>2024-08-01T08:31:56Z</time>
      </trkpt>
      <trkpt lat="43.41393" lon="1.16147">
        <ele>231.2</ele>
        <time>2024-08-01T08:31:57Z</time>
      </trkpt>
      <trkpt lat="43.41394" lon="1.16157">
        <ele>231.2</ele>
        <time>2024-08-01T08:31:58Z</time>
      </trkpt>
      <trkpt lat="43.41394" lon="1.16167">
        <ele>231.2</ele>
        <time>2024-08-01T08:31:59Z</time>
      </trkpt>
      <trkpt lat="43.41394" lon="1.16177">
        <ele>231.8</ele>
        <time>2024-08-01T08:32:00Z</time>
      </trkpt>
      <trkpt lat="43.41393" lon="1.16187">
        <ele>232</ele>
        <time>2024-08-01T08:32:01Z</time>
      </trkpt>
      <trkpt lat="43.41393" lon="1.16187">
        <ele>232.4</ele>
        <time>2024-08-01T08:32:02Z</time>
      </trkpt>
      <trkpt lat="43.41393" lon="1.16206">
        <ele>232.6</ele>
        <time>2024-08-01T08:32:03Z</time>
      </trkpt>
      <trkpt lat="43.41393" lon="1.16216">
        <ele>233</ele>
        <time>2024-08-01T08:32:04Z</time>
      </trkpt>
      <trkpt lat="43.41393" lon="1.16225">
        <ele>233</ele>
        <time>2024-08-01T08:32:05Z</time>
      </trkpt>
      <trkpt lat="43.41393" lon="1.16235">
        <ele>233.4</ele>
        <time>2024-08-01T08:32:06Z</time>
      </trkpt>
      <trkpt lat="43.41393" lon="1.16246">
        <ele>233.8</ele>
        <time>2024-08-01T08:32:07Z</time>
      </trkpt>
      <trkpt lat="43.41394" lon="1.16256">
        <ele>234</ele>
        <time>2024-08-01T08:32:08Z</time>
      </trkpt>
      <trkpt lat="43.41395" lon="1.16266">
        <ele>234.4</ele>
        <time>2024-08-01T08:32:09Z</time>
      </trkpt>
      <trkpt lat="43.41396" lon="1.16277">
        <ele>234.6</ele>
        <time>2024-08-01T08:32:10Z</time>
      </trkpt>
      <trkpt lat="43.41398" lon="1.16287">
        <ele>234.8</ele>
        <time>2024-08-01T08:32:11Z</time>
      </trkpt>
      <trkpt lat="43.414" lon="1.16298">
        <ele>234.8</ele>
        <time>2024-08-01T08:32:12Z</time>
      </trkpt>
      <trkpt lat="43.41402" lon="1.16308">
        <ele>235</ele>
        <time>2024-08-01T08:32:13Z</time>
      </trkpt>
      <trkpt lat="43.41404" lon="1.16318">
        <ele>235</ele>
        <time>2024-08-01T08:32:14Z</time>
      </trkpt>
      <trkpt lat="43.41406" lon="1.16328">
        <ele>235</ele>
        <time>2024-08-01T08:32:15Z</time>
      </trkpt>
      <trkpt lat="43.41408" lon="1.16338">
        <ele>235.2</ele>
        <time>2024-08-01T08:32:16Z</time>
      </trkpt>
      <trkpt lat="43.4141" lon="1.16348">
        <ele>235.2</ele>
        <time>2024-08-01T08:32:17Z</time>
      </trkpt>
      <trkpt lat="43.41412" lon="1.16358">
        <ele>235.2</ele>
        <time>2024-08-01T08:32:18Z</time>
      </trkpt>
      <trkpt lat="43.41414" lon="1.16367">
        <ele>235.2</ele>
        <time>2024-08-01T08:32:19Z</time>
      </trkpt>
      <trkpt lat="43.41415" lon="1.16377">
        <ele>235.4</ele>
        <time>2024-08-01T08:32:20Z</time>
      </trkpt>
      <trkpt lat="43.41415" lon="1.16377">
        <ele>235.4</ele>
        <time>2024-08-01T08:32:21Z</time>
      </trkpt>
      <trkpt lat="43.41419" lon="1.16397">
        <ele>235.4</ele>
        <time>2024-08-01T08:32:22Z</time>
      </trkpt>
      <trkpt lat="43.4142" lon="1.16406">
        <ele>235.4</ele>
        <time>2024-08-01T08:32:23Z</time>
      </trkpt>
      <trkpt lat="43.41422" lon="1.16416">
        <ele>235.6</ele>
        <time>2024-08-01T08:32:24Z</time>
      </trkpt>
      <trkpt lat="43.41424" lon="1.16426">
        <ele>235.8</ele>
        <time>2024-08-01T08:32:25Z</time>
      </trkpt>
      <trkpt lat="43.41425" lon="1.16436">
        <ele>235.8</ele>
        <time>2024-08-01T08:32:26Z</time>
      </trkpt>
      <trkpt lat="43.41427" lon="1.16446">
        <ele>236.2</ele>
        <time>2024-08-01T08:32:27Z</time>
      </trkpt>
      <trkpt lat="43.41429" lon="1.16456">
        <ele>236.2</ele>
        <time>2024-08-01T08:32:28Z</time>
      </trkpt>
      <trkpt lat="43.41431" lon="1.16466">
        <ele>236.2</ele>
        <time>2024-08-01T08:32:29Z</time>
      </trkpt>
      <trkpt lat="43.41433" lon="1.16476">
        <ele>236.2</ele>
        <time>2024-08-01T08:32:30Z</time>
      </trkpt>
      <trkpt lat="43.41435" lon="1.16484">
        <ele>236.2</ele>
        <time>2024-08-01T08:32:31Z</time>
      </trkpt>
      <trkpt lat="43.41437" lon="1.16496">
        <ele>236.4</ele>
        <time>2024-08-01T08:32:32Z</time>
      </trkpt>
      <trkpt lat="43.41439" lon="1.16507">
        <ele>236.6</ele>
        <time>2024-08-01T08:32:33Z</time>
      </trkpt>
      <trkpt lat="43.41441" lon="1.16517">
        <ele>236.6</ele>
        <time>2024-08-01T08:32:34Z</time>
      </trkpt>
      <trkpt lat="43.41443" lon="1.16527">
        <ele>236.6</ele>
        <time>2024-08-01T08:32:35Z</time>
      </trkpt>
      <trkpt lat="43.41445" lon="1.16538">
        <ele>236.6</ele>
        <time>2024-08-01T08:32:36Z</time>
      </trkpt>
      <trkpt lat="43.41447" lon="1.16548">
        <ele>236.6</ele>
        <time>2024-08-01T08:32:37Z</time>
      </trkpt>
      <trkpt lat="43.41449" lon="1.16558">
        <ele>236.6</ele>
        <time>2024-08-01T08:32:38Z</time>
      </trkpt>
      <trkpt lat="43.41451" lon="1.16569">
        <ele>236.6</ele>
        <time>2024-08-01T08:32:39Z</time>
      </trkpt>
      <trkpt lat="43.41453" lon="1.16579">
        <ele>236.4</ele>
        <time>2024-08-01T08:32:40Z</time>
      </trkpt>
      <trkpt lat="43.41455" lon="1.16589">
        <ele>236.4</ele>
        <time>2024-08-01T08:32:41Z</time>
      </trkpt>
      <trkpt lat="43.41457" lon="1.166">
        <ele>236.4</ele>
        <time>2024-08-01T08:32:42Z</time>
      </trkpt>
      <trkpt lat="43.4146" lon="1.1661">
        <ele>236.2</ele>
        <time>2024-08-01T08:32:43Z</time>
      </trkpt>
      <trkpt lat="43.41463" lon="1.1662">
        <ele>236.4</ele>
        <time>2024-08-01T08:32:44Z</time>
      </trkpt>
      <trkpt lat="43.41465" lon="1.1663">
        <ele>236.2</ele>
        <time>2024-08-01T08:32:45Z</time>
      </trkpt>
      <trkpt lat="43.41469" lon="1.1664">
        <ele>236.2</ele>
        <time>2024-08-01T08:32:46Z</time>
      </trkpt>
      <trkpt lat="43.41472" lon="1.1665">
        <ele>236.2</ele>
        <time>2024-08-01T08:32:47Z</time>
      </trkpt>
      <trkpt lat="43.41476" lon="1.1666">
        <ele>236.2</ele>
        <time>2024-08-01T08:32:48Z</time>
      </trkpt>
      <trkpt lat="43.41479" lon="1.16669">
        <ele>236.2</ele>
        <time>2024-08-01T08:32:49Z</time>
      </trkpt>
      <trkpt lat="43.41483" lon="1.16679">
        <ele>236.2</ele>
        <time>2024-08-01T08:32:50Z</time>
      </trkpt>
      <trkpt lat="43.41487" lon="1.16688">
        <ele>236</ele>
        <time>2024-08-01T08:32:51Z</time>
      </trkpt>
      <trkpt lat="43.41491" lon="1.16697">
        <ele>236.2</ele>
        <time>2024-08-01T08:32:52Z</time>
      </trkpt>
      <trkpt lat="43.41495" lon="1.16707">
        <ele>236</ele>
        <time>2024-08-01T08:32:53Z</time>
      </trkpt>
      <trkpt lat="43.41498" lon="1.16716">
        <ele>236</ele>
        <time>2024-08-01T08:32:54Z</time>
      </trkpt>
      <trkpt lat="43.41502" lon="1.16725">
        <ele>236.2</ele>
        <time>2024-08-01T08:32:55Z</time>
      </trkpt>
      <trkpt lat="43.41506" lon="1.16735">
        <ele>236.2</ele>
        <time>2024-08-01T08:32:56Z</time>
      </trkpt>
      <trkpt lat="43.4151" lon="1.16744">
        <ele>236.2</ele>
        <time>2024-08-01T08:32:57Z</time>
      </trkpt>
      <trkpt lat="43.41513" lon="1.16753">
        <ele>236.2</ele>
        <time>2024-08-01T08:32:58Z</time>
      </trkpt>
      <trkpt lat="43.41517" lon="1.16763">
        <ele>236.2</ele>
        <time>2024-08-01T08:32:59Z</time>
      </trkpt>
      <trkpt lat="43.41521" lon="1.16772">
        <ele>236.2</ele>
        <time>2024-08-01T08:33:00Z</time>
      </trkpt>
      <trkpt lat="43.41525" lon="1.16782">
        <ele>236.2</ele>
        <time>2024-08-01T08:33:01Z</time>
      </trkpt>
      <trkpt lat="43.41528" lon="1.16791">
        <ele>236.2</ele>
        <time>2024-08-01T08:33:02Z</time>
      </trkpt>
      <trkpt lat="43.41532" lon="1.16801">
        <ele>236.2</ele>
        <time>2024-08-01T08:33:03Z</time>
      </trkpt>
      <trkpt lat="43.41536" lon="1.1681">
        <ele>236.2</ele>
        <time>2024-08-01T08:33:04Z</time>
      </trkpt>
      <trkpt lat="43.4154" lon="1.16819">
        <ele>236.2</ele>
        <time>2024-08-01T08:33:05Z</time>
      </trkpt>
      <trkpt lat="43.41543" lon="1.16829">
        <ele>236.2</ele>
        <time>2024-08-01T08:33:06Z</time>
      </trkpt>
      <trkpt lat="43.41547" lon="1.16838">
        <ele>236.2</ele>
        <time>2024-08-01T08:33:07Z</time>
      </trkpt>
      <trkpt lat="43.41547" lon="1.16838">
        <ele>236.2</ele>
        <time>2024-08-01T08:33:08Z</time>
      </trkpt>
      <trkpt lat="43.41555" lon="1.16857">
        <ele>236.2</ele>
        <time>2024-08-01T08:33:09Z</time>
      </trkpt>
      <trkpt lat="43.41559" lon="1.16866">
        <ele>236.2</ele>
        <time>2024-08-01T08:33:10Z</time>
      </trkpt>
      <trkpt lat="43.41559" lon="1.16866">
        <ele>236.2</ele>
        <time>2024-08-01T08:33:11Z</time>
      </trkpt>
      <trkpt lat="43.41566" lon="1.16885">
        <ele>236.2</ele>
        <time>2024-08-01T08:33:12Z</time>
      </trkpt>
      <trkpt lat="43.41569" lon="1.16894">
        <ele>236.4</ele>
        <time>2024-08-01T08:33:13Z</time>
      </trkpt>
      <trkpt lat="43.41573" lon="1.16903">
        <ele>236.4</ele>
        <time>2024-08-01T08:33:14Z</time>
      </trkpt>
      <trkpt lat="43.41577" lon="1.16912">
        <ele>236.4</ele>
        <time>2024-08-01T08:33:15Z</time>
      </trkpt>
      <trkpt lat="43.41581" lon="1.16922">
        <ele>236.4</ele>
        <time>2024-08-01T08:33:16Z</time>
      </trkpt>
      <trkpt lat="43.41585" lon="1.16931">
        <ele>236.4</ele>
        <time>2024-08-01T08:33:17Z</time>
      </trkpt>
      <trkpt lat="43.41589" lon="1.1694">
        <ele>236.6</ele>
        <time>2024-08-01T08:33:18Z</time>
      </trkpt>
      <trkpt lat="43.41589" lon="1.1694">
        <ele>236.6</ele>
        <time>2024-08-01T08:33:19Z</time>
      </trkpt>
      <trkpt lat="43.41596" lon="1.16959">
        <ele>236.6</ele>
        <time>2024-08-01T08:33:20Z</time>
      </trkpt>
      <trkpt lat="43.416" lon="1.16968">
        <ele>236.6</ele>
        <time>2024-08-01T08:33:21Z</time>
      </trkpt>
      <trkpt lat="43.41604" lon="1.16978">
        <ele>236.6</ele>
        <time>2024-08-01T08:33:22Z</time>
      </trkpt>
      <trkpt lat="43.41607" lon="1.16987">
        <ele>236.6</ele>
        <time>2024-08-01T08:33:23Z</time>
      </trkpt>
      <trkpt lat="43.41611" lon="1.16996">
        <ele>236.6</ele>
        <time>2024-08-01T08:33:24Z</time>
      </trkpt>
      <trkpt lat="43.41615" lon="1.17004">
        <ele>236.6</ele>
        <time>2024-08-01T08:33:25Z</time>
      </trkpt>
      <trkpt lat="43.41618" lon="1.17013">
        <ele>236.4</ele>
        <time>2024-08-01T08:33:26Z</time>
      </trkpt>
      <trkpt lat="43.41622" lon="1.17021">
        <ele>236.4</ele>
        <time>2024-08-01T08:33:27Z</time>
      </trkpt>
      <trkpt lat="43.41625" lon="1.17029">
        <ele>236.4</ele>
        <time>2024-08-01T08:33:28Z</time>
      </trkpt>
      <trkpt lat="43.41628" lon="1.17037">
        <ele>236.4</ele>
        <time>2024-08-01T08:33:29Z</time>
      </trkpt>
      <trkpt lat="43.41632" lon="1.17045">
        <ele>236.4</ele>
        <time>2024-08-01T08:33:30Z</time>
      </trkpt>
      <trkpt lat="43.41635" lon="1.17054">
        <ele>236.4</ele>
        <time>2024-08-01T08:33:31Z</time>
      </trkpt>
      <trkpt lat="43.41639" lon="1.17062">
        <ele>236.4</ele>
        <time>2024-08-01T08:33:32Z</time>
      </trkpt>
      <trkpt lat="43.41642" lon="1.1707">
        <ele>236.2</ele>
        <time>2024-08-01T08:33:33Z</time>
      </trkpt>
      <trkpt lat="43.41645" lon="1.17079">
        <ele>236.2</ele>
        <time>2024-08-01T08:33:34Z</time>
      </trkpt>
      <trkpt lat="43.41649" lon="1.17088">
        <ele>236.2</ele>
        <time>2024-08-01T08:33:35Z</time>
      </trkpt>
      <trkpt lat="43.41652" lon="1.17097">
        <ele>236.2</ele>
        <time>2024-08-01T08:33:36Z</time>
      </trkpt>
      <trkpt lat="43.41655" lon="1.17106">
        <ele>236.2</ele>
        <time>2024-08-01T08:33:37Z</time>
      </trkpt>
      <trkpt lat="43.41655" lon="1.17106">
        <ele>236.2</ele>
        <time>2024-08-01T08:33:38Z</time>
      </trkpt>
      <trkpt lat="43.41661" lon="1.17124">
        <ele>236.2</ele>
        <time>2024-08-01T08:33:39Z</time>
      </trkpt>
      <trkpt lat="43.41663" lon="1.17133">
        <ele>236.2</ele>
        <time>2024-08-01T08:33:40Z</time>
      </trkpt>
      <trkpt lat="43.41665" lon="1.17143">
        <ele>236.2</ele>
        <time>2024-08-01T08:33:41Z</time>
      </trkpt>
      <trkpt lat="43.41668" lon="1.17153">
        <ele>236.2</ele>
        <time>2024-08-01T08:33:42Z</time>
      </trkpt>
      <trkpt lat="43.4167" lon="1.17162">
        <ele>236.2</ele>
        <time>2024-08-01T08:33:43Z</time>
      </trkpt>
      <trkpt lat="43.41672" lon="1.17171">
        <ele>236.2</ele>
        <time>2024-08-01T08:33:44Z</time>
      </trkpt>
      <trkpt lat="43.41675" lon="1.1718">
        <ele>236.2</ele>
        <time>2024-08-01T08:33:45Z</time>
      </trkpt>
      <trkpt lat="43.41677" lon="1.1719">
        <ele>236.2</ele>
        <time>2024-08-01T08:33:46Z</time>
      </trkpt>
      <trkpt lat="43.4168" lon="1.17199">
        <ele>236.2</ele>
        <time>2024-08-01T08:33:47Z</time>
      </trkpt>
      <trkpt lat="43.41682" lon="1.17208">
        <ele>236.2</ele>
        <time>2024-08-01T08:33:48Z</time>
      </trkpt>
      <trkpt lat="43.41684" lon="1.17217">
        <ele>236.2</ele>
        <time>2024-08-01T08:33:49Z</time>
      </trkpt>
      <trkpt lat="43.41686" lon="1.17226">
        <ele>236.2</ele>
        <time>2024-08-01T08:33:50Z</time>
      </trkpt>
      <trkpt lat="43.41688" lon="1.17234">
        <ele>236.2</ele>
        <time>2024-08-01T08:33:51Z</time>
      </trkpt>
      <trkpt lat="43.4169" lon="1.17243">
        <ele>236.2</ele>
        <time>2024-08-01T08:33:52Z</time>
      </trkpt>
      <trkpt lat="43.41692" lon="1.17251">
        <ele>236.2</ele>
        <time>2024-08-01T08:33:53Z</time>
      </trkpt>
      <trkpt lat="43.41694" lon="1.17259">
        <ele>236.2</ele>
        <time>2024-08-01T08:33:54Z</time>
      </trkpt>
      <trkpt lat="43.41696" lon="1.17267">
        <ele>236.4</ele>
        <time>2024-08-01T08:33:55Z</time>
      </trkpt>
      <trkpt lat="43.41698" lon="1.17275">
        <ele>236.4</ele>
        <time>2024-08-01T08:33:56Z</time>
      </trkpt>
      <trkpt lat="43.417" lon="1.17282">
        <ele>236.4</ele>
        <time>2024-08-01T08:33:57Z</time>
      </trkpt>
      <trkpt lat="43.41701" lon="1.17288">
        <ele>236.6</ele>
        <time>2024-08-01T08:33:58Z</time>
      </trkpt>
      <trkpt lat="43.41702" lon="1.17294">
        <ele>236.6</ele>
        <time>2024-08-01T08:33:59Z</time>
      </trkpt>
      <trkpt lat="43.41702" lon="1.173">
        <ele>236.6</ele>
        <time>2024-08-01T08:34:00Z</time>
      </trkpt>
      <trkpt lat="43.41702" lon="1.17305">
        <ele>236.6</ele>
        <time>2024-08-01T08:34:01Z</time>
      </trkpt>
      <trkpt lat="43.41702" lon="1.1731">
        <ele>236.8</ele>
        <time>2024-08-01T08:34:02Z</time>
      </trkpt>
      <trkpt lat="43.41702" lon="1.1731">
        <ele>236.8</ele>
        <time>2024-08-01T08:34:03Z</time>
      </trkpt>
      <trkpt lat="43.41707" lon="1.17317">
        <ele>236.8</ele>
        <time>2024-08-01T08:34:04Z</time>
      </trkpt>
      <trkpt lat="43.4171" lon="1.17317">
        <ele>236.8</ele>
        <time>2024-08-01T08:34:05Z</time>
      </trkpt>
      <trkpt lat="43.41714" lon="1.17316">
        <ele>236.8</ele>
        <time>2024-08-01T08:34:06Z</time>
      </trkpt>
      <trkpt lat="43.41718" lon="1.17314">
        <ele>236.8</ele>
        <time>2024-08-01T08:34:07Z</time>
      </trkpt>
      <trkpt lat="43.41722" lon="1.17312">
        <ele>236.6</ele>
        <time>2024-08-01T08:34:08Z</time>
      </trkpt>
      <trkpt lat="43.41726" lon="1.1731">
        <ele>236.6</ele>
        <time>2024-08-01T08:34:09Z</time>
      </trkpt>
      <trkpt lat="43.41731" lon="1.17309">
        <ele>236.6</ele>
        <time>2024-08-01T08:34:10Z</time>
      </trkpt>
      <trkpt lat="43.41736" lon="1.17307">
        <ele>236.6</ele>
        <time>2024-08-01T08:34:11Z</time>
      </trkpt>
      <trkpt lat="43.41742" lon="1.17306">
        <ele>236.4</ele>
        <time>2024-08-01T08:34:12Z</time>
      </trkpt>
      <trkpt lat="43.41747" lon="1.17305">
        <ele>236.4</ele>
        <time>2024-08-01T08:34:13Z</time>
      </trkpt>
      <trkpt lat="43.41753" lon="1.17306">
        <ele>236.2</ele>
        <time>2024-08-01T08:34:14Z</time>
      </trkpt>
      <trkpt lat="43.41759" lon="1.17308">
        <ele>236.2</ele>
        <time>2024-08-01T08:34:15Z</time>
      </trkpt>
      <trkpt lat="43.41765" lon="1.17312">
        <ele>236.2</ele>
        <time>2024-08-01T08:34:16Z</time>
      </trkpt>
      <trkpt lat="43.4177" lon="1.17317">
        <ele>236</ele>
        <time>2024-08-01T08:34:17Z</time>
      </trkpt>
      <trkpt lat="43.41774" lon="1.17323">
        <ele>235.6</ele>
        <time>2024-08-01T08:34:18Z</time>
      </trkpt>
      <trkpt lat="43.41777" lon="1.17332">
        <ele>235.4</ele>
        <time>2024-08-01T08:34:19Z</time>
      </trkpt>
      <trkpt lat="43.41779" lon="1.17341">
        <ele>235</ele>
        <time>2024-08-01T08:34:20Z</time>
      </trkpt>
      <trkpt lat="43.41782" lon="1.17351">
        <ele>234.8</ele>
        <time>2024-08-01T08:34:21Z</time>
      </trkpt>
      <trkpt lat="43.41785" lon="1.1736">
        <ele>234.4</ele>
        <time>2024-08-01T08:34:22Z</time>
      </trkpt>
      <trkpt lat="43.41787" lon="1.17369">
        <ele>234.2</ele>
        <time>2024-08-01T08:34:23Z</time>
      </trkpt>
      <trkpt lat="43.4179" lon="1.17379">
        <ele>234</ele>
        <time>2024-08-01T08:34:24Z</time>
      </trkpt>
      <trkpt lat="43.41793" lon="1.17388">
        <ele>233.6</ele>
        <time>2024-08-01T08:34:25Z</time>
      </trkpt>
      <trkpt lat="43.41795" lon="1.17398">
        <ele>233</ele>
        <time>2024-08-01T08:34:26Z</time>
      </trkpt>
      <trkpt lat="43.41798" lon="1.17408">
        <ele>232.6</ele>
        <time>2024-08-01T08:34:27Z</time>
      </trkpt>
      <trkpt lat="43.41801" lon="1.17417">
        <ele>232.4</ele>
        <time>2024-08-01T08:34:28Z</time>
      </trkpt>
      <trkpt lat="43.41804" lon="1.17426">
        <ele>232</ele>
        <time>2024-08-01T08:34:29Z</time>
      </trkpt>
      <trkpt lat="43.41804" lon="1.17426">
        <ele>231.6</ele>
        <time>2024-08-01T08:34:30Z</time>
      </trkpt>
      <trkpt lat="43.4181" lon="1.17444">
        <ele>231.4</ele>
        <time>2024-08-01T08:34:31Z</time>
      </trkpt>
      <trkpt lat="43.41813" lon="1.17453">
        <ele>231.2</ele>
        <time>2024-08-01T08:34:32Z</time>
      </trkpt>
      <trkpt lat="43.41816" lon="1.17461">
        <ele>231</ele>
        <time>2024-08-01T08:34:33Z</time>
      </trkpt>
      <trkpt lat="43.41819" lon="1.17469">
        <ele>230.8</ele>
        <time>2024-08-01T08:34:34Z</time>
      </trkpt>
      <trkpt lat="43.41822" lon="1.17476">
        <ele>230.6</ele>
        <time>2024-08-01T08:34:35Z</time>
      </trkpt>
      <trkpt lat="43.41825" lon="1.17483">
        <ele>230.4</ele>
        <time>2024-08-01T08:34:36Z</time>
      </trkpt>
      <trkpt lat="43.41828" lon="1.17491">
        <ele>230.4</ele>
        <time>2024-08-01T08:34:37Z</time>
      </trkpt>
      <trkpt lat="43.41828" lon="1.17491">
        <ele>230.2</ele>
        <time>2024-08-01T08:34:38Z</time>
      </trkpt>
      <trkpt lat="43.41834" lon="1.17509">
        <ele>230.2</ele>
        <time>2024-08-01T08:34:39Z</time>
      </trkpt>
      <trkpt lat="43.41837" lon="1.17519">
        <ele>229.8</ele>
        <time>2024-08-01T08:34:40Z</time>
      </trkpt>
      <trkpt lat="43.41837" lon="1.17519">
        <ele>229.6</ele>
        <time>2024-08-01T08:34:41Z</time>
      </trkpt>
      <trkpt lat="43.41842" lon="1.17541">
        <ele>229.6</ele>
        <time>2024-08-01T08:34:42Z</time>
      </trkpt>
      <trkpt lat="43.41845" lon="1.17551">
        <ele>229.2</ele>
        <time>2024-08-01T08:34:43Z</time>
      </trkpt>
      <trkpt lat="43.41847" lon="1.17561">
        <ele>228.8</ele>
        <time>2024-08-01T08:34:44Z</time>
      </trkpt>
      <trkpt lat="43.41849" lon="1.17571">
        <ele>228.2</ele>
        <time>2024-08-01T08:34:45Z</time>
      </trkpt>
      <trkpt lat="43.41851" lon="1.1758">
        <ele>227.8</ele>
        <time>2024-08-01T08:34:46Z</time>
      </trkpt>
      <trkpt lat="43.41853" lon="1.1759">
        <ele>227</ele>
        <time>2024-08-01T08:34:47Z</time>
      </trkpt>
      <trkpt lat="43.41855" lon="1.176">
        <ele>226.2</ele>
        <time>2024-08-01T08:34:48Z</time>
      </trkpt>
      <trkpt lat="43.41857" lon="1.1761">
        <ele>226</ele>
        <time>2024-08-01T08:34:49Z</time>
      </trkpt>
      <trkpt lat="43.4186" lon="1.1762">
        <ele>225.6</ele>
        <time>2024-08-01T08:34:50Z</time>
      </trkpt>
      <trkpt lat="43.41864" lon="1.17631">
        <ele>225</ele>
        <time>2024-08-01T08:34:51Z</time>
      </trkpt>
      <trkpt lat="43.41868" lon="1.1764">
        <ele>224.2</ele>
        <time>2024-08-01T08:34:52Z</time>
      </trkpt>
      <trkpt lat="43.41874" lon="1.17649">
        <ele>224.2</ele>
        <time>2024-08-01T08:34:53Z</time>
      </trkpt>
      <trkpt lat="43.41881" lon="1.17658">
        <ele>223.2</ele>
        <time>2024-08-01T08:34:54Z</time>
      </trkpt>
      <trkpt lat="43.41889" lon="1.17664">
        <ele>222.4</ele>
        <time>2024-08-01T08:34:55Z</time>
      </trkpt>
      <trkpt lat="43.41898" lon="1.17669">
        <ele>222.2</ele>
        <time>2024-08-01T08:34:56Z</time>
      </trkpt>
      <trkpt lat="43.41908" lon="1.17672">
        <ele>221.2</ele>
        <time>2024-08-01T08:34:57Z</time>
      </trkpt>
      <trkpt lat="43.41917" lon="1.17671">
        <ele>220.8</ele>
        <time>2024-08-01T08:34:58Z</time>
      </trkpt>
      <trkpt lat="43.41927" lon="1.17667">
        <ele>220</ele>
        <time>2024-08-01T08:34:59Z</time>
      </trkpt>
      <trkpt lat="43.41936" lon="1.17661">
        <ele>219.6</ele>
        <time>2024-08-01T08:35:00Z</time>
      </trkpt>
      <trkpt lat="43.41944" lon="1.17653">
        <ele>218.8</ele>
        <time>2024-08-01T08:35:01Z</time>
      </trkpt>
      <trkpt lat="43.41952" lon="1.17644">
        <ele>217.4</ele>
        <time>2024-08-01T08:35:02Z</time>
      </trkpt>
      <trkpt lat="43.4196" lon="1.17635">
        <ele>217</ele>
        <time>2024-08-01T08:35:03Z</time>
      </trkpt>
      <trkpt lat="43.41968" lon="1.17626">
        <ele>216.4</ele>
        <time>2024-08-01T08:35:04Z</time>
      </trkpt>
      <trkpt lat="43.41975" lon="1.17616">
        <ele>216</ele>
        <time>2024-08-01T08:35:05Z</time>
      </trkpt>
      <trkpt lat="43.41981" lon="1.17609">
        <ele>214.6</ele>
        <time>2024-08-01T08:35:06Z</time>
      </trkpt>
      <trkpt lat="43.41989" lon="1.17599">
        <ele>214.2</ele>
        <time>2024-08-01T08:35:07Z</time>
      </trkpt>
      <trkpt lat="43.41998" lon="1.17588">
        <ele>213.6</ele>
        <time>2024-08-01T08:35:08Z</time>
      </trkpt>
      <trkpt lat="43.42006" lon="1.17579">
        <ele>212.4</ele>
        <time>2024-08-01T08:35:09Z</time>
      </trkpt>
      <trkpt lat="43.42013" lon="1.17569">
        <ele>212</ele>
        <time>2024-08-01T08:35:10Z</time>
      </trkpt>
      <trkpt lat="43.42013" lon="1.17569">
        <ele>211.6</ele>
        <time>2024-08-01T08:35:11Z</time>
      </trkpt>
      <trkpt lat="43.42025" lon="1.17555">
        <ele>211.4</ele>
        <time>2024-08-01T08:35:12Z</time>
      </trkpt>
      <trkpt lat="43.42033" lon="1.17547">
        <ele>211</ele>
        <time>2024-08-01T08:35:13Z</time>
      </trkpt>
      <trkpt lat="43.42039" lon="1.17541">
        <ele>210.8</ele>
        <time>2024-08-01T08:35:14Z</time>
      </trkpt>
      <trkpt lat="43.42044" lon="1.17535">
        <ele>210.4</ele>
        <time>2024-08-01T08:35:15Z</time>
      </trkpt>
      <trkpt lat="43.42048" lon="1.1753">
        <ele>210</ele>
        <time>2024-08-01T08:35:16Z</time>
      </trkpt>
      <trkpt lat="43.42052" lon="1.17527">
        <ele>209.8</ele>
        <time>2024-08-01T08:35:17Z</time>
      </trkpt>
      <trkpt lat="43.42056" lon="1.17525">
        <ele>209.4</ele>
        <time>2024-08-01T08:35:18Z</time>
      </trkpt>
      <trkpt lat="43.42058" lon="1.17525">
        <ele>209.2</ele>
        <time>2024-08-01T08:35:19Z</time>
      </trkpt>
      <trkpt lat="43.42061" lon="1.17527">
        <ele>209</ele>
        <time>2024-08-01T08:35:20Z</time>
      </trkpt>
      <trkpt lat="43.42063" lon="1.1753">
        <ele>208.8</ele>
        <time>2024-08-01T08:35:21Z</time>
      </trkpt>
      <trkpt lat="43.42066" lon="1.17534">
        <ele>208.6</ele>
        <time>2024-08-01T08:35:22Z</time>
      </trkpt>
      <trkpt lat="43.4207" lon="1.17541">
        <ele>208.6</ele>
        <time>2024-08-01T08:35:23Z</time>
      </trkpt>
      <trkpt lat="43.42073" lon="1.17546">
        <ele>208.6</ele>
        <time>2024-08-01T08:35:24Z</time>
      </trkpt>
      <trkpt lat="43.42076" lon="1.17553">
        <ele>208.4</ele>
        <time>2024-08-01T08:35:25Z</time>
      </trkpt>
      <trkpt lat="43.42079" lon="1.17559">
        <ele>208.4</ele>
        <time>2024-08-01T08:35:26Z</time>
      </trkpt>
      <trkpt lat="43.42083" lon="1.17566">
        <ele>208.4</ele>
        <time>2024-08-01T08:35:27Z</time>
      </trkpt>
      <trkpt lat="43.42087" lon="1.17576">
        <ele>208.4</ele>
        <time>2024-08-01T08:35:28Z</time>
      </trkpt>
      <trkpt lat="43.4209" lon="1.17584">
        <ele>208.2</ele>
        <time>2024-08-01T08:35:29Z</time>
      </trkpt>
      <trkpt lat="43.42092" lon="1.17591">
        <ele>208.2</ele>
        <time>2024-08-01T08:35:30Z</time>
      </trkpt>
      <trkpt lat="43.42094" lon="1.176">
        <ele>208.2</ele>
        <time>2024-08-01T08:35:31Z</time>
      </trkpt>
      <trkpt lat="43.42097" lon="1.17609">
        <ele>208</ele>
        <time>2024-08-01T08:35:32Z</time>
      </trkpt>
      <trkpt lat="43.42099" lon="1.17621">
        <ele>208</ele>
        <time>2024-08-01T08:35:33Z</time>
      </trkpt>
      <trkpt lat="43.421" lon="1.1763">
        <ele>207.8</ele>
        <time>2024-08-01T08:35:34Z</time>
      </trkpt>
      <trkpt lat="43.42101" lon="1.1764">
        <ele>207.8</ele>
        <time>2024-08-01T08:35:35Z</time>
      </trkpt>
      <trkpt lat="43.42101" lon="1.1765">
        <ele>207.8</ele>
        <time>2024-08-01T08:35:36Z</time>
      </trkpt>
      <trkpt lat="43.42102" lon="1.17659">
        <ele>207.8</ele>
        <time>2024-08-01T08:35:37Z</time>
      </trkpt>
      <trkpt lat="43.42102" lon="1.17669">
        <ele>207.8</ele>
        <time>2024-08-01T08:35:38Z</time>
      </trkpt>
      <trkpt lat="43.42103" lon="1.17679">
        <ele>207.8</ele>
        <time>2024-08-01T08:35:39Z</time>
      </trkpt>
      <trkpt lat="43.42104" lon="1.17689">
        <ele>207.6</ele>
        <time>2024-08-01T08:35:40Z</time>
      </trkpt>
      <trkpt lat="43.42104" lon="1.17698">
        <ele>207.6</ele>
        <time>2024-08-01T08:35:41Z</time>
      </trkpt>
      <trkpt lat="43.42104" lon="1.17708">
        <ele>207.8</ele>
        <time>2024-08-01T08:35:42Z</time>
      </trkpt>
      <trkpt lat="43.42105" lon="1.17718">
        <ele>207.8</ele>
        <time>2024-08-01T08:35:43Z</time>
      </trkpt>
      <trkpt lat="43.42105" lon="1.17727">
        <ele>207.8</ele>
        <time>2024-08-01T08:35:44Z</time>
      </trkpt>
      <trkpt lat="43.42105" lon="1.17737">
        <ele>207.6</ele>
        <time>2024-08-01T08:35:45Z</time>
      </trkpt>
      <trkpt lat="43.42105" lon="1.17746">
        <ele>207.6</ele>
        <time>2024-08-01T08:35:46Z</time>
      </trkpt>
      <trkpt lat="43.42106" lon="1.17756">
        <ele>207.6</ele>
        <time>2024-08-01T08:35:47Z</time>
      </trkpt>
      <trkpt lat="43.42106" lon="1.17765">
        <ele>207.8</ele>
        <time>2024-08-01T08:35:48Z</time>
      </trkpt>
      <trkpt lat="43.42106" lon="1.17774">
        <ele>207.6</ele>
        <time>2024-08-01T08:35:49Z</time>
      </trkpt>
      <trkpt lat="43.42107" lon="1.17783">
        <ele>207.6</ele>
        <time>2024-08-01T08:35:50Z</time>
      </trkpt>
      <trkpt lat="43.42107" lon="1.17792">
        <ele>207.6</ele>
        <time>2024-08-01T08:35:51Z</time>
      </trkpt>
      <trkpt lat="43.42107" lon="1.17799">
        <ele>207.6</ele>
        <time>2024-08-01T08:35:52Z</time>
      </trkpt>
      <trkpt lat="43.42108" lon="1.17807">
        <ele>207.4</ele>
        <time>2024-08-01T08:35:53Z</time>
      </trkpt>
      <trkpt lat="43.42108" lon="1.17814">
        <ele>207.4</ele>
        <time>2024-08-01T08:35:54Z</time>
      </trkpt>
      <trkpt lat="43.42108" lon="1.17821">
        <ele>207.4</ele>
        <time>2024-08-01T08:35:55Z</time>
      </trkpt>
      <trkpt lat="43.42108" lon="1.17828">
        <ele>207.4</ele>
        <time>2024-08-01T08:35:56Z</time>
      </trkpt>
      <trkpt lat="43.42108" lon="1.17835">
        <ele>207.4</ele>
        <time>2024-08-01T08:35:57Z</time>
      </trkpt>
      <trkpt lat="43.42108" lon="1.17842">
        <ele>207.4</ele>
        <time>2024-08-01T08:35:58Z</time>
      </trkpt>
      <trkpt lat="43.42109" lon="1.17849">
        <ele>207.4</ele>
        <time>2024-08-01T08:35:59Z</time>
      </trkpt>
      <trkpt lat="43.42109" lon="1.17857">
        <ele>207.2</ele>
        <time>2024-08-01T08:36:00Z</time>
      </trkpt>
      <trkpt lat="43.4211" lon="1.17865">
        <ele>207.2</ele>
        <time>2024-08-01T08:36:01Z</time>
      </trkpt>
      <trkpt lat="43.4211" lon="1.17874">
        <ele>207.2</ele>
        <time>2024-08-01T08:36:02Z</time>
      </trkpt>
      <trkpt lat="43.4211" lon="1.17883">
        <ele>207.2</ele>
        <time>2024-08-01T08:36:03Z</time>
      </trkpt>
      <trkpt lat="43.42111" lon="1.17892">
        <ele>207.2</ele>
        <time>2024-08-01T08:36:04Z</time>
      </trkpt>
      <trkpt lat="43.42111" lon="1.179">
        <ele>207</ele>
        <time>2024-08-01T08:36:05Z</time>
      </trkpt>
      <trkpt lat="43.42112" lon="1.17909">
        <ele>207</ele>
        <time>2024-08-01T08:36:06Z</time>
      </trkpt>
      <trkpt lat="43.42112" lon="1.17918">
        <ele>206.8</ele>
        <time>2024-08-01T08:36:07Z</time>
      </trkpt>
      <trkpt lat="43.42112" lon="1.17928">
        <ele>206.8</ele>
        <time>2024-08-01T08:36:08Z</time>
      </trkpt>
      <trkpt lat="43.42113" lon="1.17937">
        <ele>206.6</ele>
        <time>2024-08-01T08:36:09Z</time>
      </trkpt>
      <trkpt lat="43.42113" lon="1.17947">
        <ele>206.6</ele>
        <time>2024-08-01T08:36:10Z</time>
      </trkpt>
      <trkpt lat="43.42114" lon="1.17957">
        <ele>206.4</ele>
        <time>2024-08-01T08:36:11Z</time>
      </trkpt>
      <trkpt lat="43.42115" lon="1.17967">
        <ele>206.2</ele>
        <time>2024-08-01T08:36:12Z</time>
      </trkpt>
      <trkpt lat="43.42115" lon="1.17978">
        <ele>206.2</ele>
        <time>2024-08-01T08:36:13Z</time>
      </trkpt>
      <trkpt lat="43.42116" lon="1.17988">
        <ele>206.2</ele>
        <time>2024-08-01T08:36:14Z</time>
      </trkpt>
      <trkpt lat="43.42118" lon="1.17998">
        <ele>206.2</ele>
        <time>2024-08-01T08:36:15Z</time>
      </trkpt>
      <trkpt lat="43.42119" lon="1.18009">
        <ele>206.2</ele>
        <time>2024-08-01T08:36:16Z</time>
      </trkpt>
      <trkpt lat="43.42122" lon="1.18019">
        <ele>206.2</ele>
        <time>2024-08-01T08:36:17Z</time>
      </trkpt>
      <trkpt lat="43.42124" lon="1.1803">
        <ele>206.2</ele>
        <time>2024-08-01T08:36:18Z</time>
      </trkpt>
      <trkpt lat="43.42124" lon="1.1803">
        <ele>206.2</ele>
        <time>2024-08-01T08:36:19Z</time>
      </trkpt>
      <trkpt lat="43.4213" lon="1.18049">
        <ele>206.2</ele>
        <time>2024-08-01T08:36:20Z</time>
      </trkpt>
      <trkpt lat="43.42132" lon="1.18059">
        <ele>206</ele>
        <time>2024-08-01T08:36:21Z</time>
      </trkpt>
      <trkpt lat="43.42135" lon="1.18069">
        <ele>206</ele>
        <time>2024-08-01T08:36:22Z</time>
      </trkpt>
      <trkpt lat="43.42137" lon="1.18078">
        <ele>206</ele>
        <time>2024-08-01T08:36:23Z</time>
      </trkpt>
      <trkpt lat="43.4214" lon="1.18088">
        <ele>206</ele>
        <time>2024-08-01T08:36:24Z</time>
      </trkpt>
      <trkpt lat="43.42143" lon="1.18097">
        <ele>206</ele>
        <time>2024-08-01T08:36:25Z</time>
      </trkpt>
      <trkpt lat="43.42145" lon="1.18107">
        <ele>206</ele>
        <time>2024-08-01T08:36:26Z</time>
      </trkpt>
      <trkpt lat="43.42148" lon="1.18116">
        <ele>206</ele>
        <time>2024-08-01T08:36:27Z</time>
      </trkpt>
      <trkpt lat="43.4215" lon="1.18126">
        <ele>206</ele>
        <time>2024-08-01T08:36:28Z</time>
      </trkpt>
      <trkpt lat="43.42153" lon="1.18135">
        <ele>206</ele>
        <time>2024-08-01T08:36:29Z</time>
      </trkpt>
      <trkpt lat="43.42156" lon="1.18145">
        <ele>205.8</ele>
        <time>2024-08-01T08:36:30Z</time>
      </trkpt>
      <trkpt lat="43.42158" lon="1.18154">
        <ele>205.8</ele>
        <time>2024-08-01T08:36:31Z</time>
      </trkpt>
      <trkpt lat="43.42161" lon="1.18163">
        <ele>205.8</ele>
        <time>2024-08-01T08:36:32Z</time>
      </trkpt>
      <trkpt lat="43.42163" lon="1.18172">
        <ele>205.8</ele>
        <time>2024-08-01T08:36:33Z</time>
      </trkpt>
      <trkpt lat="43.42165" lon="1.18182">
        <ele>205.8</ele>
        <time>2024-08-01T08:36:34Z</time>
      </trkpt>
      <trkpt lat="43.42168" lon="1.18191">
        <ele>205.8</ele>
        <time>2024-08-01T08:36:35Z</time>
      </trkpt>
      <trkpt lat="43.4217" lon="1.182">
        <ele>205.8</ele>
        <time>2024-08-01T08:36:36Z</time>
      </trkpt>
      <trkpt lat="43.42173" lon="1.1821">
        <ele>205.8</ele>
        <time>2024-08-01T08:36:37Z</time>
      </trkpt>
      <trkpt lat="43.42176" lon="1.18218">
        <ele>205.8</ele>
        <time>2024-08-01T08:36:38Z</time>
      </trkpt>
      <trkpt lat="43.42179" lon="1.18227">
        <ele>205.8</ele>
        <time>2024-08-01T08:36:39Z</time>
      </trkpt>
      <trkpt lat="43.42181" lon="1.18236">
        <ele>205.6</ele>
        <time>2024-08-01T08:36:40Z</time>
      </trkpt>
      <trkpt lat="43.42184" lon="1.18244">
        <ele>205.6</ele>
        <time>2024-08-01T08:36:41Z</time>
      </trkpt>
      <trkpt lat="43.42187" lon="1.18253">
        <ele>205.6</ele>
        <time>2024-08-01T08:36:42Z</time>
      </trkpt>
      <trkpt lat="43.4219" lon="1.18262">
        <ele>205.6</ele>
        <time>2024-08-01T08:36:43Z</time>
      </trkpt>
      <trkpt lat="43.42193" lon="1.18271">
        <ele>205.6</ele>
        <time>2024-08-01T08:36:44Z</time>
      </trkpt>
      <trkpt lat="43.42195" lon="1.1828">
        <ele>205.6</ele>
        <time>2024-08-01T08:36:45Z</time>
      </trkpt>
      <trkpt lat="43.42198" lon="1.18289">
        <ele>205.6</ele>
        <time>2024-08-01T08:36:46Z</time>
      </trkpt>
      <trkpt lat="43.42201" lon="1.18297">
        <ele>205.4</ele>
        <time>2024-08-01T08:36:47Z</time>
      </trkpt>
      <trkpt lat="43.42204" lon="1.18306">
        <ele>205.4</ele>
        <time>2024-08-01T08:36:48Z</time>
      </trkpt>
      <trkpt lat="43.42208" lon="1.18315">
        <ele>205.4</ele>
        <time>2024-08-01T08:36:49Z</time>
      </trkpt>
      <trkpt lat="43.42211" lon="1.18324">
        <ele>205.4</ele>
        <time>2024-08-01T08:36:50Z</time>
      </trkpt>
      <trkpt lat="43.42215" lon="1.18333">
        <ele>205.4</ele>
        <time>2024-08-01T08:36:51Z</time>
      </trkpt>
      <trkpt lat="43.42219" lon="1.18342">
        <ele>205.4</ele>
        <time>2024-08-01T08:36:52Z</time>
      </trkpt>
      <trkpt lat="43.42224" lon="1.1835">
        <ele>205.2</ele>
        <time>2024-08-01T08:36:53Z</time>
      </trkpt>
      <trkpt lat="43.42228" lon="1.18359">
        <ele>205.2</ele>
        <time>2024-08-01T08:36:54Z</time>
      </trkpt>
      <trkpt lat="43.42233" lon="1.18368">
        <ele>205.2</ele>
        <time>2024-08-01T08:36:55Z</time>
      </trkpt>
      <trkpt lat="43.42237" lon="1.18377">
        <ele>205.2</ele>
        <time>2024-08-01T08:36:56Z</time>
      </trkpt>
      <trkpt lat="43.42242" lon="1.18386">
        <ele>205.2</ele>
        <time>2024-08-01T08:36:57Z</time>
      </trkpt>
      <trkpt lat="43.42246" lon="1.18395">
        <ele>205.2</ele>
        <time>2024-08-01T08:36:58Z</time>
      </trkpt>
      <trkpt lat="43.42251" lon="1.18404">
        <ele>205.2</ele>
        <time>2024-08-01T08:36:59Z</time>
      </trkpt>
      <trkpt lat="43.42255" lon="1.18413">
        <ele>205</ele>
        <time>2024-08-01T08:37:00Z</time>
      </trkpt>
      <trkpt lat="43.4226" lon="1.18422">
        <ele>205</ele>
        <time>2024-08-01T08:37:01Z</time>
      </trkpt>
      <trkpt lat="43.42264" lon="1.18431">
        <ele>205</ele>
        <time>2024-08-01T08:37:02Z</time>
      </trkpt>
      <trkpt lat="43.42267" lon="1.1844">
        <ele>205</ele>
        <time>2024-08-01T08:37:03Z</time>
      </trkpt>
      <trkpt lat="43.42272" lon="1.18449">
        <ele>205</ele>
        <time>2024-08-01T08:37:04Z</time>
      </trkpt>
      <trkpt lat="43.42276" lon="1.18457">
        <ele>205</ele>
        <time>2024-08-01T08:37:05Z</time>
      </trkpt>
      <trkpt lat="43.42276" lon="1.18457">
        <ele>205</ele>
        <time>2024-08-01T08:37:06Z</time>
      </trkpt>
      <trkpt lat="43.42285" lon="1.18471">
        <ele>205</ele>
        <time>2024-08-01T08:37:07Z</time>
      </trkpt>
      <trkpt lat="43.42289" lon="1.18478">
        <ele>205</ele>
        <time>2024-08-01T08:37:08Z</time>
      </trkpt>
      <trkpt lat="43.42294" lon="1.18483">
        <ele>205</ele>
        <time>2024-08-01T08:37:09Z</time>
      </trkpt>
      <trkpt lat="43.423" lon="1.18489">
        <ele>205</ele>
        <time>2024-08-01T08:37:10Z</time>
      </trkpt>
      <trkpt lat="43.42306" lon="1.18494">
        <ele>205</ele>
        <time>2024-08-01T08:37:11Z</time>
      </trkpt>
      <trkpt lat="43.42312" lon="1.18499">
        <ele>205</ele>
        <time>2024-08-01T08:37:12Z</time>
      </trkpt>
      <trkpt lat="43.42318" lon="1.18503">
        <ele>205</ele>
        <time>2024-08-01T08:37:13Z</time>
      </trkpt>
      <trkpt lat="43.42325" lon="1.18508">
        <ele>205</ele>
        <time>2024-08-01T08:37:14Z</time>
      </trkpt>
      <trkpt lat="43.42331" lon="1.18513">
        <ele>205.4</ele>
        <time>2024-08-01T08:37:15Z</time>
      </trkpt>
      <trkpt lat="43.42338" lon="1.18518">
        <ele>205.4</ele>
        <time>2024-08-01T08:37:16Z</time>
      </trkpt>
      <trkpt lat="43.42344" lon="1.18524">
        <ele>205.4</ele>
        <time>2024-08-01T08:37:17Z</time>
      </trkpt>
      <trkpt lat="43.4235" lon="1.1853">
        <ele>205.4</ele>
        <time>2024-08-01T08:37:18Z</time>
      </trkpt>
      <trkpt lat="43.42355" lon="1.18536">
        <ele>205.4</ele>
        <time>2024-08-01T08:37:19Z</time>
      </trkpt>
      <trkpt lat="43.4236" lon="1.18542">
        <ele>205.4</ele>
        <time>2024-08-01T08:37:20Z</time>
      </trkpt>
      <trkpt lat="43.42365" lon="1.18549">
        <ele>205.4</ele>
        <time>2024-08-01T08:37:21Z</time>
      </trkpt>
      <trkpt lat="43.4237" lon="1.18557">
        <ele>205.4</ele>
        <time>2024-08-01T08:37:22Z</time>
      </trkpt>
      <trkpt lat="43.42374" lon="1.18565">
        <ele>205.4</ele>
        <time>2024-08-01T08:37:23Z</time>
      </trkpt>
      <trkpt lat="43.42378" lon="1.18574">
        <ele>205.4</ele>
        <time>2024-08-01T08:37:24Z</time>
      </trkpt>
      <trkpt lat="43.42382" lon="1.18583">
        <ele>205.4</ele>
        <time>2024-08-01T08:37:25Z</time>
      </trkpt>
      <trkpt lat="43.42386" lon="1.18591">
        <ele>205.4</ele>
        <time>2024-08-01T08:37:26Z</time>
      </trkpt>
      <trkpt lat="43.42391" lon="1.186">
        <ele>205.4</ele>
        <time>2024-08-01T08:37:27Z</time>
      </trkpt>
      <trkpt lat="43.42395" lon="1.18609">
        <ele>205.4</ele>
        <time>2024-08-01T08:37:28Z</time>
      </trkpt>
      <trkpt lat="43.424" lon="1.18617">
        <ele>205.4</ele>
        <time>2024-08-01T08:37:29Z</time>
      </trkpt>
      <trkpt lat="43.42404" lon="1.18625">
        <ele>205</ele>
        <time>2024-08-01T08:37:30Z</time>
      </trkpt>
      <trkpt lat="43.42409" lon="1.18633">
        <ele>205</ele>
        <time>2024-08-01T08:37:31Z</time>
      </trkpt>
      <trkpt lat="43.42415" lon="1.1864">
        <ele>205</ele>
        <time>2024-08-01T08:37:32Z</time>
      </trkpt>
      <trkpt lat="43.42421" lon="1.18647">
        <ele>205</ele>
        <time>2024-08-01T08:37:33Z</time>
      </trkpt>
      <trkpt lat="43.42427" lon="1.18653">
        <ele>205</ele>
        <time>2024-08-01T08:37:34Z</time>
      </trkpt>
      <trkpt lat="43.42433" lon="1.18657">
        <ele>204.6</ele>
        <time>2024-08-01T08:37:35Z</time>
      </trkpt>
      <trkpt lat="43.42441" lon="1.18662">
        <ele>204.6</ele>
        <time>2024-08-01T08:37:36Z</time>
      </trkpt>
      <trkpt lat="43.42448" lon="1.18665">
        <ele>204.6</ele>
        <time>2024-08-01T08:37:37Z</time>
      </trkpt>
      <trkpt lat="43.42455" lon="1.18669">
        <ele>204.6</ele>
        <time>2024-08-01T08:37:38Z</time>
      </trkpt>
      <trkpt lat="43.42463" lon="1.18672">
        <ele>204.6</ele>
        <time>2024-08-01T08:37:39Z</time>
      </trkpt>
      <trkpt lat="43.4247" lon="1.18675">
        <ele>204.6</ele>
        <time>2024-08-01T08:37:40Z</time>
      </trkpt>
      <trkpt lat="43.42478" lon="1.18678">
        <ele>204.6</ele>
        <time>2024-08-01T08:37:41Z</time>
      </trkpt>
      <trkpt lat="43.42485" lon="1.1868">
        <ele>204.6</ele>
        <time>2024-08-01T08:37:42Z</time>
      </trkpt>
      <trkpt lat="43.42492" lon="1.18683">
        <ele>204.8</ele>
        <time>2024-08-01T08:37:43Z</time>
      </trkpt>
      <trkpt lat="43.42499" lon="1.18685">
        <ele>204.8</ele>
        <time>2024-08-01T08:37:44Z</time>
      </trkpt>
      <trkpt lat="43.42507" lon="1.18687">
        <ele>204.8</ele>
        <time>2024-08-01T08:37:45Z</time>
      </trkpt>
      <trkpt lat="43.42514" lon="1.18689">
        <ele>204.8</ele>
        <time>2024-08-01T08:37:46Z</time>
      </trkpt>
      <trkpt lat="43.42521" lon="1.18692">
        <ele>204.8</ele>
        <time>2024-08-01T08:37:47Z</time>
      </trkpt>
      <trkpt lat="43.42529" lon="1.18694">
        <ele>204.8</ele>
        <time>2024-08-01T08:37:48Z</time>
      </trkpt>
      <trkpt lat="43.42537" lon="1.18697">
        <ele>204.8</ele>
        <time>2024-08-01T08:37:49Z</time>
      </trkpt>
      <trkpt lat="43.42545" lon="1.18699">
        <ele>204.8</ele>
        <time>2024-08-01T08:37:50Z</time>
      </trkpt>
      <trkpt lat="43.42552" lon="1.18702">
        <ele>204.8</ele>
        <time>2024-08-01T08:37:51Z</time>
      </trkpt>
      <trkpt lat="43.4256" lon="1.18704">
        <ele>204.8</ele>
        <time>2024-08-01T08:37:52Z</time>
      </trkpt>
      <trkpt lat="43.42567" lon="1.18706">
        <ele>204.8</ele>
        <time>2024-08-01T08:37:53Z</time>
      </trkpt>
      <trkpt lat="43.42575" lon="1.18708">
        <ele>204.8</ele>
        <time>2024-08-01T08:37:54Z</time>
      </trkpt>
      <trkpt lat="43.42582" lon="1.18711">
        <ele>204.6</ele>
        <time>2024-08-01T08:37:55Z</time>
      </trkpt>
      <trkpt lat="43.4259" lon="1.18713">
        <ele>204.6</ele>
        <time>2024-08-01T08:37:56Z</time>
      </trkpt>
      <trkpt lat="43.42597" lon="1.18715">
        <ele>204.6</ele>
        <time>2024-08-01T08:37:57Z</time>
      </trkpt>
      <trkpt lat="43.42605" lon="1.18718">
        <ele>204.6</ele>
        <time>2024-08-01T08:37:58Z</time>
      </trkpt>
      <trkpt lat="43.42613" lon="1.1872">
        <ele>204.6</ele>
        <time>2024-08-01T08:37:59Z</time>
      </trkpt>
      <trkpt lat="43.42621" lon="1.18723">
        <ele>204.6</ele>
        <time>2024-08-01T08:38:00Z</time>
      </trkpt>
      <trkpt lat="43.42629" lon="1.18726">
        <ele>204.6</ele>
        <time>2024-08-01T08:38:01Z</time>
      </trkpt>
      <trkpt lat="43.42636" lon="1.18728">
        <ele>204.4</ele>
        <time>2024-08-01T08:38:02Z</time>
      </trkpt>
      <trkpt lat="43.42644" lon="1.18731">
        <ele>204.4</ele>
        <time>2024-08-01T08:38:03Z</time>
      </trkpt>
      <trkpt lat="43.42652" lon="1.18733">
        <ele>204.4</ele>
        <time>2024-08-01T08:38:04Z</time>
      </trkpt>
      <trkpt lat="43.42659" lon="1.18735">
        <ele>204.4</ele>
        <time>2024-08-01T08:38:05Z</time>
      </trkpt>
      <trkpt lat="43.42667" lon="1.18737">
        <ele>204.4</ele>
        <time>2024-08-01T08:38:06Z</time>
      </trkpt>
      <trkpt lat="43.42675" lon="1.18739">
        <ele>204.4</ele>
        <time>2024-08-01T08:38:07Z</time>
      </trkpt>
      <trkpt lat="43.42683" lon="1.18741">
        <ele>204.4</ele>
        <time>2024-08-01T08:38:08Z</time>
      </trkpt>
      <trkpt lat="43.4269" lon="1.18744">
        <ele>204.4</ele>
        <time>2024-08-01T08:38:09Z</time>
      </trkpt>
      <trkpt lat="43.42698" lon="1.18747">
        <ele>204.4</ele>
        <time>2024-08-01T08:38:10Z</time>
      </trkpt>
      <trkpt lat="43.42705" lon="1.18752">
        <ele>204.2</ele>
        <time>2024-08-01T08:38:11Z</time>
      </trkpt>
      <trkpt lat="43.42713" lon="1.18756">
        <ele>204.2</ele>
        <time>2024-08-01T08:38:12Z</time>
      </trkpt>
      <trkpt lat="43.42721" lon="1.18761">
        <ele>204.2</ele>
        <time>2024-08-01T08:38:13Z</time>
      </trkpt>
      <trkpt lat="43.42728" lon="1.18767">
        <ele>204.2</ele>
        <time>2024-08-01T08:38:14Z</time>
      </trkpt>
      <trkpt lat="43.42735" lon="1.18772">
        <ele>204.2</ele>
        <time>2024-08-01T08:38:15Z</time>
      </trkpt>
      <trkpt lat="43.42742" lon="1.18778">
        <ele>204.2</ele>
        <time>2024-08-01T08:38:16Z</time>
      </trkpt>
      <trkpt lat="43.42749" lon="1.18784">
        <ele>204.2</ele>
        <time>2024-08-01T08:38:17Z</time>
      </trkpt>
      <trkpt lat="43.42756" lon="1.1879">
        <ele>204</ele>
        <time>2024-08-01T08:38:18Z</time>
      </trkpt>
      <trkpt lat="43.42763" lon="1.18796">
        <ele>204</ele>
        <time>2024-08-01T08:38:19Z</time>
      </trkpt>
      <trkpt lat="43.4277" lon="1.18801">
        <ele>204</ele>
        <time>2024-08-01T08:38:20Z</time>
      </trkpt>
      <trkpt lat="43.42776" lon="1.18807">
        <ele>204</ele>
        <time>2024-08-01T08:38:21Z</time>
      </trkpt>
      <trkpt lat="43.42783" lon="1.18812">
        <ele>204</ele>
        <time>2024-08-01T08:38:22Z</time>
      </trkpt>
      <trkpt lat="43.42789" lon="1.18818">
        <ele>203.8</ele>
        <time>2024-08-01T08:38:23Z</time>
      </trkpt>
      <trkpt lat="43.42796" lon="1.18823">
        <ele>203.8</ele>
        <time>2024-08-01T08:38:24Z</time>
      </trkpt>
      <trkpt lat="43.42802" lon="1.18828">
        <ele>203.8</ele>
        <time>2024-08-01T08:38:25Z</time>
      </trkpt>
      <trkpt lat="43.42809" lon="1.18833">
        <ele>203.8</ele>
        <time>2024-08-01T08:38:26Z</time>
      </trkpt>
      <trkpt lat="43.42814" lon="1.18839">
        <ele>203.8</ele>
        <time>2024-08-01T08:38:27Z</time>
      </trkpt>
      <trkpt lat="43.4282" lon="1.18843">
        <ele>203.8</ele>
        <time>2024-08-01T08:38:28Z</time>
      </trkpt>
      <trkpt lat="43.42827" lon="1.18848">
        <ele>203.8</ele>
        <time>2024-08-01T08:38:29Z</time>
      </trkpt>
      <trkpt lat="43.42833" lon="1.18853">
        <ele>203.8</ele>
        <time>2024-08-01T08:38:30Z</time>
      </trkpt>
      <trkpt lat="43.4284" lon="1.18858">
        <ele>203.8</ele>
        <time>2024-08-01T08:38:31Z</time>
      </trkpt>
      <trkpt lat="43.42847" lon="1.18863">
        <ele>203.6</ele>
        <time>2024-08-01T08:38:32Z</time>
      </trkpt>
      <trkpt lat="43.42854" lon="1.18867">
        <ele>203.6</ele>
        <time>2024-08-01T08:38:33Z</time>
      </trkpt>
      <trkpt lat="43.42862" lon="1.18872">
        <ele>203.6</ele>
        <time>2024-08-01T08:38:34Z</time>
      </trkpt>
      <trkpt lat="43.4287" lon="1.18876">
        <ele>203.6</ele>
        <time>2024-08-01T08:38:35Z</time>
      </trkpt>
      <trkpt lat="43.42877" lon="1.1888">
        <ele>203.6</ele>
        <time>2024-08-01T08:38:36Z</time>
      </trkpt>
      <trkpt lat="43.42885" lon="1.18883">
        <ele>203.6</ele>
        <time>2024-08-01T08:38:37Z</time>
      </trkpt>
      <trkpt lat="43.42892" lon="1.18887">
        <ele>203.6</ele>
        <time>2024-08-01T08:38:38Z</time>
      </trkpt>
      <trkpt lat="43.429" lon="1.18892">
        <ele>203.6</ele>
        <time>2024-08-01T08:38:39Z</time>
      </trkpt>
      <trkpt lat="43.42907" lon="1.18896">
        <ele>203.6</ele>
        <time>2024-08-01T08:38:40Z</time>
      </trkpt>
      <trkpt lat="43.42914" lon="1.18902">
        <ele>203.4</ele>
        <time>2024-08-01T08:38:41Z</time>
      </trkpt>
      <trkpt lat="43.42921" lon="1.18908">
        <ele>203.4</ele>
        <time>2024-08-01T08:38:42Z</time>
      </trkpt>
      <trkpt lat="43.42927" lon="1.18915">
        <ele>203.6</ele>
        <time>2024-08-01T08:38:43Z</time>
      </trkpt>
      <trkpt lat="43.42934" lon="1.18922">
        <ele>203.6</ele>
        <time>2024-08-01T08:38:44Z</time>
      </trkpt>
      <trkpt lat="43.42941" lon="1.18929">
        <ele>203.6</ele>
        <time>2024-08-01T08:38:45Z</time>
      </trkpt>
      <trkpt lat="43.42948" lon="1.18936">
        <ele>203.6</ele>
        <time>2024-08-01T08:38:46Z</time>
      </trkpt>
      <trkpt lat="43.42954" lon="1.18942">
        <ele>203.6</ele>
        <time>2024-08-01T08:38:47Z</time>
      </trkpt>
      <trkpt lat="43.42961" lon="1.18949">
        <ele>203.6</ele>
        <time>2024-08-01T08:38:48Z</time>
      </trkpt>
      <trkpt lat="43.42968" lon="1.18956">
        <ele>203.6</ele>
        <time>2024-08-01T08:38:49Z</time>
      </trkpt>
      <trkpt lat="43.42974" lon="1.18963">
        <ele>203.4</ele>
        <time>2024-08-01T08:38:50Z</time>
      </trkpt>
      <trkpt lat="43.42981" lon="1.18969">
        <ele>203.4</ele>
        <time>2024-08-01T08:38:51Z</time>
      </trkpt>
      <trkpt lat="43.42987" lon="1.18976">
        <ele>203.6</ele>
        <time>2024-08-01T08:38:52Z</time>
      </trkpt>
      <trkpt lat="43.42993" lon="1.18982">
        <ele>203.4</ele>
        <time>2024-08-01T08:38:53Z</time>
      </trkpt>
      <trkpt lat="43.43" lon="1.18988">
        <ele>203.4</ele>
        <time>2024-08-01T08:38:54Z</time>
      </trkpt>
      <trkpt lat="43.43006" lon="1.18996">
        <ele>203.4</ele>
        <time>2024-08-01T08:38:55Z</time>
      </trkpt>
      <trkpt lat="43.43012" lon="1.19003">
        <ele>203.4</ele>
        <time>2024-08-01T08:38:56Z</time>
      </trkpt>
      <trkpt lat="43.43018" lon="1.19012">
        <ele>203.4</ele>
        <time>2024-08-01T08:38:57Z</time>
      </trkpt>
      <trkpt lat="43.43024" lon="1.19021">
        <ele>203.4</ele>
        <time>2024-08-01T08:38:58Z</time>
      </trkpt>
      <trkpt lat="43.43029" lon="1.19031">
        <ele>203.4</ele>
        <time>2024-08-01T08:38:59Z</time>
      </trkpt>
      <trkpt lat="43.43033" lon="1.1904">
        <ele>203.4</ele>
        <time>2024-08-01T08:39:00Z</time>
      </trkpt>
      <trkpt lat="43.43038" lon="1.1905">
        <ele>203.4</ele>
        <time>2024-08-01T08:39:01Z</time>
      </trkpt>
      <trkpt lat="43.43042" lon="1.19059">
        <ele>203.4</ele>
        <time>2024-08-01T08:39:02Z</time>
      </trkpt>
      <trkpt lat="43.43047" lon="1.19069">
        <ele>203.2</ele>
        <time>2024-08-01T08:39:03Z</time>
      </trkpt>
      <trkpt lat="43.43051" lon="1.19079">
        <ele>203.2</ele>
        <time>2024-08-01T08:39:04Z</time>
      </trkpt>
      <trkpt lat="43.43056" lon="1.19088">
        <ele>203.2</ele>
        <time>2024-08-01T08:39:05Z</time>
      </trkpt>
      <trkpt lat="43.4306" lon="1.19098">
        <ele>203.2</ele>
        <time>2024-08-01T08:39:06Z</time>
      </trkpt>
      <trkpt lat="43.43065" lon="1.19108">
        <ele>203.2</ele>
        <time>2024-08-01T08:39:07Z</time>
      </trkpt>
      <trkpt lat="43.4307" lon="1.19118">
        <ele>203.2</ele>
        <time>2024-08-01T08:39:08Z</time>
      </trkpt>
      <trkpt lat="43.43074" lon="1.19128">
        <ele>203.2</ele>
        <time>2024-08-01T08:39:09Z</time>
      </trkpt>
      <trkpt lat="43.43079" lon="1.19138">
        <ele>203.2</ele>
        <time>2024-08-01T08:39:10Z</time>
      </trkpt>
      <trkpt lat="43.43085" lon="1.19147">
        <ele>203.2</ele>
        <time>2024-08-01T08:39:11Z</time>
      </trkpt>
      <trkpt lat="43.4309" lon="1.19156">
        <ele>203.2</ele>
        <time>2024-08-01T08:39:12Z</time>
      </trkpt>
      <trkpt lat="43.43096" lon="1.19165">
        <ele>203.2</ele>
        <time>2024-08-01T08:39:13Z</time>
      </trkpt>
      <trkpt lat="43.43101" lon="1.19174">
        <ele>203.2</ele>
        <time>2024-08-01T08:39:14Z</time>
      </trkpt>
      <trkpt lat="43.43107" lon="1.19183">
        <ele>203.2</ele>
        <time>2024-08-01T08:39:15Z</time>
      </trkpt>
      <trkpt lat="43.43112" lon="1.19193">
        <ele>203.2</ele>
        <time>2024-08-01T08:39:16Z</time>
      </trkpt>
      <trkpt lat="43.43118" lon="1.19202">
        <ele>203</ele>
        <time>2024-08-01T08:39:17Z</time>
      </trkpt>
      <trkpt lat="43.43123" lon="1.19211">
        <ele>203</ele>
        <time>2024-08-01T08:39:18Z</time>
      </trkpt>
      <trkpt lat="43.43129" lon="1.19219">
        <ele>203</ele>
        <time>2024-08-01T08:39:19Z</time>
      </trkpt>
      <trkpt lat="43.43134" lon="1.19229">
        <ele>203</ele>
        <time>2024-08-01T08:39:20Z</time>
      </trkpt>
      <trkpt lat="43.4314" lon="1.19238">
        <ele>203</ele>
        <time>2024-08-01T08:39:21Z</time>
      </trkpt>
      <trkpt lat="43.43145" lon="1.19247">
        <ele>203</ele>
        <time>2024-08-01T08:39:22Z</time>
      </trkpt>
      <trkpt lat="43.4315" lon="1.19257">
        <ele>202.8</ele>
        <time>2024-08-01T08:39:23Z</time>
      </trkpt>
      <trkpt lat="43.43156" lon="1.19266">
        <ele>202.8</ele>
        <time>2024-08-01T08:39:24Z</time>
      </trkpt>
      <trkpt lat="43.43162" lon="1.19275">
        <ele>202.8</ele>
        <time>2024-08-01T08:39:25Z</time>
      </trkpt>
      <trkpt lat="43.43167" lon="1.19284">
        <ele>202.8</ele>
        <time>2024-08-01T08:39:26Z</time>
      </trkpt>
      <trkpt lat="43.43173" lon="1.19294">
        <ele>202.8</ele>
        <time>2024-08-01T08:39:27Z</time>
      </trkpt>
      <trkpt lat="43.43178" lon="1.19303">
        <ele>202.8</ele>
        <time>2024-08-01T08:39:28Z</time>
      </trkpt>
      <trkpt lat="43.43184" lon="1.19312">
        <ele>202.8</ele>
        <time>2024-08-01T08:39:29Z</time>
      </trkpt>
      <trkpt lat="43.43189" lon="1.19321">
        <ele>202.6</ele>
        <time>2024-08-01T08:39:30Z</time>
      </trkpt>
      <trkpt lat="43.43195" lon="1.1933">
        <ele>202.6</ele>
        <time>2024-08-01T08:39:31Z</time>
      </trkpt>
      <trkpt lat="43.432" lon="1.19338">
        <ele>202.6</ele>
        <time>2024-08-01T08:39:32Z</time>
      </trkpt>
      <trkpt lat="43.43206" lon="1.19347">
        <ele>202.6</ele>
        <time>2024-08-01T08:39:33Z</time>
      </trkpt>
      <trkpt lat="43.43211" lon="1.19356">
        <ele>202.6</ele>
        <time>2024-08-01T08:39:34Z</time>
      </trkpt>
      <trkpt lat="43.43217" lon="1.19364">
        <ele>202.4</ele>
        <time>2024-08-01T08:39:35Z</time>
      </trkpt>
      <trkpt lat="43.43222" lon="1.19373">
        <ele>202.4</ele>
        <time>2024-08-01T08:39:36Z</time>
      </trkpt>
      <trkpt lat="43.43228" lon="1.19381">
        <ele>202.4</ele>
        <time>2024-08-01T08:39:37Z</time>
      </trkpt>
      <trkpt lat="43.43233" lon="1.1939">
        <ele>202.4</ele>
        <time>2024-08-01T08:39:38Z</time>
      </trkpt>
      <trkpt lat="43.43239" lon="1.19398">
        <ele>202.4</ele>
        <time>2024-08-01T08:39:39Z</time>
      </trkpt>
      <trkpt lat="43.43244" lon="1.19406">
        <ele>202.4</ele>
        <time>2024-08-01T08:39:40Z</time>
      </trkpt>
      <trkpt lat="43.43249" lon="1.19414">
        <ele>202.4</ele>
        <time>2024-08-01T08:39:41Z</time>
      </trkpt>
      <trkpt lat="43.43254" lon="1.19423">
        <ele>202.4</ele>
        <time>2024-08-01T08:39:42Z</time>
      </trkpt>
      <trkpt lat="43.4326" lon="1.19431">
        <ele>202.4</ele>
        <time>2024-08-01T08:39:43Z</time>
      </trkpt>
      <trkpt lat="43.43265" lon="1.1944">
        <ele>202.4</ele>
        <time>2024-08-01T08:39:44Z</time>
      </trkpt>
      <trkpt lat="43.43271" lon="1.19448">
        <ele>202.4</ele>
        <time>2024-08-01T08:39:45Z</time>
      </trkpt>
      <trkpt lat="43.43277" lon="1.19456">
        <ele>202.4</ele>
        <time>2024-08-01T08:39:46Z</time>
      </trkpt>
      <trkpt lat="43.43282" lon="1.19464">
        <ele>202.4</ele>
        <time>2024-08-01T08:39:47Z</time>
      </trkpt>
      <trkpt lat="43.43288" lon="1.19473">
        <ele>202.2</ele>
        <time>2024-08-01T08:39:48Z</time>
      </trkpt>
      <trkpt lat="43.43293" lon="1.19481">
        <ele>202.2</ele>
        <time>2024-08-01T08:39:49Z</time>
      </trkpt>
      <trkpt lat="43.43299" lon="1.19489">
        <ele>202.2</ele>
        <time>2024-08-01T08:39:50Z</time>
      </trkpt>
      <trkpt lat="43.43305" lon="1.19497">
        <ele>202.2</ele>
        <time>2024-08-01T08:39:51Z</time>
      </trkpt>
      <trkpt lat="43.4331" lon="1.19505">
        <ele>202.2</ele>
        <time>2024-08-01T08:39:52Z</time>
      </trkpt>
      <trkpt lat="43.43316" lon="1.19513">
        <ele>202.2</ele>
        <time>2024-08-01T08:39:53Z</time>
      </trkpt>
      <trkpt lat="43.43322" lon="1.1952">
        <ele>202.6</ele>
        <time>2024-08-01T08:39:54Z</time>
      </trkpt>
      <trkpt lat="43.43327" lon="1.19529">
        <ele>202.6</ele>
        <time>2024-08-01T08:39:55Z</time>
      </trkpt>
      <trkpt lat="43.43333" lon="1.19537">
        <ele>202.6</ele>
        <time>2024-08-01T08:39:56Z</time>
      </trkpt>
      <trkpt lat="43.43339" lon="1.19545">
        <ele>202.8</ele>
        <time>2024-08-01T08:39:57Z</time>
      </trkpt>
      <trkpt lat="43.43345" lon="1.19553">
        <ele>202.8</ele>
        <time>2024-08-01T08:39:58Z</time>
      </trkpt>
      <trkpt lat="43.43351" lon="1.19561">
        <ele>203</ele>
        <time>2024-08-01T08:39:59Z</time>
      </trkpt>
      <trkpt lat="43.43356" lon="1.19569">
        <ele>203</ele>
        <time>2024-08-01T08:40:00Z</time>
      </trkpt>
      <trkpt lat="43.43362" lon="1.19577">
        <ele>203</ele>
        <time>2024-08-01T08:40:01Z</time>
      </trkpt>
      <trkpt lat="43.43368" lon="1.19586">
        <ele>203.2</ele>
        <time>2024-08-01T08:40:02Z</time>
      </trkpt>
      <trkpt lat="43.43374" lon="1.19594">
        <ele>203.2</ele>
        <time>2024-08-01T08:40:03Z</time>
      </trkpt>
      <trkpt lat="43.4338" lon="1.19603">
        <ele>203.2</ele>
        <time>2024-08-01T08:40:04Z</time>
      </trkpt>
      <trkpt lat="43.43386" lon="1.19611">
        <ele>203.2</ele>
        <time>2024-08-01T08:40:05Z</time>
      </trkpt>
      <trkpt lat="43.43392" lon="1.1962">
        <ele>203.2</ele>
        <time>2024-08-01T08:40:06Z</time>
      </trkpt>
      <trkpt lat="43.43398" lon="1.19628">
        <ele>203.2</ele>
        <time>2024-08-01T08:40:07Z</time>
      </trkpt>
      <trkpt lat="43.43404" lon="1.19637">
        <ele>203</ele>
        <time>2024-08-01T08:40:08Z</time>
      </trkpt>
      <trkpt lat="43.4341" lon="1.19645">
        <ele>203</ele>
        <time>2024-08-01T08:40:09Z</time>
      </trkpt>
      <trkpt lat="43.43416" lon="1.19654">
        <ele>202.8</ele>
        <time>2024-08-01T08:40:10Z</time>
      </trkpt>
      <trkpt lat="43.43422" lon="1.19663">
        <ele>202.8</ele>
        <time>2024-08-01T08:40:11Z</time>
      </trkpt>
      <trkpt lat="43.43428" lon="1.19671">
        <ele>202.8</ele>
        <time>2024-08-01T08:40:12Z</time>
      </trkpt>
      <trkpt lat="43.43434" lon="1.1968">
        <ele>202.8</ele>
        <time>2024-08-01T08:40:13Z</time>
      </trkpt>
      <trkpt lat="43.4344" lon="1.19688">
        <ele>202.6</ele>
        <time>2024-08-01T08:40:14Z</time>
      </trkpt>
      <trkpt lat="43.43446" lon="1.19696">
        <ele>202.6</ele>
        <time>2024-08-01T08:40:15Z</time>
      </trkpt>
      <trkpt lat="43.43452" lon="1.19704">
        <ele>202.4</ele>
        <time>2024-08-01T08:40:16Z</time>
      </trkpt>
      <trkpt lat="43.43458" lon="1.19712">
        <ele>202.4</ele>
        <time>2024-08-01T08:40:17Z</time>
      </trkpt>
      <trkpt lat="43.43464" lon="1.1972">
        <ele>202.2</ele>
        <time>2024-08-01T08:40:18Z</time>
      </trkpt>
      <trkpt lat="43.4347" lon="1.19726">
        <ele>202.2</ele>
        <time>2024-08-01T08:40:19Z</time>
      </trkpt>
      <trkpt lat="43.43477" lon="1.19733">
        <ele>202.2</ele>
        <time>2024-08-01T08:40:20Z</time>
      </trkpt>
      <trkpt lat="43.43484" lon="1.19739">
        <ele>202.2</ele>
        <time>2024-08-01T08:40:21Z</time>
      </trkpt>
      <trkpt lat="43.43491" lon="1.19744">
        <ele>202.2</ele>
        <time>2024-08-01T08:40:22Z</time>
      </trkpt>
      <trkpt lat="43.43497" lon="1.1975">
        <ele>202.2</ele>
        <time>2024-08-01T08:40:23Z</time>
      </trkpt>
      <trkpt lat="43.43504" lon="1.19757">
        <ele>202</ele>
        <time>2024-08-01T08:40:24Z</time>
      </trkpt>
      <trkpt lat="43.43512" lon="1.19763">
        <ele>201.8</ele>
        <time>2024-08-01T08:40:25Z</time>
      </trkpt>
      <trkpt lat="43.43519" lon="1.19769">
        <ele>201.8</ele>
        <time>2024-08-01T08:40:26Z</time>
      </trkpt>
      <trkpt lat="43.43525" lon="1.19775">
        <ele>201.8</ele>
        <time>2024-08-01T08:40:27Z</time>
      </trkpt>
      <trkpt lat="43.43532" lon="1.19781">
        <ele>201.6</ele>
        <time>2024-08-01T08:40:28Z</time>
      </trkpt>
      <trkpt lat="43.43539" lon="1.19788">
        <ele>201.6</ele>
        <time>2024-08-01T08:40:29Z</time>
      </trkpt>
      <trkpt lat="43.43546" lon="1.19794">
        <ele>201.4</ele>
        <time>2024-08-01T08:40:30Z</time>
      </trkpt>
      <trkpt lat="43.43552" lon="1.198">
        <ele>201.4</ele>
        <time>2024-08-01T08:40:31Z</time>
      </trkpt>
      <trkpt lat="43.43559" lon="1.19806">
        <ele>201.4</ele>
        <time>2024-08-01T08:40:32Z</time>
      </trkpt>
      <trkpt lat="43.43566" lon="1.19813">
        <ele>201.4</ele>
        <time>2024-08-01T08:40:33Z</time>
      </trkpt>
      <trkpt lat="43.43572" lon="1.19819">
        <ele>201.4</ele>
        <time>2024-08-01T08:40:34Z</time>
      </trkpt>
      <trkpt lat="43.43578" lon="1.19825">
        <ele>201.4</ele>
        <time>2024-08-01T08:40:35Z</time>
      </trkpt>
      <trkpt lat="43.43584" lon="1.19831">
        <ele>201.4</ele>
        <time>2024-08-01T08:40:36Z</time>
      </trkpt>
      <trkpt lat="43.43591" lon="1.19837">
        <ele>201.4</ele>
        <time>2024-08-01T08:40:37Z</time>
      </trkpt>
      <trkpt lat="43.43597" lon="1.19844">
        <ele>201.4</ele>
        <time>2024-08-01T08:40:38Z</time>
      </trkpt>
      <trkpt lat="43.43604" lon="1.1985">
        <ele>201.4</ele>
        <time>2024-08-01T08:40:39Z</time>
      </trkpt>
      <trkpt lat="43.4361" lon="1.19857">
        <ele>201.4</ele>
        <time>2024-08-01T08:40:40Z</time>
      </trkpt>
      <trkpt lat="43.43617" lon="1.19864">
        <ele>201.4</ele>
        <time>2024-08-01T08:40:41Z</time>
      </trkpt>
      <trkpt lat="43.43622" lon="1.19872">
        <ele>201.4</ele>
        <time>2024-08-01T08:40:42Z</time>
      </trkpt>
      <trkpt lat="43.43628" lon="1.1988">
        <ele>201.4</ele>
        <time>2024-08-01T08:40:43Z</time>
      </trkpt>
      <trkpt lat="43.43633" lon="1.19889">
        <ele>201.4</ele>
        <time>2024-08-01T08:40:44Z</time>
      </trkpt>
      <trkpt lat="43.43638" lon="1.19897">
        <ele>201.4</ele>
        <time>2024-08-01T08:40:45Z</time>
      </trkpt>
      <trkpt lat="43.43642" lon="1.19906">
        <ele>201.2</ele>
        <time>2024-08-01T08:40:46Z</time>
      </trkpt>
      <trkpt lat="43.43646" lon="1.19915">
        <ele>201.2</ele>
        <time>2024-08-01T08:40:47Z</time>
      </trkpt>
      <trkpt lat="43.4365" lon="1.19924">
        <ele>201.2</ele>
        <time>2024-08-01T08:40:48Z</time>
      </trkpt>
      <trkpt lat="43.43654" lon="1.19933">
        <ele>201.2</ele>
        <time>2024-08-01T08:40:49Z</time>
      </trkpt>
      <trkpt lat="43.43658" lon="1.19942">
        <ele>201.2</ele>
        <time>2024-08-01T08:40:50Z</time>
      </trkpt>
      <trkpt lat="43.43662" lon="1.19951">
        <ele>201.2</ele>
        <time>2024-08-01T08:40:51Z</time>
      </trkpt>
      <trkpt lat="43.43666" lon="1.1996">
        <ele>201</ele>
        <time>2024-08-01T08:40:52Z</time>
      </trkpt>
      <trkpt lat="43.4367" lon="1.19969">
        <ele>201</ele>
        <time>2024-08-01T08:40:53Z</time>
      </trkpt>
      <trkpt lat="43.43674" lon="1.19978">
        <ele>201</ele>
        <time>2024-08-01T08:40:54Z</time>
      </trkpt>
      <trkpt lat="43.43678" lon="1.19988">
        <ele>201</ele>
        <time>2024-08-01T08:40:55Z</time>
      </trkpt>
      <trkpt lat="43.43682" lon="1.19997">
        <ele>200.8</ele>
        <time>2024-08-01T08:40:56Z</time>
      </trkpt>
      <trkpt lat="43.43686" lon="1.20006">
        <ele>200.8</ele>
        <time>2024-08-01T08:40:57Z</time>
      </trkpt>
      <trkpt lat="43.4369" lon="1.20015">
        <ele>200.8</ele>
        <time>2024-08-01T08:40:58Z</time>
      </trkpt>
      <trkpt lat="43.43694" lon="1.20024">
        <ele>200.8</ele>
        <time>2024-08-01T08:40:59Z</time>
      </trkpt>
      <trkpt lat="43.43697" lon="1.20034">
        <ele>200.8</ele>
        <time>2024-08-01T08:41:00Z</time>
      </trkpt>
      <trkpt lat="43.43701" lon="1.20043">
        <ele>200.8</ele>
        <time>2024-08-01T08:41:01Z</time>
      </trkpt>
      <trkpt lat="43.43705" lon="1.20052">
        <ele>200.8</ele>
        <time>2024-08-01T08:41:02Z</time>
      </trkpt>
      <trkpt lat="43.43708" lon="1.20062">
        <ele>200.8</ele>
        <time>2024-08-01T08:41:03Z</time>
      </trkpt>
      <trkpt lat="43.43712" lon="1.20071">
        <ele>200.8</ele>
        <time>2024-08-01T08:41:04Z</time>
      </trkpt>
      <trkpt lat="43.43716" lon="1.20081">
        <ele>200.8</ele>
        <time>2024-08-01T08:41:05Z</time>
      </trkpt>
      <trkpt lat="43.43719" lon="1.2009">
        <ele>200.8</ele>
        <time>2024-08-01T08:41:06Z</time>
      </trkpt>
      <trkpt lat="43.43723" lon="1.201">
        <ele>200.8</ele>
        <time>2024-08-01T08:41:07Z</time>
      </trkpt>
      <trkpt lat="43.43726" lon="1.20109">
        <ele>200.8</ele>
        <time>2024-08-01T08:41:08Z</time>
      </trkpt>
      <trkpt lat="43.4373" lon="1.20119">
        <ele>201</ele>
        <time>2024-08-01T08:41:09Z</time>
      </trkpt>
      <trkpt lat="43.43734" lon="1.20129">
        <ele>201</ele>
        <time>2024-08-01T08:41:10Z</time>
      </trkpt>
      <trkpt lat="43.43737" lon="1.20139">
        <ele>201</ele>
        <time>2024-08-01T08:41:11Z</time>
      </trkpt>
      <trkpt lat="43.43741" lon="1.20149">
        <ele>201</ele>
        <time>2024-08-01T08:41:12Z</time>
      </trkpt>
      <trkpt lat="43.43744" lon="1.20158">
        <ele>201</ele>
        <time>2024-08-01T08:41:13Z</time>
      </trkpt>
      <trkpt lat="43.43748" lon="1.20168">
        <ele>201</ele>
        <time>2024-08-01T08:41:14Z</time>
      </trkpt>
      <trkpt lat="43.43751" lon="1.20178">
        <ele>201</ele>
        <time>2024-08-01T08:41:15Z</time>
      </trkpt>
      <trkpt lat="43.43755" lon="1.20188">
        <ele>201</ele>
        <time>2024-08-01T08:41:16Z</time>
      </trkpt>
      <trkpt lat="43.43759" lon="1.20197">
        <ele>200.8</ele>
        <time>2024-08-01T08:41:17Z</time>
      </trkpt>
      <trkpt lat="43.43762" lon="1.20207">
        <ele>200.8</ele>
        <time>2024-08-01T08:41:18Z</time>
      </trkpt>
      <trkpt lat="43.43766" lon="1.20216">
        <ele>200.8</ele>
        <time>2024-08-01T08:41:19Z</time>
      </trkpt>
      <trkpt lat="43.43769" lon="1.20226">
        <ele>200.8</ele>
        <time>2024-08-01T08:41:20Z</time>
      </trkpt>
      <trkpt lat="43.43773" lon="1.20235">
        <ele>201</ele>
        <time>2024-08-01T08:41:21Z</time>
      </trkpt>
      <trkpt lat="43.43776" lon="1.20245">
        <ele>200.8</ele>
        <time>2024-08-01T08:41:22Z</time>
      </trkpt>
      <trkpt lat="43.43779" lon="1.20255">
        <ele>200.6</ele>
        <time>2024-08-01T08:41:23Z</time>
      </trkpt>
      <trkpt lat="43.43783" lon="1.20264">
        <ele>200.6</ele>
        <time>2024-08-01T08:41:24Z</time>
      </trkpt>
      <trkpt lat="43.43786" lon="1.20274">
        <ele>200.6</ele>
        <time>2024-08-01T08:41:25Z</time>
      </trkpt>
      <trkpt lat="43.43789" lon="1.20284">
        <ele>200.6</ele>
        <time>2024-08-01T08:41:26Z</time>
      </trkpt>
      <trkpt lat="43.43793" lon="1.20294">
        <ele>200.8</ele>
        <time>2024-08-01T08:41:27Z</time>
      </trkpt>
      <trkpt lat="43.43797" lon="1.20304">
        <ele>200.8</ele>
        <time>2024-08-01T08:41:28Z</time>
      </trkpt>
      <trkpt lat="43.438" lon="1.20314">
        <ele>200.8</ele>
        <time>2024-08-01T08:41:29Z</time>
      </trkpt>
      <trkpt lat="43.43804" lon="1.20324">
        <ele>200.8</ele>
        <time>2024-08-01T08:41:30Z</time>
      </trkpt>
      <trkpt lat="43.43809" lon="1.20333">
        <ele>200.8</ele>
        <time>2024-08-01T08:41:31Z</time>
      </trkpt>
      <trkpt lat="43.43813" lon="1.20342">
        <ele>200.8</ele>
        <time>2024-08-01T08:41:32Z</time>
      </trkpt>
      <trkpt lat="43.43818" lon="1.20351">
        <ele>200.8</ele>
        <time>2024-08-01T08:41:33Z</time>
      </trkpt>
      <trkpt lat="43.43824" lon="1.20359">
        <ele>200.8</ele>
        <time>2024-08-01T08:41:34Z</time>
      </trkpt>
      <trkpt lat="43.43829" lon="1.20368">
        <ele>200.6</ele>
        <time>2024-08-01T08:41:35Z</time>
      </trkpt>
      <trkpt lat="43.43835" lon="1.20375">
        <ele>200.6</ele>
        <time>2024-08-01T08:41:36Z</time>
      </trkpt>
      <trkpt lat="43.4384" lon="1.20383">
        <ele>200.6</ele>
        <time>2024-08-01T08:41:37Z</time>
      </trkpt>
      <trkpt lat="43.43845" lon="1.20391">
        <ele>200.6</ele>
        <time>2024-08-01T08:41:38Z</time>
      </trkpt>
      <trkpt lat="43.43851" lon="1.20398">
        <ele>200.6</ele>
        <time>2024-08-01T08:41:39Z</time>
      </trkpt>
      <trkpt lat="43.43856" lon="1.20406">
        <ele>200.6</ele>
        <time>2024-08-01T08:41:40Z</time>
      </trkpt>
      <trkpt lat="43.43862" lon="1.20414">
        <ele>200.4</ele>
        <time>2024-08-01T08:41:41Z</time>
      </trkpt>
      <trkpt lat="43.43868" lon="1.20422">
        <ele>200.4</ele>
        <time>2024-08-01T08:41:42Z</time>
      </trkpt>
      <trkpt lat="43.43873" lon="1.2043">
        <ele>200.4</ele>
        <time>2024-08-01T08:41:43Z</time>
      </trkpt>
      <trkpt lat="43.43879" lon="1.20438">
        <ele>200.2</ele>
        <time>2024-08-01T08:41:44Z</time>
      </trkpt>
      <trkpt lat="43.43885" lon="1.20446">
        <ele>200.2</ele>
        <time>2024-08-01T08:41:45Z</time>
      </trkpt>
      <trkpt lat="43.4389" lon="1.20455">
        <ele>200.2</ele>
        <time>2024-08-01T08:41:46Z</time>
      </trkpt>
      <trkpt lat="43.43896" lon="1.20464">
        <ele>200.2</ele>
        <time>2024-08-01T08:41:47Z</time>
      </trkpt>
      <trkpt lat="43.43901" lon="1.20472">
        <ele>200.2</ele>
        <time>2024-08-01T08:41:48Z</time>
      </trkpt>
      <trkpt lat="43.43906" lon="1.20481">
        <ele>200</ele>
        <time>2024-08-01T08:41:49Z</time>
      </trkpt>
      <trkpt lat="43.43911" lon="1.20491">
        <ele>200</ele>
        <time>2024-08-01T08:41:50Z</time>
      </trkpt>
      <trkpt lat="43.43916" lon="1.205">
        <ele>200</ele>
        <time>2024-08-01T08:41:51Z</time>
      </trkpt>
      <trkpt lat="43.43921" lon="1.2051">
        <ele>200</ele>
        <time>2024-08-01T08:41:52Z</time>
      </trkpt>
      <trkpt lat="43.43926" lon="1.20519">
        <ele>200</ele>
        <time>2024-08-01T08:41:53Z</time>
      </trkpt>
      <trkpt lat="43.43931" lon="1.20529">
        <ele>200</ele>
        <time>2024-08-01T08:41:54Z</time>
      </trkpt>
      <trkpt lat="43.43935" lon="1.20538">
        <ele>200</ele>
        <time>2024-08-01T08:41:55Z</time>
      </trkpt>
      <trkpt lat="43.4394" lon="1.20547">
        <ele>199.8</ele>
        <time>2024-08-01T08:41:56Z</time>
      </trkpt>
      <trkpt lat="43.43945" lon="1.20555">
        <ele>199.8</ele>
        <time>2024-08-01T08:41:57Z</time>
      </trkpt>
      <trkpt lat="43.4395" lon="1.20563">
        <ele>199.8</ele>
        <time>2024-08-01T08:41:58Z</time>
      </trkpt>
      <trkpt lat="43.43956" lon="1.2057">
        <ele>199.8</ele>
        <time>2024-08-01T08:41:59Z</time>
      </trkpt>
      <trkpt lat="43.43961" lon="1.20577">
        <ele>199.8</ele>
        <time>2024-08-01T08:42:00Z</time>
      </trkpt>
      <trkpt lat="43.43967" lon="1.20584">
        <ele>199.6</ele>
        <time>2024-08-01T08:42:01Z</time>
      </trkpt>
      <trkpt lat="43.43973" lon="1.2059">
        <ele>199.6</ele>
        <time>2024-08-01T08:42:02Z</time>
      </trkpt>
      <trkpt lat="43.43978" lon="1.20597">
        <ele>199.6</ele>
        <time>2024-08-01T08:42:03Z</time>
      </trkpt>
      <trkpt lat="43.43984" lon="1.20603">
        <ele>199.6</ele>
        <time>2024-08-01T08:42:04Z</time>
      </trkpt>
      <trkpt lat="43.43989" lon="1.2061">
        <ele>199.6</ele>
        <time>2024-08-01T08:42:05Z</time>
      </trkpt>
      <trkpt lat="43.43994" lon="1.20616">
        <ele>199.6</ele>
        <time>2024-08-01T08:42:06Z</time>
      </trkpt>
      <trkpt lat="43.44" lon="1.20622">
        <ele>199.6</ele>
        <time>2024-08-01T08:42:07Z</time>
      </trkpt>
      <trkpt lat="43.44005" lon="1.20629">
        <ele>199.4</ele>
        <time>2024-08-01T08:42:08Z</time>
      </trkpt>
      <trkpt lat="43.44011" lon="1.20635">
        <ele>199.4</ele>
        <time>2024-08-01T08:42:09Z</time>
      </trkpt>
      <trkpt lat="43.44016" lon="1.20642">
        <ele>199.4</ele>
        <time>2024-08-01T08:42:10Z</time>
      </trkpt>
      <trkpt lat="43.44021" lon="1.20649">
        <ele>199.4</ele>
        <time>2024-08-01T08:42:11Z</time>
      </trkpt>
      <trkpt lat="43.44026" lon="1.20656">
        <ele>199.4</ele>
        <time>2024-08-01T08:42:12Z</time>
      </trkpt>
      <trkpt lat="43.44032" lon="1.20662">
        <ele>199.4</ele>
        <time>2024-08-01T08:42:13Z</time>
      </trkpt>
      <trkpt lat="43.44037" lon="1.20667">
        <ele>199.4</ele>
        <time>2024-08-01T08:42:14Z</time>
      </trkpt>
      <trkpt lat="43.44043" lon="1.20673">
        <ele>199.4</ele>
        <time>2024-08-01T08:42:15Z</time>
      </trkpt>
      <trkpt lat="43.44049" lon="1.2068">
        <ele>199.4</ele>
        <time>2024-08-01T08:42:16Z</time>
      </trkpt>
      <trkpt lat="43.44049" lon="1.2068">
        <ele>199.6</ele>
        <time>2024-08-01T08:42:17Z</time>
      </trkpt>
      <trkpt lat="43.4406" lon="1.20694">
        <ele>199.6</ele>
        <time>2024-08-01T08:42:18Z</time>
      </trkpt>
      <trkpt lat="43.44066" lon="1.20701">
        <ele>199.6</ele>
        <time>2024-08-01T08:42:19Z</time>
      </trkpt>
      <trkpt lat="43.44072" lon="1.20708">
        <ele>199.6</ele>
        <time>2024-08-01T08:42:20Z</time>
      </trkpt>
      <trkpt lat="43.44077" lon="1.20715">
        <ele>199.8</ele>
        <time>2024-08-01T08:42:21Z</time>
      </trkpt>
      <trkpt lat="43.44083" lon="1.20722">
        <ele>199.8</ele>
        <time>2024-08-01T08:42:22Z</time>
      </trkpt>
      <trkpt lat="43.44089" lon="1.20728">
        <ele>199.8</ele>
        <time>2024-08-01T08:42:23Z</time>
      </trkpt>
      <trkpt lat="43.44094" lon="1.20735">
        <ele>199.8</ele>
        <time>2024-08-01T08:42:24Z</time>
      </trkpt>
      <trkpt lat="43.441" lon="1.20742">
        <ele>200</ele>
        <time>2024-08-01T08:42:25Z</time>
      </trkpt>
      <trkpt lat="43.44106" lon="1.20749">
        <ele>200</ele>
        <time>2024-08-01T08:42:26Z</time>
      </trkpt>
      <trkpt lat="43.44112" lon="1.20756">
        <ele>200</ele>
        <time>2024-08-01T08:42:27Z</time>
      </trkpt>
      <trkpt lat="43.44118" lon="1.20763">
        <ele>200</ele>
        <time>2024-08-01T08:42:28Z</time>
      </trkpt>
      <trkpt lat="43.44123" lon="1.2077">
        <ele>200</ele>
        <time>2024-08-01T08:42:29Z</time>
      </trkpt>
      <trkpt lat="43.4413" lon="1.20778">
        <ele>200</ele>
        <time>2024-08-01T08:42:30Z</time>
      </trkpt>
      <trkpt lat="43.44135" lon="1.20784">
        <ele>200.2</ele>
        <time>2024-08-01T08:42:31Z</time>
      </trkpt>
      <trkpt lat="43.44141" lon="1.20791">
        <ele>200.2</ele>
        <time>2024-08-01T08:42:32Z</time>
      </trkpt>
      <trkpt lat="43.44146" lon="1.20797">
        <ele>200.2</ele>
        <time>2024-08-01T08:42:33Z</time>
      </trkpt>
      <trkpt lat="43.44152" lon="1.20804">
        <ele>200.2</ele>
        <time>2024-08-01T08:42:34Z</time>
      </trkpt>
      <trkpt lat="43.44157" lon="1.20811">
        <ele>200.2</ele>
        <time>2024-08-01T08:42:35Z</time>
      </trkpt>
      <trkpt lat="43.44163" lon="1.20818">
        <ele>200.2</ele>
        <time>2024-08-01T08:42:36Z</time>
      </trkpt>
      <trkpt lat="43.44169" lon="1.20825">
        <ele>200.2</ele>
        <time>2024-08-01T08:42:37Z</time>
      </trkpt>
      <trkpt lat="43.44175" lon="1.20832">
        <ele>200.2</ele>
        <time>2024-08-01T08:42:38Z</time>
      </trkpt>
      <trkpt lat="43.44181" lon="1.20839">
        <ele>200.2</ele>
        <time>2024-08-01T08:42:39Z</time>
      </trkpt>
      <trkpt lat="43.44187" lon="1.20846">
        <ele>200.2</ele>
        <time>2024-08-01T08:42:40Z</time>
      </trkpt>
      <trkpt lat="43.44193" lon="1.20853">
        <ele>200.2</ele>
        <time>2024-08-01T08:42:41Z</time>
      </trkpt>
      <trkpt lat="43.442" lon="1.20859">
        <ele>200.2</ele>
        <time>2024-08-01T08:42:42Z</time>
      </trkpt>
      <trkpt lat="43.44207" lon="1.20866">
        <ele>200.2</ele>
        <time>2024-08-01T08:42:43Z</time>
      </trkpt>
      <trkpt lat="43.44214" lon="1.20872">
        <ele>200.4</ele>
        <time>2024-08-01T08:42:44Z</time>
      </trkpt>
      <trkpt lat="43.44221" lon="1.20878">
        <ele>200.4</ele>
        <time>2024-08-01T08:42:45Z</time>
      </trkpt>
      <trkpt lat="43.44228" lon="1.20884">
        <ele>200.4</ele>
        <time>2024-08-01T08:42:46Z</time>
      </trkpt>
      <trkpt lat="43.44236" lon="1.2089">
        <ele>200.4</ele>
        <time>2024-08-01T08:42:47Z</time>
      </trkpt>
      <trkpt lat="43.44243" lon="1.20896">
        <ele>200.4</ele>
        <time>2024-08-01T08:42:48Z</time>
      </trkpt>
      <trkpt lat="43.44251" lon="1.20902">
        <ele>200.4</ele>
        <time>2024-08-01T08:42:49Z</time>
      </trkpt>
      <trkpt lat="43.44258" lon="1.20908">
        <ele>200.4</ele>
        <time>2024-08-01T08:42:50Z</time>
      </trkpt>
      <trkpt lat="43.44265" lon="1.20914">
        <ele>200.4</ele>
        <time>2024-08-01T08:42:51Z</time>
      </trkpt>
      <trkpt lat="43.44272" lon="1.2092">
        <ele>200.4</ele>
        <time>2024-08-01T08:42:52Z</time>
      </trkpt>
      <trkpt lat="43.44279" lon="1.20925">
        <ele>200.4</ele>
        <time>2024-08-01T08:42:53Z</time>
      </trkpt>
      <trkpt lat="43.44286" lon="1.20931">
        <ele>200.4</ele>
        <time>2024-08-01T08:42:54Z</time>
      </trkpt>
      <trkpt lat="43.44294" lon="1.20936">
        <ele>200.2</ele>
        <time>2024-08-01T08:42:55Z</time>
      </trkpt>
      <trkpt lat="43.44301" lon="1.20942">
        <ele>200.2</ele>
        <time>2024-08-01T08:42:56Z</time>
      </trkpt>
      <trkpt lat="43.44308" lon="1.20948">
        <ele>200.2</ele>
        <time>2024-08-01T08:42:57Z</time>
      </trkpt>
      <trkpt lat="43.44315" lon="1.20953">
        <ele>200.2</ele>
        <time>2024-08-01T08:42:58Z</time>
      </trkpt>
      <trkpt lat="43.44322" lon="1.20958">
        <ele>200</ele>
        <time>2024-08-01T08:42:59Z</time>
      </trkpt>
      <trkpt lat="43.44328" lon="1.20964">
        <ele>200</ele>
        <time>2024-08-01T08:43:00Z</time>
      </trkpt>
      <trkpt lat="43.44335" lon="1.20969">
        <ele>200</ele>
        <time>2024-08-01T08:43:01Z</time>
      </trkpt>
      <trkpt lat="43.44342" lon="1.20975">
        <ele>199.8</ele>
        <time>2024-08-01T08:43:02Z</time>
      </trkpt>
      <trkpt lat="43.44349" lon="1.20981">
        <ele>199.8</ele>
        <time>2024-08-01T08:43:03Z</time>
      </trkpt>
      <trkpt lat="43.44357" lon="1.20986">
        <ele>199.8</ele>
        <time>2024-08-01T08:43:04Z</time>
      </trkpt>
      <trkpt lat="43.44364" lon="1.20992">
        <ele>199.6</ele>
        <time>2024-08-01T08:43:05Z</time>
      </trkpt>
      <trkpt lat="43.44371" lon="1.20997">
        <ele>199.6</ele>
        <time>2024-08-01T08:43:06Z</time>
      </trkpt>
      <trkpt lat="43.44378" lon="1.21003">
        <ele>199.6</ele>
        <time>2024-08-01T08:43:07Z</time>
      </trkpt>
      <trkpt lat="43.44385" lon="1.21009">
        <ele>199.6</ele>
        <time>2024-08-01T08:43:08Z</time>
      </trkpt>
      <trkpt lat="43.44392" lon="1.21014">
        <ele>199.4</ele>
        <time>2024-08-01T08:43:09Z</time>
      </trkpt>
      <trkpt lat="43.44399" lon="1.2102">
        <ele>199.6</ele>
        <time>2024-08-01T08:43:10Z</time>
      </trkpt>
      <trkpt lat="43.44407" lon="1.21026">
        <ele>199.4</ele>
        <time>2024-08-01T08:43:11Z</time>
      </trkpt>
      <trkpt lat="43.44414" lon="1.21032">
        <ele>199.4</ele>
        <time>2024-08-01T08:43:12Z</time>
      </trkpt>
      <trkpt lat="43.44421" lon="1.21037">
        <ele>199.6</ele>
        <time>2024-08-01T08:43:13Z</time>
      </trkpt>
      <trkpt lat="43.44428" lon="1.21043">
        <ele>199.4</ele>
        <time>2024-08-01T08:43:14Z</time>
      </trkpt>
      <trkpt lat="43.44436" lon="1.21049">
        <ele>199.4</ele>
        <time>2024-08-01T08:43:15Z</time>
      </trkpt>
      <trkpt lat="43.44443" lon="1.21055">
        <ele>199.4</ele>
        <time>2024-08-01T08:43:16Z</time>
      </trkpt>
      <trkpt lat="43.44451" lon="1.21061">
        <ele>199.4</ele>
        <time>2024-08-01T08:43:17Z</time>
      </trkpt>
      <trkpt lat="43.44458" lon="1.21067">
        <ele>199.4</ele>
        <time>2024-08-01T08:43:18Z</time>
      </trkpt>
      <trkpt lat="43.44466" lon="1.21073">
        <ele>199.2</ele>
        <time>2024-08-01T08:43:19Z</time>
      </trkpt>
      <trkpt lat="43.44473" lon="1.21078">
        <ele>199.2</ele>
        <time>2024-08-01T08:43:20Z</time>
      </trkpt>
      <trkpt lat="43.44481" lon="1.21084">
        <ele>199.2</ele>
        <time>2024-08-01T08:43:21Z</time>
      </trkpt>
      <trkpt lat="43.4449" lon="1.21091">
        <ele>199.2</ele>
        <time>2024-08-01T08:43:22Z</time>
      </trkpt>
      <trkpt lat="43.44497" lon="1.21097">
        <ele>199.2</ele>
        <time>2024-08-01T08:43:23Z</time>
      </trkpt>
      <trkpt lat="43.44504" lon="1.21103">
        <ele>199</ele>
        <time>2024-08-01T08:43:24Z</time>
      </trkpt>
      <trkpt lat="43.44511" lon="1.21109">
        <ele>198.8</ele>
        <time>2024-08-01T08:43:25Z</time>
      </trkpt>
      <trkpt lat="43.44519" lon="1.21115">
        <ele>198.8</ele>
        <time>2024-08-01T08:43:26Z</time>
      </trkpt>
      <trkpt lat="43.44526" lon="1.21121">
        <ele>198.8</ele>
        <time>2024-08-01T08:43:27Z</time>
      </trkpt>
      <trkpt lat="43.44534" lon="1.21127">
        <ele>198.8</ele>
        <time>2024-08-01T08:43:28Z</time>
      </trkpt>
      <trkpt lat="43.44541" lon="1.21132">
        <ele>198.8</ele>
        <time>2024-08-01T08:43:29Z</time>
      </trkpt>
      <trkpt lat="43.44548" lon="1.21138">
        <ele>198.8</ele>
        <time>2024-08-01T08:43:30Z</time>
      </trkpt>
      <trkpt lat="43.44555" lon="1.21144">
        <ele>198.8</ele>
        <time>2024-08-01T08:43:31Z</time>
      </trkpt>
      <trkpt lat="43.44563" lon="1.21149">
        <ele>198.8</ele>
        <time>2024-08-01T08:43:32Z</time>
      </trkpt>
      <trkpt lat="43.44569" lon="1.21155">
        <ele>198.8</ele>
        <time>2024-08-01T08:43:33Z</time>
      </trkpt>
      <trkpt lat="43.44576" lon="1.2116">
        <ele>198.8</ele>
        <time>2024-08-01T08:43:34Z</time>
      </trkpt>
      <trkpt lat="43.44584" lon="1.21166">
        <ele>199</ele>
        <time>2024-08-01T08:43:35Z</time>
      </trkpt>
      <trkpt lat="43.44591" lon="1.21172">
        <ele>199</ele>
        <time>2024-08-01T08:43:36Z</time>
      </trkpt>
      <trkpt lat="43.44598" lon="1.21177">
        <ele>199</ele>
        <time>2024-08-01T08:43:37Z</time>
      </trkpt>
      <trkpt lat="43.44605" lon="1.21183">
        <ele>199</ele>
        <time>2024-08-01T08:43:38Z</time>
      </trkpt>
      <trkpt lat="43.44612" lon="1.21188">
        <ele>199</ele>
        <time>2024-08-01T08:43:39Z</time>
      </trkpt>
      <trkpt lat="43.44619" lon="1.21194">
        <ele>199</ele>
        <time>2024-08-01T08:43:40Z</time>
      </trkpt>
      <trkpt lat="43.44626" lon="1.21199">
        <ele>199</ele>
        <time>2024-08-01T08:43:41Z</time>
      </trkpt>
      <trkpt lat="43.44632" lon="1.21205">
        <ele>199</ele>
        <time>2024-08-01T08:43:42Z</time>
      </trkpt>
      <trkpt lat="43.44639" lon="1.2121">
        <ele>199</ele>
        <time>2024-08-01T08:43:43Z</time>
      </trkpt>
      <trkpt lat="43.44646" lon="1.21216">
        <ele>199</ele>
        <time>2024-08-01T08:43:44Z</time>
      </trkpt>
      <trkpt lat="43.44653" lon="1.21221">
        <ele>199</ele>
        <time>2024-08-01T08:43:45Z</time>
      </trkpt>
      <trkpt lat="43.4466" lon="1.21227">
        <ele>199.2</ele>
        <time>2024-08-01T08:43:46Z</time>
      </trkpt>
      <trkpt lat="43.44667" lon="1.21232">
        <ele>199.2</ele>
        <time>2024-08-01T08:43:47Z</time>
      </trkpt>
      <trkpt lat="43.44674" lon="1.21238">
        <ele>199.2</ele>
        <time>2024-08-01T08:43:48Z</time>
      </trkpt>
      <trkpt lat="43.44681" lon="1.21244">
        <ele>199.2</ele>
        <time>2024-08-01T08:43:49Z</time>
      </trkpt>
      <trkpt lat="43.44688" lon="1.2125">
        <ele>199.4</ele>
        <time>2024-08-01T08:43:50Z</time>
      </trkpt>
      <trkpt lat="43.44695" lon="1.21255">
        <ele>199.4</ele>
        <time>2024-08-01T08:43:51Z</time>
      </trkpt>
      <trkpt lat="43.44702" lon="1.21261">
        <ele>199.4</ele>
        <time>2024-08-01T08:43:52Z</time>
      </trkpt>
      <trkpt lat="43.44709" lon="1.21267">
        <ele>199.4</ele>
        <time>2024-08-01T08:43:53Z</time>
      </trkpt>
      <trkpt lat="43.44717" lon="1.21272">
        <ele>199.4</ele>
        <time>2024-08-01T08:43:54Z</time>
      </trkpt>
      <trkpt lat="43.44724" lon="1.21278">
        <ele>199.4</ele>
        <time>2024-08-01T08:43:55Z</time>
      </trkpt>
      <trkpt lat="43.44731" lon="1.21284">
        <ele>199.4</ele>
        <time>2024-08-01T08:43:56Z</time>
      </trkpt>
      <trkpt lat="43.44739" lon="1.2129">
        <ele>199.4</ele>
        <time>2024-08-01T08:43:57Z</time>
      </trkpt>
      <trkpt lat="43.44746" lon="1.21296">
        <ele>199.4</ele>
        <time>2024-08-01T08:43:58Z</time>
      </trkpt>
      <trkpt lat="43.44753" lon="1.21302">
        <ele>199.2</ele>
        <time>2024-08-01T08:43:59Z</time>
      </trkpt>
      <trkpt lat="43.44761" lon="1.21308">
        <ele>199.2</ele>
        <time>2024-08-01T08:44:00Z</time>
      </trkpt>
      <trkpt lat="43.44768" lon="1.21314">
        <ele>199.2</ele>
        <time>2024-08-01T08:44:01Z</time>
      </trkpt>
      <trkpt lat="43.44775" lon="1.21319">
        <ele>199</ele>
        <time>2024-08-01T08:44:02Z</time>
      </trkpt>
      <trkpt lat="43.44782" lon="1.21325">
        <ele>199</ele>
        <time>2024-08-01T08:44:03Z</time>
      </trkpt>
      <trkpt lat="43.44789" lon="1.21331">
        <ele>199</ele>
        <time>2024-08-01T08:44:04Z</time>
      </trkpt>
      <trkpt lat="43.44796" lon="1.21336">
        <ele>199</ele>
        <time>2024-08-01T08:44:05Z</time>
      </trkpt>
      <trkpt lat="43.44803" lon="1.21342">
        <ele>199</ele>
        <time>2024-08-01T08:44:06Z</time>
      </trkpt>
      <trkpt lat="43.4481" lon="1.21347">
        <ele>198.8</ele>
        <time>2024-08-01T08:44:07Z</time>
      </trkpt>
      <trkpt lat="43.44817" lon="1.21353">
        <ele>198.8</ele>
        <time>2024-08-01T08:44:08Z</time>
      </trkpt>
      <trkpt lat="43.44824" lon="1.21358">
        <ele>198.8</ele>
        <time>2024-08-01T08:44:09Z</time>
      </trkpt>
      <trkpt lat="43.4483" lon="1.21364">
        <ele>198.8</ele>
        <time>2024-08-01T08:44:10Z</time>
      </trkpt>
      <trkpt lat="43.44837" lon="1.21369">
        <ele>198.8</ele>
        <time>2024-08-01T08:44:11Z</time>
      </trkpt>
      <trkpt lat="43.44843" lon="1.21374">
        <ele>198.8</ele>
        <time>2024-08-01T08:44:12Z</time>
      </trkpt>
      <trkpt lat="43.4485" lon="1.2138">
        <ele>199</ele>
        <time>2024-08-01T08:44:13Z</time>
      </trkpt>
      <trkpt lat="43.44856" lon="1.21385">
        <ele>199.2</ele>
        <time>2024-08-01T08:44:14Z</time>
      </trkpt>
      <trkpt lat="43.44863" lon="1.21392">
        <ele>199.2</ele>
        <time>2024-08-01T08:44:15Z</time>
      </trkpt>
      <trkpt lat="43.4487" lon="1.21398">
        <ele>199.2</ele>
        <time>2024-08-01T08:44:16Z</time>
      </trkpt>
      <trkpt lat="43.44876" lon="1.21404">
        <ele>199.2</ele>
        <time>2024-08-01T08:44:17Z</time>
      </trkpt>
      <trkpt lat="43.44883" lon="1.21411">
        <ele>199.2</ele>
        <time>2024-08-01T08:44:18Z</time>
      </trkpt>
      <trkpt lat="43.4489" lon="1.21419">
        <ele>199</ele>
        <time>2024-08-01T08:44:19Z</time>
      </trkpt>
      <trkpt lat="43.44897" lon="1.21426">
        <ele>199</ele>
        <time>2024-08-01T08:44:20Z</time>
      </trkpt>
      <trkpt lat="43.44904" lon="1.21433">
        <ele>199</ele>
        <time>2024-08-01T08:44:21Z</time>
      </trkpt>
      <trkpt lat="43.4491" lon="1.2144">
        <ele>199</ele>
        <time>2024-08-01T08:44:22Z</time>
      </trkpt>
      <trkpt lat="43.44917" lon="1.21448">
        <ele>199</ele>
        <time>2024-08-01T08:44:23Z</time>
      </trkpt>
      <trkpt lat="43.44924" lon="1.21455">
        <ele>199</ele>
        <time>2024-08-01T08:44:24Z</time>
      </trkpt>
      <trkpt lat="43.44931" lon="1.21463">
        <ele>199</ele>
        <time>2024-08-01T08:44:25Z</time>
      </trkpt>
      <trkpt lat="43.44937" lon="1.2147">
        <ele>198.8</ele>
        <time>2024-08-01T08:44:26Z</time>
      </trkpt>
      <trkpt lat="43.44944" lon="1.21478">
        <ele>198.8</ele>
        <time>2024-08-01T08:44:27Z</time>
      </trkpt>
      <trkpt lat="43.44951" lon="1.21485">
        <ele>198.8</ele>
        <time>2024-08-01T08:44:28Z</time>
      </trkpt>
      <trkpt lat="43.44958" lon="1.21492">
        <ele>198.8</ele>
        <time>2024-08-01T08:44:29Z</time>
      </trkpt>
      <trkpt lat="43.44965" lon="1.215">
        <ele>198.6</ele>
        <time>2024-08-01T08:44:30Z</time>
      </trkpt>
      <trkpt lat="43.44972" lon="1.21507">
        <ele>198.4</ele>
        <time>2024-08-01T08:44:31Z</time>
      </trkpt>
      <trkpt lat="43.44979" lon="1.21514">
        <ele>198.4</ele>
        <time>2024-08-01T08:44:32Z</time>
      </trkpt>
      <trkpt lat="43.44985" lon="1.21521">
        <ele>198.4</ele>
        <time>2024-08-01T08:44:33Z</time>
      </trkpt>
      <trkpt lat="43.44992" lon="1.21529">
        <ele>198.4</ele>
        <time>2024-08-01T08:44:34Z</time>
      </trkpt>
      <trkpt lat="43.44999" lon="1.21536">
        <ele>198.4</ele>
        <time>2024-08-01T08:44:35Z</time>
      </trkpt>
      <trkpt lat="43.45005" lon="1.21543">
        <ele>198.2</ele>
        <time>2024-08-01T08:44:36Z</time>
      </trkpt>
      <trkpt lat="43.45012" lon="1.2155">
        <ele>198.2</ele>
        <time>2024-08-01T08:44:37Z</time>
      </trkpt>
      <trkpt lat="43.45018" lon="1.21557">
        <ele>198</ele>
        <time>2024-08-01T08:44:38Z</time>
      </trkpt>
      <trkpt lat="43.45025" lon="1.21564">
        <ele>198</ele>
        <time>2024-08-01T08:44:39Z</time>
      </trkpt>
      <trkpt lat="43.45031" lon="1.21571">
        <ele>198</ele>
        <time>2024-08-01T08:44:40Z</time>
      </trkpt>
      <trkpt lat="43.45037" lon="1.21578">
        <ele>198</ele>
        <time>2024-08-01T08:44:41Z</time>
      </trkpt>
      <trkpt lat="43.45044" lon="1.21585">
        <ele>197.8</ele>
        <time>2024-08-01T08:44:42Z</time>
      </trkpt>
      <trkpt lat="43.45051" lon="1.21592">
        <ele>197.8</ele>
        <time>2024-08-01T08:44:43Z</time>
      </trkpt>
      <trkpt lat="43.45057" lon="1.21599">
        <ele>197.8</ele>
        <time>2024-08-01T08:44:44Z</time>
      </trkpt>
      <trkpt lat="43.45064" lon="1.21606">
        <ele>197.8</ele>
        <time>2024-08-01T08:44:45Z</time>
      </trkpt>
      <trkpt lat="43.4507" lon="1.21613">
        <ele>197.8</ele>
        <time>2024-08-01T08:44:46Z</time>
      </trkpt>
      <trkpt lat="43.45077" lon="1.2162">
        <ele>197.8</ele>
        <time>2024-08-01T08:44:47Z</time>
      </trkpt>
      <trkpt lat="43.45084" lon="1.21627">
        <ele>197.8</ele>
        <time>2024-08-01T08:44:48Z</time>
      </trkpt>
      <trkpt lat="43.45091" lon="1.21634">
        <ele>197.8</ele>
        <time>2024-08-01T08:44:49Z</time>
      </trkpt>
      <trkpt lat="43.45098" lon="1.2164">
        <ele>197.8</ele>
        <time>2024-08-01T08:44:50Z</time>
      </trkpt>
      <trkpt lat="43.45105" lon="1.21646">
        <ele>197.8</ele>
        <time>2024-08-01T08:44:51Z</time>
      </trkpt>
      <trkpt lat="43.45113" lon="1.2165">
        <ele>197.8</ele>
        <time>2024-08-01T08:44:52Z</time>
      </trkpt>
      <trkpt lat="43.4512" lon="1.21653">
        <ele>197.8</ele>
        <time>2024-08-01T08:44:53Z</time>
      </trkpt>
      <trkpt lat="43.45127" lon="1.21657">
        <ele>197.8</ele>
        <time>2024-08-01T08:44:54Z</time>
      </trkpt>
      <trkpt lat="43.45134" lon="1.2166">
        <ele>197.8</ele>
        <time>2024-08-01T08:44:55Z</time>
      </trkpt>
      <trkpt lat="43.45141" lon="1.21663">
        <ele>197.8</ele>
        <time>2024-08-01T08:44:56Z</time>
      </trkpt>
      <trkpt lat="43.45148" lon="1.21666">
        <ele>197.8</ele>
        <time>2024-08-01T08:44:57Z</time>
      </trkpt>
      <trkpt lat="43.45155" lon="1.21668">
        <ele>197.8</ele>
        <time>2024-08-01T08:44:58Z</time>
      </trkpt>
      <trkpt lat="43.45163" lon="1.21672">
        <ele>197.8</ele>
        <time>2024-08-01T08:44:59Z</time>
      </trkpt>
      <trkpt lat="43.4517" lon="1.21675">
        <ele>197.8</ele>
        <time>2024-08-01T08:45:00Z</time>
      </trkpt>
      <trkpt lat="43.45178" lon="1.21678">
        <ele>197.6</ele>
        <time>2024-08-01T08:45:01Z</time>
      </trkpt>
      <trkpt lat="43.45185" lon="1.21681">
        <ele>197.6</ele>
        <time>2024-08-01T08:45:02Z</time>
      </trkpt>
      <trkpt lat="43.45193" lon="1.21684">
        <ele>197.6</ele>
        <time>2024-08-01T08:45:03Z</time>
      </trkpt>
      <trkpt lat="43.452" lon="1.21687">
        <ele>197.6</ele>
        <time>2024-08-01T08:45:04Z</time>
      </trkpt>
      <trkpt lat="43.45208" lon="1.21691">
        <ele>197.6</ele>
        <time>2024-08-01T08:45:05Z</time>
      </trkpt>
      <trkpt lat="43.45216" lon="1.21694">
        <ele>197.6</ele>
        <time>2024-08-01T08:45:06Z</time>
      </trkpt>
      <trkpt lat="43.45223" lon="1.21697">
        <ele>197.6</ele>
        <time>2024-08-01T08:45:07Z</time>
      </trkpt>
      <trkpt lat="43.45231" lon="1.21701">
        <ele>197.6</ele>
        <time>2024-08-01T08:45:08Z</time>
      </trkpt>
      <trkpt lat="43.45239" lon="1.21704">
        <ele>197.6</ele>
        <time>2024-08-01T08:45:09Z</time>
      </trkpt>
      <trkpt lat="43.45247" lon="1.21707">
        <ele>197.6</ele>
        <time>2024-08-01T08:45:10Z</time>
      </trkpt>
      <trkpt lat="43.45255" lon="1.21711">
        <ele>197.6</ele>
        <time>2024-08-01T08:45:11Z</time>
      </trkpt>
      <trkpt lat="43.45262" lon="1.21714">
        <ele>197.8</ele>
        <time>2024-08-01T08:45:12Z</time>
      </trkpt>
      <trkpt lat="43.45269" lon="1.21718">
        <ele>197.8</ele>
        <time>2024-08-01T08:45:13Z</time>
      </trkpt>
      <trkpt lat="43.45276" lon="1.21721">
        <ele>198</ele>
        <time>2024-08-01T08:45:14Z</time>
      </trkpt>
      <trkpt lat="43.45284" lon="1.21724">
        <ele>198</ele>
        <time>2024-08-01T08:45:15Z</time>
      </trkpt>
      <trkpt lat="43.45292" lon="1.21727">
        <ele>198.2</ele>
        <time>2024-08-01T08:45:16Z</time>
      </trkpt>
      <trkpt lat="43.453" lon="1.2173">
        <ele>198.2</ele>
        <time>2024-08-01T08:45:17Z</time>
      </trkpt>
      <trkpt lat="43.45307" lon="1.21734">
        <ele>198.2</ele>
        <time>2024-08-01T08:45:18Z</time>
      </trkpt>
      <trkpt lat="43.45315" lon="1.21737">
        <ele>198.4</ele>
        <time>2024-08-01T08:45:19Z</time>
      </trkpt>
      <trkpt lat="43.45323" lon="1.2174">
        <ele>198.4</ele>
        <time>2024-08-01T08:45:20Z</time>
      </trkpt>
      <trkpt lat="43.4533" lon="1.21743">
        <ele>198.6</ele>
        <time>2024-08-01T08:45:21Z</time>
      </trkpt>
      <trkpt lat="43.45338" lon="1.21747">
        <ele>198.6</ele>
        <time>2024-08-01T08:45:22Z</time>
      </trkpt>
      <trkpt lat="43.45348" lon="1.21751">
        <ele>198.8</ele>
        <time>2024-08-01T08:45:23Z</time>
      </trkpt>
      <trkpt lat="43.45355" lon="1.21754">
        <ele>198.8</ele>
        <time>2024-08-01T08:45:24Z</time>
      </trkpt>
      <trkpt lat="43.45363" lon="1.21758">
        <ele>198.8</ele>
        <time>2024-08-01T08:45:25Z</time>
      </trkpt>
      <trkpt lat="43.45371" lon="1.21761">
        <ele>198.8</ele>
        <time>2024-08-01T08:45:26Z</time>
      </trkpt>
      <trkpt lat="43.45378" lon="1.21764">
        <ele>198.8</ele>
        <time>2024-08-01T08:45:27Z</time>
      </trkpt>
      <trkpt lat="43.45386" lon="1.21768">
        <ele>199</ele>
        <time>2024-08-01T08:45:28Z</time>
      </trkpt>
      <trkpt lat="43.45393" lon="1.21771">
        <ele>199</ele>
        <time>2024-08-01T08:45:29Z</time>
      </trkpt>
      <trkpt lat="43.454" lon="1.21774">
        <ele>199</ele>
        <time>2024-08-01T08:45:30Z</time>
      </trkpt>
      <trkpt lat="43.45408" lon="1.21777">
        <ele>199</ele>
        <time>2024-08-01T08:45:31Z</time>
      </trkpt>
      <trkpt lat="43.45415" lon="1.2178">
        <ele>199</ele>
        <time>2024-08-01T08:45:32Z</time>
      </trkpt>
      <trkpt lat="43.45422" lon="1.21782">
        <ele>199</ele>
        <time>2024-08-01T08:45:33Z</time>
      </trkpt>
      <trkpt lat="43.45429" lon="1.21785">
        <ele>199</ele>
        <time>2024-08-01T08:45:34Z</time>
      </trkpt>
      <trkpt lat="43.45437" lon="1.21788">
        <ele>199</ele>
        <time>2024-08-01T08:45:35Z</time>
      </trkpt>
      <trkpt lat="43.45444" lon="1.2179">
        <ele>198.8</ele>
        <time>2024-08-01T08:45:36Z</time>
      </trkpt>
      <trkpt lat="43.45451" lon="1.21793">
        <ele>198.8</ele>
        <time>2024-08-01T08:45:37Z</time>
      </trkpt>
      <trkpt lat="43.45458" lon="1.21795">
        <ele>198.8</ele>
        <time>2024-08-01T08:45:38Z</time>
      </trkpt>
      <trkpt lat="43.45465" lon="1.21798">
        <ele>198.8</ele>
        <time>2024-08-01T08:45:39Z</time>
      </trkpt>
      <trkpt lat="43.45473" lon="1.218">
        <ele>199</ele>
        <time>2024-08-01T08:45:40Z</time>
      </trkpt>
      <trkpt lat="43.4548" lon="1.21803">
        <ele>199</ele>
        <time>2024-08-01T08:45:41Z</time>
      </trkpt>
      <trkpt lat="43.45487" lon="1.21805">
        <ele>199</ele>
        <time>2024-08-01T08:45:42Z</time>
      </trkpt>
      <trkpt lat="43.45495" lon="1.21807">
        <ele>199</ele>
        <time>2024-08-01T08:45:43Z</time>
      </trkpt>
      <trkpt lat="43.45502" lon="1.21809">
        <ele>199</ele>
        <time>2024-08-01T08:45:44Z</time>
      </trkpt>
      <trkpt lat="43.45508" lon="1.21811">
        <ele>199.2</ele>
        <time>2024-08-01T08:45:45Z</time>
      </trkpt>
      <trkpt lat="43.45516" lon="1.21813">
        <ele>199.2</ele>
        <time>2024-08-01T08:45:46Z</time>
      </trkpt>
      <trkpt lat="43.45523" lon="1.21814">
        <ele>199.2</ele>
        <time>2024-08-01T08:45:47Z</time>
      </trkpt>
      <trkpt lat="43.4553" lon="1.21815">
        <ele>199.4</ele>
        <time>2024-08-01T08:45:48Z</time>
      </trkpt>
      <trkpt lat="43.45537" lon="1.21817">
        <ele>199.4</ele>
        <time>2024-08-01T08:45:49Z</time>
      </trkpt>
      <trkpt lat="43.45544" lon="1.21818">
        <ele>199.4</ele>
        <time>2024-08-01T08:45:50Z</time>
      </trkpt>
      <trkpt lat="43.45551" lon="1.21818">
        <ele>199.4</ele>
        <time>2024-08-01T08:45:51Z</time>
      </trkpt>
      <trkpt lat="43.45558" lon="1.21819">
        <ele>199.4</ele>
        <time>2024-08-01T08:45:52Z</time>
      </trkpt>
      <trkpt lat="43.45565" lon="1.21819">
        <ele>199.4</ele>
        <time>2024-08-01T08:45:53Z</time>
      </trkpt>
      <trkpt lat="43.45572" lon="1.21819">
        <ele>199.2</ele>
        <time>2024-08-01T08:45:54Z</time>
      </trkpt>
      <trkpt lat="43.45579" lon="1.21818">
        <ele>199.2</ele>
        <time>2024-08-01T08:45:55Z</time>
      </trkpt>
      <trkpt lat="43.45586" lon="1.21818">
        <ele>199.2</ele>
        <time>2024-08-01T08:45:56Z</time>
      </trkpt>
      <trkpt lat="43.45594" lon="1.21818">
        <ele>199.2</ele>
        <time>2024-08-01T08:45:57Z</time>
      </trkpt>
      <trkpt lat="43.45602" lon="1.21818">
        <ele>199.2</ele>
        <time>2024-08-01T08:45:58Z</time>
      </trkpt>
      <trkpt lat="43.4561" lon="1.21818">
        <ele>199.2</ele>
        <time>2024-08-01T08:45:59Z</time>
      </trkpt>
      <trkpt lat="43.45617" lon="1.21818">
        <ele>199.2</ele>
        <time>2024-08-01T08:46:00Z</time>
      </trkpt>
      <trkpt lat="43.45624" lon="1.21818">
        <ele>199</ele>
        <time>2024-08-01T08:46:01Z</time>
      </trkpt>
      <trkpt lat="43.45631" lon="1.21817">
        <ele>199</ele>
        <time>2024-08-01T08:46:02Z</time>
      </trkpt>
      <trkpt lat="43.45639" lon="1.21817">
        <ele>199</ele>
        <time>2024-08-01T08:46:03Z</time>
      </trkpt>
      <trkpt lat="43.45646" lon="1.21817">
        <ele>199</ele>
        <time>2024-08-01T08:46:04Z</time>
      </trkpt>
      <trkpt lat="43.45654" lon="1.21817">
        <ele>199</ele>
        <time>2024-08-01T08:46:05Z</time>
      </trkpt>
      <trkpt lat="43.45661" lon="1.21817">
        <ele>198.8</ele>
        <time>2024-08-01T08:46:06Z</time>
      </trkpt>
      <trkpt lat="43.45669" lon="1.21817">
        <ele>198.8</ele>
        <time>2024-08-01T08:46:07Z</time>
      </trkpt>
      <trkpt lat="43.45676" lon="1.21817">
        <ele>198.6</ele>
        <time>2024-08-01T08:46:08Z</time>
      </trkpt>
      <trkpt lat="43.45684" lon="1.21817">
        <ele>198.6</ele>
        <time>2024-08-01T08:46:09Z</time>
      </trkpt>
      <trkpt lat="43.45692" lon="1.21816">
        <ele>198.6</ele>
        <time>2024-08-01T08:46:10Z</time>
      </trkpt>
      <trkpt lat="43.457" lon="1.21816">
        <ele>198.6</ele>
        <time>2024-08-01T08:46:11Z</time>
      </trkpt>
      <trkpt lat="43.45708" lon="1.21816">
        <ele>198.6</ele>
        <time>2024-08-01T08:46:12Z</time>
      </trkpt>
      <trkpt lat="43.45716" lon="1.21816">
        <ele>198.6</ele>
        <time>2024-08-01T08:46:13Z</time>
      </trkpt>
      <trkpt lat="43.45724" lon="1.21816">
        <ele>198.6</ele>
        <time>2024-08-01T08:46:14Z</time>
      </trkpt>
      <trkpt lat="43.45731" lon="1.21816">
        <ele>198.8</ele>
        <time>2024-08-01T08:46:15Z</time>
      </trkpt>
      <trkpt lat="43.45739" lon="1.21816">
        <ele>198.6</ele>
        <time>2024-08-01T08:46:16Z</time>
      </trkpt>
      <trkpt lat="43.45747" lon="1.21816">
        <ele>198.6</ele>
        <time>2024-08-01T08:46:17Z</time>
      </trkpt>
      <trkpt lat="43.45754" lon="1.21816">
        <ele>198.6</ele>
        <time>2024-08-01T08:46:18Z</time>
      </trkpt>
      <trkpt lat="43.45762" lon="1.21816">
        <ele>198.6</ele>
        <time>2024-08-01T08:46:19Z</time>
      </trkpt>
      <trkpt lat="43.4577" lon="1.21816">
        <ele>198.8</ele>
        <time>2024-08-01T08:46:20Z</time>
      </trkpt>
      <trkpt lat="43.45778" lon="1.21816">
        <ele>198.8</ele>
        <time>2024-08-01T08:46:21Z</time>
      </trkpt>
      <trkpt lat="43.45785" lon="1.21816">
        <ele>198.8</ele>
        <time>2024-08-01T08:46:22Z</time>
      </trkpt>
      <trkpt lat="43.45792" lon="1.21815">
        <ele>198.8</ele>
        <time>2024-08-01T08:46:23Z</time>
      </trkpt>
      <trkpt lat="43.458" lon="1.21815">
        <ele>198.8</ele>
        <time>2024-08-01T08:46:24Z</time>
      </trkpt>
      <trkpt lat="43.45807" lon="1.21814">
        <ele>198.6</ele>
        <time>2024-08-01T08:46:25Z</time>
      </trkpt>
      <trkpt lat="43.45814" lon="1.21814">
        <ele>198.6</ele>
        <time>2024-08-01T08:46:26Z</time>
      </trkpt>
      <trkpt lat="43.45821" lon="1.21814">
        <ele>198.8</ele>
        <time>2024-08-01T08:46:27Z</time>
      </trkpt>
      <trkpt lat="43.45828" lon="1.21814">
        <ele>198.8</ele>
        <time>2024-08-01T08:46:28Z</time>
      </trkpt>
      <trkpt lat="43.45835" lon="1.21814">
        <ele>198.8</ele>
        <time>2024-08-01T08:46:29Z</time>
      </trkpt>
      <trkpt lat="43.45843" lon="1.21814">
        <ele>198.8</ele>
        <time>2024-08-01T08:46:30Z</time>
      </trkpt>
      <trkpt lat="43.4585" lon="1.21814">
        <ele>198.8</ele>
        <time>2024-08-01T08:46:31Z</time>
      </trkpt>
      <trkpt lat="43.45858" lon="1.21814">
        <ele>198.8</ele>
        <time>2024-08-01T08:46:32Z</time>
      </trkpt>
      <trkpt lat="43.45865" lon="1.21814">
        <ele>198.8</ele>
        <time>2024-08-01T08:46:33Z</time>
      </trkpt>
      <trkpt lat="43.45873" lon="1.21814">
        <ele>198.8</ele>
        <time>2024-08-01T08:46:34Z</time>
      </trkpt>
      <trkpt lat="43.45881" lon="1.21814">
        <ele>198.8</ele>
        <time>2024-08-01T08:46:35Z</time>
      </trkpt>
      <trkpt lat="43.45889" lon="1.21814">
        <ele>198.8</ele>
        <time>2024-08-01T08:46:36Z</time>
      </trkpt>
      <trkpt lat="43.45897" lon="1.21813">
        <ele>198.8</ele>
        <time>2024-08-01T08:46:37Z</time>
      </trkpt>
      <trkpt lat="43.45904" lon="1.21813">
        <ele>198.6</ele>
        <time>2024-08-01T08:46:38Z</time>
      </trkpt>
      <trkpt lat="43.45912" lon="1.21813">
        <ele>198.6</ele>
        <time>2024-08-01T08:46:39Z</time>
      </trkpt>
      <trkpt lat="43.4592" lon="1.21812">
        <ele>198.6</ele>
        <time>2024-08-01T08:46:40Z</time>
      </trkpt>
      <trkpt lat="43.45928" lon="1.21812">
        <ele>198.4</ele>
        <time>2024-08-01T08:46:41Z</time>
      </trkpt>
      <trkpt lat="43.45936" lon="1.21812">
        <ele>198.4</ele>
        <time>2024-08-01T08:46:42Z</time>
      </trkpt>
      <trkpt lat="43.45944" lon="1.21812">
        <ele>198.4</ele>
        <time>2024-08-01T08:46:43Z</time>
      </trkpt>
      <trkpt lat="43.45952" lon="1.21811">
        <ele>198.2</ele>
        <time>2024-08-01T08:46:44Z</time>
      </trkpt>
      <trkpt lat="43.45959" lon="1.21811">
        <ele>198.2</ele>
        <time>2024-08-01T08:46:45Z</time>
      </trkpt>
      <trkpt lat="43.45967" lon="1.21811">
        <ele>197.8</ele>
        <time>2024-08-01T08:46:46Z</time>
      </trkpt>
      <trkpt lat="43.45974" lon="1.2181">
        <ele>197.8</ele>
        <time>2024-08-01T08:46:47Z</time>
      </trkpt>
      <trkpt lat="43.45982" lon="1.2181">
        <ele>197.6</ele>
        <time>2024-08-01T08:46:48Z</time>
      </trkpt>
      <trkpt lat="43.4599" lon="1.2181">
        <ele>197.4</ele>
        <time>2024-08-01T08:46:49Z</time>
      </trkpt>
      <trkpt lat="43.45997" lon="1.2181">
        <ele>197.4</ele>
        <time>2024-08-01T08:46:50Z</time>
      </trkpt>
      <trkpt lat="43.46005" lon="1.21809">
        <ele>197.4</ele>
        <time>2024-08-01T08:46:51Z</time>
      </trkpt>
      <trkpt lat="43.46013" lon="1.21809">
        <ele>197.4</ele>
        <time>2024-08-01T08:46:52Z</time>
      </trkpt>
      <trkpt lat="43.46021" lon="1.21808">
        <ele>197.4</ele>
        <time>2024-08-01T08:46:53Z</time>
      </trkpt>
      <trkpt lat="43.46028" lon="1.21807">
        <ele>197.4</ele>
        <time>2024-08-01T08:46:54Z</time>
      </trkpt>
      <trkpt lat="43.46036" lon="1.21805">
        <ele>197.4</ele>
        <time>2024-08-01T08:46:55Z</time>
      </trkpt>
      <trkpt lat="43.46043" lon="1.21802">
        <ele>197.4</ele>
        <time>2024-08-01T08:46:56Z</time>
      </trkpt>
      <trkpt lat="43.46051" lon="1.21799">
        <ele>197.4</ele>
        <time>2024-08-01T08:46:57Z</time>
      </trkpt>
      <trkpt lat="43.46058" lon="1.21795">
        <ele>197.4</ele>
        <time>2024-08-01T08:46:58Z</time>
      </trkpt>
      <trkpt lat="43.46065" lon="1.21791">
        <ele>197.4</ele>
        <time>2024-08-01T08:46:59Z</time>
      </trkpt>
      <trkpt lat="43.46071" lon="1.21787">
        <ele>197.4</ele>
        <time>2024-08-01T08:47:00Z</time>
      </trkpt>
      <trkpt lat="43.46078" lon="1.21782">
        <ele>197.6</ele>
        <time>2024-08-01T08:47:01Z</time>
      </trkpt>
      <trkpt lat="43.46084" lon="1.21777">
        <ele>197.6</ele>
        <time>2024-08-01T08:47:02Z</time>
      </trkpt>
      <trkpt lat="43.4609" lon="1.21772">
        <ele>197.6</ele>
        <time>2024-08-01T08:47:03Z</time>
      </trkpt>
      <trkpt lat="43.46096" lon="1.21768">
        <ele>197.6</ele>
        <time>2024-08-01T08:47:04Z</time>
      </trkpt>
      <trkpt lat="43.46102" lon="1.21763">
        <ele>197.6</ele>
        <time>2024-08-01T08:47:05Z</time>
      </trkpt>
      <trkpt lat="43.46108" lon="1.21758">
        <ele>197.6</ele>
        <time>2024-08-01T08:47:06Z</time>
      </trkpt>
      <trkpt lat="43.46114" lon="1.21753">
        <ele>197.6</ele>
        <time>2024-08-01T08:47:07Z</time>
      </trkpt>
      <trkpt lat="43.46119" lon="1.21749">
        <ele>197.6</ele>
        <time>2024-08-01T08:47:08Z</time>
      </trkpt>
      <trkpt lat="43.46125" lon="1.21745">
        <ele>197.6</ele>
        <time>2024-08-01T08:47:09Z</time>
      </trkpt>
      <trkpt lat="43.4613" lon="1.2174">
        <ele>197.8</ele>
        <time>2024-08-01T08:47:10Z</time>
      </trkpt>
      <trkpt lat="43.46135" lon="1.21735">
        <ele>197.8</ele>
        <time>2024-08-01T08:47:11Z</time>
      </trkpt>
      <trkpt lat="43.4614" lon="1.21732">
        <ele>198</ele>
        <time>2024-08-01T08:47:12Z</time>
      </trkpt>
      <trkpt lat="43.46144" lon="1.21728">
        <ele>198.2</ele>
        <time>2024-08-01T08:47:13Z</time>
      </trkpt>
      <trkpt lat="43.46149" lon="1.21725">
        <ele>198.4</ele>
        <time>2024-08-01T08:47:14Z</time>
      </trkpt>
      <trkpt lat="43.46154" lon="1.21721">
        <ele>198.6</ele>
        <time>2024-08-01T08:47:15Z</time>
      </trkpt>
      <trkpt lat="43.46159" lon="1.21718">
        <ele>198.8</ele>
        <time>2024-08-01T08:47:16Z</time>
      </trkpt>
      <trkpt lat="43.46163" lon="1.21715">
        <ele>199</ele>
        <time>2024-08-01T08:47:17Z</time>
      </trkpt>
      <trkpt lat="43.46168" lon="1.21712">
        <ele>199.2</ele>
        <time>2024-08-01T08:47:18Z</time>
      </trkpt>
      <trkpt lat="43.46173" lon="1.21709">
        <ele>199.6</ele>
        <time>2024-08-01T08:47:19Z</time>
      </trkpt>
      <trkpt lat="43.46178" lon="1.21708">
        <ele>199.8</ele>
        <time>2024-08-01T08:47:20Z</time>
      </trkpt>
      <trkpt lat="43.46182" lon="1.21708">
        <ele>200.2</ele>
        <time>2024-08-01T08:47:21Z</time>
      </trkpt>
      <trkpt lat="43.46187" lon="1.21708">
        <ele>200.2</ele>
        <time>2024-08-01T08:47:22Z</time>
      </trkpt>
      <trkpt lat="43.46192" lon="1.21709">
        <ele>200.6</ele>
        <time>2024-08-01T08:47:23Z</time>
      </trkpt>
      <trkpt lat="43.46196" lon="1.21711">
        <ele>201</ele>
        <time>2024-08-01T08:47:24Z</time>
      </trkpt>
      <trkpt lat="43.46201" lon="1.21714">
        <ele>201.2</ele>
        <time>2024-08-01T08:47:25Z</time>
      </trkpt>
      <trkpt lat="43.46205" lon="1.21717">
        <ele>201.6</ele>
        <time>2024-08-01T08:47:26Z</time>
      </trkpt>
      <trkpt lat="43.46209" lon="1.2172">
        <ele>201.8</ele>
        <time>2024-08-01T08:47:27Z</time>
      </trkpt>
      <trkpt lat="43.46213" lon="1.21725">
        <ele>202.4</ele>
        <time>2024-08-01T08:47:28Z</time>
      </trkpt>
      <trkpt lat="43.46218" lon="1.21729">
        <ele>202.6</ele>
        <time>2024-08-01T08:47:29Z</time>
      </trkpt>
      <trkpt lat="43.46222" lon="1.21733">
        <ele>203.2</ele>
        <time>2024-08-01T08:47:30Z</time>
      </trkpt>
      <trkpt lat="43.46226" lon="1.21737">
        <ele>203.4</ele>
        <time>2024-08-01T08:47:31Z</time>
      </trkpt>
      <trkpt lat="43.46229" lon="1.21741">
        <ele>203.6</ele>
        <time>2024-08-01T08:47:32Z</time>
      </trkpt>
      <trkpt lat="43.46233" lon="1.21745">
        <ele>204</ele>
        <time>2024-08-01T08:47:33Z</time>
      </trkpt>
      <trkpt lat="43.46237" lon="1.21749">
        <ele>204.2</ele>
        <time>2024-08-01T08:47:34Z</time>
      </trkpt>
      <trkpt lat="43.46242" lon="1.21753">
        <ele>204.4</ele>
        <time>2024-08-01T08:47:35Z</time>
      </trkpt>
      <trkpt lat="43.46246" lon="1.21757">
        <ele>204.4</ele>
        <time>2024-08-01T08:47:36Z</time>
      </trkpt>
      <trkpt lat="43.46251" lon="1.2176">
        <ele>204.8</ele>
        <time>2024-08-01T08:47:37Z</time>
      </trkpt>
      <trkpt lat="43.46255" lon="1.21763">
        <ele>205.4</ele>
        <time>2024-08-01T08:47:38Z</time>
      </trkpt>
      <trkpt lat="43.46259" lon="1.21766">
        <ele>205.6</ele>
        <time>2024-08-01T08:47:39Z</time>
      </trkpt>
      <trkpt lat="43.46263" lon="1.21769">
        <ele>206</ele>
        <time>2024-08-01T08:47:40Z</time>
      </trkpt>
      <trkpt lat="43.46268" lon="1.21771">
        <ele>206.2</ele>
        <time>2024-08-01T08:47:41Z</time>
      </trkpt>
      <trkpt lat="43.46272" lon="1.21774">
        <ele>206.8</ele>
        <time>2024-08-01T08:47:42Z</time>
      </trkpt>
      <trkpt lat="43.46276" lon="1.21776">
        <ele>207.2</ele>
        <time>2024-08-01T08:47:43Z</time>
      </trkpt>
      <trkpt lat="43.4628" lon="1.21778">
        <ele>207.4</ele>
        <time>2024-08-01T08:47:44Z</time>
      </trkpt>
      <trkpt lat="43.46284" lon="1.2178">
        <ele>207.8</ele>
        <time>2024-08-01T08:47:45Z</time>
      </trkpt>
      <trkpt lat="43.46288" lon="1.21781">
        <ele>208.2</ele>
        <time>2024-08-01T08:47:46Z</time>
      </trkpt>
      <trkpt lat="43.46293" lon="1.21783">
        <ele>208.6</ele>
        <time>2024-08-01T08:47:47Z</time>
      </trkpt>
      <trkpt lat="43.46297" lon="1.21785">
        <ele>208.8</ele>
        <time>2024-08-01T08:47:48Z</time>
      </trkpt>
      <trkpt lat="43.46301" lon="1.21787">
        <ele>209.2</ele>
        <time>2024-08-01T08:47:49Z</time>
      </trkpt>
      <trkpt lat="43.46306" lon="1.21788">
        <ele>209.6</ele>
        <time>2024-08-01T08:47:50Z</time>
      </trkpt>
      <trkpt lat="43.46311" lon="1.2179">
        <ele>209.8</ele>
        <time>2024-08-01T08:47:51Z</time>
      </trkpt>
      <trkpt lat="43.46315" lon="1.21791">
        <ele>210</ele>
        <time>2024-08-01T08:47:52Z</time>
      </trkpt>
      <trkpt lat="43.4632" lon="1.21792">
        <ele>210.2</ele>
        <time>2024-08-01T08:47:53Z</time>
      </trkpt>
      <trkpt lat="43.46324" lon="1.21793">
        <ele>210.8</ele>
        <time>2024-08-01T08:47:54Z</time>
      </trkpt>
      <trkpt lat="43.46328" lon="1.21793">
        <ele>211</ele>
        <time>2024-08-01T08:47:55Z</time>
      </trkpt>
      <trkpt lat="43.46332" lon="1.21794">
        <ele>211.4</ele>
        <time>2024-08-01T08:47:56Z</time>
      </trkpt>
      <trkpt lat="43.46336" lon="1.21795">
        <ele>211.8</ele>
        <time>2024-08-01T08:47:57Z</time>
      </trkpt>
      <trkpt lat="43.46339" lon="1.21795">
        <ele>211.8</ele>
        <time>2024-08-01T08:47:58Z</time>
      </trkpt>
      <trkpt lat="43.46343" lon="1.21796">
        <ele>212</ele>
        <time>2024-08-01T08:47:59Z</time>
      </trkpt>
      <trkpt lat="43.46347" lon="1.21797">
        <ele>212.2</ele>
        <time>2024-08-01T08:48:00Z</time>
      </trkpt>
      <trkpt lat="43.46351" lon="1.21798">
        <ele>212.6</ele>
        <time>2024-08-01T08:48:01Z</time>
      </trkpt>
      <trkpt lat="43.46354" lon="1.21799">
        <ele>212.6</ele>
        <time>2024-08-01T08:48:02Z</time>
      </trkpt>
      <trkpt lat="43.46359" lon="1.218">
        <ele>213.2</ele>
        <time>2024-08-01T08:48:03Z</time>
      </trkpt>
      <trkpt lat="43.46362" lon="1.21801">
        <ele>213.6</ele>
        <time>2024-08-01T08:48:04Z</time>
      </trkpt>
      <trkpt lat="43.46366" lon="1.21802">
        <ele>213.8</ele>
        <time>2024-08-01T08:48:05Z</time>
      </trkpt>
      <trkpt lat="43.4637" lon="1.21804">
        <ele>214</ele>
        <time>2024-08-01T08:48:06Z</time>
      </trkpt>
      <trkpt lat="43.46375" lon="1.21805">
        <ele>214.2</ele>
        <time>2024-08-01T08:48:07Z</time>
      </trkpt>
      <trkpt lat="43.46379" lon="1.21805">
        <ele>214.6</ele>
        <time>2024-08-01T08:48:08Z</time>
      </trkpt>
      <trkpt lat="43.46383" lon="1.21806">
        <ele>214.6</ele>
        <time>2024-08-01T08:48:09Z</time>
      </trkpt>
      <trkpt lat="43.46387" lon="1.21806">
        <ele>215</ele>
        <time>2024-08-01T08:48:10Z</time>
      </trkpt>
      <trkpt lat="43.46391" lon="1.21807">
        <ele>215.2</ele>
        <time>2024-08-01T08:48:11Z</time>
      </trkpt>
      <trkpt lat="43.46395" lon="1.21807">
        <ele>215.2</ele>
        <time>2024-08-01T08:48:12Z</time>
      </trkpt>
      <trkpt lat="43.46399" lon="1.21807">
        <ele>215.4</ele>
        <time>2024-08-01T08:48:13Z</time>
      </trkpt>
      <trkpt lat="43.46403" lon="1.21807">
        <ele>215.6</ele>
        <time>2024-08-01T08:48:14Z</time>
      </trkpt>
      <trkpt lat="43.46408" lon="1.21807">
        <ele>216</ele>
        <time>2024-08-01T08:48:15Z</time>
      </trkpt>
      <trkpt lat="43.46412" lon="1.21806">
        <ele>216</ele>
        <time>2024-08-01T08:48:16Z</time>
      </trkpt>
      <trkpt lat="43.46416" lon="1.21806">
        <ele>216.4</ele>
        <time>2024-08-01T08:48:17Z</time>
      </trkpt>
      <trkpt lat="43.4642" lon="1.21806">
        <ele>216.6</ele>
        <time>2024-08-01T08:48:18Z</time>
      </trkpt>
      <trkpt lat="43.46424" lon="1.21805">
        <ele>216.6</ele>
        <time>2024-08-01T08:48:19Z</time>
      </trkpt>
      <trkpt lat="43.46429" lon="1.21804">
        <ele>216.8</ele>
        <time>2024-08-01T08:48:20Z</time>
      </trkpt>
      <trkpt lat="43.46433" lon="1.21802">
        <ele>216.8</ele>
        <time>2024-08-01T08:48:21Z</time>
      </trkpt>
      <trkpt lat="43.46437" lon="1.218">
        <ele>217</ele>
        <time>2024-08-01T08:48:22Z</time>
      </trkpt>
      <trkpt lat="43.46441" lon="1.21797">
        <ele>217</ele>
        <time>2024-08-01T08:48:23Z</time>
      </trkpt>
      <trkpt lat="43.46444" lon="1.21794">
        <ele>217</ele>
        <time>2024-08-01T08:48:24Z</time>
      </trkpt>
      <trkpt lat="43.46448" lon="1.2179">
        <ele>217</ele>
        <time>2024-08-01T08:48:25Z</time>
      </trkpt>
      <trkpt lat="43.46452" lon="1.21786">
        <ele>217</ele>
        <time>2024-08-01T08:48:26Z</time>
      </trkpt>
      <trkpt lat="43.46455" lon="1.21781">
        <ele>217.2</ele>
        <time>2024-08-01T08:48:27Z</time>
      </trkpt>
      <trkpt lat="43.46459" lon="1.21777">
        <ele>217.2</ele>
        <time>2024-08-01T08:48:28Z</time>
      </trkpt>
      <trkpt lat="43.46462" lon="1.21773">
        <ele>217.2</ele>
        <time>2024-08-01T08:48:29Z</time>
      </trkpt>
      <trkpt lat="43.46466" lon="1.2177">
        <ele>217.2</ele>
        <time>2024-08-01T08:48:30Z</time>
      </trkpt>
      <trkpt lat="43.46469" lon="1.21766">
        <ele>217.2</ele>
        <time>2024-08-01T08:48:31Z</time>
      </trkpt>
      <trkpt lat="43.46472" lon="1.21762">
        <ele>217.2</ele>
        <time>2024-08-01T08:48:32Z</time>
      </trkpt>
      <trkpt lat="43.46475" lon="1.21759">
        <ele>217.2</ele>
        <time>2024-08-01T08:48:33Z</time>
      </trkpt>
      <trkpt lat="43.46478" lon="1.21755">
        <ele>217.2</ele>
        <time>2024-08-01T08:48:34Z</time>
      </trkpt>
      <trkpt lat="43.46481" lon="1.21751">
        <ele>217.2</ele>
        <time>2024-08-01T08:48:35Z</time>
      </trkpt>
      <trkpt lat="43.46484" lon="1.21747">
        <ele>217.2</ele>
        <time>2024-08-01T08:48:36Z</time>
      </trkpt>
      <trkpt lat="43.46487" lon="1.21743">
        <ele>217.2</ele>
        <time>2024-08-01T08:48:37Z</time>
      </trkpt>
      <trkpt lat="43.46489" lon="1.21738">
        <ele>217.2</ele>
        <time>2024-08-01T08:48:38Z</time>
      </trkpt>
      <trkpt lat="43.46492" lon="1.21734">
        <ele>217.2</ele>
        <time>2024-08-01T08:48:39Z</time>
      </trkpt>
      <trkpt lat="43.46495" lon="1.2173">
        <ele>217.2</ele>
        <time>2024-08-01T08:48:40Z</time>
      </trkpt>
      <trkpt lat="43.46498" lon="1.21725">
        <ele>217.2</ele>
        <time>2024-08-01T08:48:41Z</time>
      </trkpt>
      <trkpt lat="43.465" lon="1.2172">
        <ele>217.2</ele>
        <time>2024-08-01T08:48:42Z</time>
      </trkpt>
      <trkpt lat="43.46502" lon="1.21715">
        <ele>217.4</ele>
        <time>2024-08-01T08:48:43Z</time>
      </trkpt>
      <trkpt lat="43.46505" lon="1.21712">
        <ele>217.4</ele>
        <time>2024-08-01T08:48:44Z</time>
      </trkpt>
      <trkpt lat="43.46508" lon="1.21708">
        <ele>217.2</ele>
        <time>2024-08-01T08:48:45Z</time>
      </trkpt>
      <trkpt lat="43.46511" lon="1.21706">
        <ele>217.2</ele>
        <time>2024-08-01T08:48:46Z</time>
      </trkpt>
      <trkpt lat="43.46514" lon="1.21705">
        <ele>217.2</ele>
        <time>2024-08-01T08:48:47Z</time>
      </trkpt>
      <trkpt lat="43.46518" lon="1.21704">
        <ele>217.2</ele>
        <time>2024-08-01T08:48:48Z</time>
      </trkpt>
      <trkpt lat="43.46521" lon="1.21706">
        <ele>217.2</ele>
        <time>2024-08-01T08:48:49Z</time>
      </trkpt>
      <trkpt lat="43.46525" lon="1.21707">
        <ele>217.2</ele>
        <time>2024-08-01T08:48:50Z</time>
      </trkpt>
      <trkpt lat="43.46529" lon="1.21709">
        <ele>217.2</ele>
        <time>2024-08-01T08:48:51Z</time>
      </trkpt>
      <trkpt lat="43.46533" lon="1.21709">
        <ele>217.2</ele>
        <time>2024-08-01T08:48:52Z</time>
      </trkpt>
      <trkpt lat="43.46537" lon="1.21709">
        <ele>217.2</ele>
        <time>2024-08-01T08:48:53Z</time>
      </trkpt>
      <trkpt lat="43.46541" lon="1.21707">
        <ele>217.2</ele>
        <time>2024-08-01T08:48:54Z</time>
      </trkpt>
      <trkpt lat="43.46545" lon="1.21705">
        <ele>217.2</ele>
        <time>2024-08-01T08:48:55Z</time>
      </trkpt>
      <trkpt lat="43.46548" lon="1.21702">
        <ele>217.2</ele>
        <time>2024-08-01T08:48:56Z</time>
      </trkpt>
      <trkpt lat="43.46551" lon="1.21699">
        <ele>217.2</ele>
        <time>2024-08-01T08:48:57Z</time>
      </trkpt>
      <trkpt lat="43.46554" lon="1.21696">
        <ele>217.2</ele>
        <time>2024-08-01T08:48:58Z</time>
      </trkpt>
      <trkpt lat="43.46556" lon="1.21694">
        <ele>217.2</ele>
        <time>2024-08-01T08:48:59Z</time>
      </trkpt>
      <trkpt lat="43.46559" lon="1.21691">
        <ele>217.2</ele>
        <time>2024-08-01T08:49:00Z</time>
      </trkpt>
      <trkpt lat="43.46563" lon="1.21687">
        <ele>217.2</ele>
        <time>2024-08-01T08:49:01Z</time>
      </trkpt>
      <trkpt lat="43.46566" lon="1.21684">
        <ele>217.2</ele>
        <time>2024-08-01T08:49:02Z</time>
      </trkpt>
      <trkpt lat="43.4657" lon="1.21681">
        <ele>217.2</ele>
        <time>2024-08-01T08:49:03Z</time>
      </trkpt>
      <trkpt lat="43.46575" lon="1.21677">
        <ele>217.2</ele>
        <time>2024-08-01T08:49:04Z</time>
      </trkpt>
      <trkpt lat="43.46578" lon="1.21674">
        <ele>217.2</ele>
        <time>2024-08-01T08:49:05Z</time>
      </trkpt>
      <trkpt lat="43.46582" lon="1.2167">
        <ele>217</ele>
        <time>2024-08-01T08:49:06Z</time>
      </trkpt>
      <trkpt lat="43.46586" lon="1.21666">
        <ele>217</ele>
        <time>2024-08-01T08:49:07Z</time>
      </trkpt>
      <trkpt lat="43.46591" lon="1.21662">
        <ele>217</ele>
        <time>2024-08-01T08:49:08Z</time>
      </trkpt>
      <trkpt lat="43.46595" lon="1.21659">
        <ele>217</ele>
        <time>2024-08-01T08:49:09Z</time>
      </trkpt>
      <trkpt lat="43.466" lon="1.21656">
        <ele>216.8</ele>
        <time>2024-08-01T08:49:10Z</time>
      </trkpt>
      <trkpt lat="43.46604" lon="1.21654">
        <ele>216.8</ele>
        <time>2024-08-01T08:49:11Z</time>
      </trkpt>
      <trkpt lat="43.46607" lon="1.21653">
        <ele>216.8</ele>
        <time>2024-08-01T08:49:12Z</time>
      </trkpt>
      <trkpt lat="43.4661" lon="1.21652">
        <ele>216.8</ele>
        <time>2024-08-01T08:49:13Z</time>
      </trkpt>
      <trkpt lat="43.46612" lon="1.21651">
        <ele>216.8</ele>
        <time>2024-08-01T08:49:14Z</time>
      </trkpt>
      <trkpt lat="43.46614" lon="1.2165">
        <ele>216.8</ele>
        <time>2024-08-01T08:49:15Z</time>
      </trkpt>
      <trkpt lat="43.46615" lon="1.21649">
        <ele>216.6</ele>
        <time>2024-08-01T08:49:16Z</time>
      </trkpt>
      <trkpt lat="43.46617" lon="1.21648">
        <ele>216.6</ele>
        <time>2024-08-01T08:49:17Z</time>
      </trkpt>
      <trkpt lat="43.46618" lon="1.21647">
        <ele>216.6</ele>
        <time>2024-08-01T08:49:18Z</time>
      </trkpt>
      <trkpt lat="43.4662" lon="1.21646">
        <ele>216.6</ele>
        <time>2024-08-01T08:49:19Z</time>
      </trkpt>
      <trkpt lat="43.46623" lon="1.21644">
        <ele>216.6</ele>
        <time>2024-08-01T08:49:20Z</time>
      </trkpt>
      <trkpt lat="43.46626" lon="1.21643">
        <ele>216.6</ele>
        <time>2024-08-01T08:49:21Z</time>
      </trkpt>
      <trkpt lat="43.46629" lon="1.21641">
        <ele>216.6</ele>
        <time>2024-08-01T08:49:22Z</time>
      </trkpt>
      <trkpt lat="43.46633" lon="1.2164">
        <ele>216.6</ele>
        <time>2024-08-01T08:49:23Z</time>
      </trkpt>
      <trkpt lat="43.46637" lon="1.21638">
        <ele>216.6</ele>
        <time>2024-08-01T08:49:24Z</time>
      </trkpt>
      <trkpt lat="43.46642" lon="1.21637">
        <ele>216.4</ele>
        <time>2024-08-01T08:49:25Z</time>
      </trkpt>
      <trkpt lat="43.46647" lon="1.21635">
        <ele>216.4</ele>
        <time>2024-08-01T08:49:26Z</time>
      </trkpt>
      <trkpt lat="43.46652" lon="1.21633">
        <ele>216.4</ele>
        <time>2024-08-01T08:49:27Z</time>
      </trkpt>
      <trkpt lat="43.46657" lon="1.21631">
        <ele>216.4</ele>
        <time>2024-08-01T08:49:28Z</time>
      </trkpt>
      <trkpt lat="43.46661" lon="1.21628">
        <ele>216.4</ele>
        <time>2024-08-01T08:49:29Z</time>
      </trkpt>
      <trkpt lat="43.46666" lon="1.21626">
        <ele>216.4</ele>
        <time>2024-08-01T08:49:30Z</time>
      </trkpt>
      <trkpt lat="43.46672" lon="1.21624">
        <ele>216.4</ele>
        <time>2024-08-01T08:49:31Z</time>
      </trkpt>
      <trkpt lat="43.46677" lon="1.21623">
        <ele>216.4</ele>
        <time>2024-08-01T08:49:32Z</time>
      </trkpt>
      <trkpt lat="43.46682" lon="1.21623">
        <ele>216.4</ele>
        <time>2024-08-01T08:49:33Z</time>
      </trkpt>
      <trkpt lat="43.46688" lon="1.21622">
        <ele>216.4</ele>
        <time>2024-08-01T08:49:34Z</time>
      </trkpt>
      <trkpt lat="43.46693" lon="1.21623">
        <ele>216.4</ele>
        <time>2024-08-01T08:49:35Z</time>
      </trkpt>
      <trkpt lat="43.46698" lon="1.21623">
        <ele>216.4</ele>
        <time>2024-08-01T08:49:36Z</time>
      </trkpt>
      <trkpt lat="43.46703" lon="1.21623">
        <ele>216.4</ele>
        <time>2024-08-01T08:49:37Z</time>
      </trkpt>
      <trkpt lat="43.46709" lon="1.21623">
        <ele>216.4</ele>
        <time>2024-08-01T08:49:38Z</time>
      </trkpt>
      <trkpt lat="43.46714" lon="1.21623">
        <ele>216.4</ele>
        <time>2024-08-01T08:49:39Z</time>
      </trkpt>
      <trkpt lat="43.46719" lon="1.21623">
        <ele>216.4</ele>
        <time>2024-08-01T08:49:40Z</time>
      </trkpt>
      <trkpt lat="43.46724" lon="1.21623">
        <ele>216.4</ele>
        <time>2024-08-01T08:49:41Z</time>
      </trkpt>
      <trkpt lat="43.46729" lon="1.21623">
        <ele>216.4</ele>
        <time>2024-08-01T08:49:42Z</time>
      </trkpt>
      <trkpt lat="43.46734" lon="1.21623">
        <ele>216.4</ele>
        <time>2024-08-01T08:49:43Z</time>
      </trkpt>
      <trkpt lat="43.46739" lon="1.21624">
        <ele>216.6</ele>
        <time>2024-08-01T08:49:44Z</time>
      </trkpt>
      <trkpt lat="43.46744" lon="1.21624">
        <ele>216.6</ele>
        <time>2024-08-01T08:49:45Z</time>
      </trkpt>
      <trkpt lat="43.46749" lon="1.21624">
        <ele>216.6</ele>
        <time>2024-08-01T08:49:46Z</time>
      </trkpt>
      <trkpt lat="43.46754" lon="1.21624">
        <ele>216.6</ele>
        <time>2024-08-01T08:49:47Z</time>
      </trkpt>
      <trkpt lat="43.46759" lon="1.21624">
        <ele>216.6</ele>
        <time>2024-08-01T08:49:48Z</time>
      </trkpt>
      <trkpt lat="43.46764" lon="1.21624">
        <ele>216.6</ele>
        <time>2024-08-01T08:49:49Z</time>
      </trkpt>
      <trkpt lat="43.46769" lon="1.21624">
        <ele>216.6</ele>
        <time>2024-08-01T08:49:50Z</time>
      </trkpt>
      <trkpt lat="43.46773" lon="1.21625">
        <ele>216.6</ele>
        <time>2024-08-01T08:49:51Z</time>
      </trkpt>
      <trkpt lat="43.46778" lon="1.21625">
        <ele>216.6</ele>
        <time>2024-08-01T08:49:52Z</time>
      </trkpt>
      <trkpt lat="43.46783" lon="1.21625">
        <ele>216.6</ele>
        <time>2024-08-01T08:49:53Z</time>
      </trkpt>
      <trkpt lat="43.46787" lon="1.21625">
        <ele>216.8</ele>
        <time>2024-08-01T08:49:54Z</time>
      </trkpt>
      <trkpt lat="43.46792" lon="1.21626">
        <ele>216.8</ele>
        <time>2024-08-01T08:49:55Z</time>
      </trkpt>
      <trkpt lat="43.46796" lon="1.21626">
        <ele>216.8</ele>
        <time>2024-08-01T08:49:56Z</time>
      </trkpt>
      <trkpt lat="43.468" lon="1.21626">
        <ele>216.8</ele>
        <time>2024-08-01T08:49:57Z</time>
      </trkpt>
      <trkpt lat="43.46804" lon="1.21626">
        <ele>216.8</ele>
        <time>2024-08-01T08:49:58Z</time>
      </trkpt>
      <trkpt lat="43.46808" lon="1.21626">
        <ele>216.8</ele>
        <time>2024-08-01T08:49:59Z</time>
      </trkpt>
      <trkpt lat="43.46812" lon="1.21628">
        <ele>216.8</ele>
        <time>2024-08-01T08:50:00Z</time>
      </trkpt>
      <trkpt lat="43.46815" lon="1.21631">
        <ele>217</ele>
        <time>2024-08-01T08:50:01Z</time>
      </trkpt>
      <trkpt lat="43.46818" lon="1.21636">
        <ele>217</ele>
        <time>2024-08-01T08:50:02Z</time>
      </trkpt>
      <trkpt lat="43.46819" lon="1.21642">
        <ele>216.8</ele>
        <time>2024-08-01T08:50:03Z</time>
      </trkpt>
      <trkpt lat="43.46821" lon="1.21649">
        <ele>216.8</ele>
        <time>2024-08-01T08:50:04Z</time>
      </trkpt>
      <trkpt lat="43.46822" lon="1.21657">
        <ele>216.8</ele>
        <time>2024-08-01T08:50:05Z</time>
      </trkpt>
      <trkpt lat="43.46822" lon="1.21665">
        <ele>216.8</ele>
        <time>2024-08-01T08:50:06Z</time>
      </trkpt>
      <trkpt lat="43.46823" lon="1.21674">
        <ele>216.6</ele>
        <time>2024-08-01T08:50:07Z</time>
      </trkpt>
      <trkpt lat="43.46824" lon="1.21682">
        <ele>216.6</ele>
        <time>2024-08-01T08:50:08Z</time>
      </trkpt>
      <trkpt lat="43.46825" lon="1.21691">
        <ele>216.4</ele>
        <time>2024-08-01T08:50:09Z</time>
      </trkpt>
      <trkpt lat="43.46826" lon="1.217">
        <ele>216.2</ele>
        <time>2024-08-01T08:50:10Z</time>
      </trkpt>
      <trkpt lat="43.46827" lon="1.2171">
        <ele>216</ele>
        <time>2024-08-01T08:50:11Z</time>
      </trkpt>
      <trkpt lat="43.46828" lon="1.2172">
        <ele>215.6</ele>
        <time>2024-08-01T08:50:12Z</time>
      </trkpt>
      <trkpt lat="43.4683" lon="1.2173">
        <ele>215.4</ele>
        <time>2024-08-01T08:50:13Z</time>
      </trkpt>
      <trkpt lat="43.46831" lon="1.21741">
        <ele>215</ele>
        <time>2024-08-01T08:50:14Z</time>
      </trkpt>
      <trkpt lat="43.46832" lon="1.21752">
        <ele>214.4</ele>
        <time>2024-08-01T08:50:15Z</time>
      </trkpt>
      <trkpt lat="43.46834" lon="1.21765">
        <ele>214.2</ele>
        <time>2024-08-01T08:50:16Z</time>
      </trkpt>
      <trkpt lat="43.46835" lon="1.21779">
        <ele>213.6</ele>
        <time>2024-08-01T08:50:17Z</time>
      </trkpt>
      <trkpt lat="43.46836" lon="1.21793">
        <ele>213.4</ele>
        <time>2024-08-01T08:50:18Z</time>
      </trkpt>
      <trkpt lat="43.46837" lon="1.21809">
        <ele>213</ele>
        <time>2024-08-01T08:50:19Z</time>
      </trkpt>
      <trkpt lat="43.46839" lon="1.21825">
        <ele>212.4</ele>
        <time>2024-08-01T08:50:20Z</time>
      </trkpt>
      <trkpt lat="43.46841" lon="1.21841">
        <ele>211.6</ele>
        <time>2024-08-01T08:50:21Z</time>
      </trkpt>
      <trkpt lat="43.46842" lon="1.21858">
        <ele>210.6</ele>
        <time>2024-08-01T08:50:22Z</time>
      </trkpt>
      <trkpt lat="43.46844" lon="1.21876">
        <ele>210</ele>
        <time>2024-08-01T08:50:23Z</time>
      </trkpt>
      <trkpt lat="43.46847" lon="1.21894">
        <ele>208.6</ele>
        <time>2024-08-01T08:50:24Z</time>
      </trkpt>
      <trkpt lat="43.46849" lon="1.21913">
        <ele>208</ele>
        <time>2024-08-01T08:50:25Z</time>
      </trkpt>
      <trkpt lat="43.46851" lon="1.21932">
        <ele>206.8</ele>
        <time>2024-08-01T08:50:26Z</time>
      </trkpt>
      <trkpt lat="43.46853" lon="1.21951">
        <ele>206.4</ele>
        <time>2024-08-01T08:50:27Z</time>
      </trkpt>
      <trkpt lat="43.46855" lon="1.2197">
        <ele>204.8</ele>
        <time>2024-08-01T08:50:28Z</time>
      </trkpt>
      <trkpt lat="43.46857" lon="1.2199">
        <ele>203.4</ele>
        <time>2024-08-01T08:50:29Z</time>
      </trkpt>
      <trkpt lat="43.4686" lon="1.2201">
        <ele>202.6</ele>
        <time>2024-08-01T08:50:30Z</time>
      </trkpt>
      <trkpt lat="43.46862" lon="1.2203">
        <ele>201</ele>
        <time>2024-08-01T08:50:31Z</time>
      </trkpt>
      <trkpt lat="43.46864" lon="1.2205">
        <ele>200.4</ele>
        <time>2024-08-01T08:50:32Z</time>
      </trkpt>
      <trkpt lat="43.46866" lon="1.2207">
        <ele>198.8</ele>
        <time>2024-08-01T08:50:33Z</time>
      </trkpt>
      <trkpt lat="43.46869" lon="1.2209">
        <ele>198</ele>
        <time>2024-08-01T08:50:34Z</time>
      </trkpt>
      <trkpt lat="43.46871" lon="1.22109">
        <ele>196.8</ele>
        <time>2024-08-01T08:50:35Z</time>
      </trkpt>
      <trkpt lat="43.46873" lon="1.22129">
        <ele>195.6</ele>
        <time>2024-08-01T08:50:36Z</time>
      </trkpt>
      <trkpt lat="43.46875" lon="1.22148">
        <ele>195</ele>
        <time>2024-08-01T08:50:37Z</time>
      </trkpt>
      <trkpt lat="43.46878" lon="1.22166">
        <ele>194.2</ele>
        <time>2024-08-01T08:50:38Z</time>
      </trkpt>
      <trkpt lat="43.4688" lon="1.22183">
        <ele>193.6</ele>
        <time>2024-08-01T08:50:39Z</time>
      </trkpt>
      <trkpt lat="43.46881" lon="1.22201">
        <ele>193.4</ele>
        <time>2024-08-01T08:50:40Z</time>
      </trkpt>
      <trkpt lat="43.46883" lon="1.22217">
        <ele>193.2</ele>
        <time>2024-08-01T08:50:41Z</time>
      </trkpt>
      <trkpt lat="43.46883" lon="1.22233">
        <ele>193</ele>
        <time>2024-08-01T08:50:42Z</time>
      </trkpt>
      <trkpt lat="43.46883" lon="1.22248">
        <ele>192.8</ele>
        <time>2024-08-01T08:50:43Z</time>
      </trkpt>
      <trkpt lat="43.46882" lon="1.22263">
        <ele>192.8</ele>
        <time>2024-08-01T08:50:44Z</time>
      </trkpt>
      <trkpt lat="43.46881" lon="1.22277">
        <ele>192.8</ele>
        <time>2024-08-01T08:50:45Z</time>
      </trkpt>
      <trkpt lat="43.4688" lon="1.22291">
        <ele>193</ele>
        <time>2024-08-01T08:50:46Z</time>
      </trkpt>
      <trkpt lat="43.46878" lon="1.22305">
        <ele>193.2</ele>
        <time>2024-08-01T08:50:47Z</time>
      </trkpt>
      <trkpt lat="43.46877" lon="1.22319">
        <ele>193.4</ele>
        <time>2024-08-01T08:50:48Z</time>
      </trkpt>
      <trkpt lat="43.46876" lon="1.22333">
        <ele>193.6</ele>
        <time>2024-08-01T08:50:49Z</time>
      </trkpt>
      <trkpt lat="43.46874" lon="1.22347">
        <ele>193.8</ele>
        <time>2024-08-01T08:50:50Z</time>
      </trkpt>
      <trkpt lat="43.46873" lon="1.22361">
        <ele>193.8</ele>
        <time>2024-08-01T08:50:51Z</time>
      </trkpt>
      <trkpt lat="43.46872" lon="1.22375">
        <ele>193.8</ele>
        <time>2024-08-01T08:50:52Z</time>
      </trkpt>
      <trkpt lat="43.46871" lon="1.2239">
        <ele>193.8</ele>
        <time>2024-08-01T08:50:53Z</time>
      </trkpt>
      <trkpt lat="43.4687" lon="1.22404">
        <ele>194</ele>
        <time>2024-08-01T08:50:54Z</time>
      </trkpt>
      <trkpt lat="43.46868" lon="1.22419">
        <ele>193.8</ele>
        <time>2024-08-01T08:50:55Z</time>
      </trkpt>
      <trkpt lat="43.46867" lon="1.22434">
        <ele>193.6</ele>
        <time>2024-08-01T08:50:56Z</time>
      </trkpt>
      <trkpt lat="43.46866" lon="1.22448">
        <ele>193.2</ele>
        <time>2024-08-01T08:50:57Z</time>
      </trkpt>
      <trkpt lat="43.46865" lon="1.22462">
        <ele>193</ele>
        <time>2024-08-01T08:50:58Z</time>
      </trkpt>
      <trkpt lat="43.46864" lon="1.22476">
        <ele>192.8</ele>
        <time>2024-08-01T08:50:59Z</time>
      </trkpt>
      <trkpt lat="43.46863" lon="1.2249">
        <ele>192.6</ele>
        <time>2024-08-01T08:51:00Z</time>
      </trkpt>
      <trkpt lat="43.46862" lon="1.22503">
        <ele>192.4</ele>
        <time>2024-08-01T08:51:01Z</time>
      </trkpt>
      <trkpt lat="43.46862" lon="1.22516">
        <ele>192.2</ele>
        <time>2024-08-01T08:51:02Z</time>
      </trkpt>
      <trkpt lat="43.46861" lon="1.22528">
        <ele>192</ele>
        <time>2024-08-01T08:51:03Z</time>
      </trkpt>
      <trkpt lat="43.4686" lon="1.2254">
        <ele>191.6</ele>
        <time>2024-08-01T08:51:04Z</time>
      </trkpt>
      <trkpt lat="43.46859" lon="1.22552">
        <ele>191.4</ele>
        <time>2024-08-01T08:51:05Z</time>
      </trkpt>
      <trkpt lat="43.46858" lon="1.22564">
        <ele>191.2</ele>
        <time>2024-08-01T08:51:06Z</time>
      </trkpt>
      <trkpt lat="43.46858" lon="1.22576">
        <ele>191</ele>
        <time>2024-08-01T08:51:07Z</time>
      </trkpt>
      <trkpt lat="43.46857" lon="1.22588">
        <ele>191</ele>
        <time>2024-08-01T08:51:08Z</time>
      </trkpt>
      <trkpt lat="43.46856" lon="1.226">
        <ele>190.8</ele>
        <time>2024-08-01T08:51:09Z</time>
      </trkpt>
      <trkpt lat="43.46856" lon="1.22612">
        <ele>190.8</ele>
        <time>2024-08-01T08:51:10Z</time>
      </trkpt>
      <trkpt lat="43.46855" lon="1.22624">
        <ele>190.8</ele>
        <time>2024-08-01T08:51:11Z</time>
      </trkpt>
      <trkpt lat="43.46854" lon="1.22636">
        <ele>190.8</ele>
        <time>2024-08-01T08:51:12Z</time>
      </trkpt>
      <trkpt lat="43.46853" lon="1.22648">
        <ele>190.8</ele>
        <time>2024-08-01T08:51:13Z</time>
      </trkpt>
      <trkpt lat="43.46852" lon="1.2266">
        <ele>190.8</ele>
        <time>2024-08-01T08:51:14Z</time>
      </trkpt>
      <trkpt lat="43.46852" lon="1.22671">
        <ele>190.8</ele>
        <time>2024-08-01T08:51:15Z</time>
      </trkpt>
      <trkpt lat="43.46851" lon="1.22683">
        <ele>190.6</ele>
        <time>2024-08-01T08:51:16Z</time>
      </trkpt>
      <trkpt lat="43.4685" lon="1.22694">
        <ele>190.6</ele>
        <time>2024-08-01T08:51:17Z</time>
      </trkpt>
      <trkpt lat="43.46849" lon="1.22705">
        <ele>190.6</ele>
        <time>2024-08-01T08:51:18Z</time>
      </trkpt>
      <trkpt lat="43.46849" lon="1.22717">
        <ele>190.6</ele>
        <time>2024-08-01T08:51:19Z</time>
      </trkpt>
      <trkpt lat="43.46848" lon="1.22728">
        <ele>190.6</ele>
        <time>2024-08-01T08:51:20Z</time>
      </trkpt>
      <trkpt lat="43.46847" lon="1.2274">
        <ele>190.6</ele>
        <time>2024-08-01T08:51:21Z</time>
      </trkpt>
      <trkpt lat="43.46846" lon="1.22751">
        <ele>190.6</ele>
        <time>2024-08-01T08:51:22Z</time>
      </trkpt>
      <trkpt lat="43.46846" lon="1.22763">
        <ele>190.6</ele>
        <time>2024-08-01T08:51:23Z</time>
      </trkpt>
      <trkpt lat="43.46845" lon="1.22774">
        <ele>190.6</ele>
        <time>2024-08-01T08:51:24Z</time>
      </trkpt>
      <trkpt lat="43.46844" lon="1.22786">
        <ele>190.6</ele>
        <time>2024-08-01T08:51:25Z</time>
      </trkpt>
      <trkpt lat="43.46844" lon="1.22797">
        <ele>190.6</ele>
        <time>2024-08-01T08:51:26Z</time>
      </trkpt>
      <trkpt lat="43.46843" lon="1.22808">
        <ele>190.6</ele>
        <time>2024-08-01T08:51:27Z</time>
      </trkpt>
      <trkpt lat="43.46842" lon="1.22819">
        <ele>190.6</ele>
        <time>2024-08-01T08:51:28Z</time>
      </trkpt>
      <trkpt lat="43.46842" lon="1.2283">
        <ele>190.6</ele>
        <time>2024-08-01T08:51:29Z</time>
      </trkpt>
      <trkpt lat="43.46841" lon="1.22841">
        <ele>190.4</ele>
        <time>2024-08-01T08:51:30Z</time>
      </trkpt>
      <trkpt lat="43.46841" lon="1.22852">
        <ele>190.4</ele>
        <time>2024-08-01T08:51:31Z</time>
      </trkpt>
      <trkpt lat="43.4684" lon="1.22863">
        <ele>190.4</ele>
        <time>2024-08-01T08:51:32Z</time>
      </trkpt>
      <trkpt lat="43.4684" lon="1.22874">
        <ele>190.4</ele>
        <time>2024-08-01T08:51:33Z</time>
      </trkpt>
      <trkpt lat="43.46839" lon="1.22886">
        <ele>190.4</ele>
        <time>2024-08-01T08:51:34Z</time>
      </trkpt>
      <trkpt lat="43.46838" lon="1.22897">
        <ele>190.4</ele>
        <time>2024-08-01T08:51:35Z</time>
      </trkpt>
      <trkpt lat="43.46838" lon="1.22908">
        <ele>190.4</ele>
        <time>2024-08-01T08:51:36Z</time>
      </trkpt>
      <trkpt lat="43.46837" lon="1.22919">
        <ele>190.4</ele>
        <time>2024-08-01T08:51:37Z</time>
      </trkpt>
      <trkpt lat="43.46836" lon="1.2293">
        <ele>190.4</ele>
        <time>2024-08-01T08:51:38Z</time>
      </trkpt>
      <trkpt lat="43.46835" lon="1.22942">
        <ele>190.4</ele>
        <time>2024-08-01T08:51:39Z</time>
      </trkpt>
      <trkpt lat="43.46835" lon="1.22954">
        <ele>190.4</ele>
        <time>2024-08-01T08:51:40Z</time>
      </trkpt>
      <trkpt lat="43.46834" lon="1.22966">
        <ele>190.6</ele>
        <time>2024-08-01T08:51:41Z</time>
      </trkpt>
      <trkpt lat="43.46834" lon="1.22977">
        <ele>190.6</ele>
        <time>2024-08-01T08:51:42Z</time>
      </trkpt>
      <trkpt lat="43.46833" lon="1.22989">
        <ele>190.4</ele>
        <time>2024-08-01T08:51:43Z</time>
      </trkpt>
      <trkpt lat="43.46832" lon="1.23001">
        <ele>190.4</ele>
        <time>2024-08-01T08:51:44Z</time>
      </trkpt>
      <trkpt lat="43.46831" lon="1.23013">
        <ele>190.6</ele>
        <time>2024-08-01T08:51:45Z</time>
      </trkpt>
      <trkpt lat="43.4683" lon="1.23025">
        <ele>190.6</ele>
        <time>2024-08-01T08:51:46Z</time>
      </trkpt>
      <trkpt lat="43.4683" lon="1.23037">
        <ele>190.6</ele>
        <time>2024-08-01T08:51:47Z</time>
      </trkpt>
      <trkpt lat="43.46829" lon="1.23048">
        <ele>190.4</ele>
        <time>2024-08-01T08:51:48Z</time>
      </trkpt>
      <trkpt lat="43.46828" lon="1.23061">
        <ele>190.4</ele>
        <time>2024-08-01T08:51:49Z</time>
      </trkpt>
      <trkpt lat="43.46828" lon="1.23073">
        <ele>190.4</ele>
        <time>2024-08-01T08:51:50Z</time>
      </trkpt>
      <trkpt lat="43.46827" lon="1.23085">
        <ele>190.4</ele>
        <time>2024-08-01T08:51:51Z</time>
      </trkpt>
      <trkpt lat="43.46826" lon="1.23097">
        <ele>190.4</ele>
        <time>2024-08-01T08:51:52Z</time>
      </trkpt>
      <trkpt lat="43.46825" lon="1.23109">
        <ele>190.4</ele>
        <time>2024-08-01T08:51:53Z</time>
      </trkpt>
      <trkpt lat="43.46824" lon="1.23122">
        <ele>190.6</ele>
        <time>2024-08-01T08:51:54Z</time>
      </trkpt>
      <trkpt lat="43.46824" lon="1.23134">
        <ele>190.8</ele>
        <time>2024-08-01T08:51:55Z</time>
      </trkpt>
      <trkpt lat="43.46823" lon="1.23146">
        <ele>190.8</ele>
        <time>2024-08-01T08:51:56Z</time>
      </trkpt>
      <trkpt lat="43.46823" lon="1.23158">
        <ele>190.8</ele>
        <time>2024-08-01T08:51:57Z</time>
      </trkpt>
      <trkpt lat="43.46822" lon="1.2317">
        <ele>190.8</ele>
        <time>2024-08-01T08:51:58Z</time>
      </trkpt>
      <trkpt lat="43.46821" lon="1.23181">
        <ele>190.8</ele>
        <time>2024-08-01T08:51:59Z</time>
      </trkpt>
      <trkpt lat="43.4682" lon="1.23193">
        <ele>190.8</ele>
        <time>2024-08-01T08:52:00Z</time>
      </trkpt>
      <trkpt lat="43.46819" lon="1.23204">
        <ele>190.8</ele>
        <time>2024-08-01T08:52:01Z</time>
      </trkpt>
      <trkpt lat="43.46819" lon="1.23216">
        <ele>190.8</ele>
        <time>2024-08-01T08:52:02Z</time>
      </trkpt>
      <trkpt lat="43.46818" lon="1.23227">
        <ele>190.8</ele>
        <time>2024-08-01T08:52:03Z</time>
      </trkpt>
      <trkpt lat="43.46817" lon="1.23239">
        <ele>190.8</ele>
        <time>2024-08-01T08:52:04Z</time>
      </trkpt>
      <trkpt lat="43.46817" lon="1.23251">
        <ele>190.8</ele>
        <time>2024-08-01T08:52:05Z</time>
      </trkpt>
      <trkpt lat="43.46816" lon="1.23262">
        <ele>190.8</ele>
        <time>2024-08-01T08:52:06Z</time>
      </trkpt>
      <trkpt lat="43.46815" lon="1.23274">
        <ele>190.8</ele>
        <time>2024-08-01T08:52:07Z</time>
      </trkpt>
      <trkpt lat="43.46815" lon="1.23286">
        <ele>190.8</ele>
        <time>2024-08-01T08:52:08Z</time>
      </trkpt>
      <trkpt lat="43.46814" lon="1.23297">
        <ele>190.8</ele>
        <time>2024-08-01T08:52:09Z</time>
      </trkpt>
      <trkpt lat="43.46814" lon="1.23308">
        <ele>190.8</ele>
        <time>2024-08-01T08:52:10Z</time>
      </trkpt>
      <trkpt lat="43.46813" lon="1.23319">
        <ele>190.8</ele>
        <time>2024-08-01T08:52:11Z</time>
      </trkpt>
      <trkpt lat="43.46813" lon="1.2333">
        <ele>190.8</ele>
        <time>2024-08-01T08:52:12Z</time>
      </trkpt>
      <trkpt lat="43.46812" lon="1.23341">
        <ele>190.8</ele>
        <time>2024-08-01T08:52:13Z</time>
      </trkpt>
      <trkpt lat="43.46811" lon="1.23352">
        <ele>190.8</ele>
        <time>2024-08-01T08:52:14Z</time>
      </trkpt>
      <trkpt lat="43.46811" lon="1.23362">
        <ele>190.8</ele>
        <time>2024-08-01T08:52:15Z</time>
      </trkpt>
      <trkpt lat="43.4681" lon="1.23372">
        <ele>190.8</ele>
        <time>2024-08-01T08:52:16Z</time>
      </trkpt>
      <trkpt lat="43.46809" lon="1.23382">
        <ele>190.8</ele>
        <time>2024-08-01T08:52:17Z</time>
      </trkpt>
      <trkpt lat="43.46809" lon="1.2339">
        <ele>190.8</ele>
        <time>2024-08-01T08:52:18Z</time>
      </trkpt>
      <trkpt lat="43.46808" lon="1.23398">
        <ele>190.8</ele>
        <time>2024-08-01T08:52:19Z</time>
      </trkpt>
      <trkpt lat="43.46807" lon="1.23404">
        <ele>190.8</ele>
        <time>2024-08-01T08:52:20Z</time>
      </trkpt>
      <trkpt lat="43.46807" lon="1.23411">
        <ele>190.8</ele>
        <time>2024-08-01T08:52:21Z</time>
      </trkpt>
      <trkpt lat="43.46807" lon="1.23418">
        <ele>190.8</ele>
        <time>2024-08-01T08:52:22Z</time>
      </trkpt>
      <trkpt lat="43.46806" lon="1.23424">
        <ele>190.8</ele>
        <time>2024-08-01T08:52:23Z</time>
      </trkpt>
      <trkpt lat="43.46806" lon="1.2343">
        <ele>190.8</ele>
        <time>2024-08-01T08:52:24Z</time>
      </trkpt>
      <trkpt lat="43.46805" lon="1.23435">
        <ele>190.8</ele>
        <time>2024-08-01T08:52:25Z</time>
      </trkpt>
      <trkpt lat="43.46805" lon="1.2344">
        <ele>190.8</ele>
        <time>2024-08-01T08:52:26Z</time>
      </trkpt>
      <trkpt lat="43.46805" lon="1.23444">
        <ele>190.8</ele>
        <time>2024-08-01T08:52:27Z</time>
      </trkpt>
      <trkpt lat="43.46805" lon="1.23448">
        <ele>190.8</ele>
        <time>2024-08-01T08:52:28Z</time>
      </trkpt>
      <trkpt lat="43.46806" lon="1.23453">
        <ele>190.8</ele>
        <time>2024-08-01T08:52:29Z</time>
      </trkpt>
      <trkpt lat="43.46808" lon="1.23457">
        <ele>190.8</ele>
        <time>2024-08-01T08:52:30Z</time>
      </trkpt>
      <trkpt lat="43.46812" lon="1.2346">
        <ele>190.8</ele>
        <time>2024-08-01T08:52:31Z</time>
      </trkpt>
      <trkpt lat="43.46817" lon="1.23463">
        <ele>190.8</ele>
        <time>2024-08-01T08:52:32Z</time>
      </trkpt>
      <trkpt lat="43.46822" lon="1.23465">
        <ele>190.8</ele>
        <time>2024-08-01T08:52:33Z</time>
      </trkpt>
      <trkpt lat="43.46828" lon="1.23467">
        <ele>190.8</ele>
        <time>2024-08-01T08:52:34Z</time>
      </trkpt>
      <trkpt lat="43.46833" lon="1.2347">
        <ele>190.8</ele>
        <time>2024-08-01T08:52:35Z</time>
      </trkpt>
      <trkpt lat="43.46839" lon="1.23472">
        <ele>190.8</ele>
        <time>2024-08-01T08:52:36Z</time>
      </trkpt>
      <trkpt lat="43.46845" lon="1.23474">
        <ele>190.8</ele>
        <time>2024-08-01T08:52:37Z</time>
      </trkpt>
      <trkpt lat="43.46851" lon="1.23477">
        <ele>190.8</ele>
        <time>2024-08-01T08:52:38Z</time>
      </trkpt>
      <trkpt lat="43.46856" lon="1.23479">
        <ele>190.8</ele>
        <time>2024-08-01T08:52:39Z</time>
      </trkpt>
      <trkpt lat="43.46862" lon="1.23481">
        <ele>190.8</ele>
        <time>2024-08-01T08:52:40Z</time>
      </trkpt>
      <trkpt lat="43.46867" lon="1.23483">
        <ele>190.8</ele>
        <time>2024-08-01T08:52:41Z</time>
      </trkpt>
      <trkpt lat="43.46873" lon="1.23485">
        <ele>190.6</ele>
        <time>2024-08-01T08:52:42Z</time>
      </trkpt>
      <trkpt lat="43.46879" lon="1.23487">
        <ele>190.6</ele>
        <time>2024-08-01T08:52:43Z</time>
      </trkpt>
      <trkpt lat="43.46885" lon="1.2349">
        <ele>190.6</ele>
        <time>2024-08-01T08:52:44Z</time>
      </trkpt>
      <trkpt lat="43.46891" lon="1.23492">
        <ele>190.6</ele>
        <time>2024-08-01T08:52:45Z</time>
      </trkpt>
      <trkpt lat="43.46896" lon="1.23494">
        <ele>190.6</ele>
        <time>2024-08-01T08:52:46Z</time>
      </trkpt>
      <trkpt lat="43.46901" lon="1.23496">
        <ele>190.6</ele>
        <time>2024-08-01T08:52:47Z</time>
      </trkpt>
      <trkpt lat="43.46908" lon="1.23498">
        <ele>190.4</ele>
        <time>2024-08-01T08:52:48Z</time>
      </trkpt>
      <trkpt lat="43.46914" lon="1.23501">
        <ele>190.4</ele>
        <time>2024-08-01T08:52:49Z</time>
      </trkpt>
      <trkpt lat="43.4692" lon="1.23503">
        <ele>190.4</ele>
        <time>2024-08-01T08:52:50Z</time>
      </trkpt>
      <trkpt lat="43.46926" lon="1.23506">
        <ele>190.4</ele>
        <time>2024-08-01T08:52:51Z</time>
      </trkpt>
      <trkpt lat="43.46933" lon="1.23508">
        <ele>190.4</ele>
        <time>2024-08-01T08:52:52Z</time>
      </trkpt>
      <trkpt lat="43.46939" lon="1.23511">
        <ele>190.4</ele>
        <time>2024-08-01T08:52:53Z</time>
      </trkpt>
      <trkpt lat="43.46946" lon="1.23513">
        <ele>190.4</ele>
        <time>2024-08-01T08:52:54Z</time>
      </trkpt>
      <trkpt lat="43.46952" lon="1.23516">
        <ele>190.4</ele>
        <time>2024-08-01T08:52:55Z</time>
      </trkpt>
      <trkpt lat="43.46958" lon="1.23518">
        <ele>190.4</ele>
        <time>2024-08-01T08:52:56Z</time>
      </trkpt>
      <trkpt lat="43.46965" lon="1.23521">
        <ele>190.2</ele>
        <time>2024-08-01T08:52:57Z</time>
      </trkpt>
      <trkpt lat="43.46971" lon="1.23524">
        <ele>190.2</ele>
        <time>2024-08-01T08:52:58Z</time>
      </trkpt>
      <trkpt lat="43.46978" lon="1.23526">
        <ele>190</ele>
        <time>2024-08-01T08:52:59Z</time>
      </trkpt>
      <trkpt lat="43.46984" lon="1.23529">
        <ele>190</ele>
        <time>2024-08-01T08:53:00Z</time>
      </trkpt>
      <trkpt lat="43.46991" lon="1.23532">
        <ele>190</ele>
        <time>2024-08-01T08:53:01Z</time>
      </trkpt>
      <trkpt lat="43.46998" lon="1.23534">
        <ele>189.8</ele>
        <time>2024-08-01T08:53:02Z</time>
      </trkpt>
      <trkpt lat="43.47004" lon="1.23537">
        <ele>189.8</ele>
        <time>2024-08-01T08:53:03Z</time>
      </trkpt>
      <trkpt lat="43.47011" lon="1.2354">
        <ele>189.8</ele>
        <time>2024-08-01T08:53:04Z</time>
      </trkpt>
      <trkpt lat="43.47018" lon="1.23543">
        <ele>189.8</ele>
        <time>2024-08-01T08:53:05Z</time>
      </trkpt>
      <trkpt lat="43.47025" lon="1.23546">
        <ele>189.8</ele>
        <time>2024-08-01T08:53:06Z</time>
      </trkpt>
      <trkpt lat="43.47032" lon="1.23548">
        <ele>189.8</ele>
        <time>2024-08-01T08:53:07Z</time>
      </trkpt>
      <trkpt lat="43.47039" lon="1.23551">
        <ele>189.8</ele>
        <time>2024-08-01T08:53:08Z</time>
      </trkpt>
      <trkpt lat="43.47046" lon="1.23554">
        <ele>189.8</ele>
        <time>2024-08-01T08:53:09Z</time>
      </trkpt>
      <trkpt lat="43.47052" lon="1.23557">
        <ele>189.8</ele>
        <time>2024-08-01T08:53:10Z</time>
      </trkpt>
      <trkpt lat="43.47059" lon="1.23559">
        <ele>189.8</ele>
        <time>2024-08-01T08:53:11Z</time>
      </trkpt>
      <trkpt lat="43.47066" lon="1.23562">
        <ele>189.8</ele>
        <time>2024-08-01T08:53:12Z</time>
      </trkpt>
      <trkpt lat="43.47073" lon="1.23565">
        <ele>189.8</ele>
        <time>2024-08-01T08:53:13Z</time>
      </trkpt>
      <trkpt lat="43.4708" lon="1.23567">
        <ele>189.8</ele>
        <time>2024-08-01T08:53:14Z</time>
      </trkpt>
      <trkpt lat="43.47087" lon="1.23569">
        <ele>189.8</ele>
        <time>2024-08-01T08:53:15Z</time>
      </trkpt>
      <trkpt lat="43.47094" lon="1.23572">
        <ele>189.8</ele>
        <time>2024-08-01T08:53:16Z</time>
      </trkpt>
      <trkpt lat="43.47101" lon="1.23575">
        <ele>189.8</ele>
        <time>2024-08-01T08:53:17Z</time>
      </trkpt>
      <trkpt lat="43.47108" lon="1.23578">
        <ele>189.8</ele>
        <time>2024-08-01T08:53:18Z</time>
      </trkpt>
      <trkpt lat="43.47115" lon="1.23582">
        <ele>189.8</ele>
        <time>2024-08-01T08:53:19Z</time>
      </trkpt>
      <trkpt lat="43.47122" lon="1.23586">
        <ele>189.6</ele>
        <time>2024-08-01T08:53:20Z</time>
      </trkpt>
      <trkpt lat="43.47129" lon="1.2359">
        <ele>189.6</ele>
        <time>2024-08-01T08:53:21Z</time>
      </trkpt>
      <trkpt lat="43.47136" lon="1.23595">
        <ele>189.6</ele>
        <time>2024-08-01T08:53:22Z</time>
      </trkpt>
      <trkpt lat="43.47142" lon="1.23599">
        <ele>189.6</ele>
        <time>2024-08-01T08:53:23Z</time>
      </trkpt>
      <trkpt lat="43.47148" lon="1.23603">
        <ele>189.6</ele>
        <time>2024-08-01T08:53:24Z</time>
      </trkpt>
      <trkpt lat="43.47154" lon="1.23607">
        <ele>189.6</ele>
        <time>2024-08-01T08:53:25Z</time>
      </trkpt>
      <trkpt lat="43.47161" lon="1.23612">
        <ele>189.6</ele>
        <time>2024-08-01T08:53:26Z</time>
      </trkpt>
      <trkpt lat="43.47168" lon="1.23616">
        <ele>189.4</ele>
        <time>2024-08-01T08:53:27Z</time>
      </trkpt>
      <trkpt lat="43.47175" lon="1.2362">
        <ele>189.4</ele>
        <time>2024-08-01T08:53:28Z</time>
      </trkpt>
      <trkpt lat="43.47183" lon="1.23624">
        <ele>189.2</ele>
        <time>2024-08-01T08:53:29Z</time>
      </trkpt>
      <trkpt lat="43.4719" lon="1.23628">
        <ele>189.2</ele>
        <time>2024-08-01T08:53:30Z</time>
      </trkpt>
      <trkpt lat="43.47197" lon="1.23631">
        <ele>189.2</ele>
        <time>2024-08-01T08:53:31Z</time>
      </trkpt>
      <trkpt lat="43.47205" lon="1.23634">
        <ele>189.6</ele>
        <time>2024-08-01T08:53:32Z</time>
      </trkpt>
      <trkpt lat="43.47212" lon="1.23638">
        <ele>189.6</ele>
        <time>2024-08-01T08:53:33Z</time>
      </trkpt>
      <trkpt lat="43.4722" lon="1.23641">
        <ele>189.6</ele>
        <time>2024-08-01T08:53:34Z</time>
      </trkpt>
      <trkpt lat="43.47227" lon="1.23645">
        <ele>189.6</ele>
        <time>2024-08-01T08:53:35Z</time>
      </trkpt>
      <trkpt lat="43.47235" lon="1.23648">
        <ele>189.6</ele>
        <time>2024-08-01T08:53:36Z</time>
      </trkpt>
      <trkpt lat="43.47242" lon="1.23651">
        <ele>189.6</ele>
        <time>2024-08-01T08:53:37Z</time>
      </trkpt>
      <trkpt lat="43.4725" lon="1.23654">
        <ele>189.4</ele>
        <time>2024-08-01T08:53:38Z</time>
      </trkpt>
      <trkpt lat="43.47257" lon="1.23657">
        <ele>189.6</ele>
        <time>2024-08-01T08:53:39Z</time>
      </trkpt>
      <trkpt lat="43.47265" lon="1.23661">
        <ele>189.6</ele>
        <time>2024-08-01T08:53:40Z</time>
      </trkpt>
      <trkpt lat="43.47272" lon="1.23664">
        <ele>189.6</ele>
        <time>2024-08-01T08:53:41Z</time>
      </trkpt>
      <trkpt lat="43.4728" lon="1.23667">
        <ele>189.8</ele>
        <time>2024-08-01T08:53:42Z</time>
      </trkpt>
      <trkpt lat="43.47287" lon="1.2367">
        <ele>189.4</ele>
        <time>2024-08-01T08:53:43Z</time>
      </trkpt>
      <trkpt lat="43.47295" lon="1.23673">
        <ele>189.2</ele>
        <time>2024-08-01T08:53:44Z</time>
      </trkpt>
      <trkpt lat="43.47302" lon="1.23677">
        <ele>189</ele>
        <time>2024-08-01T08:53:45Z</time>
      </trkpt>
      <trkpt lat="43.4731" lon="1.2368">
        <ele>188.8</ele>
        <time>2024-08-01T08:53:46Z</time>
      </trkpt>
      <trkpt lat="43.47318" lon="1.23683">
        <ele>188.8</ele>
        <time>2024-08-01T08:53:47Z</time>
      </trkpt>
      <trkpt lat="43.47326" lon="1.23686">
        <ele>188.6</ele>
        <time>2024-08-01T08:53:48Z</time>
      </trkpt>
      <trkpt lat="43.47334" lon="1.23689">
        <ele>188.6</ele>
        <time>2024-08-01T08:53:49Z</time>
      </trkpt>
      <trkpt lat="43.47342" lon="1.23692">
        <ele>188.6</ele>
        <time>2024-08-01T08:53:50Z</time>
      </trkpt>
      <trkpt lat="43.4735" lon="1.23694">
        <ele>188.6</ele>
        <time>2024-08-01T08:53:51Z</time>
      </trkpt>
      <trkpt lat="43.47358" lon="1.23697">
        <ele>188.6</ele>
        <time>2024-08-01T08:53:52Z</time>
      </trkpt>
      <trkpt lat="43.47366" lon="1.23699">
        <ele>188.6</ele>
        <time>2024-08-01T08:53:53Z</time>
      </trkpt>
      <trkpt lat="43.47374" lon="1.23702">
        <ele>188.6</ele>
        <time>2024-08-01T08:53:54Z</time>
      </trkpt>
      <trkpt lat="43.47382" lon="1.23704">
        <ele>188.8</ele>
        <time>2024-08-01T08:53:55Z</time>
      </trkpt>
      <trkpt lat="43.47391" lon="1.23706">
        <ele>188.8</ele>
        <time>2024-08-01T08:53:56Z</time>
      </trkpt>
      <trkpt lat="43.47399" lon="1.23709">
        <ele>188.8</ele>
        <time>2024-08-01T08:53:57Z</time>
      </trkpt>
      <trkpt lat="43.47407" lon="1.23711">
        <ele>188.8</ele>
        <time>2024-08-01T08:53:58Z</time>
      </trkpt>
      <trkpt lat="43.47415" lon="1.23713">
        <ele>188.8</ele>
        <time>2024-08-01T08:53:59Z</time>
      </trkpt>
      <trkpt lat="43.47423" lon="1.23715">
        <ele>188.8</ele>
        <time>2024-08-01T08:54:00Z</time>
      </trkpt>
      <trkpt lat="43.47431" lon="1.23718">
        <ele>188.6</ele>
        <time>2024-08-01T08:54:01Z</time>
      </trkpt>
      <trkpt lat="43.47439" lon="1.2372">
        <ele>188.6</ele>
        <time>2024-08-01T08:54:02Z</time>
      </trkpt>
      <trkpt lat="43.47447" lon="1.23722">
        <ele>188.6</ele>
        <time>2024-08-01T08:54:03Z</time>
      </trkpt>
      <trkpt lat="43.47454" lon="1.23724">
        <ele>188.6</ele>
        <time>2024-08-01T08:54:04Z</time>
      </trkpt>
      <trkpt lat="43.47462" lon="1.23726">
        <ele>188.6</ele>
        <time>2024-08-01T08:54:05Z</time>
      </trkpt>
      <trkpt lat="43.4747" lon="1.23728">
        <ele>188.6</ele>
        <time>2024-08-01T08:54:06Z</time>
      </trkpt>
      <trkpt lat="43.47478" lon="1.2373">
        <ele>188.6</ele>
        <time>2024-08-01T08:54:07Z</time>
      </trkpt>
      <trkpt lat="43.47485" lon="1.23732">
        <ele>188.6</ele>
        <time>2024-08-01T08:54:08Z</time>
      </trkpt>
      <trkpt lat="43.47492" lon="1.23734">
        <ele>188.8</ele>
        <time>2024-08-01T08:54:09Z</time>
      </trkpt>
      <trkpt lat="43.475" lon="1.23736">
        <ele>188.8</ele>
        <time>2024-08-01T08:54:10Z</time>
      </trkpt>
      <trkpt lat="43.47507" lon="1.23738">
        <ele>188.8</ele>
        <time>2024-08-01T08:54:11Z</time>
      </trkpt>
      <trkpt lat="43.47515" lon="1.2374">
        <ele>188.8</ele>
        <time>2024-08-01T08:54:12Z</time>
      </trkpt>
      <trkpt lat="43.47522" lon="1.23742">
        <ele>189</ele>
        <time>2024-08-01T08:54:13Z</time>
      </trkpt>
      <trkpt lat="43.47529" lon="1.23744">
        <ele>189</ele>
        <time>2024-08-01T08:54:14Z</time>
      </trkpt>
      <trkpt lat="43.47536" lon="1.23747">
        <ele>189</ele>
        <time>2024-08-01T08:54:15Z</time>
      </trkpt>
      <trkpt lat="43.47544" lon="1.23749">
        <ele>189</ele>
        <time>2024-08-01T08:54:16Z</time>
      </trkpt>
      <trkpt lat="43.47551" lon="1.23751">
        <ele>189</ele>
        <time>2024-08-01T08:54:17Z</time>
      </trkpt>
      <trkpt lat="43.47558" lon="1.23753">
        <ele>189</ele>
        <time>2024-08-01T08:54:18Z</time>
      </trkpt>
      <trkpt lat="43.47566" lon="1.23755">
        <ele>189</ele>
        <time>2024-08-01T08:54:19Z</time>
      </trkpt>
      <trkpt lat="43.47573" lon="1.23757">
        <ele>189</ele>
        <time>2024-08-01T08:54:20Z</time>
      </trkpt>
      <trkpt lat="43.4758" lon="1.23759">
        <ele>189</ele>
        <time>2024-08-01T08:54:21Z</time>
      </trkpt>
      <trkpt lat="43.47587" lon="1.23761">
        <ele>189</ele>
        <time>2024-08-01T08:54:22Z</time>
      </trkpt>
      <trkpt lat="43.47595" lon="1.23763">
        <ele>188.8</ele>
        <time>2024-08-01T08:54:23Z</time>
      </trkpt>
      <trkpt lat="43.47602" lon="1.23765">
        <ele>188.8</ele>
        <time>2024-08-01T08:54:24Z</time>
      </trkpt>
      <trkpt lat="43.47609" lon="1.23768">
        <ele>188.6</ele>
        <time>2024-08-01T08:54:25Z</time>
      </trkpt>
      <trkpt lat="43.47617" lon="1.2377">
        <ele>188.4</ele>
        <time>2024-08-01T08:54:26Z</time>
      </trkpt>
      <trkpt lat="43.47624" lon="1.23774">
        <ele>188.4</ele>
        <time>2024-08-01T08:54:27Z</time>
      </trkpt>
      <trkpt lat="43.47631" lon="1.23777">
        <ele>188.4</ele>
        <time>2024-08-01T08:54:28Z</time>
      </trkpt>
      <trkpt lat="43.47638" lon="1.23781">
        <ele>188.4</ele>
        <time>2024-08-01T08:54:29Z</time>
      </trkpt>
      <trkpt lat="43.47645" lon="1.23785">
        <ele>188</ele>
        <time>2024-08-01T08:54:30Z</time>
      </trkpt>
      <trkpt lat="43.47651" lon="1.23789">
        <ele>188</ele>
        <time>2024-08-01T08:54:31Z</time>
      </trkpt>
      <trkpt lat="43.47658" lon="1.23794">
        <ele>187.8</ele>
        <time>2024-08-01T08:54:32Z</time>
      </trkpt>
      <trkpt lat="43.47664" lon="1.23798">
        <ele>187.8</ele>
        <time>2024-08-01T08:54:33Z</time>
      </trkpt>
      <trkpt lat="43.47671" lon="1.23803">
        <ele>187.8</ele>
        <time>2024-08-01T08:54:34Z</time>
      </trkpt>
      <trkpt lat="43.47677" lon="1.23808">
        <ele>187.8</ele>
        <time>2024-08-01T08:54:35Z</time>
      </trkpt>
      <trkpt lat="43.47684" lon="1.23813">
        <ele>187.8</ele>
        <time>2024-08-01T08:54:36Z</time>
      </trkpt>
      <trkpt lat="43.4769" lon="1.23819">
        <ele>187.8</ele>
        <time>2024-08-01T08:54:37Z</time>
      </trkpt>
      <trkpt lat="43.47696" lon="1.23824">
        <ele>187.6</ele>
        <time>2024-08-01T08:54:38Z</time>
      </trkpt>
      <trkpt lat="43.47703" lon="1.23829">
        <ele>187.4</ele>
        <time>2024-08-01T08:54:39Z</time>
      </trkpt>
      <trkpt lat="43.47709" lon="1.23835">
        <ele>187.6</ele>
        <time>2024-08-01T08:54:40Z</time>
      </trkpt>
      <trkpt lat="43.47716" lon="1.23841">
        <ele>187.8</ele>
        <time>2024-08-01T08:54:41Z</time>
      </trkpt>
      <trkpt lat="43.47722" lon="1.23846">
        <ele>187.8</ele>
        <time>2024-08-01T08:54:42Z</time>
      </trkpt>
      <trkpt lat="43.47729" lon="1.23851">
        <ele>187.8</ele>
        <time>2024-08-01T08:54:43Z</time>
      </trkpt>
      <trkpt lat="43.47736" lon="1.23856">
        <ele>188</ele>
        <time>2024-08-01T08:54:44Z</time>
      </trkpt>
      <trkpt lat="43.47742" lon="1.23861">
        <ele>188</ele>
        <time>2024-08-01T08:54:45Z</time>
      </trkpt>
      <trkpt lat="43.47748" lon="1.23867">
        <ele>188</ele>
        <time>2024-08-01T08:54:46Z</time>
      </trkpt>
      <trkpt lat="43.47755" lon="1.23872">
        <ele>188</ele>
        <time>2024-08-01T08:54:47Z</time>
      </trkpt>
      <trkpt lat="43.47761" lon="1.23877">
        <ele>188</ele>
        <time>2024-08-01T08:54:48Z</time>
      </trkpt>
      <trkpt lat="43.47768" lon="1.23882">
        <ele>188.2</ele>
        <time>2024-08-01T08:54:49Z</time>
      </trkpt>
      <trkpt lat="43.47775" lon="1.23888">
        <ele>188.2</ele>
        <time>2024-08-01T08:54:50Z</time>
      </trkpt>
      <trkpt lat="43.47781" lon="1.23893">
        <ele>188.2</ele>
        <time>2024-08-01T08:54:51Z</time>
      </trkpt>
      <trkpt lat="43.47788" lon="1.23899">
        <ele>188.2</ele>
        <time>2024-08-01T08:54:52Z</time>
      </trkpt>
      <trkpt lat="43.47795" lon="1.23904">
        <ele>188.2</ele>
        <time>2024-08-01T08:54:53Z</time>
      </trkpt>
      <trkpt lat="43.47802" lon="1.23909">
        <ele>188.2</ele>
        <time>2024-08-01T08:54:54Z</time>
      </trkpt>
      <trkpt lat="43.47809" lon="1.23914">
        <ele>188.2</ele>
        <time>2024-08-01T08:54:55Z</time>
      </trkpt>
      <trkpt lat="43.47817" lon="1.23919">
        <ele>188.2</ele>
        <time>2024-08-01T08:54:56Z</time>
      </trkpt>
      <trkpt lat="43.47824" lon="1.23923">
        <ele>188.2</ele>
        <time>2024-08-01T08:54:57Z</time>
      </trkpt>
      <trkpt lat="43.47831" lon="1.23928">
        <ele>188.2</ele>
        <time>2024-08-01T08:54:58Z</time>
      </trkpt>
      <trkpt lat="43.47839" lon="1.23932">
        <ele>188.2</ele>
        <time>2024-08-01T08:54:59Z</time>
      </trkpt>
      <trkpt lat="43.47847" lon="1.23937">
        <ele>188.2</ele>
        <time>2024-08-01T08:55:00Z</time>
      </trkpt>
      <trkpt lat="43.47854" lon="1.2394">
        <ele>188.2</ele>
        <time>2024-08-01T08:55:01Z</time>
      </trkpt>
      <trkpt lat="43.47862" lon="1.23944">
        <ele>188.2</ele>
        <time>2024-08-01T08:55:02Z</time>
      </trkpt>
      <trkpt lat="43.4787" lon="1.23947">
        <ele>188.2</ele>
        <time>2024-08-01T08:55:03Z</time>
      </trkpt>
      <trkpt lat="43.47878" lon="1.23951">
        <ele>188.2</ele>
        <time>2024-08-01T08:55:04Z</time>
      </trkpt>
      <trkpt lat="43.47886" lon="1.23955">
        <ele>188.2</ele>
        <time>2024-08-01T08:55:05Z</time>
      </trkpt>
      <trkpt lat="43.47893" lon="1.23959">
        <ele>188.2</ele>
        <time>2024-08-01T08:55:06Z</time>
      </trkpt>
      <trkpt lat="43.47901" lon="1.23963">
        <ele>188.2</ele>
        <time>2024-08-01T08:55:07Z</time>
      </trkpt>
      <trkpt lat="43.47909" lon="1.23967">
        <ele>188.2</ele>
        <time>2024-08-01T08:55:08Z</time>
      </trkpt>
      <trkpt lat="43.47916" lon="1.23971">
        <ele>188.2</ele>
        <time>2024-08-01T08:55:09Z</time>
      </trkpt>
      <trkpt lat="43.47924" lon="1.23975">
        <ele>188</ele>
        <time>2024-08-01T08:55:10Z</time>
      </trkpt>
      <trkpt lat="43.47931" lon="1.2398">
        <ele>188</ele>
        <time>2024-08-01T08:55:11Z</time>
      </trkpt>
      <trkpt lat="43.47939" lon="1.23984">
        <ele>188</ele>
        <time>2024-08-01T08:55:12Z</time>
      </trkpt>
      <trkpt lat="43.47946" lon="1.23988">
        <ele>188</ele>
        <time>2024-08-01T08:55:13Z</time>
      </trkpt>
      <trkpt lat="43.47954" lon="1.23993">
        <ele>187.8</ele>
        <time>2024-08-01T08:55:14Z</time>
      </trkpt>
      <trkpt lat="43.47962" lon="1.23997">
        <ele>187.8</ele>
        <time>2024-08-01T08:55:15Z</time>
      </trkpt>
      <trkpt lat="43.47969" lon="1.24001">
        <ele>187.8</ele>
        <time>2024-08-01T08:55:16Z</time>
      </trkpt>
      <trkpt lat="43.47977" lon="1.24005">
        <ele>187.8</ele>
        <time>2024-08-01T08:55:17Z</time>
      </trkpt>
      <trkpt lat="43.47984" lon="1.2401">
        <ele>187.8</ele>
        <time>2024-08-01T08:55:18Z</time>
      </trkpt>
      <trkpt lat="43.47992" lon="1.24014">
        <ele>187.8</ele>
        <time>2024-08-01T08:55:19Z</time>
      </trkpt>
      <trkpt lat="43.48" lon="1.24018">
        <ele>187.8</ele>
        <time>2024-08-01T08:55:20Z</time>
      </trkpt>
      <trkpt lat="43.48007" lon="1.24022">
        <ele>187.8</ele>
        <time>2024-08-01T08:55:21Z</time>
      </trkpt>
      <trkpt lat="43.48015" lon="1.24026">
        <ele>187.8</ele>
        <time>2024-08-01T08:55:22Z</time>
      </trkpt>
      <trkpt lat="43.48023" lon="1.2403">
        <ele>187.8</ele>
        <time>2024-08-01T08:55:23Z</time>
      </trkpt>
      <trkpt lat="43.4803" lon="1.24033">
        <ele>187.8</ele>
        <time>2024-08-01T08:55:24Z</time>
      </trkpt>
      <trkpt lat="43.48037" lon="1.24037">
        <ele>187.8</ele>
        <time>2024-08-01T08:55:25Z</time>
      </trkpt>
      <trkpt lat="43.48045" lon="1.24041">
        <ele>187.8</ele>
        <time>2024-08-01T08:55:26Z</time>
      </trkpt>
      <trkpt lat="43.48052" lon="1.24045">
        <ele>187.8</ele>
        <time>2024-08-01T08:55:27Z</time>
      </trkpt>
      <trkpt lat="43.4806" lon="1.24049">
        <ele>187.8</ele>
        <time>2024-08-01T08:55:28Z</time>
      </trkpt>
      <trkpt lat="43.48067" lon="1.24053">
        <ele>187.8</ele>
        <time>2024-08-01T08:55:29Z</time>
      </trkpt>
      <trkpt lat="43.48075" lon="1.24057">
        <ele>187.8</ele>
        <time>2024-08-01T08:55:30Z</time>
      </trkpt>
      <trkpt lat="43.48082" lon="1.24061">
        <ele>187.6</ele>
        <time>2024-08-01T08:55:31Z</time>
      </trkpt>
      <trkpt lat="43.48089" lon="1.24064">
        <ele>187.6</ele>
        <time>2024-08-01T08:55:32Z</time>
      </trkpt>
      <trkpt lat="43.48097" lon="1.24068">
        <ele>187.6</ele>
        <time>2024-08-01T08:55:33Z</time>
      </trkpt>
      <trkpt lat="43.48104" lon="1.24072">
        <ele>187.6</ele>
        <time>2024-08-01T08:55:34Z</time>
      </trkpt>
      <trkpt lat="43.48111" lon="1.24076">
        <ele>187.6</ele>
        <time>2024-08-01T08:55:35Z</time>
      </trkpt>
      <trkpt lat="43.48118" lon="1.2408">
        <ele>187.6</ele>
        <time>2024-08-01T08:55:36Z</time>
      </trkpt>
      <trkpt lat="43.48125" lon="1.24084">
        <ele>187.6</ele>
        <time>2024-08-01T08:55:37Z</time>
      </trkpt>
      <trkpt lat="43.48131" lon="1.24088">
        <ele>187.4</ele>
        <time>2024-08-01T08:55:38Z</time>
      </trkpt>
      <trkpt lat="43.48138" lon="1.24093">
        <ele>187.4</ele>
        <time>2024-08-01T08:55:39Z</time>
      </trkpt>
      <trkpt lat="43.48144" lon="1.24099">
        <ele>187.4</ele>
        <time>2024-08-01T08:55:40Z</time>
      </trkpt>
      <trkpt lat="43.4815" lon="1.24104">
        <ele>187.4</ele>
        <time>2024-08-01T08:55:41Z</time>
      </trkpt>
      <trkpt lat="43.48155" lon="1.24109">
        <ele>187.4</ele>
        <time>2024-08-01T08:55:42Z</time>
      </trkpt>
      <trkpt lat="43.48161" lon="1.24114">
        <ele>187.4</ele>
        <time>2024-08-01T08:55:43Z</time>
      </trkpt>
      <trkpt lat="43.48166" lon="1.2412">
        <ele>187.4</ele>
        <time>2024-08-01T08:55:44Z</time>
      </trkpt>
      <trkpt lat="43.4817" lon="1.24125">
        <ele>187.4</ele>
        <time>2024-08-01T08:55:45Z</time>
      </trkpt>
      <trkpt lat="43.48174" lon="1.24132">
        <ele>187.4</ele>
        <time>2024-08-01T08:55:46Z</time>
      </trkpt>
      <trkpt lat="43.48177" lon="1.24138">
        <ele>187.4</ele>
        <time>2024-08-01T08:55:47Z</time>
      </trkpt>
      <trkpt lat="43.48178" lon="1.24146">
        <ele>187.4</ele>
        <time>2024-08-01T08:55:48Z</time>
      </trkpt>
      <trkpt lat="43.48178" lon="1.24153">
        <ele>187.4</ele>
        <time>2024-08-01T08:55:49Z</time>
      </trkpt>
      <trkpt lat="43.48177" lon="1.24161">
        <ele>187.4</ele>
        <time>2024-08-01T08:55:50Z</time>
      </trkpt>
      <trkpt lat="43.48179" lon="1.24168">
        <ele>187.4</ele>
        <time>2024-08-01T08:55:51Z</time>
      </trkpt>
      <trkpt lat="43.48183" lon="1.24174">
        <ele>187.4</ele>
        <time>2024-08-01T08:55:52Z</time>
      </trkpt>
      <trkpt lat="43.48188" lon="1.24175">
        <ele>187.4</ele>
        <time>2024-08-01T08:55:53Z</time>
      </trkpt>
      <trkpt lat="43.48192" lon="1.24173">
        <ele>187.4</ele>
        <time>2024-08-01T08:55:54Z</time>
      </trkpt>
      <trkpt lat="43.48197" lon="1.24169">
        <ele>187.4</ele>
        <time>2024-08-01T08:55:55Z</time>
      </trkpt>
      <trkpt lat="43.48203" lon="1.24166">
        <ele>187.4</ele>
        <time>2024-08-01T08:55:56Z</time>
      </trkpt>
      <trkpt lat="43.48209" lon="1.24165">
        <ele>187.4</ele>
        <time>2024-08-01T08:55:57Z</time>
      </trkpt>
      <trkpt lat="43.48214" lon="1.24166">
        <ele>187.4</ele>
        <time>2024-08-01T08:55:58Z</time>
      </trkpt>
      <trkpt lat="43.48219" lon="1.2417">
        <ele>187.4</ele>
        <time>2024-08-01T08:55:59Z</time>
      </trkpt>
      <trkpt lat="43.48225" lon="1.24175">
        <ele>187.4</ele>
        <time>2024-08-01T08:56:00Z</time>
      </trkpt>
      <trkpt lat="43.4823" lon="1.24181">
        <ele>187.4</ele>
        <time>2024-08-01T08:56:01Z</time>
      </trkpt>
      <trkpt lat="43.48236" lon="1.24187">
        <ele>187.2</ele>
        <time>2024-08-01T08:56:02Z</time>
      </trkpt>
      <trkpt lat="43.48242" lon="1.24192">
        <ele>187.2</ele>
        <time>2024-08-01T08:56:03Z</time>
      </trkpt>
      <trkpt lat="43.48248" lon="1.24198">
        <ele>187.2</ele>
        <time>2024-08-01T08:56:04Z</time>
      </trkpt>
      <trkpt lat="43.48254" lon="1.24203">
        <ele>187</ele>
        <time>2024-08-01T08:56:05Z</time>
      </trkpt>
      <trkpt lat="43.48261" lon="1.24209">
        <ele>187</ele>
        <time>2024-08-01T08:56:06Z</time>
      </trkpt>
      <trkpt lat="43.48267" lon="1.24215">
        <ele>187</ele>
        <time>2024-08-01T08:56:07Z</time>
      </trkpt>
      <trkpt lat="43.48274" lon="1.24221">
        <ele>187</ele>
        <time>2024-08-01T08:56:08Z</time>
      </trkpt>
      <trkpt lat="43.4828" lon="1.24227">
        <ele>187</ele>
        <time>2024-08-01T08:56:09Z</time>
      </trkpt>
      <trkpt lat="43.48286" lon="1.24233">
        <ele>187</ele>
        <time>2024-08-01T08:56:10Z</time>
      </trkpt>
      <trkpt lat="43.48292" lon="1.24238">
        <ele>186.8</ele>
        <time>2024-08-01T08:56:11Z</time>
      </trkpt>
      <trkpt lat="43.48299" lon="1.24243">
        <ele>186.8</ele>
        <time>2024-08-01T08:56:12Z</time>
      </trkpt>
      <trkpt lat="43.48305" lon="1.24249">
        <ele>186.8</ele>
        <time>2024-08-01T08:56:13Z</time>
      </trkpt>
      <trkpt lat="43.48312" lon="1.24254">
        <ele>186.8</ele>
        <time>2024-08-01T08:56:14Z</time>
      </trkpt>
      <trkpt lat="43.48318" lon="1.2426">
        <ele>186.6</ele>
        <time>2024-08-01T08:56:15Z</time>
      </trkpt>
      <trkpt lat="43.48324" lon="1.24265">
        <ele>186.6</ele>
        <time>2024-08-01T08:56:16Z</time>
      </trkpt>
      <trkpt lat="43.4833" lon="1.2427">
        <ele>186.6</ele>
        <time>2024-08-01T08:56:17Z</time>
      </trkpt>
      <trkpt lat="43.48336" lon="1.24275">
        <ele>186.6</ele>
        <time>2024-08-01T08:56:18Z</time>
      </trkpt>
      <trkpt lat="43.48342" lon="1.24281">
        <ele>186.6</ele>
        <time>2024-08-01T08:56:19Z</time>
      </trkpt>
      <trkpt lat="43.48348" lon="1.24286">
        <ele>186.6</ele>
        <time>2024-08-01T08:56:20Z</time>
      </trkpt>
      <trkpt lat="43.48353" lon="1.24291">
        <ele>186.6</ele>
        <time>2024-08-01T08:56:21Z</time>
      </trkpt>
      <trkpt lat="43.48359" lon="1.24296">
        <ele>186.6</ele>
        <time>2024-08-01T08:56:22Z</time>
      </trkpt>
      <trkpt lat="43.48365" lon="1.243">
        <ele>186.6</ele>
        <time>2024-08-01T08:56:23Z</time>
      </trkpt>
      <trkpt lat="43.4837" lon="1.24305">
        <ele>186.6</ele>
        <time>2024-08-01T08:56:24Z</time>
      </trkpt>
      <trkpt lat="43.48375" lon="1.2431">
        <ele>186.4</ele>
        <time>2024-08-01T08:56:25Z</time>
      </trkpt>
      <trkpt lat="43.48379" lon="1.24315">
        <ele>186.4</ele>
        <time>2024-08-01T08:56:26Z</time>
      </trkpt>
      <trkpt lat="43.48382" lon="1.24322">
        <ele>186.4</ele>
        <time>2024-08-01T08:56:27Z</time>
      </trkpt>
      <trkpt lat="43.48384" lon="1.24328">
        <ele>186.4</ele>
        <time>2024-08-01T08:56:28Z</time>
      </trkpt>
      <trkpt lat="43.48387" lon="1.24335">
        <ele>186.4</ele>
        <time>2024-08-01T08:56:29Z</time>
      </trkpt>
      <trkpt lat="43.48391" lon="1.2434">
        <ele>186.4</ele>
        <time>2024-08-01T08:56:30Z</time>
      </trkpt>
      <trkpt lat="43.48397" lon="1.24342">
        <ele>186.4</ele>
        <time>2024-08-01T08:56:31Z</time>
      </trkpt>
      <trkpt lat="43.48402" lon="1.2434">
        <ele>186.4</ele>
        <time>2024-08-01T08:56:32Z</time>
      </trkpt>
      <trkpt lat="43.48408" lon="1.24337">
        <ele>186.4</ele>
        <time>2024-08-01T08:56:33Z</time>
      </trkpt>
      <trkpt lat="43.48414" lon="1.24334">
        <ele>186.4</ele>
        <time>2024-08-01T08:56:34Z</time>
      </trkpt>
      <trkpt lat="43.4842" lon="1.24333">
        <ele>186.4</ele>
        <time>2024-08-01T08:56:35Z</time>
      </trkpt>
      <trkpt lat="43.48425" lon="1.24335">
        <ele>186.2</ele>
        <time>2024-08-01T08:56:36Z</time>
      </trkpt>
      <trkpt lat="43.48431" lon="1.24338">
        <ele>186.2</ele>
        <time>2024-08-01T08:56:37Z</time>
      </trkpt>
      <trkpt lat="43.48437" lon="1.24342">
        <ele>186.2</ele>
        <time>2024-08-01T08:56:38Z</time>
      </trkpt>
      <trkpt lat="43.48443" lon="1.24346">
        <ele>186.2</ele>
        <time>2024-08-01T08:56:39Z</time>
      </trkpt>
      <trkpt lat="43.48449" lon="1.24351">
        <ele>186</ele>
        <time>2024-08-01T08:56:40Z</time>
      </trkpt>
      <trkpt lat="43.48455" lon="1.24355">
        <ele>186</ele>
        <time>2024-08-01T08:56:41Z</time>
      </trkpt>
      <trkpt lat="43.48462" lon="1.2436">
        <ele>186</ele>
        <time>2024-08-01T08:56:42Z</time>
      </trkpt>
      <trkpt lat="43.48468" lon="1.24365">
        <ele>186</ele>
        <time>2024-08-01T08:56:43Z</time>
      </trkpt>
      <trkpt lat="43.48475" lon="1.2437">
        <ele>185.8</ele>
        <time>2024-08-01T08:56:44Z</time>
      </trkpt>
      <trkpt lat="43.48481" lon="1.24375">
        <ele>185.8</ele>
        <time>2024-08-01T08:56:45Z</time>
      </trkpt>
      <trkpt lat="43.48488" lon="1.24381">
        <ele>185.8</ele>
        <time>2024-08-01T08:56:46Z</time>
      </trkpt>
      <trkpt lat="43.48495" lon="1.24386">
        <ele>185.8</ele>
        <time>2024-08-01T08:56:47Z</time>
      </trkpt>
      <trkpt lat="43.48502" lon="1.24391">
        <ele>185.8</ele>
        <time>2024-08-01T08:56:48Z</time>
      </trkpt>
      <trkpt lat="43.48508" lon="1.24396">
        <ele>185.8</ele>
        <time>2024-08-01T08:56:49Z</time>
      </trkpt>
      <trkpt lat="43.48514" lon="1.24401">
        <ele>185.8</ele>
        <time>2024-08-01T08:56:50Z</time>
      </trkpt>
      <trkpt lat="43.4852" lon="1.24406">
        <ele>185.8</ele>
        <time>2024-08-01T08:56:51Z</time>
      </trkpt>
      <trkpt lat="43.48526" lon="1.2441">
        <ele>185.6</ele>
        <time>2024-08-01T08:56:52Z</time>
      </trkpt>
      <trkpt lat="43.48532" lon="1.24415">
        <ele>185.6</ele>
        <time>2024-08-01T08:56:53Z</time>
      </trkpt>
      <trkpt lat="43.48539" lon="1.2442">
        <ele>185.6</ele>
        <time>2024-08-01T08:56:54Z</time>
      </trkpt>
      <trkpt lat="43.48545" lon="1.24425">
        <ele>185.6</ele>
        <time>2024-08-01T08:56:55Z</time>
      </trkpt>
      <trkpt lat="43.48551" lon="1.24429">
        <ele>185.6</ele>
        <time>2024-08-01T08:56:56Z</time>
      </trkpt>
      <trkpt lat="43.48557" lon="1.24434">
        <ele>185.6</ele>
        <time>2024-08-01T08:56:57Z</time>
      </trkpt>
      <trkpt lat="43.48564" lon="1.24439">
        <ele>185.6</ele>
        <time>2024-08-01T08:56:58Z</time>
      </trkpt>
      <trkpt lat="43.4857" lon="1.24444">
        <ele>185.6</ele>
        <time>2024-08-01T08:56:59Z</time>
      </trkpt>
      <trkpt lat="43.48576" lon="1.24449">
        <ele>185.6</ele>
        <time>2024-08-01T08:57:00Z</time>
      </trkpt>
      <trkpt lat="43.48581" lon="1.24453">
        <ele>185.6</ele>
        <time>2024-08-01T08:57:01Z</time>
      </trkpt>
      <trkpt lat="43.48587" lon="1.24458">
        <ele>185.6</ele>
        <time>2024-08-01T08:57:02Z</time>
      </trkpt>
      <trkpt lat="43.48592" lon="1.24462">
        <ele>185.6</ele>
        <time>2024-08-01T08:57:03Z</time>
      </trkpt>
      <trkpt lat="43.48597" lon="1.24467">
        <ele>185.6</ele>
        <time>2024-08-01T08:57:04Z</time>
      </trkpt>
      <trkpt lat="43.48603" lon="1.24473">
        <ele>185.6</ele>
        <time>2024-08-01T08:57:05Z</time>
      </trkpt>
      <trkpt lat="43.48609" lon="1.24478">
        <ele>185.6</ele>
        <time>2024-08-01T08:57:06Z</time>
      </trkpt>
      <trkpt lat="43.48615" lon="1.24484">
        <ele>185.6</ele>
        <time>2024-08-01T08:57:07Z</time>
      </trkpt>
      <trkpt lat="43.48621" lon="1.2449">
        <ele>185.6</ele>
        <time>2024-08-01T08:57:08Z</time>
      </trkpt>
      <trkpt lat="43.48627" lon="1.24496">
        <ele>185.6</ele>
        <time>2024-08-01T08:57:09Z</time>
      </trkpt>
      <trkpt lat="43.48633" lon="1.24502">
        <ele>185.6</ele>
        <time>2024-08-01T08:57:10Z</time>
      </trkpt>
      <trkpt lat="43.48639" lon="1.24508">
        <ele>185.6</ele>
        <time>2024-08-01T08:57:11Z</time>
      </trkpt>
      <trkpt lat="43.48645" lon="1.24515">
        <ele>185.6</ele>
        <time>2024-08-01T08:57:12Z</time>
      </trkpt>
      <trkpt lat="43.48651" lon="1.24521">
        <ele>185.6</ele>
        <time>2024-08-01T08:57:13Z</time>
      </trkpt>
      <trkpt lat="43.48657" lon="1.24527">
        <ele>185.4</ele>
        <time>2024-08-01T08:57:14Z</time>
      </trkpt>
      <trkpt lat="43.48664" lon="1.24534">
        <ele>185.6</ele>
        <time>2024-08-01T08:57:15Z</time>
      </trkpt>
      <trkpt lat="43.4867" lon="1.2454">
        <ele>185.6</ele>
        <time>2024-08-01T08:57:16Z</time>
      </trkpt>
      <trkpt lat="43.48676" lon="1.24546">
        <ele>185.6</ele>
        <time>2024-08-01T08:57:17Z</time>
      </trkpt>
      <trkpt lat="43.48683" lon="1.24552">
        <ele>185.6</ele>
        <time>2024-08-01T08:57:18Z</time>
      </trkpt>
      <trkpt lat="43.48689" lon="1.24558">
        <ele>185.6</ele>
        <time>2024-08-01T08:57:19Z</time>
      </trkpt>
      <trkpt lat="43.48695" lon="1.24564">
        <ele>185.6</ele>
        <time>2024-08-01T08:57:20Z</time>
      </trkpt>
      <trkpt lat="43.48702" lon="1.2457">
        <ele>185.8</ele>
        <time>2024-08-01T08:57:21Z</time>
      </trkpt>
      <trkpt lat="43.48708" lon="1.24575">
        <ele>185.8</ele>
        <time>2024-08-01T08:57:22Z</time>
      </trkpt>
      <trkpt lat="43.48715" lon="1.2458">
        <ele>185.8</ele>
        <time>2024-08-01T08:57:23Z</time>
      </trkpt>
      <trkpt lat="43.48721" lon="1.24585">
        <ele>185.8</ele>
        <time>2024-08-01T08:57:24Z</time>
      </trkpt>
      <trkpt lat="43.48728" lon="1.2459">
        <ele>185.8</ele>
        <time>2024-08-01T08:57:25Z</time>
      </trkpt>
      <trkpt lat="43.48735" lon="1.24594">
        <ele>185.8</ele>
        <time>2024-08-01T08:57:26Z</time>
      </trkpt>
      <trkpt lat="43.48742" lon="1.24597">
        <ele>185.8</ele>
        <time>2024-08-01T08:57:27Z</time>
      </trkpt>
      <trkpt lat="43.48748" lon="1.24601">
        <ele>185.8</ele>
        <time>2024-08-01T08:57:28Z</time>
      </trkpt>
      <trkpt lat="43.48755" lon="1.24605">
        <ele>185.8</ele>
        <time>2024-08-01T08:57:29Z</time>
      </trkpt>
      <trkpt lat="43.48762" lon="1.24608">
        <ele>185.8</ele>
        <time>2024-08-01T08:57:30Z</time>
      </trkpt>
      <trkpt lat="43.48769" lon="1.24612">
        <ele>185.8</ele>
        <time>2024-08-01T08:57:31Z</time>
      </trkpt>
      <trkpt lat="43.48776" lon="1.24615">
        <ele>185.8</ele>
        <time>2024-08-01T08:57:32Z</time>
      </trkpt>
      <trkpt lat="43.48783" lon="1.24619">
        <ele>185.8</ele>
        <time>2024-08-01T08:57:33Z</time>
      </trkpt>
      <trkpt lat="43.4879" lon="1.24622">
        <ele>185.8</ele>
        <time>2024-08-01T08:57:34Z</time>
      </trkpt>
      <trkpt lat="43.48797" lon="1.24626">
        <ele>185.8</ele>
        <time>2024-08-01T08:57:35Z</time>
      </trkpt>
      <trkpt lat="43.48804" lon="1.24629">
        <ele>185.8</ele>
        <time>2024-08-01T08:57:36Z</time>
      </trkpt>
      <trkpt lat="43.48811" lon="1.24633">
        <ele>185.8</ele>
        <time>2024-08-01T08:57:37Z</time>
      </trkpt>
      <trkpt lat="43.48819" lon="1.24637">
        <ele>186</ele>
        <time>2024-08-01T08:57:38Z</time>
      </trkpt>
      <trkpt lat="43.48826" lon="1.2464">
        <ele>185.8</ele>
        <time>2024-08-01T08:57:39Z</time>
      </trkpt>
      <trkpt lat="43.48834" lon="1.24643">
        <ele>185.8</ele>
        <time>2024-08-01T08:57:40Z</time>
      </trkpt>
      <trkpt lat="43.48841" lon="1.24646">
        <ele>185.6</ele>
        <time>2024-08-01T08:57:41Z</time>
      </trkpt>
      <trkpt lat="43.48848" lon="1.2465">
        <ele>185.4</ele>
        <time>2024-08-01T08:57:42Z</time>
      </trkpt>
      <trkpt lat="43.48855" lon="1.24653">
        <ele>185.2</ele>
        <time>2024-08-01T08:57:43Z</time>
      </trkpt>
      <trkpt lat="43.48863" lon="1.24656">
        <ele>185.2</ele>
        <time>2024-08-01T08:57:44Z</time>
      </trkpt>
      <trkpt lat="43.4887" lon="1.24659">
        <ele>185.2</ele>
        <time>2024-08-01T08:57:45Z</time>
      </trkpt>
      <trkpt lat="43.48878" lon="1.24662">
        <ele>185.2</ele>
        <time>2024-08-01T08:57:46Z</time>
      </trkpt>
      <trkpt lat="43.48885" lon="1.24665">
        <ele>185.2</ele>
        <time>2024-08-01T08:57:47Z</time>
      </trkpt>
      <trkpt lat="43.48893" lon="1.24668">
        <ele>185</ele>
        <time>2024-08-01T08:57:48Z</time>
      </trkpt>
      <trkpt lat="43.489" lon="1.24671">
        <ele>185</ele>
        <time>2024-08-01T08:57:49Z</time>
      </trkpt>
      <trkpt lat="43.48907" lon="1.24673">
        <ele>185</ele>
        <time>2024-08-01T08:57:50Z</time>
      </trkpt>
      <trkpt lat="43.48914" lon="1.24676">
        <ele>185</ele>
        <time>2024-08-01T08:57:51Z</time>
      </trkpt>
      <trkpt lat="43.48922" lon="1.24677">
        <ele>185</ele>
        <time>2024-08-01T08:57:52Z</time>
      </trkpt>
      <trkpt lat="43.48929" lon="1.24679">
        <ele>185</ele>
        <time>2024-08-01T08:57:53Z</time>
      </trkpt>
      <trkpt lat="43.48936" lon="1.2468">
        <ele>185</ele>
        <time>2024-08-01T08:57:54Z</time>
      </trkpt>
      <trkpt lat="43.48943" lon="1.24682">
        <ele>185.4</ele>
        <time>2024-08-01T08:57:55Z</time>
      </trkpt>
      <trkpt lat="43.4895" lon="1.24683">
        <ele>185.4</ele>
        <time>2024-08-01T08:57:56Z</time>
      </trkpt>
      <trkpt lat="43.48958" lon="1.24684">
        <ele>185.4</ele>
        <time>2024-08-01T08:57:57Z</time>
      </trkpt>
      <trkpt lat="43.48964" lon="1.24685">
        <ele>185.4</ele>
        <time>2024-08-01T08:57:58Z</time>
      </trkpt>
      <trkpt lat="43.48971" lon="1.24686">
        <ele>185.4</ele>
        <time>2024-08-01T08:57:59Z</time>
      </trkpt>
      <trkpt lat="43.48978" lon="1.24687">
        <ele>185.4</ele>
        <time>2024-08-01T08:58:00Z</time>
      </trkpt>
      <trkpt lat="43.48985" lon="1.24688">
        <ele>185.4</ele>
        <time>2024-08-01T08:58:01Z</time>
      </trkpt>
      <trkpt lat="43.48992" lon="1.24689">
        <ele>185.4</ele>
        <time>2024-08-01T08:58:02Z</time>
      </trkpt>
      <trkpt lat="43.48999" lon="1.2469">
        <ele>185.4</ele>
        <time>2024-08-01T08:58:03Z</time>
      </trkpt>
      <trkpt lat="43.49006" lon="1.24691">
        <ele>185.4</ele>
        <time>2024-08-01T08:58:04Z</time>
      </trkpt>
      <trkpt lat="43.49014" lon="1.24691">
        <ele>185.2</ele>
        <time>2024-08-01T08:58:05Z</time>
      </trkpt>
      <trkpt lat="43.49021" lon="1.24692">
        <ele>185.2</ele>
        <time>2024-08-01T08:58:06Z</time>
      </trkpt>
      <trkpt lat="43.49029" lon="1.24692">
        <ele>184.8</ele>
        <time>2024-08-01T08:58:07Z</time>
      </trkpt>
      <trkpt lat="43.49036" lon="1.24692">
        <ele>184.8</ele>
        <time>2024-08-01T08:58:08Z</time>
      </trkpt>
      <trkpt lat="43.49043" lon="1.24691">
        <ele>184.8</ele>
        <time>2024-08-01T08:58:09Z</time>
      </trkpt>
      <trkpt lat="43.49051" lon="1.2469">
        <ele>184.8</ele>
        <time>2024-08-01T08:58:10Z</time>
      </trkpt>
      <trkpt lat="43.49058" lon="1.24689">
        <ele>184.8</ele>
        <time>2024-08-01T08:58:11Z</time>
      </trkpt>
      <trkpt lat="43.49065" lon="1.24687">
        <ele>184.8</ele>
        <time>2024-08-01T08:58:12Z</time>
      </trkpt>
      <trkpt lat="43.49072" lon="1.24685">
        <ele>184.8</ele>
        <time>2024-08-01T08:58:13Z</time>
      </trkpt>
      <trkpt lat="43.49078" lon="1.24682">
        <ele>184.6</ele>
        <time>2024-08-01T08:58:14Z</time>
      </trkpt>
      <trkpt lat="43.49084" lon="1.24678">
        <ele>184.6</ele>
        <time>2024-08-01T08:58:15Z</time>
      </trkpt>
      <trkpt lat="43.49089" lon="1.24675">
        <ele>184.6</ele>
        <time>2024-08-01T08:58:16Z</time>
      </trkpt>
      <trkpt lat="43.49095" lon="1.24671">
        <ele>184.6</ele>
        <time>2024-08-01T08:58:17Z</time>
      </trkpt>
      <trkpt lat="43.491" lon="1.24667">
        <ele>184.8</ele>
        <time>2024-08-01T08:58:18Z</time>
      </trkpt>
      <trkpt lat="43.49105" lon="1.24663">
        <ele>184.8</ele>
        <time>2024-08-01T08:58:19Z</time>
      </trkpt>
      <trkpt lat="43.49111" lon="1.24659">
        <ele>184.8</ele>
        <time>2024-08-01T08:58:20Z</time>
      </trkpt>
      <trkpt lat="43.49117" lon="1.24655">
        <ele>184.8</ele>
        <time>2024-08-01T08:58:21Z</time>
      </trkpt>
      <trkpt lat="43.49123" lon="1.24651">
        <ele>184.8</ele>
        <time>2024-08-01T08:58:22Z</time>
      </trkpt>
      <trkpt lat="43.49129" lon="1.24647">
        <ele>184.8</ele>
        <time>2024-08-01T08:58:23Z</time>
      </trkpt>
      <trkpt lat="43.49136" lon="1.24642">
        <ele>184.8</ele>
        <time>2024-08-01T08:58:24Z</time>
      </trkpt>
      <trkpt lat="43.49142" lon="1.24638">
        <ele>184.8</ele>
        <time>2024-08-01T08:58:25Z</time>
      </trkpt>
      <trkpt lat="43.49148" lon="1.24633">
        <ele>184.8</ele>
        <time>2024-08-01T08:58:26Z</time>
      </trkpt>
      <trkpt lat="43.49154" lon="1.24629">
        <ele>184.8</ele>
        <time>2024-08-01T08:58:27Z</time>
      </trkpt>
      <trkpt lat="43.49161" lon="1.24625">
        <ele>184.8</ele>
        <time>2024-08-01T08:58:28Z</time>
      </trkpt>
      <trkpt lat="43.49167" lon="1.24621">
        <ele>184.8</ele>
        <time>2024-08-01T08:58:29Z</time>
      </trkpt>
      <trkpt lat="43.49174" lon="1.24617">
        <ele>184.8</ele>
        <time>2024-08-01T08:58:30Z</time>
      </trkpt>
      <trkpt lat="43.49181" lon="1.24613">
        <ele>184.8</ele>
        <time>2024-08-01T08:58:31Z</time>
      </trkpt>
      <trkpt lat="43.49187" lon="1.24609">
        <ele>184.8</ele>
        <time>2024-08-01T08:58:32Z</time>
      </trkpt>
      <trkpt lat="43.49194" lon="1.24605">
        <ele>184.6</ele>
        <time>2024-08-01T08:58:33Z</time>
      </trkpt>
      <trkpt lat="43.49201" lon="1.24601">
        <ele>184.6</ele>
        <time>2024-08-01T08:58:34Z</time>
      </trkpt>
      <trkpt lat="43.49208" lon="1.24599">
        <ele>184.6</ele>
        <time>2024-08-01T08:58:35Z</time>
      </trkpt>
      <trkpt lat="43.49216" lon="1.24596">
        <ele>184.6</ele>
        <time>2024-08-01T08:58:36Z</time>
      </trkpt>
      <trkpt lat="43.49223" lon="1.24594">
        <ele>184.6</ele>
        <time>2024-08-01T08:58:37Z</time>
      </trkpt>
      <trkpt lat="43.4923" lon="1.24591">
        <ele>184.6</ele>
        <time>2024-08-01T08:58:38Z</time>
      </trkpt>
      <trkpt lat="43.49238" lon="1.24588">
        <ele>184.6</ele>
        <time>2024-08-01T08:58:39Z</time>
      </trkpt>
      <trkpt lat="43.49245" lon="1.24585">
        <ele>184.6</ele>
        <time>2024-08-01T08:58:40Z</time>
      </trkpt>
      <trkpt lat="43.49253" lon="1.24582">
        <ele>184.6</ele>
        <time>2024-08-01T08:58:41Z</time>
      </trkpt>
      <trkpt lat="43.4926" lon="1.24579">
        <ele>184.6</ele>
        <time>2024-08-01T08:58:42Z</time>
      </trkpt>
      <trkpt lat="43.49267" lon="1.24576">
        <ele>184.6</ele>
        <time>2024-08-01T08:58:43Z</time>
      </trkpt>
      <trkpt lat="43.49274" lon="1.24573">
        <ele>184.6</ele>
        <time>2024-08-01T08:58:44Z</time>
      </trkpt>
      <trkpt lat="43.49281" lon="1.2457">
        <ele>184.6</ele>
        <time>2024-08-01T08:58:45Z</time>
      </trkpt>
      <trkpt lat="43.49288" lon="1.24567">
        <ele>184.8</ele>
        <time>2024-08-01T08:58:46Z</time>
      </trkpt>
      <trkpt lat="43.49295" lon="1.24563">
        <ele>184.8</ele>
        <time>2024-08-01T08:58:47Z</time>
      </trkpt>
      <trkpt lat="43.49302" lon="1.24561">
        <ele>184.8</ele>
        <time>2024-08-01T08:58:48Z</time>
      </trkpt>
      <trkpt lat="43.4931" lon="1.24559">
        <ele>185</ele>
        <time>2024-08-01T08:58:49Z</time>
      </trkpt>
      <trkpt lat="43.49317" lon="1.24557">
        <ele>185</ele>
        <time>2024-08-01T08:58:50Z</time>
      </trkpt>
      <trkpt lat="43.49325" lon="1.24556">
        <ele>185</ele>
        <time>2024-08-01T08:58:51Z</time>
      </trkpt>
      <trkpt lat="43.49332" lon="1.24554">
        <ele>185</ele>
        <time>2024-08-01T08:58:52Z</time>
      </trkpt>
      <trkpt lat="43.4934" lon="1.24551">
        <ele>185</ele>
        <time>2024-08-01T08:58:53Z</time>
      </trkpt>
      <trkpt lat="43.49348" lon="1.24549">
        <ele>185</ele>
        <time>2024-08-01T08:58:54Z</time>
      </trkpt>
      <trkpt lat="43.49356" lon="1.24547">
        <ele>185</ele>
        <time>2024-08-01T08:58:55Z</time>
      </trkpt>
      <trkpt lat="43.49364" lon="1.24545">
        <ele>185</ele>
        <time>2024-08-01T08:58:56Z</time>
      </trkpt>
      <trkpt lat="43.49372" lon="1.24543">
        <ele>185</ele>
        <time>2024-08-01T08:58:57Z</time>
      </trkpt>
      <trkpt lat="43.4938" lon="1.24542">
        <ele>185</ele>
        <time>2024-08-01T08:58:58Z</time>
      </trkpt>
      <trkpt lat="43.49387" lon="1.2454">
        <ele>185</ele>
        <time>2024-08-01T08:58:59Z</time>
      </trkpt>
      <trkpt lat="43.49395" lon="1.24539">
        <ele>185</ele>
        <time>2024-08-01T08:59:00Z</time>
      </trkpt>
      <trkpt lat="43.49403" lon="1.24538">
        <ele>185</ele>
        <time>2024-08-01T08:59:01Z</time>
      </trkpt>
      <trkpt lat="43.49411" lon="1.24537">
        <ele>185</ele>
        <time>2024-08-01T08:59:02Z</time>
      </trkpt>
      <trkpt lat="43.49419" lon="1.24536">
        <ele>184.8</ele>
        <time>2024-08-01T08:59:03Z</time>
      </trkpt>
      <trkpt lat="43.49427" lon="1.24535">
        <ele>184.8</ele>
        <time>2024-08-01T08:59:04Z</time>
      </trkpt>
      <trkpt lat="43.49435" lon="1.24533">
        <ele>184.6</ele>
        <time>2024-08-01T08:59:05Z</time>
      </trkpt>
      <trkpt lat="43.49443" lon="1.24532">
        <ele>184.6</ele>
        <time>2024-08-01T08:59:06Z</time>
      </trkpt>
      <trkpt lat="43.49451" lon="1.24531">
        <ele>184.6</ele>
        <time>2024-08-01T08:59:07Z</time>
      </trkpt>
      <trkpt lat="43.49459" lon="1.2453">
        <ele>184.6</ele>
        <time>2024-08-01T08:59:08Z</time>
      </trkpt>
      <trkpt lat="43.49467" lon="1.24529">
        <ele>184.6</ele>
        <time>2024-08-01T08:59:09Z</time>
      </trkpt>
      <trkpt lat="43.49474" lon="1.24528">
        <ele>184.6</ele>
        <time>2024-08-01T08:59:10Z</time>
      </trkpt>
      <trkpt lat="43.49482" lon="1.24527">
        <ele>184.4</ele>
        <time>2024-08-01T08:59:11Z</time>
      </trkpt>
      <trkpt lat="43.4949" lon="1.24526">
        <ele>184.4</ele>
        <time>2024-08-01T08:59:12Z</time>
      </trkpt>
      <trkpt lat="43.49499" lon="1.24525">
        <ele>184.4</ele>
        <time>2024-08-01T08:59:13Z</time>
      </trkpt>
      <trkpt lat="43.49507" lon="1.24524">
        <ele>184.4</ele>
        <time>2024-08-01T08:59:14Z</time>
      </trkpt>
      <trkpt lat="43.49515" lon="1.24523">
        <ele>184.4</ele>
        <time>2024-08-01T08:59:15Z</time>
      </trkpt>
      <trkpt lat="43.49523" lon="1.24522">
        <ele>184.4</ele>
        <time>2024-08-01T08:59:16Z</time>
      </trkpt>
      <trkpt lat="43.49531" lon="1.24521">
        <ele>184.4</ele>
        <time>2024-08-01T08:59:17Z</time>
      </trkpt>
      <trkpt lat="43.49539" lon="1.2452">
        <ele>184.4</ele>
        <time>2024-08-01T08:59:18Z</time>
      </trkpt>
      <trkpt lat="43.49547" lon="1.2452">
        <ele>184.4</ele>
        <time>2024-08-01T08:59:19Z</time>
      </trkpt>
      <trkpt lat="43.49555" lon="1.2452">
        <ele>184.4</ele>
        <time>2024-08-01T08:59:20Z</time>
      </trkpt>
      <trkpt lat="43.49563" lon="1.2452">
        <ele>184.4</ele>
        <time>2024-08-01T08:59:21Z</time>
      </trkpt>
      <trkpt lat="43.49571" lon="1.24521">
        <ele>184.4</ele>
        <time>2024-08-01T08:59:22Z</time>
      </trkpt>
      <trkpt lat="43.49579" lon="1.24522">
        <ele>184.2</ele>
        <time>2024-08-01T08:59:23Z</time>
      </trkpt>
      <trkpt lat="43.49587" lon="1.24523">
        <ele>184.2</ele>
        <time>2024-08-01T08:59:24Z</time>
      </trkpt>
      <trkpt lat="43.49595" lon="1.24524">
        <ele>184.2</ele>
        <time>2024-08-01T08:59:25Z</time>
      </trkpt>
      <trkpt lat="43.49603" lon="1.24526">
        <ele>184</ele>
        <time>2024-08-01T08:59:26Z</time>
      </trkpt>
      <trkpt lat="43.49611" lon="1.24527">
        <ele>184</ele>
        <time>2024-08-01T08:59:27Z</time>
      </trkpt>
      <trkpt lat="43.49619" lon="1.24529">
        <ele>184</ele>
        <time>2024-08-01T08:59:28Z</time>
      </trkpt>
      <trkpt lat="43.49627" lon="1.24531">
        <ele>183.8</ele>
        <time>2024-08-01T08:59:29Z</time>
      </trkpt>
      <trkpt lat="43.49635" lon="1.24532">
        <ele>183.8</ele>
        <time>2024-08-01T08:59:30Z</time>
      </trkpt>
      <trkpt lat="43.49643" lon="1.24534">
        <ele>183.8</ele>
        <time>2024-08-01T08:59:31Z</time>
      </trkpt>
      <trkpt lat="43.49651" lon="1.24536">
        <ele>183.8</ele>
        <time>2024-08-01T08:59:32Z</time>
      </trkpt>
      <trkpt lat="43.49659" lon="1.24538">
        <ele>183.8</ele>
        <time>2024-08-01T08:59:33Z</time>
      </trkpt>
      <trkpt lat="43.49667" lon="1.24539">
        <ele>183.8</ele>
        <time>2024-08-01T08:59:34Z</time>
      </trkpt>
      <trkpt lat="43.49675" lon="1.24541">
        <ele>183.8</ele>
        <time>2024-08-01T08:59:35Z</time>
      </trkpt>
      <trkpt lat="43.49683" lon="1.24543">
        <ele>183.8</ele>
        <time>2024-08-01T08:59:36Z</time>
      </trkpt>
      <trkpt lat="43.49691" lon="1.24545">
        <ele>183.8</ele>
        <time>2024-08-01T08:59:37Z</time>
      </trkpt>
      <trkpt lat="43.49698" lon="1.24546">
        <ele>183.8</ele>
        <time>2024-08-01T08:59:38Z</time>
      </trkpt>
      <trkpt lat="43.49706" lon="1.24548">
        <ele>183.8</ele>
        <time>2024-08-01T08:59:39Z</time>
      </trkpt>
      <trkpt lat="43.49714" lon="1.24551">
        <ele>183.8</ele>
        <time>2024-08-01T08:59:40Z</time>
      </trkpt>
      <trkpt lat="43.49721" lon="1.24553">
        <ele>183.8</ele>
        <time>2024-08-01T08:59:41Z</time>
      </trkpt>
      <trkpt lat="43.49729" lon="1.24555">
        <ele>183.8</ele>
        <time>2024-08-01T08:59:42Z</time>
      </trkpt>
      <trkpt lat="43.49736" lon="1.24558">
        <ele>183.6</ele>
        <time>2024-08-01T08:59:43Z</time>
      </trkpt>
      <trkpt lat="43.49742" lon="1.2456">
        <ele>183.6</ele>
        <time>2024-08-01T08:59:44Z</time>
      </trkpt>
      <trkpt lat="43.4975" lon="1.24563">
        <ele>183.6</ele>
        <time>2024-08-01T08:59:45Z</time>
      </trkpt>
      <trkpt lat="43.49757" lon="1.24567">
        <ele>183.6</ele>
        <time>2024-08-01T08:59:46Z</time>
      </trkpt>
      <trkpt lat="43.49764" lon="1.24571">
        <ele>183.6</ele>
        <time>2024-08-01T08:59:47Z</time>
      </trkpt>
      <trkpt lat="43.49772" lon="1.24577">
        <ele>183.4</ele>
        <time>2024-08-01T08:59:48Z</time>
      </trkpt>
      <trkpt lat="43.49779" lon="1.24582">
        <ele>183.4</ele>
        <time>2024-08-01T08:59:49Z</time>
      </trkpt>
      <trkpt lat="43.49785" lon="1.24587">
        <ele>183.4</ele>
        <time>2024-08-01T08:59:50Z</time>
      </trkpt>
      <trkpt lat="43.49792" lon="1.24592">
        <ele>183.4</ele>
        <time>2024-08-01T08:59:51Z</time>
      </trkpt>
      <trkpt lat="43.49799" lon="1.24597">
        <ele>183.4</ele>
        <time>2024-08-01T08:59:52Z</time>
      </trkpt>
      <trkpt lat="43.49806" lon="1.24603">
        <ele>183.4</ele>
        <time>2024-08-01T08:59:53Z</time>
      </trkpt>
      <trkpt lat="43.49813" lon="1.24608">
        <ele>183.2</ele>
        <time>2024-08-01T08:59:54Z</time>
      </trkpt>
      <trkpt lat="43.4982" lon="1.24613">
        <ele>183.2</ele>
        <time>2024-08-01T08:59:55Z</time>
      </trkpt>
      <trkpt lat="43.49827" lon="1.24618">
        <ele>183.2</ele>
        <time>2024-08-01T08:59:56Z</time>
      </trkpt>
      <trkpt lat="43.49833" lon="1.24623">
        <ele>183.2</ele>
        <time>2024-08-01T08:59:57Z</time>
      </trkpt>
      <trkpt lat="43.4984" lon="1.24628">
        <ele>183.2</ele>
        <time>2024-08-01T08:59:58Z</time>
      </trkpt>
      <trkpt lat="43.49847" lon="1.24633">
        <ele>183.2</ele>
        <time>2024-08-01T08:59:59Z</time>
      </trkpt>
      <trkpt lat="43.49854" lon="1.24638">
        <ele>183.2</ele>
        <time>2024-08-01T09:00:00Z</time>
      </trkpt>
      <trkpt lat="43.4986" lon="1.24642">
        <ele>183.2</ele>
        <time>2024-08-01T09:00:01Z</time>
      </trkpt>
      <trkpt lat="43.49867" lon="1.24646">
        <ele>183.2</ele>
        <time>2024-08-01T09:00:02Z</time>
      </trkpt>
      <trkpt lat="43.49874" lon="1.2465">
        <ele>183.2</ele>
        <time>2024-08-01T09:00:03Z</time>
      </trkpt>
      <trkpt lat="43.4988" lon="1.24654">
        <ele>183.2</ele>
        <time>2024-08-01T09:00:04Z</time>
      </trkpt>
      <trkpt lat="43.49887" lon="1.24659">
        <ele>183.2</ele>
        <time>2024-08-01T09:00:05Z</time>
      </trkpt>
      <trkpt lat="43.49894" lon="1.24662">
        <ele>183</ele>
        <time>2024-08-01T09:00:06Z</time>
      </trkpt>
      <trkpt lat="43.49901" lon="1.24666">
        <ele>183</ele>
        <time>2024-08-01T09:00:07Z</time>
      </trkpt>
      <trkpt lat="43.49908" lon="1.2467">
        <ele>183</ele>
        <time>2024-08-01T09:00:08Z</time>
      </trkpt>
      <trkpt lat="43.49915" lon="1.24674">
        <ele>183</ele>
        <time>2024-08-01T09:00:09Z</time>
      </trkpt>
      <trkpt lat="43.49922" lon="1.24677">
        <ele>183</ele>
        <time>2024-08-01T09:00:10Z</time>
      </trkpt>
      <trkpt lat="43.49929" lon="1.2468">
        <ele>183</ele>
        <time>2024-08-01T09:00:11Z</time>
      </trkpt>
      <trkpt lat="43.49937" lon="1.24683">
        <ele>183</ele>
        <time>2024-08-01T09:00:12Z</time>
      </trkpt>
      <trkpt lat="43.49945" lon="1.24685">
        <ele>183</ele>
        <time>2024-08-01T09:00:13Z</time>
      </trkpt>
      <trkpt lat="43.49953" lon="1.24688">
        <ele>183</ele>
        <time>2024-08-01T09:00:14Z</time>
      </trkpt>
      <trkpt lat="43.49961" lon="1.2469">
        <ele>183</ele>
        <time>2024-08-01T09:00:15Z</time>
      </trkpt>
      <trkpt lat="43.49969" lon="1.24693">
        <ele>183</ele>
        <time>2024-08-01T09:00:16Z</time>
      </trkpt>
      <trkpt lat="43.49977" lon="1.24695">
        <ele>183</ele>
        <time>2024-08-01T09:00:17Z</time>
      </trkpt>
      <trkpt lat="43.49984" lon="1.24697">
        <ele>183</ele>
        <time>2024-08-01T09:00:18Z</time>
      </trkpt>
      <trkpt lat="43.49992" lon="1.247">
        <ele>183</ele>
        <time>2024-08-01T09:00:19Z</time>
      </trkpt>
      <trkpt lat="43.5" lon="1.24702">
        <ele>182.8</ele>
        <time>2024-08-01T09:00:20Z</time>
      </trkpt>
      <trkpt lat="43.50008" lon="1.24704">
        <ele>182.8</ele>
        <time>2024-08-01T09:00:21Z</time>
      </trkpt>
      <trkpt lat="43.50015" lon="1.24707">
        <ele>182.8</ele>
        <time>2024-08-01T09:00:22Z</time>
      </trkpt>
      <trkpt lat="43.50023" lon="1.24709">
        <ele>182.6</ele>
        <time>2024-08-01T09:00:23Z</time>
      </trkpt>
      <trkpt lat="43.5003" lon="1.24712">
        <ele>182.6</ele>
        <time>2024-08-01T09:00:24Z</time>
      </trkpt>
      <trkpt lat="43.50037" lon="1.24714">
        <ele>182.4</ele>
        <time>2024-08-01T09:00:25Z</time>
      </trkpt>
      <trkpt lat="43.50044" lon="1.24716">
        <ele>182.4</ele>
        <time>2024-08-01T09:00:26Z</time>
      </trkpt>
      <trkpt lat="43.50051" lon="1.24718">
        <ele>182.4</ele>
        <time>2024-08-01T09:00:27Z</time>
      </trkpt>
      <trkpt lat="43.50058" lon="1.24721">
        <ele>182.4</ele>
        <time>2024-08-01T09:00:28Z</time>
      </trkpt>
      <trkpt lat="43.50065" lon="1.24723">
        <ele>182.4</ele>
        <time>2024-08-01T09:00:29Z</time>
      </trkpt>
      <trkpt lat="43.50072" lon="1.24725">
        <ele>182.4</ele>
        <time>2024-08-01T09:00:30Z</time>
      </trkpt>
      <trkpt lat="43.50079" lon="1.24727">
        <ele>182.4</ele>
        <time>2024-08-01T09:00:31Z</time>
      </trkpt>
      <trkpt lat="43.50086" lon="1.2473">
        <ele>182.4</ele>
        <time>2024-08-01T09:00:32Z</time>
      </trkpt>
      <trkpt lat="43.50093" lon="1.24732">
        <ele>182.4</ele>
        <time>2024-08-01T09:00:33Z</time>
      </trkpt>
      <trkpt lat="43.501" lon="1.24734">
        <ele>182.6</ele>
        <time>2024-08-01T09:00:34Z</time>
      </trkpt>
      <trkpt lat="43.50108" lon="1.24736">
        <ele>182.4</ele>
        <time>2024-08-01T09:00:35Z</time>
      </trkpt>
      <trkpt lat="43.50115" lon="1.24738">
        <ele>182.4</ele>
        <time>2024-08-01T09:00:36Z</time>
      </trkpt>
      <trkpt lat="43.50122" lon="1.2474">
        <ele>182.4</ele>
        <time>2024-08-01T09:00:37Z</time>
      </trkpt>
      <trkpt lat="43.50129" lon="1.24742">
        <ele>182.4</ele>
        <time>2024-08-01T09:00:38Z</time>
      </trkpt>
      <trkpt lat="43.50137" lon="1.24745">
        <ele>182.4</ele>
        <time>2024-08-01T09:00:39Z</time>
      </trkpt>
      <trkpt lat="43.50144" lon="1.24747">
        <ele>182.4</ele>
        <time>2024-08-01T09:00:40Z</time>
      </trkpt>
      <trkpt lat="43.50151" lon="1.24749">
        <ele>182.4</ele>
        <time>2024-08-01T09:00:41Z</time>
      </trkpt>
      <trkpt lat="43.50159" lon="1.24751">
        <ele>182.4</ele>
        <time>2024-08-01T09:00:42Z</time>
      </trkpt>
      <trkpt lat="43.50166" lon="1.24753">
        <ele>182.2</ele>
        <time>2024-08-01T09:00:43Z</time>
      </trkpt>
      <trkpt lat="43.50174" lon="1.24756">
        <ele>182.2</ele>
        <time>2024-08-01T09:00:44Z</time>
      </trkpt>
      <trkpt lat="43.50181" lon="1.24758">
        <ele>182.2</ele>
        <time>2024-08-01T09:00:45Z</time>
      </trkpt>
      <trkpt lat="43.50188" lon="1.2476">
        <ele>182.2</ele>
        <time>2024-08-01T09:00:46Z</time>
      </trkpt>
      <trkpt lat="43.50195" lon="1.24763">
        <ele>182.2</ele>
        <time>2024-08-01T09:00:47Z</time>
      </trkpt>
      <trkpt lat="43.50202" lon="1.24765">
        <ele>182</ele>
        <time>2024-08-01T09:00:48Z</time>
      </trkpt>
      <trkpt lat="43.50209" lon="1.24767">
        <ele>182</ele>
        <time>2024-08-01T09:00:49Z</time>
      </trkpt>
      <trkpt lat="43.50216" lon="1.24769">
        <ele>182</ele>
        <time>2024-08-01T09:00:50Z</time>
      </trkpt>
      <trkpt lat="43.50223" lon="1.24771">
        <ele>181.8</ele>
        <time>2024-08-01T09:00:51Z</time>
      </trkpt>
      <trkpt lat="43.5023" lon="1.24773">
        <ele>181.8</ele>
        <time>2024-08-01T09:00:52Z</time>
      </trkpt>
      <trkpt lat="43.50237" lon="1.24775">
        <ele>181.8</ele>
        <time>2024-08-01T09:00:53Z</time>
      </trkpt>
      <trkpt lat="43.50244" lon="1.24777">
        <ele>181.8</ele>
        <time>2024-08-01T09:00:54Z</time>
      </trkpt>
      <trkpt lat="43.50251" lon="1.24779">
        <ele>181.8</ele>
        <time>2024-08-01T09:00:55Z</time>
      </trkpt>
      <trkpt lat="43.50258" lon="1.24782">
        <ele>181.8</ele>
        <time>2024-08-01T09:00:56Z</time>
      </trkpt>
      <trkpt lat="43.50265" lon="1.24784">
        <ele>181.8</ele>
        <time>2024-08-01T09:00:57Z</time>
      </trkpt>
      <trkpt lat="43.50272" lon="1.24786">
        <ele>182</ele>
        <time>2024-08-01T09:00:58Z</time>
      </trkpt>
      <trkpt lat="43.50278" lon="1.24788">
        <ele>182</ele>
        <time>2024-08-01T09:00:59Z</time>
      </trkpt>
      <trkpt lat="43.50285" lon="1.2479">
        <ele>182</ele>
        <time>2024-08-01T09:01:00Z</time>
      </trkpt>
      <trkpt lat="43.50291" lon="1.24793">
        <ele>182</ele>
        <time>2024-08-01T09:01:01Z</time>
      </trkpt>
      <trkpt lat="43.50298" lon="1.24795">
        <ele>182</ele>
        <time>2024-08-01T09:01:02Z</time>
      </trkpt>
      <trkpt lat="43.50304" lon="1.24797">
        <ele>182</ele>
        <time>2024-08-01T09:01:03Z</time>
      </trkpt>
      <trkpt lat="43.5031" lon="1.24798">
        <ele>182</ele>
        <time>2024-08-01T09:01:04Z</time>
      </trkpt>
      <trkpt lat="43.50317" lon="1.248">
        <ele>182</ele>
        <time>2024-08-01T09:01:05Z</time>
      </trkpt>
      <trkpt lat="43.50323" lon="1.24802">
        <ele>182</ele>
        <time>2024-08-01T09:01:06Z</time>
      </trkpt>
      <trkpt lat="43.50329" lon="1.24804">
        <ele>182</ele>
        <time>2024-08-01T09:01:07Z</time>
      </trkpt>
      <trkpt lat="43.50335" lon="1.24806">
        <ele>182</ele>
        <time>2024-08-01T09:01:08Z</time>
      </trkpt>
      <trkpt lat="43.5034" lon="1.24808">
        <ele>182</ele>
        <time>2024-08-01T09:01:09Z</time>
      </trkpt>
      <trkpt lat="43.50346" lon="1.2481">
        <ele>182</ele>
        <time>2024-08-01T09:01:10Z</time>
      </trkpt>
      <trkpt lat="43.50352" lon="1.24811">
        <ele>181.8</ele>
        <time>2024-08-01T09:01:11Z</time>
      </trkpt>
      <trkpt lat="43.50358" lon="1.24812">
        <ele>181.8</ele>
        <time>2024-08-01T09:01:12Z</time>
      </trkpt>
      <trkpt lat="43.50363" lon="1.24814">
        <ele>181.8</ele>
        <time>2024-08-01T09:01:13Z</time>
      </trkpt>
      <trkpt lat="43.50369" lon="1.24815">
        <ele>181.8</ele>
        <time>2024-08-01T09:01:14Z</time>
      </trkpt>
      <trkpt lat="43.50374" lon="1.24817">
        <ele>182</ele>
        <time>2024-08-01T09:01:15Z</time>
      </trkpt>
      <trkpt lat="43.50379" lon="1.24819">
        <ele>181.8</ele>
        <time>2024-08-01T09:01:16Z</time>
      </trkpt>
      <trkpt lat="43.50384" lon="1.24821">
        <ele>181.8</ele>
        <time>2024-08-01T09:01:17Z</time>
      </trkpt>
      <trkpt lat="43.5039" lon="1.24823">
        <ele>181.8</ele>
        <time>2024-08-01T09:01:18Z</time>
      </trkpt>
      <trkpt lat="43.50395" lon="1.24824">
        <ele>181.8</ele>
        <time>2024-08-01T09:01:19Z</time>
      </trkpt>
      <trkpt lat="43.504" lon="1.24826">
        <ele>181.8</ele>
        <time>2024-08-01T09:01:20Z</time>
      </trkpt>
      <trkpt lat="43.50405" lon="1.24828">
        <ele>181.8</ele>
        <time>2024-08-01T09:01:21Z</time>
      </trkpt>
      <trkpt lat="43.5041" lon="1.2483">
        <ele>181.6</ele>
        <time>2024-08-01T09:01:22Z</time>
      </trkpt>
      <trkpt lat="43.50414" lon="1.24832">
        <ele>181.6</ele>
        <time>2024-08-01T09:01:23Z</time>
      </trkpt>
      <trkpt lat="43.50417" lon="1.24834">
        <ele>181.6</ele>
        <time>2024-08-01T09:01:24Z</time>
      </trkpt>
      <trkpt lat="43.5042" lon="1.24836">
        <ele>181.6</ele>
        <time>2024-08-01T09:01:25Z</time>
      </trkpt>
      <trkpt lat="43.50423" lon="1.24837">
        <ele>181.6</ele>
        <time>2024-08-01T09:01:26Z</time>
      </trkpt>
      <trkpt lat="43.50426" lon="1.24838">
        <ele>181.6</ele>
        <time>2024-08-01T09:01:27Z</time>
      </trkpt>
      <trkpt lat="43.5043" lon="1.24839">
        <ele>181.6</ele>
        <time>2024-08-01T09:01:28Z</time>
      </trkpt>
      <trkpt lat="43.50434" lon="1.24838">
        <ele>181.6</ele>
        <time>2024-08-01T09:01:29Z</time>
      </trkpt>
      <trkpt lat="43.50439" lon="1.24839">
        <ele>181.6</ele>
        <time>2024-08-01T09:01:30Z</time>
      </trkpt>
      <trkpt lat="43.50444" lon="1.24839">
        <ele>181.8</ele>
        <time>2024-08-01T09:01:31Z</time>
      </trkpt>
      <trkpt lat="43.50449" lon="1.2484">
        <ele>181.8</ele>
        <time>2024-08-01T09:01:32Z</time>
      </trkpt>
      <trkpt lat="43.50455" lon="1.24841">
        <ele>181.8</ele>
        <time>2024-08-01T09:01:33Z</time>
      </trkpt>
      <trkpt lat="43.50461" lon="1.24843">
        <ele>181.8</ele>
        <time>2024-08-01T09:01:34Z</time>
      </trkpt>
      <trkpt lat="43.50467" lon="1.24845">
        <ele>181.8</ele>
        <time>2024-08-01T09:01:35Z</time>
      </trkpt>
      <trkpt lat="43.50473" lon="1.24846">
        <ele>181.8</ele>
        <time>2024-08-01T09:01:36Z</time>
      </trkpt>
      <trkpt lat="43.50481" lon="1.24849">
        <ele>181.6</ele>
        <time>2024-08-01T09:01:37Z</time>
      </trkpt>
      <trkpt lat="43.50488" lon="1.24851">
        <ele>181.8</ele>
        <time>2024-08-01T09:01:38Z</time>
      </trkpt>
      <trkpt lat="43.50494" lon="1.24853">
        <ele>181.4</ele>
        <time>2024-08-01T09:01:39Z</time>
      </trkpt>
      <trkpt lat="43.50501" lon="1.24855">
        <ele>181.6</ele>
        <time>2024-08-01T09:01:40Z</time>
      </trkpt>
      <trkpt lat="43.50508" lon="1.24858">
        <ele>181.4</ele>
        <time>2024-08-01T09:01:41Z</time>
      </trkpt>
      <trkpt lat="43.50515" lon="1.2486">
        <ele>181.4</ele>
        <time>2024-08-01T09:01:42Z</time>
      </trkpt>
      <trkpt lat="43.50522" lon="1.24862">
        <ele>181.4</ele>
        <time>2024-08-01T09:01:43Z</time>
      </trkpt>
      <trkpt lat="43.50529" lon="1.24865">
        <ele>181.4</ele>
        <time>2024-08-01T09:01:44Z</time>
      </trkpt>
      <trkpt lat="43.50536" lon="1.24867">
        <ele>181.4</ele>
        <time>2024-08-01T09:01:45Z</time>
      </trkpt>
      <trkpt lat="43.50543" lon="1.24869">
        <ele>181.4</ele>
        <time>2024-08-01T09:01:46Z</time>
      </trkpt>
      <trkpt lat="43.5055" lon="1.24872">
        <ele>181.4</ele>
        <time>2024-08-01T09:01:47Z</time>
      </trkpt>
      <trkpt lat="43.50557" lon="1.24875">
        <ele>181.4</ele>
        <time>2024-08-01T09:01:48Z</time>
      </trkpt>
      <trkpt lat="43.50565" lon="1.24877">
        <ele>181.4</ele>
        <time>2024-08-01T09:01:49Z</time>
      </trkpt>
      <trkpt lat="43.50572" lon="1.2488">
        <ele>181.4</ele>
        <time>2024-08-01T09:01:50Z</time>
      </trkpt>
      <trkpt lat="43.5058" lon="1.24883">
        <ele>181.4</ele>
        <time>2024-08-01T09:01:51Z</time>
      </trkpt>
      <trkpt lat="43.50587" lon="1.24886">
        <ele>181.4</ele>
        <time>2024-08-01T09:01:52Z</time>
      </trkpt>
      <trkpt lat="43.50595" lon="1.24889">
        <ele>181.4</ele>
        <time>2024-08-01T09:01:53Z</time>
      </trkpt>
      <trkpt lat="43.50602" lon="1.24892">
        <ele>181.4</ele>
        <time>2024-08-01T09:01:54Z</time>
      </trkpt>
      <trkpt lat="43.5061" lon="1.24895">
        <ele>181.4</ele>
        <time>2024-08-01T09:01:55Z</time>
      </trkpt>
      <trkpt lat="43.50617" lon="1.24898">
        <ele>181.4</ele>
        <time>2024-08-01T09:01:56Z</time>
      </trkpt>
      <trkpt lat="43.50625" lon="1.24901">
        <ele>181.4</ele>
        <time>2024-08-01T09:01:57Z</time>
      </trkpt>
      <trkpt lat="43.50633" lon="1.24904">
        <ele>181.4</ele>
        <time>2024-08-01T09:01:58Z</time>
      </trkpt>
      <trkpt lat="43.5064" lon="1.24907">
        <ele>181.4</ele>
        <time>2024-08-01T09:01:59Z</time>
      </trkpt>
      <trkpt lat="43.50648" lon="1.2491">
        <ele>181.4</ele>
        <time>2024-08-01T09:02:00Z</time>
      </trkpt>
      <trkpt lat="43.50656" lon="1.24913">
        <ele>181.4</ele>
        <time>2024-08-01T09:02:01Z</time>
      </trkpt>
      <trkpt lat="43.50663" lon="1.24916">
        <ele>181.4</ele>
        <time>2024-08-01T09:02:02Z</time>
      </trkpt>
      <trkpt lat="43.50671" lon="1.2492">
        <ele>181.4</ele>
        <time>2024-08-01T09:02:03Z</time>
      </trkpt>
      <trkpt lat="43.50678" lon="1.24922">
        <ele>181.4</ele>
        <time>2024-08-01T09:02:04Z</time>
      </trkpt>
      <trkpt lat="43.50686" lon="1.24926">
        <ele>181.4</ele>
        <time>2024-08-01T09:02:05Z</time>
      </trkpt>
      <trkpt lat="43.50694" lon="1.24929">
        <ele>181.4</ele>
        <time>2024-08-01T09:02:06Z</time>
      </trkpt>
      <trkpt lat="43.50702" lon="1.24932">
        <ele>181.4</ele>
        <time>2024-08-01T09:02:07Z</time>
      </trkpt>
      <trkpt lat="43.5071" lon="1.24935">
        <ele>181.4</ele>
        <time>2024-08-01T09:02:08Z</time>
      </trkpt>
      <trkpt lat="43.50718" lon="1.24938">
        <ele>181.4</ele>
        <time>2024-08-01T09:02:09Z</time>
      </trkpt>
      <trkpt lat="43.50725" lon="1.24941">
        <ele>181.4</ele>
        <time>2024-08-01T09:02:10Z</time>
      </trkpt>
      <trkpt lat="43.50733" lon="1.24944">
        <ele>181.2</ele>
        <time>2024-08-01T09:02:11Z</time>
      </trkpt>
      <trkpt lat="43.50741" lon="1.24948">
        <ele>181.2</ele>
        <time>2024-08-01T09:02:12Z</time>
      </trkpt>
      <trkpt lat="43.50749" lon="1.24951">
        <ele>181.2</ele>
        <time>2024-08-01T09:02:13Z</time>
      </trkpt>
      <trkpt lat="43.50757" lon="1.24954">
        <ele>181.2</ele>
        <time>2024-08-01T09:02:14Z</time>
      </trkpt>
      <trkpt lat="43.50765" lon="1.24957">
        <ele>181.2</ele>
        <time>2024-08-01T09:02:15Z</time>
      </trkpt>
      <trkpt lat="43.50773" lon="1.2496">
        <ele>181</ele>
        <time>2024-08-01T09:02:16Z</time>
      </trkpt>
      <trkpt lat="43.50781" lon="1.24963">
        <ele>181</ele>
        <time>2024-08-01T09:02:17Z</time>
      </trkpt>
      <trkpt lat="43.50789" lon="1.24966">
        <ele>181</ele>
        <time>2024-08-01T09:02:18Z</time>
      </trkpt>
      <trkpt lat="43.50797" lon="1.24969">
        <ele>181</ele>
        <time>2024-08-01T09:02:19Z</time>
      </trkpt>
      <trkpt lat="43.50805" lon="1.24972">
        <ele>181</ele>
        <time>2024-08-01T09:02:20Z</time>
      </trkpt>
      <trkpt lat="43.50813" lon="1.24974">
        <ele>181</ele>
        <time>2024-08-01T09:02:21Z</time>
      </trkpt>
      <trkpt lat="43.5082" lon="1.24977">
        <ele>181</ele>
        <time>2024-08-01T09:02:22Z</time>
      </trkpt>
      <trkpt lat="43.50828" lon="1.2498">
        <ele>181</ele>
        <time>2024-08-01T09:02:23Z</time>
      </trkpt>
      <trkpt lat="43.50835" lon="1.24983">
        <ele>181</ele>
        <time>2024-08-01T09:02:24Z</time>
      </trkpt>
      <trkpt lat="43.50843" lon="1.24985">
        <ele>181</ele>
        <time>2024-08-01T09:02:25Z</time>
      </trkpt>
      <trkpt lat="43.5085" lon="1.24988">
        <ele>181</ele>
        <time>2024-08-01T09:02:26Z</time>
      </trkpt>
      <trkpt lat="43.50857" lon="1.24991">
        <ele>180.8</ele>
        <time>2024-08-01T09:02:27Z</time>
      </trkpt>
      <trkpt lat="43.50864" lon="1.24993">
        <ele>180.8</ele>
        <time>2024-08-01T09:02:28Z</time>
      </trkpt>
      <trkpt lat="43.50871" lon="1.24996">
        <ele>180.8</ele>
        <time>2024-08-01T09:02:29Z</time>
      </trkpt>
      <trkpt lat="43.50878" lon="1.24998">
        <ele>180.8</ele>
        <time>2024-08-01T09:02:30Z</time>
      </trkpt>
      <trkpt lat="43.50885" lon="1.25">
        <ele>180.8</ele>
        <time>2024-08-01T09:02:31Z</time>
      </trkpt>
      <trkpt lat="43.50892" lon="1.25003">
        <ele>180.8</ele>
        <time>2024-08-01T09:02:32Z</time>
      </trkpt>
      <trkpt lat="43.50899" lon="1.25005">
        <ele>180.8</ele>
        <time>2024-08-01T09:02:33Z</time>
      </trkpt>
      <trkpt lat="43.50906" lon="1.25008">
        <ele>180.8</ele>
        <time>2024-08-01T09:02:34Z</time>
      </trkpt>
      <trkpt lat="43.50912" lon="1.25011">
        <ele>180.6</ele>
        <time>2024-08-01T09:02:35Z</time>
      </trkpt>
      <trkpt lat="43.50918" lon="1.25016">
        <ele>180.6</ele>
        <time>2024-08-01T09:02:36Z</time>
      </trkpt>
      <trkpt lat="43.50924" lon="1.25023">
        <ele>180.6</ele>
        <time>2024-08-01T09:02:37Z</time>
      </trkpt>
      <trkpt lat="43.50928" lon="1.25031">
        <ele>180.6</ele>
        <time>2024-08-01T09:02:38Z</time>
      </trkpt>
      <trkpt lat="43.50932" lon="1.2504">
        <ele>180.6</ele>
        <time>2024-08-01T09:02:39Z</time>
      </trkpt>
      <trkpt lat="43.50934" lon="1.25049">
        <ele>180.6</ele>
        <time>2024-08-01T09:02:40Z</time>
      </trkpt>
      <trkpt lat="43.50936" lon="1.25059">
        <ele>180.6</ele>
        <time>2024-08-01T09:02:41Z</time>
      </trkpt>
      <trkpt lat="43.50939" lon="1.25069">
        <ele>180.6</ele>
        <time>2024-08-01T09:02:42Z</time>
      </trkpt>
      <trkpt lat="43.50941" lon="1.25079">
        <ele>180.6</ele>
        <time>2024-08-01T09:02:43Z</time>
      </trkpt>
      <trkpt lat="43.50943" lon="1.25089">
        <ele>180.6</ele>
        <time>2024-08-01T09:02:44Z</time>
      </trkpt>
      <trkpt lat="43.50945" lon="1.25099">
        <ele>180.6</ele>
        <time>2024-08-01T09:02:45Z</time>
      </trkpt>
      <trkpt lat="43.50947" lon="1.25109">
        <ele>180.4</ele>
        <time>2024-08-01T09:02:46Z</time>
      </trkpt>
      <trkpt lat="43.50949" lon="1.25119">
        <ele>180.4</ele>
        <time>2024-08-01T09:02:47Z</time>
      </trkpt>
      <trkpt lat="43.50952" lon="1.25129">
        <ele>180.4</ele>
        <time>2024-08-01T09:02:48Z</time>
      </trkpt>
      <trkpt lat="43.50954" lon="1.25139">
        <ele>180.4</ele>
        <time>2024-08-01T09:02:49Z</time>
      </trkpt>
      <trkpt lat="43.50956" lon="1.25148">
        <ele>180.4</ele>
        <time>2024-08-01T09:02:50Z</time>
      </trkpt>
      <trkpt lat="43.50958" lon="1.25158">
        <ele>180.4</ele>
        <time>2024-08-01T09:02:51Z</time>
      </trkpt>
      <trkpt lat="43.50961" lon="1.25168">
        <ele>180.4</ele>
        <time>2024-08-01T09:02:52Z</time>
      </trkpt>
      <trkpt lat="43.50963" lon="1.25178">
        <ele>180.4</ele>
        <time>2024-08-01T09:02:53Z</time>
      </trkpt>
      <trkpt lat="43.50965" lon="1.25187">
        <ele>180.4</ele>
        <time>2024-08-01T09:02:54Z</time>
      </trkpt>
      <trkpt lat="43.50967" lon="1.25197">
        <ele>180.4</ele>
        <time>2024-08-01T09:02:55Z</time>
      </trkpt>
      <trkpt lat="43.5097" lon="1.25206">
        <ele>180.4</ele>
        <time>2024-08-01T09:02:56Z</time>
      </trkpt>
      <trkpt lat="43.50972" lon="1.25216">
        <ele>180.2</ele>
        <time>2024-08-01T09:02:57Z</time>
      </trkpt>
      <trkpt lat="43.50974" lon="1.25225">
        <ele>180.2</ele>
        <time>2024-08-01T09:02:58Z</time>
      </trkpt>
      <trkpt lat="43.50976" lon="1.25235">
        <ele>180.2</ele>
        <time>2024-08-01T09:02:59Z</time>
      </trkpt>
      <trkpt lat="43.50978" lon="1.25245">
        <ele>180.4</ele>
        <time>2024-08-01T09:03:00Z</time>
      </trkpt>
      <trkpt lat="43.5098" lon="1.25255">
        <ele>180.4</ele>
        <time>2024-08-01T09:03:01Z</time>
      </trkpt>
      <trkpt lat="43.50983" lon="1.25265">
        <ele>180.4</ele>
        <time>2024-08-01T09:03:02Z</time>
      </trkpt>
      <trkpt lat="43.50985" lon="1.25275">
        <ele>180.4</ele>
        <time>2024-08-01T09:03:03Z</time>
      </trkpt>
      <trkpt lat="43.50987" lon="1.25284">
        <ele>180.4</ele>
        <time>2024-08-01T09:03:04Z</time>
      </trkpt>
      <trkpt lat="43.5099" lon="1.25294">
        <ele>180.4</ele>
        <time>2024-08-01T09:03:05Z</time>
      </trkpt>
      <trkpt lat="43.50992" lon="1.25305">
        <ele>180.4</ele>
        <time>2024-08-01T09:03:06Z</time>
      </trkpt>
      <trkpt lat="43.50995" lon="1.25315">
        <ele>180.4</ele>
        <time>2024-08-01T09:03:07Z</time>
      </trkpt>
      <trkpt lat="43.50997" lon="1.25325">
        <ele>180.2</ele>
        <time>2024-08-01T09:03:08Z</time>
      </trkpt>
      <trkpt lat="43.50999" lon="1.25335">
        <ele>180.2</ele>
        <time>2024-08-01T09:03:09Z</time>
      </trkpt>
      <trkpt lat="43.51001" lon="1.25345">
        <ele>180.2</ele>
        <time>2024-08-01T09:03:10Z</time>
      </trkpt>
      <trkpt lat="43.51003" lon="1.25354">
        <ele>180</ele>
        <time>2024-08-01T09:03:11Z</time>
      </trkpt>
      <trkpt lat="43.51005" lon="1.25364">
        <ele>180.2</ele>
        <time>2024-08-01T09:03:12Z</time>
      </trkpt>
      <trkpt lat="43.51008" lon="1.25373">
        <ele>180.2</ele>
        <time>2024-08-01T09:03:13Z</time>
      </trkpt>
      <trkpt lat="43.51011" lon="1.25383">
        <ele>180</ele>
        <time>2024-08-01T09:03:14Z</time>
      </trkpt>
      <trkpt lat="43.51015" lon="1.25391">
        <ele>180</ele>
        <time>2024-08-01T09:03:15Z</time>
      </trkpt>
      <trkpt lat="43.51021" lon="1.25398">
        <ele>180</ele>
        <time>2024-08-01T09:03:16Z</time>
      </trkpt>
      <trkpt lat="43.51027" lon="1.25404">
        <ele>180</ele>
        <time>2024-08-01T09:03:17Z</time>
      </trkpt>
      <trkpt lat="43.51034" lon="1.25408">
        <ele>180</ele>
        <time>2024-08-01T09:03:18Z</time>
      </trkpt>
      <trkpt lat="43.51041" lon="1.25413">
        <ele>180</ele>
        <time>2024-08-01T09:03:19Z</time>
      </trkpt>
      <trkpt lat="43.51048" lon="1.25416">
        <ele>180</ele>
        <time>2024-08-01T09:03:20Z</time>
      </trkpt>
      <trkpt lat="43.51055" lon="1.2542">
        <ele>180</ele>
        <time>2024-08-01T09:03:21Z</time>
      </trkpt>
      <trkpt lat="43.51063" lon="1.25424">
        <ele>180</ele>
        <time>2024-08-01T09:03:22Z</time>
      </trkpt>
      <trkpt lat="43.5107" lon="1.25427">
        <ele>180</ele>
        <time>2024-08-01T09:03:23Z</time>
      </trkpt>
      <trkpt lat="43.51077" lon="1.25431">
        <ele>180</ele>
        <time>2024-08-01T09:03:24Z</time>
      </trkpt>
      <trkpt lat="43.51084" lon="1.25435">
        <ele>180</ele>
        <time>2024-08-01T09:03:25Z</time>
      </trkpt>
      <trkpt lat="43.51092" lon="1.25439">
        <ele>180</ele>
        <time>2024-08-01T09:03:26Z</time>
      </trkpt>
      <trkpt lat="43.511" lon="1.25443">
        <ele>180</ele>
        <time>2024-08-01T09:03:27Z</time>
      </trkpt>
      <trkpt lat="43.51107" lon="1.25447">
        <ele>180</ele>
        <time>2024-08-01T09:03:28Z</time>
      </trkpt>
      <trkpt lat="43.51115" lon="1.25451">
        <ele>180</ele>
        <time>2024-08-01T09:03:29Z</time>
      </trkpt>
      <trkpt lat="43.51122" lon="1.25455">
        <ele>180</ele>
        <time>2024-08-01T09:03:30Z</time>
      </trkpt>
      <trkpt lat="43.5113" lon="1.25459">
        <ele>180</ele>
        <time>2024-08-01T09:03:31Z</time>
      </trkpt>
      <trkpt lat="43.51137" lon="1.25463">
        <ele>180</ele>
        <time>2024-08-01T09:03:32Z</time>
      </trkpt>
      <trkpt lat="43.51144" lon="1.25467">
        <ele>180</ele>
        <time>2024-08-01T09:03:33Z</time>
      </trkpt>
      <trkpt lat="43.51152" lon="1.25471">
        <ele>179.8</ele>
        <time>2024-08-01T09:03:34Z</time>
      </trkpt>
      <trkpt lat="43.51159" lon="1.25475">
        <ele>179.8</ele>
        <time>2024-08-01T09:03:35Z</time>
      </trkpt>
      <trkpt lat="43.51167" lon="1.25479">
        <ele>179.8</ele>
        <time>2024-08-01T09:03:36Z</time>
      </trkpt>
      <trkpt lat="43.51174" lon="1.25483">
        <ele>179.6</ele>
        <time>2024-08-01T09:03:37Z</time>
      </trkpt>
      <trkpt lat="43.51182" lon="1.25487">
        <ele>179.6</ele>
        <time>2024-08-01T09:03:38Z</time>
      </trkpt>
      <trkpt lat="43.51189" lon="1.25491">
        <ele>179.6</ele>
        <time>2024-08-01T09:03:39Z</time>
      </trkpt>
      <trkpt lat="43.51197" lon="1.25495">
        <ele>179.6</ele>
        <time>2024-08-01T09:03:40Z</time>
      </trkpt>
      <trkpt lat="43.51204" lon="1.25499">
        <ele>179.6</ele>
        <time>2024-08-01T09:03:41Z</time>
      </trkpt>
      <trkpt lat="43.51212" lon="1.25503">
        <ele>179.6</ele>
        <time>2024-08-01T09:03:42Z</time>
      </trkpt>
      <trkpt lat="43.5122" lon="1.25507">
        <ele>179.6</ele>
        <time>2024-08-01T09:03:43Z</time>
      </trkpt>
      <trkpt lat="43.51228" lon="1.25511">
        <ele>179.6</ele>
        <time>2024-08-01T09:03:44Z</time>
      </trkpt>
      <trkpt lat="43.51235" lon="1.25514">
        <ele>179.6</ele>
        <time>2024-08-01T09:03:45Z</time>
      </trkpt>
      <trkpt lat="43.51243" lon="1.25518">
        <ele>179.6</ele>
        <time>2024-08-01T09:03:46Z</time>
      </trkpt>
      <trkpt lat="43.51251" lon="1.25523">
        <ele>179.6</ele>
        <time>2024-08-01T09:03:47Z</time>
      </trkpt>
      <trkpt lat="43.51259" lon="1.25527">
        <ele>179.6</ele>
        <time>2024-08-01T09:03:48Z</time>
      </trkpt>
      <trkpt lat="43.51266" lon="1.25531">
        <ele>179.6</ele>
        <time>2024-08-01T09:03:49Z</time>
      </trkpt>
      <trkpt lat="43.51274" lon="1.25537">
        <ele>179.6</ele>
        <time>2024-08-01T09:03:50Z</time>
      </trkpt>
      <trkpt lat="43.51281" lon="1.25543">
        <ele>179.6</ele>
        <time>2024-08-01T09:03:51Z</time>
      </trkpt>
      <trkpt lat="43.51288" lon="1.25549">
        <ele>179.6</ele>
        <time>2024-08-01T09:03:52Z</time>
      </trkpt>
      <trkpt lat="43.51295" lon="1.25556">
        <ele>179.6</ele>
        <time>2024-08-01T09:03:53Z</time>
      </trkpt>
      <trkpt lat="43.51301" lon="1.25564">
        <ele>179.4</ele>
        <time>2024-08-01T09:03:54Z</time>
      </trkpt>
      <trkpt lat="43.51307" lon="1.25572">
        <ele>179.4</ele>
        <time>2024-08-01T09:03:55Z</time>
      </trkpt>
      <trkpt lat="43.51313" lon="1.2558">
        <ele>179.4</ele>
        <time>2024-08-01T09:03:56Z</time>
      </trkpt>
      <trkpt lat="43.51319" lon="1.25588">
        <ele>179.4</ele>
        <time>2024-08-01T09:03:57Z</time>
      </trkpt>
      <trkpt lat="43.51325" lon="1.25596">
        <ele>179.4</ele>
        <time>2024-08-01T09:03:58Z</time>
      </trkpt>
      <trkpt lat="43.51331" lon="1.25604">
        <ele>179.4</ele>
        <time>2024-08-01T09:03:59Z</time>
      </trkpt>
      <trkpt lat="43.51337" lon="1.25612">
        <ele>179.4</ele>
        <time>2024-08-01T09:04:00Z</time>
      </trkpt>
      <trkpt lat="43.51343" lon="1.2562">
        <ele>179.2</ele>
        <time>2024-08-01T09:04:01Z</time>
      </trkpt>
      <trkpt lat="43.51349" lon="1.25628">
        <ele>179.2</ele>
        <time>2024-08-01T09:04:02Z</time>
      </trkpt>
      <trkpt lat="43.51354" lon="1.25635">
        <ele>179.2</ele>
        <time>2024-08-01T09:04:03Z</time>
      </trkpt>
      <trkpt lat="43.5136" lon="1.25643">
        <ele>179</ele>
        <time>2024-08-01T09:04:04Z</time>
      </trkpt>
      <trkpt lat="43.51365" lon="1.25651">
        <ele>179</ele>
        <time>2024-08-01T09:04:05Z</time>
      </trkpt>
      <trkpt lat="43.51371" lon="1.25659">
        <ele>179</ele>
        <time>2024-08-01T09:04:06Z</time>
      </trkpt>
      <trkpt lat="43.51376" lon="1.25667">
        <ele>179</ele>
        <time>2024-08-01T09:04:07Z</time>
      </trkpt>
      <trkpt lat="43.51381" lon="1.25675">
        <ele>179</ele>
        <time>2024-08-01T09:04:08Z</time>
      </trkpt>
      <trkpt lat="43.51386" lon="1.25684">
        <ele>179</ele>
        <time>2024-08-01T09:04:09Z</time>
      </trkpt>
      <trkpt lat="43.51391" lon="1.25692">
        <ele>179</ele>
        <time>2024-08-01T09:04:10Z</time>
      </trkpt>
      <trkpt lat="43.51396" lon="1.25701">
        <ele>179</ele>
        <time>2024-08-01T09:04:11Z</time>
      </trkpt>
      <trkpt lat="43.51401" lon="1.2571">
        <ele>179</ele>
        <time>2024-08-01T09:04:12Z</time>
      </trkpt>
      <trkpt lat="43.51405" lon="1.25719">
        <ele>178.8</ele>
        <time>2024-08-01T09:04:13Z</time>
      </trkpt>
      <trkpt lat="43.5141" lon="1.25728">
        <ele>179</ele>
        <time>2024-08-01T09:04:14Z</time>
      </trkpt>
      <trkpt lat="43.51415" lon="1.25736">
        <ele>179</ele>
        <time>2024-08-01T09:04:15Z</time>
      </trkpt>
      <trkpt lat="43.5142" lon="1.25745">
        <ele>179</ele>
        <time>2024-08-01T09:04:16Z</time>
      </trkpt>
      <trkpt lat="43.51425" lon="1.25754">
        <ele>179</ele>
        <time>2024-08-01T09:04:17Z</time>
      </trkpt>
      <trkpt lat="43.5143" lon="1.25763">
        <ele>179</ele>
        <time>2024-08-01T09:04:18Z</time>
      </trkpt>
      <trkpt lat="43.51435" lon="1.25772">
        <ele>179</ele>
        <time>2024-08-01T09:04:19Z</time>
      </trkpt>
      <trkpt lat="43.5144" lon="1.25781">
        <ele>179</ele>
        <time>2024-08-01T09:04:20Z</time>
      </trkpt>
      <trkpt lat="43.51445" lon="1.2579">
        <ele>179</ele>
        <time>2024-08-01T09:04:21Z</time>
      </trkpt>
      <trkpt lat="43.5145" lon="1.258">
        <ele>179</ele>
        <time>2024-08-01T09:04:22Z</time>
      </trkpt>
      <trkpt lat="43.51455" lon="1.25808">
        <ele>179</ele>
        <time>2024-08-01T09:04:23Z</time>
      </trkpt>
      <trkpt lat="43.5146" lon="1.25818">
        <ele>179</ele>
        <time>2024-08-01T09:04:24Z</time>
      </trkpt>
      <trkpt lat="43.51465" lon="1.25827">
        <ele>179</ele>
        <time>2024-08-01T09:04:25Z</time>
      </trkpt>
      <trkpt lat="43.5147" lon="1.25835">
        <ele>179</ele>
        <time>2024-08-01T09:04:26Z</time>
      </trkpt>
      <trkpt lat="43.51475" lon="1.25844">
        <ele>179</ele>
        <time>2024-08-01T09:04:27Z</time>
      </trkpt>
      <trkpt lat="43.5148" lon="1.25853">
        <ele>179</ele>
        <time>2024-08-01T09:04:28Z</time>
      </trkpt>
      <trkpt lat="43.51484" lon="1.25862">
        <ele>179</ele>
        <time>2024-08-01T09:04:29Z</time>
      </trkpt>
      <trkpt lat="43.51489" lon="1.25871">
        <ele>179</ele>
        <time>2024-08-01T09:04:30Z</time>
      </trkpt>
      <trkpt lat="43.51494" lon="1.2588">
        <ele>179</ele>
        <time>2024-08-01T09:04:31Z</time>
      </trkpt>
      <trkpt lat="43.51499" lon="1.25889">
        <ele>179</ele>
        <time>2024-08-01T09:04:32Z</time>
      </trkpt>
      <trkpt lat="43.51504" lon="1.25898">
        <ele>179</ele>
        <time>2024-08-01T09:04:33Z</time>
      </trkpt>
      <trkpt lat="43.51509" lon="1.25907">
        <ele>179</ele>
        <time>2024-08-01T09:04:34Z</time>
      </trkpt>
      <trkpt lat="43.51514" lon="1.25915">
        <ele>179</ele>
        <time>2024-08-01T09:04:35Z</time>
      </trkpt>
      <trkpt lat="43.51519" lon="1.25924">
        <ele>179</ele>
        <time>2024-08-01T09:04:36Z</time>
      </trkpt>
      <trkpt lat="43.51524" lon="1.25933">
        <ele>179</ele>
        <time>2024-08-01T09:04:37Z</time>
      </trkpt>
      <trkpt lat="43.51529" lon="1.25942">
        <ele>179</ele>
        <time>2024-08-01T09:04:38Z</time>
      </trkpt>
      <trkpt lat="43.51535" lon="1.25952">
        <ele>179</ele>
        <time>2024-08-01T09:04:39Z</time>
      </trkpt>
      <trkpt lat="43.5154" lon="1.25961">
        <ele>179</ele>
        <time>2024-08-01T09:04:40Z</time>
      </trkpt>
      <trkpt lat="43.51545" lon="1.2597">
        <ele>179</ele>
        <time>2024-08-01T09:04:41Z</time>
      </trkpt>
      <trkpt lat="43.5155" lon="1.25979">
        <ele>179</ele>
        <time>2024-08-01T09:04:42Z</time>
      </trkpt>
      <trkpt lat="43.51556" lon="1.25987">
        <ele>179</ele>
        <time>2024-08-01T09:04:43Z</time>
      </trkpt>
      <trkpt lat="43.51561" lon="1.25996">
        <ele>179</ele>
        <time>2024-08-01T09:04:44Z</time>
      </trkpt>
      <trkpt lat="43.51567" lon="1.26004">
        <ele>179</ele>
        <time>2024-08-01T09:04:45Z</time>
      </trkpt>
      <trkpt lat="43.51573" lon="1.26012">
        <ele>179.2</ele>
        <time>2024-08-01T09:04:46Z</time>
      </trkpt>
      <trkpt lat="43.51579" lon="1.2602">
        <ele>179.2</ele>
        <time>2024-08-01T09:04:47Z</time>
      </trkpt>
      <trkpt lat="43.51586" lon="1.26028">
        <ele>179.2</ele>
        <time>2024-08-01T09:04:48Z</time>
      </trkpt>
      <trkpt lat="43.51592" lon="1.26035">
        <ele>179.2</ele>
        <time>2024-08-01T09:04:49Z</time>
      </trkpt>
      <trkpt lat="43.51599" lon="1.26043">
        <ele>179.2</ele>
        <time>2024-08-01T09:04:50Z</time>
      </trkpt>
      <trkpt lat="43.51605" lon="1.26051">
        <ele>179</ele>
        <time>2024-08-01T09:04:51Z</time>
      </trkpt>
      <trkpt lat="43.51612" lon="1.26059">
        <ele>179</ele>
        <time>2024-08-01T09:04:52Z</time>
      </trkpt>
      <trkpt lat="43.51618" lon="1.26067">
        <ele>179</ele>
        <time>2024-08-01T09:04:53Z</time>
      </trkpt>
      <trkpt lat="43.51625" lon="1.26074">
        <ele>179</ele>
        <time>2024-08-01T09:04:54Z</time>
      </trkpt>
      <trkpt lat="43.51632" lon="1.26082">
        <ele>179</ele>
        <time>2024-08-01T09:04:55Z</time>
      </trkpt>
      <trkpt lat="43.51638" lon="1.26089">
        <ele>178.8</ele>
        <time>2024-08-01T09:04:56Z</time>
      </trkpt>
      <trkpt lat="43.51644" lon="1.26097">
        <ele>178.8</ele>
        <time>2024-08-01T09:04:57Z</time>
      </trkpt>
      <trkpt lat="43.51651" lon="1.26104">
        <ele>178.8</ele>
        <time>2024-08-01T09:04:58Z</time>
      </trkpt>
      <trkpt lat="43.51657" lon="1.26112">
        <ele>178.8</ele>
        <time>2024-08-01T09:04:59Z</time>
      </trkpt>
      <trkpt lat="43.51663" lon="1.2612">
        <ele>178.8</ele>
        <time>2024-08-01T09:05:00Z</time>
      </trkpt>
      <trkpt lat="43.5167" lon="1.26127">
        <ele>178.6</ele>
        <time>2024-08-01T09:05:01Z</time>
      </trkpt>
      <trkpt lat="43.51676" lon="1.26135">
        <ele>178.6</ele>
        <time>2024-08-01T09:05:02Z</time>
      </trkpt>
      <trkpt lat="43.51683" lon="1.26143">
        <ele>178.6</ele>
        <time>2024-08-01T09:05:03Z</time>
      </trkpt>
      <trkpt lat="43.51689" lon="1.2615">
        <ele>178.6</ele>
        <time>2024-08-01T09:05:04Z</time>
      </trkpt>
      <trkpt lat="43.51696" lon="1.26157">
        <ele>178.4</ele>
        <time>2024-08-01T09:05:05Z</time>
      </trkpt>
      <trkpt lat="43.51703" lon="1.26165">
        <ele>178.4</ele>
        <time>2024-08-01T09:05:06Z</time>
      </trkpt>
      <trkpt lat="43.51709" lon="1.26172">
        <ele>178.4</ele>
        <time>2024-08-01T09:05:07Z</time>
      </trkpt>
      <trkpt lat="43.51716" lon="1.2618">
        <ele>178.4</ele>
        <time>2024-08-01T09:05:08Z</time>
      </trkpt>
      <trkpt lat="43.51723" lon="1.26188">
        <ele>178.4</ele>
        <time>2024-08-01T09:05:09Z</time>
      </trkpt>
      <trkpt lat="43.51729" lon="1.26195">
        <ele>178.4</ele>
        <time>2024-08-01T09:05:10Z</time>
      </trkpt>
      <trkpt lat="43.51736" lon="1.26203">
        <ele>178.2</ele>
        <time>2024-08-01T09:05:11Z</time>
      </trkpt>
      <trkpt lat="43.51743" lon="1.2621">
        <ele>178.2</ele>
        <time>2024-08-01T09:05:12Z</time>
      </trkpt>
      <trkpt lat="43.51749" lon="1.26217">
        <ele>178.2</ele>
        <time>2024-08-01T09:05:13Z</time>
      </trkpt>
      <trkpt lat="43.51755" lon="1.26224">
        <ele>178.2</ele>
        <time>2024-08-01T09:05:14Z</time>
      </trkpt>
      <trkpt lat="43.51762" lon="1.26232">
        <ele>178.2</ele>
        <time>2024-08-01T09:05:15Z</time>
      </trkpt>
      <trkpt lat="43.51769" lon="1.26239">
        <ele>178.2</ele>
        <time>2024-08-01T09:05:16Z</time>
      </trkpt>
      <trkpt lat="43.51775" lon="1.26246">
        <ele>178</ele>
        <time>2024-08-01T09:05:17Z</time>
      </trkpt>
      <trkpt lat="43.51781" lon="1.26253">
        <ele>178</ele>
        <time>2024-08-01T09:05:18Z</time>
      </trkpt>
      <trkpt lat="43.51788" lon="1.2626">
        <ele>178</ele>
        <time>2024-08-01T09:05:19Z</time>
      </trkpt>
      <trkpt lat="43.51794" lon="1.26267">
        <ele>178</ele>
        <time>2024-08-01T09:05:20Z</time>
      </trkpt>
      <trkpt lat="43.518" lon="1.26274">
        <ele>178</ele>
        <time>2024-08-01T09:05:21Z</time>
      </trkpt>
      <trkpt lat="43.51807" lon="1.26281">
        <ele>177.8</ele>
        <time>2024-08-01T09:05:22Z</time>
      </trkpt>
      <trkpt lat="43.51813" lon="1.26286">
        <ele>177.8</ele>
        <time>2024-08-01T09:05:23Z</time>
      </trkpt>
      <trkpt lat="43.5182" lon="1.26291">
        <ele>177.8</ele>
        <time>2024-08-01T09:05:24Z</time>
      </trkpt>
      <trkpt lat="43.51827" lon="1.26296">
        <ele>177.8</ele>
        <time>2024-08-01T09:05:25Z</time>
      </trkpt>
      <trkpt lat="43.51835" lon="1.263">
        <ele>177.8</ele>
        <time>2024-08-01T09:05:26Z</time>
      </trkpt>
      <trkpt lat="43.51843" lon="1.26303">
        <ele>177.8</ele>
        <time>2024-08-01T09:05:27Z</time>
      </trkpt>
      <trkpt lat="43.51851" lon="1.26307">
        <ele>177.8</ele>
        <time>2024-08-01T09:05:28Z</time>
      </trkpt>
      <trkpt lat="43.51859" lon="1.2631">
        <ele>177.8</ele>
        <time>2024-08-01T09:05:29Z</time>
      </trkpt>
      <trkpt lat="43.51867" lon="1.26314">
        <ele>177.8</ele>
        <time>2024-08-01T09:05:30Z</time>
      </trkpt>
      <trkpt lat="43.51875" lon="1.26317">
        <ele>177.8</ele>
        <time>2024-08-01T09:05:31Z</time>
      </trkpt>
      <trkpt lat="43.51883" lon="1.2632">
        <ele>177.8</ele>
        <time>2024-08-01T09:05:32Z</time>
      </trkpt>
      <trkpt lat="43.51891" lon="1.26324">
        <ele>177.8</ele>
        <time>2024-08-01T09:05:33Z</time>
      </trkpt>
      <trkpt lat="43.51899" lon="1.26327">
        <ele>177.6</ele>
        <time>2024-08-01T09:05:34Z</time>
      </trkpt>
      <trkpt lat="43.51908" lon="1.26331">
        <ele>177.6</ele>
        <time>2024-08-01T09:05:35Z</time>
      </trkpt>
      <trkpt lat="43.51916" lon="1.26334">
        <ele>177.8</ele>
        <time>2024-08-01T09:05:36Z</time>
      </trkpt>
      <trkpt lat="43.51924" lon="1.26338">
        <ele>177.8</ele>
        <time>2024-08-01T09:05:37Z</time>
      </trkpt>
      <trkpt lat="43.51933" lon="1.26341">
        <ele>177.6</ele>
        <time>2024-08-01T09:05:38Z</time>
      </trkpt>
      <trkpt lat="43.51941" lon="1.26345">
        <ele>177.6</ele>
        <time>2024-08-01T09:05:39Z</time>
      </trkpt>
      <trkpt lat="43.51949" lon="1.26348">
        <ele>177.6</ele>
        <time>2024-08-01T09:05:40Z</time>
      </trkpt>
      <trkpt lat="43.51958" lon="1.26352">
        <ele>177.6</ele>
        <time>2024-08-01T09:05:41Z</time>
      </trkpt>
      <trkpt lat="43.51966" lon="1.26356">
        <ele>177.6</ele>
        <time>2024-08-01T09:05:42Z</time>
      </trkpt>
      <trkpt lat="43.51974" lon="1.2636">
        <ele>177.4</ele>
        <time>2024-08-01T09:05:43Z</time>
      </trkpt>
      <trkpt lat="43.51982" lon="1.26364">
        <ele>177.4</ele>
        <time>2024-08-01T09:05:44Z</time>
      </trkpt>
      <trkpt lat="43.51991" lon="1.26369">
        <ele>177.4</ele>
        <time>2024-08-01T09:05:45Z</time>
      </trkpt>
      <trkpt lat="43.51998" lon="1.26374">
        <ele>177.4</ele>
        <time>2024-08-01T09:05:46Z</time>
      </trkpt>
      <trkpt lat="43.52006" lon="1.26378">
        <ele>177.4</ele>
        <time>2024-08-01T09:05:47Z</time>
      </trkpt>
      <trkpt lat="43.52014" lon="1.26384">
        <ele>177.2</ele>
        <time>2024-08-01T09:05:48Z</time>
      </trkpt>
      <trkpt lat="43.52022" lon="1.26389">
        <ele>177.2</ele>
        <time>2024-08-01T09:05:49Z</time>
      </trkpt>
      <trkpt lat="43.52029" lon="1.26394">
        <ele>177.2</ele>
        <time>2024-08-01T09:05:50Z</time>
      </trkpt>
      <trkpt lat="43.52037" lon="1.26398">
        <ele>177.2</ele>
        <time>2024-08-01T09:05:51Z</time>
      </trkpt>
      <trkpt lat="43.52044" lon="1.26403">
        <ele>177.2</ele>
        <time>2024-08-01T09:05:52Z</time>
      </trkpt>
      <trkpt lat="43.52051" lon="1.26408">
        <ele>177.2</ele>
        <time>2024-08-01T09:05:53Z</time>
      </trkpt>
      <trkpt lat="43.52059" lon="1.26413">
        <ele>177</ele>
        <time>2024-08-01T09:05:54Z</time>
      </trkpt>
      <trkpt lat="43.52066" lon="1.26418">
        <ele>177</ele>
        <time>2024-08-01T09:05:55Z</time>
      </trkpt>
      <trkpt lat="43.52073" lon="1.26423">
        <ele>177</ele>
        <time>2024-08-01T09:05:56Z</time>
      </trkpt>
      <trkpt lat="43.52081" lon="1.26428">
        <ele>177</ele>
        <time>2024-08-01T09:05:57Z</time>
      </trkpt>
      <trkpt lat="43.52088" lon="1.26433">
        <ele>177</ele>
        <time>2024-08-01T09:05:58Z</time>
      </trkpt>
      <trkpt lat="43.52096" lon="1.26438">
        <ele>177</ele>
        <time>2024-08-01T09:05:59Z</time>
      </trkpt>
      <trkpt lat="43.52104" lon="1.26443">
        <ele>177</ele>
        <time>2024-08-01T09:06:00Z</time>
      </trkpt>
      <trkpt lat="43.52111" lon="1.26448">
        <ele>177</ele>
        <time>2024-08-01T09:06:01Z</time>
      </trkpt>
      <trkpt lat="43.52119" lon="1.26453">
        <ele>177</ele>
        <time>2024-08-01T09:06:02Z</time>
      </trkpt>
      <trkpt lat="43.52127" lon="1.26457">
        <ele>177</ele>
        <time>2024-08-01T09:06:03Z</time>
      </trkpt>
      <trkpt lat="43.52134" lon="1.26461">
        <ele>177</ele>
        <time>2024-08-01T09:06:04Z</time>
      </trkpt>
      <trkpt lat="43.52141" lon="1.26465">
        <ele>177</ele>
        <time>2024-08-01T09:06:05Z</time>
      </trkpt>
      <trkpt lat="43.52149" lon="1.26469">
        <ele>177</ele>
        <time>2024-08-01T09:06:06Z</time>
      </trkpt>
      <trkpt lat="43.52156" lon="1.26472">
        <ele>177</ele>
        <time>2024-08-01T09:06:07Z</time>
      </trkpt>
      <trkpt lat="43.52164" lon="1.26476">
        <ele>177</ele>
        <time>2024-08-01T09:06:08Z</time>
      </trkpt>
      <trkpt lat="43.52171" lon="1.2648">
        <ele>177</ele>
        <time>2024-08-01T09:06:09Z</time>
      </trkpt>
      <trkpt lat="43.52179" lon="1.26483">
        <ele>177</ele>
        <time>2024-08-01T09:06:10Z</time>
      </trkpt>
      <trkpt lat="43.52187" lon="1.26487">
        <ele>177</ele>
        <time>2024-08-01T09:06:11Z</time>
      </trkpt>
      <trkpt lat="43.52194" lon="1.26491">
        <ele>177</ele>
        <time>2024-08-01T09:06:12Z</time>
      </trkpt>
      <trkpt lat="43.52202" lon="1.26494">
        <ele>177</ele>
        <time>2024-08-01T09:06:13Z</time>
      </trkpt>
      <trkpt lat="43.5221" lon="1.26498">
        <ele>177</ele>
        <time>2024-08-01T09:06:14Z</time>
      </trkpt>
      <trkpt lat="43.52217" lon="1.26502">
        <ele>177</ele>
        <time>2024-08-01T09:06:15Z</time>
      </trkpt>
      <trkpt lat="43.52225" lon="1.26506">
        <ele>177</ele>
        <time>2024-08-01T09:06:16Z</time>
      </trkpt>
      <trkpt lat="43.52232" lon="1.2651">
        <ele>177</ele>
        <time>2024-08-01T09:06:17Z</time>
      </trkpt>
      <trkpt lat="43.5224" lon="1.26514">
        <ele>177</ele>
        <time>2024-08-01T09:06:18Z</time>
      </trkpt>
      <trkpt lat="43.52247" lon="1.26518">
        <ele>177</ele>
        <time>2024-08-01T09:06:19Z</time>
      </trkpt>
      <trkpt lat="43.52254" lon="1.26522">
        <ele>176.8</ele>
        <time>2024-08-01T09:06:20Z</time>
      </trkpt>
      <trkpt lat="43.52261" lon="1.26526">
        <ele>176.8</ele>
        <time>2024-08-01T09:06:21Z</time>
      </trkpt>
      <trkpt lat="43.52269" lon="1.26531">
        <ele>176.8</ele>
        <time>2024-08-01T09:06:22Z</time>
      </trkpt>
      <trkpt lat="43.52276" lon="1.26535">
        <ele>176.8</ele>
        <time>2024-08-01T09:06:23Z</time>
      </trkpt>
      <trkpt lat="43.52283" lon="1.26539">
        <ele>176.8</ele>
        <time>2024-08-01T09:06:24Z</time>
      </trkpt>
      <trkpt lat="43.5229" lon="1.26544">
        <ele>176.8</ele>
        <time>2024-08-01T09:06:25Z</time>
      </trkpt>
      <trkpt lat="43.52298" lon="1.26548">
        <ele>176.8</ele>
        <time>2024-08-01T09:06:26Z</time>
      </trkpt>
      <trkpt lat="43.52305" lon="1.26552">
        <ele>176.8</ele>
        <time>2024-08-01T09:06:27Z</time>
      </trkpt>
      <trkpt lat="43.52312" lon="1.26557">
        <ele>176.8</ele>
        <time>2024-08-01T09:06:28Z</time>
      </trkpt>
      <trkpt lat="43.52319" lon="1.26561">
        <ele>176.8</ele>
        <time>2024-08-01T09:06:29Z</time>
      </trkpt>
      <trkpt lat="43.52326" lon="1.26565">
        <ele>176.8</ele>
        <time>2024-08-01T09:06:30Z</time>
      </trkpt>
      <trkpt lat="43.52334" lon="1.26569">
        <ele>176.8</ele>
        <time>2024-08-01T09:06:31Z</time>
      </trkpt>
      <trkpt lat="43.52341" lon="1.26574">
        <ele>176.8</ele>
        <time>2024-08-01T09:06:32Z</time>
      </trkpt>
      <trkpt lat="43.52348" lon="1.26578">
        <ele>176.8</ele>
        <time>2024-08-01T09:06:33Z</time>
      </trkpt>
      <trkpt lat="43.52356" lon="1.26582">
        <ele>176.8</ele>
        <time>2024-08-01T09:06:34Z</time>
      </trkpt>
      <trkpt lat="43.52363" lon="1.26587">
        <ele>176.8</ele>
        <time>2024-08-01T09:06:35Z</time>
      </trkpt>
      <trkpt lat="43.52369" lon="1.26591">
        <ele>176.8</ele>
        <time>2024-08-01T09:06:36Z</time>
      </trkpt>
      <trkpt lat="43.52376" lon="1.26595">
        <ele>176.8</ele>
        <time>2024-08-01T09:06:37Z</time>
      </trkpt>
      <trkpt lat="43.52383" lon="1.26599">
        <ele>176.6</ele>
        <time>2024-08-01T09:06:38Z</time>
      </trkpt>
      <trkpt lat="43.52391" lon="1.26603">
        <ele>176.6</ele>
        <time>2024-08-01T09:06:39Z</time>
      </trkpt>
      <trkpt lat="43.52398" lon="1.26607">
        <ele>176.6</ele>
        <time>2024-08-01T09:06:40Z</time>
      </trkpt>
      <trkpt lat="43.52404" lon="1.26611">
        <ele>176.6</ele>
        <time>2024-08-01T09:06:41Z</time>
      </trkpt>
      <trkpt lat="43.52411" lon="1.26615">
        <ele>176.6</ele>
        <time>2024-08-01T09:06:42Z</time>
      </trkpt>
      <trkpt lat="43.52418" lon="1.26619">
        <ele>176.6</ele>
        <time>2024-08-01T09:06:43Z</time>
      </trkpt>
      <trkpt lat="43.52424" lon="1.26623">
        <ele>176.6</ele>
        <time>2024-08-01T09:06:44Z</time>
      </trkpt>
      <trkpt lat="43.52431" lon="1.26627">
        <ele>176.6</ele>
        <time>2024-08-01T09:06:45Z</time>
      </trkpt>
      <trkpt lat="43.52437" lon="1.26631">
        <ele>176.6</ele>
        <time>2024-08-01T09:06:46Z</time>
      </trkpt>
      <trkpt lat="43.52444" lon="1.26635">
        <ele>176.6</ele>
        <time>2024-08-01T09:06:47Z</time>
      </trkpt>
      <trkpt lat="43.5245" lon="1.26638">
        <ele>176.6</ele>
        <time>2024-08-01T09:06:48Z</time>
      </trkpt>
      <trkpt lat="43.52456" lon="1.26642">
        <ele>176.6</ele>
        <time>2024-08-01T09:06:49Z</time>
      </trkpt>
      <trkpt lat="43.52461" lon="1.26645">
        <ele>176.6</ele>
        <time>2024-08-01T09:06:50Z</time>
      </trkpt>
      <trkpt lat="43.52467" lon="1.26649">
        <ele>176.6</ele>
        <time>2024-08-01T09:06:51Z</time>
      </trkpt>
      <trkpt lat="43.52473" lon="1.26653">
        <ele>176.6</ele>
        <time>2024-08-01T09:06:52Z</time>
      </trkpt>
      <trkpt lat="43.52479" lon="1.26656">
        <ele>176.4</ele>
        <time>2024-08-01T09:06:53Z</time>
      </trkpt>
      <trkpt lat="43.52485" lon="1.2666">
        <ele>176.4</ele>
        <time>2024-08-01T09:06:54Z</time>
      </trkpt>
      <trkpt lat="43.52491" lon="1.26664">
        <ele>176.4</ele>
        <time>2024-08-01T09:06:55Z</time>
      </trkpt>
      <trkpt lat="43.52497" lon="1.26668">
        <ele>176.4</ele>
        <time>2024-08-01T09:06:56Z</time>
      </trkpt>
      <trkpt lat="43.52502" lon="1.26672">
        <ele>176.4</ele>
        <time>2024-08-01T09:06:57Z</time>
      </trkpt>
      <trkpt lat="43.52507" lon="1.26677">
        <ele>176.4</ele>
        <time>2024-08-01T09:06:58Z</time>
      </trkpt>
      <trkpt lat="43.52513" lon="1.26682">
        <ele>176.4</ele>
        <time>2024-08-01T09:06:59Z</time>
      </trkpt>
      <trkpt lat="43.52519" lon="1.26687">
        <ele>176.2</ele>
        <time>2024-08-01T09:07:00Z</time>
      </trkpt>
      <trkpt lat="43.52525" lon="1.26691">
        <ele>176.2</ele>
        <time>2024-08-01T09:07:01Z</time>
      </trkpt>
      <trkpt lat="43.52532" lon="1.26695">
        <ele>176.2</ele>
        <time>2024-08-01T09:07:02Z</time>
      </trkpt>
      <trkpt lat="43.52539" lon="1.26698">
        <ele>176</ele>
        <time>2024-08-01T09:07:03Z</time>
      </trkpt>
      <trkpt lat="43.52546" lon="1.26701">
        <ele>176</ele>
        <time>2024-08-01T09:07:04Z</time>
      </trkpt>
      <trkpt lat="43.52553" lon="1.26702">
        <ele>176</ele>
        <time>2024-08-01T09:07:05Z</time>
      </trkpt>
      <trkpt lat="43.5256" lon="1.26705">
        <ele>176</ele>
        <time>2024-08-01T09:07:06Z</time>
      </trkpt>
      <trkpt lat="43.52567" lon="1.26708">
        <ele>176</ele>
        <time>2024-08-01T09:07:07Z</time>
      </trkpt>
      <trkpt lat="43.52574" lon="1.26712">
        <ele>176</ele>
        <time>2024-08-01T09:07:08Z</time>
      </trkpt>
      <trkpt lat="43.52581" lon="1.26716">
        <ele>175.8</ele>
        <time>2024-08-01T09:07:09Z</time>
      </trkpt>
      <trkpt lat="43.52587" lon="1.2672">
        <ele>175.8</ele>
        <time>2024-08-01T09:07:10Z</time>
      </trkpt>
      <trkpt lat="43.52593" lon="1.26724">
        <ele>175.8</ele>
        <time>2024-08-01T09:07:11Z</time>
      </trkpt>
      <trkpt lat="43.52599" lon="1.26728">
        <ele>175.8</ele>
        <time>2024-08-01T09:07:12Z</time>
      </trkpt>
      <trkpt lat="43.52605" lon="1.26731">
        <ele>175.6</ele>
        <time>2024-08-01T09:07:13Z</time>
      </trkpt>
      <trkpt lat="43.52611" lon="1.26735">
        <ele>175.6</ele>
        <time>2024-08-01T09:07:14Z</time>
      </trkpt>
      <trkpt lat="43.52616" lon="1.26738">
        <ele>175.6</ele>
        <time>2024-08-01T09:07:15Z</time>
      </trkpt>
      <trkpt lat="43.52621" lon="1.26741">
        <ele>175.6</ele>
        <time>2024-08-01T09:07:17Z</time>
      </trkpt>
      <trkpt lat="43.52626" lon="1.26744">
        <ele>175.6</ele>
        <time>2024-08-01T09:07:18Z</time>
      </trkpt>
      <trkpt lat="43.52631" lon="1.26746">
        <ele>175.6</ele>
        <time>2024-08-01T09:07:19Z</time>
      </trkpt>
      <trkpt lat="43.52636" lon="1.26749">
        <ele>175.6</ele>
        <time>2024-08-01T09:07:20Z</time>
      </trkpt>
      <trkpt lat="43.52641" lon="1.26752">
        <ele>175.4</ele>
        <time>2024-08-01T09:07:21Z</time>
      </trkpt>
      <trkpt lat="43.52647" lon="1.26756">
        <ele>175.4</ele>
        <time>2024-08-01T09:07:22Z</time>
      </trkpt>
      <trkpt lat="43.52652" lon="1.26759">
        <ele>175.4</ele>
        <time>2024-08-01T09:07:23Z</time>
      </trkpt>
      <trkpt lat="43.52658" lon="1.26763">
        <ele>175.4</ele>
        <time>2024-08-01T09:07:24Z</time>
      </trkpt>
      <trkpt lat="43.52664" lon="1.26766">
        <ele>175.4</ele>
        <time>2024-08-01T09:07:25Z</time>
      </trkpt>
      <trkpt lat="43.5267" lon="1.2677">
        <ele>175.4</ele>
        <time>2024-08-01T09:07:26Z</time>
      </trkpt>
      <trkpt lat="43.52676" lon="1.26773">
        <ele>175.6</ele>
        <time>2024-08-01T09:07:27Z</time>
      </trkpt>
      <trkpt lat="43.52682" lon="1.26777">
        <ele>175.6</ele>
        <time>2024-08-01T09:07:28Z</time>
      </trkpt>
      <trkpt lat="43.52689" lon="1.2678">
        <ele>175.6</ele>
        <time>2024-08-01T09:07:29Z</time>
      </trkpt>
      <trkpt lat="43.52695" lon="1.26784">
        <ele>175.6</ele>
        <time>2024-08-01T09:07:30Z</time>
      </trkpt>
      <trkpt lat="43.52701" lon="1.26787">
        <ele>175.6</ele>
        <time>2024-08-01T09:07:31Z</time>
      </trkpt>
      <trkpt lat="43.52707" lon="1.26791">
        <ele>175.6</ele>
        <time>2024-08-01T09:07:32Z</time>
      </trkpt>
      <trkpt lat="43.52714" lon="1.26794">
        <ele>175.8</ele>
        <time>2024-08-01T09:07:33Z</time>
      </trkpt>
      <trkpt lat="43.5272" lon="1.26798">
        <ele>175.8</ele>
        <time>2024-08-01T09:07:34Z</time>
      </trkpt>
      <trkpt lat="43.52726" lon="1.26802">
        <ele>175.8</ele>
        <time>2024-08-01T09:07:35Z</time>
      </trkpt>
      <trkpt lat="43.52732" lon="1.26806">
        <ele>175.8</ele>
        <time>2024-08-01T09:07:36Z</time>
      </trkpt>
      <trkpt lat="43.52739" lon="1.2681">
        <ele>175.8</ele>
        <time>2024-08-01T09:07:37Z</time>
      </trkpt>
      <trkpt lat="43.52744" lon="1.26815">
        <ele>175.8</ele>
        <time>2024-08-01T09:07:38Z</time>
      </trkpt>
      <trkpt lat="43.5275" lon="1.2682">
        <ele>175.8</ele>
        <time>2024-08-01T09:07:39Z</time>
      </trkpt>
      <trkpt lat="43.52755" lon="1.26826">
        <ele>175.8</ele>
        <time>2024-08-01T09:07:40Z</time>
      </trkpt>
      <trkpt lat="43.52761" lon="1.26832">
        <ele>175.6</ele>
        <time>2024-08-01T09:07:41Z</time>
      </trkpt>
      <trkpt lat="43.52766" lon="1.26837">
        <ele>175.6</ele>
        <time>2024-08-01T09:07:42Z</time>
      </trkpt>
      <trkpt lat="43.52771" lon="1.26843">
        <ele>175.6</ele>
        <time>2024-08-01T09:07:43Z</time>
      </trkpt>
      <trkpt lat="43.52775" lon="1.26849">
        <ele>175.6</ele>
        <time>2024-08-01T09:07:44Z</time>
      </trkpt>
      <trkpt lat="43.5278" lon="1.26855">
        <ele>175.6</ele>
        <time>2024-08-01T09:07:45Z</time>
      </trkpt>
      <trkpt lat="43.52784" lon="1.26861">
        <ele>175.6</ele>
        <time>2024-08-01T09:07:46Z</time>
      </trkpt>
      <trkpt lat="43.52789" lon="1.26867">
        <ele>175.4</ele>
        <time>2024-08-01T09:07:47Z</time>
      </trkpt>
      <trkpt lat="43.52794" lon="1.26874">
        <ele>175.4</ele>
        <time>2024-08-01T09:07:48Z</time>
      </trkpt>
      <trkpt lat="43.52799" lon="1.26882">
        <ele>175.4</ele>
        <time>2024-08-01T09:07:49Z</time>
      </trkpt>
      <trkpt lat="43.52804" lon="1.26889">
        <ele>175.2</ele>
        <time>2024-08-01T09:07:50Z</time>
      </trkpt>
      <trkpt lat="43.52809" lon="1.26897">
        <ele>175.2</ele>
        <time>2024-08-01T09:07:51Z</time>
      </trkpt>
      <trkpt lat="43.52814" lon="1.26904">
        <ele>175.2</ele>
        <time>2024-08-01T09:07:52Z</time>
      </trkpt>
      <trkpt lat="43.52819" lon="1.26912">
        <ele>175.2</ele>
        <time>2024-08-01T09:07:53Z</time>
      </trkpt>
      <trkpt lat="43.52824" lon="1.2692">
        <ele>175.2</ele>
        <time>2024-08-01T09:07:54Z</time>
      </trkpt>
      <trkpt lat="43.52829" lon="1.26928">
        <ele>175.2</ele>
        <time>2024-08-01T09:07:55Z</time>
      </trkpt>
      <trkpt lat="43.52833" lon="1.26935">
        <ele>175.2</ele>
        <time>2024-08-01T09:07:56Z</time>
      </trkpt>
      <trkpt lat="43.52838" lon="1.26943">
        <ele>175.2</ele>
        <time>2024-08-01T09:07:57Z</time>
      </trkpt>
      <trkpt lat="43.52843" lon="1.26951">
        <ele>175.2</ele>
        <time>2024-08-01T09:07:58Z</time>
      </trkpt>
      <trkpt lat="43.52849" lon="1.26958">
        <ele>175.2</ele>
        <time>2024-08-01T09:07:59Z</time>
      </trkpt>
      <trkpt lat="43.52854" lon="1.26966">
        <ele>175.2</ele>
        <time>2024-08-01T09:08:00Z</time>
      </trkpt>
      <trkpt lat="43.5286" lon="1.26974">
        <ele>175.2</ele>
        <time>2024-08-01T09:08:01Z</time>
      </trkpt>
      <trkpt lat="43.52865" lon="1.26982">
        <ele>175.2</ele>
        <time>2024-08-01T09:08:02Z</time>
      </trkpt>
      <trkpt lat="43.5287" lon="1.2699">
        <ele>175.2</ele>
        <time>2024-08-01T09:08:03Z</time>
      </trkpt>
      <trkpt lat="43.52875" lon="1.26999">
        <ele>175.2</ele>
        <time>2024-08-01T09:08:04Z</time>
      </trkpt>
      <trkpt lat="43.5288" lon="1.27007">
        <ele>175.4</ele>
        <time>2024-08-01T09:08:05Z</time>
      </trkpt>
      <trkpt lat="43.52886" lon="1.27015">
        <ele>175.4</ele>
        <time>2024-08-01T09:08:06Z</time>
      </trkpt>
      <trkpt lat="43.52891" lon="1.27024">
        <ele>175.4</ele>
        <time>2024-08-01T09:08:07Z</time>
      </trkpt>
      <trkpt lat="43.52897" lon="1.27032">
        <ele>175.4</ele>
        <time>2024-08-01T09:08:08Z</time>
      </trkpt>
      <trkpt lat="43.52903" lon="1.2704">
        <ele>175.4</ele>
        <time>2024-08-01T09:08:09Z</time>
      </trkpt>
      <trkpt lat="43.52908" lon="1.27048">
        <ele>175.4</ele>
        <time>2024-08-01T09:08:10Z</time>
      </trkpt>
      <trkpt lat="43.52914" lon="1.27056">
        <ele>175.4</ele>
        <time>2024-08-01T09:08:11Z</time>
      </trkpt>
      <trkpt lat="43.5292" lon="1.27064">
        <ele>175.4</ele>
        <time>2024-08-01T09:08:12Z</time>
      </trkpt>
      <trkpt lat="43.52926" lon="1.27072">
        <ele>175.4</ele>
        <time>2024-08-01T09:08:13Z</time>
      </trkpt>
      <trkpt lat="43.52932" lon="1.2708">
        <ele>175.4</ele>
        <time>2024-08-01T09:08:14Z</time>
      </trkpt>
      <trkpt lat="43.52938" lon="1.27088">
        <ele>175.4</ele>
        <time>2024-08-01T09:08:15Z</time>
      </trkpt>
      <trkpt lat="43.52945" lon="1.27096">
        <ele>175.2</ele>
        <time>2024-08-01T09:08:16Z</time>
      </trkpt>
      <trkpt lat="43.52951" lon="1.27103">
        <ele>175.2</ele>
        <time>2024-08-01T09:08:17Z</time>
      </trkpt>
      <trkpt lat="43.52957" lon="1.27111">
        <ele>175.4</ele>
        <time>2024-08-01T09:08:18Z</time>
      </trkpt>
      <trkpt lat="43.52964" lon="1.27118">
        <ele>175.4</ele>
        <time>2024-08-01T09:08:19Z</time>
      </trkpt>
      <trkpt lat="43.5297" lon="1.27126">
        <ele>175.4</ele>
        <time>2024-08-01T09:08:20Z</time>
      </trkpt>
      <trkpt lat="43.52977" lon="1.27134">
        <ele>175.4</ele>
        <time>2024-08-01T09:08:21Z</time>
      </trkpt>
      <trkpt lat="43.52984" lon="1.27142">
        <ele>175.4</ele>
        <time>2024-08-01T09:08:22Z</time>
      </trkpt>
      <trkpt lat="43.5299" lon="1.27149">
        <ele>175.4</ele>
        <time>2024-08-01T09:08:23Z</time>
      </trkpt>
      <trkpt lat="43.52997" lon="1.27157">
        <ele>175.4</ele>
        <time>2024-08-01T09:08:24Z</time>
      </trkpt>
      <trkpt lat="43.53005" lon="1.27164">
        <ele>175.4</ele>
        <time>2024-08-01T09:08:25Z</time>
      </trkpt>
      <trkpt lat="43.53012" lon="1.27172">
        <ele>175.4</ele>
        <time>2024-08-01T09:08:26Z</time>
      </trkpt>
      <trkpt lat="43.5302" lon="1.2718">
        <ele>175.4</ele>
        <time>2024-08-01T09:08:27Z</time>
      </trkpt>
      <trkpt lat="43.53027" lon="1.27188">
        <ele>175.4</ele>
        <time>2024-08-01T09:08:28Z</time>
      </trkpt>
      <trkpt lat="43.53035" lon="1.27195">
        <ele>175.2</ele>
        <time>2024-08-01T09:08:29Z</time>
      </trkpt>
      <trkpt lat="43.53042" lon="1.27203">
        <ele>175.2</ele>
        <time>2024-08-01T09:08:30Z</time>
      </trkpt>
      <trkpt lat="43.5305" lon="1.27212">
        <ele>175</ele>
        <time>2024-08-01T09:08:31Z</time>
      </trkpt>
      <trkpt lat="43.53058" lon="1.2722">
        <ele>175</ele>
        <time>2024-08-01T09:08:32Z</time>
      </trkpt>
      <trkpt lat="43.53065" lon="1.27229">
        <ele>174.8</ele>
        <time>2024-08-01T09:08:33Z</time>
      </trkpt>
      <trkpt lat="43.53073" lon="1.27238">
        <ele>174.8</ele>
        <time>2024-08-01T09:08:34Z</time>
      </trkpt>
      <trkpt lat="43.5308" lon="1.27248">
        <ele>174.8</ele>
        <time>2024-08-01T09:08:35Z</time>
      </trkpt>
      <trkpt lat="43.53087" lon="1.27258">
        <ele>174.8</ele>
        <time>2024-08-01T09:08:36Z</time>
      </trkpt>
      <trkpt lat="43.53094" lon="1.27268">
        <ele>174.6</ele>
        <time>2024-08-01T09:08:37Z</time>
      </trkpt>
      <trkpt lat="43.531" lon="1.27278">
        <ele>174.6</ele>
        <time>2024-08-01T09:08:38Z</time>
      </trkpt>
      <trkpt lat="43.53107" lon="1.27288">
        <ele>174.6</ele>
        <time>2024-08-01T09:08:39Z</time>
      </trkpt>
      <trkpt lat="43.53113" lon="1.27298">
        <ele>174.4</ele>
        <time>2024-08-01T09:08:40Z</time>
      </trkpt>
      <trkpt lat="43.53119" lon="1.27307">
        <ele>174.6</ele>
        <time>2024-08-01T09:08:41Z</time>
      </trkpt>
      <trkpt lat="43.53124" lon="1.27316">
        <ele>174.6</ele>
        <time>2024-08-01T09:08:42Z</time>
      </trkpt>
      <trkpt lat="43.5313" lon="1.27325">
        <ele>174.8</ele>
        <time>2024-08-01T09:08:43Z</time>
      </trkpt>
      <trkpt lat="43.53135" lon="1.27334">
        <ele>174.6</ele>
        <time>2024-08-01T09:08:44Z</time>
      </trkpt>
      <trkpt lat="43.5314" lon="1.27343">
        <ele>174.6</ele>
        <time>2024-08-01T09:08:45Z</time>
      </trkpt>
      <trkpt lat="43.53146" lon="1.27351">
        <ele>174.6</ele>
        <time>2024-08-01T09:08:46Z</time>
      </trkpt>
      <trkpt lat="43.53151" lon="1.2736">
        <ele>174.6</ele>
        <time>2024-08-01T09:08:47Z</time>
      </trkpt>
      <trkpt lat="43.53157" lon="1.27368">
        <ele>174.6</ele>
        <time>2024-08-01T09:08:48Z</time>
      </trkpt>
      <trkpt lat="43.53162" lon="1.27376">
        <ele>174.6</ele>
        <time>2024-08-01T09:08:49Z</time>
      </trkpt>
      <trkpt lat="43.53168" lon="1.27384">
        <ele>174.8</ele>
        <time>2024-08-01T09:08:50Z</time>
      </trkpt>
      <trkpt lat="43.53174" lon="1.27392">
        <ele>175</ele>
        <time>2024-08-01T09:08:51Z</time>
      </trkpt>
      <trkpt lat="43.53179" lon="1.274">
        <ele>175</ele>
        <time>2024-08-01T09:08:52Z</time>
      </trkpt>
      <trkpt lat="43.53185" lon="1.27408">
        <ele>175</ele>
        <time>2024-08-01T09:08:53Z</time>
      </trkpt>
      <trkpt lat="43.53191" lon="1.27417">
        <ele>175</ele>
        <time>2024-08-01T09:08:54Z</time>
      </trkpt>
      <trkpt lat="43.53197" lon="1.27425">
        <ele>175</ele>
        <time>2024-08-01T09:08:55Z</time>
      </trkpt>
      <trkpt lat="43.53203" lon="1.27433">
        <ele>175</ele>
        <time>2024-08-01T09:08:56Z</time>
      </trkpt>
      <trkpt lat="43.53209" lon="1.27441">
        <ele>175</ele>
        <time>2024-08-01T09:08:57Z</time>
      </trkpt>
      <trkpt lat="43.53214" lon="1.27448">
        <ele>175</ele>
        <time>2024-08-01T09:08:58Z</time>
      </trkpt>
      <trkpt lat="43.5322" lon="1.27456">
        <ele>175</ele>
        <time>2024-08-01T09:08:59Z</time>
      </trkpt>
      <trkpt lat="43.53226" lon="1.27464">
        <ele>175</ele>
        <time>2024-08-01T09:09:00Z</time>
      </trkpt>
      <trkpt lat="43.53231" lon="1.27472">
        <ele>174.8</ele>
        <time>2024-08-01T09:09:01Z</time>
      </trkpt>
      <trkpt lat="43.53236" lon="1.27481">
        <ele>174.8</ele>
        <time>2024-08-01T09:09:02Z</time>
      </trkpt>
      <trkpt lat="43.53242" lon="1.27489">
        <ele>174.6</ele>
        <time>2024-08-01T09:09:03Z</time>
      </trkpt>
      <trkpt lat="43.53247" lon="1.27497">
        <ele>174.6</ele>
        <time>2024-08-01T09:09:04Z</time>
      </trkpt>
      <trkpt lat="43.53253" lon="1.27504">
        <ele>174.6</ele>
        <time>2024-08-01T09:09:05Z</time>
      </trkpt>
      <trkpt lat="43.53258" lon="1.27512">
        <ele>174.4</ele>
        <time>2024-08-01T09:09:06Z</time>
      </trkpt>
      <trkpt lat="43.53264" lon="1.2752">
        <ele>174.4</ele>
        <time>2024-08-01T09:09:07Z</time>
      </trkpt>
      <trkpt lat="43.5327" lon="1.27528">
        <ele>174.4</ele>
        <time>2024-08-01T09:09:08Z</time>
      </trkpt>
      <trkpt lat="43.53276" lon="1.27536">
        <ele>174.4</ele>
        <time>2024-08-01T09:09:09Z</time>
      </trkpt>
      <trkpt lat="43.53282" lon="1.27543">
        <ele>174.2</ele>
        <time>2024-08-01T09:09:10Z</time>
      </trkpt>
      <trkpt lat="43.53287" lon="1.27551">
        <ele>174.2</ele>
        <time>2024-08-01T09:09:11Z</time>
      </trkpt>
      <trkpt lat="43.53294" lon="1.27558">
        <ele>174.4</ele>
        <time>2024-08-01T09:09:12Z</time>
      </trkpt>
      <trkpt lat="43.533" lon="1.27565">
        <ele>174</ele>
        <time>2024-08-01T09:09:13Z</time>
      </trkpt>
      <trkpt lat="43.53307" lon="1.27572">
        <ele>174</ele>
        <time>2024-08-01T09:09:14Z</time>
      </trkpt>
      <trkpt lat="43.53313" lon="1.27579">
        <ele>173.8</ele>
        <time>2024-08-01T09:09:15Z</time>
      </trkpt>
      <trkpt lat="43.5332" lon="1.27585">
        <ele>173.8</ele>
        <time>2024-08-01T09:09:16Z</time>
      </trkpt>
      <trkpt lat="43.53327" lon="1.27592">
        <ele>174</ele>
        <time>2024-08-01T09:09:17Z</time>
      </trkpt>
      <trkpt lat="43.53333" lon="1.27598">
        <ele>174</ele>
        <time>2024-08-01T09:09:18Z</time>
      </trkpt>
      <trkpt lat="43.5334" lon="1.27604">
        <ele>173.8</ele>
        <time>2024-08-01T09:09:19Z</time>
      </trkpt>
      <trkpt lat="43.53347" lon="1.27611">
        <ele>173.8</ele>
        <time>2024-08-01T09:09:20Z</time>
      </trkpt>
      <trkpt lat="43.53354" lon="1.27616">
        <ele>173.8</ele>
        <time>2024-08-01T09:09:21Z</time>
      </trkpt>
      <trkpt lat="43.53361" lon="1.27622">
        <ele>174</ele>
        <time>2024-08-01T09:09:22Z</time>
      </trkpt>
      <trkpt lat="43.53369" lon="1.27628">
        <ele>174</ele>
        <time>2024-08-01T09:09:23Z</time>
      </trkpt>
      <trkpt lat="43.53376" lon="1.27633">
        <ele>173.8</ele>
        <time>2024-08-01T09:09:24Z</time>
      </trkpt>
      <trkpt lat="43.53384" lon="1.27638">
        <ele>173.6</ele>
        <time>2024-08-01T09:09:25Z</time>
      </trkpt>
      <trkpt lat="43.53392" lon="1.27643">
        <ele>173.6</ele>
        <time>2024-08-01T09:09:26Z</time>
      </trkpt>
      <trkpt lat="43.53399" lon="1.27649">
        <ele>173.6</ele>
        <time>2024-08-01T09:09:27Z</time>
      </trkpt>
      <trkpt lat="43.53407" lon="1.27654">
        <ele>173.8</ele>
        <time>2024-08-01T09:09:28Z</time>
      </trkpt>
      <trkpt lat="43.53415" lon="1.27659">
        <ele>173.8</ele>
        <time>2024-08-01T09:09:29Z</time>
      </trkpt>
      <trkpt lat="43.53423" lon="1.27664">
        <ele>173.8</ele>
        <time>2024-08-01T09:09:30Z</time>
      </trkpt>
      <trkpt lat="43.53431" lon="1.27669">
        <ele>173.8</ele>
        <time>2024-08-01T09:09:31Z</time>
      </trkpt>
      <trkpt lat="43.53439" lon="1.27674">
        <ele>173.6</ele>
        <time>2024-08-01T09:09:32Z</time>
      </trkpt>
      <trkpt lat="43.53446" lon="1.2768">
        <ele>173.6</ele>
        <time>2024-08-01T09:09:33Z</time>
      </trkpt>
      <trkpt lat="43.53453" lon="1.27685">
        <ele>173.6</ele>
        <time>2024-08-01T09:09:34Z</time>
      </trkpt>
      <trkpt lat="43.53461" lon="1.2769">
        <ele>173.4</ele>
        <time>2024-08-01T09:09:35Z</time>
      </trkpt>
      <trkpt lat="43.53468" lon="1.27695">
        <ele>173.6</ele>
        <time>2024-08-01T09:09:36Z</time>
      </trkpt>
      <trkpt lat="43.53475" lon="1.277">
        <ele>173.4</ele>
        <time>2024-08-01T09:09:37Z</time>
      </trkpt>
      <trkpt lat="43.53482" lon="1.27705">
        <ele>173.4</ele>
        <time>2024-08-01T09:09:38Z</time>
      </trkpt>
      <trkpt lat="43.53488" lon="1.27711">
        <ele>173.4</ele>
        <time>2024-08-01T09:09:39Z</time>
      </trkpt>
      <trkpt lat="43.53495" lon="1.27717">
        <ele>173.4</ele>
        <time>2024-08-01T09:09:40Z</time>
      </trkpt>
      <trkpt lat="43.53502" lon="1.27724">
        <ele>173.4</ele>
        <time>2024-08-01T09:09:41Z</time>
      </trkpt>
      <trkpt lat="43.53508" lon="1.27732">
        <ele>173.4</ele>
        <time>2024-08-01T09:09:42Z</time>
      </trkpt>
      <trkpt lat="43.53513" lon="1.2774">
        <ele>173.4</ele>
        <time>2024-08-01T09:09:43Z</time>
      </trkpt>
      <trkpt lat="43.53519" lon="1.27749">
        <ele>173.4</ele>
        <time>2024-08-01T09:09:44Z</time>
      </trkpt>
      <trkpt lat="43.53523" lon="1.27758">
        <ele>173.4</ele>
        <time>2024-08-01T09:09:45Z</time>
      </trkpt>
      <trkpt lat="43.53528" lon="1.27767">
        <ele>173.4</ele>
        <time>2024-08-01T09:09:46Z</time>
      </trkpt>
      <trkpt lat="43.53532" lon="1.27777">
        <ele>173.4</ele>
        <time>2024-08-01T09:09:47Z</time>
      </trkpt>
      <trkpt lat="43.53537" lon="1.27787">
        <ele>173.4</ele>
        <time>2024-08-01T09:09:48Z</time>
      </trkpt>
      <trkpt lat="43.53541" lon="1.27797">
        <ele>173.4</ele>
        <time>2024-08-01T09:09:49Z</time>
      </trkpt>
      <trkpt lat="43.53545" lon="1.27807">
        <ele>173.4</ele>
        <time>2024-08-01T09:09:50Z</time>
      </trkpt>
      <trkpt lat="43.5355" lon="1.27817">
        <ele>173.4</ele>
        <time>2024-08-01T09:09:51Z</time>
      </trkpt>
      <trkpt lat="43.53554" lon="1.27827">
        <ele>173.6</ele>
        <time>2024-08-01T09:09:52Z</time>
      </trkpt>
      <trkpt lat="43.53559" lon="1.27837">
        <ele>173.6</ele>
        <time>2024-08-01T09:09:53Z</time>
      </trkpt>
      <trkpt lat="43.53563" lon="1.27846">
        <ele>173.6</ele>
        <time>2024-08-01T09:09:54Z</time>
      </trkpt>
      <trkpt lat="43.53568" lon="1.27856">
        <ele>173.6</ele>
        <time>2024-08-01T09:09:55Z</time>
      </trkpt>
      <trkpt lat="43.53573" lon="1.27866">
        <ele>173.6</ele>
        <time>2024-08-01T09:09:56Z</time>
      </trkpt>
      <trkpt lat="43.53578" lon="1.27875">
        <ele>173.6</ele>
        <time>2024-08-01T09:09:57Z</time>
      </trkpt>
      <trkpt lat="43.53583" lon="1.27885">
        <ele>173.6</ele>
        <time>2024-08-01T09:09:58Z</time>
      </trkpt>
      <trkpt lat="43.53589" lon="1.27894">
        <ele>173.6</ele>
        <time>2024-08-01T09:09:59Z</time>
      </trkpt>
      <trkpt lat="43.53594" lon="1.27903">
        <ele>173.6</ele>
        <time>2024-08-01T09:10:00Z</time>
      </trkpt>
      <trkpt lat="43.536" lon="1.27912">
        <ele>173.6</ele>
        <time>2024-08-01T09:10:01Z</time>
      </trkpt>
      <trkpt lat="43.53606" lon="1.27921">
        <ele>173.6</ele>
        <time>2024-08-01T09:10:02Z</time>
      </trkpt>
      <trkpt lat="43.53612" lon="1.2793">
        <ele>173.6</ele>
        <time>2024-08-01T09:10:03Z</time>
      </trkpt>
      <trkpt lat="43.53617" lon="1.27939">
        <ele>173.6</ele>
        <time>2024-08-01T09:10:04Z</time>
      </trkpt>
      <trkpt lat="43.53623" lon="1.27947">
        <ele>173.6</ele>
        <time>2024-08-01T09:10:05Z</time>
      </trkpt>
      <trkpt lat="43.53629" lon="1.27956">
        <ele>173.6</ele>
        <time>2024-08-01T09:10:06Z</time>
      </trkpt>
      <trkpt lat="43.53636" lon="1.27964">
        <ele>173.6</ele>
        <time>2024-08-01T09:10:07Z</time>
      </trkpt>
      <trkpt lat="43.53641" lon="1.27973">
        <ele>173.6</ele>
        <time>2024-08-01T09:10:08Z</time>
      </trkpt>
      <trkpt lat="43.53647" lon="1.27982">
        <ele>173.6</ele>
        <time>2024-08-01T09:10:09Z</time>
      </trkpt>
      <trkpt lat="43.53653" lon="1.2799">
        <ele>173.6</ele>
        <time>2024-08-01T09:10:10Z</time>
      </trkpt>
      <trkpt lat="43.53659" lon="1.27999">
        <ele>173.6</ele>
        <time>2024-08-01T09:10:11Z</time>
      </trkpt>
      <trkpt lat="43.53665" lon="1.28008">
        <ele>173.6</ele>
        <time>2024-08-01T09:10:12Z</time>
      </trkpt>
      <trkpt lat="43.53671" lon="1.28017">
        <ele>173.6</ele>
        <time>2024-08-01T09:10:13Z</time>
      </trkpt>
      <trkpt lat="43.53678" lon="1.28026">
        <ele>173.4</ele>
        <time>2024-08-01T09:10:14Z</time>
      </trkpt>
      <trkpt lat="43.53684" lon="1.28035">
        <ele>173.4</ele>
        <time>2024-08-01T09:10:15Z</time>
      </trkpt>
      <trkpt lat="43.5369" lon="1.28043">
        <ele>173.4</ele>
        <time>2024-08-01T09:10:16Z</time>
      </trkpt>
      <trkpt lat="43.53696" lon="1.28052">
        <ele>173.4</ele>
        <time>2024-08-01T09:10:17Z</time>
      </trkpt>
      <trkpt lat="43.53703" lon="1.2806">
        <ele>173.4</ele>
        <time>2024-08-01T09:10:18Z</time>
      </trkpt>
      <trkpt lat="43.53709" lon="1.28069">
        <ele>173.2</ele>
        <time>2024-08-01T09:10:19Z</time>
      </trkpt>
      <trkpt lat="43.53716" lon="1.28077">
        <ele>173.2</ele>
        <time>2024-08-01T09:10:20Z</time>
      </trkpt>
      <trkpt lat="43.53723" lon="1.28085">
        <ele>173.2</ele>
        <time>2024-08-01T09:10:21Z</time>
      </trkpt>
      <trkpt lat="43.5373" lon="1.28092">
        <ele>173.2</ele>
        <time>2024-08-01T09:10:22Z</time>
      </trkpt>
      <trkpt lat="43.53737" lon="1.28099">
        <ele>173.2</ele>
        <time>2024-08-01T09:10:23Z</time>
      </trkpt>
      <trkpt lat="43.53745" lon="1.28106">
        <ele>173</ele>
        <time>2024-08-01T09:10:24Z</time>
      </trkpt>
      <trkpt lat="43.53752" lon="1.28113">
        <ele>173</ele>
        <time>2024-08-01T09:10:25Z</time>
      </trkpt>
      <trkpt lat="43.53759" lon="1.2812">
        <ele>173</ele>
        <time>2024-08-01T09:10:26Z</time>
      </trkpt>
      <trkpt lat="43.53767" lon="1.28126">
        <ele>173</ele>
        <time>2024-08-01T09:10:27Z</time>
      </trkpt>
      <trkpt lat="43.53775" lon="1.28133">
        <ele>173</ele>
        <time>2024-08-01T09:10:28Z</time>
      </trkpt>
      <trkpt lat="43.53782" lon="1.28139">
        <ele>173</ele>
        <time>2024-08-01T09:10:29Z</time>
      </trkpt>
      <trkpt lat="43.5379" lon="1.28146">
        <ele>173</ele>
        <time>2024-08-01T09:10:30Z</time>
      </trkpt>
      <trkpt lat="43.53797" lon="1.28153">
        <ele>173</ele>
        <time>2024-08-01T09:10:31Z</time>
      </trkpt>
      <trkpt lat="43.53804" lon="1.2816">
        <ele>173</ele>
        <time>2024-08-01T09:10:32Z</time>
      </trkpt>
      <trkpt lat="43.53812" lon="1.28167">
        <ele>173</ele>
        <time>2024-08-01T09:10:33Z</time>
      </trkpt>
      <trkpt lat="43.5382" lon="1.28174">
        <ele>173.2</ele>
        <time>2024-08-01T09:10:34Z</time>
      </trkpt>
      <trkpt lat="43.53827" lon="1.28181">
        <ele>173</ele>
        <time>2024-08-01T09:10:35Z</time>
      </trkpt>
      <trkpt lat="43.53834" lon="1.28188">
        <ele>173</ele>
        <time>2024-08-01T09:10:36Z</time>
      </trkpt>
      <trkpt lat="43.53842" lon="1.28195">
        <ele>173</ele>
        <time>2024-08-01T09:10:37Z</time>
      </trkpt>
      <trkpt lat="43.53849" lon="1.28202">
        <ele>173</ele>
        <time>2024-08-01T09:10:38Z</time>
      </trkpt>
      <trkpt lat="43.53856" lon="1.2821">
        <ele>173</ele>
        <time>2024-08-01T09:10:39Z</time>
      </trkpt>
      <trkpt lat="43.53864" lon="1.28218">
        <ele>173</ele>
        <time>2024-08-01T09:10:40Z</time>
      </trkpt>
      <trkpt lat="43.53871" lon="1.28226">
        <ele>173</ele>
        <time>2024-08-01T09:10:41Z</time>
      </trkpt>
      <trkpt lat="43.53878" lon="1.28233">
        <ele>173</ele>
        <time>2024-08-01T09:10:42Z</time>
      </trkpt>
      <trkpt lat="43.53885" lon="1.28241">
        <ele>173</ele>
        <time>2024-08-01T09:10:43Z</time>
      </trkpt>
      <trkpt lat="43.53892" lon="1.28249">
        <ele>173</ele>
        <time>2024-08-01T09:10:44Z</time>
      </trkpt>
      <trkpt lat="43.53899" lon="1.28256">
        <ele>173</ele>
        <time>2024-08-01T09:10:45Z</time>
      </trkpt>
      <trkpt lat="43.53907" lon="1.28264">
        <ele>173</ele>
        <time>2024-08-01T09:10:46Z</time>
      </trkpt>
      <trkpt lat="43.53914" lon="1.28272">
        <ele>173</ele>
        <time>2024-08-01T09:10:47Z</time>
      </trkpt>
      <trkpt lat="43.53921" lon="1.28279">
        <ele>173</ele>
        <time>2024-08-01T09:10:48Z</time>
      </trkpt>
      <trkpt lat="43.53928" lon="1.28287">
        <ele>173</ele>
        <time>2024-08-01T09:10:49Z</time>
      </trkpt>
      <trkpt lat="43.53935" lon="1.28294">
        <ele>173</ele>
        <time>2024-08-01T09:10:50Z</time>
      </trkpt>
      <trkpt lat="43.53942" lon="1.28301">
        <ele>173</ele>
        <time>2024-08-01T09:10:51Z</time>
      </trkpt>
      <trkpt lat="43.53949" lon="1.28308">
        <ele>172.8</ele>
        <time>2024-08-01T09:10:52Z</time>
      </trkpt>
      <trkpt lat="43.53957" lon="1.28315">
        <ele>172.8</ele>
        <time>2024-08-01T09:10:53Z</time>
      </trkpt>
      <trkpt lat="43.53964" lon="1.28322">
        <ele>172.8</ele>
        <time>2024-08-01T09:10:54Z</time>
      </trkpt>
      <trkpt lat="43.53971" lon="1.28329">
        <ele>172.6</ele>
        <time>2024-08-01T09:10:55Z</time>
      </trkpt>
      <trkpt lat="43.53978" lon="1.28337">
        <ele>172.6</ele>
        <time>2024-08-01T09:10:56Z</time>
      </trkpt>
      <trkpt lat="43.53986" lon="1.28344">
        <ele>172.6</ele>
        <time>2024-08-01T09:10:57Z</time>
      </trkpt>
      <trkpt lat="43.53993" lon="1.2835">
        <ele>172.6</ele>
        <time>2024-08-01T09:10:58Z</time>
      </trkpt>
      <trkpt lat="43.54001" lon="1.28357">
        <ele>172.6</ele>
        <time>2024-08-01T09:10:59Z</time>
      </trkpt>
      <trkpt lat="43.54008" lon="1.28364">
        <ele>172.6</ele>
        <time>2024-08-01T09:11:00Z</time>
      </trkpt>
      <trkpt lat="43.54015" lon="1.2837">
        <ele>172.4</ele>
        <time>2024-08-01T09:11:01Z</time>
      </trkpt>
      <trkpt lat="43.54023" lon="1.28376">
        <ele>172.4</ele>
        <time>2024-08-01T09:11:02Z</time>
      </trkpt>
      <trkpt lat="43.54031" lon="1.28381">
        <ele>172.4</ele>
        <time>2024-08-01T09:11:03Z</time>
      </trkpt>
      <trkpt lat="43.54039" lon="1.28386">
        <ele>172.6</ele>
        <time>2024-08-01T09:11:04Z</time>
      </trkpt>
      <trkpt lat="43.54047" lon="1.2839">
        <ele>172.6</ele>
        <time>2024-08-01T09:11:05Z</time>
      </trkpt>
      <trkpt lat="43.54056" lon="1.28395">
        <ele>172.6</ele>
        <time>2024-08-01T09:11:06Z</time>
      </trkpt>
      <trkpt lat="43.54064" lon="1.28399">
        <ele>172.6</ele>
        <time>2024-08-01T09:11:07Z</time>
      </trkpt>
      <trkpt lat="43.54072" lon="1.28403">
        <ele>172.6</ele>
        <time>2024-08-01T09:11:08Z</time>
      </trkpt>
      <trkpt lat="43.5408" lon="1.28407">
        <ele>172.6</ele>
        <time>2024-08-01T09:11:09Z</time>
      </trkpt>
      <trkpt lat="43.54089" lon="1.28411">
        <ele>172.6</ele>
        <time>2024-08-01T09:11:10Z</time>
      </trkpt>
      <trkpt lat="43.54097" lon="1.28414">
        <ele>172.6</ele>
        <time>2024-08-01T09:11:11Z</time>
      </trkpt>
      <trkpt lat="43.54105" lon="1.28418">
        <ele>172.6</ele>
        <time>2024-08-01T09:11:12Z</time>
      </trkpt>
      <trkpt lat="43.54113" lon="1.28422">
        <ele>172.6</ele>
        <time>2024-08-01T09:11:13Z</time>
      </trkpt>
      <trkpt lat="43.54122" lon="1.28426">
        <ele>172.6</ele>
        <time>2024-08-01T09:11:14Z</time>
      </trkpt>
      <trkpt lat="43.5413" lon="1.2843">
        <ele>172.6</ele>
        <time>2024-08-01T09:11:15Z</time>
      </trkpt>
      <trkpt lat="43.54138" lon="1.28434">
        <ele>172.6</ele>
        <time>2024-08-01T09:11:16Z</time>
      </trkpt>
      <trkpt lat="43.54146" lon="1.28438">
        <ele>172.6</ele>
        <time>2024-08-01T09:11:17Z</time>
      </trkpt>
      <trkpt lat="43.54155" lon="1.28442">
        <ele>172.6</ele>
        <time>2024-08-01T09:11:18Z</time>
      </trkpt>
      <trkpt lat="43.54163" lon="1.28446">
        <ele>172.6</ele>
        <time>2024-08-01T09:11:19Z</time>
      </trkpt>
      <trkpt lat="43.54171" lon="1.28451">
        <ele>172.6</ele>
        <time>2024-08-01T09:11:20Z</time>
      </trkpt>
      <trkpt lat="43.54179" lon="1.28456">
        <ele>172.6</ele>
        <time>2024-08-01T09:11:21Z</time>
      </trkpt>
      <trkpt lat="43.54187" lon="1.28462">
        <ele>172.6</ele>
        <time>2024-08-01T09:11:22Z</time>
      </trkpt>
      <trkpt lat="43.54195" lon="1.28468">
        <ele>172.6</ele>
        <time>2024-08-01T09:11:23Z</time>
      </trkpt>
      <trkpt lat="43.54202" lon="1.28475">
        <ele>172.4</ele>
        <time>2024-08-01T09:11:24Z</time>
      </trkpt>
      <trkpt lat="43.54209" lon="1.28483">
        <ele>172.4</ele>
        <time>2024-08-01T09:11:25Z</time>
      </trkpt>
      <trkpt lat="43.54216" lon="1.28491">
        <ele>172.2</ele>
        <time>2024-08-01T09:11:26Z</time>
      </trkpt>
      <trkpt lat="43.54223" lon="1.285">
        <ele>172.4</ele>
        <time>2024-08-01T09:11:27Z</time>
      </trkpt>
      <trkpt lat="43.5423" lon="1.28509">
        <ele>172.2</ele>
        <time>2024-08-01T09:11:28Z</time>
      </trkpt>
      <trkpt lat="43.54236" lon="1.28518">
        <ele>172.2</ele>
        <time>2024-08-01T09:11:29Z</time>
      </trkpt>
      <trkpt lat="43.54243" lon="1.28528">
        <ele>172</ele>
        <time>2024-08-01T09:11:30Z</time>
      </trkpt>
      <trkpt lat="43.54249" lon="1.28537">
        <ele>172</ele>
        <time>2024-08-01T09:11:31Z</time>
      </trkpt>
      <trkpt lat="43.54255" lon="1.28546">
        <ele>172</ele>
        <time>2024-08-01T09:11:32Z</time>
      </trkpt>
      <trkpt lat="43.54262" lon="1.28555">
        <ele>172</ele>
        <time>2024-08-01T09:11:33Z</time>
      </trkpt>
      <trkpt lat="43.54268" lon="1.28565">
        <ele>172</ele>
        <time>2024-08-01T09:11:34Z</time>
      </trkpt>
      <trkpt lat="43.54274" lon="1.28574">
        <ele>172</ele>
        <time>2024-08-01T09:11:35Z</time>
      </trkpt>
      <trkpt lat="43.5428" lon="1.28583">
        <ele>172</ele>
        <time>2024-08-01T09:11:36Z</time>
      </trkpt>
      <trkpt lat="43.54287" lon="1.28592">
        <ele>172</ele>
        <time>2024-08-01T09:11:37Z</time>
      </trkpt>
      <trkpt lat="43.54293" lon="1.28601">
        <ele>171.8</ele>
        <time>2024-08-01T09:11:38Z</time>
      </trkpt>
      <trkpt lat="43.543" lon="1.28609">
        <ele>171.8</ele>
        <time>2024-08-01T09:11:39Z</time>
      </trkpt>
      <trkpt lat="43.54307" lon="1.28618">
        <ele>171.6</ele>
        <time>2024-08-01T09:11:40Z</time>
      </trkpt>
      <trkpt lat="43.54314" lon="1.28626">
        <ele>171.6</ele>
        <time>2024-08-01T09:11:41Z</time>
      </trkpt>
      <trkpt lat="43.54321" lon="1.28634">
        <ele>171.6</ele>
        <time>2024-08-01T09:11:42Z</time>
      </trkpt>
      <trkpt lat="43.54328" lon="1.28641">
        <ele>171.6</ele>
        <time>2024-08-01T09:11:43Z</time>
      </trkpt>
      <trkpt lat="43.54335" lon="1.28649">
        <ele>171.6</ele>
        <time>2024-08-01T09:11:44Z</time>
      </trkpt>
      <trkpt lat="43.54342" lon="1.28657">
        <ele>171.4</ele>
        <time>2024-08-01T09:11:45Z</time>
      </trkpt>
      <trkpt lat="43.54349" lon="1.28664">
        <ele>171.4</ele>
        <time>2024-08-01T09:11:46Z</time>
      </trkpt>
      <trkpt lat="43.54356" lon="1.28671">
        <ele>171.4</ele>
        <time>2024-08-01T09:11:47Z</time>
      </trkpt>
      <trkpt lat="43.54363" lon="1.28679">
        <ele>171.4</ele>
        <time>2024-08-01T09:11:48Z</time>
      </trkpt>
      <trkpt lat="43.5437" lon="1.28687">
        <ele>171.4</ele>
        <time>2024-08-01T09:11:49Z</time>
      </trkpt>
      <trkpt lat="43.54377" lon="1.28695">
        <ele>171.4</ele>
        <time>2024-08-01T09:11:50Z</time>
      </trkpt>
      <trkpt lat="43.54384" lon="1.28703">
        <ele>171.4</ele>
        <time>2024-08-01T09:11:51Z</time>
      </trkpt>
      <trkpt lat="43.5439" lon="1.28711">
        <ele>171.4</ele>
        <time>2024-08-01T09:11:52Z</time>
      </trkpt>
      <trkpt lat="43.54396" lon="1.2872">
        <ele>171.4</ele>
        <time>2024-08-01T09:11:53Z</time>
      </trkpt>
      <trkpt lat="43.54402" lon="1.28728">
        <ele>171.4</ele>
        <time>2024-08-01T09:11:54Z</time>
      </trkpt>
      <trkpt lat="43.54408" lon="1.28737">
        <ele>171.4</ele>
        <time>2024-08-01T09:11:55Z</time>
      </trkpt>
      <trkpt lat="43.54414" lon="1.28746">
        <ele>171.4</ele>
        <time>2024-08-01T09:11:56Z</time>
      </trkpt>
      <trkpt lat="43.5442" lon="1.28756">
        <ele>171.4</ele>
        <time>2024-08-01T09:11:57Z</time>
      </trkpt>
      <trkpt lat="43.54426" lon="1.28765">
        <ele>171.4</ele>
        <time>2024-08-01T09:11:58Z</time>
      </trkpt>
      <trkpt lat="43.54432" lon="1.28774">
        <ele>171.4</ele>
        <time>2024-08-01T09:11:59Z</time>
      </trkpt>
      <trkpt lat="43.54438" lon="1.28783">
        <ele>171.4</ele>
        <time>2024-08-01T09:12:00Z</time>
      </trkpt>
      <trkpt lat="43.54444" lon="1.28792">
        <ele>171.4</ele>
        <time>2024-08-01T09:12:01Z</time>
      </trkpt>
      <trkpt lat="43.5445" lon="1.28801">
        <ele>171.4</ele>
        <time>2024-08-01T09:12:02Z</time>
      </trkpt>
      <trkpt lat="43.54457" lon="1.28809">
        <ele>171.2</ele>
        <time>2024-08-01T09:12:03Z</time>
      </trkpt>
      <trkpt lat="43.54463" lon="1.28818">
        <ele>171.2</ele>
        <time>2024-08-01T09:12:04Z</time>
      </trkpt>
      <trkpt lat="43.5447" lon="1.28826">
        <ele>171</ele>
        <time>2024-08-01T09:12:05Z</time>
      </trkpt>
      <trkpt lat="43.54476" lon="1.28834">
        <ele>171</ele>
        <time>2024-08-01T09:12:06Z</time>
      </trkpt>
      <trkpt lat="43.54482" lon="1.28842">
        <ele>171</ele>
        <time>2024-08-01T09:12:07Z</time>
      </trkpt>
      <trkpt lat="43.54489" lon="1.2885">
        <ele>170.8</ele>
        <time>2024-08-01T09:12:08Z</time>
      </trkpt>
      <trkpt lat="43.54495" lon="1.28858">
        <ele>170.8</ele>
        <time>2024-08-01T09:12:09Z</time>
      </trkpt>
      <trkpt lat="43.54502" lon="1.28867">
        <ele>170.8</ele>
        <time>2024-08-01T09:12:10Z</time>
      </trkpt>
      <trkpt lat="43.54508" lon="1.28875">
        <ele>170.8</ele>
        <time>2024-08-01T09:12:11Z</time>
      </trkpt>
      <trkpt lat="43.54515" lon="1.28883">
        <ele>170.8</ele>
        <time>2024-08-01T09:12:12Z</time>
      </trkpt>
      <trkpt lat="43.54521" lon="1.28891">
        <ele>170.8</ele>
        <time>2024-08-01T09:12:13Z</time>
      </trkpt>
      <trkpt lat="43.54528" lon="1.28899">
        <ele>170.8</ele>
        <time>2024-08-01T09:12:14Z</time>
      </trkpt>
      <trkpt lat="43.54535" lon="1.28907">
        <ele>170.8</ele>
        <time>2024-08-01T09:12:15Z</time>
      </trkpt>
      <trkpt lat="43.54541" lon="1.28916">
        <ele>170.8</ele>
        <time>2024-08-01T09:12:16Z</time>
      </trkpt>
      <trkpt lat="43.54548" lon="1.28924">
        <ele>170.8</ele>
        <time>2024-08-01T09:12:17Z</time>
      </trkpt>
      <trkpt lat="43.54555" lon="1.28932">
        <ele>170.8</ele>
        <time>2024-08-01T09:12:18Z</time>
      </trkpt>
      <trkpt lat="43.54562" lon="1.2894">
        <ele>170.8</ele>
        <time>2024-08-01T09:12:19Z</time>
      </trkpt>
      <trkpt lat="43.5457" lon="1.28948">
        <ele>170.8</ele>
        <time>2024-08-01T09:12:20Z</time>
      </trkpt>
      <trkpt lat="43.54577" lon="1.28955">
        <ele>170.8</ele>
        <time>2024-08-01T09:12:21Z</time>
      </trkpt>
      <trkpt lat="43.54585" lon="1.28962">
        <ele>170.6</ele>
        <time>2024-08-01T09:12:22Z</time>
      </trkpt>
      <trkpt lat="43.54593" lon="1.28969">
        <ele>170.6</ele>
        <time>2024-08-01T09:12:23Z</time>
      </trkpt>
      <trkpt lat="43.54601" lon="1.28976">
        <ele>170.4</ele>
        <time>2024-08-01T09:12:24Z</time>
      </trkpt>
      <trkpt lat="43.54609" lon="1.28983">
        <ele>170.4</ele>
        <time>2024-08-01T09:12:25Z</time>
      </trkpt>
      <trkpt lat="43.54617" lon="1.28989">
        <ele>170.2</ele>
        <time>2024-08-01T09:12:26Z</time>
      </trkpt>
      <trkpt lat="43.54626" lon="1.28996">
        <ele>170.2</ele>
        <time>2024-08-01T09:12:27Z</time>
      </trkpt>
      <trkpt lat="43.54634" lon="1.29002">
        <ele>170.2</ele>
        <time>2024-08-01T09:12:28Z</time>
      </trkpt>
      <trkpt lat="43.54642" lon="1.29008">
        <ele>170.2</ele>
        <time>2024-08-01T09:12:29Z</time>
      </trkpt>
      <trkpt lat="43.54651" lon="1.29014">
        <ele>170.2</ele>
        <time>2024-08-01T09:12:30Z</time>
      </trkpt>
      <trkpt lat="43.54659" lon="1.29021">
        <ele>170.2</ele>
        <time>2024-08-01T09:12:31Z</time>
      </trkpt>
      <trkpt lat="43.54667" lon="1.29027">
        <ele>170</ele>
        <time>2024-08-01T09:12:32Z</time>
      </trkpt>
      <trkpt lat="43.54675" lon="1.29033">
        <ele>170</ele>
        <time>2024-08-01T09:12:33Z</time>
      </trkpt>
      <trkpt lat="43.54684" lon="1.2904">
        <ele>170</ele>
        <time>2024-08-01T09:12:34Z</time>
      </trkpt>
      <trkpt lat="43.54692" lon="1.29046">
        <ele>170</ele>
        <time>2024-08-01T09:12:35Z</time>
      </trkpt>
      <trkpt lat="43.54701" lon="1.29053">
        <ele>169.8</ele>
        <time>2024-08-01T09:12:36Z</time>
      </trkpt>
      <trkpt lat="43.54709" lon="1.29059">
        <ele>169.8</ele>
        <time>2024-08-01T09:12:37Z</time>
      </trkpt>
      <trkpt lat="43.54717" lon="1.29065">
        <ele>169.8</ele>
        <time>2024-08-01T09:12:38Z</time>
      </trkpt>
      <trkpt lat="43.54725" lon="1.29071">
        <ele>169.8</ele>
        <time>2024-08-01T09:12:39Z</time>
      </trkpt>
      <trkpt lat="43.54734" lon="1.29077">
        <ele>169.8</ele>
        <time>2024-08-01T09:12:40Z</time>
      </trkpt>
      <trkpt lat="43.54742" lon="1.29083">
        <ele>170</ele>
        <time>2024-08-01T09:12:41Z</time>
      </trkpt>
      <trkpt lat="43.5475" lon="1.2909">
        <ele>170</ele>
        <time>2024-08-01T09:12:42Z</time>
      </trkpt>
      <trkpt lat="43.54758" lon="1.29096">
        <ele>169.8</ele>
        <time>2024-08-01T09:12:43Z</time>
      </trkpt>
      <trkpt lat="43.54766" lon="1.29102">
        <ele>169.8</ele>
        <time>2024-08-01T09:12:44Z</time>
      </trkpt>
      <trkpt lat="43.54774" lon="1.29108">
        <ele>169.8</ele>
        <time>2024-08-01T09:12:45Z</time>
      </trkpt>
      <trkpt lat="43.54782" lon="1.29114">
        <ele>169.8</ele>
        <time>2024-08-01T09:12:46Z</time>
      </trkpt>
      <trkpt lat="43.5479" lon="1.2912">
        <ele>169.8</ele>
        <time>2024-08-01T09:12:47Z</time>
      </trkpt>
      <trkpt lat="43.54798" lon="1.29126">
        <ele>169.8</ele>
        <time>2024-08-01T09:12:48Z</time>
      </trkpt>
      <trkpt lat="43.54806" lon="1.29132">
        <ele>169.8</ele>
        <time>2024-08-01T09:12:49Z</time>
      </trkpt>
      <trkpt lat="43.54814" lon="1.29138">
        <ele>169.8</ele>
        <time>2024-08-01T09:12:50Z</time>
      </trkpt>
      <trkpt lat="43.54822" lon="1.29144">
        <ele>169.8</ele>
        <time>2024-08-01T09:12:51Z</time>
      </trkpt>
      <trkpt lat="43.54829" lon="1.2915">
        <ele>169.8</ele>
        <time>2024-08-01T09:12:52Z</time>
      </trkpt>
      <trkpt lat="43.54837" lon="1.29156">
        <ele>169.8</ele>
        <time>2024-08-01T09:12:53Z</time>
      </trkpt>
      <trkpt lat="43.54845" lon="1.29162">
        <ele>169.8</ele>
        <time>2024-08-01T09:12:54Z</time>
      </trkpt>
      <trkpt lat="43.54853" lon="1.29168">
        <ele>170</ele>
        <time>2024-08-01T09:12:55Z</time>
      </trkpt>
      <trkpt lat="43.54861" lon="1.29174">
        <ele>170</ele>
        <time>2024-08-01T09:12:56Z</time>
      </trkpt>
      <trkpt lat="43.54869" lon="1.2918">
        <ele>170</ele>
        <time>2024-08-01T09:12:57Z</time>
      </trkpt>
      <trkpt lat="43.54876" lon="1.29186">
        <ele>170</ele>
        <time>2024-08-01T09:12:58Z</time>
      </trkpt>
      <trkpt lat="43.54884" lon="1.29192">
        <ele>170</ele>
        <time>2024-08-01T09:12:59Z</time>
      </trkpt>
      <trkpt lat="43.54892" lon="1.29198">
        <ele>170</ele>
        <time>2024-08-01T09:13:00Z</time>
      </trkpt>
      <trkpt lat="43.54899" lon="1.29204">
        <ele>170</ele>
        <time>2024-08-01T09:13:01Z</time>
      </trkpt>
      <trkpt lat="43.54907" lon="1.2921">
        <ele>170</ele>
        <time>2024-08-01T09:13:02Z</time>
      </trkpt>
      <trkpt lat="43.54915" lon="1.29216">
        <ele>170</ele>
        <time>2024-08-01T09:13:03Z</time>
      </trkpt>
      <trkpt lat="43.54922" lon="1.29223">
        <ele>170</ele>
        <time>2024-08-01T09:13:04Z</time>
      </trkpt>
      <trkpt lat="43.5493" lon="1.29229">
        <ele>170</ele>
        <time>2024-08-01T09:13:05Z</time>
      </trkpt>
      <trkpt lat="43.54938" lon="1.29234">
        <ele>170</ele>
        <time>2024-08-01T09:13:06Z</time>
      </trkpt>
      <trkpt lat="43.54946" lon="1.2924">
        <ele>170</ele>
        <time>2024-08-01T09:13:07Z</time>
      </trkpt>
      <trkpt lat="43.54954" lon="1.29246">
        <ele>170</ele>
        <time>2024-08-01T09:13:08Z</time>
      </trkpt>
      <trkpt lat="43.54962" lon="1.29252">
        <ele>170</ele>
        <time>2024-08-01T09:13:09Z</time>
      </trkpt>
      <trkpt lat="43.54969" lon="1.29258">
        <ele>170</ele>
        <time>2024-08-01T09:13:10Z</time>
      </trkpt>
      <trkpt lat="43.54977" lon="1.29264">
        <ele>170</ele>
        <time>2024-08-01T09:13:11Z</time>
      </trkpt>
      <trkpt lat="43.54985" lon="1.2927">
        <ele>170</ele>
        <time>2024-08-01T09:13:12Z</time>
      </trkpt>
      <trkpt lat="43.54993" lon="1.29275">
        <ele>170</ele>
        <time>2024-08-01T09:13:13Z</time>
      </trkpt>
      <trkpt lat="43.55001" lon="1.29281">
        <ele>169.6</ele>
        <time>2024-08-01T09:13:14Z</time>
      </trkpt>
      <trkpt lat="43.55009" lon="1.29287">
        <ele>169.8</ele>
        <time>2024-08-01T09:13:15Z</time>
      </trkpt>
      <trkpt lat="43.55017" lon="1.29293">
        <ele>169.6</ele>
        <time>2024-08-01T09:13:16Z</time>
      </trkpt>
      <trkpt lat="43.55025" lon="1.29299">
        <ele>169.4</ele>
        <time>2024-08-01T09:13:17Z</time>
      </trkpt>
      <trkpt lat="43.55033" lon="1.29305">
        <ele>169.2</ele>
        <time>2024-08-01T09:13:18Z</time>
      </trkpt>
      <trkpt lat="43.55041" lon="1.29311">
        <ele>169.2</ele>
        <time>2024-08-01T09:13:19Z</time>
      </trkpt>
      <trkpt lat="43.55049" lon="1.29317">
        <ele>169.2</ele>
        <time>2024-08-01T09:13:20Z</time>
      </trkpt>
      <trkpt lat="43.55057" lon="1.29323">
        <ele>169.2</ele>
        <time>2024-08-01T09:13:21Z</time>
      </trkpt>
      <trkpt lat="43.55065" lon="1.29328">
        <ele>169</ele>
        <time>2024-08-01T09:13:22Z</time>
      </trkpt>
      <trkpt lat="43.55073" lon="1.29334">
        <ele>169.4</ele>
        <time>2024-08-01T09:13:23Z</time>
      </trkpt>
      <trkpt lat="43.55082" lon="1.29338">
        <ele>169.4</ele>
        <time>2024-08-01T09:13:24Z</time>
      </trkpt>
      <trkpt lat="43.5509" lon="1.29343">
        <ele>169.4</ele>
        <time>2024-08-01T09:13:25Z</time>
      </trkpt>
      <trkpt lat="43.55099" lon="1.29347">
        <ele>169.2</ele>
        <time>2024-08-01T09:13:26Z</time>
      </trkpt>
      <trkpt lat="43.55107" lon="1.29352">
        <ele>169</ele>
        <time>2024-08-01T09:13:27Z</time>
      </trkpt>
      <trkpt lat="43.55116" lon="1.29356">
        <ele>169</ele>
        <time>2024-08-01T09:13:28Z</time>
      </trkpt>
      <trkpt lat="43.55125" lon="1.29361">
        <ele>169</ele>
        <time>2024-08-01T09:13:29Z</time>
      </trkpt>
      <trkpt lat="43.55134" lon="1.29365">
        <ele>168.8</ele>
        <time>2024-08-01T09:13:30Z</time>
      </trkpt>
      <trkpt lat="43.55143" lon="1.29369">
        <ele>168.8</ele>
        <time>2024-08-01T09:13:31Z</time>
      </trkpt>
      <trkpt lat="43.55152" lon="1.29373">
        <ele>168.8</ele>
        <time>2024-08-01T09:13:32Z</time>
      </trkpt>
      <trkpt lat="43.5516" lon="1.29378">
        <ele>168.8</ele>
        <time>2024-08-01T09:13:33Z</time>
      </trkpt>
      <trkpt lat="43.55169" lon="1.29383">
        <ele>168.8</ele>
        <time>2024-08-01T09:13:34Z</time>
      </trkpt>
      <trkpt lat="43.55178" lon="1.29388">
        <ele>168.8</ele>
        <time>2024-08-01T09:13:35Z</time>
      </trkpt>
      <trkpt lat="43.55186" lon="1.29393">
        <ele>168.8</ele>
        <time>2024-08-01T09:13:36Z</time>
      </trkpt>
      <trkpt lat="43.55194" lon="1.29398">
        <ele>168.8</ele>
        <time>2024-08-01T09:13:37Z</time>
      </trkpt>
      <trkpt lat="43.55202" lon="1.29404">
        <ele>168.8</ele>
        <time>2024-08-01T09:13:38Z</time>
      </trkpt>
      <trkpt lat="43.5521" lon="1.2941">
        <ele>168.8</ele>
        <time>2024-08-01T09:13:39Z</time>
      </trkpt>
      <trkpt lat="43.55218" lon="1.29416">
        <ele>168.6</ele>
        <time>2024-08-01T09:13:40Z</time>
      </trkpt>
      <trkpt lat="43.55226" lon="1.29422">
        <ele>168.6</ele>
        <time>2024-08-01T09:13:41Z</time>
      </trkpt>
      <trkpt lat="43.55233" lon="1.29428">
        <ele>168.8</ele>
        <time>2024-08-01T09:13:42Z</time>
      </trkpt>
      <trkpt lat="43.55241" lon="1.29434">
        <ele>168.8</ele>
        <time>2024-08-01T09:13:43Z</time>
      </trkpt>
      <trkpt lat="43.55248" lon="1.2944">
        <ele>169</ele>
        <time>2024-08-01T09:13:44Z</time>
      </trkpt>
      <trkpt lat="43.55255" lon="1.29446">
        <ele>169</ele>
        <time>2024-08-01T09:13:45Z</time>
      </trkpt>
      <trkpt lat="43.55262" lon="1.29451">
        <ele>169.2</ele>
        <time>2024-08-01T09:13:46Z</time>
      </trkpt>
      <trkpt lat="43.55269" lon="1.29457">
        <ele>169.2</ele>
        <time>2024-08-01T09:13:47Z</time>
      </trkpt>
      <trkpt lat="43.55276" lon="1.29462">
        <ele>169.2</ele>
        <time>2024-08-01T09:13:48Z</time>
      </trkpt>
      <trkpt lat="43.55282" lon="1.29467">
        <ele>169.4</ele>
        <time>2024-08-01T09:13:49Z</time>
      </trkpt>
      <trkpt lat="43.55289" lon="1.29473">
        <ele>169.4</ele>
        <time>2024-08-01T09:13:50Z</time>
      </trkpt>
      <trkpt lat="43.55295" lon="1.29478">
        <ele>169.4</ele>
        <time>2024-08-01T09:13:51Z</time>
      </trkpt>
      <trkpt lat="43.55301" lon="1.29483">
        <ele>169.4</ele>
        <time>2024-08-01T09:13:52Z</time>
      </trkpt>
      <trkpt lat="43.55308" lon="1.29488">
        <ele>169.4</ele>
        <time>2024-08-01T09:13:53Z</time>
      </trkpt>
      <trkpt lat="43.55314" lon="1.29493">
        <ele>169.2</ele>
        <time>2024-08-01T09:13:54Z</time>
      </trkpt>
      <trkpt lat="43.5532" lon="1.29498">
        <ele>169.2</ele>
        <time>2024-08-01T09:13:55Z</time>
      </trkpt>
      <trkpt lat="43.55326" lon="1.29503">
        <ele>169.2</ele>
        <time>2024-08-01T09:13:56Z</time>
      </trkpt>
      <trkpt lat="43.55332" lon="1.29508">
        <ele>169.2</ele>
        <time>2024-08-01T09:13:57Z</time>
      </trkpt>
      <trkpt lat="43.55338" lon="1.29513">
        <ele>169.2</ele>
        <time>2024-08-01T09:13:58Z</time>
      </trkpt>
      <trkpt lat="43.55343" lon="1.29518">
        <ele>169.2</ele>
        <time>2024-08-01T09:13:59Z</time>
      </trkpt>
      <trkpt lat="43.55349" lon="1.29523">
        <ele>169.2</ele>
        <time>2024-08-01T09:14:00Z</time>
      </trkpt>
      <trkpt lat="43.55355" lon="1.29528">
        <ele>169</ele>
        <time>2024-08-01T09:14:01Z</time>
      </trkpt>
      <trkpt lat="43.5536" lon="1.29532">
        <ele>169</ele>
        <time>2024-08-01T09:14:02Z</time>
      </trkpt>
      <trkpt lat="43.55366" lon="1.29536">
        <ele>169.2</ele>
        <time>2024-08-01T09:14:03Z</time>
      </trkpt>
      <trkpt lat="43.55371" lon="1.2954">
        <ele>168.8</ele>
        <time>2024-08-01T09:14:04Z</time>
      </trkpt>
      <trkpt lat="43.55377" lon="1.29544">
        <ele>168.8</ele>
        <time>2024-08-01T09:14:05Z</time>
      </trkpt>
      <trkpt lat="43.55383" lon="1.29548">
        <ele>169</ele>
        <time>2024-08-01T09:14:06Z</time>
      </trkpt>
      <trkpt lat="43.55388" lon="1.29552">
        <ele>169</ele>
        <time>2024-08-01T09:14:07Z</time>
      </trkpt>
      <trkpt lat="43.55393" lon="1.29555">
        <ele>169</ele>
        <time>2024-08-01T09:14:08Z</time>
      </trkpt>
      <trkpt lat="43.55399" lon="1.29559">
        <ele>169</ele>
        <time>2024-08-01T09:14:09Z</time>
      </trkpt>
      <trkpt lat="43.55404" lon="1.29562">
        <ele>168.8</ele>
        <time>2024-08-01T09:14:10Z</time>
      </trkpt>
      <trkpt lat="43.5541" lon="1.29566">
        <ele>169</ele>
        <time>2024-08-01T09:14:11Z</time>
      </trkpt>
      <trkpt lat="43.55416" lon="1.29569">
        <ele>169</ele>
        <time>2024-08-01T09:14:12Z</time>
      </trkpt>
      <trkpt lat="43.55421" lon="1.29571">
        <ele>169</ele>
        <time>2024-08-01T09:14:13Z</time>
      </trkpt>
      <trkpt lat="43.55427" lon="1.29574">
        <ele>169</ele>
        <time>2024-08-01T09:14:14Z</time>
      </trkpt>
      <trkpt lat="43.55433" lon="1.29576">
        <ele>168.8</ele>
        <time>2024-08-01T09:14:15Z</time>
      </trkpt>
      <trkpt lat="43.55439" lon="1.29578">
        <ele>168.8</ele>
        <time>2024-08-01T09:14:16Z</time>
      </trkpt>
      <trkpt lat="43.55444" lon="1.2958">
        <ele>169</ele>
        <time>2024-08-01T09:14:17Z</time>
      </trkpt>
      <trkpt lat="43.5545" lon="1.29582">
        <ele>169</ele>
        <time>2024-08-01T09:14:18Z</time>
      </trkpt>
      <trkpt lat="43.55455" lon="1.29584">
        <ele>168.8</ele>
        <time>2024-08-01T09:14:19Z</time>
      </trkpt>
      <trkpt lat="43.5546" lon="1.29586">
        <ele>168.8</ele>
        <time>2024-08-01T09:14:20Z</time>
      </trkpt>
      <trkpt lat="43.55465" lon="1.29587">
        <ele>168.8</ele>
        <time>2024-08-01T09:14:21Z</time>
      </trkpt>
      <trkpt lat="43.55469" lon="1.29589">
        <ele>168.8</ele>
        <time>2024-08-01T09:14:22Z</time>
      </trkpt>
      <trkpt lat="43.55472" lon="1.2959">
        <ele>168.8</ele>
        <time>2024-08-01T09:14:23Z</time>
      </trkpt>
      <trkpt lat="43.55476" lon="1.29591">
        <ele>168.8</ele>
        <time>2024-08-01T09:14:24Z</time>
      </trkpt>
      <trkpt lat="43.55479" lon="1.29592">
        <ele>168.8</ele>
        <time>2024-08-01T09:14:25Z</time>
      </trkpt>
      <trkpt lat="43.55482" lon="1.29594">
        <ele>168.8</ele>
        <time>2024-08-01T09:14:26Z</time>
      </trkpt>
      <trkpt lat="43.55486" lon="1.29595">
        <ele>168.8</ele>
        <time>2024-08-01T09:14:27Z</time>
      </trkpt>
      <trkpt lat="43.55489" lon="1.29596">
        <ele>168.8</ele>
        <time>2024-08-01T09:14:28Z</time>
      </trkpt>
      <trkpt lat="43.55493" lon="1.29597">
        <ele>168.8</ele>
        <time>2024-08-01T09:14:29Z</time>
      </trkpt>
      <trkpt lat="43.55496" lon="1.29599">
        <ele>168.6</ele>
        <time>2024-08-01T09:14:30Z</time>
      </trkpt>
      <trkpt lat="43.55499" lon="1.296">
        <ele>168.6</ele>
        <time>2024-08-01T09:14:31Z</time>
      </trkpt>
      <trkpt lat="43.55502" lon="1.29602">
        <ele>168.6</ele>
        <time>2024-08-01T09:14:32Z</time>
      </trkpt>
      <trkpt lat="43.55505" lon="1.29603">
        <ele>168.6</ele>
        <time>2024-08-01T09:14:33Z</time>
      </trkpt>
      <trkpt lat="43.55508" lon="1.29605">
        <ele>168.6</ele>
        <time>2024-08-01T09:14:34Z</time>
      </trkpt>
      <trkpt lat="43.55511" lon="1.29606">
        <ele>168.6</ele>
        <time>2024-08-01T09:14:35Z</time>
      </trkpt>
      <trkpt lat="43.55514" lon="1.29608">
        <ele>168.6</ele>
        <time>2024-08-01T09:14:36Z</time>
      </trkpt>
      <trkpt lat="43.55516" lon="1.2961">
        <ele>168.6</ele>
        <time>2024-08-01T09:14:37Z</time>
      </trkpt>
      <trkpt lat="43.5552" lon="1.29612">
        <ele>168.6</ele>
        <time>2024-08-01T09:14:38Z</time>
      </trkpt>
      <trkpt lat="43.55523" lon="1.29614">
        <ele>168.8</ele>
        <time>2024-08-01T09:14:39Z</time>
      </trkpt>
      <trkpt lat="43.55526" lon="1.29617">
        <ele>168.8</ele>
        <time>2024-08-01T09:14:40Z</time>
      </trkpt>
      <trkpt lat="43.55529" lon="1.29619">
        <ele>168.8</ele>
        <time>2024-08-01T09:14:41Z</time>
      </trkpt>
      <trkpt lat="43.55533" lon="1.29621">
        <ele>168.8</ele>
        <time>2024-08-01T09:14:42Z</time>
      </trkpt>
      <trkpt lat="43.55536" lon="1.29624">
        <ele>168.8</ele>
        <time>2024-08-01T09:14:43Z</time>
      </trkpt>
      <trkpt lat="43.5554" lon="1.29627">
        <ele>168.8</ele>
        <time>2024-08-01T09:14:44Z</time>
      </trkpt>
      <trkpt lat="43.55544" lon="1.2963">
        <ele>168.8</ele>
        <time>2024-08-01T09:14:45Z</time>
      </trkpt>
      <trkpt lat="43.55548" lon="1.29633">
        <ele>168.8</ele>
        <time>2024-08-01T09:14:46Z</time>
      </trkpt>
      <trkpt lat="43.55552" lon="1.29636">
        <ele>168.8</ele>
        <time>2024-08-01T09:14:47Z</time>
      </trkpt>
      <trkpt lat="43.55556" lon="1.2964">
        <ele>168.8</ele>
        <time>2024-08-01T09:14:48Z</time>
      </trkpt>
      <trkpt lat="43.5556" lon="1.29644">
        <ele>168.8</ele>
        <time>2024-08-01T09:14:49Z</time>
      </trkpt>
      <trkpt lat="43.55564" lon="1.29647">
        <ele>168.6</ele>
        <time>2024-08-01T09:14:50Z</time>
      </trkpt>
      <trkpt lat="43.55568" lon="1.29651">
        <ele>168.6</ele>
        <time>2024-08-01T09:14:51Z</time>
      </trkpt>
      <trkpt lat="43.55572" lon="1.29655">
        <ele>168.6</ele>
        <time>2024-08-01T09:14:52Z</time>
      </trkpt>
      <trkpt lat="43.55576" lon="1.2966">
        <ele>168.6</ele>
        <time>2024-08-01T09:14:53Z</time>
      </trkpt>
      <trkpt lat="43.5558" lon="1.29663">
        <ele>168.6</ele>
        <time>2024-08-01T09:14:54Z</time>
      </trkpt>
      <trkpt lat="43.55584" lon="1.29667">
        <ele>168.6</ele>
        <time>2024-08-01T09:14:55Z</time>
      </trkpt>
      <trkpt lat="43.55589" lon="1.29671">
        <ele>168.6</ele>
        <time>2024-08-01T09:14:56Z</time>
      </trkpt>
      <trkpt lat="43.55593" lon="1.29675">
        <ele>168.6</ele>
        <time>2024-08-01T09:14:57Z</time>
      </trkpt>
      <trkpt lat="43.55598" lon="1.29679">
        <ele>168.6</ele>
        <time>2024-08-01T09:14:58Z</time>
      </trkpt>
      <trkpt lat="43.55602" lon="1.29682">
        <ele>168.8</ele>
        <time>2024-08-01T09:14:59Z</time>
      </trkpt>
      <trkpt lat="43.55607" lon="1.29686">
        <ele>168.8</ele>
        <time>2024-08-01T09:15:00Z</time>
      </trkpt>
      <trkpt lat="43.55612" lon="1.2969">
        <ele>168.8</ele>
        <time>2024-08-01T09:15:01Z</time>
      </trkpt>
      <trkpt lat="43.55616" lon="1.29694">
        <ele>169</ele>
        <time>2024-08-01T09:15:02Z</time>
      </trkpt>
      <trkpt lat="43.55621" lon="1.29697">
        <ele>169</ele>
        <time>2024-08-01T09:15:03Z</time>
      </trkpt>
      <trkpt lat="43.55625" lon="1.29701">
        <ele>169</ele>
        <time>2024-08-01T09:15:04Z</time>
      </trkpt>
      <trkpt lat="43.5563" lon="1.29704">
        <ele>169</ele>
        <time>2024-08-01T09:15:05Z</time>
      </trkpt>
      <trkpt lat="43.55635" lon="1.29707">
        <ele>169</ele>
        <time>2024-08-01T09:15:06Z</time>
      </trkpt>
      <trkpt lat="43.5564" lon="1.29711">
        <ele>169</ele>
        <time>2024-08-01T09:15:07Z</time>
      </trkpt>
      <trkpt lat="43.55644" lon="1.29715">
        <ele>169</ele>
        <time>2024-08-01T09:15:08Z</time>
      </trkpt>
      <trkpt lat="43.55649" lon="1.29719">
        <ele>169</ele>
        <time>2024-08-01T09:15:09Z</time>
      </trkpt>
      <trkpt lat="43.55654" lon="1.29722">
        <ele>169</ele>
        <time>2024-08-01T09:15:10Z</time>
      </trkpt>
      <trkpt lat="43.55659" lon="1.29726">
        <ele>169</ele>
        <time>2024-08-01T09:15:11Z</time>
      </trkpt>
      <trkpt lat="43.55664" lon="1.29729">
        <ele>169</ele>
        <time>2024-08-01T09:15:12Z</time>
      </trkpt>
      <trkpt lat="43.55669" lon="1.29733">
        <ele>169</ele>
        <time>2024-08-01T09:15:13Z</time>
      </trkpt>
      <trkpt lat="43.55675" lon="1.29738">
        <ele>168.8</ele>
        <time>2024-08-01T09:15:14Z</time>
      </trkpt>
      <trkpt lat="43.5568" lon="1.29742">
        <ele>168.6</ele>
        <time>2024-08-01T09:15:15Z</time>
      </trkpt>
      <trkpt lat="43.55685" lon="1.29746">
        <ele>168.8</ele>
        <time>2024-08-01T09:15:16Z</time>
      </trkpt>
      <trkpt lat="43.55691" lon="1.29751">
        <ele>168.8</ele>
        <time>2024-08-01T09:15:17Z</time>
      </trkpt>
      <trkpt lat="43.55696" lon="1.29756">
        <ele>168.8</ele>
        <time>2024-08-01T09:15:18Z</time>
      </trkpt>
      <trkpt lat="43.55702" lon="1.2976">
        <ele>168.8</ele>
        <time>2024-08-01T09:15:19Z</time>
      </trkpt>
      <trkpt lat="43.55707" lon="1.29765">
        <ele>168.6</ele>
        <time>2024-08-01T09:15:20Z</time>
      </trkpt>
      <trkpt lat="43.55712" lon="1.2977">
        <ele>168.6</ele>
        <time>2024-08-01T09:15:21Z</time>
      </trkpt>
      <trkpt lat="43.55717" lon="1.29775">
        <ele>168.6</ele>
        <time>2024-08-01T09:15:22Z</time>
      </trkpt>
      <trkpt lat="43.55722" lon="1.29781">
        <ele>168.6</ele>
        <time>2024-08-01T09:15:23Z</time>
      </trkpt>
      <trkpt lat="43.55727" lon="1.29786">
        <ele>168.4</ele>
        <time>2024-08-01T09:15:24Z</time>
      </trkpt>
      <trkpt lat="43.55732" lon="1.29792">
        <ele>168.4</ele>
        <time>2024-08-01T09:15:25Z</time>
      </trkpt>
      <trkpt lat="43.55736" lon="1.29797">
        <ele>168.4</ele>
        <time>2024-08-01T09:15:26Z</time>
      </trkpt>
      <trkpt lat="43.55741" lon="1.29802">
        <ele>168.4</ele>
        <time>2024-08-01T09:15:27Z</time>
      </trkpt>
      <trkpt lat="43.55746" lon="1.29808">
        <ele>168.4</ele>
        <time>2024-08-01T09:15:28Z</time>
      </trkpt>
      <trkpt lat="43.5575" lon="1.29813">
        <ele>168.4</ele>
        <time>2024-08-01T09:15:29Z</time>
      </trkpt>
      <trkpt lat="43.55754" lon="1.29818">
        <ele>168.2</ele>
        <time>2024-08-01T09:15:30Z</time>
      </trkpt>
      <trkpt lat="43.55758" lon="1.29823">
        <ele>168.2</ele>
        <time>2024-08-01T09:15:31Z</time>
      </trkpt>
      <trkpt lat="43.55762" lon="1.29829">
        <ele>168.2</ele>
        <time>2024-08-01T09:15:32Z</time>
      </trkpt>
      <trkpt lat="43.55766" lon="1.29834">
        <ele>168</ele>
        <time>2024-08-01T09:15:33Z</time>
      </trkpt>
      <trkpt lat="43.55768" lon="1.29841">
        <ele>168</ele>
        <time>2024-08-01T09:15:34Z</time>
      </trkpt>
      <trkpt lat="43.55769" lon="1.29848">
        <ele>168</ele>
        <time>2024-08-01T09:15:35Z</time>
      </trkpt>
      <trkpt lat="43.5577" lon="1.29854">
        <ele>168</ele>
        <time>2024-08-01T09:15:36Z</time>
      </trkpt>
      <trkpt lat="43.55773" lon="1.2986">
        <ele>167.8</ele>
        <time>2024-08-01T09:15:37Z</time>
      </trkpt>
      <trkpt lat="43.55777" lon="1.29863">
        <ele>167.8</ele>
        <time>2024-08-01T09:15:38Z</time>
      </trkpt>
      <trkpt lat="43.55782" lon="1.29865">
        <ele>167.8</ele>
        <time>2024-08-01T09:15:39Z</time>
      </trkpt>
      <trkpt lat="43.55787" lon="1.29864">
        <ele>167.8</ele>
        <time>2024-08-01T09:15:40Z</time>
      </trkpt>
      <trkpt lat="43.55792" lon="1.29863">
        <ele>167.8</ele>
        <time>2024-08-01T09:15:41Z</time>
      </trkpt>
      <trkpt lat="43.55796" lon="1.2986">
        <ele>167.8</ele>
        <time>2024-08-01T09:15:42Z</time>
      </trkpt>
      <trkpt lat="43.55801" lon="1.29856">
        <ele>167.8</ele>
        <time>2024-08-01T09:15:43Z</time>
      </trkpt>
      <trkpt lat="43.55805" lon="1.29851">
        <ele>167.8</ele>
        <time>2024-08-01T09:15:44Z</time>
      </trkpt>
      <trkpt lat="43.55809" lon="1.29847">
        <ele>167.8</ele>
        <time>2024-08-01T09:15:45Z</time>
      </trkpt>
      <trkpt lat="43.55814" lon="1.29843">
        <ele>167.8</ele>
        <time>2024-08-01T09:15:46Z</time>
      </trkpt>
      <trkpt lat="43.5582" lon="1.29841">
        <ele>167.8</ele>
        <time>2024-08-01T09:15:47Z</time>
      </trkpt>
      <trkpt lat="43.55825" lon="1.2984">
        <ele>167.8</ele>
        <time>2024-08-01T09:15:48Z</time>
      </trkpt>
      <trkpt lat="43.55831" lon="1.2984">
        <ele>167.8</ele>
        <time>2024-08-01T09:15:49Z</time>
      </trkpt>
      <trkpt lat="43.55837" lon="1.29839">
        <ele>167.8</ele>
        <time>2024-08-01T09:15:50Z</time>
      </trkpt>
      <trkpt lat="43.55843" lon="1.29839">
        <ele>167.8</ele>
        <time>2024-08-01T09:15:51Z</time>
      </trkpt>
      <trkpt lat="43.55849" lon="1.29838">
        <ele>167.8</ele>
        <time>2024-08-01T09:15:52Z</time>
      </trkpt>
      <trkpt lat="43.55855" lon="1.29838">
        <ele>167.8</ele>
        <time>2024-08-01T09:15:53Z</time>
      </trkpt>
      <trkpt lat="43.55861" lon="1.29837">
        <ele>167.8</ele>
        <time>2024-08-01T09:15:54Z</time>
      </trkpt>
      <trkpt lat="43.55867" lon="1.29836">
        <ele>167.8</ele>
        <time>2024-08-01T09:15:55Z</time>
      </trkpt>
      <trkpt lat="43.55874" lon="1.29836">
        <ele>167.8</ele>
        <time>2024-08-01T09:15:56Z</time>
      </trkpt>
      <trkpt lat="43.5588" lon="1.29835">
        <ele>167.8</ele>
        <time>2024-08-01T09:15:57Z</time>
      </trkpt>
      <trkpt lat="43.55886" lon="1.29835">
        <ele>167.8</ele>
        <time>2024-08-01T09:15:58Z</time>
      </trkpt>
      <trkpt lat="43.55893" lon="1.29834">
        <ele>167.8</ele>
        <time>2024-08-01T09:15:59Z</time>
      </trkpt>
      <trkpt lat="43.55899" lon="1.29833">
        <ele>167.8</ele>
        <time>2024-08-01T09:16:00Z</time>
      </trkpt>
      <trkpt lat="43.55905" lon="1.29832">
        <ele>167.6</ele>
        <time>2024-08-01T09:16:01Z</time>
      </trkpt>
      <trkpt lat="43.55912" lon="1.29831">
        <ele>167.6</ele>
        <time>2024-08-01T09:16:02Z</time>
      </trkpt>
      <trkpt lat="43.55918" lon="1.29831">
        <ele>167.6</ele>
        <time>2024-08-01T09:16:03Z</time>
      </trkpt>
      <trkpt lat="43.55925" lon="1.2983">
        <ele>167.4</ele>
        <time>2024-08-01T09:16:04Z</time>
      </trkpt>
      <trkpt lat="43.55931" lon="1.2983">
        <ele>167.4</ele>
        <time>2024-08-01T09:16:05Z</time>
      </trkpt>
      <trkpt lat="43.55938" lon="1.29829">
        <ele>167.2</ele>
        <time>2024-08-01T09:16:06Z</time>
      </trkpt>
      <trkpt lat="43.55944" lon="1.29829">
        <ele>167.2</ele>
        <time>2024-08-01T09:16:07Z</time>
      </trkpt>
      <trkpt lat="43.55951" lon="1.29829">
        <ele>167.2</ele>
        <time>2024-08-01T09:16:08Z</time>
      </trkpt>
      <trkpt lat="43.55958" lon="1.29828">
        <ele>167.2</ele>
        <time>2024-08-01T09:16:09Z</time>
      </trkpt>
      <trkpt lat="43.55964" lon="1.29826">
        <ele>167.2</ele>
        <time>2024-08-01T09:16:10Z</time>
      </trkpt>
      <trkpt lat="43.55971" lon="1.29825">
        <ele>167.2</ele>
        <time>2024-08-01T09:16:11Z</time>
      </trkpt>
      <trkpt lat="43.55977" lon="1.29822">
        <ele>167.2</ele>
        <time>2024-08-01T09:16:12Z</time>
      </trkpt>
      <trkpt lat="43.55984" lon="1.29819">
        <ele>167</ele>
        <time>2024-08-01T09:16:13Z</time>
      </trkpt>
      <trkpt lat="43.5599" lon="1.29815">
        <ele>167</ele>
        <time>2024-08-01T09:16:14Z</time>
      </trkpt>
      <trkpt lat="43.55996" lon="1.29811">
        <ele>167</ele>
        <time>2024-08-01T09:16:15Z</time>
      </trkpt>
      <trkpt lat="43.56002" lon="1.29806">
        <ele>167</ele>
        <time>2024-08-01T09:16:16Z</time>
      </trkpt>
      <trkpt lat="43.56007" lon="1.29802">
        <ele>167</ele>
        <time>2024-08-01T09:16:17Z</time>
      </trkpt>
      <trkpt lat="43.56013" lon="1.29797">
        <ele>167</ele>
        <time>2024-08-01T09:16:18Z</time>
      </trkpt>
      <trkpt lat="43.56019" lon="1.29793">
        <ele>167</ele>
        <time>2024-08-01T09:16:19Z</time>
      </trkpt>
      <trkpt lat="43.56024" lon="1.29789">
        <ele>167</ele>
        <time>2024-08-01T09:16:20Z</time>
      </trkpt>
      <trkpt lat="43.56029" lon="1.29785">
        <ele>166.8</ele>
        <time>2024-08-01T09:16:21Z</time>
      </trkpt>
      <trkpt lat="43.56033" lon="1.29781">
        <ele>166.8</ele>
        <time>2024-08-01T09:16:22Z</time>
      </trkpt>
      <trkpt lat="43.56037" lon="1.29778">
        <ele>166.8</ele>
        <time>2024-08-01T09:16:23Z</time>
      </trkpt>
      <trkpt lat="43.56041" lon="1.29776">
        <ele>166.6</ele>
        <time>2024-08-01T09:16:24Z</time>
      </trkpt>
      <trkpt lat="43.56044" lon="1.29773">
        <ele>166.6</ele>
        <time>2024-08-01T09:16:25Z</time>
      </trkpt>
      <trkpt lat="43.56047" lon="1.2977">
        <ele>166.6</ele>
        <time>2024-08-01T09:16:26Z</time>
      </trkpt>
      <trkpt lat="43.56051" lon="1.29768">
        <ele>166.6</ele>
        <time>2024-08-01T09:16:27Z</time>
      </trkpt>
      <trkpt lat="43.56055" lon="1.29767">
        <ele>166.6</ele>
        <time>2024-08-01T09:16:28Z</time>
      </trkpt>
      <trkpt lat="43.56059" lon="1.29768">
        <ele>166.6</ele>
        <time>2024-08-01T09:16:29Z</time>
      </trkpt>
      <trkpt lat="43.56063" lon="1.2977">
        <ele>166.6</ele>
        <time>2024-08-01T09:16:30Z</time>
      </trkpt>
      <trkpt lat="43.56068" lon="1.2977">
        <ele>166.6</ele>
        <time>2024-08-01T09:16:31Z</time>
      </trkpt>
      <trkpt lat="43.56072" lon="1.29769">
        <ele>166.6</ele>
        <time>2024-08-01T09:16:32Z</time>
      </trkpt>
      <trkpt lat="43.56076" lon="1.29766">
        <ele>166.6</ele>
        <time>2024-08-01T09:16:33Z</time>
      </trkpt>
      <trkpt lat="43.56079" lon="1.29761">
        <ele>166.6</ele>
        <time>2024-08-01T09:16:34Z</time>
      </trkpt>
      <trkpt lat="43.56081" lon="1.29755">
        <ele>166.6</ele>
        <time>2024-08-01T09:16:35Z</time>
      </trkpt>
      <trkpt lat="43.56083" lon="1.29749">
        <ele>166.6</ele>
        <time>2024-08-01T09:16:36Z</time>
      </trkpt>
      <trkpt lat="43.56085" lon="1.29744">
        <ele>166.6</ele>
        <time>2024-08-01T09:16:37Z</time>
      </trkpt>
      <trkpt lat="43.56088" lon="1.29739">
        <ele>166.6</ele>
        <time>2024-08-01T09:16:38Z</time>
      </trkpt>
      <trkpt lat="43.56091" lon="1.29735">
        <ele>166.8</ele>
        <time>2024-08-01T09:16:39Z</time>
      </trkpt>
      <trkpt lat="43.56094" lon="1.29731">
        <ele>166.8</ele>
        <time>2024-08-01T09:16:40Z</time>
      </trkpt>
      <trkpt lat="43.56097" lon="1.29727">
        <ele>166.8</ele>
        <time>2024-08-01T09:16:41Z</time>
      </trkpt>
      <trkpt lat="43.56101" lon="1.29725">
        <ele>166.8</ele>
        <time>2024-08-01T09:16:42Z</time>
      </trkpt>
      <trkpt lat="43.56104" lon="1.29722">
        <ele>166.8</ele>
        <time>2024-08-01T09:16:43Z</time>
      </trkpt>
      <trkpt lat="43.56107" lon="1.29718">
        <ele>167</ele>
        <time>2024-08-01T09:16:44Z</time>
      </trkpt>
      <trkpt lat="43.56111" lon="1.29715">
        <ele>167.4</ele>
        <time>2024-08-01T09:16:45Z</time>
      </trkpt>
      <trkpt lat="43.56114" lon="1.29713">
        <ele>167.6</ele>
        <time>2024-08-01T09:16:46Z</time>
      </trkpt>
      <trkpt lat="43.56118" lon="1.2971">
        <ele>167.8</ele>
        <time>2024-08-01T09:16:47Z</time>
      </trkpt>
      <trkpt lat="43.56122" lon="1.29707">
        <ele>168</ele>
        <time>2024-08-01T09:16:48Z</time>
      </trkpt>
      <trkpt lat="43.56126" lon="1.29704">
        <ele>168</ele>
        <time>2024-08-01T09:16:49Z</time>
      </trkpt>
      <trkpt lat="43.5613" lon="1.29701">
        <ele>168.4</ele>
        <time>2024-08-01T09:16:50Z</time>
      </trkpt>
      <trkpt lat="43.56134" lon="1.29697">
        <ele>168.4</ele>
        <time>2024-08-01T09:16:51Z</time>
      </trkpt>
      <trkpt lat="43.56138" lon="1.29693">
        <ele>168.6</ele>
        <time>2024-08-01T09:16:52Z</time>
      </trkpt>
      <trkpt lat="43.56142" lon="1.29689">
        <ele>168.6</ele>
        <time>2024-08-01T09:16:53Z</time>
      </trkpt>
      <trkpt lat="43.56147" lon="1.29686">
        <ele>168.6</ele>
        <time>2024-08-01T09:16:54Z</time>
      </trkpt>
      <trkpt lat="43.56151" lon="1.29682">
        <ele>168.6</ele>
        <time>2024-08-01T09:16:55Z</time>
      </trkpt>
      <trkpt lat="43.56155" lon="1.29678">
        <ele>168.8</ele>
        <time>2024-08-01T09:16:56Z</time>
      </trkpt>
      <trkpt lat="43.5616" lon="1.29674">
        <ele>168.8</ele>
        <time>2024-08-01T09:16:57Z</time>
      </trkpt>
      <trkpt lat="43.56165" lon="1.2967">
        <ele>168.8</ele>
        <time>2024-08-01T09:16:58Z</time>
      </trkpt>
      <trkpt lat="43.5617" lon="1.29666">
        <ele>168.8</ele>
        <time>2024-08-01T09:16:59Z</time>
      </trkpt>
      <trkpt lat="43.56175" lon="1.29661">
        <ele>168.8</ele>
        <time>2024-08-01T09:17:00Z</time>
      </trkpt>
      <trkpt lat="43.56181" lon="1.29657">
        <ele>168.8</ele>
        <time>2024-08-01T09:17:01Z</time>
      </trkpt>
      <trkpt lat="43.56186" lon="1.29652">
        <ele>168.8</ele>
        <time>2024-08-01T09:17:02Z</time>
      </trkpt>
      <trkpt lat="43.56191" lon="1.29648">
        <ele>168.8</ele>
        <time>2024-08-01T09:17:03Z</time>
      </trkpt>
      <trkpt lat="43.56197" lon="1.29643">
        <ele>168.8</ele>
        <time>2024-08-01T09:17:04Z</time>
      </trkpt>
      <trkpt lat="43.56202" lon="1.29639">
        <ele>168.6</ele>
        <time>2024-08-01T09:17:05Z</time>
      </trkpt>
      <trkpt lat="43.56207" lon="1.29634">
        <ele>168.6</ele>
        <time>2024-08-01T09:17:06Z</time>
      </trkpt>
      <trkpt lat="43.56212" lon="1.2963">
        <ele>168.4</ele>
        <time>2024-08-01T09:17:07Z</time>
      </trkpt>
      <trkpt lat="43.56217" lon="1.29625">
        <ele>168.2</ele>
        <time>2024-08-01T09:17:08Z</time>
      </trkpt>
      <trkpt lat="43.56222" lon="1.29621">
        <ele>168</ele>
        <time>2024-08-01T09:17:09Z</time>
      </trkpt>
      <trkpt lat="43.56227" lon="1.29617">
        <ele>167.8</ele>
        <time>2024-08-01T09:17:10Z</time>
      </trkpt>
      <trkpt lat="43.56232" lon="1.29613">
        <ele>167.6</ele>
        <time>2024-08-01T09:17:11Z</time>
      </trkpt>
      <trkpt lat="43.56236" lon="1.29609">
        <ele>167.6</ele>
        <time>2024-08-01T09:17:12Z</time>
      </trkpt>
      <trkpt lat="43.5624" lon="1.29605">
        <ele>167.6</ele>
        <time>2024-08-01T09:17:13Z</time>
      </trkpt>
      <trkpt lat="43.56244" lon="1.29602">
        <ele>167.4</ele>
        <time>2024-08-01T09:17:14Z</time>
      </trkpt>
      <trkpt lat="43.56248" lon="1.29598">
        <ele>167.4</ele>
        <time>2024-08-01T09:17:15Z</time>
      </trkpt>
      <trkpt lat="43.56252" lon="1.29595">
        <ele>167.4</ele>
        <time>2024-08-01T09:17:16Z</time>
      </trkpt>
      <trkpt lat="43.56255" lon="1.29592">
        <ele>167.4</ele>
        <time>2024-08-01T09:17:17Z</time>
      </trkpt>
      <trkpt lat="43.56258" lon="1.29588">
        <ele>167.4</ele>
        <time>2024-08-01T09:17:18Z</time>
      </trkpt>
      <trkpt lat="43.56262" lon="1.29584">
        <ele>167.4</ele>
        <time>2024-08-01T09:17:19Z</time>
      </trkpt>
      <trkpt lat="43.56266" lon="1.2958">
        <ele>167.4</ele>
        <time>2024-08-01T09:17:20Z</time>
      </trkpt>
      <trkpt lat="43.56271" lon="1.29576">
        <ele>167.4</ele>
        <time>2024-08-01T09:17:21Z</time>
      </trkpt>
      <trkpt lat="43.56275" lon="1.29573">
        <ele>167.2</ele>
        <time>2024-08-01T09:17:22Z</time>
      </trkpt>
      <trkpt lat="43.56279" lon="1.29569">
        <ele>167.2</ele>
        <time>2024-08-01T09:17:23Z</time>
      </trkpt>
      <trkpt lat="43.56283" lon="1.29566">
        <ele>167.2</ele>
        <time>2024-08-01T09:17:24Z</time>
      </trkpt>
      <trkpt lat="43.56286" lon="1.29563">
        <ele>167.2</ele>
        <time>2024-08-01T09:17:25Z</time>
      </trkpt>
      <trkpt lat="43.5629" lon="1.29562">
        <ele>167.2</ele>
        <time>2024-08-01T09:17:26Z</time>
      </trkpt>
      <trkpt lat="43.56294" lon="1.29563">
        <ele>167.2</ele>
        <time>2024-08-01T09:17:27Z</time>
      </trkpt>
      <trkpt lat="43.56297" lon="1.29564">
        <ele>167.2</ele>
        <time>2024-08-01T09:17:28Z</time>
      </trkpt>
      <trkpt lat="43.56301" lon="1.29566">
        <ele>167.2</ele>
        <time>2024-08-01T09:17:29Z</time>
      </trkpt>
      <trkpt lat="43.56305" lon="1.29568">
        <ele>167.2</ele>
        <time>2024-08-01T09:17:30Z</time>
      </trkpt>
      <trkpt lat="43.56308" lon="1.29569">
        <ele>167</ele>
        <time>2024-08-01T09:17:31Z</time>
      </trkpt>
      <trkpt lat="43.56312" lon="1.29567">
        <ele>167</ele>
        <time>2024-08-01T09:17:32Z</time>
      </trkpt>
      <trkpt lat="43.56316" lon="1.29565">
        <ele>167</ele>
        <time>2024-08-01T09:17:33Z</time>
      </trkpt>
      <trkpt lat="43.56319" lon="1.2956">
        <ele>167</ele>
        <time>2024-08-01T09:17:34Z</time>
      </trkpt>
      <trkpt lat="43.5632" lon="1.29555">
        <ele>167</ele>
        <time>2024-08-01T09:17:35Z</time>
      </trkpt>
      <trkpt lat="43.5632" lon="1.2955">
        <ele>166.8</ele>
        <time>2024-08-01T09:17:36Z</time>
      </trkpt>
      <trkpt lat="43.56318" lon="1.29545">
        <ele>166.8</ele>
        <time>2024-08-01T09:17:37Z</time>
      </trkpt>
      <trkpt lat="43.56316" lon="1.2954">
        <ele>166.8</ele>
        <time>2024-08-01T09:17:38Z</time>
      </trkpt>
      <trkpt lat="43.56312" lon="1.29536">
        <ele>167</ele>
        <time>2024-08-01T09:17:39Z</time>
      </trkpt>
      <trkpt lat="43.56309" lon="1.29533">
        <ele>167</ele>
        <time>2024-08-01T09:17:40Z</time>
      </trkpt>
      <trkpt lat="43.56306" lon="1.29529">
        <ele>167</ele>
        <time>2024-08-01T09:17:41Z</time>
      </trkpt>
      <trkpt lat="43.56302" lon="1.29525">
        <ele>167</ele>
        <time>2024-08-01T09:17:42Z</time>
      </trkpt>
      <trkpt lat="43.56298" lon="1.29522">
        <ele>167.2</ele>
        <time>2024-08-01T09:17:43Z</time>
      </trkpt>
      <trkpt lat="43.56294" lon="1.29518">
        <ele>167.2</ele>
        <time>2024-08-01T09:17:44Z</time>
      </trkpt>
      <trkpt lat="43.5629" lon="1.29513">
        <ele>167.2</ele>
        <time>2024-08-01T09:17:45Z</time>
      </trkpt>
      <trkpt lat="43.56286" lon="1.29509">
        <ele>167.2</ele>
        <time>2024-08-01T09:17:46Z</time>
      </trkpt>
      <trkpt lat="43.56281" lon="1.29505">
        <ele>167.2</ele>
        <time>2024-08-01T09:17:47Z</time>
      </trkpt>
      <trkpt lat="43.56277" lon="1.29501">
        <ele>167.2</ele>
        <time>2024-08-01T09:17:48Z</time>
      </trkpt>
      <trkpt lat="43.56273" lon="1.29497">
        <ele>167.2</ele>
        <time>2024-08-01T09:17:49Z</time>
      </trkpt>
      <trkpt lat="43.56269" lon="1.29494">
        <ele>167</ele>
        <time>2024-08-01T09:17:50Z</time>
      </trkpt>
      <trkpt lat="43.56266" lon="1.2949">
        <ele>167</ele>
        <time>2024-08-01T09:17:51Z</time>
      </trkpt>
      <trkpt lat="43.56264" lon="1.29485">
        <ele>167</ele>
        <time>2024-08-01T09:17:52Z</time>
      </trkpt>
      <trkpt lat="43.56262" lon="1.2948">
        <ele>166.8</ele>
        <time>2024-08-01T09:17:53Z</time>
      </trkpt>
      <trkpt lat="43.5626" lon="1.29474">
        <ele>166.8</ele>
        <time>2024-08-01T09:17:54Z</time>
      </trkpt>
      <trkpt lat="43.56257" lon="1.29469">
        <ele>166.8</ele>
        <time>2024-08-01T09:17:55Z</time>
      </trkpt>
      <trkpt lat="43.56254" lon="1.29464">
        <ele>166.8</ele>
        <time>2024-08-01T09:17:56Z</time>
      </trkpt>
      <trkpt lat="43.5625" lon="1.2946">
        <ele>166.8</ele>
        <time>2024-08-01T09:17:57Z</time>
      </trkpt>
      <trkpt lat="43.56246" lon="1.29457">
        <ele>166.8</ele>
        <time>2024-08-01T09:17:58Z</time>
      </trkpt>
      <trkpt lat="43.56242" lon="1.29453">
        <ele>166.8</ele>
        <time>2024-08-01T09:17:59Z</time>
      </trkpt>
      <trkpt lat="43.56239" lon="1.29449">
        <ele>166.8</ele>
        <time>2024-08-01T09:18:00Z</time>
      </trkpt>
      <trkpt lat="43.56236" lon="1.29446">
        <ele>166.8</ele>
        <time>2024-08-01T09:18:01Z</time>
      </trkpt>
      <trkpt lat="43.56233" lon="1.29442">
        <ele>166.8</ele>
        <time>2024-08-01T09:18:02Z</time>
      </trkpt>
      <trkpt lat="43.5623" lon="1.29438">
        <ele>166.8</ele>
        <time>2024-08-01T09:18:03Z</time>
      </trkpt>
      <trkpt lat="43.56226" lon="1.29433">
        <ele>166.8</ele>
        <time>2024-08-01T09:18:04Z</time>
      </trkpt>
      <trkpt lat="43.56223" lon="1.29429">
        <ele>166.8</ele>
        <time>2024-08-01T09:18:05Z</time>
      </trkpt>
      <trkpt lat="43.5622" lon="1.29424">
        <ele>166.8</ele>
        <time>2024-08-01T09:18:06Z</time>
      </trkpt>
      <trkpt lat="43.56217" lon="1.29419">
        <ele>166.8</ele>
        <time>2024-08-01T09:18:07Z</time>
      </trkpt>
      <trkpt lat="43.56215" lon="1.29415">
        <ele>167</ele>
        <time>2024-08-01T09:18:08Z</time>
      </trkpt>
      <trkpt lat="43.56212" lon="1.2941">
        <ele>167</ele>
        <time>2024-08-01T09:18:09Z</time>
      </trkpt>
      <trkpt lat="43.56209" lon="1.29406">
        <ele>167</ele>
        <time>2024-08-01T09:18:10Z</time>
      </trkpt>
      <trkpt lat="43.56205" lon="1.29402">
        <ele>167</ele>
        <time>2024-08-01T09:18:11Z</time>
      </trkpt>
      <trkpt lat="43.56202" lon="1.29398">
        <ele>167</ele>
        <time>2024-08-01T09:18:12Z</time>
      </trkpt>
      <trkpt lat="43.56199" lon="1.29395">
        <ele>167</ele>
        <time>2024-08-01T09:18:13Z</time>
      </trkpt>
      <trkpt lat="43.56195" lon="1.29391">
        <ele>167</ele>
        <time>2024-08-01T09:18:14Z</time>
      </trkpt>
      <trkpt lat="43.56192" lon="1.29388">
        <ele>167.2</ele>
        <time>2024-08-01T09:18:15Z</time>
      </trkpt>
      <trkpt lat="43.56189" lon="1.29383">
        <ele>167.2</ele>
        <time>2024-08-01T09:18:16Z</time>
      </trkpt>
      <trkpt lat="43.56187" lon="1.29379">
        <ele>167.4</ele>
        <time>2024-08-01T09:18:17Z</time>
      </trkpt>
      <trkpt lat="43.56184" lon="1.29375">
        <ele>167.4</ele>
        <time>2024-08-01T09:18:18Z</time>
      </trkpt>
      <trkpt lat="43.56181" lon="1.29371">
        <ele>167.4</ele>
        <time>2024-08-01T09:18:19Z</time>
      </trkpt>
      <trkpt lat="43.56178" lon="1.29366">
        <ele>167.4</ele>
        <time>2024-08-01T09:18:20Z</time>
      </trkpt>
      <trkpt lat="43.56175" lon="1.29361">
        <ele>167.6</ele>
        <time>2024-08-01T09:18:21Z</time>
      </trkpt>
      <trkpt lat="43.56173" lon="1.29356">
        <ele>167.6</ele>
        <time>2024-08-01T09:18:22Z</time>
      </trkpt>
      <trkpt lat="43.56171" lon="1.29351">
        <ele>167.6</ele>
        <time>2024-08-01T09:18:23Z</time>
      </trkpt>
      <trkpt lat="43.56169" lon="1.29346">
        <ele>167.6</ele>
        <time>2024-08-01T09:18:24Z</time>
      </trkpt>
      <trkpt lat="43.56166" lon="1.29341">
        <ele>167.6</ele>
        <time>2024-08-01T09:18:25Z</time>
      </trkpt>
      <trkpt lat="43.56164" lon="1.29335">
        <ele>167.6</ele>
        <time>2024-08-01T09:18:26Z</time>
      </trkpt>
      <trkpt lat="43.56162" lon="1.2933">
        <ele>167.6</ele>
        <time>2024-08-01T09:18:27Z</time>
      </trkpt>
      <trkpt lat="43.5616" lon="1.29325">
        <ele>167.6</ele>
        <time>2024-08-01T09:18:28Z</time>
      </trkpt>
      <trkpt lat="43.56159" lon="1.29319">
        <ele>167.6</ele>
        <time>2024-08-01T09:18:29Z</time>
      </trkpt>
      <trkpt lat="43.56159" lon="1.29313">
        <ele>167.6</ele>
        <time>2024-08-01T09:18:30Z</time>
      </trkpt>
      <trkpt lat="43.5616" lon="1.29309">
        <ele>167.8</ele>
        <time>2024-08-01T09:18:31Z</time>
      </trkpt>
      <trkpt lat="43.56162" lon="1.29304">
        <ele>167.8</ele>
        <time>2024-08-01T09:18:32Z</time>
      </trkpt>
      <trkpt lat="43.56164" lon="1.29299">
        <ele>167.8</ele>
        <time>2024-08-01T09:18:33Z</time>
      </trkpt>
      <trkpt lat="43.56166" lon="1.29294">
        <ele>167.8</ele>
        <time>2024-08-01T09:18:34Z</time>
      </trkpt>
      <trkpt lat="43.56167" lon="1.29289">
        <ele>167.8</ele>
        <time>2024-08-01T09:18:35Z</time>
      </trkpt>
      <trkpt lat="43.5617" lon="1.29284">
        <ele>167.8</ele>
        <time>2024-08-01T09:18:36Z</time>
      </trkpt>
      <trkpt lat="43.56172" lon="1.2928">
        <ele>167.8</ele>
        <time>2024-08-01T09:18:37Z</time>
      </trkpt>
      <trkpt lat="43.56176" lon="1.29277">
        <ele>167.8</ele>
        <time>2024-08-01T09:18:38Z</time>
      </trkpt>
      <trkpt lat="43.56179" lon="1.29275">
        <ele>168</ele>
        <time>2024-08-01T09:18:39Z</time>
      </trkpt>
      <trkpt lat="43.56183" lon="1.29272">
        <ele>168</ele>
        <time>2024-08-01T09:18:40Z</time>
      </trkpt>
      <trkpt lat="43.56186" lon="1.29269">
        <ele>168</ele>
        <time>2024-08-01T09:18:41Z</time>
      </trkpt>
      <trkpt lat="43.5619" lon="1.29267">
        <ele>168</ele>
        <time>2024-08-01T09:18:42Z</time>
      </trkpt>
      <trkpt lat="43.56195" lon="1.29263">
        <ele>168</ele>
        <time>2024-08-01T09:18:43Z</time>
      </trkpt>
      <trkpt lat="43.56198" lon="1.29261">
        <ele>168.2</ele>
        <time>2024-08-01T09:18:44Z</time>
      </trkpt>
      <trkpt lat="43.56202" lon="1.29259">
        <ele>168.2</ele>
        <time>2024-08-01T09:18:45Z</time>
      </trkpt>
      <trkpt lat="43.56206" lon="1.29256">
        <ele>168.2</ele>
        <time>2024-08-01T09:18:46Z</time>
      </trkpt>
      <trkpt lat="43.5621" lon="1.29253">
        <ele>168.2</ele>
        <time>2024-08-01T09:18:47Z</time>
      </trkpt>
      <trkpt lat="43.56214" lon="1.2925">
        <ele>168.4</ele>
        <time>2024-08-01T09:18:48Z</time>
      </trkpt>
      <trkpt lat="43.56218" lon="1.29247">
        <ele>168.4</ele>
        <time>2024-08-01T09:18:49Z</time>
      </trkpt>
      <trkpt lat="43.56222" lon="1.29244">
        <ele>168.4</ele>
        <time>2024-08-01T09:18:50Z</time>
      </trkpt>
      <trkpt lat="43.56226" lon="1.29241">
        <ele>168.4</ele>
        <time>2024-08-01T09:18:51Z</time>
      </trkpt>
      <trkpt lat="43.5623" lon="1.29238">
        <ele>168.2</ele>
        <time>2024-08-01T09:18:52Z</time>
      </trkpt>
      <trkpt lat="43.56233" lon="1.29235">
        <ele>168.4</ele>
        <time>2024-08-01T09:18:53Z</time>
      </trkpt>
      <trkpt lat="43.56237" lon="1.29232">
        <ele>168.4</ele>
        <time>2024-08-01T09:18:54Z</time>
      </trkpt>
      <trkpt lat="43.56241" lon="1.29228">
        <ele>168.4</ele>
        <time>2024-08-01T09:18:55Z</time>
      </trkpt>
      <trkpt lat="43.56245" lon="1.29225">
        <ele>168.2</ele>
        <time>2024-08-01T09:18:56Z</time>
      </trkpt>
      <trkpt lat="43.5625" lon="1.29222">
        <ele>168.2</ele>
        <time>2024-08-01T09:18:57Z</time>
      </trkpt>
      <trkpt lat="43.56254" lon="1.29218">
        <ele>168.2</ele>
        <time>2024-08-01T09:18:58Z</time>
      </trkpt>
      <trkpt lat="43.56258" lon="1.29215">
        <ele>168.2</ele>
        <time>2024-08-01T09:18:59Z</time>
      </trkpt>
      <trkpt lat="43.56262" lon="1.29212">
        <ele>168.4</ele>
        <time>2024-08-01T09:19:00Z</time>
      </trkpt>
      <trkpt lat="43.56266" lon="1.29209">
        <ele>168.4</ele>
        <time>2024-08-01T09:19:01Z</time>
      </trkpt>
      <trkpt lat="43.5627" lon="1.29206">
        <ele>168.4</ele>
        <time>2024-08-01T09:19:02Z</time>
      </trkpt>
      <trkpt lat="43.56274" lon="1.29203">
        <ele>168.4</ele>
        <time>2024-08-01T09:19:03Z</time>
      </trkpt>
      <trkpt lat="43.56278" lon="1.292">
        <ele>168.4</ele>
        <time>2024-08-01T09:19:04Z</time>
      </trkpt>
      <trkpt lat="43.56282" lon="1.29197">
        <ele>168.4</ele>
        <time>2024-08-01T09:19:05Z</time>
      </trkpt>
      <trkpt lat="43.56286" lon="1.29194">
        <ele>168.4</ele>
        <time>2024-08-01T09:19:06Z</time>
      </trkpt>
      <trkpt lat="43.5629" lon="1.29192">
        <ele>168.4</ele>
        <time>2024-08-01T09:19:07Z</time>
      </trkpt>
      <trkpt lat="43.56293" lon="1.29188">
        <ele>168.4</ele>
        <time>2024-08-01T09:19:08Z</time>
      </trkpt>
      <trkpt lat="43.56297" lon="1.29185">
        <ele>168.4</ele>
        <time>2024-08-01T09:19:09Z</time>
      </trkpt>
      <trkpt lat="43.56301" lon="1.29182">
        <ele>168.4</ele>
        <time>2024-08-01T09:19:10Z</time>
      </trkpt>
      <trkpt lat="43.56305" lon="1.2918">
        <ele>168.4</ele>
        <time>2024-08-01T09:19:11Z</time>
      </trkpt>
      <trkpt lat="43.56309" lon="1.29177">
        <ele>168.2</ele>
        <time>2024-08-01T09:19:12Z</time>
      </trkpt>
      <trkpt lat="43.56313" lon="1.29174">
        <ele>168.2</ele>
        <time>2024-08-01T09:19:13Z</time>
      </trkpt>
      <trkpt lat="43.56316" lon="1.29171">
        <ele>168.2</ele>
        <time>2024-08-01T09:19:14Z</time>
      </trkpt>
      <trkpt lat="43.5632" lon="1.29169">
        <ele>168.2</ele>
        <time>2024-08-01T09:19:15Z</time>
      </trkpt>
      <trkpt lat="43.56323" lon="1.29166">
        <ele>168.2</ele>
        <time>2024-08-01T09:19:16Z</time>
      </trkpt>
      <trkpt lat="43.5634" lon="1.29158">
        <ele>168.2</ele>
        <time>2024-08-01T09:19:21Z</time>
      </trkpt>
      <trkpt lat="43.56353" lon="1.29159">
        <ele>168.4</ele>
        <time>2024-08-01T09:19:25Z</time>
      </trkpt>
      <trkpt lat="43.56356" lon="1.29157">
        <ele>168.2</ele>
        <time>2024-08-01T09:19:26Z</time>
      </trkpt>
      <trkpt lat="43.56359" lon="1.29154">
        <ele>168.6</ele>
        <time>2024-08-01T09:19:27Z</time>
      </trkpt>
      <trkpt lat="43.56361" lon="1.29152">
        <ele>168.6</ele>
        <time>2024-08-01T09:19:28Z</time>
      </trkpt>
      <trkpt lat="43.56364" lon="1.29148">
        <ele>168.8</ele>
        <time>2024-08-01T09:19:29Z</time>
      </trkpt>
      <trkpt lat="43.56365" lon="1.29144">
        <ele>168.8</ele>
        <time>2024-08-01T09:19:30Z</time>
      </trkpt>
      <trkpt lat="43.56366" lon="1.29139">
        <ele>168.8</ele>
        <time>2024-08-01T09:19:31Z</time>
      </trkpt>
      <trkpt lat="43.56368" lon="1.29135">
        <ele>168.8</ele>
        <time>2024-08-01T09:19:32Z</time>
      </trkpt>
      <trkpt lat="43.5637" lon="1.29131">
        <ele>168.8</ele>
        <time>2024-08-01T09:19:33Z</time>
      </trkpt>
      <trkpt lat="43.56372" lon="1.29128">
        <ele>168.6</ele>
        <time>2024-08-01T09:19:34Z</time>
      </trkpt>
      <trkpt lat="43.56375" lon="1.29124">
        <ele>168.6</ele>
        <time>2024-08-01T09:19:35Z</time>
      </trkpt>
      <trkpt lat="43.56378" lon="1.29121">
        <ele>168.6</ele>
        <time>2024-08-01T09:19:36Z</time>
      </trkpt>
      <trkpt lat="43.56381" lon="1.29117">
        <ele>168.6</ele>
        <time>2024-08-01T09:19:37Z</time>
      </trkpt>
      <trkpt lat="43.56384" lon="1.29114">
        <ele>168.6</ele>
        <time>2024-08-01T09:19:38Z</time>
      </trkpt>
      <trkpt lat="43.56387" lon="1.2911">
        <ele>168.6</ele>
        <time>2024-08-01T09:19:39Z</time>
      </trkpt>
      <trkpt lat="43.5639" lon="1.29106">
        <ele>168.6</ele>
        <time>2024-08-01T09:19:40Z</time>
      </trkpt>
      <trkpt lat="43.56394" lon="1.29102">
        <ele>168.6</ele>
        <time>2024-08-01T09:19:41Z</time>
      </trkpt>
      <trkpt lat="43.56397" lon="1.29097">
        <ele>168.6</ele>
        <time>2024-08-01T09:19:42Z</time>
      </trkpt>
      <trkpt lat="43.564" lon="1.29092">
        <ele>168.6</ele>
        <time>2024-08-01T09:19:43Z</time>
      </trkpt>
      <trkpt lat="43.56403" lon="1.29087">
        <ele>168.6</ele>
        <time>2024-08-01T09:19:44Z</time>
      </trkpt>
      <trkpt lat="43.56405" lon="1.29081">
        <ele>168.6</ele>
        <time>2024-08-01T09:19:45Z</time>
      </trkpt>
      <trkpt lat="43.56408" lon="1.29076">
        <ele>168.6</ele>
        <time>2024-08-01T09:19:46Z</time>
      </trkpt>
      <trkpt lat="43.5641" lon="1.2907">
        <ele>168.6</ele>
        <time>2024-08-01T09:19:47Z</time>
      </trkpt>
      <trkpt lat="43.56413" lon="1.29065">
        <ele>168.6</ele>
        <time>2024-08-01T09:19:48Z</time>
      </trkpt>
      <trkpt lat="43.56416" lon="1.29059">
        <ele>168.6</ele>
        <time>2024-08-01T09:19:49Z</time>
      </trkpt>
      <trkpt lat="43.56419" lon="1.29054">
        <ele>168.6</ele>
        <time>2024-08-01T09:19:50Z</time>
      </trkpt>
      <trkpt lat="43.56421" lon="1.29049">
        <ele>168.6</ele>
        <time>2024-08-01T09:19:51Z</time>
      </trkpt>
      <trkpt lat="43.56424" lon="1.29044">
        <ele>168.6</ele>
        <time>2024-08-01T09:19:52Z</time>
      </trkpt>
      <trkpt lat="43.56427" lon="1.29039">
        <ele>168.6</ele>
        <time>2024-08-01T09:19:53Z</time>
      </trkpt>
      <trkpt lat="43.56429" lon="1.29034">
        <ele>168.4</ele>
        <time>2024-08-01T09:19:54Z</time>
      </trkpt>
      <trkpt lat="43.56432" lon="1.29029">
        <ele>168.4</ele>
        <time>2024-08-01T09:19:55Z</time>
      </trkpt>
      <trkpt lat="43.56434" lon="1.29024">
        <ele>168.4</ele>
        <time>2024-08-01T09:19:56Z</time>
      </trkpt>
      <trkpt lat="43.56436" lon="1.29019">
        <ele>168.4</ele>
        <time>2024-08-01T09:19:57Z</time>
      </trkpt>
      <trkpt lat="43.56439" lon="1.29014">
        <ele>168.4</ele>
        <time>2024-08-01T09:19:58Z</time>
      </trkpt>
      <trkpt lat="43.56441" lon="1.29009">
        <ele>168.4</ele>
        <time>2024-08-01T09:19:59Z</time>
      </trkpt>
      <trkpt lat="43.56443" lon="1.29004">
        <ele>168.4</ele>
        <time>2024-08-01T09:20:00Z</time>
      </trkpt>
      <trkpt lat="43.56446" lon="1.28999">
        <ele>168.6</ele>
        <time>2024-08-01T09:20:01Z</time>
      </trkpt>
      <trkpt lat="43.56448" lon="1.28994">
        <ele>168.6</ele>
        <time>2024-08-01T09:20:02Z</time>
      </trkpt>
      <trkpt lat="43.56451" lon="1.28988">
        <ele>168.6</ele>
        <time>2024-08-01T09:20:03Z</time>
      </trkpt>
      <trkpt lat="43.56453" lon="1.28983">
        <ele>168.6</ele>
        <time>2024-08-01T09:20:04Z</time>
      </trkpt>
      <trkpt lat="43.56455" lon="1.28978">
        <ele>168.6</ele>
        <time>2024-08-01T09:20:05Z</time>
      </trkpt>
      <trkpt lat="43.56458" lon="1.28973">
        <ele>168.8</ele>
        <time>2024-08-01T09:20:06Z</time>
      </trkpt>
      <trkpt lat="43.5646" lon="1.28968">
        <ele>168.8</ele>
        <time>2024-08-01T09:20:07Z</time>
      </trkpt>
      <trkpt lat="43.56463" lon="1.28963">
        <ele>168.8</ele>
        <time>2024-08-01T09:20:08Z</time>
      </trkpt>
      <trkpt lat="43.56465" lon="1.28958">
        <ele>168.8</ele>
        <time>2024-08-01T09:20:09Z</time>
      </trkpt>
      <trkpt lat="43.56467" lon="1.28953">
        <ele>168.8</ele>
        <time>2024-08-01T09:20:10Z</time>
      </trkpt>
      <trkpt lat="43.5647" lon="1.28948">
        <ele>169</ele>
        <time>2024-08-01T09:20:11Z</time>
      </trkpt>
      <trkpt lat="43.56472" lon="1.28943">
        <ele>169.2</ele>
        <time>2024-08-01T09:20:12Z</time>
      </trkpt>
      <trkpt lat="43.56475" lon="1.28938">
        <ele>169</ele>
        <time>2024-08-01T09:20:13Z</time>
      </trkpt>
      <trkpt lat="43.56477" lon="1.28932">
        <ele>169</ele>
        <time>2024-08-01T09:20:14Z</time>
      </trkpt>
      <trkpt lat="43.5648" lon="1.28927">
        <ele>169</ele>
        <time>2024-08-01T09:20:15Z</time>
      </trkpt>
      <trkpt lat="43.56482" lon="1.28922">
        <ele>169</ele>
        <time>2024-08-01T09:20:16Z</time>
      </trkpt>
      <trkpt lat="43.56485" lon="1.28917">
        <ele>169</ele>
        <time>2024-08-01T09:20:17Z</time>
      </trkpt>
      <trkpt lat="43.56487" lon="1.28912">
        <ele>169</ele>
        <time>2024-08-01T09:20:18Z</time>
      </trkpt>
      <trkpt lat="43.56489" lon="1.28907">
        <ele>169.2</ele>
        <time>2024-08-01T09:20:19Z</time>
      </trkpt>
      <trkpt lat="43.56492" lon="1.28902">
        <ele>169.2</ele>
        <time>2024-08-01T09:20:20Z</time>
      </trkpt>
      <trkpt lat="43.56494" lon="1.28898">
        <ele>169.2</ele>
        <time>2024-08-01T09:20:21Z</time>
      </trkpt>
      <trkpt lat="43.56498" lon="1.28895">
        <ele>169.4</ele>
        <time>2024-08-01T09:20:22Z</time>
      </trkpt>
      <trkpt lat="43.56501" lon="1.28892">
        <ele>169.4</ele>
        <time>2024-08-01T09:20:23Z</time>
      </trkpt>
      <trkpt lat="43.56504" lon="1.28888">
        <ele>169.4</ele>
        <time>2024-08-01T09:20:24Z</time>
      </trkpt>
      <trkpt lat="43.56507" lon="1.28883">
        <ele>169.4</ele>
        <time>2024-08-01T09:20:25Z</time>
      </trkpt>
      <trkpt lat="43.56508" lon="1.28877">
        <ele>169.2</ele>
        <time>2024-08-01T09:20:26Z</time>
      </trkpt>
      <trkpt lat="43.5651" lon="1.28871">
        <ele>169.4</ele>
        <time>2024-08-01T09:20:27Z</time>
      </trkpt>
      <trkpt lat="43.56511" lon="1.28864">
        <ele>169.6</ele>
        <time>2024-08-01T09:20:28Z</time>
      </trkpt>
      <trkpt lat="43.56512" lon="1.28858">
        <ele>169.6</ele>
        <time>2024-08-01T09:20:29Z</time>
      </trkpt>
      <trkpt lat="43.56514" lon="1.28852">
        <ele>169.6</ele>
        <time>2024-08-01T09:20:30Z</time>
      </trkpt>
      <trkpt lat="43.56516" lon="1.28847">
        <ele>169.6</ele>
        <time>2024-08-01T09:20:31Z</time>
      </trkpt>
      <trkpt lat="43.56518" lon="1.28842">
        <ele>169.6</ele>
        <time>2024-08-01T09:20:32Z</time>
      </trkpt>
      <trkpt lat="43.5652" lon="1.28837">
        <ele>169.6</ele>
        <time>2024-08-01T09:20:33Z</time>
      </trkpt>
      <trkpt lat="43.56522" lon="1.28832">
        <ele>169.6</ele>
        <time>2024-08-01T09:20:34Z</time>
      </trkpt>
      <trkpt lat="43.56524" lon="1.28827">
        <ele>169.4</ele>
        <time>2024-08-01T09:20:35Z</time>
      </trkpt>
      <trkpt lat="43.56526" lon="1.28822">
        <ele>169.4</ele>
        <time>2024-08-01T09:20:36Z</time>
      </trkpt>
      <trkpt lat="43.56528" lon="1.28816">
        <ele>169.4</ele>
        <time>2024-08-01T09:20:37Z</time>
      </trkpt>
      <trkpt lat="43.5653" lon="1.28811">
        <ele>169.4</ele>
        <time>2024-08-01T09:20:38Z</time>
      </trkpt>
      <trkpt lat="43.56532" lon="1.28805">
        <ele>169.4</ele>
        <time>2024-08-01T09:20:39Z</time>
      </trkpt>
      <trkpt lat="43.56534" lon="1.288">
        <ele>169.2</ele>
        <time>2024-08-01T09:20:40Z</time>
      </trkpt>
      <trkpt lat="43.56536" lon="1.28794">
        <ele>169.2</ele>
        <time>2024-08-01T09:20:41Z</time>
      </trkpt>
      <trkpt lat="43.56538" lon="1.28789">
        <ele>169.4</ele>
        <time>2024-08-01T09:20:42Z</time>
      </trkpt>
      <trkpt lat="43.5654" lon="1.28783">
        <ele>169.4</ele>
        <time>2024-08-01T09:20:43Z</time>
      </trkpt>
      <trkpt lat="43.56542" lon="1.28778">
        <ele>169.6</ele>
        <time>2024-08-01T09:20:44Z</time>
      </trkpt>
      <trkpt lat="43.56544" lon="1.28773">
        <ele>169.4</ele>
        <time>2024-08-01T09:20:45Z</time>
      </trkpt>
      <trkpt lat="43.56546" lon="1.28767">
        <ele>169.4</ele>
        <time>2024-08-01T09:20:46Z</time>
      </trkpt>
      <trkpt lat="43.56548" lon="1.28762">
        <ele>169.4</ele>
        <time>2024-08-01T09:20:47Z</time>
      </trkpt>
      <trkpt lat="43.5655" lon="1.28756">
        <ele>169.4</ele>
        <time>2024-08-01T09:20:48Z</time>
      </trkpt>
      <trkpt lat="43.56552" lon="1.28751">
        <ele>169.6</ele>
        <time>2024-08-01T09:20:49Z</time>
      </trkpt>
      <trkpt lat="43.56554" lon="1.28745">
        <ele>169.6</ele>
        <time>2024-08-01T09:20:50Z</time>
      </trkpt>
      <trkpt lat="43.56556" lon="1.28739">
        <ele>169.6</ele>
        <time>2024-08-01T09:20:51Z</time>
      </trkpt>
      <trkpt lat="43.56558" lon="1.28734">
        <ele>169.6</ele>
        <time>2024-08-01T09:20:52Z</time>
      </trkpt>
      <trkpt lat="43.56561" lon="1.28728">
        <ele>169.6</ele>
        <time>2024-08-01T09:20:53Z</time>
      </trkpt>
      <trkpt lat="43.56563" lon="1.28723">
        <ele>169.6</ele>
        <time>2024-08-01T09:20:54Z</time>
      </trkpt>
      <trkpt lat="43.56565" lon="1.28718">
        <ele>169.6</ele>
        <time>2024-08-01T09:20:55Z</time>
      </trkpt>
      <trkpt lat="43.56567" lon="1.28712">
        <ele>169.6</ele>
        <time>2024-08-01T09:20:56Z</time>
      </trkpt>
      <trkpt lat="43.5657" lon="1.28707">
        <ele>169.6</ele>
        <time>2024-08-01T09:20:57Z</time>
      </trkpt>
      <trkpt lat="43.56572" lon="1.28701">
        <ele>169.8</ele>
        <time>2024-08-01T09:20:58Z</time>
      </trkpt>
      <trkpt lat="43.56574" lon="1.28696">
        <ele>170</ele>
        <time>2024-08-01T09:20:59Z</time>
      </trkpt>
      <trkpt lat="43.56576" lon="1.28691">
        <ele>170</ele>
        <time>2024-08-01T09:21:00Z</time>
      </trkpt>
      <trkpt lat="43.56577" lon="1.28685">
        <ele>170.4</ele>
        <time>2024-08-01T09:21:01Z</time>
      </trkpt>
      <trkpt lat="43.56579" lon="1.2868">
        <ele>170.4</ele>
        <time>2024-08-01T09:21:02Z</time>
      </trkpt>
      <trkpt lat="43.56581" lon="1.28675">
        <ele>170.4</ele>
        <time>2024-08-01T09:21:03Z</time>
      </trkpt>
      <trkpt lat="43.56583" lon="1.2867">
        <ele>170.6</ele>
        <time>2024-08-01T09:21:04Z</time>
      </trkpt>
      <trkpt lat="43.56585" lon="1.28664">
        <ele>170.6</ele>
        <time>2024-08-01T09:21:05Z</time>
      </trkpt>
      <trkpt lat="43.56587" lon="1.28659">
        <ele>170.6</ele>
        <time>2024-08-01T09:21:06Z</time>
      </trkpt>
      <trkpt lat="43.56589" lon="1.28653">
        <ele>170.8</ele>
        <time>2024-08-01T09:21:07Z</time>
      </trkpt>
      <trkpt lat="43.56591" lon="1.28648">
        <ele>170.8</ele>
        <time>2024-08-01T09:21:08Z</time>
      </trkpt>
      <trkpt lat="43.56592" lon="1.28643">
        <ele>170.8</ele>
        <time>2024-08-01T09:21:09Z</time>
      </trkpt>
      <trkpt lat="43.56594" lon="1.28638">
        <ele>170.8</ele>
        <time>2024-08-01T09:21:10Z</time>
      </trkpt>
      <trkpt lat="43.56596" lon="1.28633">
        <ele>170.8</ele>
        <time>2024-08-01T09:21:11Z</time>
      </trkpt>
      <trkpt lat="43.56598" lon="1.28627">
        <ele>171</ele>
        <time>2024-08-01T09:21:12Z</time>
      </trkpt>
      <trkpt lat="43.56599" lon="1.28622">
        <ele>171</ele>
        <time>2024-08-01T09:21:13Z</time>
      </trkpt>
      <trkpt lat="43.56601" lon="1.28616">
        <ele>171</ele>
        <time>2024-08-01T09:21:14Z</time>
      </trkpt>
      <trkpt lat="43.56602" lon="1.2861">
        <ele>171</ele>
        <time>2024-08-01T09:21:15Z</time>
      </trkpt>
      <trkpt lat="43.56604" lon="1.28605">
        <ele>171.2</ele>
        <time>2024-08-01T09:21:16Z</time>
      </trkpt>
      <trkpt lat="43.56605" lon="1.28599">
        <ele>171.2</ele>
        <time>2024-08-01T09:21:17Z</time>
      </trkpt>
      <trkpt lat="43.56606" lon="1.28593">
        <ele>171.2</ele>
        <time>2024-08-01T09:21:18Z</time>
      </trkpt>
      <trkpt lat="43.56607" lon="1.28587">
        <ele>171.2</ele>
        <time>2024-08-01T09:21:19Z</time>
      </trkpt>
      <trkpt lat="43.56608" lon="1.28581">
        <ele>171.2</ele>
        <time>2024-08-01T09:21:20Z</time>
      </trkpt>
      <trkpt lat="43.56609" lon="1.28575">
        <ele>171.4</ele>
        <time>2024-08-01T09:21:21Z</time>
      </trkpt>
      <trkpt lat="43.5661" lon="1.28569">
        <ele>171.4</ele>
        <time>2024-08-01T09:21:22Z</time>
      </trkpt>
      <trkpt lat="43.56611" lon="1.28563">
        <ele>171.4</ele>
        <time>2024-08-01T09:21:23Z</time>
      </trkpt>
      <trkpt lat="43.56612" lon="1.28558">
        <ele>171.4</ele>
        <time>2024-08-01T09:21:24Z</time>
      </trkpt>
      <trkpt lat="43.56612" lon="1.28552">
        <ele>171.4</ele>
        <time>2024-08-01T09:21:25Z</time>
      </trkpt>
      <trkpt lat="43.56613" lon="1.28547">
        <ele>171.4</ele>
        <time>2024-08-01T09:21:26Z</time>
      </trkpt>
      <trkpt lat="43.56614" lon="1.28541">
        <ele>171.6</ele>
        <time>2024-08-01T09:21:27Z</time>
      </trkpt>
      <trkpt lat="43.56615" lon="1.28536">
        <ele>171.6</ele>
        <time>2024-08-01T09:21:28Z</time>
      </trkpt>
      <trkpt lat="43.56616" lon="1.2853">
        <ele>171.6</ele>
        <time>2024-08-01T09:21:29Z</time>
      </trkpt>
      <trkpt lat="43.56617" lon="1.28525">
        <ele>171.8</ele>
        <time>2024-08-01T09:21:30Z</time>
      </trkpt>
      <trkpt lat="43.56618" lon="1.28519">
        <ele>171.8</ele>
        <time>2024-08-01T09:21:31Z</time>
      </trkpt>
      <trkpt lat="43.56619" lon="1.28514">
        <ele>171.8</ele>
        <time>2024-08-01T09:21:32Z</time>
      </trkpt>
      <trkpt lat="43.5662" lon="1.28509">
        <ele>172</ele>
        <time>2024-08-01T09:21:33Z</time>
      </trkpt>
      <trkpt lat="43.56621" lon="1.28504">
        <ele>172</ele>
        <time>2024-08-01T09:21:34Z</time>
      </trkpt>
      <trkpt lat="43.56622" lon="1.28499">
        <ele>172</ele>
        <time>2024-08-01T09:21:35Z</time>
      </trkpt>
      <trkpt lat="43.56623" lon="1.28494">
        <ele>172</ele>
        <time>2024-08-01T09:21:36Z</time>
      </trkpt>
      <trkpt lat="43.56624" lon="1.28489">
        <ele>172</ele>
        <time>2024-08-01T09:21:37Z</time>
      </trkpt>
      <trkpt lat="43.56625" lon="1.28484">
        <ele>172</ele>
        <time>2024-08-01T09:21:38Z</time>
      </trkpt>
      <trkpt lat="43.56626" lon="1.28478">
        <ele>172.2</ele>
        <time>2024-08-01T09:21:39Z</time>
      </trkpt>
      <trkpt lat="43.56627" lon="1.28473">
        <ele>172.2</ele>
        <time>2024-08-01T09:21:40Z</time>
      </trkpt>
      <trkpt lat="43.56627" lon="1.28473">
        <ele>172.4</ele>
        <time>2024-08-01T09:21:41Z</time>
      </trkpt>
      <trkpt lat="43.56628" lon="1.28462">
        <ele>172.4</ele>
        <time>2024-08-01T09:21:42Z</time>
      </trkpt>
      <trkpt lat="43.56629" lon="1.28457">
        <ele>172.8</ele>
        <time>2024-08-01T09:21:43Z</time>
      </trkpt>
      <trkpt lat="43.5663" lon="1.28451">
        <ele>173</ele>
        <time>2024-08-01T09:21:44Z</time>
      </trkpt>
      <trkpt lat="43.56631" lon="1.28446">
        <ele>173</ele>
        <time>2024-08-01T09:21:45Z</time>
      </trkpt>
      <trkpt lat="43.56632" lon="1.2844">
        <ele>173.2</ele>
        <time>2024-08-01T09:21:46Z</time>
      </trkpt>
      <trkpt lat="43.56632" lon="1.28435">
        <ele>173.2</ele>
        <time>2024-08-01T09:21:47Z</time>
      </trkpt>
      <trkpt lat="43.56633" lon="1.28431">
        <ele>173.4</ele>
        <time>2024-08-01T09:21:48Z</time>
      </trkpt>
      <trkpt lat="43.56634" lon="1.28426">
        <ele>173.4</ele>
        <time>2024-08-01T09:21:49Z</time>
      </trkpt>
      <trkpt lat="43.56635" lon="1.28422">
        <ele>173.6</ele>
        <time>2024-08-01T09:21:50Z</time>
      </trkpt>
      <trkpt lat="43.56637" lon="1.28418">
        <ele>173.6</ele>
        <time>2024-08-01T09:21:51Z</time>
      </trkpt>
      <trkpt lat="43.56638" lon="1.28414">
        <ele>173.6</ele>
        <time>2024-08-01T09:21:52Z</time>
      </trkpt>
      <trkpt lat="43.56639" lon="1.28409">
        <ele>173.6</ele>
        <time>2024-08-01T09:21:53Z</time>
      </trkpt>
      <trkpt lat="43.5664" lon="1.28403">
        <ele>173.8</ele>
        <time>2024-08-01T09:21:54Z</time>
      </trkpt>
      <trkpt lat="43.5664" lon="1.28398">
        <ele>173.8</ele>
        <time>2024-08-01T09:21:55Z</time>
      </trkpt>
      <trkpt lat="43.56641" lon="1.28391">
        <ele>174</ele>
        <time>2024-08-01T09:21:56Z</time>
      </trkpt>
      <trkpt lat="43.56642" lon="1.28385">
        <ele>174</ele>
        <time>2024-08-01T09:21:57Z</time>
      </trkpt>
      <trkpt lat="43.56642" lon="1.28379">
        <ele>174.2</ele>
        <time>2024-08-01T09:21:58Z</time>
      </trkpt>
      <trkpt lat="43.56643" lon="1.28374">
        <ele>174.2</ele>
        <time>2024-08-01T09:21:59Z</time>
      </trkpt>
      <trkpt lat="43.56644" lon="1.28369">
        <ele>174.4</ele>
        <time>2024-08-01T09:22:00Z</time>
      </trkpt>
      <trkpt lat="43.56645" lon="1.28364">
        <ele>174.6</ele>
        <time>2024-08-01T09:22:01Z</time>
      </trkpt>
      <trkpt lat="43.56646" lon="1.28359">
        <ele>175</ele>
        <time>2024-08-01T09:22:02Z</time>
      </trkpt>
      <trkpt lat="43.56647" lon="1.28353">
        <ele>175.2</ele>
        <time>2024-08-01T09:22:03Z</time>
      </trkpt>
      <trkpt lat="43.56648" lon="1.28349">
        <ele>175.2</ele>
        <time>2024-08-01T09:22:04Z</time>
      </trkpt>
      <trkpt lat="43.5665" lon="1.28344">
        <ele>175.4</ele>
        <time>2024-08-01T09:22:05Z</time>
      </trkpt>
      <trkpt lat="43.56651" lon="1.2834">
        <ele>175.4</ele>
        <time>2024-08-01T09:22:06Z</time>
      </trkpt>
      <trkpt lat="43.56653" lon="1.28336">
        <ele>175.8</ele>
        <time>2024-08-01T09:22:07Z</time>
      </trkpt>
      <trkpt lat="43.56655" lon="1.28331">
        <ele>175.8</ele>
        <time>2024-08-01T09:22:08Z</time>
      </trkpt>
      <trkpt lat="43.56657" lon="1.28327">
        <ele>176.2</ele>
        <time>2024-08-01T09:22:09Z</time>
      </trkpt>
      <trkpt lat="43.56659" lon="1.28324">
        <ele>176.4</ele>
        <time>2024-08-01T09:22:10Z</time>
      </trkpt>
      <trkpt lat="43.56661" lon="1.2832">
        <ele>176.4</ele>
        <time>2024-08-01T09:22:11Z</time>
      </trkpt>
      <trkpt lat="43.56663" lon="1.28317">
        <ele>176.6</ele>
        <time>2024-08-01T09:22:12Z</time>
      </trkpt>
      <trkpt lat="43.56664" lon="1.28312">
        <ele>176.8</ele>
        <time>2024-08-01T09:22:13Z</time>
      </trkpt>
      <trkpt lat="43.56666" lon="1.28309">
        <ele>177.2</ele>
        <time>2024-08-01T09:22:14Z</time>
      </trkpt>
      <trkpt lat="43.56667" lon="1.28305">
        <ele>177.4</ele>
        <time>2024-08-01T09:22:15Z</time>
      </trkpt>
      <trkpt lat="43.5667" lon="1.28302">
        <ele>177.6</ele>
        <time>2024-08-01T09:22:16Z</time>
      </trkpt>
      <trkpt lat="43.56673" lon="1.28298">
        <ele>177.8</ele>
        <time>2024-08-01T09:22:17Z</time>
      </trkpt>
      <trkpt lat="43.56676" lon="1.28295">
        <ele>178</ele>
        <time>2024-08-01T09:22:18Z</time>
      </trkpt>
      <trkpt lat="43.56678" lon="1.28293">
        <ele>178.2</ele>
        <time>2024-08-01T09:22:19Z</time>
      </trkpt>
      <trkpt lat="43.5668" lon="1.28289">
        <ele>178.2</ele>
        <time>2024-08-01T09:22:20Z</time>
      </trkpt>
      <trkpt lat="43.56682" lon="1.28287">
        <ele>178.6</ele>
        <time>2024-08-01T09:22:21Z</time>
      </trkpt>
      <trkpt lat="43.56684" lon="1.28284">
        <ele>179</ele>
        <time>2024-08-01T09:22:22Z</time>
      </trkpt>
      <trkpt lat="43.56685" lon="1.28282">
        <ele>179.2</ele>
        <time>2024-08-01T09:22:23Z</time>
      </trkpt>
      <trkpt lat="43.56687" lon="1.28279">
        <ele>179.4</ele>
        <time>2024-08-01T09:22:24Z</time>
      </trkpt>
      <trkpt lat="43.56689" lon="1.28276">
        <ele>179.4</ele>
        <time>2024-08-01T09:22:25Z</time>
      </trkpt>
      <trkpt lat="43.56691" lon="1.28273">
        <ele>179.8</ele>
        <time>2024-08-01T09:22:26Z</time>
      </trkpt>
      <trkpt lat="43.56692" lon="1.28271">
        <ele>179.8</ele>
        <time>2024-08-01T09:22:27Z</time>
      </trkpt>
      <trkpt lat="43.56694" lon="1.28268">
        <ele>180.2</ele>
        <time>2024-08-01T09:22:28Z</time>
      </trkpt>
      <trkpt lat="43.56695" lon="1.28266">
        <ele>180.6</ele>
        <time>2024-08-01T09:22:29Z</time>
      </trkpt>
      <trkpt lat="43.56697" lon="1.28263">
        <ele>180.6</ele>
        <time>2024-08-01T09:22:30Z</time>
      </trkpt>
      <trkpt lat="43.56697" lon="1.28263">
        <ele>181</ele>
        <time>2024-08-01T09:22:31Z</time>
      </trkpt>
      <trkpt lat="43.567" lon="1.28258">
        <ele>181.2</ele>
        <time>2024-08-01T09:22:32Z</time>
      </trkpt>
      <trkpt lat="43.56701" lon="1.28256">
        <ele>181.6</ele>
        <time>2024-08-01T09:22:33Z</time>
      </trkpt>
      <trkpt lat="43.56703" lon="1.28254">
        <ele>181.6</ele>
        <time>2024-08-01T09:22:34Z</time>
      </trkpt>
      <trkpt lat="43.56705" lon="1.28251">
        <ele>182</ele>
        <time>2024-08-01T09:22:35Z</time>
      </trkpt>
      <trkpt lat="43.56707" lon="1.28249">
        <ele>182.2</ele>
        <time>2024-08-01T09:22:36Z</time>
      </trkpt>
      <trkpt lat="43.56708" lon="1.28247">
        <ele>182.4</ele>
        <time>2024-08-01T09:22:37Z</time>
      </trkpt>
      <trkpt lat="43.5671" lon="1.28244">
        <ele>182.6</ele>
        <time>2024-08-01T09:22:38Z</time>
      </trkpt>
      <trkpt lat="43.56711" lon="1.28242">
        <ele>182.8</ele>
        <time>2024-08-01T09:22:39Z</time>
      </trkpt>
      <trkpt lat="43.56712" lon="1.28239">
        <ele>183</ele>
        <time>2024-08-01T09:22:40Z</time>
      </trkpt>
      <trkpt lat="43.56714" lon="1.28237">
        <ele>183</ele>
        <time>2024-08-01T09:22:41Z</time>
      </trkpt>
      <trkpt lat="43.56715" lon="1.28234">
        <ele>183.2</ele>
        <time>2024-08-01T09:22:42Z</time>
      </trkpt>
      <trkpt lat="43.56716" lon="1.28232">
        <ele>183.4</ele>
        <time>2024-08-01T09:22:43Z</time>
      </trkpt>
      <trkpt lat="43.56717" lon="1.2823">
        <ele>183.6</ele>
        <time>2024-08-01T09:22:44Z</time>
      </trkpt>
      <trkpt lat="43.56718" lon="1.28227">
        <ele>184</ele>
        <time>2024-08-01T09:22:45Z</time>
      </trkpt>
      <trkpt lat="43.56719" lon="1.28225">
        <ele>184</ele>
        <time>2024-08-01T09:22:46Z</time>
      </trkpt>
      <trkpt lat="43.56721" lon="1.28223">
        <ele>184.2</ele>
        <time>2024-08-01T09:22:47Z</time>
      </trkpt>
      <trkpt lat="43.56722" lon="1.28221">
        <ele>184.4</ele>
        <time>2024-08-01T09:22:48Z</time>
      </trkpt>
      <trkpt lat="43.56723" lon="1.28218">
        <ele>184.4</ele>
        <time>2024-08-01T09:22:49Z</time>
      </trkpt>
      <trkpt lat="43.56724" lon="1.28216">
        <ele>184.6</ele>
        <time>2024-08-01T09:22:50Z</time>
      </trkpt>
      <trkpt lat="43.56725" lon="1.28214">
        <ele>184.8</ele>
        <time>2024-08-01T09:22:51Z</time>
      </trkpt>
      <trkpt lat="43.56726" lon="1.2821">
        <ele>185</ele>
        <time>2024-08-01T09:22:52Z</time>
      </trkpt>
      <trkpt lat="43.56727" lon="1.28207">
        <ele>185</ele>
        <time>2024-08-01T09:22:53Z</time>
      </trkpt>
      <trkpt lat="43.56728" lon="1.28204">
        <ele>185.2</ele>
        <time>2024-08-01T09:22:54Z</time>
      </trkpt>
      <trkpt lat="43.5673" lon="1.28202">
        <ele>185.2</ele>
        <time>2024-08-01T09:22:55Z</time>
      </trkpt>
      <trkpt lat="43.56731" lon="1.28199">
        <ele>185.2</ele>
        <time>2024-08-01T09:22:56Z</time>
      </trkpt>
      <trkpt lat="43.56732" lon="1.28195">
        <ele>185.2</ele>
        <time>2024-08-01T09:22:57Z</time>
      </trkpt>
      <trkpt lat="43.56733" lon="1.28192">
        <ele>185.4</ele>
        <time>2024-08-01T09:22:58Z</time>
      </trkpt>
      <trkpt lat="43.56735" lon="1.28189">
        <ele>185.4</ele>
        <time>2024-08-01T09:22:59Z</time>
      </trkpt>
      <trkpt lat="43.56736" lon="1.28185">
        <ele>185.4</ele>
        <time>2024-08-01T09:23:00Z</time>
      </trkpt>
      <trkpt lat="43.56737" lon="1.28181">
        <ele>185.4</ele>
        <time>2024-08-01T09:23:01Z</time>
      </trkpt>
      <trkpt lat="43.56738" lon="1.28177">
        <ele>185.4</ele>
        <time>2024-08-01T09:23:02Z</time>
      </trkpt>
      <trkpt lat="43.56739" lon="1.28173">
        <ele>185.6</ele>
        <time>2024-08-01T09:23:03Z</time>
      </trkpt>
      <trkpt lat="43.5674" lon="1.28169">
        <ele>185.6</ele>
        <time>2024-08-01T09:23:04Z</time>
      </trkpt>
      <trkpt lat="43.56741" lon="1.28165">
        <ele>185.6</ele>
        <time>2024-08-01T09:23:05Z</time>
      </trkpt>
      <trkpt lat="43.56742" lon="1.28161">
        <ele>185.8</ele>
        <time>2024-08-01T09:23:06Z</time>
      </trkpt>
      <trkpt lat="43.56743" lon="1.28157">
        <ele>186</ele>
        <time>2024-08-01T09:23:07Z</time>
      </trkpt>
      <trkpt lat="43.56745" lon="1.28153">
        <ele>186.2</ele>
        <time>2024-08-01T09:23:08Z</time>
      </trkpt>
      <trkpt lat="43.56746" lon="1.28149">
        <ele>186.2</ele>
        <time>2024-08-01T09:23:09Z</time>
      </trkpt>
      <trkpt lat="43.56747" lon="1.28145">
        <ele>186.4</ele>
        <time>2024-08-01T09:23:10Z</time>
      </trkpt>
      <trkpt lat="43.56748" lon="1.2814">
        <ele>186.4</ele>
        <time>2024-08-01T09:23:11Z</time>
      </trkpt>
      <trkpt lat="43.56749" lon="1.28136">
        <ele>186.6</ele>
        <time>2024-08-01T09:23:12Z</time>
      </trkpt>
      <trkpt lat="43.5675" lon="1.28132">
        <ele>186.8</ele>
        <time>2024-08-01T09:23:13Z</time>
      </trkpt>
      <trkpt lat="43.56752" lon="1.28128">
        <ele>187</ele>
        <time>2024-08-01T09:23:14Z</time>
      </trkpt>
      <trkpt lat="43.56753" lon="1.28124">
        <ele>187</ele>
        <time>2024-08-01T09:23:15Z</time>
      </trkpt>
      <trkpt lat="43.56755" lon="1.2812">
        <ele>187.2</ele>
        <time>2024-08-01T09:23:16Z</time>
      </trkpt>
      <trkpt lat="43.56756" lon="1.28115">
        <ele>187.4</ele>
        <time>2024-08-01T09:23:17Z</time>
      </trkpt>
      <trkpt lat="43.56757" lon="1.28111">
        <ele>187.6</ele>
        <time>2024-08-01T09:23:18Z</time>
      </trkpt>
      <trkpt lat="43.56758" lon="1.28107">
        <ele>187.8</ele>
        <time>2024-08-01T09:23:19Z</time>
      </trkpt>
      <trkpt lat="43.56759" lon="1.28103">
        <ele>188</ele>
        <time>2024-08-01T09:23:20Z</time>
      </trkpt>
      <trkpt lat="43.56761" lon="1.28099">
        <ele>188.4</ele>
        <time>2024-08-01T09:23:21Z</time>
      </trkpt>
      <trkpt lat="43.56762" lon="1.28095">
        <ele>188.4</ele>
        <time>2024-08-01T09:23:22Z</time>
      </trkpt>
      <trkpt lat="43.56763" lon="1.28091">
        <ele>188.6</ele>
        <time>2024-08-01T09:23:23Z</time>
      </trkpt>
      <trkpt lat="43.56764" lon="1.28087">
        <ele>188.6</ele>
        <time>2024-08-01T09:23:24Z</time>
      </trkpt>
      <trkpt lat="43.56766" lon="1.28084">
        <ele>188.8</ele>
        <time>2024-08-01T09:23:25Z</time>
      </trkpt>
      <trkpt lat="43.56767" lon="1.28081">
        <ele>189</ele>
        <time>2024-08-01T09:23:26Z</time>
      </trkpt>
      <trkpt lat="43.56769" lon="1.28079">
        <ele>189.2</ele>
        <time>2024-08-01T09:23:27Z</time>
      </trkpt>
      <trkpt lat="43.5677" lon="1.28077">
        <ele>189.2</ele>
        <time>2024-08-01T09:23:28Z</time>
      </trkpt>
      <trkpt lat="43.56771" lon="1.28075">
        <ele>189.2</ele>
        <time>2024-08-01T09:23:29Z</time>
      </trkpt>
      <trkpt lat="43.56772" lon="1.28073">
        <ele>189.4</ele>
        <time>2024-08-01T09:23:30Z</time>
      </trkpt>
      <trkpt lat="43.56774" lon="1.28071">
        <ele>189.6</ele>
        <time>2024-08-01T09:23:31Z</time>
      </trkpt>
      <trkpt lat="43.56774" lon="1.28068">
        <ele>189.8</ele>
        <time>2024-08-01T09:23:32Z</time>
      </trkpt>
      <trkpt lat="43.56774" lon="1.28066">
        <ele>189.8</ele>
        <time>2024-08-01T09:23:33Z</time>
      </trkpt>
      <trkpt lat="43.56774" lon="1.28064">
        <ele>190</ele>
        <time>2024-08-01T09:23:34Z</time>
      </trkpt>
      <trkpt lat="43.56773" lon="1.28063">
        <ele>190</ele>
        <time>2024-08-01T09:23:35Z</time>
      </trkpt>
      <trkpt lat="43.56773" lon="1.28062">
        <ele>190</ele>
        <time>2024-08-01T09:23:36Z</time>
      </trkpt>
      <trkpt lat="43.56772" lon="1.28061">
        <ele>190.2</ele>
        <time>2024-08-01T09:23:37Z</time>
      </trkpt>
      <trkpt lat="43.56772" lon="1.2806">
        <ele>190.2</ele>
        <time>2024-08-01T09:23:38Z</time>
      </trkpt>
      <trkpt lat="43.56772" lon="1.28059">
        <ele>190.2</ele>
        <time>2024-08-01T09:23:39Z</time>
      </trkpt>
      <trkpt lat="43.56772" lon="1.28057">
        <ele>190.2</ele>
        <time>2024-08-01T09:23:40Z</time>
      </trkpt>
      <trkpt lat="43.56771" lon="1.28054">
        <ele>190.2</ele>
        <time>2024-08-01T09:23:41Z</time>
      </trkpt>
      <trkpt lat="43.56771" lon="1.2805">
        <ele>190.2</ele>
        <time>2024-08-01T09:23:42Z</time>
      </trkpt>
      <trkpt lat="43.5677" lon="1.28046">
        <ele>190.2</ele>
        <time>2024-08-01T09:23:43Z</time>
      </trkpt>
      <trkpt lat="43.5677" lon="1.28041">
        <ele>190.2</ele>
        <time>2024-08-01T09:23:44Z</time>
      </trkpt>
      <trkpt lat="43.5677" lon="1.28036">
        <ele>190.2</ele>
        <time>2024-08-01T09:23:45Z</time>
      </trkpt>
      <trkpt lat="43.5677" lon="1.28031">
        <ele>190.4</ele>
        <time>2024-08-01T09:23:46Z</time>
      </trkpt>
      <trkpt lat="43.5677" lon="1.28028">
        <ele>190.4</ele>
        <time>2024-08-01T09:23:47Z</time>
      </trkpt>
      <trkpt lat="43.5677" lon="1.28024">
        <ele>190.4</ele>
        <time>2024-08-01T09:23:48Z</time>
      </trkpt>
      <trkpt lat="43.5677" lon="1.2802">
        <ele>190.6</ele>
        <time>2024-08-01T09:23:49Z</time>
      </trkpt>
      <trkpt lat="43.5677" lon="1.28016">
        <ele>190.6</ele>
        <time>2024-08-01T09:23:50Z</time>
      </trkpt>
      <trkpt lat="43.5677" lon="1.28012">
        <ele>190.6</ele>
        <time>2024-08-01T09:23:51Z</time>
      </trkpt>
      <trkpt lat="43.5677" lon="1.28008">
        <ele>190.6</ele>
        <time>2024-08-01T09:23:52Z</time>
      </trkpt>
      <trkpt lat="43.56769" lon="1.28004">
        <ele>190.6</ele>
        <time>2024-08-01T09:23:53Z</time>
      </trkpt>
      <trkpt lat="43.5677" lon="1.28">
        <ele>190.8</ele>
        <time>2024-08-01T09:23:54Z</time>
      </trkpt>
      <trkpt lat="43.56769" lon="1.27996">
        <ele>190.8</ele>
        <time>2024-08-01T09:23:55Z</time>
      </trkpt>
      <trkpt lat="43.56769" lon="1.27992">
        <ele>191</ele>
        <time>2024-08-01T09:23:56Z</time>
      </trkpt>
      <trkpt lat="43.5677" lon="1.27988">
        <ele>191</ele>
        <time>2024-08-01T09:23:57Z</time>
      </trkpt>
      <trkpt lat="43.5677" lon="1.27984">
        <ele>191.2</ele>
        <time>2024-08-01T09:23:58Z</time>
      </trkpt>
      <trkpt lat="43.56771" lon="1.27981">
        <ele>191.2</ele>
        <time>2024-08-01T09:23:59Z</time>
      </trkpt>
      <trkpt lat="43.56771" lon="1.27977">
        <ele>191.2</ele>
        <time>2024-08-01T09:24:00Z</time>
      </trkpt>
      <trkpt lat="43.56771" lon="1.27973">
        <ele>191.4</ele>
        <time>2024-08-01T09:24:01Z</time>
      </trkpt>
      <trkpt lat="43.56771" lon="1.2797">
        <ele>191.6</ele>
        <time>2024-08-01T09:24:02Z</time>
      </trkpt>
      <trkpt lat="43.56772" lon="1.27966">
        <ele>191.6</ele>
        <time>2024-08-01T09:24:03Z</time>
      </trkpt>
      <trkpt lat="43.56772" lon="1.27963">
        <ele>191.8</ele>
        <time>2024-08-01T09:24:04Z</time>
      </trkpt>
      <trkpt lat="43.56773" lon="1.27959">
        <ele>192</ele>
        <time>2024-08-01T09:24:05Z</time>
      </trkpt>
      <trkpt lat="43.56773" lon="1.27956">
        <ele>192.2</ele>
        <time>2024-08-01T09:24:06Z</time>
      </trkpt>
      <trkpt lat="43.56774" lon="1.27952">
        <ele>192.2</ele>
        <time>2024-08-01T09:24:07Z</time>
      </trkpt>
      <trkpt lat="43.56773" lon="1.27948">
        <ele>192.4</ele>
        <time>2024-08-01T09:24:08Z</time>
      </trkpt>
      <trkpt lat="43.56773" lon="1.27943">
        <ele>192.4</ele>
        <time>2024-08-01T09:24:09Z</time>
      </trkpt>
      <trkpt lat="43.56773" lon="1.27938">
        <ele>192.4</ele>
        <time>2024-08-01T09:24:10Z</time>
      </trkpt>
      <trkpt lat="43.56773" lon="1.27935">
        <ele>192.6</ele>
        <time>2024-08-01T09:24:11Z</time>
      </trkpt>
      <trkpt lat="43.56773" lon="1.2793">
        <ele>192.8</ele>
        <time>2024-08-01T09:24:12Z</time>
      </trkpt>
      <trkpt lat="43.56774" lon="1.27926">
        <ele>193</ele>
        <time>2024-08-01T09:24:13Z</time>
      </trkpt>
      <trkpt lat="43.56774" lon="1.27922">
        <ele>193</ele>
        <time>2024-08-01T09:24:14Z</time>
      </trkpt>
      <trkpt lat="43.56774" lon="1.27918">
        <ele>193</ele>
        <time>2024-08-01T09:24:15Z</time>
      </trkpt>
      <trkpt lat="43.56774" lon="1.27914">
        <ele>193.2</ele>
        <time>2024-08-01T09:24:16Z</time>
      </trkpt>
      <trkpt lat="43.56775" lon="1.27909">
        <ele>193.2</ele>
        <time>2024-08-01T09:24:17Z</time>
      </trkpt>
      <trkpt lat="43.56775" lon="1.27905">
        <ele>193.2</ele>
        <time>2024-08-01T09:24:18Z</time>
      </trkpt>
      <trkpt lat="43.56776" lon="1.27901">
        <ele>193.2</ele>
        <time>2024-08-01T09:24:19Z</time>
      </trkpt>
      <trkpt lat="43.56776" lon="1.27897">
        <ele>193.4</ele>
        <time>2024-08-01T09:24:20Z</time>
      </trkpt>
      <trkpt lat="43.56776" lon="1.27892">
        <ele>193.4</ele>
        <time>2024-08-01T09:24:21Z</time>
      </trkpt>
      <trkpt lat="43.56777" lon="1.27888">
        <ele>193.6</ele>
        <time>2024-08-01T09:24:22Z</time>
      </trkpt>
      <trkpt lat="43.56777" lon="1.27884">
        <ele>193.6</ele>
        <time>2024-08-01T09:24:23Z</time>
      </trkpt>
      <trkpt lat="43.56777" lon="1.27879">
        <ele>193.8</ele>
        <time>2024-08-01T09:24:24Z</time>
      </trkpt>
      <trkpt lat="43.56778" lon="1.27874">
        <ele>194</ele>
        <time>2024-08-01T09:24:25Z</time>
      </trkpt>
      <trkpt lat="43.56778" lon="1.27869">
        <ele>194</ele>
        <time>2024-08-01T09:24:26Z</time>
      </trkpt>
      <trkpt lat="43.56779" lon="1.27865">
        <ele>194</ele>
        <time>2024-08-01T09:24:27Z</time>
      </trkpt>
      <trkpt lat="43.56779" lon="1.2786">
        <ele>194</ele>
        <time>2024-08-01T09:24:28Z</time>
      </trkpt>
      <trkpt lat="43.5678" lon="1.27856">
        <ele>194.2</ele>
        <time>2024-08-01T09:24:29Z</time>
      </trkpt>
      <trkpt lat="43.56781" lon="1.27851">
        <ele>194.2</ele>
        <time>2024-08-01T09:24:30Z</time>
      </trkpt>
      <trkpt lat="43.56781" lon="1.27847">
        <ele>194.4</ele>
        <time>2024-08-01T09:24:31Z</time>
      </trkpt>
      <trkpt lat="43.56781" lon="1.27842">
        <ele>194.4</ele>
        <time>2024-08-01T09:24:32Z</time>
      </trkpt>
      <trkpt lat="43.56782" lon="1.27837">
        <ele>194.4</ele>
        <time>2024-08-01T09:24:33Z</time>
      </trkpt>
      <trkpt lat="43.56782" lon="1.27833">
        <ele>194.4</ele>
        <time>2024-08-01T09:24:34Z</time>
      </trkpt>
      <trkpt lat="43.56783" lon="1.27829">
        <ele>194.4</ele>
        <time>2024-08-01T09:24:35Z</time>
      </trkpt>
      <trkpt lat="43.56783" lon="1.27824">
        <ele>194.6</ele>
        <time>2024-08-01T09:24:36Z</time>
      </trkpt>
      <trkpt lat="43.56784" lon="1.27819">
        <ele>194.6</ele>
        <time>2024-08-01T09:24:37Z</time>
      </trkpt>
      <trkpt lat="43.56785" lon="1.27813">
        <ele>194.6</ele>
        <time>2024-08-01T09:24:38Z</time>
      </trkpt>
      <trkpt lat="43.56786" lon="1.27808">
        <ele>194.8</ele>
        <time>2024-08-01T09:24:39Z</time>
      </trkpt>
      <trkpt lat="43.56786" lon="1.27804">
        <ele>194.8</ele>
        <time>2024-08-01T09:24:40Z</time>
      </trkpt>
      <trkpt lat="43.56787" lon="1.27798">
        <ele>194.8</ele>
        <time>2024-08-01T09:24:41Z</time>
      </trkpt>
      <trkpt lat="43.56788" lon="1.27792">
        <ele>194.8</ele>
        <time>2024-08-01T09:24:42Z</time>
      </trkpt>
      <trkpt lat="43.56788" lon="1.27787">
        <ele>194.8</ele>
        <time>2024-08-01T09:24:43Z</time>
      </trkpt>
      <trkpt lat="43.56788" lon="1.27787">
        <ele>194.8</ele>
        <time>2024-08-01T09:24:44Z</time>
      </trkpt>
      <trkpt lat="43.56789" lon="1.27776">
        <ele>194.8</ele>
        <time>2024-08-01T09:24:45Z</time>
      </trkpt>
      <trkpt lat="43.5679" lon="1.27771">
        <ele>194.8</ele>
        <time>2024-08-01T09:24:46Z</time>
      </trkpt>
      <trkpt lat="43.5679" lon="1.27765">
        <ele>194.8</ele>
        <time>2024-08-01T09:24:47Z</time>
      </trkpt>
      <trkpt lat="43.56791" lon="1.2776">
        <ele>194.8</ele>
        <time>2024-08-01T09:24:48Z</time>
      </trkpt>
      <trkpt lat="43.56791" lon="1.27753">
        <ele>194.8</ele>
        <time>2024-08-01T09:24:49Z</time>
      </trkpt>
      <trkpt lat="43.56792" lon="1.27748">
        <ele>194.8</ele>
        <time>2024-08-01T09:24:50Z</time>
      </trkpt>
      <trkpt lat="43.56793" lon="1.27744">
        <ele>194.8</ele>
        <time>2024-08-01T09:24:51Z</time>
      </trkpt>
      <trkpt lat="43.56793" lon="1.27739">
        <ele>195</ele>
        <time>2024-08-01T09:24:52Z</time>
      </trkpt>
      <trkpt lat="43.56794" lon="1.27733">
        <ele>195</ele>
        <time>2024-08-01T09:24:53Z</time>
      </trkpt>
      <trkpt lat="43.56794" lon="1.27733">
        <ele>195</ele>
        <time>2024-08-01T09:24:54Z</time>
      </trkpt>
      <trkpt lat="43.56795" lon="1.27722">
        <ele>195</ele>
        <time>2024-08-01T09:24:55Z</time>
      </trkpt>
      <trkpt lat="43.56795" lon="1.27717">
        <ele>195</ele>
        <time>2024-08-01T09:24:56Z</time>
      </trkpt>
      <trkpt lat="43.56795" lon="1.27711">
        <ele>195</ele>
        <time>2024-08-01T09:24:57Z</time>
      </trkpt>
      <trkpt lat="43.56795" lon="1.27706">
        <ele>195</ele>
        <time>2024-08-01T09:24:58Z</time>
      </trkpt>
      <trkpt lat="43.56795" lon="1.277">
        <ele>195</ele>
        <time>2024-08-01T09:24:59Z</time>
      </trkpt>
      <trkpt lat="43.56794" lon="1.27695">
        <ele>195</ele>
        <time>2024-08-01T09:25:00Z</time>
      </trkpt>
      <trkpt lat="43.56793" lon="1.27689">
        <ele>195.2</ele>
        <time>2024-08-01T09:25:01Z</time>
      </trkpt>
      <trkpt lat="43.56793" lon="1.27682">
        <ele>195.2</ele>
        <time>2024-08-01T09:25:02Z</time>
      </trkpt>
      <trkpt lat="43.56792" lon="1.27675">
        <ele>195.2</ele>
        <time>2024-08-01T09:25:03Z</time>
      </trkpt>
      <trkpt lat="43.56791" lon="1.27668">
        <ele>195.2</ele>
        <time>2024-08-01T09:25:04Z</time>
      </trkpt>
      <trkpt lat="43.56789" lon="1.27661">
        <ele>195.2</ele>
        <time>2024-08-01T09:25:05Z</time>
      </trkpt>
      <trkpt lat="43.56788" lon="1.27654">
        <ele>195.2</ele>
        <time>2024-08-01T09:25:06Z</time>
      </trkpt>
      <trkpt lat="43.56786" lon="1.27648">
        <ele>195.2</ele>
        <time>2024-08-01T09:25:07Z</time>
      </trkpt>
      <trkpt lat="43.56784" lon="1.27642">
        <ele>195.2</ele>
        <time>2024-08-01T09:25:08Z</time>
      </trkpt>
      <trkpt lat="43.56782" lon="1.27635">
        <ele>195.2</ele>
        <time>2024-08-01T09:25:09Z</time>
      </trkpt>
      <trkpt lat="43.5678" lon="1.27629">
        <ele>195.2</ele>
        <time>2024-08-01T09:25:10Z</time>
      </trkpt>
      <trkpt lat="43.56778" lon="1.27623">
        <ele>195.4</ele>
        <time>2024-08-01T09:25:11Z</time>
      </trkpt>
      <trkpt lat="43.56776" lon="1.27617">
        <ele>195.4</ele>
        <time>2024-08-01T09:25:12Z</time>
      </trkpt>
      <trkpt lat="43.56774" lon="1.27611">
        <ele>195.4</ele>
        <time>2024-08-01T09:25:13Z</time>
      </trkpt>
      <trkpt lat="43.56771" lon="1.27605">
        <ele>195.4</ele>
        <time>2024-08-01T09:25:14Z</time>
      </trkpt>
      <trkpt lat="43.56769" lon="1.27599">
        <ele>195.4</ele>
        <time>2024-08-01T09:25:15Z</time>
      </trkpt>
      <trkpt lat="43.56767" lon="1.27593">
        <ele>195.6</ele>
        <time>2024-08-01T09:25:16Z</time>
      </trkpt>
      <trkpt lat="43.56764" lon="1.27586">
        <ele>195.6</ele>
        <time>2024-08-01T09:25:17Z</time>
      </trkpt>
      <trkpt lat="43.56762" lon="1.2758">
        <ele>195.6</ele>
        <time>2024-08-01T09:25:18Z</time>
      </trkpt>
      <trkpt lat="43.5676" lon="1.27575">
        <ele>195.6</ele>
        <time>2024-08-01T09:25:19Z</time>
      </trkpt>
      <trkpt lat="43.56757" lon="1.27569">
        <ele>195.4</ele>
        <time>2024-08-01T09:25:20Z</time>
      </trkpt>
      <trkpt lat="43.56755" lon="1.27563">
        <ele>195.4</ele>
        <time>2024-08-01T09:25:21Z</time>
      </trkpt>
      <trkpt lat="43.56755" lon="1.27563">
        <ele>195.4</ele>
        <time>2024-08-01T09:25:22Z</time>
      </trkpt>
      <trkpt lat="43.5675" lon="1.27551">
        <ele>195.4</ele>
        <time>2024-08-01T09:25:23Z</time>
      </trkpt>
      <trkpt lat="43.56748" lon="1.27545">
        <ele>195.4</ele>
        <time>2024-08-01T09:25:24Z</time>
      </trkpt>
      <trkpt lat="43.56745" lon="1.27539">
        <ele>195.4</ele>
        <time>2024-08-01T09:25:25Z</time>
      </trkpt>
      <trkpt lat="43.56743" lon="1.27533">
        <ele>195.4</ele>
        <time>2024-08-01T09:25:26Z</time>
      </trkpt>
      <trkpt lat="43.5674" lon="1.27527">
        <ele>195.4</ele>
        <time>2024-08-01T09:25:27Z</time>
      </trkpt>
      <trkpt lat="43.56738" lon="1.27521">
        <ele>195.4</ele>
        <time>2024-08-01T09:25:28Z</time>
      </trkpt>
      <trkpt lat="43.56735" lon="1.27515">
        <ele>195.4</ele>
        <time>2024-08-01T09:25:29Z</time>
      </trkpt>
      <trkpt lat="43.56732" lon="1.27509">
        <ele>195.4</ele>
        <time>2024-08-01T09:25:30Z</time>
      </trkpt>
      <trkpt lat="43.5673" lon="1.27504">
        <ele>195.4</ele>
        <time>2024-08-01T09:25:31Z</time>
      </trkpt>
      <trkpt lat="43.56726" lon="1.27499">
        <ele>195.4</ele>
        <time>2024-08-01T09:25:32Z</time>
      </trkpt>
      <trkpt lat="43.56722" lon="1.27497">
        <ele>195.4</ele>
        <time>2024-08-01T09:25:33Z</time>
      </trkpt>
      <trkpt lat="43.56717" lon="1.27498">
        <ele>195.4</ele>
        <time>2024-08-01T09:25:34Z</time>
      </trkpt>
      <trkpt lat="43.56712" lon="1.27501">
        <ele>195.6</ele>
        <time>2024-08-01T09:25:35Z</time>
      </trkpt>
      <trkpt lat="43.56708" lon="1.27505">
        <ele>195.6</ele>
        <time>2024-08-01T09:25:36Z</time>
      </trkpt>
      <trkpt lat="43.56704" lon="1.2751">
        <ele>195.6</ele>
        <time>2024-08-01T09:25:37Z</time>
      </trkpt>
      <trkpt lat="43.567" lon="1.27515">
        <ele>195.6</ele>
        <time>2024-08-01T09:25:38Z</time>
      </trkpt>
      <trkpt lat="43.56697" lon="1.27519">
        <ele>195.6</ele>
        <time>2024-08-01T09:25:39Z</time>
      </trkpt>
      <trkpt lat="43.56697" lon="1.27519">
        <ele>195.6</ele>
        <time>2024-08-01T09:25:40Z</time>
      </trkpt>
      <trkpt lat="43.5669" lon="1.27527">
        <ele>195.6</ele>
        <time>2024-08-01T09:25:41Z</time>
      </trkpt>
      <trkpt lat="43.56686" lon="1.27532">
        <ele>195.6</ele>
        <time>2024-08-01T09:25:42Z</time>
      </trkpt>
      <trkpt lat="43.56682" lon="1.27536">
        <ele>195.6</ele>
        <time>2024-08-01T09:25:43Z</time>
      </trkpt>
      <trkpt lat="43.56678" lon="1.2754">
        <ele>195.4</ele>
        <time>2024-08-01T09:25:44Z</time>
      </trkpt>
      <trkpt lat="43.56674" lon="1.27544">
        <ele>195.4</ele>
        <time>2024-08-01T09:25:45Z</time>
      </trkpt>
      <trkpt lat="43.5667" lon="1.27547">
        <ele>195.2</ele>
        <time>2024-08-01T09:25:46Z</time>
      </trkpt>
      <trkpt lat="43.56665" lon="1.27551">
        <ele>195.2</ele>
        <time>2024-08-01T09:25:47Z</time>
      </trkpt>
      <trkpt lat="43.56661" lon="1.27554">
        <ele>195.2</ele>
        <time>2024-08-01T09:25:48Z</time>
      </trkpt>
      <trkpt lat="43.56657" lon="1.27558">
        <ele>195</ele>
        <time>2024-08-01T09:25:49Z</time>
      </trkpt>
      <trkpt lat="43.56653" lon="1.27562">
        <ele>195</ele>
        <time>2024-08-01T09:25:50Z</time>
      </trkpt>
      <trkpt lat="43.56649" lon="1.27567">
        <ele>195</ele>
        <time>2024-08-01T09:25:51Z</time>
      </trkpt>
      <trkpt lat="43.56645" lon="1.27571">
        <ele>195</ele>
        <time>2024-08-01T09:25:52Z</time>
      </trkpt>
      <trkpt lat="43.56641" lon="1.27576">
        <ele>195</ele>
        <time>2024-08-01T09:25:53Z</time>
      </trkpt>
      <trkpt lat="43.56638" lon="1.2758">
        <ele>194.6</ele>
        <time>2024-08-01T09:25:54Z</time>
      </trkpt>
      <trkpt lat="43.56634" lon="1.27584">
        <ele>194.8</ele>
        <time>2024-08-01T09:25:55Z</time>
      </trkpt>
      <trkpt lat="43.5663" lon="1.27588">
        <ele>194.6</ele>
        <time>2024-08-01T09:25:56Z</time>
      </trkpt>
      <trkpt lat="43.56627" lon="1.27593">
        <ele>194.6</ele>
        <time>2024-08-01T09:25:57Z</time>
      </trkpt>
      <trkpt lat="43.56624" lon="1.27598">
        <ele>194.6</ele>
        <time>2024-08-01T09:25:58Z</time>
      </trkpt>
      <trkpt lat="43.56622" lon="1.27603">
        <ele>194.8</ele>
        <time>2024-08-01T09:25:59Z</time>
      </trkpt>
      <trkpt lat="43.56622" lon="1.2761">
        <ele>194.8</ele>
        <time>2024-08-01T09:26:00Z</time>
      </trkpt>
      <trkpt lat="43.56622" lon="1.27617">
        <ele>194.6</ele>
        <time>2024-08-01T09:26:01Z</time>
      </trkpt>
      <trkpt lat="43.56624" lon="1.27623">
        <ele>194.6</ele>
        <time>2024-08-01T09:26:02Z</time>
      </trkpt>
      <trkpt lat="43.56624" lon="1.27623">
        <ele>194.8</ele>
        <time>2024-08-01T09:26:03Z</time>
      </trkpt>
      <trkpt lat="43.56628" lon="1.27634">
        <ele>194.8</ele>
        <time>2024-08-01T09:26:04Z</time>
      </trkpt>
      <trkpt lat="43.5663" lon="1.2764">
        <ele>194.8</ele>
        <time>2024-08-01T09:26:05Z</time>
      </trkpt>
      <trkpt lat="43.56632" lon="1.27645">
        <ele>194.8</ele>
        <time>2024-08-01T09:26:06Z</time>
      </trkpt>
      <trkpt lat="43.56635" lon="1.27651">
        <ele>194.8</ele>
        <time>2024-08-01T09:26:07Z</time>
      </trkpt>
      <trkpt lat="43.56637" lon="1.27658">
        <ele>194.6</ele>
        <time>2024-08-01T09:26:08Z</time>
      </trkpt>
      <trkpt lat="43.56639" lon="1.27662">
        <ele>194.8</ele>
        <time>2024-08-01T09:26:09Z</time>
      </trkpt>
      <trkpt lat="43.56641" lon="1.27667">
        <ele>194.8</ele>
        <time>2024-08-01T09:26:10Z</time>
      </trkpt>
      <trkpt lat="43.56642" lon="1.27673">
        <ele>194.8</ele>
        <time>2024-08-01T09:26:11Z</time>
      </trkpt>
      <trkpt lat="43.56644" lon="1.27678">
        <ele>194.8</ele>
        <time>2024-08-01T09:26:12Z</time>
      </trkpt>
      <trkpt lat="43.56647" lon="1.27684">
        <ele>194.8</ele>
        <time>2024-08-01T09:26:13Z</time>
      </trkpt>
      <trkpt lat="43.56649" lon="1.27689">
        <ele>194.8</ele>
        <time>2024-08-01T09:26:14Z</time>
      </trkpt>
      <trkpt lat="43.56651" lon="1.27694">
        <ele>194.8</ele>
        <time>2024-08-01T09:26:15Z</time>
      </trkpt>
      <trkpt lat="43.56653" lon="1.277">
        <ele>194.8</ele>
        <time>2024-08-01T09:26:16Z</time>
      </trkpt>
      <trkpt lat="43.56655" lon="1.27705">
        <ele>194.8</ele>
        <time>2024-08-01T09:26:17Z</time>
      </trkpt>
      <trkpt lat="43.56655" lon="1.27705">
        <ele>194.8</ele>
        <time>2024-08-01T09:26:18Z</time>
      </trkpt>
      <trkpt lat="43.56659" lon="1.27715">
        <ele>194.8</ele>
        <time>2024-08-01T09:26:19Z</time>
      </trkpt>
      <trkpt lat="43.56662" lon="1.27719">
        <ele>194.8</ele>
        <time>2024-08-01T09:26:20Z</time>
      </trkpt>
      <trkpt lat="43.56663" lon="1.27723">
        <ele>194.8</ele>
        <time>2024-08-01T09:26:21Z</time>
      </trkpt>
      <trkpt lat="43.56666" lon="1.27728">
        <ele>195</ele>
        <time>2024-08-01T09:26:22Z</time>
      </trkpt>
      <trkpt lat="43.56668" lon="1.27732">
        <ele>195</ele>
        <time>2024-08-01T09:26:23Z</time>
      </trkpt>
      <trkpt lat="43.56671" lon="1.27737">
        <ele>195</ele>
        <time>2024-08-01T09:26:24Z</time>
      </trkpt>
      <trkpt lat="43.56674" lon="1.27741">
        <ele>195</ele>
        <time>2024-08-01T09:26:25Z</time>
      </trkpt>
      <trkpt lat="43.56676" lon="1.27746">
        <ele>195</ele>
        <time>2024-08-01T09:26:26Z</time>
      </trkpt>
      <trkpt lat="43.56679" lon="1.2775">
        <ele>195</ele>
        <time>2024-08-01T09:26:27Z</time>
      </trkpt>
      <trkpt lat="43.56681" lon="1.27755">
        <ele>195</ele>
        <time>2024-08-01T09:26:28Z</time>
      </trkpt>
      <trkpt lat="43.56684" lon="1.27759">
        <ele>195</ele>
        <time>2024-08-01T09:26:29Z</time>
      </trkpt>
      <trkpt lat="43.56686" lon="1.27763">
        <ele>195.2</ele>
        <time>2024-08-01T09:26:30Z</time>
      </trkpt>
      <trkpt lat="43.56689" lon="1.27768">
        <ele>195.2</ele>
        <time>2024-08-01T09:26:31Z</time>
      </trkpt>
      <trkpt lat="43.5669" lon="1.27773">
        <ele>195.2</ele>
        <time>2024-08-01T09:26:32Z</time>
      </trkpt>
      <trkpt lat="43.5669" lon="1.27778">
        <ele>195.2</ele>
        <time>2024-08-01T09:26:33Z</time>
      </trkpt>
      <trkpt lat="43.56689" lon="1.27782">
        <ele>195.2</ele>
        <time>2024-08-01T09:26:34Z</time>
      </trkpt>
      <trkpt lat="43.56688" lon="1.27787">
        <ele>195.2</ele>
        <time>2024-08-01T09:26:35Z</time>
      </trkpt>
      <trkpt lat="43.56686" lon="1.27792">
        <ele>195.2</ele>
        <time>2024-08-01T09:26:36Z</time>
      </trkpt>
      <trkpt lat="43.56684" lon="1.27797">
        <ele>195.4</ele>
        <time>2024-08-01T09:26:37Z</time>
      </trkpt>
      <trkpt lat="43.56681" lon="1.27803">
        <ele>195.4</ele>
        <time>2024-08-01T09:26:38Z</time>
      </trkpt>
      <trkpt lat="43.56679" lon="1.27807">
        <ele>195.4</ele>
        <time>2024-08-01T09:26:39Z</time>
      </trkpt>
      <trkpt lat="43.56677" lon="1.27812">
        <ele>195.2</ele>
        <time>2024-08-01T09:26:40Z</time>
      </trkpt>
      <trkpt lat="43.56674" lon="1.27818">
        <ele>195.6</ele>
        <time>2024-08-01T09:26:41Z</time>
      </trkpt>
      <trkpt lat="43.56671" lon="1.27824">
        <ele>195.6</ele>
        <time>2024-08-01T09:26:42Z</time>
      </trkpt>
      <trkpt lat="43.56669" lon="1.27829">
        <ele>195.6</ele>
        <time>2024-08-01T09:26:43Z</time>
      </trkpt>
      <trkpt lat="43.56666" lon="1.27835">
        <ele>195.4</ele>
        <time>2024-08-01T09:26:44Z</time>
      </trkpt>
      <trkpt lat="43.56663" lon="1.27841">
        <ele>195.4</ele>
        <time>2024-08-01T09:26:45Z</time>
      </trkpt>
      <trkpt lat="43.56661" lon="1.27847">
        <ele>195.4</ele>
        <time>2024-08-01T09:26:46Z</time>
      </trkpt>
      <trkpt lat="43.56659" lon="1.27853">
        <ele>195.4</ele>
        <time>2024-08-01T09:26:47Z</time>
      </trkpt>
      <trkpt lat="43.56656" lon="1.27858">
        <ele>195.4</ele>
        <time>2024-08-01T09:26:48Z</time>
      </trkpt>
      <trkpt lat="43.56654" lon="1.27864">
        <ele>195.2</ele>
        <time>2024-08-01T09:26:49Z</time>
      </trkpt>
      <trkpt lat="43.56652" lon="1.2787">
        <ele>195.2</ele>
        <time>2024-08-01T09:26:50Z</time>
      </trkpt>
      <trkpt lat="43.56649" lon="1.27876">
        <ele>195.2</ele>
        <time>2024-08-01T09:26:51Z</time>
      </trkpt>
      <trkpt lat="43.56647" lon="1.27881">
        <ele>195.2</ele>
        <time>2024-08-01T09:26:52Z</time>
      </trkpt>
      <trkpt lat="43.56644" lon="1.27886">
        <ele>195</ele>
        <time>2024-08-01T09:26:53Z</time>
      </trkpt>
      <trkpt lat="43.56642" lon="1.27891">
        <ele>195</ele>
        <time>2024-08-01T09:26:54Z</time>
      </trkpt>
      <trkpt lat="43.56639" lon="1.27896">
        <ele>195</ele>
        <time>2024-08-01T09:26:55Z</time>
      </trkpt>
      <trkpt lat="43.56636" lon="1.27901">
        <ele>195</ele>
        <time>2024-08-01T09:26:56Z</time>
      </trkpt>
      <trkpt lat="43.56632" lon="1.27906">
        <ele>195</ele>
        <time>2024-08-01T09:26:57Z</time>
      </trkpt>
      <trkpt lat="43.56628" lon="1.27909">
        <ele>194.8</ele>
        <time>2024-08-01T09:26:58Z</time>
      </trkpt>
      <trkpt lat="43.56624" lon="1.27913">
        <ele>194.8</ele>
        <time>2024-08-01T09:26:59Z</time>
      </trkpt>
      <trkpt lat="43.56619" lon="1.27917">
        <ele>194.8</ele>
        <time>2024-08-01T09:27:00Z</time>
      </trkpt>
      <trkpt lat="43.56613" lon="1.27921">
        <ele>194.6</ele>
        <time>2024-08-01T09:27:01Z</time>
      </trkpt>
      <trkpt lat="43.56608" lon="1.27925">
        <ele>194.6</ele>
        <time>2024-08-01T09:27:02Z</time>
      </trkpt>
      <trkpt lat="43.56603" lon="1.2793">
        <ele>194.4</ele>
        <time>2024-08-01T09:27:03Z</time>
      </trkpt>
      <trkpt lat="43.56598" lon="1.27933">
        <ele>194</ele>
        <time>2024-08-01T09:27:04Z</time>
      </trkpt>
      <trkpt lat="43.56593" lon="1.27937">
        <ele>193.6</ele>
        <time>2024-08-01T09:27:05Z</time>
      </trkpt>
      <trkpt lat="43.5659" lon="1.27941">
        <ele>193.4</ele>
        <time>2024-08-01T09:27:06Z</time>
      </trkpt>
      <trkpt lat="43.56587" lon="1.27947">
        <ele>192.8</ele>
        <time>2024-08-01T09:27:07Z</time>
      </trkpt>
      <trkpt lat="43.56587" lon="1.27953">
        <ele>191.6</ele>
        <time>2024-08-01T09:27:08Z</time>
      </trkpt>
      <trkpt lat="43.56588" lon="1.27959">
        <ele>191.4</ele>
        <time>2024-08-01T09:27:09Z</time>
      </trkpt>
      <trkpt lat="43.56589" lon="1.27964">
        <ele>190.8</ele>
        <time>2024-08-01T09:27:10Z</time>
      </trkpt>
      <trkpt lat="43.56592" lon="1.27969">
        <ele>190.6</ele>
        <time>2024-08-01T09:27:11Z</time>
      </trkpt>
      <trkpt lat="43.56593" lon="1.27973">
        <ele>190.4</ele>
        <time>2024-08-01T09:27:12Z</time>
      </trkpt>
      <trkpt lat="43.56595" lon="1.27977">
        <ele>190.2</ele>
        <time>2024-08-01T09:27:13Z</time>
      </trkpt>
      <trkpt lat="43.56596" lon="1.27982">
        <ele>190.2</ele>
        <time>2024-08-01T09:27:14Z</time>
      </trkpt>
      <trkpt lat="43.56598" lon="1.27986">
        <ele>190.2</ele>
        <time>2024-08-01T09:27:15Z</time>
      </trkpt>
      <trkpt lat="43.56599" lon="1.2799">
        <ele>190.2</ele>
        <time>2024-08-01T09:27:16Z</time>
      </trkpt>
      <trkpt lat="43.56601" lon="1.27994">
        <ele>190.4</ele>
        <time>2024-08-01T09:27:17Z</time>
      </trkpt>
      <trkpt lat="43.56603" lon="1.27997">
        <ele>190.4</ele>
        <time>2024-08-01T09:27:18Z</time>
      </trkpt>
      <trkpt lat="43.56604" lon="1.28">
        <ele>190.6</ele>
        <time>2024-08-01T09:27:19Z</time>
      </trkpt>
      <trkpt lat="43.56606" lon="1.28003">
        <ele>190.8</ele>
        <time>2024-08-01T09:27:20Z</time>
      </trkpt>
      <trkpt lat="43.56607" lon="1.28006">
        <ele>191</ele>
        <time>2024-08-01T09:27:21Z</time>
      </trkpt>
      <trkpt lat="43.56609" lon="1.28009">
        <ele>191.4</ele>
        <time>2024-08-01T09:27:22Z</time>
      </trkpt>
      <trkpt lat="43.56611" lon="1.28011">
        <ele>191.6</ele>
        <time>2024-08-01T09:27:23Z</time>
      </trkpt>
      <trkpt lat="43.56614" lon="1.28012">
        <ele>191.8</ele>
        <time>2024-08-01T09:27:24Z</time>
      </trkpt>
      <trkpt lat="43.56617" lon="1.28013">
        <ele>191.8</ele>
        <time>2024-08-01T09:27:25Z</time>
      </trkpt>
      <trkpt lat="43.5662" lon="1.28012">
        <ele>191.8</ele>
        <time>2024-08-01T09:27:26Z</time>
      </trkpt>
      <trkpt lat="43.56623" lon="1.28011">
        <ele>192.2</ele>
        <time>2024-08-01T09:27:27Z</time>
      </trkpt>
      <trkpt lat="43.56625" lon="1.28008">
        <ele>192.4</ele>
        <time>2024-08-01T09:27:28Z</time>
      </trkpt>
      <trkpt lat="43.56627" lon="1.28006">
        <ele>192.6</ele>
        <time>2024-08-01T09:27:29Z</time>
      </trkpt>
      <trkpt lat="43.56629" lon="1.28003">
        <ele>192.8</ele>
        <time>2024-08-01T09:27:30Z</time>
      </trkpt>
      <trkpt lat="43.56632" lon="1.28001">
        <ele>193</ele>
        <time>2024-08-01T09:27:31Z</time>
      </trkpt>
      <trkpt lat="43.56634" lon="1.27999">
        <ele>193.2</ele>
        <time>2024-08-01T09:27:32Z</time>
      </trkpt>
      <trkpt lat="43.56636" lon="1.27996">
        <ele>193.6</ele>
        <time>2024-08-01T09:27:33Z</time>
      </trkpt>
      <trkpt lat="43.56638" lon="1.27994">
        <ele>193.8</ele>
        <time>2024-08-01T09:27:34Z</time>
      </trkpt>
      <trkpt lat="43.56641" lon="1.27991">
        <ele>193.8</ele>
        <time>2024-08-01T09:27:35Z</time>
      </trkpt>
      <trkpt lat="43.56643" lon="1.27989">
        <ele>194</ele>
        <time>2024-08-01T09:27:36Z</time>
      </trkpt>
      <trkpt lat="43.56645" lon="1.27988">
        <ele>194</ele>
        <time>2024-08-01T09:27:37Z</time>
      </trkpt>
      <trkpt lat="43.56647" lon="1.27986">
        <ele>194.2</ele>
        <time>2024-08-01T09:27:38Z</time>
      </trkpt>
      <trkpt lat="43.56649" lon="1.27984">
        <ele>194.4</ele>
        <time>2024-08-01T09:27:39Z</time>
      </trkpt>
      <trkpt lat="43.5665" lon="1.27983">
        <ele>194.4</ele>
        <time>2024-08-01T09:27:40Z</time>
      </trkpt>
      <trkpt lat="43.56652" lon="1.27981">
        <ele>194.6</ele>
        <time>2024-08-01T09:27:41Z</time>
      </trkpt>
      <trkpt lat="43.56653" lon="1.27981">
        <ele>194.6</ele>
        <time>2024-08-01T09:27:42Z</time>
      </trkpt>
      <trkpt lat="43.56654" lon="1.27981">
        <ele>194.8</ele>
        <time>2024-08-01T09:27:43Z</time>
      </trkpt>
      <trkpt lat="43.56654" lon="1.27981">
        <ele>194.8</ele>
        <time>2024-08-01T09:27:44Z</time>
      </trkpt>
      <trkpt lat="43.56653" lon="1.27982">
        <ele>192.8</ele>
        <time>2024-08-01T10:22:13Z</time>
      </trkpt>
      <trkpt lat="43.56651" lon="1.27982">
        <ele>192.8</ele>
        <time>2024-08-01T10:22:14Z</time>
      </trkpt>
      <trkpt lat="43.56648" lon="1.27982">
        <ele>192.8</ele>
        <time>2024-08-01T10:22:15Z</time>
      </trkpt>
      <trkpt lat="43.56646" lon="1.27984">
        <ele>192.6</ele>
        <time>2024-08-01T10:22:16Z</time>
      </trkpt>
      <trkpt lat="43.56644" lon="1.27987">
        <ele>192.6</ele>
        <time>2024-08-01T10:22:17Z</time>
      </trkpt>
      <trkpt lat="43.56642" lon="1.27989">
        <ele>192.6</ele>
        <time>2024-08-01T10:22:18Z</time>
      </trkpt>
      <trkpt lat="43.56639" lon="1.27992">
        <ele>192.6</ele>
        <time>2024-08-01T10:22:19Z</time>
      </trkpt>
      <trkpt lat="43.56636" lon="1.27994">
        <ele>192.6</ele>
        <time>2024-08-01T10:22:20Z</time>
      </trkpt>
      <trkpt lat="43.56633" lon="1.27997">
        <ele>192.4</ele>
        <time>2024-08-01T10:22:21Z</time>
      </trkpt>
      <trkpt lat="43.56629" lon="1.28">
        <ele>192.4</ele>
        <time>2024-08-01T10:22:22Z</time>
      </trkpt>
      <trkpt lat="43.56626" lon="1.28003">
        <ele>192.4</ele>
        <time>2024-08-01T10:22:23Z</time>
      </trkpt>
      <trkpt lat="43.56622" lon="1.28006">
        <ele>192.4</ele>
        <time>2024-08-01T10:22:24Z</time>
      </trkpt>
      <trkpt lat="43.56619" lon="1.28008">
        <ele>192.4</ele>
        <time>2024-08-01T10:22:25Z</time>
      </trkpt>
      <trkpt lat="43.56615" lon="1.28008">
        <ele>192.2</ele>
        <time>2024-08-01T10:22:26Z</time>
      </trkpt>
      <trkpt lat="43.56611" lon="1.28005">
        <ele>192.2</ele>
        <time>2024-08-01T10:22:27Z</time>
      </trkpt>
      <trkpt lat="43.56607" lon="1.28">
        <ele>192.2</ele>
        <time>2024-08-01T10:22:28Z</time>
      </trkpt>
      <trkpt lat="43.56603" lon="1.27994">
        <ele>192</ele>
        <time>2024-08-01T10:22:29Z</time>
      </trkpt>
      <trkpt lat="43.566" lon="1.27987">
        <ele>192</ele>
        <time>2024-08-01T10:22:30Z</time>
      </trkpt>
      <trkpt lat="43.56597" lon="1.27979">
        <ele>191.8</ele>
        <time>2024-08-01T10:22:31Z</time>
      </trkpt>
      <trkpt lat="43.56594" lon="1.27971">
        <ele>191.6</ele>
        <time>2024-08-01T10:22:32Z</time>
      </trkpt>
      <trkpt lat="43.56591" lon="1.27964">
        <ele>191.4</ele>
        <time>2024-08-01T10:22:33Z</time>
      </trkpt>
      <trkpt lat="43.56588" lon="1.27957">
        <ele>191.2</ele>
        <time>2024-08-01T10:22:34Z</time>
      </trkpt>
      <trkpt lat="43.56586" lon="1.2795">
        <ele>191</ele>
        <time>2024-08-01T10:22:35Z</time>
      </trkpt>
      <trkpt lat="43.56583" lon="1.27944">
        <ele>190.6</ele>
        <time>2024-08-01T10:22:36Z</time>
      </trkpt>
      <trkpt lat="43.56579" lon="1.2794">
        <ele>190.2</ele>
        <time>2024-08-01T10:22:37Z</time>
      </trkpt>
      <trkpt lat="43.56574" lon="1.27936">
        <ele>190</ele>
        <time>2024-08-01T10:22:38Z</time>
      </trkpt>
      <trkpt lat="43.56567" lon="1.27934">
        <ele>189.4</ele>
        <time>2024-08-01T10:22:39Z</time>
      </trkpt>
      <trkpt lat="43.5656" lon="1.27933">
        <ele>189.2</ele>
        <time>2024-08-01T10:22:40Z</time>
      </trkpt>
      <trkpt lat="43.56553" lon="1.27933">
        <ele>188.6</ele>
        <time>2024-08-01T10:22:41Z</time>
      </trkpt>
      <trkpt lat="43.56546" lon="1.27937">
        <ele>188.4</ele>
        <time>2024-08-01T10:22:42Z</time>
      </trkpt>
      <trkpt lat="43.56539" lon="1.27941">
        <ele>188</ele>
        <time>2024-08-01T10:22:43Z</time>
      </trkpt>
      <trkpt lat="43.56531" lon="1.27948">
        <ele>187.2</ele>
        <time>2024-08-01T10:22:44Z</time>
      </trkpt>
      <trkpt lat="43.56524" lon="1.27954">
        <ele>186.8</ele>
        <time>2024-08-01T10:22:45Z</time>
      </trkpt>
      <trkpt lat="43.56517" lon="1.27961">
        <ele>186.2</ele>
        <time>2024-08-01T10:22:46Z</time>
      </trkpt>
      <trkpt lat="43.56511" lon="1.27967">
        <ele>185.8</ele>
        <time>2024-08-01T10:22:47Z</time>
      </trkpt>
      <trkpt lat="43.56504" lon="1.27974">
        <ele>185</ele>
        <time>2024-08-01T10:22:48Z</time>
      </trkpt>
      <trkpt lat="43.56498" lon="1.27979">
        <ele>183.8</ele>
        <time>2024-08-01T10:22:49Z</time>
      </trkpt>
      <trkpt lat="43.56492" lon="1.27984">
        <ele>183.4</ele>
        <time>2024-08-01T10:22:50Z</time>
      </trkpt>
      <trkpt lat="43.56487" lon="1.27988">
        <ele>182.6</ele>
        <time>2024-08-01T10:22:51Z</time>
      </trkpt>
      <trkpt lat="43.56483" lon="1.27993">
        <ele>181.8</ele>
        <time>2024-08-01T10:22:52Z</time>
      </trkpt>
      <trkpt lat="43.56481" lon="1.28">
        <ele>180.4</ele>
        <time>2024-08-01T10:22:53Z</time>
      </trkpt>
      <trkpt lat="43.56481" lon="1.28008">
        <ele>179.4</ele>
        <time>2024-08-01T10:22:54Z</time>
      </trkpt>
      <trkpt lat="43.56481" lon="1.28016">
        <ele>178.8</ele>
        <time>2024-08-01T10:22:55Z</time>
      </trkpt>
      <trkpt lat="43.56479" lon="1.28023">
        <ele>177.8</ele>
        <time>2024-08-01T10:22:56Z</time>
      </trkpt>
      <trkpt lat="43.56479" lon="1.28023">
        <ele>177.6</ele>
        <time>2024-08-01T10:22:57Z</time>
      </trkpt>
      <trkpt lat="43.5647" lon="1.28034">
        <ele>176.6</ele>
        <time>2024-08-01T10:22:58Z</time>
      </trkpt>
      <trkpt lat="43.56464" lon="1.28039">
        <ele>176.2</ele>
        <time>2024-08-01T10:22:59Z</time>
      </trkpt>
      <trkpt lat="43.56458" lon="1.28045">
        <ele>175.6</ele>
        <time>2024-08-01T10:23:00Z</time>
      </trkpt>
      <trkpt lat="43.56452" lon="1.2805">
        <ele>175.2</ele>
        <time>2024-08-01T10:23:01Z</time>
      </trkpt>
      <trkpt lat="43.56446" lon="1.28055">
        <ele>175</ele>
        <time>2024-08-01T10:23:02Z</time>
      </trkpt>
      <trkpt lat="43.5644" lon="1.2806">
        <ele>174.8</ele>
        <time>2024-08-01T10:23:03Z</time>
      </trkpt>
      <trkpt lat="43.56435" lon="1.28065">
        <ele>174.8</ele>
        <time>2024-08-01T10:23:04Z</time>
      </trkpt>
      <trkpt lat="43.56432" lon="1.28068">
        <ele>174.4</ele>
        <time>2024-08-01T10:23:05Z</time>
      </trkpt>
      <trkpt lat="43.56429" lon="1.28071">
        <ele>174</ele>
        <time>2024-08-01T10:23:06Z</time>
      </trkpt>
      <trkpt lat="43.56427" lon="1.28073">
        <ele>173.8</ele>
        <time>2024-08-01T10:23:07Z</time>
      </trkpt>
      <trkpt lat="43.56426" lon="1.28074">
        <ele>173.4</ele>
        <time>2024-08-01T10:23:08Z</time>
      </trkpt>
      <trkpt lat="43.56425" lon="1.28077">
        <ele>173.2</ele>
        <time>2024-08-01T10:23:09Z</time>
      </trkpt>
      <trkpt lat="43.56424" lon="1.28081">
        <ele>172.8</ele>
        <time>2024-08-01T10:23:10Z</time>
      </trkpt>
      <trkpt lat="43.56424" lon="1.28086">
        <ele>172.6</ele>
        <time>2024-08-01T10:23:11Z</time>
      </trkpt>
      <trkpt lat="43.56425" lon="1.28091">
        <ele>172.4</ele>
        <time>2024-08-01T10:23:12Z</time>
      </trkpt>
      <trkpt lat="43.56427" lon="1.28097">
        <ele>172.4</ele>
        <time>2024-08-01T10:23:13Z</time>
      </trkpt>
      <trkpt lat="43.5643" lon="1.28103">
        <ele>172.2</ele>
        <time>2024-08-01T10:23:14Z</time>
      </trkpt>
      <trkpt lat="43.56433" lon="1.28109">
        <ele>172.2</ele>
        <time>2024-08-01T10:23:15Z</time>
      </trkpt>
      <trkpt lat="43.56436" lon="1.28116">
        <ele>172</ele>
        <time>2024-08-01T10:23:16Z</time>
      </trkpt>
      <trkpt lat="43.56439" lon="1.28123">
        <ele>172</ele>
        <time>2024-08-01T10:23:17Z</time>
      </trkpt>
      <trkpt lat="43.56442" lon="1.2813">
        <ele>171.8</ele>
        <time>2024-08-01T10:23:18Z</time>
      </trkpt>
      <trkpt lat="43.56445" lon="1.28137">
        <ele>171.8</ele>
        <time>2024-08-01T10:23:19Z</time>
      </trkpt>
      <trkpt lat="43.56449" lon="1.28144">
        <ele>171.6</ele>
        <time>2024-08-01T10:23:20Z</time>
      </trkpt>
      <trkpt lat="43.56453" lon="1.28151">
        <ele>171.6</ele>
        <time>2024-08-01T10:23:21Z</time>
      </trkpt>
      <trkpt lat="43.56456" lon="1.28159">
        <ele>171.6</ele>
        <time>2024-08-01T10:23:22Z</time>
      </trkpt>
      <trkpt lat="43.5646" lon="1.28167">
        <ele>171.6</ele>
        <time>2024-08-01T10:23:23Z</time>
      </trkpt>
      <trkpt lat="43.56463" lon="1.28175">
        <ele>171.4</ele>
        <time>2024-08-01T10:23:24Z</time>
      </trkpt>
      <trkpt lat="43.56466" lon="1.28183">
        <ele>171.4</ele>
        <time>2024-08-01T10:23:25Z</time>
      </trkpt>
      <trkpt lat="43.5647" lon="1.28191">
        <ele>171.2</ele>
        <time>2024-08-01T10:23:26Z</time>
      </trkpt>
      <trkpt lat="43.56473" lon="1.282">
        <ele>171.2</ele>
        <time>2024-08-01T10:23:27Z</time>
      </trkpt>
      <trkpt lat="43.56476" lon="1.28208">
        <ele>171.2</ele>
        <time>2024-08-01T10:23:28Z</time>
      </trkpt>
      <trkpt lat="43.56479" lon="1.28216">
        <ele>171.2</ele>
        <time>2024-08-01T10:23:29Z</time>
      </trkpt>
      <trkpt lat="43.56483" lon="1.28224">
        <ele>171.2</ele>
        <time>2024-08-01T10:23:30Z</time>
      </trkpt>
      <trkpt lat="43.56486" lon="1.28232">
        <ele>171.2</ele>
        <time>2024-08-01T10:23:31Z</time>
      </trkpt>
      <trkpt lat="43.56489" lon="1.2824">
        <ele>171.2</ele>
        <time>2024-08-01T10:23:32Z</time>
      </trkpt>
      <trkpt lat="43.56492" lon="1.28248">
        <ele>171.2</ele>
        <time>2024-08-01T10:23:33Z</time>
      </trkpt>
      <trkpt lat="43.56496" lon="1.28256">
        <ele>171.4</ele>
        <time>2024-08-01T10:23:34Z</time>
      </trkpt>
      <trkpt lat="43.56499" lon="1.28264">
        <ele>171.4</ele>
        <time>2024-08-01T10:23:35Z</time>
      </trkpt>
      <trkpt lat="43.56502" lon="1.28271">
        <ele>171.4</ele>
        <time>2024-08-01T10:23:36Z</time>
      </trkpt>
      <trkpt lat="43.56505" lon="1.28279">
        <ele>171.6</ele>
        <time>2024-08-01T10:23:37Z</time>
      </trkpt>
      <trkpt lat="43.56508" lon="1.28287">
        <ele>171.6</ele>
        <time>2024-08-01T10:23:38Z</time>
      </trkpt>
      <trkpt lat="43.56512" lon="1.28295">
        <ele>171.8</ele>
        <time>2024-08-01T10:23:39Z</time>
      </trkpt>
      <trkpt lat="43.56516" lon="1.28302">
        <ele>171.8</ele>
        <time>2024-08-01T10:23:40Z</time>
      </trkpt>
      <trkpt lat="43.56519" lon="1.28309">
        <ele>171.8</ele>
        <time>2024-08-01T10:23:41Z</time>
      </trkpt>
      <trkpt lat="43.56523" lon="1.28316">
        <ele>172</ele>
        <time>2024-08-01T10:23:42Z</time>
      </trkpt>
      <trkpt lat="43.56527" lon="1.28324">
        <ele>172</ele>
        <time>2024-08-01T10:23:43Z</time>
      </trkpt>
      <trkpt lat="43.56531" lon="1.28331">
        <ele>172</ele>
        <time>2024-08-01T10:23:44Z</time>
      </trkpt>
      <trkpt lat="43.56535" lon="1.28338">
        <ele>172</ele>
        <time>2024-08-01T10:23:45Z</time>
      </trkpt>
      <trkpt lat="43.56539" lon="1.28344">
        <ele>172</ele>
        <time>2024-08-01T10:23:46Z</time>
      </trkpt>
      <trkpt lat="43.56543" lon="1.28352">
        <ele>172</ele>
        <time>2024-08-01T10:23:47Z</time>
      </trkpt>
      <trkpt lat="43.56547" lon="1.28358">
        <ele>172</ele>
        <time>2024-08-01T10:23:48Z</time>
      </trkpt>
      <trkpt lat="43.56551" lon="1.28366">
        <ele>172.2</ele>
        <time>2024-08-01T10:23:49Z</time>
      </trkpt>
      <trkpt lat="43.56551" lon="1.28366">
        <ele>172.2</ele>
        <time>2024-08-01T10:23:50Z</time>
      </trkpt>
      <trkpt lat="43.56559" lon="1.2838">
        <ele>172.2</ele>
        <time>2024-08-01T10:23:51Z</time>
      </trkpt>
      <trkpt lat="43.56564" lon="1.28387">
        <ele>172.2</ele>
        <time>2024-08-01T10:23:52Z</time>
      </trkpt>
      <trkpt lat="43.56568" lon="1.28394">
        <ele>172.2</ele>
        <time>2024-08-01T10:23:53Z</time>
      </trkpt>
      <trkpt lat="43.56572" lon="1.284">
        <ele>172.2</ele>
        <time>2024-08-01T10:23:54Z</time>
      </trkpt>
      <trkpt lat="43.56577" lon="1.28407">
        <ele>172.2</ele>
        <time>2024-08-01T10:23:55Z</time>
      </trkpt>
      <trkpt lat="43.56582" lon="1.28414">
        <ele>172.2</ele>
        <time>2024-08-01T10:23:56Z</time>
      </trkpt>
      <trkpt lat="43.56586" lon="1.28421">
        <ele>172.2</ele>
        <time>2024-08-01T10:23:57Z</time>
      </trkpt>
      <trkpt lat="43.56591" lon="1.28428">
        <ele>172.2</ele>
        <time>2024-08-01T10:23:58Z</time>
      </trkpt>
      <trkpt lat="43.56595" lon="1.28433">
        <ele>172</ele>
        <time>2024-08-01T10:23:59Z</time>
      </trkpt>
      <trkpt lat="43.566" lon="1.28441">
        <ele>172</ele>
        <time>2024-08-01T10:24:00Z</time>
      </trkpt>
      <trkpt lat="43.56604" lon="1.28447">
        <ele>172</ele>
        <time>2024-08-01T10:24:01Z</time>
      </trkpt>
      <trkpt lat="43.56609" lon="1.28452">
        <ele>172</ele>
        <time>2024-08-01T10:24:02Z</time>
      </trkpt>
      <trkpt lat="43.56611" lon="1.28456">
        <ele>171.8</ele>
        <time>2024-08-01T10:24:03Z</time>
      </trkpt>
      <trkpt lat="43.56614" lon="1.2846">
        <ele>171.8</ele>
        <time>2024-08-01T10:24:04Z</time>
      </trkpt>
      <trkpt lat="43.56617" lon="1.28463">
        <ele>171.8</ele>
        <time>2024-08-01T10:24:05Z</time>
      </trkpt>
      <trkpt lat="43.56619" lon="1.28464">
        <ele>171.6</ele>
        <time>2024-08-01T10:24:06Z</time>
      </trkpt>
      <trkpt lat="43.56621" lon="1.28466">
        <ele>171.6</ele>
        <time>2024-08-01T10:24:07Z</time>
      </trkpt>
      <trkpt lat="43.56623" lon="1.28467">
        <ele>171.6</ele>
        <time>2024-08-01T10:24:08Z</time>
      </trkpt>
      <trkpt lat="43.56626" lon="1.2847">
        <ele>171.6</ele>
        <time>2024-08-01T10:24:09Z</time>
      </trkpt>
      <trkpt lat="43.5663" lon="1.28474">
        <ele>171.6</ele>
        <time>2024-08-01T10:24:10Z</time>
      </trkpt>
      <trkpt lat="43.56634" lon="1.28477">
        <ele>171.8</ele>
        <time>2024-08-01T10:24:11Z</time>
      </trkpt>
      <trkpt lat="43.56637" lon="1.28481">
        <ele>171.8</ele>
        <time>2024-08-01T10:24:12Z</time>
      </trkpt>
      <trkpt lat="43.5664" lon="1.28486">
        <ele>171.8</ele>
        <time>2024-08-01T10:24:13Z</time>
      </trkpt>
      <trkpt lat="43.56643" lon="1.2849">
        <ele>171.8</ele>
        <time>2024-08-01T10:24:14Z</time>
      </trkpt>
      <trkpt lat="43.56646" lon="1.28496">
        <ele>172</ele>
        <time>2024-08-01T10:24:15Z</time>
      </trkpt>
      <trkpt lat="43.5665" lon="1.28502">
        <ele>172</ele>
        <time>2024-08-01T10:24:16Z</time>
      </trkpt>
      <trkpt lat="43.56653" lon="1.28507">
        <ele>172</ele>
        <time>2024-08-01T10:24:17Z</time>
      </trkpt>
      <trkpt lat="43.56655" lon="1.28511">
        <ele>172.2</ele>
        <time>2024-08-01T10:24:18Z</time>
      </trkpt>
      <trkpt lat="43.56659" lon="1.28516">
        <ele>172.4</ele>
        <time>2024-08-01T10:24:19Z</time>
      </trkpt>
      <trkpt lat="43.56663" lon="1.28521">
        <ele>172.2</ele>
        <time>2024-08-01T10:24:20Z</time>
      </trkpt>
      <trkpt lat="43.56668" lon="1.28525">
        <ele>172.4</ele>
        <time>2024-08-01T10:24:21Z</time>
      </trkpt>
      <trkpt lat="43.56672" lon="1.28528">
        <ele>172.4</ele>
        <time>2024-08-01T10:24:22Z</time>
      </trkpt>
      <trkpt lat="43.56677" lon="1.28532">
        <ele>172.6</ele>
        <time>2024-08-01T10:24:23Z</time>
      </trkpt>
      <trkpt lat="43.56681" lon="1.28535">
        <ele>172.8</ele>
        <time>2024-08-01T10:24:24Z</time>
      </trkpt>
      <trkpt lat="43.56685" lon="1.28538">
        <ele>172.8</ele>
        <time>2024-08-01T10:24:25Z</time>
      </trkpt>
      <trkpt lat="43.56689" lon="1.2854">
        <ele>173</ele>
        <time>2024-08-01T10:24:26Z</time>
      </trkpt>
      <trkpt lat="43.56694" lon="1.28543">
        <ele>173.2</ele>
        <time>2024-08-01T10:24:27Z</time>
      </trkpt>
      <trkpt lat="43.56697" lon="1.28545">
        <ele>173.6</ele>
        <time>2024-08-01T10:24:28Z</time>
      </trkpt>
      <trkpt lat="43.56703" lon="1.28548">
        <ele>173.8</ele>
        <time>2024-08-01T10:24:29Z</time>
      </trkpt>
      <trkpt lat="43.56707" lon="1.28551">
        <ele>174</ele>
        <time>2024-08-01T10:24:30Z</time>
      </trkpt>
      <trkpt lat="43.56712" lon="1.28554">
        <ele>174.2</ele>
        <time>2024-08-01T10:24:31Z</time>
      </trkpt>
      <trkpt lat="43.56716" lon="1.28557">
        <ele>174.4</ele>
        <time>2024-08-01T10:24:32Z</time>
      </trkpt>
      <trkpt lat="43.5672" lon="1.2856">
        <ele>174.8</ele>
        <time>2024-08-01T10:24:33Z</time>
      </trkpt>
      <trkpt lat="43.56724" lon="1.28563">
        <ele>175</ele>
        <time>2024-08-01T10:24:34Z</time>
      </trkpt>
      <trkpt lat="43.56729" lon="1.28566">
        <ele>175.4</ele>
        <time>2024-08-01T10:24:35Z</time>
      </trkpt>
      <trkpt lat="43.56733" lon="1.2857">
        <ele>175.6</ele>
        <time>2024-08-01T10:24:36Z</time>
      </trkpt>
      <trkpt lat="43.56737" lon="1.28572">
        <ele>175.8</ele>
        <time>2024-08-01T10:24:37Z</time>
      </trkpt>
      <trkpt lat="43.5674" lon="1.28575">
        <ele>176</ele>
        <time>2024-08-01T10:24:38Z</time>
      </trkpt>
      <trkpt lat="43.5674" lon="1.28575">
        <ele>176.2</ele>
        <time>2024-08-01T10:24:39Z</time>
      </trkpt>
      <trkpt lat="43.56748" lon="1.28584">
        <ele>176.6</ele>
        <time>2024-08-01T10:24:40Z</time>
      </trkpt>
      <trkpt lat="43.56751" lon="1.28589">
        <ele>176.6</ele>
        <time>2024-08-01T10:24:41Z</time>
      </trkpt>
      <trkpt lat="43.56754" lon="1.28593">
        <ele>177</ele>
        <time>2024-08-01T10:24:42Z</time>
      </trkpt>
      <trkpt lat="43.56757" lon="1.28601">
        <ele>177.2</ele>
        <time>2024-08-01T10:24:43Z</time>
      </trkpt>
      <trkpt lat="43.56759" lon="1.28607">
        <ele>177.4</ele>
        <time>2024-08-01T10:24:44Z</time>
      </trkpt>
      <trkpt lat="43.56761" lon="1.28614">
        <ele>177.6</ele>
        <time>2024-08-01T10:24:45Z</time>
      </trkpt>
      <trkpt lat="43.56763" lon="1.28621">
        <ele>177.8</ele>
        <time>2024-08-01T10:24:46Z</time>
      </trkpt>
      <trkpt lat="43.56765" lon="1.28628">
        <ele>178</ele>
        <time>2024-08-01T10:24:47Z</time>
      </trkpt>
      <trkpt lat="43.56768" lon="1.28635">
        <ele>178</ele>
        <time>2024-08-01T10:24:48Z</time>
      </trkpt>
      <trkpt lat="43.5677" lon="1.28643">
        <ele>178.2</ele>
        <time>2024-08-01T10:24:49Z</time>
      </trkpt>
      <trkpt lat="43.56772" lon="1.28651">
        <ele>178.4</ele>
        <time>2024-08-01T10:24:50Z</time>
      </trkpt>
      <trkpt lat="43.56774" lon="1.28659">
        <ele>178.4</ele>
        <time>2024-08-01T10:24:51Z</time>
      </trkpt>
      <trkpt lat="43.56777" lon="1.28667">
        <ele>178.4</ele>
        <time>2024-08-01T10:24:52Z</time>
      </trkpt>
      <trkpt lat="43.56779" lon="1.28675">
        <ele>178.4</ele>
        <time>2024-08-01T10:24:53Z</time>
      </trkpt>
      <trkpt lat="43.56782" lon="1.28683">
        <ele>178.6</ele>
        <time>2024-08-01T10:24:54Z</time>
      </trkpt>
      <trkpt lat="43.56785" lon="1.28691">
        <ele>178.6</ele>
        <time>2024-08-01T10:24:55Z</time>
      </trkpt>
      <trkpt lat="43.56788" lon="1.28699">
        <ele>178.6</ele>
        <time>2024-08-01T10:24:56Z</time>
      </trkpt>
      <trkpt lat="43.56792" lon="1.28707">
        <ele>178.6</ele>
        <time>2024-08-01T10:24:57Z</time>
      </trkpt>
      <trkpt lat="43.56796" lon="1.28714">
        <ele>178.4</ele>
        <time>2024-08-01T10:24:58Z</time>
      </trkpt>
      <trkpt lat="43.568" lon="1.28722">
        <ele>178.4</ele>
        <time>2024-08-01T10:24:59Z</time>
      </trkpt>
      <trkpt lat="43.56805" lon="1.2873">
        <ele>178.2</ele>
        <time>2024-08-01T10:25:00Z</time>
      </trkpt>
      <trkpt lat="43.5681" lon="1.28738">
        <ele>178.2</ele>
        <time>2024-08-01T10:25:01Z</time>
      </trkpt>
      <trkpt lat="43.56814" lon="1.28745">
        <ele>178.2</ele>
        <time>2024-08-01T10:25:02Z</time>
      </trkpt>
      <trkpt lat="43.56819" lon="1.28752">
        <ele>178</ele>
        <time>2024-08-01T10:25:03Z</time>
      </trkpt>
      <trkpt lat="43.56824" lon="1.2876">
        <ele>178</ele>
        <time>2024-08-01T10:25:04Z</time>
      </trkpt>
      <trkpt lat="43.56828" lon="1.28767">
        <ele>178</ele>
        <time>2024-08-01T10:25:05Z</time>
      </trkpt>
      <trkpt lat="43.56833" lon="1.28774">
        <ele>177.8</ele>
        <time>2024-08-01T10:25:06Z</time>
      </trkpt>
      <trkpt lat="43.56837" lon="1.28781">
        <ele>177.8</ele>
        <time>2024-08-01T10:25:07Z</time>
      </trkpt>
      <trkpt lat="43.56842" lon="1.28788">
        <ele>177.8</ele>
        <time>2024-08-01T10:25:08Z</time>
      </trkpt>
      <trkpt lat="43.56846" lon="1.28794">
        <ele>177.6</ele>
        <time>2024-08-01T10:25:09Z</time>
      </trkpt>
      <trkpt lat="43.5685" lon="1.288">
        <ele>177.6</ele>
        <time>2024-08-01T10:25:10Z</time>
      </trkpt>
      <trkpt lat="43.56854" lon="1.28807">
        <ele>177.6</ele>
        <time>2024-08-01T10:25:11Z</time>
      </trkpt>
      <trkpt lat="43.56858" lon="1.28814">
        <ele>177.6</ele>
        <time>2024-08-01T10:25:12Z</time>
      </trkpt>
      <trkpt lat="43.56861" lon="1.28822">
        <ele>177.6</ele>
        <time>2024-08-01T10:25:13Z</time>
      </trkpt>
      <trkpt lat="43.56865" lon="1.28831">
        <ele>177.6</ele>
        <time>2024-08-01T10:25:14Z</time>
      </trkpt>
      <trkpt lat="43.56868" lon="1.28838">
        <ele>177.6</ele>
        <time>2024-08-01T10:25:15Z</time>
      </trkpt>
      <trkpt lat="43.56871" lon="1.28845">
        <ele>177.4</ele>
        <time>2024-08-01T10:25:16Z</time>
      </trkpt>
      <trkpt lat="43.56873" lon="1.28852">
        <ele>177.4</ele>
        <time>2024-08-01T10:25:17Z</time>
      </trkpt>
      <trkpt lat="43.56874" lon="1.28856">
        <ele>177.4</ele>
        <time>2024-08-01T10:25:18Z</time>
      </trkpt>
      <trkpt lat="43.56876" lon="1.2886">
        <ele>177.4</ele>
        <time>2024-08-01T10:25:19Z</time>
      </trkpt>
      <trkpt lat="43.56876" lon="1.28862">
        <ele>177.4</ele>
        <time>2024-08-01T10:25:20Z</time>
      </trkpt>
      <trkpt lat="43.56876" lon="1.28863">
        <ele>177.4</ele>
        <time>2024-08-01T10:25:21Z</time>
      </trkpt>
      <trkpt lat="43.56876" lon="1.28864">
        <ele>177.4</ele>
        <time>2024-08-01T10:25:22Z</time>
      </trkpt>
      <trkpt lat="43.56876" lon="1.28865">
        <ele>177.2</ele>
        <time>2024-08-01T10:25:23Z</time>
      </trkpt>
      <trkpt lat="43.56876" lon="1.28866">
        <ele>177.2</ele>
        <time>2024-08-01T10:25:24Z</time>
      </trkpt>
      <trkpt lat="43.56876" lon="1.28869">
        <ele>177.2</ele>
        <time>2024-08-01T10:25:25Z</time>
      </trkpt>
      <trkpt lat="43.56876" lon="1.28873">
        <ele>177.2</ele>
        <time>2024-08-01T10:25:26Z</time>
      </trkpt>
      <trkpt lat="43.56877" lon="1.28877">
        <ele>177.2</ele>
        <time>2024-08-01T10:25:27Z</time>
      </trkpt>
      <trkpt lat="43.56878" lon="1.28883">
        <ele>177</ele>
        <time>2024-08-01T10:25:28Z</time>
      </trkpt>
      <trkpt lat="43.5688" lon="1.28889">
        <ele>177</ele>
        <time>2024-08-01T10:25:29Z</time>
      </trkpt>
      <trkpt lat="43.56883" lon="1.28898">
        <ele>177</ele>
        <time>2024-08-01T10:25:30Z</time>
      </trkpt>
      <trkpt lat="43.56885" lon="1.28906">
        <ele>177</ele>
        <time>2024-08-01T10:25:31Z</time>
      </trkpt>
      <trkpt lat="43.56888" lon="1.28914">
        <ele>176.8</ele>
        <time>2024-08-01T10:25:32Z</time>
      </trkpt>
      <trkpt lat="43.5689" lon="1.28922">
        <ele>176.8</ele>
        <time>2024-08-01T10:25:33Z</time>
      </trkpt>
      <trkpt lat="43.56892" lon="1.28929">
        <ele>176.6</ele>
        <time>2024-08-01T10:25:34Z</time>
      </trkpt>
      <trkpt lat="43.56895" lon="1.28941">
        <ele>176.4</ele>
        <time>2024-08-01T10:25:35Z</time>
      </trkpt>
      <trkpt lat="43.56897" lon="1.2895">
        <ele>176.4</ele>
        <time>2024-08-01T10:25:36Z</time>
      </trkpt>
      <trkpt lat="43.56897" lon="1.2895">
        <ele>176.2</ele>
        <time>2024-08-01T10:25:37Z</time>
      </trkpt>
      <trkpt lat="43.56902" lon="1.28971">
        <ele>176.2</ele>
        <time>2024-08-01T10:25:38Z</time>
      </trkpt>
      <trkpt lat="43.56904" lon="1.28979">
        <ele>176</ele>
        <time>2024-08-01T10:25:39Z</time>
      </trkpt>
      <trkpt lat="43.56907" lon="1.28992">
        <ele>175.8</ele>
        <time>2024-08-01T10:25:40Z</time>
      </trkpt>
      <trkpt lat="43.56909" lon="1.29002">
        <ele>175.6</ele>
        <time>2024-08-01T10:25:41Z</time>
      </trkpt>
      <trkpt lat="43.56911" lon="1.29011">
        <ele>175.2</ele>
        <time>2024-08-01T10:25:42Z</time>
      </trkpt>
      <trkpt lat="43.56914" lon="1.29022">
        <ele>175</ele>
        <time>2024-08-01T10:25:43Z</time>
      </trkpt>
      <trkpt lat="43.56917" lon="1.29032">
        <ele>174.8</ele>
        <time>2024-08-01T10:25:44Z</time>
      </trkpt>
      <trkpt lat="43.5692" lon="1.29045">
        <ele>174.4</ele>
        <time>2024-08-01T10:25:45Z</time>
      </trkpt>
      <trkpt lat="43.56923" lon="1.29056">
        <ele>174.2</ele>
        <time>2024-08-01T10:25:46Z</time>
      </trkpt>
      <trkpt lat="43.56925" lon="1.29065">
        <ele>173.8</ele>
        <time>2024-08-01T10:25:47Z</time>
      </trkpt>
      <trkpt lat="43.56927" lon="1.29075">
        <ele>173.6</ele>
        <time>2024-08-01T10:25:48Z</time>
      </trkpt>
      <trkpt lat="43.5693" lon="1.29085">
        <ele>173.2</ele>
        <time>2024-08-01T10:25:49Z</time>
      </trkpt>
      <trkpt lat="43.56933" lon="1.29097">
        <ele>173</ele>
        <time>2024-08-01T10:25:50Z</time>
      </trkpt>
      <trkpt lat="43.56936" lon="1.29107">
        <ele>172.8</ele>
        <time>2024-08-01T10:25:51Z</time>
      </trkpt>
      <trkpt lat="43.56936" lon="1.29107">
        <ele>172.6</ele>
        <time>2024-08-01T10:25:52Z</time>
      </trkpt>
      <trkpt lat="43.56941" lon="1.29125">
        <ele>172.6</ele>
        <time>2024-08-01T10:25:53Z</time>
      </trkpt>
      <trkpt lat="43.56944" lon="1.29135">
        <ele>172.4</ele>
        <time>2024-08-01T10:25:54Z</time>
      </trkpt>
      <trkpt lat="43.56947" lon="1.29146">
        <ele>172.2</ele>
        <time>2024-08-01T10:25:55Z</time>
      </trkpt>
      <trkpt lat="43.5695" lon="1.29156">
        <ele>172.2</ele>
        <time>2024-08-01T10:25:56Z</time>
      </trkpt>
      <trkpt lat="43.56951" lon="1.29163">
        <ele>172</ele>
        <time>2024-08-01T10:25:57Z</time>
      </trkpt>
      <trkpt lat="43.56954" lon="1.29173">
        <ele>172</ele>
        <time>2024-08-01T10:25:58Z</time>
      </trkpt>
      <trkpt lat="43.56956" lon="1.29184">
        <ele>171.8</ele>
        <time>2024-08-01T10:25:59Z</time>
      </trkpt>
      <trkpt lat="43.56959" lon="1.29193">
        <ele>171.6</ele>
        <time>2024-08-01T10:26:00Z</time>
      </trkpt>
      <trkpt lat="43.56961" lon="1.29202">
        <ele>171.4</ele>
        <time>2024-08-01T10:26:01Z</time>
      </trkpt>
      <trkpt lat="43.56963" lon="1.29209">
        <ele>171.2</ele>
        <time>2024-08-01T10:26:02Z</time>
      </trkpt>
      <trkpt lat="43.56966" lon="1.29221">
        <ele>171</ele>
        <time>2024-08-01T10:26:03Z</time>
      </trkpt>
      <trkpt lat="43.56969" lon="1.2923">
        <ele>171</ele>
        <time>2024-08-01T10:26:04Z</time>
      </trkpt>
      <trkpt lat="43.56971" lon="1.29239">
        <ele>170.8</ele>
        <time>2024-08-01T10:26:05Z</time>
      </trkpt>
      <trkpt lat="43.56974" lon="1.29246">
        <ele>170.8</ele>
        <time>2024-08-01T10:26:06Z</time>
      </trkpt>
      <trkpt lat="43.56976" lon="1.29256">
        <ele>170.6</ele>
        <time>2024-08-01T10:26:07Z</time>
      </trkpt>
      <trkpt lat="43.56979" lon="1.29265">
        <ele>170.6</ele>
        <time>2024-08-01T10:26:08Z</time>
      </trkpt>
      <trkpt lat="43.56982" lon="1.29276">
        <ele>170.6</ele>
        <time>2024-08-01T10:26:09Z</time>
      </trkpt>
      <trkpt lat="43.56984" lon="1.29285">
        <ele>170.6</ele>
        <time>2024-08-01T10:26:10Z</time>
      </trkpt>
      <trkpt lat="43.56987" lon="1.29294">
        <ele>170.4</ele>
        <time>2024-08-01T10:26:11Z</time>
      </trkpt>
      <trkpt lat="43.56989" lon="1.29301">
        <ele>170.4</ele>
        <time>2024-08-01T10:26:12Z</time>
      </trkpt>
      <trkpt lat="43.56992" lon="1.2931">
        <ele>170.4</ele>
        <time>2024-08-01T10:26:13Z</time>
      </trkpt>
      <trkpt lat="43.56994" lon="1.29318">
        <ele>170.4</ele>
        <time>2024-08-01T10:26:14Z</time>
      </trkpt>
      <trkpt lat="43.56997" lon="1.29329">
        <ele>170.4</ele>
        <time>2024-08-01T10:26:15Z</time>
      </trkpt>
      <trkpt lat="43.57" lon="1.29337">
        <ele>170.6</ele>
        <time>2024-08-01T10:26:16Z</time>
      </trkpt>
      <trkpt lat="43.57002" lon="1.29345">
        <ele>170.6</ele>
        <time>2024-08-01T10:26:17Z</time>
      </trkpt>
      <trkpt lat="43.57005" lon="1.29355">
        <ele>170.6</ele>
        <time>2024-08-01T10:26:18Z</time>
      </trkpt>
      <trkpt lat="43.57007" lon="1.29364">
        <ele>170.6</ele>
        <time>2024-08-01T10:26:19Z</time>
      </trkpt>
      <trkpt lat="43.5701" lon="1.29372">
        <ele>170.6</ele>
        <time>2024-08-01T10:26:20Z</time>
      </trkpt>
      <trkpt lat="43.57012" lon="1.29381">
        <ele>170.8</ele>
        <time>2024-08-01T10:26:21Z</time>
      </trkpt>
      <trkpt lat="43.57015" lon="1.29388">
        <ele>170.8</ele>
        <time>2024-08-01T10:26:22Z</time>
      </trkpt>
      <trkpt lat="43.57016" lon="1.29393">
        <ele>170.8</ele>
        <time>2024-08-01T10:26:23Z</time>
      </trkpt>
      <trkpt lat="43.57018" lon="1.29398">
        <ele>170.8</ele>
        <time>2024-08-01T10:26:24Z</time>
      </trkpt>
      <trkpt lat="43.57019" lon="1.29403">
        <ele>170.8</ele>
        <time>2024-08-01T10:26:25Z</time>
      </trkpt>
      <trkpt lat="43.57021" lon="1.29405">
        <ele>170.8</ele>
        <time>2024-08-01T10:26:26Z</time>
      </trkpt>
      <trkpt lat="43.57022" lon="1.29407">
        <ele>170.8</ele>
        <time>2024-08-01T10:26:27Z</time>
      </trkpt>
      <trkpt lat="43.57022" lon="1.29409">
        <ele>170.8</ele>
        <time>2024-08-01T10:26:28Z</time>
      </trkpt>
      <trkpt lat="43.57023" lon="1.29412">
        <ele>170.8</ele>
        <time>2024-08-01T10:26:29Z</time>
      </trkpt>
      <trkpt lat="43.57023" lon="1.29413">
        <ele>170.8</ele>
        <time>2024-08-01T10:26:30Z</time>
      </trkpt>
      <trkpt lat="43.57023" lon="1.29414">
        <ele>170.8</ele>
        <time>2024-08-01T10:26:31Z</time>
      </trkpt>
      <trkpt lat="43.57023" lon="1.29415">
        <ele>170.8</ele>
        <time>2024-08-01T10:26:32Z</time>
      </trkpt>
      <trkpt lat="43.57023" lon="1.29415">
        <ele>170.8</ele>
        <time>2024-08-01T10:26:33Z</time>
      </trkpt>
      <trkpt lat="43.57022" lon="1.29417">
        <ele>170.8</ele>
        <time>2024-08-01T10:26:34Z</time>
      </trkpt>
      <trkpt lat="43.57022" lon="1.2942">
        <ele>170.8</ele>
        <time>2024-08-01T10:26:35Z</time>
      </trkpt>
      <trkpt lat="43.57023" lon="1.29422">
        <ele>170.8</ele>
        <time>2024-08-01T10:26:36Z</time>
      </trkpt>
      <trkpt lat="43.57026" lon="1.29422">
        <ele>170.6</ele>
        <time>2024-08-01T10:26:37Z</time>
      </trkpt>
      <trkpt lat="43.57028" lon="1.29419">
        <ele>170.6</ele>
        <time>2024-08-01T10:26:38Z</time>
      </trkpt>
      <trkpt lat="43.57031" lon="1.29416">
        <ele>170.6</ele>
        <time>2024-08-01T10:26:39Z</time>
      </trkpt>
      <trkpt lat="43.57035" lon="1.29411">
        <ele>170.6</ele>
        <time>2024-08-01T10:26:40Z</time>
      </trkpt>
      <trkpt lat="43.57039" lon="1.29407">
        <ele>170.6</ele>
        <time>2024-08-01T10:26:41Z</time>
      </trkpt>
      <trkpt lat="43.57043" lon="1.29403">
        <ele>170.6</ele>
        <time>2024-08-01T10:26:42Z</time>
      </trkpt>
      <trkpt lat="43.57048" lon="1.29399">
        <ele>170.6</ele>
        <time>2024-08-01T10:26:43Z</time>
      </trkpt>
      <trkpt lat="43.57052" lon="1.29395">
        <ele>170.6</ele>
        <time>2024-08-01T10:26:44Z</time>
      </trkpt>
      <trkpt lat="43.57057" lon="1.29391">
        <ele>170.6</ele>
        <time>2024-08-01T10:26:45Z</time>
      </trkpt>
      <trkpt lat="43.57061" lon="1.29387">
        <ele>170.6</ele>
        <time>2024-08-01T10:26:46Z</time>
      </trkpt>
      <trkpt lat="43.57066" lon="1.29382">
        <ele>170.6</ele>
        <time>2024-08-01T10:26:47Z</time>
      </trkpt>
      <trkpt lat="43.5707" lon="1.29378">
        <ele>170.6</ele>
        <time>2024-08-01T10:26:48Z</time>
      </trkpt>
      <trkpt lat="43.57075" lon="1.29374">
        <ele>170.6</ele>
        <time>2024-08-01T10:26:49Z</time>
      </trkpt>
      <trkpt lat="43.57082" lon="1.29368">
        <ele>170.8</ele>
        <time>2024-08-01T10:26:50Z</time>
      </trkpt>
      <trkpt lat="43.57082" lon="1.29368">
        <ele>170.8</ele>
        <time>2024-08-01T10:26:51Z</time>
      </trkpt>
      <trkpt lat="43.57092" lon="1.29359">
        <ele>171</ele>
        <time>2024-08-01T10:26:52Z</time>
      </trkpt>
      <trkpt lat="43.57097" lon="1.29355">
        <ele>171</ele>
        <time>2024-08-01T10:26:53Z</time>
      </trkpt>
      <trkpt lat="43.57101" lon="1.29352">
        <ele>171</ele>
        <time>2024-08-01T10:26:54Z</time>
      </trkpt>
      <trkpt lat="43.57107" lon="1.29347">
        <ele>171.2</ele>
        <time>2024-08-01T10:26:55Z</time>
      </trkpt>
      <trkpt lat="43.57112" lon="1.29343">
        <ele>171.6</ele>
        <time>2024-08-01T10:26:56Z</time>
      </trkpt>
      <trkpt lat="43.57118" lon="1.29339">
        <ele>171.8</ele>
        <time>2024-08-01T10:26:57Z</time>
      </trkpt>
      <trkpt lat="43.57118" lon="1.29339">
        <ele>172</ele>
        <time>2024-08-01T10:26:58Z</time>
      </trkpt>
      <trkpt lat="43.57127" lon="1.29332">
        <ele>172.2</ele>
        <time>2024-08-01T10:26:59Z</time>
      </trkpt>
      <trkpt lat="43.57133" lon="1.29328">
        <ele>172.4</ele>
        <time>2024-08-01T10:27:00Z</time>
      </trkpt>
      <trkpt lat="43.57138" lon="1.29324">
        <ele>172.8</ele>
        <time>2024-08-01T10:27:01Z</time>
      </trkpt>
      <trkpt lat="43.57144" lon="1.29321">
        <ele>173</ele>
        <time>2024-08-01T10:27:02Z</time>
      </trkpt>
      <trkpt lat="43.57149" lon="1.29318">
        <ele>173.2</ele>
        <time>2024-08-01T10:27:03Z</time>
      </trkpt>
      <trkpt lat="43.57153" lon="1.29315">
        <ele>173.4</ele>
        <time>2024-08-01T10:27:04Z</time>
      </trkpt>
      <trkpt lat="43.57159" lon="1.29311">
        <ele>173.4</ele>
        <time>2024-08-01T10:27:05Z</time>
      </trkpt>
      <trkpt lat="43.57164" lon="1.29308">
        <ele>173.8</ele>
        <time>2024-08-01T10:27:06Z</time>
      </trkpt>
      <trkpt lat="43.57169" lon="1.29305">
        <ele>173.8</ele>
        <time>2024-08-01T10:27:07Z</time>
      </trkpt>
      <trkpt lat="43.57173" lon="1.29303">
        <ele>174</ele>
        <time>2024-08-01T10:27:08Z</time>
      </trkpt>
      <trkpt lat="43.57178" lon="1.29299">
        <ele>174.4</ele>
        <time>2024-08-01T10:27:09Z</time>
      </trkpt>
      <trkpt lat="43.57183" lon="1.29296">
        <ele>174.6</ele>
        <time>2024-08-01T10:27:10Z</time>
      </trkpt>
      <trkpt lat="43.57188" lon="1.29292">
        <ele>175</ele>
        <time>2024-08-01T10:27:11Z</time>
      </trkpt>
      <trkpt lat="43.57192" lon="1.2929">
        <ele>175.2</ele>
        <time>2024-08-01T10:27:12Z</time>
      </trkpt>
      <trkpt lat="43.57197" lon="1.29286">
        <ele>175.4</ele>
        <time>2024-08-01T10:27:13Z</time>
      </trkpt>
      <trkpt lat="43.57201" lon="1.29283">
        <ele>175.6</ele>
        <time>2024-08-01T10:27:14Z</time>
      </trkpt>
      <trkpt lat="43.57207" lon="1.29279">
        <ele>175.8</ele>
        <time>2024-08-01T10:27:15Z</time>
      </trkpt>
      <trkpt lat="43.57211" lon="1.29277">
        <ele>176</ele>
        <time>2024-08-01T10:27:16Z</time>
      </trkpt>
      <trkpt lat="43.57216" lon="1.29274">
        <ele>176.2</ele>
        <time>2024-08-01T10:27:17Z</time>
      </trkpt>
      <trkpt lat="43.5722" lon="1.29271">
        <ele>176.4</ele>
        <time>2024-08-01T10:27:18Z</time>
      </trkpt>
      <trkpt lat="43.57224" lon="1.29267">
        <ele>176.6</ele>
        <time>2024-08-01T10:27:19Z</time>
      </trkpt>
      <trkpt lat="43.57228" lon="1.29264">
        <ele>176.8</ele>
        <time>2024-08-01T10:27:20Z</time>
      </trkpt>
      <trkpt lat="43.57233" lon="1.29262">
        <ele>177</ele>
        <time>2024-08-01T10:27:21Z</time>
      </trkpt>
      <trkpt lat="43.57238" lon="1.29259">
        <ele>177</ele>
        <time>2024-08-01T10:27:22Z</time>
      </trkpt>
      <trkpt lat="43.57242" lon="1.29256">
        <ele>177.2</ele>
        <time>2024-08-01T10:27:23Z</time>
      </trkpt>
      <trkpt lat="43.57246" lon="1.29253">
        <ele>177.4</ele>
        <time>2024-08-01T10:27:24Z</time>
      </trkpt>
      <trkpt lat="43.57251" lon="1.2925">
        <ele>177.6</ele>
        <time>2024-08-01T10:27:25Z</time>
      </trkpt>
      <trkpt lat="43.57255" lon="1.29246">
        <ele>177.6</ele>
        <time>2024-08-01T10:27:26Z</time>
      </trkpt>
      <trkpt lat="43.57259" lon="1.29242">
        <ele>177.8</ele>
        <time>2024-08-01T10:27:27Z</time>
      </trkpt>
      <trkpt lat="43.57263" lon="1.29239">
        <ele>178</ele>
        <time>2024-08-01T10:27:28Z</time>
      </trkpt>
      <trkpt lat="43.57267" lon="1.29235">
        <ele>178</ele>
        <time>2024-08-01T10:27:29Z</time>
      </trkpt>
      <trkpt lat="43.57273" lon="1.29231">
        <ele>178.2</ele>
        <time>2024-08-01T10:27:30Z</time>
      </trkpt>
      <trkpt lat="43.57277" lon="1.29227">
        <ele>178.4</ele>
        <time>2024-08-01T10:27:31Z</time>
      </trkpt>
      <trkpt lat="43.57281" lon="1.29224">
        <ele>178.8</ele>
        <time>2024-08-01T10:27:32Z</time>
      </trkpt>
      <trkpt lat="43.57285" lon="1.29221">
        <ele>179</ele>
        <time>2024-08-01T10:27:33Z</time>
      </trkpt>
      <trkpt lat="43.5729" lon="1.29218">
        <ele>179.2</ele>
        <time>2024-08-01T10:27:34Z</time>
      </trkpt>
      <trkpt lat="43.5729" lon="1.29218">
        <ele>179.4</ele>
        <time>2024-08-01T10:27:35Z</time>
      </trkpt>
      <trkpt lat="43.573" lon="1.29213">
        <ele>179.4</ele>
        <time>2024-08-01T10:27:36Z</time>
      </trkpt>
      <trkpt lat="43.57305" lon="1.29209">
        <ele>179.8</ele>
        <time>2024-08-01T10:27:37Z</time>
      </trkpt>
      <trkpt lat="43.57309" lon="1.29208">
        <ele>180</ele>
        <time>2024-08-01T10:27:38Z</time>
      </trkpt>
      <trkpt lat="43.57313" lon="1.29206">
        <ele>180.4</ele>
        <time>2024-08-01T10:27:39Z</time>
      </trkpt>
      <trkpt lat="43.57319" lon="1.29205">
        <ele>180.6</ele>
        <time>2024-08-01T10:27:40Z</time>
      </trkpt>
      <trkpt lat="43.57325" lon="1.29202">
        <ele>180.6</ele>
        <time>2024-08-01T10:27:41Z</time>
      </trkpt>
      <trkpt lat="43.5733" lon="1.29199">
        <ele>180.8</ele>
        <time>2024-08-01T10:27:42Z</time>
      </trkpt>
      <trkpt lat="43.57334" lon="1.29198">
        <ele>181</ele>
        <time>2024-08-01T10:27:43Z</time>
      </trkpt>
      <trkpt lat="43.57339" lon="1.29196">
        <ele>181.2</ele>
        <time>2024-08-01T10:27:44Z</time>
      </trkpt>
      <trkpt lat="43.57344" lon="1.29194">
        <ele>181.4</ele>
        <time>2024-08-01T10:27:45Z</time>
      </trkpt>
      <trkpt lat="43.57349" lon="1.29192">
        <ele>181.4</ele>
        <time>2024-08-01T10:27:46Z</time>
      </trkpt>
      <trkpt lat="43.57355" lon="1.2919">
        <ele>181.6</ele>
        <time>2024-08-01T10:27:47Z</time>
      </trkpt>
      <trkpt lat="43.5736" lon="1.29189">
        <ele>181.4</ele>
        <time>2024-08-01T10:27:48Z</time>
      </trkpt>
      <trkpt lat="43.57365" lon="1.29187">
        <ele>181.8</ele>
        <time>2024-08-01T10:27:49Z</time>
      </trkpt>
      <trkpt lat="43.5737" lon="1.29185">
        <ele>181.8</ele>
        <time>2024-08-01T10:27:50Z</time>
      </trkpt>
      <trkpt lat="43.57375" lon="1.29184">
        <ele>182</ele>
        <time>2024-08-01T10:27:51Z</time>
      </trkpt>
      <trkpt lat="43.57381" lon="1.29182">
        <ele>182.2</ele>
        <time>2024-08-01T10:27:52Z</time>
      </trkpt>
      <trkpt lat="43.57384" lon="1.29181">
        <ele>182.4</ele>
        <time>2024-08-01T10:27:53Z</time>
      </trkpt>
      <trkpt lat="43.57389" lon="1.29179">
        <ele>182.6</ele>
        <time>2024-08-01T10:27:54Z</time>
      </trkpt>
      <trkpt lat="43.57394" lon="1.29178">
        <ele>182.6</ele>
        <time>2024-08-01T10:27:55Z</time>
      </trkpt>
      <trkpt lat="43.57399" lon="1.29177">
        <ele>182.8</ele>
        <time>2024-08-01T10:27:56Z</time>
      </trkpt>
      <trkpt lat="43.57405" lon="1.29175">
        <ele>183</ele>
        <time>2024-08-01T10:27:57Z</time>
      </trkpt>
      <trkpt lat="43.5741" lon="1.29173">
        <ele>183</ele>
        <time>2024-08-01T10:27:58Z</time>
      </trkpt>
      <trkpt lat="43.57415" lon="1.29171">
        <ele>183.4</ele>
        <time>2024-08-01T10:27:59Z</time>
      </trkpt>
      <trkpt lat="43.5742" lon="1.29169">
        <ele>183.6</ele>
        <time>2024-08-01T10:28:00Z</time>
      </trkpt>
      <trkpt lat="43.57425" lon="1.29167">
        <ele>183.8</ele>
        <time>2024-08-01T10:28:01Z</time>
      </trkpt>
      <trkpt lat="43.5743" lon="1.29165">
        <ele>184</ele>
        <time>2024-08-01T10:28:02Z</time>
      </trkpt>
      <trkpt lat="43.57433" lon="1.29163">
        <ele>184.4</ele>
        <time>2024-08-01T10:28:03Z</time>
      </trkpt>
      <trkpt lat="43.57437" lon="1.2916">
        <ele>184.6</ele>
        <time>2024-08-01T10:28:04Z</time>
      </trkpt>
      <trkpt lat="43.57442" lon="1.29156">
        <ele>184.8</ele>
        <time>2024-08-01T10:28:05Z</time>
      </trkpt>
      <trkpt lat="43.57445" lon="1.29154">
        <ele>185</ele>
        <time>2024-08-01T10:28:06Z</time>
      </trkpt>
      <trkpt lat="43.5745" lon="1.29151">
        <ele>185</ele>
        <time>2024-08-01T10:28:07Z</time>
      </trkpt>
      <trkpt lat="43.57452" lon="1.29149">
        <ele>185.2</ele>
        <time>2024-08-01T10:28:08Z</time>
      </trkpt>
      <trkpt lat="43.57455" lon="1.29146">
        <ele>185.4</ele>
        <time>2024-08-01T10:28:09Z</time>
      </trkpt>
      <trkpt lat="43.57457" lon="1.29144">
        <ele>185.6</ele>
        <time>2024-08-01T10:28:10Z</time>
      </trkpt>
      <trkpt lat="43.57459" lon="1.29142">
        <ele>185.8</ele>
        <time>2024-08-01T10:28:11Z</time>
      </trkpt>
      <trkpt lat="43.5746" lon="1.2914">
        <ele>185.8</ele>
        <time>2024-08-01T10:28:12Z</time>
      </trkpt>
      <trkpt lat="43.57462" lon="1.29138">
        <ele>186.2</ele>
        <time>2024-08-01T10:28:13Z</time>
      </trkpt>
      <trkpt lat="43.57464" lon="1.29136">
        <ele>186.2</ele>
        <time>2024-08-01T10:28:14Z</time>
      </trkpt>
      <trkpt lat="43.57466" lon="1.29134">
        <ele>186.4</ele>
        <time>2024-08-01T10:28:15Z</time>
      </trkpt>
      <trkpt lat="43.57468" lon="1.29132">
        <ele>186.6</ele>
        <time>2024-08-01T10:28:16Z</time>
      </trkpt>
      <trkpt lat="43.57471" lon="1.2913">
        <ele>186.6</ele>
        <time>2024-08-01T10:28:17Z</time>
      </trkpt>
      <trkpt lat="43.57473" lon="1.29129">
        <ele>186.8</ele>
        <time>2024-08-01T10:28:18Z</time>
      </trkpt>
      <trkpt lat="43.57476" lon="1.29127">
        <ele>186.8</ele>
        <time>2024-08-01T10:28:19Z</time>
      </trkpt>
      <trkpt lat="43.57479" lon="1.29126">
        <ele>186.8</ele>
        <time>2024-08-01T10:28:20Z</time>
      </trkpt>
      <trkpt lat="43.57483" lon="1.29124">
        <ele>187</ele>
        <time>2024-08-01T10:28:21Z</time>
      </trkpt>
      <trkpt lat="43.57488" lon="1.29123">
        <ele>187.2</ele>
        <time>2024-08-01T10:28:22Z</time>
      </trkpt>
      <trkpt lat="43.57492" lon="1.29121">
        <ele>187</ele>
        <time>2024-08-01T10:28:23Z</time>
      </trkpt>
      <trkpt lat="43.57496" lon="1.29118">
        <ele>187</ele>
        <time>2024-08-01T10:28:24Z</time>
      </trkpt>
      <trkpt lat="43.575" lon="1.29115">
        <ele>187</ele>
        <time>2024-08-01T10:28:25Z</time>
      </trkpt>
      <trkpt lat="43.57506" lon="1.29112">
        <ele>187.2</ele>
        <time>2024-08-01T10:28:26Z</time>
      </trkpt>
      <trkpt lat="43.57511" lon="1.2911">
        <ele>187.4</ele>
        <time>2024-08-01T10:28:27Z</time>
      </trkpt>
      <trkpt lat="43.57515" lon="1.29108">
        <ele>187.4</ele>
        <time>2024-08-01T10:28:28Z</time>
      </trkpt>
      <trkpt lat="43.5752" lon="1.29106">
        <ele>187.6</ele>
        <time>2024-08-01T10:28:29Z</time>
      </trkpt>
      <trkpt lat="43.57525" lon="1.29104">
        <ele>187.6</ele>
        <time>2024-08-01T10:28:30Z</time>
      </trkpt>
      <trkpt lat="43.57531" lon="1.29102">
        <ele>187.8</ele>
        <time>2024-08-01T10:28:31Z</time>
      </trkpt>
      <trkpt lat="43.57537" lon="1.291">
        <ele>188</ele>
        <time>2024-08-01T10:28:32Z</time>
      </trkpt>
      <trkpt lat="43.57542" lon="1.29099">
        <ele>188.2</ele>
        <time>2024-08-01T10:28:33Z</time>
      </trkpt>
      <trkpt lat="43.57549" lon="1.29098">
        <ele>188.2</ele>
        <time>2024-08-01T10:28:34Z</time>
      </trkpt>
      <trkpt lat="43.57555" lon="1.29097">
        <ele>188.4</ele>
        <time>2024-08-01T10:28:35Z</time>
      </trkpt>
      <trkpt lat="43.57562" lon="1.29096">
        <ele>188.6</ele>
        <time>2024-08-01T10:28:36Z</time>
      </trkpt>
      <trkpt lat="43.57569" lon="1.29095">
        <ele>188.8</ele>
        <time>2024-08-01T10:28:37Z</time>
      </trkpt>
      <trkpt lat="43.57574" lon="1.29094">
        <ele>188.8</ele>
        <time>2024-08-01T10:28:38Z</time>
      </trkpt>
      <trkpt lat="43.57581" lon="1.29094">
        <ele>189</ele>
        <time>2024-08-01T10:28:39Z</time>
      </trkpt>
      <trkpt lat="43.57587" lon="1.29094">
        <ele>189</ele>
        <time>2024-08-01T10:28:40Z</time>
      </trkpt>
      <trkpt lat="43.57595" lon="1.29093">
        <ele>189</ele>
        <time>2024-08-01T10:28:41Z</time>
      </trkpt>
      <trkpt lat="43.57601" lon="1.29092">
        <ele>189</ele>
        <time>2024-08-01T10:28:42Z</time>
      </trkpt>
      <trkpt lat="43.57606" lon="1.29092">
        <ele>189.2</ele>
        <time>2024-08-01T10:28:43Z</time>
      </trkpt>
      <trkpt lat="43.57613" lon="1.29092">
        <ele>189.2</ele>
        <time>2024-08-01T10:28:44Z</time>
      </trkpt>
      <trkpt lat="43.57619" lon="1.29092">
        <ele>189.2</ele>
        <time>2024-08-01T10:28:45Z</time>
      </trkpt>
      <trkpt lat="43.57627" lon="1.29091">
        <ele>189</ele>
        <time>2024-08-01T10:28:46Z</time>
      </trkpt>
      <trkpt lat="43.57633" lon="1.29091">
        <ele>189.2</ele>
        <time>2024-08-01T10:28:47Z</time>
      </trkpt>
      <trkpt lat="43.57638" lon="1.29091">
        <ele>189.2</ele>
        <time>2024-08-01T10:28:48Z</time>
      </trkpt>
      <trkpt lat="43.57644" lon="1.2909">
        <ele>189.2</ele>
        <time>2024-08-01T10:28:49Z</time>
      </trkpt>
      <trkpt lat="43.57651" lon="1.2909">
        <ele>189.2</ele>
        <time>2024-08-01T10:28:50Z</time>
      </trkpt>
      <trkpt lat="43.57657" lon="1.2909">
        <ele>189.2</ele>
        <time>2024-08-01T10:28:51Z</time>
      </trkpt>
      <trkpt lat="43.57664" lon="1.2909">
        <ele>189.2</ele>
        <time>2024-08-01T10:28:52Z</time>
      </trkpt>
      <trkpt lat="43.5767" lon="1.2909">
        <ele>189.2</ele>
        <time>2024-08-01T10:28:53Z</time>
      </trkpt>
      <trkpt lat="43.57677" lon="1.2909">
        <ele>189.2</ele>
        <time>2024-08-01T10:28:54Z</time>
      </trkpt>
      <trkpt lat="43.57683" lon="1.2909">
        <ele>189.2</ele>
        <time>2024-08-01T10:28:55Z</time>
      </trkpt>
      <trkpt lat="43.5769" lon="1.29091">
        <ele>189.4</ele>
        <time>2024-08-01T10:28:56Z</time>
      </trkpt>
      <trkpt lat="43.57695" lon="1.29091">
        <ele>189.4</ele>
        <time>2024-08-01T10:28:57Z</time>
      </trkpt>
      <trkpt lat="43.57702" lon="1.29091">
        <ele>189.4</ele>
        <time>2024-08-01T10:28:58Z</time>
      </trkpt>
      <trkpt lat="43.57709" lon="1.29091">
        <ele>189.4</ele>
        <time>2024-08-01T10:28:59Z</time>
      </trkpt>
      <trkpt lat="43.57715" lon="1.29091">
        <ele>189.6</ele>
        <time>2024-08-01T10:29:00Z</time>
      </trkpt>
      <trkpt lat="43.57722" lon="1.29091">
        <ele>189.6</ele>
        <time>2024-08-01T10:29:01Z</time>
      </trkpt>
      <trkpt lat="43.5773" lon="1.29091">
        <ele>189.6</ele>
        <time>2024-08-01T10:29:02Z</time>
      </trkpt>
      <trkpt lat="43.57736" lon="1.29091">
        <ele>189.6</ele>
        <time>2024-08-01T10:29:03Z</time>
      </trkpt>
      <trkpt lat="43.57744" lon="1.29091">
        <ele>189.6</ele>
        <time>2024-08-01T10:29:04Z</time>
      </trkpt>
      <trkpt lat="43.57751" lon="1.29091">
        <ele>189.6</ele>
        <time>2024-08-01T10:29:05Z</time>
      </trkpt>
      <trkpt lat="43.57758" lon="1.2909">
        <ele>189.8</ele>
        <time>2024-08-01T10:29:06Z</time>
      </trkpt>
      <trkpt lat="43.57766" lon="1.2909">
        <ele>190</ele>
        <time>2024-08-01T10:29:07Z</time>
      </trkpt>
      <trkpt lat="43.57773" lon="1.2909">
        <ele>190</ele>
        <time>2024-08-01T10:29:08Z</time>
      </trkpt>
      <trkpt lat="43.5778" lon="1.2909">
        <ele>190</ele>
        <time>2024-08-01T10:29:09Z</time>
      </trkpt>
      <trkpt lat="43.57787" lon="1.29089">
        <ele>190</ele>
        <time>2024-08-01T10:29:10Z</time>
      </trkpt>
      <trkpt lat="43.57795" lon="1.29089">
        <ele>190.2</ele>
        <time>2024-08-01T10:29:11Z</time>
      </trkpt>
      <trkpt lat="43.57802" lon="1.29088">
        <ele>190.2</ele>
        <time>2024-08-01T10:29:12Z</time>
      </trkpt>
      <trkpt lat="43.57809" lon="1.29087">
        <ele>190</ele>
        <time>2024-08-01T10:29:13Z</time>
      </trkpt>
      <trkpt lat="43.57817" lon="1.29085">
        <ele>190</ele>
        <time>2024-08-01T10:29:14Z</time>
      </trkpt>
      <trkpt lat="43.57825" lon="1.29084">
        <ele>189.8</ele>
        <time>2024-08-01T10:29:15Z</time>
      </trkpt>
      <trkpt lat="43.57832" lon="1.29083">
        <ele>189.8</ele>
        <time>2024-08-01T10:29:16Z</time>
      </trkpt>
      <trkpt lat="43.5784" lon="1.29081">
        <ele>189.8</ele>
        <time>2024-08-01T10:29:17Z</time>
      </trkpt>
      <trkpt lat="43.57847" lon="1.29079">
        <ele>189.6</ele>
        <time>2024-08-01T10:29:18Z</time>
      </trkpt>
      <trkpt lat="43.57855" lon="1.29077">
        <ele>189.6</ele>
        <time>2024-08-01T10:29:19Z</time>
      </trkpt>
      <trkpt lat="43.57863" lon="1.29075">
        <ele>189.4</ele>
        <time>2024-08-01T10:29:20Z</time>
      </trkpt>
      <trkpt lat="43.57871" lon="1.29074">
        <ele>189.4</ele>
        <time>2024-08-01T10:29:21Z</time>
      </trkpt>
      <trkpt lat="43.57878" lon="1.29072">
        <ele>189.4</ele>
        <time>2024-08-01T10:29:22Z</time>
      </trkpt>
      <trkpt lat="43.57886" lon="1.2907">
        <ele>189.4</ele>
        <time>2024-08-01T10:29:23Z</time>
      </trkpt>
      <trkpt lat="43.57894" lon="1.29068">
        <ele>189.4</ele>
        <time>2024-08-01T10:29:24Z</time>
      </trkpt>
      <trkpt lat="43.57901" lon="1.29065">
        <ele>189.4</ele>
        <time>2024-08-01T10:29:25Z</time>
      </trkpt>
      <trkpt lat="43.57909" lon="1.29063">
        <ele>189.4</ele>
        <time>2024-08-01T10:29:26Z</time>
      </trkpt>
      <trkpt lat="43.57917" lon="1.2906">
        <ele>189.4</ele>
        <time>2024-08-01T10:29:27Z</time>
      </trkpt>
      <trkpt lat="43.57925" lon="1.29059">
        <ele>189.4</ele>
        <time>2024-08-01T10:29:28Z</time>
      </trkpt>
      <trkpt lat="43.57933" lon="1.29057">
        <ele>189.2</ele>
        <time>2024-08-01T10:29:29Z</time>
      </trkpt>
      <trkpt lat="43.5794" lon="1.29056">
        <ele>189.2</ele>
        <time>2024-08-01T10:29:30Z</time>
      </trkpt>
      <trkpt lat="43.57948" lon="1.29054">
        <ele>189.2</ele>
        <time>2024-08-01T10:29:31Z</time>
      </trkpt>
      <trkpt lat="43.57956" lon="1.29051">
        <ele>189.2</ele>
        <time>2024-08-01T10:29:32Z</time>
      </trkpt>
      <trkpt lat="43.57964" lon="1.29049">
        <ele>189.2</ele>
        <time>2024-08-01T10:29:33Z</time>
      </trkpt>
      <trkpt lat="43.57971" lon="1.29046">
        <ele>189.2</ele>
        <time>2024-08-01T10:29:34Z</time>
      </trkpt>
      <trkpt lat="43.57979" lon="1.29043">
        <ele>189</ele>
        <time>2024-08-01T10:29:35Z</time>
      </trkpt>
      <trkpt lat="43.57986" lon="1.2904">
        <ele>189</ele>
        <time>2024-08-01T10:29:36Z</time>
      </trkpt>
      <trkpt lat="43.57994" lon="1.29037">
        <ele>189</ele>
        <time>2024-08-01T10:29:37Z</time>
      </trkpt>
      <trkpt lat="43.58001" lon="1.29035">
        <ele>189</ele>
        <time>2024-08-01T10:29:38Z</time>
      </trkpt>
      <trkpt lat="43.58009" lon="1.29032">
        <ele>189</ele>
        <time>2024-08-01T10:29:39Z</time>
      </trkpt>
      <trkpt lat="43.58016" lon="1.29029">
        <ele>189</ele>
        <time>2024-08-01T10:29:40Z</time>
      </trkpt>
      <trkpt lat="43.58023" lon="1.29027">
        <ele>189</ele>
        <time>2024-08-01T10:29:41Z</time>
      </trkpt>
      <trkpt lat="43.5803" lon="1.29025">
        <ele>189</ele>
        <time>2024-08-01T10:29:42Z</time>
      </trkpt>
      <trkpt lat="43.58038" lon="1.29022">
        <ele>189</ele>
        <time>2024-08-01T10:29:43Z</time>
      </trkpt>
      <trkpt lat="43.58045" lon="1.2902">
        <ele>189</ele>
        <time>2024-08-01T10:29:44Z</time>
      </trkpt>
      <trkpt lat="43.58053" lon="1.29018">
        <ele>189</ele>
        <time>2024-08-01T10:29:45Z</time>
      </trkpt>
      <trkpt lat="43.5806" lon="1.29016">
        <ele>189.2</ele>
        <time>2024-08-01T10:29:46Z</time>
      </trkpt>
      <trkpt lat="43.58066" lon="1.29014">
        <ele>189.2</ele>
        <time>2024-08-01T10:29:47Z</time>
      </trkpt>
      <trkpt lat="43.58072" lon="1.29013">
        <ele>189.2</ele>
        <time>2024-08-01T10:29:48Z</time>
      </trkpt>
      <trkpt lat="43.58078" lon="1.29013">
        <ele>189.2</ele>
        <time>2024-08-01T10:29:49Z</time>
      </trkpt>
      <trkpt lat="43.58082" lon="1.29018">
        <ele>189.4</ele>
        <time>2024-08-01T10:29:50Z</time>
      </trkpt>
      <trkpt lat="43.58085" lon="1.29025">
        <ele>189.4</ele>
        <time>2024-08-01T10:29:51Z</time>
      </trkpt>
      <trkpt lat="43.58086" lon="1.29033">
        <ele>189.4</ele>
        <time>2024-08-01T10:29:52Z</time>
      </trkpt>
      <trkpt lat="43.58087" lon="1.29042">
        <ele>189.4</ele>
        <time>2024-08-01T10:29:53Z</time>
      </trkpt>
      <trkpt lat="43.58087" lon="1.29052">
        <ele>189.4</ele>
        <time>2024-08-01T10:29:54Z</time>
      </trkpt>
      <trkpt lat="43.58088" lon="1.2906">
        <ele>189.4</ele>
        <time>2024-08-01T10:29:55Z</time>
      </trkpt>
      <trkpt lat="43.58089" lon="1.29071">
        <ele>189.4</ele>
        <time>2024-08-01T10:29:56Z</time>
      </trkpt>
      <trkpt lat="43.5809" lon="1.29081">
        <ele>189.4</ele>
        <time>2024-08-01T10:29:57Z</time>
      </trkpt>
      <trkpt lat="43.58091" lon="1.29091">
        <ele>189.4</ele>
        <time>2024-08-01T10:29:58Z</time>
      </trkpt>
      <trkpt lat="43.58093" lon="1.29101">
        <ele>189.4</ele>
        <time>2024-08-01T10:29:59Z</time>
      </trkpt>
      <trkpt lat="43.58095" lon="1.2911">
        <ele>189.4</ele>
        <time>2024-08-01T10:30:00Z</time>
      </trkpt>
      <trkpt lat="43.58097" lon="1.2912">
        <ele>189.2</ele>
        <time>2024-08-01T10:30:01Z</time>
      </trkpt>
      <trkpt lat="43.58097" lon="1.2912">
        <ele>189.2</ele>
        <time>2024-08-01T10:30:02Z</time>
      </trkpt>
      <trkpt lat="43.581" lon="1.29139">
        <ele>189</ele>
        <time>2024-08-01T10:30:03Z</time>
      </trkpt>
      <trkpt lat="43.58102" lon="1.29149">
        <ele>189</ele>
        <time>2024-08-01T10:30:04Z</time>
      </trkpt>
      <trkpt lat="43.58104" lon="1.29159">
        <ele>188.8</ele>
        <time>2024-08-01T10:30:05Z</time>
      </trkpt>
      <trkpt lat="43.58107" lon="1.29168">
        <ele>188.8</ele>
        <time>2024-08-01T10:30:06Z</time>
      </trkpt>
      <trkpt lat="43.58109" lon="1.29178">
        <ele>188.8</ele>
        <time>2024-08-01T10:30:07Z</time>
      </trkpt>
      <trkpt lat="43.58111" lon="1.29188">
        <ele>188.6</ele>
        <time>2024-08-01T10:30:08Z</time>
      </trkpt>
      <trkpt lat="43.58112" lon="1.29198">
        <ele>188.6</ele>
        <time>2024-08-01T10:30:09Z</time>
      </trkpt>
      <trkpt lat="43.58114" lon="1.29208">
        <ele>188.6</ele>
        <time>2024-08-01T10:30:10Z</time>
      </trkpt>
      <trkpt lat="43.58116" lon="1.29218">
        <ele>188.6</ele>
        <time>2024-08-01T10:30:11Z</time>
      </trkpt>
      <trkpt lat="43.58117" lon="1.29228">
        <ele>188.6</ele>
        <time>2024-08-01T10:30:12Z</time>
      </trkpt>
      <trkpt lat="43.58118" lon="1.29238">
        <ele>188.6</ele>
        <time>2024-08-01T10:30:13Z</time>
      </trkpt>
      <trkpt lat="43.5812" lon="1.29248">
        <ele>188.6</ele>
        <time>2024-08-01T10:30:14Z</time>
      </trkpt>
      <trkpt lat="43.58122" lon="1.29257">
        <ele>188.6</ele>
        <time>2024-08-01T10:30:15Z</time>
      </trkpt>
      <trkpt lat="43.58124" lon="1.29266">
        <ele>188.6</ele>
        <time>2024-08-01T10:30:16Z</time>
      </trkpt>
      <trkpt lat="43.58126" lon="1.29275">
        <ele>188.6</ele>
        <time>2024-08-01T10:30:17Z</time>
      </trkpt>
      <trkpt lat="43.58129" lon="1.29285">
        <ele>188.6</ele>
        <time>2024-08-01T10:30:18Z</time>
      </trkpt>
      <trkpt lat="43.58131" lon="1.29294">
        <ele>188.6</ele>
        <time>2024-08-01T10:30:19Z</time>
      </trkpt>
      <trkpt lat="43.58133" lon="1.29304">
        <ele>188.6</ele>
        <time>2024-08-01T10:30:20Z</time>
      </trkpt>
      <trkpt lat="43.58134" lon="1.29314">
        <ele>188.6</ele>
        <time>2024-08-01T10:30:21Z</time>
      </trkpt>
      <trkpt lat="43.58136" lon="1.29325">
        <ele>188.6</ele>
        <time>2024-08-01T10:30:22Z</time>
      </trkpt>
      <trkpt lat="43.58138" lon="1.29335">
        <ele>188.6</ele>
        <time>2024-08-01T10:30:23Z</time>
      </trkpt>
      <trkpt lat="43.5814" lon="1.29345">
        <ele>188.6</ele>
        <time>2024-08-01T10:30:24Z</time>
      </trkpt>
      <trkpt lat="43.58142" lon="1.29355">
        <ele>188.6</ele>
        <time>2024-08-01T10:30:25Z</time>
      </trkpt>
      <trkpt lat="43.58144" lon="1.29366">
        <ele>188.6</ele>
        <time>2024-08-01T10:30:26Z</time>
      </trkpt>
      <trkpt lat="43.58145" lon="1.29376">
        <ele>188.6</ele>
        <time>2024-08-01T10:30:27Z</time>
      </trkpt>
      <trkpt lat="43.58147" lon="1.29387">
        <ele>188.6</ele>
        <time>2024-08-01T10:30:28Z</time>
      </trkpt>
      <trkpt lat="43.58148" lon="1.29397">
        <ele>188.4</ele>
        <time>2024-08-01T10:30:29Z</time>
      </trkpt>
      <trkpt lat="43.58149" lon="1.29408">
        <ele>188.4</ele>
        <time>2024-08-01T10:30:30Z</time>
      </trkpt>
      <trkpt lat="43.5815" lon="1.29418">
        <ele>188.4</ele>
        <time>2024-08-01T10:30:31Z</time>
      </trkpt>
      <trkpt lat="43.58152" lon="1.29429">
        <ele>188.4</ele>
        <time>2024-08-01T10:30:32Z</time>
      </trkpt>
      <trkpt lat="43.58153" lon="1.2944">
        <ele>188.4</ele>
        <time>2024-08-01T10:30:33Z</time>
      </trkpt>
      <trkpt lat="43.58154" lon="1.29451">
        <ele>188.4</ele>
        <time>2024-08-01T10:30:34Z</time>
      </trkpt>
      <trkpt lat="43.58154" lon="1.29462">
        <ele>188.4</ele>
        <time>2024-08-01T10:30:35Z</time>
      </trkpt>
      <trkpt lat="43.58155" lon="1.29473">
        <ele>188.6</ele>
        <time>2024-08-01T10:30:36Z</time>
      </trkpt>
      <trkpt lat="43.58156" lon="1.29484">
        <ele>188.4</ele>
        <time>2024-08-01T10:30:37Z</time>
      </trkpt>
      <trkpt lat="43.58156" lon="1.29496">
        <ele>188.4</ele>
        <time>2024-08-01T10:30:38Z</time>
      </trkpt>
      <trkpt lat="43.58156" lon="1.29507">
        <ele>188.4</ele>
        <time>2024-08-01T10:30:39Z</time>
      </trkpt>
      <trkpt lat="43.58156" lon="1.29518">
        <ele>188.4</ele>
        <time>2024-08-01T10:30:40Z</time>
      </trkpt>
      <trkpt lat="43.58156" lon="1.2953">
        <ele>188.6</ele>
        <time>2024-08-01T10:30:41Z</time>
      </trkpt>
      <trkpt lat="43.58156" lon="1.29541">
        <ele>188.6</ele>
        <time>2024-08-01T10:30:42Z</time>
      </trkpt>
      <trkpt lat="43.58156" lon="1.29552">
        <ele>188.4</ele>
        <time>2024-08-01T10:30:43Z</time>
      </trkpt>
      <trkpt lat="43.58155" lon="1.29564">
        <ele>188.4</ele>
        <time>2024-08-01T10:30:44Z</time>
      </trkpt>
      <trkpt lat="43.58155" lon="1.29575">
        <ele>188.4</ele>
        <time>2024-08-01T10:30:45Z</time>
      </trkpt>
      <trkpt lat="43.58155" lon="1.29586">
        <ele>188.4</ele>
        <time>2024-08-01T10:30:46Z</time>
      </trkpt>
      <trkpt lat="43.58154" lon="1.29597">
        <ele>188.2</ele>
        <time>2024-08-01T10:30:47Z</time>
      </trkpt>
      <trkpt lat="43.58154" lon="1.29609">
        <ele>188.2</ele>
        <time>2024-08-01T10:30:48Z</time>
      </trkpt>
      <trkpt lat="43.58153" lon="1.29619">
        <ele>188.2</ele>
        <time>2024-08-01T10:30:49Z</time>
      </trkpt>
      <trkpt lat="43.58153" lon="1.2963">
        <ele>188.2</ele>
        <time>2024-08-01T10:30:50Z</time>
      </trkpt>
      <trkpt lat="43.58152" lon="1.29641">
        <ele>188.2</ele>
        <time>2024-08-01T10:30:51Z</time>
      </trkpt>
      <trkpt lat="43.58151" lon="1.29653">
        <ele>188.2</ele>
        <time>2024-08-01T10:30:52Z</time>
      </trkpt>
      <trkpt lat="43.58151" lon="1.29664">
        <ele>188.2</ele>
        <time>2024-08-01T10:30:53Z</time>
      </trkpt>
      <trkpt lat="43.5815" lon="1.29674">
        <ele>188.2</ele>
        <time>2024-08-01T10:30:54Z</time>
      </trkpt>
      <trkpt lat="43.58149" lon="1.29685">
        <ele>188.2</ele>
        <time>2024-08-01T10:30:55Z</time>
      </trkpt>
      <trkpt lat="43.58147" lon="1.29695">
        <ele>188.2</ele>
        <time>2024-08-01T10:30:56Z</time>
      </trkpt>
      <trkpt lat="43.58145" lon="1.29706">
        <ele>188.4</ele>
        <time>2024-08-01T10:30:57Z</time>
      </trkpt>
      <trkpt lat="43.58143" lon="1.29716">
        <ele>188.4</ele>
        <time>2024-08-01T10:30:58Z</time>
      </trkpt>
      <trkpt lat="43.58141" lon="1.29726">
        <ele>188.4</ele>
        <time>2024-08-01T10:30:59Z</time>
      </trkpt>
      <trkpt lat="43.58139" lon="1.29737">
        <ele>188.4</ele>
        <time>2024-08-01T10:31:00Z</time>
      </trkpt>
      <trkpt lat="43.58139" lon="1.29747">
        <ele>188.4</ele>
        <time>2024-08-01T10:31:01Z</time>
      </trkpt>
      <trkpt lat="43.58139" lon="1.29757">
        <ele>188.4</ele>
        <time>2024-08-01T10:31:02Z</time>
      </trkpt>
      <trkpt lat="43.58139" lon="1.29767">
        <ele>188.4</ele>
        <time>2024-08-01T10:31:03Z</time>
      </trkpt>
      <trkpt lat="43.5814" lon="1.29777">
        <ele>188.2</ele>
        <time>2024-08-01T10:31:04Z</time>
      </trkpt>
      <trkpt lat="43.5814" lon="1.29787">
        <ele>188.2</ele>
        <time>2024-08-01T10:31:05Z</time>
      </trkpt>
      <trkpt lat="43.5814" lon="1.29797">
        <ele>188.2</ele>
        <time>2024-08-01T10:31:06Z</time>
      </trkpt>
      <trkpt lat="43.5814" lon="1.29807">
        <ele>188.2</ele>
        <time>2024-08-01T10:31:07Z</time>
      </trkpt>
      <trkpt lat="43.5814" lon="1.29818">
        <ele>188</ele>
        <time>2024-08-01T10:31:08Z</time>
      </trkpt>
      <trkpt lat="43.5814" lon="1.29829">
        <ele>188</ele>
        <time>2024-08-01T10:31:09Z</time>
      </trkpt>
      <trkpt lat="43.5814" lon="1.2984">
        <ele>188</ele>
        <time>2024-08-01T10:31:10Z</time>
      </trkpt>
      <trkpt lat="43.58139" lon="1.2985">
        <ele>188</ele>
        <time>2024-08-01T10:31:11Z</time>
      </trkpt>
      <trkpt lat="43.58139" lon="1.29861">
        <ele>188</ele>
        <time>2024-08-01T10:31:12Z</time>
      </trkpt>
      <trkpt lat="43.58139" lon="1.29871">
        <ele>188</ele>
        <time>2024-08-01T10:31:13Z</time>
      </trkpt>
      <trkpt lat="43.58138" lon="1.29881">
        <ele>187.8</ele>
        <time>2024-08-01T10:31:14Z</time>
      </trkpt>
      <trkpt lat="43.58138" lon="1.29891">
        <ele>187.8</ele>
        <time>2024-08-01T10:31:15Z</time>
      </trkpt>
      <trkpt lat="43.58137" lon="1.299">
        <ele>187.8</ele>
        <time>2024-08-01T10:31:16Z</time>
      </trkpt>
      <trkpt lat="43.58137" lon="1.2991">
        <ele>187.8</ele>
        <time>2024-08-01T10:31:17Z</time>
      </trkpt>
      <trkpt lat="43.58136" lon="1.29919">
        <ele>187.8</ele>
        <time>2024-08-01T10:31:18Z</time>
      </trkpt>
      <trkpt lat="43.58136" lon="1.29928">
        <ele>187.8</ele>
        <time>2024-08-01T10:31:19Z</time>
      </trkpt>
      <trkpt lat="43.58136" lon="1.29937">
        <ele>187.8</ele>
        <time>2024-08-01T10:31:20Z</time>
      </trkpt>
      <trkpt lat="43.58135" lon="1.29947">
        <ele>188</ele>
        <time>2024-08-01T10:31:21Z</time>
      </trkpt>
      <trkpt lat="43.58135" lon="1.29956">
        <ele>188</ele>
        <time>2024-08-01T10:31:22Z</time>
      </trkpt>
      <trkpt lat="43.58134" lon="1.29966">
        <ele>188</ele>
        <time>2024-08-01T10:31:23Z</time>
      </trkpt>
      <trkpt lat="43.58134" lon="1.29976">
        <ele>188</ele>
        <time>2024-08-01T10:31:24Z</time>
      </trkpt>
      <trkpt lat="43.58133" lon="1.29985">
        <ele>188.2</ele>
        <time>2024-08-01T10:31:25Z</time>
      </trkpt>
      <trkpt lat="43.58132" lon="1.29996">
        <ele>188.2</ele>
        <time>2024-08-01T10:31:26Z</time>
      </trkpt>
      <trkpt lat="43.58131" lon="1.30006">
        <ele>188.4</ele>
        <time>2024-08-01T10:31:27Z</time>
      </trkpt>
      <trkpt lat="43.58131" lon="1.30016">
        <ele>188.4</ele>
        <time>2024-08-01T10:31:28Z</time>
      </trkpt>
      <trkpt lat="43.5813" lon="1.30026">
        <ele>188.4</ele>
        <time>2024-08-01T10:31:29Z</time>
      </trkpt>
      <trkpt lat="43.58129" lon="1.30036">
        <ele>188.4</ele>
        <time>2024-08-01T10:31:30Z</time>
      </trkpt>
      <trkpt lat="43.58128" lon="1.30047">
        <ele>188.4</ele>
        <time>2024-08-01T10:31:31Z</time>
      </trkpt>
      <trkpt lat="43.58127" lon="1.30057">
        <ele>188.4</ele>
        <time>2024-08-01T10:31:32Z</time>
      </trkpt>
      <trkpt lat="43.58126" lon="1.30068">
        <ele>188.4</ele>
        <time>2024-08-01T10:31:33Z</time>
      </trkpt>
      <trkpt lat="43.58124" lon="1.30078">
        <ele>188.4</ele>
        <time>2024-08-01T10:31:34Z</time>
      </trkpt>
      <trkpt lat="43.58123" lon="1.30088">
        <ele>188.4</ele>
        <time>2024-08-01T10:31:35Z</time>
      </trkpt>
      <trkpt lat="43.58122" lon="1.30098">
        <ele>188.4</ele>
        <time>2024-08-01T10:31:36Z</time>
      </trkpt>
      <trkpt lat="43.58121" lon="1.30108">
        <ele>188.4</ele>
        <time>2024-08-01T10:31:37Z</time>
      </trkpt>
      <trkpt lat="43.58121" lon="1.30118">
        <ele>188.4</ele>
        <time>2024-08-01T10:31:38Z</time>
      </trkpt>
      <trkpt lat="43.58121" lon="1.30128">
        <ele>188.4</ele>
        <time>2024-08-01T10:31:39Z</time>
      </trkpt>
      <trkpt lat="43.58121" lon="1.30139">
        <ele>188.4</ele>
        <time>2024-08-01T10:31:40Z</time>
      </trkpt>
      <trkpt lat="43.58121" lon="1.30149">
        <ele>188.4</ele>
        <time>2024-08-01T10:31:41Z</time>
      </trkpt>
      <trkpt lat="43.58121" lon="1.3016">
        <ele>188.4</ele>
        <time>2024-08-01T10:31:42Z</time>
      </trkpt>
      <trkpt lat="43.58122" lon="1.3017">
        <ele>188.4</ele>
        <time>2024-08-01T10:31:43Z</time>
      </trkpt>
      <trkpt lat="43.58122" lon="1.30181">
        <ele>188.4</ele>
        <time>2024-08-01T10:31:44Z</time>
      </trkpt>
      <trkpt lat="43.58123" lon="1.30191">
        <ele>188.4</ele>
        <time>2024-08-01T10:31:45Z</time>
      </trkpt>
      <trkpt lat="43.58123" lon="1.30201">
        <ele>188.4</ele>
        <time>2024-08-01T10:31:46Z</time>
      </trkpt>
      <trkpt lat="43.58124" lon="1.30211">
        <ele>188.4</ele>
        <time>2024-08-01T10:31:47Z</time>
      </trkpt>
      <trkpt lat="43.58126" lon="1.30219">
        <ele>188.4</ele>
        <time>2024-08-01T10:31:48Z</time>
      </trkpt>
      <trkpt lat="43.58127" lon="1.3023">
        <ele>188.4</ele>
        <time>2024-08-01T10:31:49Z</time>
      </trkpt>
      <trkpt lat="43.58127" lon="1.30239">
        <ele>188.4</ele>
        <time>2024-08-01T10:31:50Z</time>
      </trkpt>
      <trkpt lat="43.58125" lon="1.30246">
        <ele>188.4</ele>
        <time>2024-08-01T10:31:51Z</time>
      </trkpt>
      <trkpt lat="43.58123" lon="1.30251">
        <ele>188.4</ele>
        <time>2024-08-01T10:31:52Z</time>
      </trkpt>
      <trkpt lat="43.58124" lon="1.30256">
        <ele>188.4</ele>
        <time>2024-08-01T10:31:53Z</time>
      </trkpt>
      <trkpt lat="43.58126" lon="1.30259">
        <ele>188.6</ele>
        <time>2024-08-01T10:31:54Z</time>
      </trkpt>
      <trkpt lat="43.5813" lon="1.30261">
        <ele>188.6</ele>
        <time>2024-08-01T10:31:55Z</time>
      </trkpt>
      <trkpt lat="43.58133" lon="1.30263">
        <ele>188.6</ele>
        <time>2024-08-01T10:31:56Z</time>
      </trkpt>
      <trkpt lat="43.58138" lon="1.30268">
        <ele>188.6</ele>
        <time>2024-08-01T10:31:57Z</time>
      </trkpt>
      <trkpt lat="43.58141" lon="1.30275">
        <ele>188.6</ele>
        <time>2024-08-01T10:31:58Z</time>
      </trkpt>
      <trkpt lat="43.58144" lon="1.30282">
        <ele>188.6</ele>
        <time>2024-08-01T10:31:59Z</time>
      </trkpt>
      <trkpt lat="43.58147" lon="1.30288">
        <ele>188.6</ele>
        <time>2024-08-01T10:32:00Z</time>
      </trkpt>
      <trkpt lat="43.58151" lon="1.30295">
        <ele>188.6</ele>
        <time>2024-08-01T10:32:01Z</time>
      </trkpt>
      <trkpt lat="43.58154" lon="1.30302">
        <ele>188.6</ele>
        <time>2024-08-01T10:32:02Z</time>
      </trkpt>
      <trkpt lat="43.58157" lon="1.3031">
        <ele>188.6</ele>
        <time>2024-08-01T10:32:03Z</time>
      </trkpt>
      <trkpt lat="43.58159" lon="1.30318">
        <ele>188.4</ele>
        <time>2024-08-01T10:32:04Z</time>
      </trkpt>
      <trkpt lat="43.58161" lon="1.30327">
        <ele>188.4</ele>
        <time>2024-08-01T10:32:05Z</time>
      </trkpt>
      <trkpt lat="43.58163" lon="1.30336">
        <ele>188.4</ele>
        <time>2024-08-01T10:32:06Z</time>
      </trkpt>
      <trkpt lat="43.58165" lon="1.30345">
        <ele>188.2</ele>
        <time>2024-08-01T10:32:07Z</time>
      </trkpt>
      <trkpt lat="43.58168" lon="1.30354">
        <ele>188.2</ele>
        <time>2024-08-01T10:32:08Z</time>
      </trkpt>
      <trkpt lat="43.5817" lon="1.30363">
        <ele>188.2</ele>
        <time>2024-08-01T10:32:09Z</time>
      </trkpt>
      <trkpt lat="43.58173" lon="1.30372">
        <ele>188</ele>
        <time>2024-08-01T10:32:10Z</time>
      </trkpt>
      <trkpt lat="43.58176" lon="1.30381">
        <ele>188.2</ele>
        <time>2024-08-01T10:32:11Z</time>
      </trkpt>
      <trkpt lat="43.5818" lon="1.3039">
        <ele>187.8</ele>
        <time>2024-08-01T10:32:12Z</time>
      </trkpt>
      <trkpt lat="43.58183" lon="1.30399">
        <ele>187.8</ele>
        <time>2024-08-01T10:32:13Z</time>
      </trkpt>
      <trkpt lat="43.58187" lon="1.30408">
        <ele>187.8</ele>
        <time>2024-08-01T10:32:14Z</time>
      </trkpt>
      <trkpt lat="43.58191" lon="1.30417">
        <ele>187.8</ele>
        <time>2024-08-01T10:32:15Z</time>
      </trkpt>
      <trkpt lat="43.58195" lon="1.30425">
        <ele>187.8</ele>
        <time>2024-08-01T10:32:16Z</time>
      </trkpt>
      <trkpt lat="43.582" lon="1.30434">
        <ele>187.8</ele>
        <time>2024-08-01T10:32:17Z</time>
      </trkpt>
      <trkpt lat="43.58204" lon="1.30442">
        <ele>187.8</ele>
        <time>2024-08-01T10:32:18Z</time>
      </trkpt>
      <trkpt lat="43.58209" lon="1.3045">
        <ele>187.8</ele>
        <time>2024-08-01T10:32:19Z</time>
      </trkpt>
      <trkpt lat="43.58213" lon="1.30459">
        <ele>187.8</ele>
        <time>2024-08-01T10:32:20Z</time>
      </trkpt>
      <trkpt lat="43.58218" lon="1.30467">
        <ele>188</ele>
        <time>2024-08-01T10:32:21Z</time>
      </trkpt>
      <trkpt lat="43.58222" lon="1.30476">
        <ele>188</ele>
        <time>2024-08-01T10:32:22Z</time>
      </trkpt>
      <trkpt lat="43.58227" lon="1.30484">
        <ele>188</ele>
        <time>2024-08-01T10:32:23Z</time>
      </trkpt>
      <trkpt lat="43.58231" lon="1.30492">
        <ele>188</ele>
        <time>2024-08-01T10:32:24Z</time>
      </trkpt>
      <trkpt lat="43.58236" lon="1.30501">
        <ele>188</ele>
        <time>2024-08-01T10:32:25Z</time>
      </trkpt>
      <trkpt lat="43.5824" lon="1.30509">
        <ele>188</ele>
        <time>2024-08-01T10:32:26Z</time>
      </trkpt>
      <trkpt lat="43.58245" lon="1.30517">
        <ele>187.8</ele>
        <time>2024-08-01T10:32:27Z</time>
      </trkpt>
      <trkpt lat="43.58249" lon="1.30526">
        <ele>187.6</ele>
        <time>2024-08-01T10:32:28Z</time>
      </trkpt>
      <trkpt lat="43.58253" lon="1.30534">
        <ele>187.6</ele>
        <time>2024-08-01T10:32:29Z</time>
      </trkpt>
      <trkpt lat="43.58258" lon="1.30542">
        <ele>187.6</ele>
        <time>2024-08-01T10:32:30Z</time>
      </trkpt>
      <trkpt lat="43.58262" lon="1.3055">
        <ele>187.6</ele>
        <time>2024-08-01T10:32:31Z</time>
      </trkpt>
      <trkpt lat="43.58267" lon="1.30558">
        <ele>187.4</ele>
        <time>2024-08-01T10:32:32Z</time>
      </trkpt>
      <trkpt lat="43.58271" lon="1.30567">
        <ele>187.4</ele>
        <time>2024-08-01T10:32:33Z</time>
      </trkpt>
      <trkpt lat="43.58275" lon="1.30575">
        <ele>187.4</ele>
        <time>2024-08-01T10:32:34Z</time>
      </trkpt>
      <trkpt lat="43.5828" lon="1.30583">
        <ele>187.4</ele>
        <time>2024-08-01T10:32:35Z</time>
      </trkpt>
      <trkpt lat="43.58284" lon="1.30591">
        <ele>187.2</ele>
        <time>2024-08-01T10:32:36Z</time>
      </trkpt>
      <trkpt lat="43.58289" lon="1.30599">
        <ele>187.2</ele>
        <time>2024-08-01T10:32:37Z</time>
      </trkpt>
      <trkpt lat="43.58293" lon="1.30608">
        <ele>187.2</ele>
        <time>2024-08-01T10:32:38Z</time>
      </trkpt>
      <trkpt lat="43.58296" lon="1.30617">
        <ele>187.2</ele>
        <time>2024-08-01T10:32:39Z</time>
      </trkpt>
      <trkpt lat="43.583" lon="1.30626">
        <ele>187.2</ele>
        <time>2024-08-01T10:32:40Z</time>
      </trkpt>
      <trkpt lat="43.58304" lon="1.30634">
        <ele>187.2</ele>
        <time>2024-08-01T10:32:41Z</time>
      </trkpt>
      <trkpt lat="43.58307" lon="1.30644">
        <ele>187.2</ele>
        <time>2024-08-01T10:32:42Z</time>
      </trkpt>
      <trkpt lat="43.58311" lon="1.30653">
        <ele>187.2</ele>
        <time>2024-08-01T10:32:43Z</time>
      </trkpt>
      <trkpt lat="43.58315" lon="1.30662">
        <ele>187.2</ele>
        <time>2024-08-01T10:32:44Z</time>
      </trkpt>
      <trkpt lat="43.58318" lon="1.30671">
        <ele>187.4</ele>
        <time>2024-08-01T10:32:45Z</time>
      </trkpt>
      <trkpt lat="43.58321" lon="1.30681">
        <ele>187.4</ele>
        <time>2024-08-01T10:32:46Z</time>
      </trkpt>
      <trkpt lat="43.58324" lon="1.3069">
        <ele>187.4</ele>
        <time>2024-08-01T10:32:47Z</time>
      </trkpt>
      <trkpt lat="43.58327" lon="1.307">
        <ele>187.4</ele>
        <time>2024-08-01T10:32:48Z</time>
      </trkpt>
      <trkpt lat="43.5833" lon="1.30709">
        <ele>187.6</ele>
        <time>2024-08-01T10:32:49Z</time>
      </trkpt>
      <trkpt lat="43.58334" lon="1.30718">
        <ele>187.6</ele>
        <time>2024-08-01T10:32:50Z</time>
      </trkpt>
      <trkpt lat="43.58338" lon="1.30727">
        <ele>187.6</ele>
        <time>2024-08-01T10:32:51Z</time>
      </trkpt>
      <trkpt lat="43.58341" lon="1.30737">
        <ele>187.4</ele>
        <time>2024-08-01T10:32:52Z</time>
      </trkpt>
      <trkpt lat="43.58345" lon="1.30746">
        <ele>187.4</ele>
        <time>2024-08-01T10:32:53Z</time>
      </trkpt>
      <trkpt lat="43.58348" lon="1.30755">
        <ele>187.2</ele>
        <time>2024-08-01T10:32:54Z</time>
      </trkpt>
      <trkpt lat="43.58352" lon="1.30765">
        <ele>187.2</ele>
        <time>2024-08-01T10:32:55Z</time>
      </trkpt>
      <trkpt lat="43.58355" lon="1.30774">
        <ele>187.4</ele>
        <time>2024-08-01T10:32:56Z</time>
      </trkpt>
      <trkpt lat="43.58359" lon="1.30783">
        <ele>187.2</ele>
        <time>2024-08-01T10:32:57Z</time>
      </trkpt>
      <trkpt lat="43.58363" lon="1.30792">
        <ele>187.4</ele>
        <time>2024-08-01T10:32:58Z</time>
      </trkpt>
      <trkpt lat="43.58366" lon="1.30802">
        <ele>187.4</ele>
        <time>2024-08-01T10:32:59Z</time>
      </trkpt>
      <trkpt lat="43.5837" lon="1.30811">
        <ele>187.2</ele>
        <time>2024-08-01T10:33:00Z</time>
      </trkpt>
      <trkpt lat="43.58375" lon="1.3082">
        <ele>187.2</ele>
        <time>2024-08-01T10:33:01Z</time>
      </trkpt>
      <trkpt lat="43.58379" lon="1.30829">
        <ele>187.2</ele>
        <time>2024-08-01T10:33:02Z</time>
      </trkpt>
      <trkpt lat="43.58384" lon="1.30838">
        <ele>187.2</ele>
        <time>2024-08-01T10:33:03Z</time>
      </trkpt>
      <trkpt lat="43.58388" lon="1.30846">
        <ele>187.2</ele>
        <time>2024-08-01T10:33:04Z</time>
      </trkpt>
      <trkpt lat="43.58392" lon="1.30855">
        <ele>186.8</ele>
        <time>2024-08-01T10:33:05Z</time>
      </trkpt>
      <trkpt lat="43.58397" lon="1.30863">
        <ele>186.8</ele>
        <time>2024-08-01T10:33:06Z</time>
      </trkpt>
      <trkpt lat="43.58402" lon="1.30871">
        <ele>187</ele>
        <time>2024-08-01T10:33:07Z</time>
      </trkpt>
      <trkpt lat="43.58406" lon="1.3088">
        <ele>186.8</ele>
        <time>2024-08-01T10:33:08Z</time>
      </trkpt>
      <trkpt lat="43.58411" lon="1.30888">
        <ele>186.8</ele>
        <time>2024-08-01T10:33:09Z</time>
      </trkpt>
      <trkpt lat="43.58416" lon="1.30897">
        <ele>186.8</ele>
        <time>2024-08-01T10:33:10Z</time>
      </trkpt>
      <trkpt lat="43.5842" lon="1.30905">
        <ele>187</ele>
        <time>2024-08-01T10:33:11Z</time>
      </trkpt>
      <trkpt lat="43.58425" lon="1.30913">
        <ele>187</ele>
        <time>2024-08-01T10:33:12Z</time>
      </trkpt>
      <trkpt lat="43.5843" lon="1.30921">
        <ele>186.6</ele>
        <time>2024-08-01T10:33:13Z</time>
      </trkpt>
      <trkpt lat="43.58434" lon="1.30929">
        <ele>186.6</ele>
        <time>2024-08-01T10:33:14Z</time>
      </trkpt>
      <trkpt lat="43.58439" lon="1.30937">
        <ele>187</ele>
        <time>2024-08-01T10:33:15Z</time>
      </trkpt>
      <trkpt lat="43.58443" lon="1.30945">
        <ele>187</ele>
        <time>2024-08-01T10:33:16Z</time>
      </trkpt>
      <trkpt lat="43.58448" lon="1.30953">
        <ele>187</ele>
        <time>2024-08-01T10:33:17Z</time>
      </trkpt>
      <trkpt lat="43.58453" lon="1.30961">
        <ele>187</ele>
        <time>2024-08-01T10:33:18Z</time>
      </trkpt>
      <trkpt lat="43.58458" lon="1.30969">
        <ele>187</ele>
        <time>2024-08-01T10:33:19Z</time>
      </trkpt>
      <trkpt lat="43.58463" lon="1.30978">
        <ele>187</ele>
        <time>2024-08-01T10:33:20Z</time>
      </trkpt>
      <trkpt lat="43.58467" lon="1.30986">
        <ele>187</ele>
        <time>2024-08-01T10:33:21Z</time>
      </trkpt>
      <trkpt lat="43.58472" lon="1.30994">
        <ele>186.8</ele>
        <time>2024-08-01T10:33:22Z</time>
      </trkpt>
      <trkpt lat="43.58477" lon="1.31003">
        <ele>187</ele>
        <time>2024-08-01T10:33:23Z</time>
      </trkpt>
      <trkpt lat="43.58481" lon="1.31011">
        <ele>186.8</ele>
        <time>2024-08-01T10:33:24Z</time>
      </trkpt>
      <trkpt lat="43.58486" lon="1.3102">
        <ele>186.8</ele>
        <time>2024-08-01T10:33:25Z</time>
      </trkpt>
      <trkpt lat="43.58491" lon="1.31029">
        <ele>186.8</ele>
        <time>2024-08-01T10:33:26Z</time>
      </trkpt>
      <trkpt lat="43.58495" lon="1.31037">
        <ele>186.8</ele>
        <time>2024-08-01T10:33:27Z</time>
      </trkpt>
      <trkpt lat="43.585" lon="1.31046">
        <ele>186.8</ele>
        <time>2024-08-01T10:33:28Z</time>
      </trkpt>
      <trkpt lat="43.58504" lon="1.31054">
        <ele>186.8</ele>
        <time>2024-08-01T10:33:29Z</time>
      </trkpt>
      <trkpt lat="43.58508" lon="1.31063">
        <ele>186.6</ele>
        <time>2024-08-01T10:33:30Z</time>
      </trkpt>
      <trkpt lat="43.58512" lon="1.31072">
        <ele>186.6</ele>
        <time>2024-08-01T10:33:31Z</time>
      </trkpt>
      <trkpt lat="43.58516" lon="1.3108">
        <ele>186.6</ele>
        <time>2024-08-01T10:33:32Z</time>
      </trkpt>
      <trkpt lat="43.5852" lon="1.31089">
        <ele>186.6</ele>
        <time>2024-08-01T10:33:33Z</time>
      </trkpt>
      <trkpt lat="43.58524" lon="1.31098">
        <ele>186.6</ele>
        <time>2024-08-01T10:33:34Z</time>
      </trkpt>
      <trkpt lat="43.58528" lon="1.31106">
        <ele>186.4</ele>
        <time>2024-08-01T10:33:35Z</time>
      </trkpt>
      <trkpt lat="43.58531" lon="1.31115">
        <ele>186.2</ele>
        <time>2024-08-01T10:33:36Z</time>
      </trkpt>
      <trkpt lat="43.58535" lon="1.31123">
        <ele>186</ele>
        <time>2024-08-01T10:33:37Z</time>
      </trkpt>
      <trkpt lat="43.58538" lon="1.31132">
        <ele>186</ele>
        <time>2024-08-01T10:33:38Z</time>
      </trkpt>
      <trkpt lat="43.58542" lon="1.31141">
        <ele>185.8</ele>
        <time>2024-08-01T10:33:39Z</time>
      </trkpt>
      <trkpt lat="43.58546" lon="1.31149">
        <ele>185.6</ele>
        <time>2024-08-01T10:33:40Z</time>
      </trkpt>
      <trkpt lat="43.5855" lon="1.31156">
        <ele>185.6</ele>
        <time>2024-08-01T10:33:41Z</time>
      </trkpt>
      <trkpt lat="43.58554" lon="1.31162">
        <ele>185.6</ele>
        <time>2024-08-01T10:33:42Z</time>
      </trkpt>
      <trkpt lat="43.58559" lon="1.31168">
        <ele>185.4</ele>
        <time>2024-08-01T10:33:43Z</time>
      </trkpt>
      <trkpt lat="43.58563" lon="1.31175">
        <ele>185.4</ele>
        <time>2024-08-01T10:33:44Z</time>
      </trkpt>
      <trkpt lat="43.58567" lon="1.31182">
        <ele>185.2</ele>
        <time>2024-08-01T10:33:45Z</time>
      </trkpt>
      <trkpt lat="43.58571" lon="1.3119">
        <ele>185.2</ele>
        <time>2024-08-01T10:33:46Z</time>
      </trkpt>
      <trkpt lat="43.58575" lon="1.31198">
        <ele>185.2</ele>
        <time>2024-08-01T10:33:47Z</time>
      </trkpt>
      <trkpt lat="43.58579" lon="1.31206">
        <ele>185.2</ele>
        <time>2024-08-01T10:33:48Z</time>
      </trkpt>
      <trkpt lat="43.58583" lon="1.31214">
        <ele>185.2</ele>
        <time>2024-08-01T10:33:49Z</time>
      </trkpt>
      <trkpt lat="43.58587" lon="1.31222">
        <ele>185.2</ele>
        <time>2024-08-01T10:33:50Z</time>
      </trkpt>
      <trkpt lat="43.5859" lon="1.31231">
        <ele>185</ele>
        <time>2024-08-01T10:33:51Z</time>
      </trkpt>
      <trkpt lat="43.58593" lon="1.3124">
        <ele>185</ele>
        <time>2024-08-01T10:33:52Z</time>
      </trkpt>
      <trkpt lat="43.58595" lon="1.31249">
        <ele>185</ele>
        <time>2024-08-01T10:33:53Z</time>
      </trkpt>
      <trkpt lat="43.58596" lon="1.31259">
        <ele>185</ele>
        <time>2024-08-01T10:33:54Z</time>
      </trkpt>
      <trkpt lat="43.58597" lon="1.31268">
        <ele>185</ele>
        <time>2024-08-01T10:33:55Z</time>
      </trkpt>
      <trkpt lat="43.58597" lon="1.31276">
        <ele>185</ele>
        <time>2024-08-01T10:33:56Z</time>
      </trkpt>
      <trkpt lat="43.58597" lon="1.31287">
        <ele>185.2</ele>
        <time>2024-08-01T10:33:57Z</time>
      </trkpt>
      <trkpt lat="43.58597" lon="1.31297">
        <ele>185.4</ele>
        <time>2024-08-01T10:33:58Z</time>
      </trkpt>
      <trkpt lat="43.58597" lon="1.31307">
        <ele>185.2</ele>
        <time>2024-08-01T10:33:59Z</time>
      </trkpt>
      <trkpt lat="43.58598" lon="1.31317">
        <ele>185.2</ele>
        <time>2024-08-01T10:34:00Z</time>
      </trkpt>
      <trkpt lat="43.58598" lon="1.31326">
        <ele>185.2</ele>
        <time>2024-08-01T10:34:01Z</time>
      </trkpt>
      <trkpt lat="43.58599" lon="1.31336">
        <ele>185.2</ele>
        <time>2024-08-01T10:34:02Z</time>
      </trkpt>
      <trkpt lat="43.586" lon="1.31346">
        <ele>185.2</ele>
        <time>2024-08-01T10:34:03Z</time>
      </trkpt>
      <trkpt lat="43.58601" lon="1.31355">
        <ele>185.2</ele>
        <time>2024-08-01T10:34:04Z</time>
      </trkpt>
      <trkpt lat="43.58602" lon="1.31365">
        <ele>185.2</ele>
        <time>2024-08-01T10:34:05Z</time>
      </trkpt>
      <trkpt lat="43.58603" lon="1.31375">
        <ele>185.2</ele>
        <time>2024-08-01T10:34:06Z</time>
      </trkpt>
      <trkpt lat="43.58604" lon="1.31384">
        <ele>185.2</ele>
        <time>2024-08-01T10:34:07Z</time>
      </trkpt>
      <trkpt lat="43.58605" lon="1.31392">
        <ele>185.4</ele>
        <time>2024-08-01T10:34:08Z</time>
      </trkpt>
      <trkpt lat="43.58606" lon="1.31404">
        <ele>185.4</ele>
        <time>2024-08-01T10:34:09Z</time>
      </trkpt>
      <trkpt lat="43.58607" lon="1.31415">
        <ele>185.4</ele>
        <time>2024-08-01T10:34:10Z</time>
      </trkpt>
      <trkpt lat="43.58608" lon="1.31425">
        <ele>185.6</ele>
        <time>2024-08-01T10:34:11Z</time>
      </trkpt>
      <trkpt lat="43.58609" lon="1.31436">
        <ele>185.6</ele>
        <time>2024-08-01T10:34:12Z</time>
      </trkpt>
      <trkpt lat="43.58611" lon="1.31447">
        <ele>185.6</ele>
        <time>2024-08-01T10:34:13Z</time>
      </trkpt>
      <trkpt lat="43.58612" lon="1.31458">
        <ele>185.6</ele>
        <time>2024-08-01T10:34:14Z</time>
      </trkpt>
      <trkpt lat="43.58613" lon="1.31469">
        <ele>185.6</ele>
        <time>2024-08-01T10:34:15Z</time>
      </trkpt>
      <trkpt lat="43.58614" lon="1.3148">
        <ele>185.6</ele>
        <time>2024-08-01T10:34:16Z</time>
      </trkpt>
      <trkpt lat="43.58615" lon="1.3149">
        <ele>185.6</ele>
        <time>2024-08-01T10:34:17Z</time>
      </trkpt>
      <trkpt lat="43.58616" lon="1.31501">
        <ele>185.4</ele>
        <time>2024-08-01T10:34:18Z</time>
      </trkpt>
      <trkpt lat="43.58617" lon="1.31512">
        <ele>185.4</ele>
        <time>2024-08-01T10:34:19Z</time>
      </trkpt>
      <trkpt lat="43.58618" lon="1.31523">
        <ele>185.4</ele>
        <time>2024-08-01T10:34:20Z</time>
      </trkpt>
      <trkpt lat="43.58619" lon="1.31534">
        <ele>185.4</ele>
        <time>2024-08-01T10:34:21Z</time>
      </trkpt>
      <trkpt lat="43.58621" lon="1.31545">
        <ele>185.2</ele>
        <time>2024-08-01T10:34:22Z</time>
      </trkpt>
      <trkpt lat="43.58622" lon="1.31555">
        <ele>185.2</ele>
        <time>2024-08-01T10:34:23Z</time>
      </trkpt>
      <trkpt lat="43.58623" lon="1.31566">
        <ele>185.2</ele>
        <time>2024-08-01T10:34:24Z</time>
      </trkpt>
      <trkpt lat="43.58623" lon="1.31577">
        <ele>185.2</ele>
        <time>2024-08-01T10:34:25Z</time>
      </trkpt>
      <trkpt lat="43.58624" lon="1.31587">
        <ele>185</ele>
        <time>2024-08-01T10:34:26Z</time>
      </trkpt>
      <trkpt lat="43.58624" lon="1.31597">
        <ele>185</ele>
        <time>2024-08-01T10:34:27Z</time>
      </trkpt>
      <trkpt lat="43.58625" lon="1.31608">
        <ele>185.2</ele>
        <time>2024-08-01T10:34:28Z</time>
      </trkpt>
      <trkpt lat="43.58626" lon="1.31619">
        <ele>185.2</ele>
        <time>2024-08-01T10:34:29Z</time>
      </trkpt>
      <trkpt lat="43.58627" lon="1.31629">
        <ele>185.2</ele>
        <time>2024-08-01T10:34:30Z</time>
      </trkpt>
      <trkpt lat="43.58628" lon="1.3164">
        <ele>185.2</ele>
        <time>2024-08-01T10:34:31Z</time>
      </trkpt>
      <trkpt lat="43.58629" lon="1.3165">
        <ele>185.2</ele>
        <time>2024-08-01T10:34:32Z</time>
      </trkpt>
      <trkpt lat="43.5863" lon="1.31659">
        <ele>185.2</ele>
        <time>2024-08-01T10:34:33Z</time>
      </trkpt>
      <trkpt lat="43.58631" lon="1.31669">
        <ele>185.2</ele>
        <time>2024-08-01T10:34:34Z</time>
      </trkpt>
      <trkpt lat="43.58631" lon="1.31678">
        <ele>185.2</ele>
        <time>2024-08-01T10:34:35Z</time>
      </trkpt>
      <trkpt lat="43.58632" lon="1.31687">
        <ele>185.2</ele>
        <time>2024-08-01T10:34:36Z</time>
      </trkpt>
      <trkpt lat="43.58633" lon="1.31696">
        <ele>185</ele>
        <time>2024-08-01T10:34:37Z</time>
      </trkpt>
      <trkpt lat="43.58634" lon="1.31705">
        <ele>185</ele>
        <time>2024-08-01T10:34:38Z</time>
      </trkpt>
      <trkpt lat="43.58635" lon="1.31714">
        <ele>185</ele>
        <time>2024-08-01T10:34:39Z</time>
      </trkpt>
      <trkpt lat="43.58637" lon="1.31723">
        <ele>185</ele>
        <time>2024-08-01T10:34:40Z</time>
      </trkpt>
      <trkpt lat="43.58639" lon="1.31732">
        <ele>184.8</ele>
        <time>2024-08-01T10:34:41Z</time>
      </trkpt>
      <trkpt lat="43.5864" lon="1.31741">
        <ele>184.8</ele>
        <time>2024-08-01T10:34:42Z</time>
      </trkpt>
      <trkpt lat="43.58642" lon="1.31751">
        <ele>184.8</ele>
        <time>2024-08-01T10:34:43Z</time>
      </trkpt>
      <trkpt lat="43.58644" lon="1.31761">
        <ele>184.8</ele>
        <time>2024-08-01T10:34:44Z</time>
      </trkpt>
      <trkpt lat="43.58645" lon="1.31771">
        <ele>184.8</ele>
        <time>2024-08-01T10:34:45Z</time>
      </trkpt>
      <trkpt lat="43.58647" lon="1.31781">
        <ele>184.8</ele>
        <time>2024-08-01T10:34:46Z</time>
      </trkpt>
      <trkpt lat="43.58648" lon="1.31791">
        <ele>184.8</ele>
        <time>2024-08-01T10:34:47Z</time>
      </trkpt>
      <trkpt lat="43.5865" lon="1.318">
        <ele>184.8</ele>
        <time>2024-08-01T10:34:48Z</time>
      </trkpt>
      <trkpt lat="43.58652" lon="1.3181">
        <ele>184.8</ele>
        <time>2024-08-01T10:34:49Z</time>
      </trkpt>
      <trkpt lat="43.58653" lon="1.3182">
        <ele>184.6</ele>
        <time>2024-08-01T10:34:50Z</time>
      </trkpt>
      <trkpt lat="43.58655" lon="1.3183">
        <ele>184.6</ele>
        <time>2024-08-01T10:34:51Z</time>
      </trkpt>
      <trkpt lat="43.58657" lon="1.3184">
        <ele>184.6</ele>
        <time>2024-08-01T10:34:52Z</time>
      </trkpt>
      <trkpt lat="43.58658" lon="1.3185">
        <ele>184.6</ele>
        <time>2024-08-01T10:34:53Z</time>
      </trkpt>
      <trkpt lat="43.5866" lon="1.3186">
        <ele>184.6</ele>
        <time>2024-08-01T10:34:54Z</time>
      </trkpt>
      <trkpt lat="43.58662" lon="1.3187">
        <ele>184.6</ele>
        <time>2024-08-01T10:34:55Z</time>
      </trkpt>
      <trkpt lat="43.58664" lon="1.3188">
        <ele>184.6</ele>
        <time>2024-08-01T10:34:56Z</time>
      </trkpt>
      <trkpt lat="43.58665" lon="1.3189">
        <ele>184.6</ele>
        <time>2024-08-01T10:34:57Z</time>
      </trkpt>
      <trkpt lat="43.58667" lon="1.319">
        <ele>184.4</ele>
        <time>2024-08-01T10:34:58Z</time>
      </trkpt>
      <trkpt lat="43.58668" lon="1.3191">
        <ele>184.4</ele>
        <time>2024-08-01T10:34:59Z</time>
      </trkpt>
      <trkpt lat="43.5867" lon="1.31919">
        <ele>184.2</ele>
        <time>2024-08-01T10:35:00Z</time>
      </trkpt>
      <trkpt lat="43.58672" lon="1.31928">
        <ele>184.2</ele>
        <time>2024-08-01T10:35:01Z</time>
      </trkpt>
      <trkpt lat="43.58673" lon="1.31936">
        <ele>184.2</ele>
        <time>2024-08-01T10:35:02Z</time>
      </trkpt>
      <trkpt lat="43.58674" lon="1.31943">
        <ele>184</ele>
        <time>2024-08-01T10:35:03Z</time>
      </trkpt>
      <trkpt lat="43.58674" lon="1.3195">
        <ele>184</ele>
        <time>2024-08-01T10:35:04Z</time>
      </trkpt>
      <trkpt lat="43.58673" lon="1.31957">
        <ele>184</ele>
        <time>2024-08-01T10:35:05Z</time>
      </trkpt>
      <trkpt lat="43.58673" lon="1.31963">
        <ele>183.8</ele>
        <time>2024-08-01T10:35:06Z</time>
      </trkpt>
      <trkpt lat="43.58674" lon="1.31969">
        <ele>183.8</ele>
        <time>2024-08-01T10:35:07Z</time>
      </trkpt>
      <trkpt lat="43.58676" lon="1.31975">
        <ele>183.8</ele>
        <time>2024-08-01T10:35:08Z</time>
      </trkpt>
      <trkpt lat="43.58679" lon="1.3198">
        <ele>183.8</ele>
        <time>2024-08-01T10:35:09Z</time>
      </trkpt>
      <trkpt lat="43.58682" lon="1.31985">
        <ele>183.6</ele>
        <time>2024-08-01T10:35:10Z</time>
      </trkpt>
      <trkpt lat="43.58685" lon="1.31991">
        <ele>183.6</ele>
        <time>2024-08-01T10:35:11Z</time>
      </trkpt>
      <trkpt lat="43.58686" lon="1.31999">
        <ele>183.6</ele>
        <time>2024-08-01T10:35:12Z</time>
      </trkpt>
      <trkpt lat="43.58686" lon="1.32007">
        <ele>183.6</ele>
        <time>2024-08-01T10:35:13Z</time>
      </trkpt>
      <trkpt lat="43.58686" lon="1.32016">
        <ele>183.4</ele>
        <time>2024-08-01T10:35:14Z</time>
      </trkpt>
      <trkpt lat="43.58687" lon="1.32024">
        <ele>183.4</ele>
        <time>2024-08-01T10:35:15Z</time>
      </trkpt>
      <trkpt lat="43.58687" lon="1.32033">
        <ele>183.4</ele>
        <time>2024-08-01T10:35:16Z</time>
      </trkpt>
      <trkpt lat="43.58687" lon="1.32042">
        <ele>183</ele>
        <time>2024-08-01T10:35:17Z</time>
      </trkpt>
      <trkpt lat="43.58688" lon="1.32052">
        <ele>183</ele>
        <time>2024-08-01T10:35:18Z</time>
      </trkpt>
      <trkpt lat="43.58688" lon="1.32061">
        <ele>182.8</ele>
        <time>2024-08-01T10:35:19Z</time>
      </trkpt>
      <trkpt lat="43.58688" lon="1.32071">
        <ele>182.8</ele>
        <time>2024-08-01T10:35:20Z</time>
      </trkpt>
      <trkpt lat="43.58687" lon="1.32081">
        <ele>182.6</ele>
        <time>2024-08-01T10:35:21Z</time>
      </trkpt>
      <trkpt lat="43.58687" lon="1.3209">
        <ele>182.6</ele>
        <time>2024-08-01T10:35:22Z</time>
      </trkpt>
      <trkpt lat="43.58686" lon="1.321">
        <ele>182.6</ele>
        <time>2024-08-01T10:35:23Z</time>
      </trkpt>
      <trkpt lat="43.58686" lon="1.32109">
        <ele>182.6</ele>
        <time>2024-08-01T10:35:24Z</time>
      </trkpt>
      <trkpt lat="43.58685" lon="1.32118">
        <ele>182.6</ele>
        <time>2024-08-01T10:35:25Z</time>
      </trkpt>
      <trkpt lat="43.58684" lon="1.32128">
        <ele>182.6</ele>
        <time>2024-08-01T10:35:26Z</time>
      </trkpt>
      <trkpt lat="43.58684" lon="1.32137">
        <ele>182.6</ele>
        <time>2024-08-01T10:35:27Z</time>
      </trkpt>
      <trkpt lat="43.58683" lon="1.32146">
        <ele>182.6</ele>
        <time>2024-08-01T10:35:28Z</time>
      </trkpt>
      <trkpt lat="43.58682" lon="1.32156">
        <ele>182.6</ele>
        <time>2024-08-01T10:35:29Z</time>
      </trkpt>
      <trkpt lat="43.58681" lon="1.32164">
        <ele>182.8</ele>
        <time>2024-08-01T10:35:30Z</time>
      </trkpt>
      <trkpt lat="43.58681" lon="1.32173">
        <ele>182.8</ele>
        <time>2024-08-01T10:35:31Z</time>
      </trkpt>
      <trkpt lat="43.5868" lon="1.32181">
        <ele>182.8</ele>
        <time>2024-08-01T10:35:32Z</time>
      </trkpt>
      <trkpt lat="43.58679" lon="1.32189">
        <ele>183</ele>
        <time>2024-08-01T10:35:33Z</time>
      </trkpt>
      <trkpt lat="43.58678" lon="1.32197">
        <ele>183</ele>
        <time>2024-08-01T10:35:34Z</time>
      </trkpt>
      <trkpt lat="43.58677" lon="1.32205">
        <ele>183</ele>
        <time>2024-08-01T10:35:35Z</time>
      </trkpt>
      <trkpt lat="43.58676" lon="1.32213">
        <ele>183.2</ele>
        <time>2024-08-01T10:35:36Z</time>
      </trkpt>
      <trkpt lat="43.58675" lon="1.32218">
        <ele>183.2</ele>
        <time>2024-08-01T10:35:37Z</time>
      </trkpt>
      <trkpt lat="43.58675" lon="1.32223">
        <ele>183.2</ele>
        <time>2024-08-01T10:35:38Z</time>
      </trkpt>
      <trkpt lat="43.58674" lon="1.32226">
        <ele>183.2</ele>
        <time>2024-08-01T10:35:39Z</time>
      </trkpt>
      <trkpt lat="43.58674" lon="1.32228">
        <ele>183.2</ele>
        <time>2024-08-01T10:35:40Z</time>
      </trkpt>
      <trkpt lat="43.58674" lon="1.3223">
        <ele>183.2</ele>
        <time>2024-08-01T10:35:41Z</time>
      </trkpt>
      <trkpt lat="43.58674" lon="1.3223">
        <ele>183.2</ele>
        <time>2024-08-01T10:35:42Z</time>
      </trkpt>
      <trkpt lat="43.58673" lon="1.32229">
        <ele>183</ele>
        <time>2024-08-01T10:35:43Z</time>
      </trkpt>
      <trkpt lat="43.58673" lon="1.32227">
        <ele>183</ele>
        <time>2024-08-01T10:35:44Z</time>
      </trkpt>
      <trkpt lat="43.58673" lon="1.32227">
        <ele>182.8</ele>
        <time>2024-08-01T10:35:45Z</time>
      </trkpt>
      <trkpt lat="43.58673" lon="1.32227">
        <ele>182.8</ele>
        <time>2024-08-01T10:35:46Z</time>
      </trkpt>
    </trkseg>
  </trk>
</gpx>